<?xml version="1.0" encoding="UTF-8" standalone="no" ?>
<gpx xmlns="http://www.topografix.com/GPX/1/1" xmlns:xsi="http://www.w3.org/2001/XMLSchema-instance" xsi:schemaLocation="http://www.topografix.com/GPX/1/1 http://www.topografix.com/GPX/1/1/gpx.xsd" version="1.1" creator="VisuGPX - https://www.visugpx.com">
  <metadata>
    <name>Faisanderie - les Demoiselles</name>
    <desc><![CDATA[Rando de 24km avec divers aspects de la forêt ]]></desc>
  </metadata>
  <trk>
    <name><![CDATA[2021-09-15 16:40:35]]></name>
    <extensions>
      <line xmlns="http://www.topografix.com/GPX/gpx_style/0/2">
        <color>0000FF</color>
        <width>4</width>
      </line>
    </extensions>
    <trkseg>
      <trkpt lat="48.40214" lon="2.67475">
        <ele>78.36</ele>
        <time>2021-09-15T06:43:17Z</time>
      </trkpt>
      <trkpt lat="48.40213" lon="2.67474">
        <ele>78.65</ele>
        <time>2021-09-15T06:43:18Z</time>
      </trkpt>
      <trkpt lat="48.40209" lon="2.67471">
        <ele>80.29</ele>
        <time>2021-09-15T06:43:21Z</time>
      </trkpt>
      <trkpt lat="48.40196" lon="2.67462">
        <ele>79.7</ele>
        <time>2021-09-15T06:43:36Z</time>
      </trkpt>
      <trkpt lat="48.4018" lon="2.67455">
        <ele>79.26</ele>
        <time>2021-09-15T06:43:58Z</time>
      </trkpt>
      <trkpt lat="48.40179" lon="2.67454">
        <ele>79.32</ele>
        <time>2021-09-15T06:43:59Z</time>
      </trkpt>
      <trkpt lat="48.40178" lon="2.67452">
        <ele>79.34</ele>
        <time>2021-09-15T06:44:00Z</time>
      </trkpt>
      <trkpt lat="48.40177" lon="2.67452">
        <ele>79.35</ele>
        <time>2021-09-15T06:44:01Z</time>
      </trkpt>
      <trkpt lat="48.40163" lon="2.6743">
        <ele>78.98</ele>
        <time>2021-09-15T06:44:21Z</time>
      </trkpt>
      <trkpt lat="48.4015" lon="2.67411">
        <ele>78.9</ele>
        <time>2021-09-15T06:44:42Z</time>
      </trkpt>
      <trkpt lat="48.40146" lon="2.67407">
        <ele>78.75</ele>
        <time>2021-09-15T06:45:03Z</time>
      </trkpt>
      <trkpt lat="48.40143" lon="2.67405">
        <ele>78.75</ele>
        <time>2021-09-15T06:45:06Z</time>
      </trkpt>
      <trkpt lat="48.40128" lon="2.67398">
        <ele>78.75</ele>
        <time>2021-09-15T06:45:29Z</time>
      </trkpt>
      <trkpt lat="48.40115" lon="2.67398">
        <ele>75.72</ele>
        <time>2021-09-15T06:45:48Z</time>
      </trkpt>
      <trkpt lat="48.4011" lon="2.67402">
        <ele>78.43</ele>
        <time>2021-09-15T06:46:13Z</time>
      </trkpt>
      <trkpt lat="48.40109" lon="2.67402">
        <ele>79.68</ele>
        <time>2021-09-15T06:46:16Z</time>
      </trkpt>
      <trkpt lat="48.40089" lon="2.674">
        <ele>79.6</ele>
        <time>2021-09-15T06:46:41Z</time>
      </trkpt>
      <trkpt lat="48.4008" lon="2.67403">
        <ele>79.55</ele>
        <time>2021-09-15T06:46:48Z</time>
      </trkpt>
      <trkpt lat="48.40052" lon="2.67408">
        <ele>79.85</ele>
        <time>2021-09-15T06:47:13Z</time>
      </trkpt>
      <trkpt lat="48.40042" lon="2.67408">
        <ele>77.79</ele>
        <time>2021-09-15T06:47:22Z</time>
      </trkpt>
      <trkpt lat="48.40035" lon="2.67409">
        <ele>79.73</ele>
        <time>2021-09-15T06:47:27Z</time>
      </trkpt>
      <trkpt lat="48.4001" lon="2.67408">
        <ele>78.18</ele>
        <time>2021-09-15T06:47:44Z</time>
      </trkpt>
      <trkpt lat="48.39994" lon="2.674">
        <ele>78.06</ele>
        <time>2021-09-15T06:48:01Z</time>
      </trkpt>
      <trkpt lat="48.39994" lon="2.67392">
        <ele>78.32</ele>
        <time>2021-09-15T06:48:05Z</time>
      </trkpt>
      <trkpt lat="48.39993" lon="2.6739">
        <ele>78.35</ele>
        <time>2021-09-15T06:48:06Z</time>
      </trkpt>
      <trkpt lat="48.39993" lon="2.67389">
        <ele>78.38</ele>
        <time>2021-09-15T06:48:07Z</time>
      </trkpt>
      <trkpt lat="48.39989" lon="2.67364">
        <ele>78.66</ele>
        <time>2021-09-15T06:48:23Z</time>
      </trkpt>
      <trkpt lat="48.39993" lon="2.67346">
        <ele>78.53</ele>
        <time>2021-09-15T06:48:33Z</time>
      </trkpt>
      <trkpt lat="48.40006" lon="2.67326">
        <ele>78.61</ele>
        <time>2021-09-15T06:48:53Z</time>
      </trkpt>
      <trkpt lat="48.40007" lon="2.67325">
        <ele>78.61</ele>
        <time>2021-09-15T06:48:54Z</time>
      </trkpt>
      <trkpt lat="48.40009" lon="2.67324">
        <ele>78.63</ele>
        <time>2021-09-15T06:48:56Z</time>
      </trkpt>
      <trkpt lat="48.40022" lon="2.67322">
        <ele>78.72</ele>
        <time>2021-09-15T06:49:08Z</time>
      </trkpt>
      <trkpt lat="48.40031" lon="2.67309">
        <ele>78.81</ele>
        <time>2021-09-15T06:49:18Z</time>
      </trkpt>
      <trkpt lat="48.40031" lon="2.67293">
        <ele>77.77</ele>
        <time>2021-09-15T06:49:27Z</time>
      </trkpt>
      <trkpt lat="48.40031" lon="2.67291">
        <ele>77.55</ele>
        <time>2021-09-15T06:49:28Z</time>
      </trkpt>
      <trkpt lat="48.4003" lon="2.6729">
        <ele>77.52</ele>
        <time>2021-09-15T06:49:29Z</time>
      </trkpt>
      <trkpt lat="48.40029" lon="2.67289">
        <ele>78.6</ele>
        <time>2021-09-15T06:49:30Z</time>
      </trkpt>
      <trkpt lat="48.40028" lon="2.67288">
        <ele>79.31</ele>
        <time>2021-09-15T06:49:31Z</time>
      </trkpt>
      <trkpt lat="48.40027" lon="2.67287">
        <ele>79.84</ele>
        <time>2021-09-15T06:49:32Z</time>
      </trkpt>
      <trkpt lat="48.40026" lon="2.67285">
        <ele>80.55</ele>
        <time>2021-09-15T06:49:34Z</time>
      </trkpt>
      <trkpt lat="48.40007" lon="2.67279">
        <ele>78.13</ele>
        <time>2021-09-15T06:49:52Z</time>
      </trkpt>
      <trkpt lat="48.39987" lon="2.6726">
        <ele>78.58</ele>
        <time>2021-09-15T06:50:12Z</time>
      </trkpt>
      <trkpt lat="48.39983" lon="2.6724">
        <ele>79.9</ele>
        <time>2021-09-15T06:50:27Z</time>
      </trkpt>
      <trkpt lat="48.3998" lon="2.6722">
        <ele>78.27</ele>
        <time>2021-09-15T06:50:43Z</time>
      </trkpt>
      <trkpt lat="48.39981" lon="2.67204">
        <ele>77.59</ele>
        <time>2021-09-15T06:50:52Z</time>
      </trkpt>
      <trkpt lat="48.39977" lon="2.67172">
        <ele>79.13</ele>
        <time>2021-09-15T06:51:13Z</time>
      </trkpt>
      <trkpt lat="48.39973" lon="2.67149">
        <ele>80.06</ele>
        <time>2021-09-15T06:51:26Z</time>
      </trkpt>
      <trkpt lat="48.3997" lon="2.6712">
        <ele>79.39</ele>
        <time>2021-09-15T06:51:43Z</time>
      </trkpt>
      <trkpt lat="48.39963" lon="2.67077">
        <ele>80.11</ele>
        <time>2021-09-15T06:52:09Z</time>
      </trkpt>
      <trkpt lat="48.39956" lon="2.67055">
        <ele>81.58</ele>
        <time>2021-09-15T06:52:24Z</time>
      </trkpt>
      <trkpt lat="48.39941" lon="2.67017">
        <ele>81.38</ele>
        <time>2021-09-15T06:52:48Z</time>
      </trkpt>
      <trkpt lat="48.39929" lon="2.66992">
        <ele>82.23</ele>
        <time>2021-09-15T06:53:08Z</time>
      </trkpt>
      <trkpt lat="48.39924" lon="2.66971">
        <ele>82.66</ele>
        <time>2021-09-15T06:53:25Z</time>
      </trkpt>
      <trkpt lat="48.39913" lon="2.66953">
        <ele>83.28</ele>
        <time>2021-09-15T06:53:47Z</time>
      </trkpt>
      <trkpt lat="48.39905" lon="2.66946">
        <ele>83.54</ele>
        <time>2021-09-15T06:54:07Z</time>
      </trkpt>
      <trkpt lat="48.39896" lon="2.66926">
        <ele>84.41</ele>
        <time>2021-09-15T06:54:30Z</time>
      </trkpt>
      <trkpt lat="48.39893" lon="2.66915">
        <ele>85.83</ele>
        <time>2021-09-15T06:54:57Z</time>
      </trkpt>
      <trkpt lat="48.39895" lon="2.66904">
        <ele>85.57</ele>
        <time>2021-09-15T06:55:23Z</time>
      </trkpt>
      <trkpt lat="48.39889" lon="2.66903">
        <ele>86.8</ele>
        <time>2021-09-15T06:55:47Z</time>
      </trkpt>
      <trkpt lat="48.39879" lon="2.6689">
        <ele>87</ele>
        <time>2021-09-15T06:56:07Z</time>
      </trkpt>
      <trkpt lat="48.39867" lon="2.66885">
        <ele>89.13</ele>
        <time>2021-09-15T06:56:22Z</time>
      </trkpt>
      <trkpt lat="48.39851" lon="2.66884">
        <ele>91.71</ele>
        <time>2021-09-15T06:56:44Z</time>
      </trkpt>
      <trkpt lat="48.39837" lon="2.66892">
        <ele>94.03</ele>
        <time>2021-09-15T06:57:05Z</time>
      </trkpt>
      <trkpt lat="48.39822" lon="2.66891">
        <ele>97.06</ele>
        <time>2021-09-15T06:57:26Z</time>
      </trkpt>
      <trkpt lat="48.3981" lon="2.66902">
        <ele>100.45</ele>
        <time>2021-09-15T06:57:50Z</time>
      </trkpt>
      <trkpt lat="48.39818" lon="2.66917">
        <ele>103.43</ele>
        <time>2021-09-15T06:58:13Z</time>
      </trkpt>
      <trkpt lat="48.39811" lon="2.66922">
        <ele>104.76</ele>
        <time>2021-09-15T06:58:26Z</time>
      </trkpt>
      <trkpt lat="48.39808" lon="2.6692">
        <ele>105.4</ele>
        <time>2021-09-15T06:58:46Z</time>
      </trkpt>
      <trkpt lat="48.39804" lon="2.66919">
        <ele>105.25</ele>
        <time>2021-09-15T06:59:06Z</time>
      </trkpt>
      <trkpt lat="48.39799" lon="2.66922">
        <ele>106.38</ele>
        <time>2021-09-15T06:59:24Z</time>
      </trkpt>
      <trkpt lat="48.39798" lon="2.66927">
        <ele>108.14</ele>
        <time>2021-09-15T06:59:38Z</time>
      </trkpt>
      <trkpt lat="48.3979" lon="2.66927">
        <ele>111.07</ele>
        <time>2021-09-15T07:00:01Z</time>
      </trkpt>
      <trkpt lat="48.39783" lon="2.66921">
        <ele>113.54</ele>
        <time>2021-09-15T07:00:20Z</time>
      </trkpt>
      <trkpt lat="48.39776" lon="2.6692">
        <ele>116.3</ele>
        <time>2021-09-15T07:00:35Z</time>
      </trkpt>
      <trkpt lat="48.39771" lon="2.66909">
        <ele>118.14</ele>
        <time>2021-09-15T07:00:49Z</time>
      </trkpt>
      <trkpt lat="48.39763" lon="2.6689">
        <ele>119.65</ele>
        <time>2021-09-15T07:01:10Z</time>
      </trkpt>
      <trkpt lat="48.39756" lon="2.6689">
        <ele>121.93</ele>
        <time>2021-09-15T07:01:28Z</time>
      </trkpt>
      <trkpt lat="48.39743" lon="2.66886">
        <ele>124.88</ele>
        <time>2021-09-15T07:01:46Z</time>
      </trkpt>
      <trkpt lat="48.39742" lon="2.66873">
        <ele>126.02</ele>
        <time>2021-09-15T07:02:01Z</time>
      </trkpt>
      <trkpt lat="48.39742" lon="2.66869">
        <ele>126.17</ele>
        <time>2021-09-15T07:02:16Z</time>
      </trkpt>
      <trkpt lat="48.39742" lon="2.66863">
        <ele>125.79</ele>
        <time>2021-09-15T07:02:29Z</time>
      </trkpt>
      <trkpt lat="48.39748" lon="2.66851">
        <ele>125.52</ele>
        <time>2021-09-15T07:02:45Z</time>
      </trkpt>
      <trkpt lat="48.39753" lon="2.66837">
        <ele>124.88</ele>
        <time>2021-09-15T07:03:02Z</time>
      </trkpt>
      <trkpt lat="48.39758" lon="2.66829">
        <ele>124.97</ele>
        <time>2021-09-15T07:03:11Z</time>
      </trkpt>
      <trkpt lat="48.39766" lon="2.66806">
        <ele>125.25</ele>
        <time>2021-09-15T07:03:31Z</time>
      </trkpt>
      <trkpt lat="48.39766" lon="2.66793">
        <ele>124.28</ele>
        <time>2021-09-15T07:03:48Z</time>
      </trkpt>
      <trkpt lat="48.39765" lon="2.66784">
        <ele>122.5</ele>
        <time>2021-09-15T07:04:07Z</time>
      </trkpt>
      <trkpt lat="48.39771" lon="2.66771">
        <ele>120.3</ele>
        <time>2021-09-15T07:04:25Z</time>
      </trkpt>
      <trkpt lat="48.39772" lon="2.66763">
        <ele>117.66</ele>
        <time>2021-09-15T07:04:45Z</time>
      </trkpt>
      <trkpt lat="48.39777" lon="2.66761">
        <ele>117.04</ele>
        <time>2021-09-15T07:05:14Z</time>
      </trkpt>
      <trkpt lat="48.3978" lon="2.66747">
        <ele>118.06</ele>
        <time>2021-09-15T07:05:30Z</time>
      </trkpt>
      <trkpt lat="48.39783" lon="2.66737">
        <ele>121.1</ele>
        <time>2021-09-15T07:05:48Z</time>
      </trkpt>
      <trkpt lat="48.39788" lon="2.6673">
        <ele>123.82</ele>
        <time>2021-09-15T07:06:08Z</time>
      </trkpt>
      <trkpt lat="48.3979" lon="2.66723">
        <ele>121.9</ele>
        <time>2021-09-15T07:06:21Z</time>
      </trkpt>
      <trkpt lat="48.39788" lon="2.66713">
        <ele>120.63</ele>
        <time>2021-09-15T07:06:37Z</time>
      </trkpt>
      <trkpt lat="48.39786" lon="2.66696">
        <ele>120.45</ele>
        <time>2021-09-15T07:06:57Z</time>
      </trkpt>
      <trkpt lat="48.39783" lon="2.66689">
        <ele>117.41</ele>
        <time>2021-09-15T07:07:18Z</time>
      </trkpt>
      <trkpt lat="48.39775" lon="2.66699">
        <ele>114.37</ele>
        <time>2021-09-15T07:07:38Z</time>
      </trkpt>
      <trkpt lat="48.39768" lon="2.66697">
        <ele>112.9</ele>
        <time>2021-09-15T07:07:51Z</time>
      </trkpt>
      <trkpt lat="48.39766" lon="2.66696">
        <ele>112.78</ele>
        <time>2021-09-15T07:07:52Z</time>
      </trkpt>
      <trkpt lat="48.39765" lon="2.66695">
        <ele>112.64</ele>
        <time>2021-09-15T07:07:53Z</time>
      </trkpt>
      <trkpt lat="48.39763" lon="2.66695">
        <ele>112.43</ele>
        <time>2021-09-15T07:07:54Z</time>
      </trkpt>
      <trkpt lat="48.39762" lon="2.66695">
        <ele>112.17</ele>
        <time>2021-09-15T07:07:55Z</time>
      </trkpt>
      <trkpt lat="48.3976" lon="2.66695">
        <ele>111.92</ele>
        <time>2021-09-15T07:07:56Z</time>
      </trkpt>
      <trkpt lat="48.39759" lon="2.66695">
        <ele>111.37</ele>
        <time>2021-09-15T07:07:57Z</time>
      </trkpt>
      <trkpt lat="48.39757" lon="2.66695">
        <ele>111.06</ele>
        <time>2021-09-15T07:07:58Z</time>
      </trkpt>
      <trkpt lat="48.39756" lon="2.66694">
        <ele>110.74</ele>
        <time>2021-09-15T07:07:59Z</time>
      </trkpt>
      <trkpt lat="48.39755" lon="2.66692">
        <ele>110.35</ele>
        <time>2021-09-15T07:08:00Z</time>
      </trkpt>
      <trkpt lat="48.39754" lon="2.66689">
        <ele>109.86</ele>
        <time>2021-09-15T07:08:01Z</time>
      </trkpt>
      <trkpt lat="48.39753" lon="2.66686">
        <ele>109.37</ele>
        <time>2021-09-15T07:08:02Z</time>
      </trkpt>
      <trkpt lat="48.39752" lon="2.66684">
        <ele>108.92</ele>
        <time>2021-09-15T07:08:03Z</time>
      </trkpt>
      <trkpt lat="48.39746" lon="2.66672">
        <ele>105.34</ele>
        <time>2021-09-15T07:08:09Z</time>
      </trkpt>
      <trkpt lat="48.39736" lon="2.66663">
        <ele>102.26</ele>
        <time>2021-09-15T07:08:17Z</time>
      </trkpt>
      <trkpt lat="48.3972" lon="2.66667">
        <ele>99.46</ele>
        <time>2021-09-15T07:08:25Z</time>
      </trkpt>
      <trkpt lat="48.39719" lon="2.66668">
        <ele>99.16</ele>
        <time>2021-09-15T07:08:26Z</time>
      </trkpt>
      <trkpt lat="48.39711" lon="2.66672">
        <ele>97.44</ele>
        <time>2021-09-15T07:08:31Z</time>
      </trkpt>
      <trkpt lat="48.39682" lon="2.66684">
        <ele>94.48</ele>
        <time>2021-09-15T07:08:51Z</time>
      </trkpt>
      <trkpt lat="48.39677" lon="2.66685">
        <ele>94.1</ele>
        <time>2021-09-15T07:08:54Z</time>
      </trkpt>
      <trkpt lat="48.39652" lon="2.66688">
        <ele>90.73</ele>
        <time>2021-09-15T07:09:14Z</time>
      </trkpt>
      <trkpt lat="48.39645" lon="2.66689">
        <ele>92.09</ele>
        <time>2021-09-15T07:09:18Z</time>
      </trkpt>
      <trkpt lat="48.39617" lon="2.6669">
        <ele>89.13</ele>
        <time>2021-09-15T07:09:42Z</time>
      </trkpt>
      <trkpt lat="48.39604" lon="2.66685">
        <ele>87.77</ele>
        <time>2021-09-15T07:10:00Z</time>
      </trkpt>
      <trkpt lat="48.39593" lon="2.66679">
        <ele>86.53</ele>
        <time>2021-09-15T07:10:07Z</time>
      </trkpt>
      <trkpt lat="48.39589" lon="2.66678">
        <ele>85.9</ele>
        <time>2021-09-15T07:10:08Z</time>
      </trkpt>
      <trkpt lat="48.3958" lon="2.66674">
        <ele>85</ele>
        <time>2021-09-15T07:10:15Z</time>
      </trkpt>
      <trkpt lat="48.39561" lon="2.66671">
        <ele>84.83</ele>
        <time>2021-09-15T07:10:33Z</time>
      </trkpt>
      <trkpt lat="48.39549" lon="2.6667">
        <ele>84.54</ele>
        <time>2021-09-15T07:10:43Z</time>
      </trkpt>
      <trkpt lat="48.39527" lon="2.66664">
        <ele>84</ele>
        <time>2021-09-15T07:11:06Z</time>
      </trkpt>
      <trkpt lat="48.3951" lon="2.66666">
        <ele>82.8</ele>
        <time>2021-09-15T07:11:26Z</time>
      </trkpt>
      <trkpt lat="48.39495" lon="2.66675">
        <ele>82.34</ele>
        <time>2021-09-15T07:11:46Z</time>
      </trkpt>
      <trkpt lat="48.39486" lon="2.66679">
        <ele>81.9</ele>
        <time>2021-09-15T07:12:07Z</time>
      </trkpt>
      <trkpt lat="48.39488" lon="2.66675">
        <ele>81.82</ele>
        <time>2021-09-15T07:12:40Z</time>
      </trkpt>
      <trkpt lat="48.3949" lon="2.66674">
        <ele>81.82</ele>
        <time>2021-09-15T07:12:52Z</time>
      </trkpt>
      <trkpt lat="48.39489" lon="2.66674">
        <ele>81.82</ele>
        <time>2021-09-15T07:12:56Z</time>
      </trkpt>
      <trkpt lat="48.3947" lon="2.66686">
        <ele>81.01</ele>
        <time>2021-09-15T07:13:16Z</time>
      </trkpt>
      <trkpt lat="48.39444" lon="2.66711">
        <ele>80.06</ele>
        <time>2021-09-15T07:13:42Z</time>
      </trkpt>
      <trkpt lat="48.3943" lon="2.66723">
        <ele>79.76</ele>
        <time>2021-09-15T07:13:55Z</time>
      </trkpt>
      <trkpt lat="48.39414" lon="2.66737">
        <ele>79.33</ele>
        <time>2021-09-15T07:14:10Z</time>
      </trkpt>
      <trkpt lat="48.39397" lon="2.66754">
        <ele>78.98</ele>
        <time>2021-09-15T07:14:26Z</time>
      </trkpt>
      <trkpt lat="48.39388" lon="2.66761">
        <ele>78.63</ele>
        <time>2021-09-15T07:14:35Z</time>
      </trkpt>
      <trkpt lat="48.39386" lon="2.66762">
        <ele>78.61</ele>
        <time>2021-09-15T07:14:36Z</time>
      </trkpt>
      <trkpt lat="48.39385" lon="2.66762">
        <ele>78.6</ele>
        <time>2021-09-15T07:14:37Z</time>
      </trkpt>
      <trkpt lat="48.39373" lon="2.66768">
        <ele>76.98</ele>
        <time>2021-09-15T07:14:47Z</time>
      </trkpt>
      <trkpt lat="48.39355" lon="2.66773">
        <ele>77.31</ele>
        <time>2021-09-15T07:15:03Z</time>
      </trkpt>
      <trkpt lat="48.39329" lon="2.66778">
        <ele>76.52</ele>
        <time>2021-09-15T07:15:23Z</time>
      </trkpt>
      <trkpt lat="48.39325" lon="2.66777">
        <ele>76.56</ele>
        <time>2021-09-15T07:15:26Z</time>
      </trkpt>
      <trkpt lat="48.39318" lon="2.66779">
        <ele>76.71</ele>
        <time>2021-09-15T07:15:32Z</time>
      </trkpt>
      <trkpt lat="48.39317" lon="2.6678">
        <ele>76.72</ele>
        <time>2021-09-15T07:15:33Z</time>
      </trkpt>
      <trkpt lat="48.39298" lon="2.66782">
        <ele>76.85</ele>
        <time>2021-09-15T07:15:48Z</time>
      </trkpt>
      <trkpt lat="48.39282" lon="2.66786">
        <ele>77.23</ele>
        <time>2021-09-15T07:16:03Z</time>
      </trkpt>
      <trkpt lat="48.39279" lon="2.66789">
        <ele>77.28</ele>
        <time>2021-09-15T07:16:06Z</time>
      </trkpt>
      <trkpt lat="48.39277" lon="2.66789">
        <ele>77.29</ele>
        <time>2021-09-15T07:16:07Z</time>
      </trkpt>
      <trkpt lat="48.39273" lon="2.6679">
        <ele>77.37</ele>
        <time>2021-09-15T07:16:11Z</time>
      </trkpt>
      <trkpt lat="48.3927" lon="2.66791">
        <ele>77.46</ele>
        <time>2021-09-15T07:16:14Z</time>
      </trkpt>
      <trkpt lat="48.39256" lon="2.66794">
        <ele>77.85</ele>
        <time>2021-09-15T07:16:27Z</time>
      </trkpt>
      <trkpt lat="48.39254" lon="2.66795">
        <ele>77.88</ele>
        <time>2021-09-15T07:16:28Z</time>
      </trkpt>
      <trkpt lat="48.39239" lon="2.66798">
        <ele>78.41</ele>
        <time>2021-09-15T07:16:43Z</time>
      </trkpt>
      <trkpt lat="48.39227" lon="2.66814">
        <ele>77.53</ele>
        <time>2021-09-15T07:16:57Z</time>
      </trkpt>
      <trkpt lat="48.39226" lon="2.66818">
        <ele>77.35</ele>
        <time>2021-09-15T07:16:59Z</time>
      </trkpt>
      <trkpt lat="48.39224" lon="2.66831">
        <ele>79.37</ele>
        <time>2021-09-15T07:17:08Z</time>
      </trkpt>
      <trkpt lat="48.39223" lon="2.66833">
        <ele>79.49</ele>
        <time>2021-09-15T07:17:09Z</time>
      </trkpt>
      <trkpt lat="48.39215" lon="2.66862">
        <ele>77.66</ele>
        <time>2021-09-15T07:17:25Z</time>
      </trkpt>
      <trkpt lat="48.39207" lon="2.66892">
        <ele>77.84</ele>
        <time>2021-09-15T07:17:42Z</time>
      </trkpt>
      <trkpt lat="48.39201" lon="2.66915">
        <ele>78.09</ele>
        <time>2021-09-15T07:17:56Z</time>
      </trkpt>
      <trkpt lat="48.39195" lon="2.66934">
        <ele>77.96</ele>
        <time>2021-09-15T07:18:08Z</time>
      </trkpt>
      <trkpt lat="48.39195" lon="2.66936">
        <ele>77.92</ele>
        <time>2021-09-15T07:18:09Z</time>
      </trkpt>
      <trkpt lat="48.3919" lon="2.6696">
        <ele>77.81</ele>
        <time>2021-09-15T07:18:25Z</time>
      </trkpt>
      <trkpt lat="48.39185" lon="2.66983">
        <ele>77.7</ele>
        <time>2021-09-15T07:18:39Z</time>
      </trkpt>
      <trkpt lat="48.39177" lon="2.67017">
        <ele>77.84</ele>
        <time>2021-09-15T07:18:57Z</time>
      </trkpt>
      <trkpt lat="48.39167" lon="2.67052">
        <ele>77.77</ele>
        <time>2021-09-15T07:19:16Z</time>
      </trkpt>
      <trkpt lat="48.39156" lon="2.67085">
        <ele>77.6</ele>
        <time>2021-09-15T07:19:35Z</time>
      </trkpt>
      <trkpt lat="48.39145" lon="2.67111">
        <ele>77.81</ele>
        <time>2021-09-15T07:19:53Z</time>
      </trkpt>
      <trkpt lat="48.39134" lon="2.67135">
        <ele>77.73</ele>
        <time>2021-09-15T07:20:09Z</time>
      </trkpt>
      <trkpt lat="48.39133" lon="2.67137">
        <ele>77.75</ele>
        <time>2021-09-15T07:20:10Z</time>
      </trkpt>
      <trkpt lat="48.39132" lon="2.67138">
        <ele>77.76</ele>
        <time>2021-09-15T07:20:11Z</time>
      </trkpt>
      <trkpt lat="48.39125" lon="2.67175">
        <ele>77.87</ele>
        <time>2021-09-15T07:20:32Z</time>
      </trkpt>
      <trkpt lat="48.39111" lon="2.67193">
        <ele>77.58</ele>
        <time>2021-09-15T07:20:47Z</time>
      </trkpt>
      <trkpt lat="48.39103" lon="2.67214">
        <ele>77.27</ele>
        <time>2021-09-15T07:21:02Z</time>
      </trkpt>
      <trkpt lat="48.39103" lon="2.67221">
        <ele>77.22</ele>
        <time>2021-09-15T07:21:07Z</time>
      </trkpt>
      <trkpt lat="48.39103" lon="2.67223">
        <ele>77.21</ele>
        <time>2021-09-15T07:21:08Z</time>
      </trkpt>
      <trkpt lat="48.39103" lon="2.67225">
        <ele>77.21</ele>
        <time>2021-09-15T07:21:09Z</time>
      </trkpt>
      <trkpt lat="48.39103" lon="2.67227">
        <ele>77.2</ele>
        <time>2021-09-15T07:21:10Z</time>
      </trkpt>
      <trkpt lat="48.39103" lon="2.67228">
        <ele>77.2</ele>
        <time>2021-09-15T07:21:11Z</time>
      </trkpt>
      <trkpt lat="48.39102" lon="2.67258">
        <ele>76.98</ele>
        <time>2021-09-15T07:21:29Z</time>
      </trkpt>
      <trkpt lat="48.391" lon="2.67283">
        <ele>76.8</ele>
        <time>2021-09-15T07:21:43Z</time>
      </trkpt>
      <trkpt lat="48.39096" lon="2.6732">
        <ele>76.81</ele>
        <time>2021-09-15T07:22:01Z</time>
      </trkpt>
      <trkpt lat="48.39093" lon="2.6735">
        <ele>76.78</ele>
        <time>2021-09-15T07:22:17Z</time>
      </trkpt>
      <trkpt lat="48.39091" lon="2.6738">
        <ele>76.57</ele>
        <time>2021-09-15T07:22:33Z</time>
      </trkpt>
      <trkpt lat="48.39091" lon="2.67411">
        <ele>76.62</ele>
        <time>2021-09-15T07:22:50Z</time>
      </trkpt>
      <trkpt lat="48.39091" lon="2.67413">
        <ele>76.61</ele>
        <time>2021-09-15T07:22:51Z</time>
      </trkpt>
      <trkpt lat="48.39091" lon="2.67415">
        <ele>76.6</ele>
        <time>2021-09-15T07:22:52Z</time>
      </trkpt>
      <trkpt lat="48.39092" lon="2.67416">
        <ele>76.61</ele>
        <time>2021-09-15T07:22:53Z</time>
      </trkpt>
      <trkpt lat="48.39092" lon="2.67418">
        <ele>76.64</ele>
        <time>2021-09-15T07:22:54Z</time>
      </trkpt>
      <trkpt lat="48.39092" lon="2.6742">
        <ele>76.67</ele>
        <time>2021-09-15T07:22:55Z</time>
      </trkpt>
      <trkpt lat="48.39093" lon="2.67422">
        <ele>76.68</ele>
        <time>2021-09-15T07:22:56Z</time>
      </trkpt>
      <trkpt lat="48.39093" lon="2.67424">
        <ele>76.68</ele>
        <time>2021-09-15T07:22:57Z</time>
      </trkpt>
      <trkpt lat="48.39093" lon="2.67426">
        <ele>76.68</ele>
        <time>2021-09-15T07:22:58Z</time>
      </trkpt>
      <trkpt lat="48.3909" lon="2.67448">
        <ele>76.6</ele>
        <time>2021-09-15T07:23:09Z</time>
      </trkpt>
      <trkpt lat="48.39086" lon="2.67485">
        <ele>76.52</ele>
        <time>2021-09-15T07:23:28Z</time>
      </trkpt>
      <trkpt lat="48.3909" lon="2.67509">
        <ele>76.69</ele>
        <time>2021-09-15T07:23:41Z</time>
      </trkpt>
      <trkpt lat="48.39091" lon="2.6754">
        <ele>76.35</ele>
        <time>2021-09-15T07:23:58Z</time>
      </trkpt>
      <trkpt lat="48.39091" lon="2.67579">
        <ele>76.18</ele>
        <time>2021-09-15T07:24:18Z</time>
      </trkpt>
      <trkpt lat="48.39099" lon="2.67611">
        <ele>76.23</ele>
        <time>2021-09-15T07:24:37Z</time>
      </trkpt>
      <trkpt lat="48.39106" lon="2.67635">
        <ele>75.51</ele>
        <time>2021-09-15T07:24:53Z</time>
      </trkpt>
      <trkpt lat="48.39105" lon="2.67636">
        <ele>75.54</ele>
        <time>2021-09-15T07:24:54Z</time>
      </trkpt>
      <trkpt lat="48.39105" lon="2.67638">
        <ele>75.55</ele>
        <time>2021-09-15T07:24:55Z</time>
      </trkpt>
      <trkpt lat="48.39105" lon="2.6764">
        <ele>75.46</ele>
        <time>2021-09-15T07:24:56Z</time>
      </trkpt>
      <trkpt lat="48.39104" lon="2.67641">
        <ele>75.23</ele>
        <time>2021-09-15T07:24:57Z</time>
      </trkpt>
      <trkpt lat="48.39104" lon="2.67643">
        <ele>74.99</ele>
        <time>2021-09-15T07:24:58Z</time>
      </trkpt>
      <trkpt lat="48.39104" lon="2.67645">
        <ele>74.85</ele>
        <time>2021-09-15T07:24:59Z</time>
      </trkpt>
      <trkpt lat="48.39105" lon="2.67649">
        <ele>74.73</ele>
        <time>2021-09-15T07:25:01Z</time>
      </trkpt>
      <trkpt lat="48.39106" lon="2.67653">
        <ele>74.73</ele>
        <time>2021-09-15T07:25:03Z</time>
      </trkpt>
      <trkpt lat="48.39106" lon="2.67655">
        <ele>74.81</ele>
        <time>2021-09-15T07:25:04Z</time>
      </trkpt>
      <trkpt lat="48.39107" lon="2.67657">
        <ele>74.85</ele>
        <time>2021-09-15T07:25:05Z</time>
      </trkpt>
      <trkpt lat="48.39107" lon="2.67658">
        <ele>74.86</ele>
        <time>2021-09-15T07:25:06Z</time>
      </trkpt>
      <trkpt lat="48.39108" lon="2.6766">
        <ele>74.86</ele>
        <time>2021-09-15T07:25:07Z</time>
      </trkpt>
      <trkpt lat="48.39109" lon="2.67661">
        <ele>74.78</ele>
        <time>2021-09-15T07:25:08Z</time>
      </trkpt>
      <trkpt lat="48.3911" lon="2.67663">
        <ele>74.79</ele>
        <time>2021-09-15T07:25:09Z</time>
      </trkpt>
      <trkpt lat="48.3911" lon="2.67664">
        <ele>74.85</ele>
        <time>2021-09-15T07:25:10Z</time>
      </trkpt>
      <trkpt lat="48.3911" lon="2.67666">
        <ele>75.12</ele>
        <time>2021-09-15T07:25:11Z</time>
      </trkpt>
      <trkpt lat="48.3911" lon="2.67668">
        <ele>75.39</ele>
        <time>2021-09-15T07:25:12Z</time>
      </trkpt>
      <trkpt lat="48.39108" lon="2.67682">
        <ele>75.82</ele>
        <time>2021-09-15T07:25:25Z</time>
      </trkpt>
      <trkpt lat="48.39115" lon="2.67702">
        <ele>75.43</ele>
        <time>2021-09-15T07:25:38Z</time>
      </trkpt>
      <trkpt lat="48.39115" lon="2.67704">
        <ele>75.38</ele>
        <time>2021-09-15T07:25:39Z</time>
      </trkpt>
      <trkpt lat="48.39115" lon="2.67705">
        <ele>75.33</ele>
        <time>2021-09-15T07:25:40Z</time>
      </trkpt>
      <trkpt lat="48.39115" lon="2.67707">
        <ele>75.29</ele>
        <time>2021-09-15T07:25:41Z</time>
      </trkpt>
      <trkpt lat="48.39115" lon="2.67709">
        <ele>75.26</ele>
        <time>2021-09-15T07:25:42Z</time>
      </trkpt>
      <trkpt lat="48.39116" lon="2.67717">
        <ele>75.18</ele>
        <time>2021-09-15T07:25:48Z</time>
      </trkpt>
      <trkpt lat="48.39121" lon="2.67738">
        <ele>75.28</ele>
        <time>2021-09-15T07:26:01Z</time>
      </trkpt>
      <trkpt lat="48.39131" lon="2.67768">
        <ele>75.43</ele>
        <time>2021-09-15T07:26:19Z</time>
      </trkpt>
      <trkpt lat="48.39137" lon="2.6778">
        <ele>75.26</ele>
        <time>2021-09-15T07:26:27Z</time>
      </trkpt>
      <trkpt lat="48.39137" lon="2.67781">
        <ele>75.23</ele>
        <time>2021-09-15T07:26:28Z</time>
      </trkpt>
      <trkpt lat="48.39138" lon="2.67783">
        <ele>75.21</ele>
        <time>2021-09-15T07:26:29Z</time>
      </trkpt>
      <trkpt lat="48.39139" lon="2.67785">
        <ele>75.2</ele>
        <time>2021-09-15T07:26:30Z</time>
      </trkpt>
      <trkpt lat="48.39139" lon="2.67786">
        <ele>75.19</ele>
        <time>2021-09-15T07:26:31Z</time>
      </trkpt>
      <trkpt lat="48.3914" lon="2.67788">
        <ele>75.18</ele>
        <time>2021-09-15T07:26:32Z</time>
      </trkpt>
      <trkpt lat="48.3914" lon="2.67789">
        <ele>75.17</ele>
        <time>2021-09-15T07:26:33Z</time>
      </trkpt>
      <trkpt lat="48.39141" lon="2.67791">
        <ele>75.15</ele>
        <time>2021-09-15T07:26:34Z</time>
      </trkpt>
      <trkpt lat="48.39142" lon="2.67792">
        <ele>75.12</ele>
        <time>2021-09-15T07:26:35Z</time>
      </trkpt>
      <trkpt lat="48.39154" lon="2.67821">
        <ele>73.93</ele>
        <time>2021-09-15T07:26:54Z</time>
      </trkpt>
      <trkpt lat="48.39164" lon="2.67843">
        <ele>74.3</ele>
        <time>2021-09-15T07:27:10Z</time>
      </trkpt>
      <trkpt lat="48.39174" lon="2.67867">
        <ele>74.55</ele>
        <time>2021-09-15T07:27:24Z</time>
      </trkpt>
      <trkpt lat="48.39178" lon="2.67883">
        <ele>74.02</ele>
        <time>2021-09-15T07:27:34Z</time>
      </trkpt>
      <trkpt lat="48.39177" lon="2.67885">
        <ele>73.89</ele>
        <time>2021-09-15T07:27:35Z</time>
      </trkpt>
      <trkpt lat="48.39168" lon="2.67901">
        <ele>73.1</ele>
        <time>2021-09-15T07:27:49Z</time>
      </trkpt>
      <trkpt lat="48.39156" lon="2.6792">
        <ele>73.82</ele>
        <time>2021-09-15T07:28:06Z</time>
      </trkpt>
      <trkpt lat="48.39154" lon="2.67923">
        <ele>73.92</ele>
        <time>2021-09-15T07:28:08Z</time>
      </trkpt>
      <trkpt lat="48.39152" lon="2.67924">
        <ele>73.88</ele>
        <time>2021-09-15T07:28:09Z</time>
      </trkpt>
      <trkpt lat="48.39151" lon="2.67924">
        <ele>73.74</ele>
        <time>2021-09-15T07:28:10Z</time>
      </trkpt>
      <trkpt lat="48.3915" lon="2.67925">
        <ele>73.6</ele>
        <time>2021-09-15T07:28:11Z</time>
      </trkpt>
      <trkpt lat="48.39148" lon="2.67925">
        <ele>73.46</ele>
        <time>2021-09-15T07:28:12Z</time>
      </trkpt>
      <trkpt lat="48.39126" lon="2.67917">
        <ele>72.8</ele>
        <time>2021-09-15T07:28:29Z</time>
      </trkpt>
      <trkpt lat="48.3912" lon="2.67915">
        <ele>73.06</ele>
        <time>2021-09-15T07:28:34Z</time>
      </trkpt>
      <trkpt lat="48.39119" lon="2.67915">
        <ele>73.09</ele>
        <time>2021-09-15T07:28:35Z</time>
      </trkpt>
      <trkpt lat="48.39117" lon="2.67914">
        <ele>73.18</ele>
        <time>2021-09-15T07:28:36Z</time>
      </trkpt>
      <trkpt lat="48.39116" lon="2.67914">
        <ele>73.28</ele>
        <time>2021-09-15T07:28:37Z</time>
      </trkpt>
      <trkpt lat="48.39115" lon="2.67913">
        <ele>73.32</ele>
        <time>2021-09-15T07:28:38Z</time>
      </trkpt>
      <trkpt lat="48.39113" lon="2.67913">
        <ele>73.34</ele>
        <time>2021-09-15T07:28:39Z</time>
      </trkpt>
      <trkpt lat="48.39091" lon="2.67906">
        <ele>75.17</ele>
        <time>2021-09-15T07:28:57Z</time>
      </trkpt>
      <trkpt lat="48.39063" lon="2.67886">
        <ele>76.36</ele>
        <time>2021-09-15T07:29:22Z</time>
      </trkpt>
      <trkpt lat="48.39024" lon="2.67869">
        <ele>76.32</ele>
        <time>2021-09-15T07:29:54Z</time>
      </trkpt>
      <trkpt lat="48.38997" lon="2.67853">
        <ele>75.39</ele>
        <time>2021-09-15T07:30:18Z</time>
      </trkpt>
      <trkpt lat="48.38972" lon="2.67842">
        <ele>75.69</ele>
        <time>2021-09-15T07:30:39Z</time>
      </trkpt>
      <trkpt lat="48.38942" lon="2.67827">
        <ele>72.84</ele>
        <time>2021-09-15T07:31:04Z</time>
      </trkpt>
      <trkpt lat="48.38935" lon="2.67822">
        <ele>75.54</ele>
        <time>2021-09-15T07:31:11Z</time>
      </trkpt>
      <trkpt lat="48.38911" lon="2.67812">
        <ele>75.11</ele>
        <time>2021-09-15T07:31:32Z</time>
      </trkpt>
      <trkpt lat="48.38896" lon="2.67804">
        <ele>75.36</ele>
        <time>2021-09-15T07:31:48Z</time>
      </trkpt>
      <trkpt lat="48.38876" lon="2.67793">
        <ele>75.91</ele>
        <time>2021-09-15T07:32:07Z</time>
      </trkpt>
      <trkpt lat="48.3885" lon="2.67778">
        <ele>75.8</ele>
        <time>2021-09-15T07:32:29Z</time>
      </trkpt>
      <trkpt lat="48.38832" lon="2.67774">
        <ele>75.44</ele>
        <time>2021-09-15T07:32:46Z</time>
      </trkpt>
      <trkpt lat="48.38827" lon="2.67783">
        <ele>75.35</ele>
        <time>2021-09-15T07:32:54Z</time>
      </trkpt>
      <trkpt lat="48.38822" lon="2.67812">
        <ele>75.82</ele>
        <time>2021-09-15T07:33:09Z</time>
      </trkpt>
      <trkpt lat="48.38817" lon="2.67838">
        <ele>75.88</ele>
        <time>2021-09-15T07:33:23Z</time>
      </trkpt>
      <trkpt lat="48.38815" lon="2.6787">
        <ele>76.01</ele>
        <time>2021-09-15T07:33:39Z</time>
      </trkpt>
      <trkpt lat="48.38808" lon="2.67894">
        <ele>76.15</ele>
        <time>2021-09-15T07:33:54Z</time>
      </trkpt>
      <trkpt lat="48.38801" lon="2.67912">
        <ele>76.58</ele>
        <time>2021-09-15T07:34:11Z</time>
      </trkpt>
      <trkpt lat="48.38798" lon="2.67941">
        <ele>76.39</ele>
        <time>2021-09-15T07:34:32Z</time>
      </trkpt>
      <trkpt lat="48.38789" lon="2.67983">
        <ele>76.53</ele>
        <time>2021-09-15T07:34:54Z</time>
      </trkpt>
      <trkpt lat="48.38786" lon="2.68041">
        <ele>76.31</ele>
        <time>2021-09-15T07:35:22Z</time>
      </trkpt>
      <trkpt lat="48.38783" lon="2.68096">
        <ele>76.7</ele>
        <time>2021-09-15T07:35:51Z</time>
      </trkpt>
      <trkpt lat="48.38774" lon="2.6816">
        <ele>76.34</ele>
        <time>2021-09-15T07:36:20Z</time>
      </trkpt>
      <trkpt lat="48.3877" lon="2.68191">
        <ele>75.97</ele>
        <time>2021-09-15T07:36:38Z</time>
      </trkpt>
      <trkpt lat="48.38771" lon="2.68191">
        <ele>75.33</ele>
        <time>2021-09-15T07:36:47Z</time>
      </trkpt>
      <trkpt lat="48.38771" lon="2.6819">
        <ele>75.4</ele>
        <time>2021-09-15T07:36:48Z</time>
      </trkpt>
      <trkpt lat="48.38768" lon="2.68181">
        <ele>75.93</ele>
        <time>2021-09-15T07:36:56Z</time>
      </trkpt>
      <trkpt lat="48.38767" lon="2.6818">
        <ele>75.88</ele>
        <time>2021-09-15T07:36:57Z</time>
      </trkpt>
      <trkpt lat="48.38766" lon="2.6818">
        <ele>75.85</ele>
        <time>2021-09-15T07:36:58Z</time>
      </trkpt>
      <trkpt lat="48.38765" lon="2.68179">
        <ele>75.83</ele>
        <time>2021-09-15T07:36:59Z</time>
      </trkpt>
      <trkpt lat="48.38763" lon="2.68178">
        <ele>75.82</ele>
        <time>2021-09-15T07:37:00Z</time>
      </trkpt>
      <trkpt lat="48.38746" lon="2.68175">
        <ele>76.81</ele>
        <time>2021-09-15T07:37:18Z</time>
      </trkpt>
      <trkpt lat="48.38729" lon="2.68176">
        <ele>78.42</ele>
        <time>2021-09-15T07:37:35Z</time>
      </trkpt>
      <trkpt lat="48.38701" lon="2.68179">
        <ele>80.88</ele>
        <time>2021-09-15T07:38:04Z</time>
      </trkpt>
      <trkpt lat="48.3868" lon="2.68182">
        <ele>83.9</ele>
        <time>2021-09-15T07:38:27Z</time>
      </trkpt>
      <trkpt lat="48.38661" lon="2.68175">
        <ele>87.09</ele>
        <time>2021-09-15T07:38:52Z</time>
      </trkpt>
      <trkpt lat="48.38647" lon="2.68173">
        <ele>89.41</ele>
        <time>2021-09-15T07:39:13Z</time>
      </trkpt>
      <trkpt lat="48.38633" lon="2.68165">
        <ele>92.42</ele>
        <time>2021-09-15T07:39:32Z</time>
      </trkpt>
      <trkpt lat="48.38616" lon="2.68149">
        <ele>95.04</ele>
        <time>2021-09-15T07:39:57Z</time>
      </trkpt>
      <trkpt lat="48.3861" lon="2.68144">
        <ele>95.88</ele>
        <time>2021-09-15T07:40:06Z</time>
      </trkpt>
      <trkpt lat="48.38598" lon="2.68137">
        <ele>98.98</ele>
        <time>2021-09-15T07:40:25Z</time>
      </trkpt>
      <trkpt lat="48.386" lon="2.68133">
        <ele>99.53</ele>
        <time>2021-09-15T07:40:43Z</time>
      </trkpt>
      <trkpt lat="48.38596" lon="2.68131">
        <ele>99.75</ele>
        <time>2021-09-15T07:41:05Z</time>
      </trkpt>
      <trkpt lat="48.38597" lon="2.68117">
        <ele>100.71</ele>
        <time>2021-09-15T07:41:25Z</time>
      </trkpt>
      <trkpt lat="48.38601" lon="2.68093">
        <ele>103.06</ele>
        <time>2021-09-15T07:41:46Z</time>
      </trkpt>
      <trkpt lat="48.38605" lon="2.68076">
        <ele>105.35</ele>
        <time>2021-09-15T07:42:07Z</time>
      </trkpt>
      <trkpt lat="48.38617" lon="2.68052">
        <ele>107.37</ele>
        <time>2021-09-15T07:42:28Z</time>
      </trkpt>
      <trkpt lat="48.38617" lon="2.68017">
        <ele>107.63</ele>
        <time>2021-09-15T07:42:54Z</time>
      </trkpt>
      <trkpt lat="48.38612" lon="2.67983">
        <ele>107.94</ele>
        <time>2021-09-15T07:43:15Z</time>
      </trkpt>
      <trkpt lat="48.38611" lon="2.67954">
        <ele>106.84</ele>
        <time>2021-09-15T07:43:35Z</time>
      </trkpt>
      <trkpt lat="48.38613" lon="2.67918">
        <ele>106.12</ele>
        <time>2021-09-15T07:43:59Z</time>
      </trkpt>
      <trkpt lat="48.38622" lon="2.67895">
        <ele>106.4</ele>
        <time>2021-09-15T07:44:20Z</time>
      </trkpt>
      <trkpt lat="48.38633" lon="2.6787">
        <ele>108.67</ele>
        <time>2021-09-15T07:44:43Z</time>
      </trkpt>
      <trkpt lat="48.38643" lon="2.6785">
        <ele>111.18</ele>
        <time>2021-09-15T07:45:04Z</time>
      </trkpt>
      <trkpt lat="48.38647" lon="2.67837">
        <ele>114.34</ele>
        <time>2021-09-15T07:45:21Z</time>
      </trkpt>
      <trkpt lat="48.38649" lon="2.67825">
        <ele>117.45</ele>
        <time>2021-09-15T07:45:41Z</time>
      </trkpt>
      <trkpt lat="48.38651" lon="2.67801">
        <ele>120.17</ele>
        <time>2021-09-15T07:46:03Z</time>
      </trkpt>
      <trkpt lat="48.38653" lon="2.67785">
        <ele>120.77</ele>
        <time>2021-09-15T07:46:21Z</time>
      </trkpt>
      <trkpt lat="48.38648" lon="2.67784">
        <ele>122.26</ele>
        <time>2021-09-15T07:46:40Z</time>
      </trkpt>
      <trkpt lat="48.38643" lon="2.67783">
        <ele>122.48</ele>
        <time>2021-09-15T07:47:08Z</time>
      </trkpt>
      <trkpt lat="48.38643" lon="2.6778">
        <ele>121.59</ele>
        <time>2021-09-15T07:47:37Z</time>
      </trkpt>
      <trkpt lat="48.38646" lon="2.6778">
        <ele>121.59</ele>
        <time>2021-09-15T07:48:18Z</time>
      </trkpt>
      <trkpt lat="48.38644" lon="2.67781">
        <ele>121.59</ele>
        <time>2021-09-15T07:48:42Z</time>
      </trkpt>
      <trkpt lat="48.38644" lon="2.67784">
        <ele>121.59</ele>
        <time>2021-09-15T07:49:08Z</time>
      </trkpt>
      <trkpt lat="48.38644" lon="2.67784">
        <ele>121.59</ele>
        <time>2021-09-15T07:49:29Z</time>
      </trkpt>
      <trkpt lat="48.38644" lon="2.67784">
        <ele>121.59</ele>
        <time>2021-09-15T07:49:47Z</time>
      </trkpt>
      <trkpt lat="48.38643" lon="2.67784">
        <ele>121.59</ele>
        <time>2021-09-15T07:50:11Z</time>
      </trkpt>
      <trkpt lat="48.38644" lon="2.67784">
        <ele>121.59</ele>
        <time>2021-09-15T07:50:34Z</time>
      </trkpt>
      <trkpt lat="48.38644" lon="2.67784">
        <ele>121.59</ele>
        <time>2021-09-15T07:51:04Z</time>
      </trkpt>
      <trkpt lat="48.38644" lon="2.67785">
        <ele>121.59</ele>
        <time>2021-09-15T07:51:37Z</time>
      </trkpt>
      <trkpt lat="48.38638" lon="2.67779">
        <ele>121.48</ele>
        <time>2021-09-15T07:51:54Z</time>
      </trkpt>
      <trkpt lat="48.3864" lon="2.67761">
        <ele>120.16</ele>
        <time>2021-09-15T07:52:12Z</time>
      </trkpt>
      <trkpt lat="48.38645" lon="2.67743">
        <ele>120.03</ele>
        <time>2021-09-15T07:52:29Z</time>
      </trkpt>
      <trkpt lat="48.3864" lon="2.67724">
        <ele>117.55</ele>
        <time>2021-09-15T07:52:45Z</time>
      </trkpt>
      <trkpt lat="48.38643" lon="2.67719">
        <ele>117.24</ele>
        <time>2021-09-15T07:52:48Z</time>
      </trkpt>
      <trkpt lat="48.38644" lon="2.67718">
        <ele>117.07</ele>
        <time>2021-09-15T07:52:49Z</time>
      </trkpt>
      <trkpt lat="48.38646" lon="2.67716">
        <ele>116.8</ele>
        <time>2021-09-15T07:52:50Z</time>
      </trkpt>
      <trkpt lat="48.38654" lon="2.67704">
        <ele>114.41</ele>
        <time>2021-09-15T07:52:56Z</time>
      </trkpt>
      <trkpt lat="48.38656" lon="2.67702">
        <ele>113.81</ele>
        <time>2021-09-15T07:52:58Z</time>
      </trkpt>
      <trkpt lat="48.38657" lon="2.67701">
        <ele>113.52</ele>
        <time>2021-09-15T07:52:59Z</time>
      </trkpt>
      <trkpt lat="48.38659" lon="2.67681">
        <ele>110.49</ele>
        <time>2021-09-15T07:53:13Z</time>
      </trkpt>
      <trkpt lat="48.38645" lon="2.67661">
        <ele>109.07</ele>
        <time>2021-09-15T07:53:35Z</time>
      </trkpt>
      <trkpt lat="48.38644" lon="2.67646">
        <ele>108.57</ele>
        <time>2021-09-15T07:53:45Z</time>
      </trkpt>
      <trkpt lat="48.38643" lon="2.67644">
        <ele>108.56</ele>
        <time>2021-09-15T07:53:46Z</time>
      </trkpt>
      <trkpt lat="48.38641" lon="2.67642">
        <ele>108.57</ele>
        <time>2021-09-15T07:53:47Z</time>
      </trkpt>
      <trkpt lat="48.3864" lon="2.67639">
        <ele>108.54</ele>
        <time>2021-09-15T07:53:48Z</time>
      </trkpt>
      <trkpt lat="48.38639" lon="2.67637">
        <ele>108.49</ele>
        <time>2021-09-15T07:53:49Z</time>
      </trkpt>
      <trkpt lat="48.3863" lon="2.67613">
        <ele>105.44</ele>
        <time>2021-09-15T07:54:06Z</time>
      </trkpt>
      <trkpt lat="48.38624" lon="2.67588">
        <ele>103.99</ele>
        <time>2021-09-15T07:54:23Z</time>
      </trkpt>
      <trkpt lat="48.38624" lon="2.67584">
        <ele>103.39</ele>
        <time>2021-09-15T07:54:25Z</time>
      </trkpt>
      <trkpt lat="48.38624" lon="2.67582">
        <ele>103.14</ele>
        <time>2021-09-15T07:54:26Z</time>
      </trkpt>
      <trkpt lat="48.38624" lon="2.67568">
        <ele>101.33</ele>
        <time>2021-09-15T07:54:34Z</time>
      </trkpt>
      <trkpt lat="48.38623" lon="2.67564">
        <ele>101.18</ele>
        <time>2021-09-15T07:54:35Z</time>
      </trkpt>
      <trkpt lat="48.38624" lon="2.67559">
        <ele>100.97</ele>
        <time>2021-09-15T07:54:36Z</time>
      </trkpt>
      <trkpt lat="48.38618" lon="2.67536">
        <ele>99.46</ele>
        <time>2021-09-15T07:54:43Z</time>
      </trkpt>
      <trkpt lat="48.38617" lon="2.67534">
        <ele>99.2</ele>
        <time>2021-09-15T07:54:44Z</time>
      </trkpt>
      <trkpt lat="48.38615" lon="2.6753">
        <ele>98.98</ele>
        <time>2021-09-15T07:54:45Z</time>
      </trkpt>
      <trkpt lat="48.38613" lon="2.67525">
        <ele>98.78</ele>
        <time>2021-09-15T07:54:46Z</time>
      </trkpt>
      <trkpt lat="48.38611" lon="2.67522">
        <ele>98.53</ele>
        <time>2021-09-15T07:54:47Z</time>
      </trkpt>
      <trkpt lat="48.38608" lon="2.67519">
        <ele>98.28</ele>
        <time>2021-09-15T07:54:48Z</time>
      </trkpt>
      <trkpt lat="48.38606" lon="2.67516">
        <ele>98.01</ele>
        <time>2021-09-15T07:54:49Z</time>
      </trkpt>
      <trkpt lat="48.38604" lon="2.67512">
        <ele>97.63</ele>
        <time>2021-09-15T07:54:50Z</time>
      </trkpt>
      <trkpt lat="48.38603" lon="2.6751">
        <ele>96.74</ele>
        <time>2021-09-15T07:54:51Z</time>
      </trkpt>
      <trkpt lat="48.38602" lon="2.67509">
        <ele>96.44</ele>
        <time>2021-09-15T07:54:52Z</time>
      </trkpt>
      <trkpt lat="48.38601" lon="2.67507">
        <ele>96.13</ele>
        <time>2021-09-15T07:54:53Z</time>
      </trkpt>
      <trkpt lat="48.38595" lon="2.67489">
        <ele>93.11</ele>
        <time>2021-09-15T07:55:04Z</time>
      </trkpt>
      <trkpt lat="48.38591" lon="2.67485">
        <ele>91.68</ele>
        <time>2021-09-15T07:55:07Z</time>
      </trkpt>
      <trkpt lat="48.38589" lon="2.6748">
        <ele>91.54</ele>
        <time>2021-09-15T07:55:09Z</time>
      </trkpt>
      <trkpt lat="48.38587" lon="2.67478">
        <ele>91.6</ele>
        <time>2021-09-15T07:55:10Z</time>
      </trkpt>
      <trkpt lat="48.38586" lon="2.67476">
        <ele>91.75</ele>
        <time>2021-09-15T07:55:11Z</time>
      </trkpt>
      <trkpt lat="48.38585" lon="2.67474">
        <ele>91.96</ele>
        <time>2021-09-15T07:55:12Z</time>
      </trkpt>
      <trkpt lat="48.38578" lon="2.67464">
        <ele>90.27</ele>
        <time>2021-09-15T07:55:19Z</time>
      </trkpt>
      <trkpt lat="48.38568" lon="2.67456">
        <ele>86.71</ele>
        <time>2021-09-15T07:55:31Z</time>
      </trkpt>
      <trkpt lat="48.38565" lon="2.67456">
        <ele>88.58</ele>
        <time>2021-09-15T07:55:37Z</time>
      </trkpt>
      <trkpt lat="48.38564" lon="2.67455">
        <ele>89.86</ele>
        <time>2021-09-15T07:55:39Z</time>
      </trkpt>
      <trkpt lat="48.38562" lon="2.67455">
        <ele>91.75</ele>
        <time>2021-09-15T07:55:55Z</time>
      </trkpt>
      <trkpt lat="48.38563" lon="2.67455">
        <ele>92.4</ele>
        <time>2021-09-15T07:55:57Z</time>
      </trkpt>
      <trkpt lat="48.38564" lon="2.67454">
        <ele>90.65</ele>
        <time>2021-09-15T07:56:17Z</time>
      </trkpt>
      <trkpt lat="48.38562" lon="2.67455">
        <ele>90.61</ele>
        <time>2021-09-15T07:56:21Z</time>
      </trkpt>
      <trkpt lat="48.38555" lon="2.67453">
        <ele>90.95</ele>
        <time>2021-09-15T07:56:32Z</time>
      </trkpt>
      <trkpt lat="48.38539" lon="2.67451">
        <ele>92.24</ele>
        <time>2021-09-15T07:56:47Z</time>
      </trkpt>
      <trkpt lat="48.3853" lon="2.67449">
        <ele>93.09</ele>
        <time>2021-09-15T07:56:56Z</time>
      </trkpt>
      <trkpt lat="48.38529" lon="2.67449">
        <ele>93.19</ele>
        <time>2021-09-15T07:56:57Z</time>
      </trkpt>
      <trkpt lat="48.38527" lon="2.67448">
        <ele>93.29</ele>
        <time>2021-09-15T07:56:58Z</time>
      </trkpt>
      <trkpt lat="48.38509" lon="2.67447">
        <ele>95.23</ele>
        <time>2021-09-15T07:57:15Z</time>
      </trkpt>
      <trkpt lat="48.38487" lon="2.67446">
        <ele>98.42</ele>
        <time>2021-09-15T07:57:40Z</time>
      </trkpt>
      <trkpt lat="48.38465" lon="2.67448">
        <ele>101.53</ele>
        <time>2021-09-15T07:58:02Z</time>
      </trkpt>
      <trkpt lat="48.38437" lon="2.67447">
        <ele>103.27</ele>
        <time>2021-09-15T07:58:24Z</time>
      </trkpt>
      <trkpt lat="48.38434" lon="2.67447">
        <ele>106.45</ele>
        <time>2021-09-15T07:58:28Z</time>
      </trkpt>
      <trkpt lat="48.38433" lon="2.67447">
        <ele>106.74</ele>
        <time>2021-09-15T07:58:29Z</time>
      </trkpt>
      <trkpt lat="48.38428" lon="2.67447">
        <ele>106.94</ele>
        <time>2021-09-15T07:58:34Z</time>
      </trkpt>
      <trkpt lat="48.38416" lon="2.67447">
        <ele>107.95</ele>
        <time>2021-09-15T07:58:50Z</time>
      </trkpt>
      <trkpt lat="48.38407" lon="2.67451">
        <ele>111.06</ele>
        <time>2021-09-15T07:59:04Z</time>
      </trkpt>
      <trkpt lat="48.38385" lon="2.67455">
        <ele>114.09</ele>
        <time>2021-09-15T07:59:28Z</time>
      </trkpt>
      <trkpt lat="48.38359" lon="2.67453">
        <ele>117.1</ele>
        <time>2021-09-15T07:59:57Z</time>
      </trkpt>
      <trkpt lat="48.38354" lon="2.67454">
        <ele>117.31</ele>
        <time>2021-09-15T08:00:00Z</time>
      </trkpt>
      <trkpt lat="48.38327" lon="2.67466">
        <ele>118.65</ele>
        <time>2021-09-15T08:00:16Z</time>
      </trkpt>
      <trkpt lat="48.38313" lon="2.67473">
        <ele>119.16</ele>
        <time>2021-09-15T08:00:29Z</time>
      </trkpt>
      <trkpt lat="48.38311" lon="2.67475">
        <ele>119.17</ele>
        <time>2021-09-15T08:00:31Z</time>
      </trkpt>
      <trkpt lat="48.3831" lon="2.67475">
        <ele>119.17</ele>
        <time>2021-09-15T08:00:32Z</time>
      </trkpt>
      <trkpt lat="48.38283" lon="2.67483">
        <ele>118.77</ele>
        <time>2021-09-15T08:00:56Z</time>
      </trkpt>
      <trkpt lat="48.38261" lon="2.67487">
        <ele>118.86</ele>
        <time>2021-09-15T08:01:14Z</time>
      </trkpt>
      <trkpt lat="48.38245" lon="2.67494">
        <ele>119.95</ele>
        <time>2021-09-15T08:01:29Z</time>
      </trkpt>
      <trkpt lat="48.38232" lon="2.67511">
        <ele>120.11</ele>
        <time>2021-09-15T08:01:45Z</time>
      </trkpt>
      <trkpt lat="48.3822" lon="2.67528">
        <ele>119.86</ele>
        <time>2021-09-15T08:02:01Z</time>
      </trkpt>
      <trkpt lat="48.38219" lon="2.67531">
        <ele>119.83</ele>
        <time>2021-09-15T08:02:03Z</time>
      </trkpt>
      <trkpt lat="48.38218" lon="2.67533">
        <ele>119.83</ele>
        <time>2021-09-15T08:02:04Z</time>
      </trkpt>
      <trkpt lat="48.38207" lon="2.67551">
        <ele>120.44</ele>
        <time>2021-09-15T08:02:19Z</time>
      </trkpt>
      <trkpt lat="48.38195" lon="2.6757">
        <ele>120.74</ele>
        <time>2021-09-15T08:02:35Z</time>
      </trkpt>
      <trkpt lat="48.38182" lon="2.67591">
        <ele>119.8</ele>
        <time>2021-09-15T08:02:50Z</time>
      </trkpt>
      <trkpt lat="48.38168" lon="2.67614">
        <ele>119.4</ele>
        <time>2021-09-15T08:03:06Z</time>
      </trkpt>
      <trkpt lat="48.38148" lon="2.6765">
        <ele>119.33</ele>
        <time>2021-09-15T08:03:28Z</time>
      </trkpt>
      <trkpt lat="48.38136" lon="2.67672">
        <ele>116.57</ele>
        <time>2021-09-15T08:03:43Z</time>
      </trkpt>
      <trkpt lat="48.3813" lon="2.67676">
        <ele>116.96</ele>
        <time>2021-09-15T08:03:50Z</time>
      </trkpt>
      <trkpt lat="48.38116" lon="2.67683">
        <ele>114.05</ele>
        <time>2021-09-15T08:04:04Z</time>
      </trkpt>
      <trkpt lat="48.38102" lon="2.67692">
        <ele>111.94</ele>
        <time>2021-09-15T08:04:19Z</time>
      </trkpt>
      <trkpt lat="48.38085" lon="2.67699">
        <ele>109.06</ele>
        <time>2021-09-15T08:04:39Z</time>
      </trkpt>
      <trkpt lat="48.38069" lon="2.67705">
        <ele>106</ele>
        <time>2021-09-15T08:04:54Z</time>
      </trkpt>
      <trkpt lat="48.38052" lon="2.6771">
        <ele>102.99</ele>
        <time>2021-09-15T08:05:14Z</time>
      </trkpt>
      <trkpt lat="48.38026" lon="2.67721">
        <ele>99.87</ele>
        <time>2021-09-15T08:05:35Z</time>
      </trkpt>
      <trkpt lat="48.38" lon="2.67731">
        <ele>97.7</ele>
        <time>2021-09-15T08:05:55Z</time>
      </trkpt>
      <trkpt lat="48.37987" lon="2.67738">
        <ele>96.05</ele>
        <time>2021-09-15T08:06:13Z</time>
      </trkpt>
      <trkpt lat="48.37986" lon="2.67739">
        <ele>95.85</ele>
        <time>2021-09-15T08:06:29Z</time>
      </trkpt>
      <trkpt lat="48.37987" lon="2.67737">
        <ele>95.85</ele>
        <time>2021-09-15T08:06:47Z</time>
      </trkpt>
      <trkpt lat="48.37984" lon="2.67739">
        <ele>95.85</ele>
        <time>2021-09-15T08:07:14Z</time>
      </trkpt>
      <trkpt lat="48.37983" lon="2.67739">
        <ele>95.85</ele>
        <time>2021-09-15T08:07:38Z</time>
      </trkpt>
      <trkpt lat="48.37983" lon="2.67737">
        <ele>95.85</ele>
        <time>2021-09-15T08:08:09Z</time>
      </trkpt>
      <trkpt lat="48.37982" lon="2.67735">
        <ele>95.85</ele>
        <time>2021-09-15T08:08:35Z</time>
      </trkpt>
      <trkpt lat="48.3798" lon="2.67737">
        <ele>95.85</ele>
        <time>2021-09-15T08:09:10Z</time>
      </trkpt>
      <trkpt lat="48.37982" lon="2.67738">
        <ele>95.85</ele>
        <time>2021-09-15T08:09:48Z</time>
      </trkpt>
      <trkpt lat="48.37981" lon="2.67738">
        <ele>95.85</ele>
        <time>2021-09-15T08:10:14Z</time>
      </trkpt>
      <trkpt lat="48.3798" lon="2.67737">
        <ele>95.85</ele>
        <time>2021-09-15T08:10:36Z</time>
      </trkpt>
      <trkpt lat="48.3798" lon="2.67737">
        <ele>95.85</ele>
        <time>2021-09-15T08:10:55Z</time>
      </trkpt>
      <trkpt lat="48.37981" lon="2.67737">
        <ele>95.85</ele>
        <time>2021-09-15T08:11:25Z</time>
      </trkpt>
      <trkpt lat="48.37981" lon="2.67739">
        <ele>95.85</ele>
        <time>2021-09-15T08:11:59Z</time>
      </trkpt>
      <trkpt lat="48.37981" lon="2.67738">
        <ele>95.85</ele>
        <time>2021-09-15T08:12:39Z</time>
      </trkpt>
      <trkpt lat="48.37982" lon="2.67738">
        <ele>95.85</ele>
        <time>2021-09-15T08:12:52Z</time>
      </trkpt>
      <trkpt lat="48.37984" lon="2.67737">
        <ele>95.85</ele>
        <time>2021-09-15T08:13:21Z</time>
      </trkpt>
      <trkpt lat="48.37984" lon="2.67735">
        <ele>95.85</ele>
        <time>2021-09-15T08:14:07Z</time>
      </trkpt>
      <trkpt lat="48.37983" lon="2.67736">
        <ele>95.85</ele>
        <time>2021-09-15T08:14:38Z</time>
      </trkpt>
      <trkpt lat="48.37984" lon="2.67738">
        <ele>95.85</ele>
        <time>2021-09-15T08:15:13Z</time>
      </trkpt>
      <trkpt lat="48.37981" lon="2.67736">
        <ele>95.85</ele>
        <time>2021-09-15T08:15:36Z</time>
      </trkpt>
      <trkpt lat="48.37982" lon="2.67735">
        <ele>95.85</ele>
        <time>2021-09-15T08:16:09Z</time>
      </trkpt>
      <trkpt lat="48.37983" lon="2.67736">
        <ele>95.85</ele>
        <time>2021-09-15T08:16:31Z</time>
      </trkpt>
      <trkpt lat="48.37981" lon="2.67735">
        <ele>95.85</ele>
        <time>2021-09-15T08:16:54Z</time>
      </trkpt>
      <trkpt lat="48.37981" lon="2.67734">
        <ele>95.85</ele>
        <time>2021-09-15T08:17:18Z</time>
      </trkpt>
      <trkpt lat="48.37982" lon="2.67736">
        <ele>95.85</ele>
        <time>2021-09-15T08:17:43Z</time>
      </trkpt>
      <trkpt lat="48.37982" lon="2.67735">
        <ele>95.85</ele>
        <time>2021-09-15T08:18:14Z</time>
      </trkpt>
      <trkpt lat="48.37984" lon="2.67746">
        <ele>95.85</ele>
        <time>2021-09-15T08:18:38Z</time>
      </trkpt>
      <trkpt lat="48.3798" lon="2.67765">
        <ele>95.21</ele>
        <time>2021-09-15T08:18:54Z</time>
      </trkpt>
      <trkpt lat="48.37972" lon="2.67798">
        <ele>94.54</ele>
        <time>2021-09-15T08:19:18Z</time>
      </trkpt>
      <trkpt lat="48.37966" lon="2.67835">
        <ele>94.02</ele>
        <time>2021-09-15T08:19:36Z</time>
      </trkpt>
      <trkpt lat="48.3796" lon="2.67876">
        <ele>93.48</ele>
        <time>2021-09-15T08:19:54Z</time>
      </trkpt>
      <trkpt lat="48.37954" lon="2.67913">
        <ele>93.23</ele>
        <time>2021-09-15T08:20:13Z</time>
      </trkpt>
      <trkpt lat="48.37948" lon="2.67943">
        <ele>93.29</ele>
        <time>2021-09-15T08:20:31Z</time>
      </trkpt>
      <trkpt lat="48.37942" lon="2.67971">
        <ele>92</ele>
        <time>2021-09-15T08:20:49Z</time>
      </trkpt>
      <trkpt lat="48.37933" lon="2.68009">
        <ele>91.3</ele>
        <time>2021-09-15T08:21:11Z</time>
      </trkpt>
      <trkpt lat="48.37921" lon="2.68046">
        <ele>90.25</ele>
        <time>2021-09-15T08:21:39Z</time>
      </trkpt>
      <trkpt lat="48.37912" lon="2.68083">
        <ele>88.71</ele>
        <time>2021-09-15T08:21:59Z</time>
      </trkpt>
      <trkpt lat="48.3791" lon="2.68119">
        <ele>87.62</ele>
        <time>2021-09-15T08:22:18Z</time>
      </trkpt>
      <trkpt lat="48.379" lon="2.6816">
        <ele>86.16</ele>
        <time>2021-09-15T08:22:43Z</time>
      </trkpt>
      <trkpt lat="48.37891" lon="2.68203">
        <ele>85.25</ele>
        <time>2021-09-15T08:23:02Z</time>
      </trkpt>
      <trkpt lat="48.3789" lon="2.68204">
        <ele>85.29</ele>
        <time>2021-09-15T08:23:03Z</time>
      </trkpt>
      <trkpt lat="48.37888" lon="2.68206">
        <ele>85.93</ele>
        <time>2021-09-15T08:23:05Z</time>
      </trkpt>
      <trkpt lat="48.37886" lon="2.68206">
        <ele>86.24</ele>
        <time>2021-09-15T08:23:06Z</time>
      </trkpt>
      <trkpt lat="48.37885" lon="2.68207">
        <ele>86.67</ele>
        <time>2021-09-15T08:23:07Z</time>
      </trkpt>
      <trkpt lat="48.37884" lon="2.68206">
        <ele>86.74</ele>
        <time>2021-09-15T08:23:08Z</time>
      </trkpt>
      <trkpt lat="48.37878" lon="2.6819">
        <ele>86.36</ele>
        <time>2021-09-15T08:23:22Z</time>
      </trkpt>
      <trkpt lat="48.37876" lon="2.68183">
        <ele>86.28</ele>
        <time>2021-09-15T08:23:27Z</time>
      </trkpt>
      <trkpt lat="48.37873" lon="2.68165">
        <ele>86.83</ele>
        <time>2021-09-15T08:23:40Z</time>
      </trkpt>
      <trkpt lat="48.37866" lon="2.68154">
        <ele>87.09</ele>
        <time>2021-09-15T08:23:48Z</time>
      </trkpt>
      <trkpt lat="48.37865" lon="2.6815">
        <ele>86.98</ele>
        <time>2021-09-15T08:23:50Z</time>
      </trkpt>
      <trkpt lat="48.37865" lon="2.68148">
        <ele>87.01</ele>
        <time>2021-09-15T08:23:51Z</time>
      </trkpt>
      <trkpt lat="48.37865" lon="2.68147">
        <ele>87.06</ele>
        <time>2021-09-15T08:23:52Z</time>
      </trkpt>
      <trkpt lat="48.37859" lon="2.68127">
        <ele>88.4</ele>
        <time>2021-09-15T08:24:07Z</time>
      </trkpt>
      <trkpt lat="48.37859" lon="2.68101">
        <ele>88.88</ele>
        <time>2021-09-15T08:24:24Z</time>
      </trkpt>
      <trkpt lat="48.37854" lon="2.68068">
        <ele>90.7</ele>
        <time>2021-09-15T08:24:50Z</time>
      </trkpt>
      <trkpt lat="48.37842" lon="2.68031">
        <ele>93.45</ele>
        <time>2021-09-15T08:25:17Z</time>
      </trkpt>
      <trkpt lat="48.3783" lon="2.6801">
        <ele>96.54</ele>
        <time>2021-09-15T08:25:39Z</time>
      </trkpt>
      <trkpt lat="48.37824" lon="2.67997">
        <ele>99.67</ele>
        <time>2021-09-15T08:25:57Z</time>
      </trkpt>
      <trkpt lat="48.37805" lon="2.67986">
        <ele>102.81</ele>
        <time>2021-09-15T08:26:18Z</time>
      </trkpt>
      <trkpt lat="48.37795" lon="2.67986">
        <ele>105.87</ele>
        <time>2021-09-15T08:26:37Z</time>
      </trkpt>
      <trkpt lat="48.37798" lon="2.67967">
        <ele>108.8</ele>
        <time>2021-09-15T08:26:55Z</time>
      </trkpt>
      <trkpt lat="48.37804" lon="2.67953">
        <ele>111.1</ele>
        <time>2021-09-15T08:27:16Z</time>
      </trkpt>
      <trkpt lat="48.37806" lon="2.67949">
        <ele>111.52</ele>
        <time>2021-09-15T08:27:20Z</time>
      </trkpt>
      <trkpt lat="48.37809" lon="2.67948">
        <ele>111.7</ele>
        <time>2021-09-15T08:27:23Z</time>
      </trkpt>
      <trkpt lat="48.37811" lon="2.67934">
        <ele>114.75</ele>
        <time>2021-09-15T08:27:45Z</time>
      </trkpt>
      <trkpt lat="48.37815" lon="2.6792">
        <ele>117.6</ele>
        <time>2021-09-15T08:28:06Z</time>
      </trkpt>
      <trkpt lat="48.37819" lon="2.67914">
        <ele>118.96</ele>
        <time>2021-09-15T08:28:27Z</time>
      </trkpt>
      <trkpt lat="48.37826" lon="2.67896">
        <ele>120.31</ele>
        <time>2021-09-15T08:28:48Z</time>
      </trkpt>
      <trkpt lat="48.37835" lon="2.67888">
        <ele>121.5</ele>
        <time>2021-09-15T08:29:13Z</time>
      </trkpt>
      <trkpt lat="48.37841" lon="2.67894">
        <ele>120.73</ele>
        <time>2021-09-15T08:29:35Z</time>
      </trkpt>
      <trkpt lat="48.37849" lon="2.67892">
        <ele>120.5</ele>
        <time>2021-09-15T08:29:51Z</time>
      </trkpt>
      <trkpt lat="48.37856" lon="2.67875">
        <ele>120.8</ele>
        <time>2021-09-15T08:30:08Z</time>
      </trkpt>
      <trkpt lat="48.37858" lon="2.67846">
        <ele>120.99</ele>
        <time>2021-09-15T08:30:28Z</time>
      </trkpt>
      <trkpt lat="48.3786" lon="2.67827">
        <ele>121.89</ele>
        <time>2021-09-15T08:30:48Z</time>
      </trkpt>
      <trkpt lat="48.37864" lon="2.67807">
        <ele>121.01</ele>
        <time>2021-09-15T08:31:07Z</time>
      </trkpt>
      <trkpt lat="48.37859" lon="2.6779">
        <ele>120.17</ele>
        <time>2021-09-15T08:31:22Z</time>
      </trkpt>
      <trkpt lat="48.37857" lon="2.67773">
        <ele>119.91</ele>
        <time>2021-09-15T08:31:39Z</time>
      </trkpt>
      <trkpt lat="48.37859" lon="2.67754">
        <ele>119.91</ele>
        <time>2021-09-15T08:31:56Z</time>
      </trkpt>
      <trkpt lat="48.37853" lon="2.67734">
        <ele>117.78</ele>
        <time>2021-09-15T08:32:15Z</time>
      </trkpt>
      <trkpt lat="48.37844" lon="2.67726">
        <ele>119.77</ele>
        <time>2021-09-15T08:32:33Z</time>
      </trkpt>
      <trkpt lat="48.37841" lon="2.67711">
        <ele>120.76</ele>
        <time>2021-09-15T08:32:49Z</time>
      </trkpt>
      <trkpt lat="48.37838" lon="2.67692">
        <ele>119.16</ele>
        <time>2021-09-15T08:33:05Z</time>
      </trkpt>
      <trkpt lat="48.37833" lon="2.67668">
        <ele>120.16</ele>
        <time>2021-09-15T08:33:23Z</time>
      </trkpt>
      <trkpt lat="48.37829" lon="2.67647">
        <ele>119.79</ele>
        <time>2021-09-15T08:33:36Z</time>
      </trkpt>
      <trkpt lat="48.37826" lon="2.67635">
        <ele>119.47</ele>
        <time>2021-09-15T08:33:45Z</time>
      </trkpt>
      <trkpt lat="48.37825" lon="2.67615">
        <ele>120.63</ele>
        <time>2021-09-15T08:33:58Z</time>
      </trkpt>
      <trkpt lat="48.3782" lon="2.67588">
        <ele>120.38</ele>
        <time>2021-09-15T08:34:21Z</time>
      </trkpt>
      <trkpt lat="48.3782" lon="2.67583">
        <ele>120.77</ele>
        <time>2021-09-15T08:34:44Z</time>
      </trkpt>
      <trkpt lat="48.37818" lon="2.67577">
        <ele>121.17</ele>
        <time>2021-09-15T08:35:02Z</time>
      </trkpt>
      <trkpt lat="48.37809" lon="2.67556">
        <ele>118.42</ele>
        <time>2021-09-15T08:35:27Z</time>
      </trkpt>
      <trkpt lat="48.37808" lon="2.67546">
        <ele>119.84</ele>
        <time>2021-09-15T08:35:43Z</time>
      </trkpt>
      <trkpt lat="48.37808" lon="2.67543">
        <ele>118.97</ele>
        <time>2021-09-15T08:35:52Z</time>
      </trkpt>
      <trkpt lat="48.37816" lon="2.67538">
        <ele>120.33</ele>
        <time>2021-09-15T08:36:12Z</time>
      </trkpt>
      <trkpt lat="48.37822" lon="2.67538">
        <ele>120.96</ele>
        <time>2021-09-15T08:36:30Z</time>
      </trkpt>
      <trkpt lat="48.37821" lon="2.6755">
        <ele>121.57</ele>
        <time>2021-09-15T08:37:00Z</time>
      </trkpt>
      <trkpt lat="48.37831" lon="2.67565">
        <ele>121.57</ele>
        <time>2021-09-15T08:37:21Z</time>
      </trkpt>
      <trkpt lat="48.3784" lon="2.67576">
        <ele>120.44</ele>
        <time>2021-09-15T08:37:31Z</time>
      </trkpt>
      <trkpt lat="48.37851" lon="2.67587">
        <ele>120.94</ele>
        <time>2021-09-15T08:37:45Z</time>
      </trkpt>
      <trkpt lat="48.37852" lon="2.67588">
        <ele>120.84</ele>
        <time>2021-09-15T08:37:46Z</time>
      </trkpt>
      <trkpt lat="48.37853" lon="2.67589">
        <ele>120.64</ele>
        <time>2021-09-15T08:37:47Z</time>
      </trkpt>
      <trkpt lat="48.37855" lon="2.6759">
        <ele>120.34</ele>
        <time>2021-09-15T08:37:48Z</time>
      </trkpt>
      <trkpt lat="48.37875" lon="2.67602">
        <ele>120.13</ele>
        <time>2021-09-15T08:38:09Z</time>
      </trkpt>
      <trkpt lat="48.37886" lon="2.67591">
        <ele>118.58</ele>
        <time>2021-09-15T08:38:25Z</time>
      </trkpt>
      <trkpt lat="48.37895" lon="2.67597">
        <ele>115.84</ele>
        <time>2021-09-15T08:38:42Z</time>
      </trkpt>
      <trkpt lat="48.37901" lon="2.67607">
        <ele>114.09</ele>
        <time>2021-09-15T08:38:51Z</time>
      </trkpt>
      <trkpt lat="48.37904" lon="2.67612">
        <ele>113.74</ele>
        <time>2021-09-15T08:38:55Z</time>
      </trkpt>
      <trkpt lat="48.37905" lon="2.67613">
        <ele>113.7</ele>
        <time>2021-09-15T08:38:56Z</time>
      </trkpt>
      <trkpt lat="48.37917" lon="2.67613">
        <ele>114.75</ele>
        <time>2021-09-15T08:39:15Z</time>
      </trkpt>
      <trkpt lat="48.37917" lon="2.676">
        <ele>117.69</ele>
        <time>2021-09-15T08:39:29Z</time>
      </trkpt>
      <trkpt lat="48.37922" lon="2.67591">
        <ele>118.14</ele>
        <time>2021-09-15T08:39:48Z</time>
      </trkpt>
      <trkpt lat="48.37931" lon="2.67581">
        <ele>117.51</ele>
        <time>2021-09-15T08:40:08Z</time>
      </trkpt>
      <trkpt lat="48.3794" lon="2.67559">
        <ele>116.25</ele>
        <time>2021-09-15T08:40:26Z</time>
      </trkpt>
      <trkpt lat="48.37947" lon="2.67551">
        <ele>116.51</ele>
        <time>2021-09-15T08:40:35Z</time>
      </trkpt>
      <trkpt lat="48.37948" lon="2.6755">
        <ele>116.52</ele>
        <time>2021-09-15T08:40:36Z</time>
      </trkpt>
      <trkpt lat="48.37953" lon="2.67546">
        <ele>116.73</ele>
        <time>2021-09-15T08:40:52Z</time>
      </trkpt>
      <trkpt lat="48.37951" lon="2.67537">
        <ele>117.38</ele>
        <time>2021-09-15T08:41:15Z</time>
      </trkpt>
      <trkpt lat="48.37956" lon="2.67514">
        <ele>119.48</ele>
        <time>2021-09-15T08:41:34Z</time>
      </trkpt>
      <trkpt lat="48.37957" lon="2.67513">
        <ele>119.5</ele>
        <time>2021-09-15T08:41:35Z</time>
      </trkpt>
      <trkpt lat="48.37958" lon="2.67512">
        <ele>119.5</ele>
        <time>2021-09-15T08:41:36Z</time>
      </trkpt>
      <trkpt lat="48.37959" lon="2.6751">
        <ele>119.49</ele>
        <time>2021-09-15T08:41:37Z</time>
      </trkpt>
      <trkpt lat="48.3796" lon="2.67505">
        <ele>118.73</ele>
        <time>2021-09-15T08:41:40Z</time>
      </trkpt>
      <trkpt lat="48.37961" lon="2.67503">
        <ele>118.52</ele>
        <time>2021-09-15T08:41:41Z</time>
      </trkpt>
      <trkpt lat="48.37961" lon="2.67502">
        <ele>118.35</ele>
        <time>2021-09-15T08:41:42Z</time>
      </trkpt>
      <trkpt lat="48.37961" lon="2.67491">
        <ele>117.09</ele>
        <time>2021-09-15T08:41:56Z</time>
      </trkpt>
      <trkpt lat="48.37964" lon="2.67476">
        <ele>116.8</ele>
        <time>2021-09-15T08:42:12Z</time>
      </trkpt>
      <trkpt lat="48.37961" lon="2.67465">
        <ele>117.76</ele>
        <time>2021-09-15T08:42:25Z</time>
      </trkpt>
      <trkpt lat="48.37962" lon="2.67462">
        <ele>117.81</ele>
        <time>2021-09-15T08:42:27Z</time>
      </trkpt>
      <trkpt lat="48.37964" lon="2.67444">
        <ele>117.73</ele>
        <time>2021-09-15T08:42:44Z</time>
      </trkpt>
      <trkpt lat="48.37964" lon="2.67414">
        <ele>118.2</ele>
        <time>2021-09-15T08:43:06Z</time>
      </trkpt>
      <trkpt lat="48.37963" lon="2.67394">
        <ele>119.56</ele>
        <time>2021-09-15T08:43:23Z</time>
      </trkpt>
      <trkpt lat="48.37964" lon="2.67389">
        <ele>119.05</ele>
        <time>2021-09-15T08:43:28Z</time>
      </trkpt>
      <trkpt lat="48.37958" lon="2.67377">
        <ele>118.02</ele>
        <time>2021-09-15T08:43:41Z</time>
      </trkpt>
      <trkpt lat="48.37941" lon="2.67372">
        <ele>118.49</ele>
        <time>2021-09-15T08:44:00Z</time>
      </trkpt>
      <trkpt lat="48.37935" lon="2.67371">
        <ele>118.78</ele>
        <time>2021-09-15T08:44:05Z</time>
      </trkpt>
      <trkpt lat="48.37933" lon="2.67371">
        <ele>118.85</ele>
        <time>2021-09-15T08:44:06Z</time>
      </trkpt>
      <trkpt lat="48.37923" lon="2.67368">
        <ele>118.55</ele>
        <time>2021-09-15T08:44:19Z</time>
      </trkpt>
      <trkpt lat="48.37922" lon="2.67368">
        <ele>118.58</ele>
        <time>2021-09-15T08:44:20Z</time>
      </trkpt>
      <trkpt lat="48.3792" lon="2.67368">
        <ele>118.61</ele>
        <time>2021-09-15T08:44:21Z</time>
      </trkpt>
      <trkpt lat="48.37918" lon="2.67369">
        <ele>118.65</ele>
        <time>2021-09-15T08:44:22Z</time>
      </trkpt>
      <trkpt lat="48.37902" lon="2.67365">
        <ele>119.03</ele>
        <time>2021-09-15T08:44:38Z</time>
      </trkpt>
      <trkpt lat="48.37898" lon="2.67351">
        <ele>117.64</ele>
        <time>2021-09-15T08:44:55Z</time>
      </trkpt>
      <trkpt lat="48.3791" lon="2.67333">
        <ele>119.75</ele>
        <time>2021-09-15T08:45:16Z</time>
      </trkpt>
      <trkpt lat="48.37911" lon="2.67332">
        <ele>119.68</ele>
        <time>2021-09-15T08:45:17Z</time>
      </trkpt>
      <trkpt lat="48.37912" lon="2.67331">
        <ele>119.61</ele>
        <time>2021-09-15T08:45:18Z</time>
      </trkpt>
      <trkpt lat="48.37919" lon="2.67318">
        <ele>118.33</ele>
        <time>2021-09-15T08:45:28Z</time>
      </trkpt>
      <trkpt lat="48.37927" lon="2.67305">
        <ele>117.63</ele>
        <time>2021-09-15T08:45:43Z</time>
      </trkpt>
      <trkpt lat="48.37935" lon="2.67296">
        <ele>117.96</ele>
        <time>2021-09-15T08:45:55Z</time>
      </trkpt>
      <trkpt lat="48.37936" lon="2.67294">
        <ele>117.96</ele>
        <time>2021-09-15T08:45:56Z</time>
      </trkpt>
      <trkpt lat="48.37937" lon="2.67294">
        <ele>117.94</ele>
        <time>2021-09-15T08:45:57Z</time>
      </trkpt>
      <trkpt lat="48.37944" lon="2.67282">
        <ele>116.71</ele>
        <time>2021-09-15T08:46:08Z</time>
      </trkpt>
      <trkpt lat="48.37951" lon="2.67267">
        <ele>117.41</ele>
        <time>2021-09-15T08:46:22Z</time>
      </trkpt>
      <trkpt lat="48.37956" lon="2.67245">
        <ele>115.76</ele>
        <time>2021-09-15T08:46:40Z</time>
      </trkpt>
      <trkpt lat="48.3796" lon="2.67228">
        <ele>116.99</ele>
        <time>2021-09-15T08:47:05Z</time>
      </trkpt>
      <trkpt lat="48.37968" lon="2.67224">
        <ele>118.32</ele>
        <time>2021-09-15T08:47:26Z</time>
      </trkpt>
      <trkpt lat="48.37977" lon="2.67226">
        <ele>116</ele>
        <time>2021-09-15T08:47:43Z</time>
      </trkpt>
      <trkpt lat="48.37979" lon="2.67221">
        <ele>115.98</ele>
        <time>2021-09-15T08:47:48Z</time>
      </trkpt>
      <trkpt lat="48.3798" lon="2.67218">
        <ele>115.7</ele>
        <time>2021-09-15T08:47:50Z</time>
      </trkpt>
      <trkpt lat="48.37981" lon="2.67217">
        <ele>115.52</ele>
        <time>2021-09-15T08:47:51Z</time>
      </trkpt>
      <trkpt lat="48.37982" lon="2.67216">
        <ele>115.37</ele>
        <time>2021-09-15T08:47:52Z</time>
      </trkpt>
      <trkpt lat="48.37983" lon="2.67216">
        <ele>115.22</ele>
        <time>2021-09-15T08:47:53Z</time>
      </trkpt>
      <trkpt lat="48.37984" lon="2.67217">
        <ele>115.14</ele>
        <time>2021-09-15T08:47:54Z</time>
      </trkpt>
      <trkpt lat="48.37985" lon="2.67217">
        <ele>115.01</ele>
        <time>2021-09-15T08:47:55Z</time>
      </trkpt>
      <trkpt lat="48.3799" lon="2.67215">
        <ele>112.46</ele>
        <time>2021-09-15T08:48:09Z</time>
      </trkpt>
      <trkpt lat="48.37988" lon="2.67211">
        <ele>114.01</ele>
        <time>2021-09-15T08:48:13Z</time>
      </trkpt>
      <trkpt lat="48.37984" lon="2.67194">
        <ele>111.9</ele>
        <time>2021-09-15T08:48:32Z</time>
      </trkpt>
      <trkpt lat="48.37991" lon="2.6718">
        <ele>111.15</ele>
        <time>2021-09-15T08:48:49Z</time>
      </trkpt>
      <trkpt lat="48.37995" lon="2.67163">
        <ele>108.85</ele>
        <time>2021-09-15T08:49:08Z</time>
      </trkpt>
      <trkpt lat="48.37995" lon="2.67173">
        <ele>108.57</ele>
        <time>2021-09-15T08:49:29Z</time>
      </trkpt>
      <trkpt lat="48.37988" lon="2.6718">
        <ele>110.3</ele>
        <time>2021-09-15T08:49:51Z</time>
      </trkpt>
      <trkpt lat="48.37984" lon="2.67183">
        <ele>110.76</ele>
        <time>2021-09-15T08:50:06Z</time>
      </trkpt>
      <trkpt lat="48.37989" lon="2.6718">
        <ele>110.75</ele>
        <time>2021-09-15T08:50:24Z</time>
      </trkpt>
      <trkpt lat="48.37992" lon="2.67167">
        <ele>108.93</ele>
        <time>2021-09-15T08:50:45Z</time>
      </trkpt>
      <trkpt lat="48.37987" lon="2.6716">
        <ele>108.59</ele>
        <time>2021-09-15T08:51:04Z</time>
      </trkpt>
      <trkpt lat="48.3798" lon="2.67148">
        <ele>107.21</ele>
        <time>2021-09-15T08:51:20Z</time>
      </trkpt>
      <trkpt lat="48.37975" lon="2.67148">
        <ele>104.35</ele>
        <time>2021-09-15T08:51:34Z</time>
      </trkpt>
      <trkpt lat="48.37973" lon="2.67141">
        <ele>102.29</ele>
        <time>2021-09-15T08:51:48Z</time>
      </trkpt>
      <trkpt lat="48.37966" lon="2.67132">
        <ele>99.25</ele>
        <time>2021-09-15T08:52:06Z</time>
      </trkpt>
      <trkpt lat="48.37956" lon="2.6715">
        <ele>99.54</ele>
        <time>2021-09-15T08:52:34Z</time>
      </trkpt>
      <trkpt lat="48.37953" lon="2.67152">
        <ele>99.8</ele>
        <time>2021-09-15T08:53:08Z</time>
      </trkpt>
      <trkpt lat="48.37945" lon="2.67167">
        <ele>99.03</ele>
        <time>2021-09-15T08:53:35Z</time>
      </trkpt>
      <trkpt lat="48.37938" lon="2.67198">
        <ele>100.52</ele>
        <time>2021-09-15T08:53:56Z</time>
      </trkpt>
      <trkpt lat="48.37931" lon="2.67219">
        <ele>101.44</ele>
        <time>2021-09-15T08:54:12Z</time>
      </trkpt>
      <trkpt lat="48.37924" lon="2.67244">
        <ele>101.06</ele>
        <time>2021-09-15T08:54:30Z</time>
      </trkpt>
      <trkpt lat="48.37919" lon="2.67261">
        <ele>102.56</ele>
        <time>2021-09-15T08:54:46Z</time>
      </trkpt>
      <trkpt lat="48.3791" lon="2.67272">
        <ele>103.58</ele>
        <time>2021-09-15T08:55:03Z</time>
      </trkpt>
      <trkpt lat="48.37909" lon="2.67273">
        <ele>103.53</ele>
        <time>2021-09-15T08:55:05Z</time>
      </trkpt>
      <trkpt lat="48.37904" lon="2.67278">
        <ele>103.57</ele>
        <time>2021-09-15T08:55:22Z</time>
      </trkpt>
      <trkpt lat="48.37903" lon="2.6728">
        <ele>105.05</ele>
        <time>2021-09-15T08:55:25Z</time>
      </trkpt>
      <trkpt lat="48.37898" lon="2.67296">
        <ele>104.77</ele>
        <time>2021-09-15T08:55:41Z</time>
      </trkpt>
      <trkpt lat="48.37893" lon="2.67314">
        <ele>107.8</ele>
        <time>2021-09-15T08:55:59Z</time>
      </trkpt>
      <trkpt lat="48.37886" lon="2.67318">
        <ele>110.9</ele>
        <time>2021-09-15T08:56:14Z</time>
      </trkpt>
      <trkpt lat="48.37881" lon="2.67325">
        <ele>113.28</ele>
        <time>2021-09-15T08:56:29Z</time>
      </trkpt>
      <trkpt lat="48.37881" lon="2.6734">
        <ele>115.13</ele>
        <time>2021-09-15T08:56:46Z</time>
      </trkpt>
      <trkpt lat="48.37877" lon="2.67352">
        <ele>118.16</ele>
        <time>2021-09-15T08:57:02Z</time>
      </trkpt>
      <trkpt lat="48.37873" lon="2.67371">
        <ele>120.85</ele>
        <time>2021-09-15T08:57:21Z</time>
      </trkpt>
      <trkpt lat="48.37861" lon="2.67366">
        <ele>121.52</ele>
        <time>2021-09-15T08:57:35Z</time>
      </trkpt>
      <trkpt lat="48.37855" lon="2.67354">
        <ele>121.32</ele>
        <time>2021-09-15T08:57:57Z</time>
      </trkpt>
      <trkpt lat="48.37844" lon="2.67333">
        <ele>121.42</ele>
        <time>2021-09-15T08:58:15Z</time>
      </trkpt>
      <trkpt lat="48.37837" lon="2.67316">
        <ele>120.82</ele>
        <time>2021-09-15T08:58:31Z</time>
      </trkpt>
      <trkpt lat="48.37828" lon="2.67303">
        <ele>119.32</ele>
        <time>2021-09-15T08:58:46Z</time>
      </trkpt>
      <trkpt lat="48.37828" lon="2.67301">
        <ele>118.66</ele>
        <time>2021-09-15T08:58:48Z</time>
      </trkpt>
      <trkpt lat="48.37825" lon="2.67296">
        <ele>122.35</ele>
        <time>2021-09-15T08:58:52Z</time>
      </trkpt>
      <trkpt lat="48.37824" lon="2.67293">
        <ele>123.05</ele>
        <time>2021-09-15T08:58:54Z</time>
      </trkpt>
      <trkpt lat="48.37821" lon="2.67287">
        <ele>121.06</ele>
        <time>2021-09-15T08:59:01Z</time>
      </trkpt>
      <trkpt lat="48.37809" lon="2.67266">
        <ele>122.41</ele>
        <time>2021-09-15T08:59:20Z</time>
      </trkpt>
      <trkpt lat="48.37802" lon="2.67253">
        <ele>121.16</ele>
        <time>2021-09-15T08:59:32Z</time>
      </trkpt>
      <trkpt lat="48.37801" lon="2.67247">
        <ele>123.16</ele>
        <time>2021-09-15T08:59:37Z</time>
      </trkpt>
      <trkpt lat="48.37802" lon="2.67246">
        <ele>123.28</ele>
        <time>2021-09-15T08:59:38Z</time>
      </trkpt>
      <trkpt lat="48.37804" lon="2.67243">
        <ele>122.86</ele>
        <time>2021-09-15T08:59:40Z</time>
      </trkpt>
      <trkpt lat="48.37808" lon="2.67242">
        <ele>121.86</ele>
        <time>2021-09-15T08:59:46Z</time>
      </trkpt>
      <trkpt lat="48.37816" lon="2.67239">
        <ele>121.37</ele>
        <time>2021-09-15T08:59:58Z</time>
      </trkpt>
      <trkpt lat="48.37826" lon="2.67236">
        <ele>120.45</ele>
        <time>2021-09-15T09:00:21Z</time>
      </trkpt>
      <trkpt lat="48.37829" lon="2.67227">
        <ele>120.16</ele>
        <time>2021-09-15T09:00:42Z</time>
      </trkpt>
      <trkpt lat="48.37832" lon="2.67229">
        <ele>119.94</ele>
        <time>2021-09-15T09:01:10Z</time>
      </trkpt>
      <trkpt lat="48.37839" lon="2.67224">
        <ele>116.91</ele>
        <time>2021-09-15T09:01:20Z</time>
      </trkpt>
      <trkpt lat="48.37843" lon="2.6722">
        <ele>119.38</ele>
        <time>2021-09-15T09:01:25Z</time>
      </trkpt>
      <trkpt lat="48.37852" lon="2.6721">
        <ele>121.92</ele>
        <time>2021-09-15T09:01:42Z</time>
      </trkpt>
      <trkpt lat="48.37861" lon="2.67194">
        <ele>122.38</ele>
        <time>2021-09-15T09:02:00Z</time>
      </trkpt>
      <trkpt lat="48.37868" lon="2.67181">
        <ele>120.83</ele>
        <time>2021-09-15T09:02:16Z</time>
      </trkpt>
      <trkpt lat="48.37873" lon="2.67189">
        <ele>118.5</ele>
        <time>2021-09-15T09:02:34Z</time>
      </trkpt>
      <trkpt lat="48.37874" lon="2.67208">
        <ele>118.66</ele>
        <time>2021-09-15T09:02:50Z</time>
      </trkpt>
      <trkpt lat="48.3787" lon="2.67222">
        <ele>118.91</ele>
        <time>2021-09-15T09:03:05Z</time>
      </trkpt>
      <trkpt lat="48.37877" lon="2.67238">
        <ele>117.82</ele>
        <time>2021-09-15T09:03:19Z</time>
      </trkpt>
      <trkpt lat="48.37873" lon="2.67254">
        <ele>118.22</ele>
        <time>2021-09-15T09:03:34Z</time>
      </trkpt>
      <trkpt lat="48.37872" lon="2.67259">
        <ele>119.05</ele>
        <time>2021-09-15T09:03:52Z</time>
      </trkpt>
      <trkpt lat="48.37877" lon="2.6725">
        <ele>118.71</ele>
        <time>2021-09-15T09:04:15Z</time>
      </trkpt>
      <trkpt lat="48.37879" lon="2.67238">
        <ele>118.71</ele>
        <time>2021-09-15T09:04:35Z</time>
      </trkpt>
      <trkpt lat="48.37883" lon="2.67229">
        <ele>118.71</ele>
        <time>2021-09-15T09:04:51Z</time>
      </trkpt>
      <trkpt lat="48.37884" lon="2.67221">
        <ele>116.04</ele>
        <time>2021-09-15T09:04:58Z</time>
      </trkpt>
      <trkpt lat="48.37887" lon="2.67202">
        <ele>114.36</ele>
        <time>2021-09-15T09:05:18Z</time>
      </trkpt>
      <trkpt lat="48.37888" lon="2.67183">
        <ele>112.64</ele>
        <time>2021-09-15T09:05:37Z</time>
      </trkpt>
      <trkpt lat="48.37894" lon="2.67166">
        <ele>110.91</ele>
        <time>2021-09-15T09:05:52Z</time>
      </trkpt>
      <trkpt lat="48.37902" lon="2.6715">
        <ele>110.16</ele>
        <time>2021-09-15T09:06:09Z</time>
      </trkpt>
      <trkpt lat="48.37907" lon="2.67131">
        <ele>107.08</ele>
        <time>2021-09-15T09:06:24Z</time>
      </trkpt>
      <trkpt lat="48.37919" lon="2.67129">
        <ele>103.43</ele>
        <time>2021-09-15T09:06:42Z</time>
      </trkpt>
      <trkpt lat="48.37929" lon="2.67135">
        <ele>102.27</ele>
        <time>2021-09-15T09:07:00Z</time>
      </trkpt>
      <trkpt lat="48.37939" lon="2.67148">
        <ele>100.11</ele>
        <time>2021-09-15T09:07:15Z</time>
      </trkpt>
      <trkpt lat="48.37942" lon="2.67164">
        <ele>99.23</ele>
        <time>2021-09-15T09:07:31Z</time>
      </trkpt>
      <trkpt lat="48.37952" lon="2.6716">
        <ele>98.66</ele>
        <time>2021-09-15T09:07:49Z</time>
      </trkpt>
      <trkpt lat="48.37964" lon="2.67139">
        <ele>98.72</ele>
        <time>2021-09-15T09:08:07Z</time>
      </trkpt>
      <trkpt lat="48.37971" lon="2.67115">
        <ele>98.85</ele>
        <time>2021-09-15T09:08:25Z</time>
      </trkpt>
      <trkpt lat="48.37973" lon="2.67097">
        <ele>102.97</ele>
        <time>2021-09-15T09:08:47Z</time>
      </trkpt>
      <trkpt lat="48.37974" lon="2.67096">
        <ele>103.62</ele>
        <time>2021-09-15T09:08:49Z</time>
      </trkpt>
      <trkpt lat="48.37983" lon="2.67085">
        <ele>106.15</ele>
        <time>2021-09-15T09:09:12Z</time>
      </trkpt>
      <trkpt lat="48.37983" lon="2.6707">
        <ele>107.95</ele>
        <time>2021-09-15T09:09:34Z</time>
      </trkpt>
      <trkpt lat="48.37973" lon="2.67066">
        <ele>110.96</ele>
        <time>2021-09-15T09:09:58Z</time>
      </trkpt>
      <trkpt lat="48.37964" lon="2.67051">
        <ele>113.5</ele>
        <time>2021-09-15T09:10:17Z</time>
      </trkpt>
      <trkpt lat="48.37952" lon="2.67049">
        <ele>115.92</ele>
        <time>2021-09-15T09:10:32Z</time>
      </trkpt>
      <trkpt lat="48.37951" lon="2.67032">
        <ele>118.07</ele>
        <time>2021-09-15T09:10:55Z</time>
      </trkpt>
      <trkpt lat="48.37959" lon="2.67023">
        <ele>120.58</ele>
        <time>2021-09-15T09:11:15Z</time>
      </trkpt>
      <trkpt lat="48.37955" lon="2.6701">
        <ele>119.19</ele>
        <time>2021-09-15T09:11:40Z</time>
      </trkpt>
      <trkpt lat="48.37942" lon="2.6701">
        <ele>117.56</ele>
        <time>2021-09-15T09:12:02Z</time>
      </trkpt>
      <trkpt lat="48.37932" lon="2.67005">
        <ele>118.37</ele>
        <time>2021-09-15T09:12:22Z</time>
      </trkpt>
      <trkpt lat="48.37921" lon="2.6701">
        <ele>120.72</ele>
        <time>2021-09-15T09:12:40Z</time>
      </trkpt>
      <trkpt lat="48.37913" lon="2.67006">
        <ele>119.85</ele>
        <time>2021-09-15T09:13:00Z</time>
      </trkpt>
      <trkpt lat="48.37901" lon="2.67004">
        <ele>120.85</ele>
        <time>2021-09-15T09:13:18Z</time>
      </trkpt>
      <trkpt lat="48.3789" lon="2.66995">
        <ele>121.14</ele>
        <time>2021-09-15T09:13:39Z</time>
      </trkpt>
      <trkpt lat="48.3789" lon="2.66984">
        <ele>121.6</ele>
        <time>2021-09-15T09:13:58Z</time>
      </trkpt>
      <trkpt lat="48.37885" lon="2.66981">
        <ele>119.89</ele>
        <time>2021-09-15T09:14:13Z</time>
      </trkpt>
      <trkpt lat="48.37875" lon="2.66985">
        <ele>118.2</ele>
        <time>2021-09-15T09:14:32Z</time>
      </trkpt>
      <trkpt lat="48.37873" lon="2.66981">
        <ele>114.53</ele>
        <time>2021-09-15T09:14:44Z</time>
      </trkpt>
      <trkpt lat="48.37873" lon="2.66981">
        <ele>113.81</ele>
        <time>2021-09-15T09:14:46Z</time>
      </trkpt>
      <trkpt lat="48.37874" lon="2.66979">
        <ele>117.19</ele>
        <time>2021-09-15T09:14:55Z</time>
      </trkpt>
      <trkpt lat="48.37874" lon="2.66978">
        <ele>118.13</ele>
        <time>2021-09-15T09:14:57Z</time>
      </trkpt>
      <trkpt lat="48.37874" lon="2.66965">
        <ele>115.66</ele>
        <time>2021-09-15T09:15:11Z</time>
      </trkpt>
      <trkpt lat="48.37872" lon="2.66961">
        <ele>114.85</ele>
        <time>2021-09-15T09:15:14Z</time>
      </trkpt>
      <trkpt lat="48.37872" lon="2.6696">
        <ele>114.54</ele>
        <time>2021-09-15T09:15:15Z</time>
      </trkpt>
      <trkpt lat="48.37874" lon="2.66954">
        <ele>111.24</ele>
        <time>2021-09-15T09:15:22Z</time>
      </trkpt>
      <trkpt lat="48.37875" lon="2.66952">
        <ele>110.44</ele>
        <time>2021-09-15T09:15:24Z</time>
      </trkpt>
      <trkpt lat="48.37879" lon="2.66939">
        <ele>110.13</ele>
        <time>2021-09-15T09:15:35Z</time>
      </trkpt>
      <trkpt lat="48.37875" lon="2.66934">
        <ele>107.03</ele>
        <time>2021-09-15T09:15:47Z</time>
      </trkpt>
      <trkpt lat="48.37869" lon="2.66933">
        <ele>105.13</ele>
        <time>2021-09-15T09:16:14Z</time>
      </trkpt>
      <trkpt lat="48.37868" lon="2.66911">
        <ele>103.13</ele>
        <time>2021-09-15T09:16:42Z</time>
      </trkpt>
      <trkpt lat="48.37875" lon="2.66886">
        <ele>100.09</ele>
        <time>2021-09-15T09:17:03Z</time>
      </trkpt>
      <trkpt lat="48.37874" lon="2.66867">
        <ele>98.03</ele>
        <time>2021-09-15T09:17:16Z</time>
      </trkpt>
      <trkpt lat="48.37874" lon="2.66853">
        <ele>94.9</ele>
        <time>2021-09-15T09:17:27Z</time>
      </trkpt>
      <trkpt lat="48.37862" lon="2.66814">
        <ele>93.37</ele>
        <time>2021-09-15T09:17:55Z</time>
      </trkpt>
      <trkpt lat="48.37864" lon="2.66779">
        <ele>92.2</ele>
        <time>2021-09-15T09:18:22Z</time>
      </trkpt>
      <trkpt lat="48.3786" lon="2.66753">
        <ele>92</ele>
        <time>2021-09-15T09:18:44Z</time>
      </trkpt>
      <trkpt lat="48.37856" lon="2.66739">
        <ele>89.77</ele>
        <time>2021-09-15T09:18:52Z</time>
      </trkpt>
      <trkpt lat="48.3785" lon="2.66709">
        <ele>91.1</ele>
        <time>2021-09-15T09:19:15Z</time>
      </trkpt>
      <trkpt lat="48.37841" lon="2.66671">
        <ele>91.43</ele>
        <time>2021-09-15T09:19:42Z</time>
      </trkpt>
      <trkpt lat="48.37838" lon="2.66652">
        <ele>92.52</ele>
        <time>2021-09-15T09:19:58Z</time>
      </trkpt>
      <trkpt lat="48.37837" lon="2.66645">
        <ele>92</ele>
        <time>2021-09-15T09:20:23Z</time>
      </trkpt>
      <trkpt lat="48.37837" lon="2.66645">
        <ele>92.37</ele>
        <time>2021-09-15T09:20:47Z</time>
      </trkpt>
      <trkpt lat="48.37839" lon="2.66646">
        <ele>92.61</ele>
        <time>2021-09-15T09:21:03Z</time>
      </trkpt>
      <trkpt lat="48.37841" lon="2.66649">
        <ele>92.89</ele>
        <time>2021-09-15T09:21:40Z</time>
      </trkpt>
      <trkpt lat="48.3784" lon="2.66651">
        <ele>94.1</ele>
        <time>2021-09-15T09:21:55Z</time>
      </trkpt>
      <trkpt lat="48.3784" lon="2.66651">
        <ele>93.3</ele>
        <time>2021-09-15T09:21:57Z</time>
      </trkpt>
      <trkpt lat="48.37839" lon="2.66651">
        <ele>93.01</ele>
        <time>2021-09-15T09:22:27Z</time>
      </trkpt>
      <trkpt lat="48.37839" lon="2.6665">
        <ele>93.01</ele>
        <time>2021-09-15T09:22:50Z</time>
      </trkpt>
      <trkpt lat="48.37838" lon="2.6665">
        <ele>93.01</ele>
        <time>2021-09-15T09:23:12Z</time>
      </trkpt>
      <trkpt lat="48.37837" lon="2.66651">
        <ele>93.01</ele>
        <time>2021-09-15T09:23:56Z</time>
      </trkpt>
      <trkpt lat="48.37837" lon="2.66652">
        <ele>93.01</ele>
        <time>2021-09-15T09:24:47Z</time>
      </trkpt>
      <trkpt lat="48.37837" lon="2.66651">
        <ele>93.01</ele>
        <time>2021-09-15T09:25:21Z</time>
      </trkpt>
      <trkpt lat="48.37836" lon="2.66645">
        <ele>93.01</ele>
        <time>2021-09-15T09:25:46Z</time>
      </trkpt>
      <trkpt lat="48.3783" lon="2.66638">
        <ele>92.65</ele>
        <time>2021-09-15T09:25:59Z</time>
      </trkpt>
      <trkpt lat="48.37818" lon="2.66626">
        <ele>92.25</ele>
        <time>2021-09-15T09:26:18Z</time>
      </trkpt>
      <trkpt lat="48.37815" lon="2.66625">
        <ele>92.23</ele>
        <time>2021-09-15T09:26:20Z</time>
      </trkpt>
      <trkpt lat="48.37814" lon="2.66624">
        <ele>92.22</ele>
        <time>2021-09-15T09:26:21Z</time>
      </trkpt>
      <trkpt lat="48.37797" lon="2.66615">
        <ele>92.62</ele>
        <time>2021-09-15T09:26:38Z</time>
      </trkpt>
      <trkpt lat="48.37777" lon="2.666">
        <ele>92.84</ele>
        <time>2021-09-15T09:26:56Z</time>
      </trkpt>
      <trkpt lat="48.37769" lon="2.66593">
        <ele>93.05</ele>
        <time>2021-09-15T09:27:04Z</time>
      </trkpt>
      <trkpt lat="48.37768" lon="2.66592">
        <ele>93.07</ele>
        <time>2021-09-15T09:27:05Z</time>
      </trkpt>
      <trkpt lat="48.37767" lon="2.66591">
        <ele>93.12</ele>
        <time>2021-09-15T09:27:06Z</time>
      </trkpt>
      <trkpt lat="48.37748" lon="2.66571">
        <ele>93.49</ele>
        <time>2021-09-15T09:27:24Z</time>
      </trkpt>
      <trkpt lat="48.37734" lon="2.66547">
        <ele>94.38</ele>
        <time>2021-09-15T09:27:41Z</time>
      </trkpt>
      <trkpt lat="48.37719" lon="2.6652">
        <ele>94.09</ele>
        <time>2021-09-15T09:28:00Z</time>
      </trkpt>
      <trkpt lat="48.37705" lon="2.66493">
        <ele>93.12</ele>
        <time>2021-09-15T09:28:17Z</time>
      </trkpt>
      <trkpt lat="48.37697" lon="2.6648">
        <ele>93.49</ele>
        <time>2021-09-15T09:28:25Z</time>
      </trkpt>
      <trkpt lat="48.37682" lon="2.6646">
        <ele>93.6</ele>
        <time>2021-09-15T09:28:41Z</time>
      </trkpt>
      <trkpt lat="48.37671" lon="2.66443">
        <ele>93.75</ele>
        <time>2021-09-15T09:28:54Z</time>
      </trkpt>
      <trkpt lat="48.37655" lon="2.66423">
        <ele>94.06</ele>
        <time>2021-09-15T09:29:12Z</time>
      </trkpt>
      <trkpt lat="48.37639" lon="2.66393">
        <ele>94.4</ele>
        <time>2021-09-15T09:29:32Z</time>
      </trkpt>
      <trkpt lat="48.37633" lon="2.6638">
        <ele>94.54</ele>
        <time>2021-09-15T09:29:52Z</time>
      </trkpt>
      <trkpt lat="48.3763" lon="2.66382">
        <ele>94.43</ele>
        <time>2021-09-15T09:29:59Z</time>
      </trkpt>
      <trkpt lat="48.37629" lon="2.66383">
        <ele>94.43</ele>
        <time>2021-09-15T09:30:00Z</time>
      </trkpt>
      <trkpt lat="48.37615" lon="2.66366">
        <ele>94.63</ele>
        <time>2021-09-15T09:30:24Z</time>
      </trkpt>
      <trkpt lat="48.37614" lon="2.66365">
        <ele>94.59</ele>
        <time>2021-09-15T09:30:25Z</time>
      </trkpt>
      <trkpt lat="48.37613" lon="2.66365">
        <ele>94.59</ele>
        <time>2021-09-15T09:30:26Z</time>
      </trkpt>
      <trkpt lat="48.37612" lon="2.66363">
        <ele>94.65</ele>
        <time>2021-09-15T09:30:27Z</time>
      </trkpt>
      <trkpt lat="48.37611" lon="2.66362">
        <ele>94.83</ele>
        <time>2021-09-15T09:30:28Z</time>
      </trkpt>
      <trkpt lat="48.37611" lon="2.6636">
        <ele>95.05</ele>
        <time>2021-09-15T09:30:29Z</time>
      </trkpt>
      <trkpt lat="48.3761" lon="2.66358">
        <ele>95.18</ele>
        <time>2021-09-15T09:30:30Z</time>
      </trkpt>
      <trkpt lat="48.3761" lon="2.66357">
        <ele>95.24</ele>
        <time>2021-09-15T09:30:31Z</time>
      </trkpt>
      <trkpt lat="48.37612" lon="2.66332">
        <ele>94.91</ele>
        <time>2021-09-15T09:30:46Z</time>
      </trkpt>
      <trkpt lat="48.37613" lon="2.66335">
        <ele>95.08</ele>
        <time>2021-09-15T09:30:50Z</time>
      </trkpt>
      <trkpt lat="48.37612" lon="2.66336">
        <ele>95.18</ele>
        <time>2021-09-15T09:30:51Z</time>
      </trkpt>
      <trkpt lat="48.37612" lon="2.66338">
        <ele>95.21</ele>
        <time>2021-09-15T09:30:52Z</time>
      </trkpt>
      <trkpt lat="48.37614" lon="2.66333">
        <ele>95.17</ele>
        <time>2021-09-15T09:31:02Z</time>
      </trkpt>
      <trkpt lat="48.37614" lon="2.66331">
        <ele>95.17</ele>
        <time>2021-09-15T09:31:03Z</time>
      </trkpt>
      <trkpt lat="48.3762" lon="2.66308">
        <ele>95.89</ele>
        <time>2021-09-15T09:31:20Z</time>
      </trkpt>
      <trkpt lat="48.37626" lon="2.66282">
        <ele>96.96</ele>
        <time>2021-09-15T09:31:39Z</time>
      </trkpt>
      <trkpt lat="48.37638" lon="2.66244">
        <ele>99.09</ele>
        <time>2021-09-15T09:32:05Z</time>
      </trkpt>
      <trkpt lat="48.37642" lon="2.66216">
        <ele>101.08</ele>
        <time>2021-09-15T09:32:22Z</time>
      </trkpt>
      <trkpt lat="48.37643" lon="2.66206">
        <ele>102.1</ele>
        <time>2021-09-15T09:32:28Z</time>
      </trkpt>
      <trkpt lat="48.37645" lon="2.66184">
        <ele>103.54</ele>
        <time>2021-09-15T09:32:45Z</time>
      </trkpt>
      <trkpt lat="48.37645" lon="2.66162">
        <ele>105.71</ele>
        <time>2021-09-15T09:33:00Z</time>
      </trkpt>
      <trkpt lat="48.37645" lon="2.6614">
        <ele>107.57</ele>
        <time>2021-09-15T09:33:15Z</time>
      </trkpt>
      <trkpt lat="48.37643" lon="2.66113">
        <ele>110.26</ele>
        <time>2021-09-15T09:33:34Z</time>
      </trkpt>
      <trkpt lat="48.3764" lon="2.66088">
        <ele>113.14</ele>
        <time>2021-09-15T09:33:53Z</time>
      </trkpt>
      <trkpt lat="48.37641" lon="2.66069">
        <ele>115.56</ele>
        <time>2021-09-15T09:34:09Z</time>
      </trkpt>
      <trkpt lat="48.3764" lon="2.66048">
        <ele>116.57</ele>
        <time>2021-09-15T09:34:26Z</time>
      </trkpt>
      <trkpt lat="48.3764" lon="2.66038">
        <ele>118.97</ele>
        <time>2021-09-15T09:34:42Z</time>
      </trkpt>
      <trkpt lat="48.37642" lon="2.66042">
        <ele>119</ele>
        <time>2021-09-15T09:34:48Z</time>
      </trkpt>
      <trkpt lat="48.37643" lon="2.66043">
        <ele>118.92</ele>
        <time>2021-09-15T09:34:49Z</time>
      </trkpt>
      <trkpt lat="48.37659" lon="2.66063">
        <ele>117.75</ele>
        <time>2021-09-15T09:35:13Z</time>
      </trkpt>
      <trkpt lat="48.3766" lon="2.66064">
        <ele>117.68</ele>
        <time>2021-09-15T09:35:14Z</time>
      </trkpt>
      <trkpt lat="48.37661" lon="2.66065">
        <ele>117.65</ele>
        <time>2021-09-15T09:35:15Z</time>
      </trkpt>
      <trkpt lat="48.37682" lon="2.66088">
        <ele>117.33</ele>
        <time>2021-09-15T09:35:37Z</time>
      </trkpt>
      <trkpt lat="48.37699" lon="2.66111">
        <ele>118.01</ele>
        <time>2021-09-15T09:35:56Z</time>
      </trkpt>
      <trkpt lat="48.37706" lon="2.66119">
        <ele>118.09</ele>
        <time>2021-09-15T09:36:03Z</time>
      </trkpt>
      <trkpt lat="48.37707" lon="2.66119">
        <ele>118.1</ele>
        <time>2021-09-15T09:36:04Z</time>
      </trkpt>
      <trkpt lat="48.37708" lon="2.6612">
        <ele>118.13</ele>
        <time>2021-09-15T09:36:05Z</time>
      </trkpt>
      <trkpt lat="48.37716" lon="2.6613">
        <ele>118.59</ele>
        <time>2021-09-15T09:36:14Z</time>
      </trkpt>
      <trkpt lat="48.37727" lon="2.66147">
        <ele>118.51</ele>
        <time>2021-09-15T09:36:27Z</time>
      </trkpt>
      <trkpt lat="48.37736" lon="2.66163">
        <ele>117.61</ele>
        <time>2021-09-15T09:36:42Z</time>
      </trkpt>
      <trkpt lat="48.37746" lon="2.66173">
        <ele>116.96</ele>
        <time>2021-09-15T09:36:53Z</time>
      </trkpt>
      <trkpt lat="48.37748" lon="2.66175">
        <ele>116.82</ele>
        <time>2021-09-15T09:36:54Z</time>
      </trkpt>
      <trkpt lat="48.37749" lon="2.66176">
        <ele>116.7</ele>
        <time>2021-09-15T09:36:55Z</time>
      </trkpt>
      <trkpt lat="48.37764" lon="2.66176">
        <ele>116.12</ele>
        <time>2021-09-15T09:37:12Z</time>
      </trkpt>
      <trkpt lat="48.37769" lon="2.66168">
        <ele>116.47</ele>
        <time>2021-09-15T09:37:19Z</time>
      </trkpt>
      <trkpt lat="48.3778" lon="2.66152">
        <ele>115.98</ele>
        <time>2021-09-15T09:37:34Z</time>
      </trkpt>
      <trkpt lat="48.37788" lon="2.66131">
        <ele>116.07</ele>
        <time>2021-09-15T09:37:55Z</time>
      </trkpt>
      <trkpt lat="48.37783" lon="2.66144">
        <ele>116.73</ele>
        <time>2021-09-15T09:38:15Z</time>
      </trkpt>
      <trkpt lat="48.37775" lon="2.66162">
        <ele>116.58</ele>
        <time>2021-09-15T09:38:35Z</time>
      </trkpt>
      <trkpt lat="48.37768" lon="2.66187">
        <ele>116.88</ele>
        <time>2021-09-15T09:38:54Z</time>
      </trkpt>
      <trkpt lat="48.37775" lon="2.66207">
        <ele>116.51</ele>
        <time>2021-09-15T09:39:15Z</time>
      </trkpt>
      <trkpt lat="48.37788" lon="2.66227">
        <ele>114.85</ele>
        <time>2021-09-15T09:39:34Z</time>
      </trkpt>
      <trkpt lat="48.37789" lon="2.66229">
        <ele>114.82</ele>
        <time>2021-09-15T09:39:35Z</time>
      </trkpt>
      <trkpt lat="48.3779" lon="2.6623">
        <ele>114.78</ele>
        <time>2021-09-15T09:39:36Z</time>
      </trkpt>
      <trkpt lat="48.37798" lon="2.66234">
        <ele>114.62</ele>
        <time>2021-09-15T09:39:42Z</time>
      </trkpt>
      <trkpt lat="48.37799" lon="2.66235">
        <ele>114.63</ele>
        <time>2021-09-15T09:39:43Z</time>
      </trkpt>
      <trkpt lat="48.378" lon="2.66237">
        <ele>114.65</ele>
        <time>2021-09-15T09:39:44Z</time>
      </trkpt>
      <trkpt lat="48.37801" lon="2.66238">
        <ele>114.67</ele>
        <time>2021-09-15T09:39:45Z</time>
      </trkpt>
      <trkpt lat="48.37801" lon="2.66239">
        <ele>114.68</ele>
        <time>2021-09-15T09:39:46Z</time>
      </trkpt>
      <trkpt lat="48.37819" lon="2.66254">
        <ele>112.56</ele>
        <time>2021-09-15T09:40:05Z</time>
      </trkpt>
      <trkpt lat="48.37826" lon="2.66265">
        <ele>111.06</ele>
        <time>2021-09-15T09:40:13Z</time>
      </trkpt>
      <trkpt lat="48.3783" lon="2.66275">
        <ele>110.78</ele>
        <time>2021-09-15T09:40:20Z</time>
      </trkpt>
      <trkpt lat="48.37835" lon="2.66283">
        <ele>110.06</ele>
        <time>2021-09-15T09:40:27Z</time>
      </trkpt>
      <trkpt lat="48.37837" lon="2.66284">
        <ele>109.92</ele>
        <time>2021-09-15T09:40:28Z</time>
      </trkpt>
      <trkpt lat="48.37837" lon="2.66286">
        <ele>109.78</ele>
        <time>2021-09-15T09:40:29Z</time>
      </trkpt>
      <trkpt lat="48.37844" lon="2.66302">
        <ele>108.67</ele>
        <time>2021-09-15T09:40:40Z</time>
      </trkpt>
      <trkpt lat="48.37853" lon="2.66315">
        <ele>107.58</ele>
        <time>2021-09-15T09:40:54Z</time>
      </trkpt>
      <trkpt lat="48.37876" lon="2.66324">
        <ele>105.08</ele>
        <time>2021-09-15T09:41:19Z</time>
      </trkpt>
      <trkpt lat="48.37885" lon="2.66314">
        <ele>104.42</ele>
        <time>2021-09-15T09:41:42Z</time>
      </trkpt>
      <trkpt lat="48.37887" lon="2.66303">
        <ele>102.59</ele>
        <time>2021-09-15T09:41:48Z</time>
      </trkpt>
      <trkpt lat="48.37888" lon="2.66301">
        <ele>101.76</ele>
        <time>2021-09-15T09:41:49Z</time>
      </trkpt>
      <trkpt lat="48.37888" lon="2.66299">
        <ele>101.36</ele>
        <time>2021-09-15T09:41:50Z</time>
      </trkpt>
      <trkpt lat="48.3789" lon="2.66292">
        <ele>103.85</ele>
        <time>2021-09-15T09:41:54Z</time>
      </trkpt>
      <trkpt lat="48.37889" lon="2.6627">
        <ele>101.1</ele>
        <time>2021-09-15T09:42:13Z</time>
      </trkpt>
      <trkpt lat="48.3789" lon="2.66235">
        <ele>100.05</ele>
        <time>2021-09-15T09:42:34Z</time>
      </trkpt>
      <trkpt lat="48.37894" lon="2.66204">
        <ele>98.78</ele>
        <time>2021-09-15T09:42:50Z</time>
      </trkpt>
      <trkpt lat="48.37894" lon="2.66174">
        <ele>98.51</ele>
        <time>2021-09-15T09:43:06Z</time>
      </trkpt>
      <trkpt lat="48.37892" lon="2.66151">
        <ele>98.29</ele>
        <time>2021-09-15T09:43:21Z</time>
      </trkpt>
      <trkpt lat="48.37896" lon="2.66104">
        <ele>98.08</ele>
        <time>2021-09-15T09:43:47Z</time>
      </trkpt>
      <trkpt lat="48.37898" lon="2.66057">
        <ele>97.81</ele>
        <time>2021-09-15T09:44:12Z</time>
      </trkpt>
      <trkpt lat="48.37901" lon="2.6603">
        <ele>96.77</ele>
        <time>2021-09-15T09:44:28Z</time>
      </trkpt>
      <trkpt lat="48.37899" lon="2.65984">
        <ele>95.39</ele>
        <time>2021-09-15T09:44:51Z</time>
      </trkpt>
      <trkpt lat="48.37898" lon="2.65973">
        <ele>95.07</ele>
        <time>2021-09-15T09:44:58Z</time>
      </trkpt>
      <trkpt lat="48.37898" lon="2.6597">
        <ele>95.02</ele>
        <time>2021-09-15T09:44:59Z</time>
      </trkpt>
      <trkpt lat="48.37898" lon="2.65968">
        <ele>94.95</ele>
        <time>2021-09-15T09:45:00Z</time>
      </trkpt>
      <trkpt lat="48.37899" lon="2.65966">
        <ele>94.9</ele>
        <time>2021-09-15T09:45:01Z</time>
      </trkpt>
      <trkpt lat="48.37899" lon="2.65964">
        <ele>94.83</ele>
        <time>2021-09-15T09:45:02Z</time>
      </trkpt>
      <trkpt lat="48.37899" lon="2.65962">
        <ele>94.8</ele>
        <time>2021-09-15T09:45:03Z</time>
      </trkpt>
      <trkpt lat="48.37899" lon="2.65935">
        <ele>94.37</ele>
        <time>2021-09-15T09:45:16Z</time>
      </trkpt>
      <trkpt lat="48.379" lon="2.65933">
        <ele>94.36</ele>
        <time>2021-09-15T09:45:17Z</time>
      </trkpt>
      <trkpt lat="48.379" lon="2.65932">
        <ele>94.35</ele>
        <time>2021-09-15T09:45:18Z</time>
      </trkpt>
      <trkpt lat="48.37902" lon="2.65906">
        <ele>93.89</ele>
        <time>2021-09-15T09:45:37Z</time>
      </trkpt>
      <trkpt lat="48.37902" lon="2.65902">
        <ele>93.85</ele>
        <time>2021-09-15T09:45:41Z</time>
      </trkpt>
      <trkpt lat="48.37902" lon="2.659">
        <ele>93.81</ele>
        <time>2021-09-15T09:45:42Z</time>
      </trkpt>
      <trkpt lat="48.37902" lon="2.65898">
        <ele>93.73</ele>
        <time>2021-09-15T09:45:43Z</time>
      </trkpt>
      <trkpt lat="48.37902" lon="2.65896">
        <ele>93.67</ele>
        <time>2021-09-15T09:45:44Z</time>
      </trkpt>
      <trkpt lat="48.37902" lon="2.65895">
        <ele>93.62</ele>
        <time>2021-09-15T09:45:45Z</time>
      </trkpt>
      <trkpt lat="48.37903" lon="2.65893">
        <ele>93.57</ele>
        <time>2021-09-15T09:45:46Z</time>
      </trkpt>
      <trkpt lat="48.37903" lon="2.65891">
        <ele>93.53</ele>
        <time>2021-09-15T09:45:47Z</time>
      </trkpt>
      <trkpt lat="48.37903" lon="2.6589">
        <ele>93.5</ele>
        <time>2021-09-15T09:45:48Z</time>
      </trkpt>
      <trkpt lat="48.37904" lon="2.65862">
        <ele>92.85</ele>
        <time>2021-09-15T09:46:05Z</time>
      </trkpt>
      <trkpt lat="48.37905" lon="2.65825">
        <ele>91.89</ele>
        <time>2021-09-15T09:46:26Z</time>
      </trkpt>
      <trkpt lat="48.37905" lon="2.65806">
        <ele>91.56</ele>
        <time>2021-09-15T09:46:36Z</time>
      </trkpt>
      <trkpt lat="48.37905" lon="2.65805">
        <ele>91.53</ele>
        <time>2021-09-15T09:46:37Z</time>
      </trkpt>
      <trkpt lat="48.37905" lon="2.65803">
        <ele>91.49</ele>
        <time>2021-09-15T09:46:38Z</time>
      </trkpt>
      <trkpt lat="48.37906" lon="2.65802">
        <ele>91.45</ele>
        <time>2021-09-15T09:46:39Z</time>
      </trkpt>
      <trkpt lat="48.37907" lon="2.65766">
        <ele>90.63</ele>
        <time>2021-09-15T09:46:59Z</time>
      </trkpt>
      <trkpt lat="48.37906" lon="2.65727">
        <ele>90.8</ele>
        <time>2021-09-15T09:47:19Z</time>
      </trkpt>
      <trkpt lat="48.37905" lon="2.65697">
        <ele>89.69</ele>
        <time>2021-09-15T09:47:37Z</time>
      </trkpt>
      <trkpt lat="48.37907" lon="2.65663">
        <ele>90.14</ele>
        <time>2021-09-15T09:47:58Z</time>
      </trkpt>
      <trkpt lat="48.37906" lon="2.65638">
        <ele>90.35</ele>
        <time>2021-09-15T09:48:14Z</time>
      </trkpt>
      <trkpt lat="48.37907" lon="2.656">
        <ele>90.25</ele>
        <time>2021-09-15T09:48:35Z</time>
      </trkpt>
      <trkpt lat="48.37908" lon="2.65594">
        <ele>90.21</ele>
        <time>2021-09-15T09:48:38Z</time>
      </trkpt>
      <trkpt lat="48.37916" lon="2.65569">
        <ele>90.14</ele>
        <time>2021-09-15T09:48:55Z</time>
      </trkpt>
      <trkpt lat="48.37917" lon="2.65566">
        <ele>90.13</ele>
        <time>2021-09-15T09:48:57Z</time>
      </trkpt>
      <trkpt lat="48.3793" lon="2.65551">
        <ele>89.66</ele>
        <time>2021-09-15T09:49:13Z</time>
      </trkpt>
      <trkpt lat="48.37942" lon="2.6553">
        <ele>89.2</ele>
        <time>2021-09-15T09:49:27Z</time>
      </trkpt>
      <trkpt lat="48.37958" lon="2.65504">
        <ele>88.52</ele>
        <time>2021-09-15T09:49:44Z</time>
      </trkpt>
      <trkpt lat="48.37968" lon="2.65484">
        <ele>88.05</ele>
        <time>2021-09-15T09:49:58Z</time>
      </trkpt>
      <trkpt lat="48.37975" lon="2.65469">
        <ele>87.67</ele>
        <time>2021-09-15T09:50:10Z</time>
      </trkpt>
      <trkpt lat="48.37987" lon="2.65455">
        <ele>86.91</ele>
        <time>2021-09-15T09:50:24Z</time>
      </trkpt>
      <trkpt lat="48.37988" lon="2.65454">
        <ele>86.89</ele>
        <time>2021-09-15T09:50:25Z</time>
      </trkpt>
      <trkpt lat="48.37989" lon="2.65453">
        <ele>86.85</ele>
        <time>2021-09-15T09:50:26Z</time>
      </trkpt>
      <trkpt lat="48.37995" lon="2.65451">
        <ele>86.71</ele>
        <time>2021-09-15T09:50:31Z</time>
      </trkpt>
      <trkpt lat="48.38012" lon="2.65446">
        <ele>86.27</ele>
        <time>2021-09-15T09:50:44Z</time>
      </trkpt>
      <trkpt lat="48.38029" lon="2.65445">
        <ele>85.9</ele>
        <time>2021-09-15T09:50:57Z</time>
      </trkpt>
      <trkpt lat="48.38045" lon="2.65444">
        <ele>86.68</ele>
        <time>2021-09-15T09:51:11Z</time>
      </trkpt>
      <trkpt lat="48.38052" lon="2.65438">
        <ele>86.29</ele>
        <time>2021-09-15T09:51:24Z</time>
      </trkpt>
      <trkpt lat="48.38052" lon="2.65435">
        <ele>85.81</ele>
        <time>2021-09-15T09:51:26Z</time>
      </trkpt>
      <trkpt lat="48.38043" lon="2.65411">
        <ele>86.29</ele>
        <time>2021-09-15T09:51:46Z</time>
      </trkpt>
      <trkpt lat="48.38043" lon="2.65405">
        <ele>86.1</ele>
        <time>2021-09-15T09:51:51Z</time>
      </trkpt>
      <trkpt lat="48.38041" lon="2.654">
        <ele>85.93</ele>
        <time>2021-09-15T09:51:55Z</time>
      </trkpt>
      <trkpt lat="48.38038" lon="2.6538">
        <ele>85.73</ele>
        <time>2021-09-15T09:52:12Z</time>
      </trkpt>
      <trkpt lat="48.38032" lon="2.65342">
        <ele>85.68</ele>
        <time>2021-09-15T09:52:34Z</time>
      </trkpt>
      <trkpt lat="48.38032" lon="2.6534">
        <ele>85.68</ele>
        <time>2021-09-15T09:52:35Z</time>
      </trkpt>
      <trkpt lat="48.3803" lon="2.65325">
        <ele>85.59</ele>
        <time>2021-09-15T09:52:52Z</time>
      </trkpt>
      <trkpt lat="48.3803" lon="2.6531">
        <ele>85.5</ele>
        <time>2021-09-15T09:53:18Z</time>
      </trkpt>
      <trkpt lat="48.3803" lon="2.65309">
        <ele>85.5</ele>
        <time>2021-09-15T09:53:19Z</time>
      </trkpt>
      <trkpt lat="48.38031" lon="2.65301">
        <ele>86.23</ele>
        <time>2021-09-15T09:53:37Z</time>
      </trkpt>
      <trkpt lat="48.38027" lon="2.6528">
        <ele>85.31</ele>
        <time>2021-09-15T09:53:52Z</time>
      </trkpt>
      <trkpt lat="48.38026" lon="2.65278">
        <ele>85.3</ele>
        <time>2021-09-15T09:53:53Z</time>
      </trkpt>
      <trkpt lat="48.38026" lon="2.65276">
        <ele>85.29</ele>
        <time>2021-09-15T09:53:54Z</time>
      </trkpt>
      <trkpt lat="48.38026" lon="2.65274">
        <ele>85.28</ele>
        <time>2021-09-15T09:53:55Z</time>
      </trkpt>
      <trkpt lat="48.38026" lon="2.65272">
        <ele>85.28</ele>
        <time>2021-09-15T09:53:56Z</time>
      </trkpt>
      <trkpt lat="48.38027" lon="2.65251">
        <ele>82.83</ele>
        <time>2021-09-15T09:54:07Z</time>
      </trkpt>
      <trkpt lat="48.38027" lon="2.6524">
        <ele>84.62</ele>
        <time>2021-09-15T09:54:13Z</time>
      </trkpt>
      <trkpt lat="48.3803" lon="2.65208">
        <ele>83.8</ele>
        <time>2021-09-15T09:54:30Z</time>
      </trkpt>
      <trkpt lat="48.38029" lon="2.65173">
        <ele>84.05</ele>
        <time>2021-09-15T09:54:47Z</time>
      </trkpt>
      <trkpt lat="48.38031" lon="2.65144">
        <ele>84.6</ele>
        <time>2021-09-15T09:55:02Z</time>
      </trkpt>
      <trkpt lat="48.38029" lon="2.65115">
        <ele>85.45</ele>
        <time>2021-09-15T09:55:21Z</time>
      </trkpt>
      <trkpt lat="48.38025" lon="2.65087">
        <ele>85.59</ele>
        <time>2021-09-15T09:55:43Z</time>
      </trkpt>
      <trkpt lat="48.38021" lon="2.65074">
        <ele>85.71</ele>
        <time>2021-09-15T09:56:04Z</time>
      </trkpt>
      <trkpt lat="48.38013" lon="2.6504">
        <ele>85.71</ele>
        <time>2021-09-15T09:56:29Z</time>
      </trkpt>
      <trkpt lat="48.38008" lon="2.65014">
        <ele>85.64</ele>
        <time>2021-09-15T09:56:49Z</time>
      </trkpt>
      <trkpt lat="48.37993" lon="2.64973">
        <ele>85.72</ele>
        <time>2021-09-15T09:57:16Z</time>
      </trkpt>
      <trkpt lat="48.37986" lon="2.64944">
        <ele>85.63</ele>
        <time>2021-09-15T09:57:32Z</time>
      </trkpt>
      <trkpt lat="48.37986" lon="2.6494">
        <ele>85.71</ele>
        <time>2021-09-15T09:57:34Z</time>
      </trkpt>
      <trkpt lat="48.37986" lon="2.64938">
        <ele>85.73</ele>
        <time>2021-09-15T09:57:35Z</time>
      </trkpt>
      <trkpt lat="48.37986" lon="2.64936">
        <ele>85.71</ele>
        <time>2021-09-15T09:57:36Z</time>
      </trkpt>
      <trkpt lat="48.37985" lon="2.64935">
        <ele>85.59</ele>
        <time>2021-09-15T09:57:37Z</time>
      </trkpt>
      <trkpt lat="48.37985" lon="2.64933">
        <ele>85.55</ele>
        <time>2021-09-15T09:57:38Z</time>
      </trkpt>
      <trkpt lat="48.37985" lon="2.64932">
        <ele>85.53</ele>
        <time>2021-09-15T09:57:39Z</time>
      </trkpt>
      <trkpt lat="48.37984" lon="2.6493">
        <ele>85.62</ele>
        <time>2021-09-15T09:57:40Z</time>
      </trkpt>
      <trkpt lat="48.37984" lon="2.64928">
        <ele>85.9</ele>
        <time>2021-09-15T09:57:41Z</time>
      </trkpt>
      <trkpt lat="48.37983" lon="2.64926">
        <ele>86.49</ele>
        <time>2021-09-15T09:57:42Z</time>
      </trkpt>
      <trkpt lat="48.37982" lon="2.64924">
        <ele>87.04</ele>
        <time>2021-09-15T09:57:44Z</time>
      </trkpt>
      <trkpt lat="48.37982" lon="2.64922">
        <ele>87.14</ele>
        <time>2021-09-15T09:57:45Z</time>
      </trkpt>
      <trkpt lat="48.37978" lon="2.64905">
        <ele>86.22</ele>
        <time>2021-09-15T09:57:57Z</time>
      </trkpt>
      <trkpt lat="48.37981" lon="2.64876">
        <ele>86.11</ele>
        <time>2021-09-15T09:58:13Z</time>
      </trkpt>
      <trkpt lat="48.37981" lon="2.64869">
        <ele>86.25</ele>
        <time>2021-09-15T09:58:18Z</time>
      </trkpt>
      <trkpt lat="48.3798" lon="2.64867">
        <ele>86.22</ele>
        <time>2021-09-15T09:58:19Z</time>
      </trkpt>
      <trkpt lat="48.3798" lon="2.64864">
        <ele>86.17</ele>
        <time>2021-09-15T09:58:21Z</time>
      </trkpt>
      <trkpt lat="48.3798" lon="2.64863">
        <ele>86.16</ele>
        <time>2021-09-15T09:58:22Z</time>
      </trkpt>
      <trkpt lat="48.37982" lon="2.6483">
        <ele>86.29</ele>
        <time>2021-09-15T09:58:41Z</time>
      </trkpt>
      <trkpt lat="48.37981" lon="2.64814">
        <ele>86.42</ele>
        <time>2021-09-15T09:58:57Z</time>
      </trkpt>
      <trkpt lat="48.3798" lon="2.64784">
        <ele>86.56</ele>
        <time>2021-09-15T09:59:12Z</time>
      </trkpt>
      <trkpt lat="48.37983" lon="2.64757">
        <ele>86.87</ele>
        <time>2021-09-15T09:59:28Z</time>
      </trkpt>
      <trkpt lat="48.37988" lon="2.6473">
        <ele>86.71</ele>
        <time>2021-09-15T09:59:46Z</time>
      </trkpt>
      <trkpt lat="48.37999" lon="2.64713">
        <ele>87.15</ele>
        <time>2021-09-15T09:59:59Z</time>
      </trkpt>
      <trkpt lat="48.38022" lon="2.64683">
        <ele>87.72</ele>
        <time>2021-09-15T10:00:28Z</time>
      </trkpt>
      <trkpt lat="48.38044" lon="2.64652">
        <ele>88.54</ele>
        <time>2021-09-15T10:00:59Z</time>
      </trkpt>
      <trkpt lat="48.38061" lon="2.64606">
        <ele>89.63</ele>
        <time>2021-09-15T10:01:30Z</time>
      </trkpt>
      <trkpt lat="48.38067" lon="2.64575">
        <ele>88.98</ele>
        <time>2021-09-15T10:01:45Z</time>
      </trkpt>
      <trkpt lat="48.38076" lon="2.64546">
        <ele>90.8</ele>
        <time>2021-09-15T10:02:00Z</time>
      </trkpt>
      <trkpt lat="48.38082" lon="2.6452">
        <ele>91.34</ele>
        <time>2021-09-15T10:02:17Z</time>
      </trkpt>
      <trkpt lat="48.38094" lon="2.64477">
        <ele>93.16</ele>
        <time>2021-09-15T10:02:44Z</time>
      </trkpt>
      <trkpt lat="48.38098" lon="2.64452">
        <ele>94.22</ele>
        <time>2021-09-15T10:03:01Z</time>
      </trkpt>
      <trkpt lat="48.38111" lon="2.64414">
        <ele>95.55</ele>
        <time>2021-09-15T10:03:25Z</time>
      </trkpt>
      <trkpt lat="48.38119" lon="2.64371">
        <ele>97.27</ele>
        <time>2021-09-15T10:03:48Z</time>
      </trkpt>
      <trkpt lat="48.38122" lon="2.64327">
        <ele>98.27</ele>
        <time>2021-09-15T10:04:14Z</time>
      </trkpt>
      <trkpt lat="48.38127" lon="2.64279">
        <ele>99.37</ele>
        <time>2021-09-15T10:04:42Z</time>
      </trkpt>
      <trkpt lat="48.38129" lon="2.64236">
        <ele>100.05</ele>
        <time>2021-09-15T10:05:06Z</time>
      </trkpt>
      <trkpt lat="48.3813" lon="2.64234">
        <ele>100.06</ele>
        <time>2021-09-15T10:05:07Z</time>
      </trkpt>
      <trkpt lat="48.3813" lon="2.64232">
        <ele>100.09</ele>
        <time>2021-09-15T10:05:08Z</time>
      </trkpt>
      <trkpt lat="48.3813" lon="2.64229">
        <ele>100.12</ele>
        <time>2021-09-15T10:05:09Z</time>
      </trkpt>
      <trkpt lat="48.3813" lon="2.64227">
        <ele>100.15</ele>
        <time>2021-09-15T10:05:10Z</time>
      </trkpt>
      <trkpt lat="48.38132" lon="2.6421">
        <ele>100.74</ele>
        <time>2021-09-15T10:05:21Z</time>
      </trkpt>
      <trkpt lat="48.38135" lon="2.64187">
        <ele>101</ele>
        <time>2021-09-15T10:05:33Z</time>
      </trkpt>
      <trkpt lat="48.38138" lon="2.64154">
        <ele>99.81</ele>
        <time>2021-09-15T10:05:50Z</time>
      </trkpt>
      <trkpt lat="48.3814" lon="2.64146">
        <ele>100.25</ele>
        <time>2021-09-15T10:05:55Z</time>
      </trkpt>
      <trkpt lat="48.38143" lon="2.6412">
        <ele>100.81</ele>
        <time>2021-09-15T10:06:11Z</time>
      </trkpt>
      <trkpt lat="48.38145" lon="2.64094">
        <ele>101.6</ele>
        <time>2021-09-15T10:06:26Z</time>
      </trkpt>
      <trkpt lat="48.38148" lon="2.64084">
        <ele>101.67</ele>
        <time>2021-09-15T10:06:39Z</time>
      </trkpt>
      <trkpt lat="48.38155" lon="2.64065">
        <ele>103.14</ele>
        <time>2021-09-15T10:07:08Z</time>
      </trkpt>
      <trkpt lat="48.38174" lon="2.64056">
        <ele>106.22</ele>
        <time>2021-09-15T10:07:30Z</time>
      </trkpt>
      <trkpt lat="48.38185" lon="2.64064">
        <ele>109.36</ele>
        <time>2021-09-15T10:07:48Z</time>
      </trkpt>
      <trkpt lat="48.3819" lon="2.64084">
        <ele>112.16</ele>
        <time>2021-09-15T10:08:11Z</time>
      </trkpt>
      <trkpt lat="48.38198" lon="2.64113">
        <ele>115.26</ele>
        <time>2021-09-15T10:08:36Z</time>
      </trkpt>
      <trkpt lat="48.38205" lon="2.64108">
        <ele>117.38</ele>
        <time>2021-09-15T10:08:55Z</time>
      </trkpt>
      <trkpt lat="48.38206" lon="2.64103">
        <ele>119.08</ele>
        <time>2021-09-15T10:09:00Z</time>
      </trkpt>
      <trkpt lat="48.38215" lon="2.64084">
        <ele>121.38</ele>
        <time>2021-09-15T10:09:22Z</time>
      </trkpt>
      <trkpt lat="48.38217" lon="2.64079">
        <ele>121.67</ele>
        <time>2021-09-15T10:09:26Z</time>
      </trkpt>
      <trkpt lat="48.38215" lon="2.64062">
        <ele>122.03</ele>
        <time>2021-09-15T10:09:42Z</time>
      </trkpt>
      <trkpt lat="48.38215" lon="2.64044">
        <ele>122.12</ele>
        <time>2021-09-15T10:10:00Z</time>
      </trkpt>
      <trkpt lat="48.38218" lon="2.64046">
        <ele>121.66</ele>
        <time>2021-09-15T10:10:18Z</time>
      </trkpt>
      <trkpt lat="48.38213" lon="2.64058">
        <ele>121.37</ele>
        <time>2021-09-15T10:10:33Z</time>
      </trkpt>
      <trkpt lat="48.38215" lon="2.64081">
        <ele>120.62</ele>
        <time>2021-09-15T10:10:50Z</time>
      </trkpt>
      <trkpt lat="48.38211" lon="2.64082">
        <ele>120.64</ele>
        <time>2021-09-15T10:11:06Z</time>
      </trkpt>
      <trkpt lat="48.38206" lon="2.64096">
        <ele>120.03</ele>
        <time>2021-09-15T10:11:19Z</time>
      </trkpt>
      <trkpt lat="48.38201" lon="2.6412">
        <ele>118.06</ele>
        <time>2021-09-15T10:11:35Z</time>
      </trkpt>
      <trkpt lat="48.38203" lon="2.64142">
        <ele>118.25</ele>
        <time>2021-09-15T10:11:52Z</time>
      </trkpt>
      <trkpt lat="48.38198" lon="2.64165">
        <ele>120.08</ele>
        <time>2021-09-15T10:12:14Z</time>
      </trkpt>
      <trkpt lat="48.38194" lon="2.64187">
        <ele>120.08</ele>
        <time>2021-09-15T10:12:43Z</time>
      </trkpt>
      <trkpt lat="48.382" lon="2.64185">
        <ele>120.08</ele>
        <time>2021-09-15T10:13:06Z</time>
      </trkpt>
      <trkpt lat="48.38212" lon="2.64179">
        <ele>120.08</ele>
        <time>2021-09-15T10:13:28Z</time>
      </trkpt>
      <trkpt lat="48.38225" lon="2.64183">
        <ele>120.08</ele>
        <time>2021-09-15T10:13:50Z</time>
      </trkpt>
      <trkpt lat="48.38228" lon="2.64183">
        <ele>120.08</ele>
        <time>2021-09-15T10:14:09Z</time>
      </trkpt>
      <trkpt lat="48.38232" lon="2.64178">
        <ele>123.13</ele>
        <time>2021-09-15T10:14:15Z</time>
      </trkpt>
      <trkpt lat="48.38242" lon="2.64162">
        <ele>124.58</ele>
        <time>2021-09-15T10:14:30Z</time>
      </trkpt>
      <trkpt lat="48.38257" lon="2.64141">
        <ele>124.32</ele>
        <time>2021-09-15T10:14:53Z</time>
      </trkpt>
      <trkpt lat="48.38276" lon="2.64137">
        <ele>123.57</ele>
        <time>2021-09-15T10:15:12Z</time>
      </trkpt>
      <trkpt lat="48.38278" lon="2.6413">
        <ele>123.38</ele>
        <time>2021-09-15T10:15:28Z</time>
      </trkpt>
      <trkpt lat="48.38277" lon="2.64122">
        <ele>123.73</ele>
        <time>2021-09-15T10:15:44Z</time>
      </trkpt>
      <trkpt lat="48.38274" lon="2.641">
        <ele>122.26</ele>
        <time>2021-09-15T10:16:01Z</time>
      </trkpt>
      <trkpt lat="48.38275" lon="2.64079">
        <ele>125.02</ele>
        <time>2021-09-15T10:16:14Z</time>
      </trkpt>
      <trkpt lat="48.38285" lon="2.64057">
        <ele>125.43</ele>
        <time>2021-09-15T10:16:31Z</time>
      </trkpt>
      <trkpt lat="48.38302" lon="2.64029">
        <ele>123.33</ele>
        <time>2021-09-15T10:16:57Z</time>
      </trkpt>
      <trkpt lat="48.38313" lon="2.63988">
        <ele>123.18</ele>
        <time>2021-09-15T10:17:22Z</time>
      </trkpt>
      <trkpt lat="48.38315" lon="2.63966">
        <ele>123.98</ele>
        <time>2021-09-15T10:17:37Z</time>
      </trkpt>
      <trkpt lat="48.38313" lon="2.63954">
        <ele>124.35</ele>
        <time>2021-09-15T10:17:46Z</time>
      </trkpt>
      <trkpt lat="48.38315" lon="2.63924">
        <ele>124.07</ele>
        <time>2021-09-15T10:18:03Z</time>
      </trkpt>
      <trkpt lat="48.38314" lon="2.6392">
        <ele>124.14</ele>
        <time>2021-09-15T10:18:05Z</time>
      </trkpt>
      <trkpt lat="48.38313" lon="2.63904">
        <ele>124.52</ele>
        <time>2021-09-15T10:18:14Z</time>
      </trkpt>
      <trkpt lat="48.38311" lon="2.63883">
        <ele>125.29</ele>
        <time>2021-09-15T10:18:29Z</time>
      </trkpt>
      <trkpt lat="48.38313" lon="2.6387">
        <ele>122.46</ele>
        <time>2021-09-15T10:18:42Z</time>
      </trkpt>
      <trkpt lat="48.38313" lon="2.63856">
        <ele>122.32</ele>
        <time>2021-09-15T10:19:00Z</time>
      </trkpt>
      <trkpt lat="48.38317" lon="2.63856">
        <ele>122.32</ele>
        <time>2021-09-15T10:19:20Z</time>
      </trkpt>
      <trkpt lat="48.3833" lon="2.63844">
        <ele>122.32</ele>
        <time>2021-09-15T10:19:44Z</time>
      </trkpt>
      <trkpt lat="48.3834" lon="2.63863">
        <ele>122.32</ele>
        <time>2021-09-15T10:20:04Z</time>
      </trkpt>
      <trkpt lat="48.38346" lon="2.63868">
        <ele>122.32</ele>
        <time>2021-09-15T10:20:08Z</time>
      </trkpt>
      <trkpt lat="48.38349" lon="2.63872">
        <ele>122.32</ele>
        <time>2021-09-15T10:20:35Z</time>
      </trkpt>
      <trkpt lat="48.38359" lon="2.63874">
        <ele>121.98</ele>
        <time>2021-09-15T10:20:47Z</time>
      </trkpt>
      <trkpt lat="48.38366" lon="2.6388">
        <ele>120.86</ele>
        <time>2021-09-15T10:20:53Z</time>
      </trkpt>
      <trkpt lat="48.38374" lon="2.63899">
        <ele>117.1</ele>
        <time>2021-09-15T10:21:07Z</time>
      </trkpt>
      <trkpt lat="48.38385" lon="2.63914">
        <ele>114.62</ele>
        <time>2021-09-15T10:21:22Z</time>
      </trkpt>
      <trkpt lat="48.38397" lon="2.63939">
        <ele>111.43</ele>
        <time>2021-09-15T10:21:40Z</time>
      </trkpt>
      <trkpt lat="48.3841" lon="2.63952">
        <ele>109.32</ele>
        <time>2021-09-15T10:21:58Z</time>
      </trkpt>
      <trkpt lat="48.3842" lon="2.63965">
        <ele>106.14</ele>
        <time>2021-09-15T10:22:15Z</time>
      </trkpt>
      <trkpt lat="48.38439" lon="2.63988">
        <ele>103.86</ele>
        <time>2021-09-15T10:22:33Z</time>
      </trkpt>
      <trkpt lat="48.38446" lon="2.63995">
        <ele>102.96</ele>
        <time>2021-09-15T10:22:39Z</time>
      </trkpt>
      <trkpt lat="48.38464" lon="2.64016">
        <ele>101.14</ele>
        <time>2021-09-15T10:22:56Z</time>
      </trkpt>
      <trkpt lat="48.38476" lon="2.64028">
        <ele>99.78</ele>
        <time>2021-09-15T10:23:11Z</time>
      </trkpt>
      <trkpt lat="48.38484" lon="2.6404">
        <ele>98.64</ele>
        <time>2021-09-15T10:23:21Z</time>
      </trkpt>
      <trkpt lat="48.38494" lon="2.64052">
        <ele>98.29</ele>
        <time>2021-09-15T10:23:32Z</time>
      </trkpt>
      <trkpt lat="48.38502" lon="2.64063">
        <ele>97.67</ele>
        <time>2021-09-15T10:23:44Z</time>
      </trkpt>
      <trkpt lat="48.38514" lon="2.64083">
        <ele>97.84</ele>
        <time>2021-09-15T10:24:04Z</time>
      </trkpt>
      <trkpt lat="48.38524" lon="2.64097">
        <ele>97.32</ele>
        <time>2021-09-15T10:24:18Z</time>
      </trkpt>
      <trkpt lat="48.38537" lon="2.64115">
        <ele>97.95</ele>
        <time>2021-09-15T10:24:33Z</time>
      </trkpt>
      <trkpt lat="48.38545" lon="2.64127">
        <ele>98.34</ele>
        <time>2021-09-15T10:24:49Z</time>
      </trkpt>
      <trkpt lat="48.38558" lon="2.64142">
        <ele>98.68</ele>
        <time>2021-09-15T10:25:03Z</time>
      </trkpt>
      <trkpt lat="48.38569" lon="2.64161">
        <ele>98.8</ele>
        <time>2021-09-15T10:25:23Z</time>
      </trkpt>
      <trkpt lat="48.38582" lon="2.64178">
        <ele>98.94</ele>
        <time>2021-09-15T10:25:40Z</time>
      </trkpt>
      <trkpt lat="48.38597" lon="2.6418">
        <ele>100.23</ele>
        <time>2021-09-15T10:25:48Z</time>
      </trkpt>
      <trkpt lat="48.386" lon="2.64177">
        <ele>100.49</ele>
        <time>2021-09-15T10:25:51Z</time>
      </trkpt>
      <trkpt lat="48.38608" lon="2.64159">
        <ele>101.62</ele>
        <time>2021-09-15T10:26:06Z</time>
      </trkpt>
      <trkpt lat="48.3861" lon="2.64156">
        <ele>102.04</ele>
        <time>2021-09-15T10:26:09Z</time>
      </trkpt>
      <trkpt lat="48.38619" lon="2.64133">
        <ele>101.58</ele>
        <time>2021-09-15T10:26:25Z</time>
      </trkpt>
      <trkpt lat="48.38627" lon="2.64107">
        <ele>101.7</ele>
        <time>2021-09-15T10:26:43Z</time>
      </trkpt>
      <trkpt lat="48.38633" lon="2.64081">
        <ele>101.87</ele>
        <time>2021-09-15T10:26:58Z</time>
      </trkpt>
      <trkpt lat="48.38642" lon="2.64058">
        <ele>102.56</ele>
        <time>2021-09-15T10:27:12Z</time>
      </trkpt>
      <trkpt lat="48.38642" lon="2.64056">
        <ele>102.8</ele>
        <time>2021-09-15T10:27:13Z</time>
      </trkpt>
      <trkpt lat="48.38651" lon="2.64031">
        <ele>103.42</ele>
        <time>2021-09-15T10:27:33Z</time>
      </trkpt>
      <trkpt lat="48.38662" lon="2.64009">
        <ele>103.85</ele>
        <time>2021-09-15T10:27:55Z</time>
      </trkpt>
      <trkpt lat="48.38669" lon="2.63977">
        <ele>104.44</ele>
        <time>2021-09-15T10:28:12Z</time>
      </trkpt>
      <trkpt lat="48.38678" lon="2.63948">
        <ele>104.42</ele>
        <time>2021-09-15T10:28:30Z</time>
      </trkpt>
      <trkpt lat="48.38679" lon="2.63942">
        <ele>104.43</ele>
        <time>2021-09-15T10:28:33Z</time>
      </trkpt>
      <trkpt lat="48.38684" lon="2.63926">
        <ele>104.4</ele>
        <time>2021-09-15T10:28:43Z</time>
      </trkpt>
      <trkpt lat="48.38685" lon="2.63923">
        <ele>104.41</ele>
        <time>2021-09-15T10:28:44Z</time>
      </trkpt>
      <trkpt lat="48.38685" lon="2.63921">
        <ele>104.44</ele>
        <time>2021-09-15T10:28:45Z</time>
      </trkpt>
      <trkpt lat="48.3869" lon="2.63899">
        <ele>105.02</ele>
        <time>2021-09-15T10:28:59Z</time>
      </trkpt>
      <trkpt lat="48.38692" lon="2.63892">
        <ele>105.13</ele>
        <time>2021-09-15T10:29:03Z</time>
      </trkpt>
      <trkpt lat="48.38696" lon="2.63876">
        <ele>106.06</ele>
        <time>2021-09-15T10:29:17Z</time>
      </trkpt>
      <trkpt lat="48.38704" lon="2.63873">
        <ele>106.67</ele>
        <time>2021-09-15T10:29:35Z</time>
      </trkpt>
      <trkpt lat="48.3871" lon="2.63885">
        <ele>108.32</ele>
        <time>2021-09-15T10:29:48Z</time>
      </trkpt>
      <trkpt lat="48.3871" lon="2.63887">
        <ele>108.58</ele>
        <time>2021-09-15T10:29:49Z</time>
      </trkpt>
      <trkpt lat="48.38722" lon="2.63901">
        <ele>111.2</ele>
        <time>2021-09-15T10:30:06Z</time>
      </trkpt>
      <trkpt lat="48.38734" lon="2.63912">
        <ele>113.99</ele>
        <time>2021-09-15T10:30:23Z</time>
      </trkpt>
      <trkpt lat="48.38735" lon="2.63913">
        <ele>114.16</ele>
        <time>2021-09-15T10:30:24Z</time>
      </trkpt>
      <trkpt lat="48.38742" lon="2.63919">
        <ele>115.74</ele>
        <time>2021-09-15T10:30:33Z</time>
      </trkpt>
      <trkpt lat="48.38743" lon="2.6392">
        <ele>116.01</ele>
        <time>2021-09-15T10:30:35Z</time>
      </trkpt>
      <trkpt lat="48.38753" lon="2.63933">
        <ele>116.22</ele>
        <time>2021-09-15T10:30:51Z</time>
      </trkpt>
      <trkpt lat="48.3876" lon="2.63942">
        <ele>118.23</ele>
        <time>2021-09-15T10:31:01Z</time>
      </trkpt>
      <trkpt lat="48.38761" lon="2.63943">
        <ele>118.28</ele>
        <time>2021-09-15T10:31:02Z</time>
      </trkpt>
      <trkpt lat="48.38763" lon="2.63943">
        <ele>118.31</ele>
        <time>2021-09-15T10:31:03Z</time>
      </trkpt>
      <trkpt lat="48.38763" lon="2.63945">
        <ele>118.32</ele>
        <time>2021-09-15T10:31:04Z</time>
      </trkpt>
      <trkpt lat="48.38767" lon="2.63951">
        <ele>118.35</ele>
        <time>2021-09-15T10:31:10Z</time>
      </trkpt>
      <trkpt lat="48.3878" lon="2.63968">
        <ele>120.02</ele>
        <time>2021-09-15T10:31:26Z</time>
      </trkpt>
      <trkpt lat="48.38792" lon="2.63984">
        <ele>120.76</ele>
        <time>2021-09-15T10:31:41Z</time>
      </trkpt>
      <trkpt lat="48.38807" lon="2.64003">
        <ele>121.37</ele>
        <time>2021-09-15T10:31:59Z</time>
      </trkpt>
      <trkpt lat="48.38826" lon="2.64029">
        <ele>121.28</ele>
        <time>2021-09-15T10:32:21Z</time>
      </trkpt>
      <trkpt lat="48.38832" lon="2.64037">
        <ele>121.19</ele>
        <time>2021-09-15T10:32:28Z</time>
      </trkpt>
      <trkpt lat="48.38833" lon="2.64038">
        <ele>121.15</ele>
        <time>2021-09-15T10:32:29Z</time>
      </trkpt>
      <trkpt lat="48.38834" lon="2.64039">
        <ele>121.13</ele>
        <time>2021-09-15T10:32:30Z</time>
      </trkpt>
      <trkpt lat="48.38844" lon="2.64055">
        <ele>121.21</ele>
        <time>2021-09-15T10:32:43Z</time>
      </trkpt>
      <trkpt lat="48.38855" lon="2.64074">
        <ele>121.06</ele>
        <time>2021-09-15T10:33:00Z</time>
      </trkpt>
      <trkpt lat="48.38865" lon="2.64086">
        <ele>121.48</ele>
        <time>2021-09-15T10:33:14Z</time>
      </trkpt>
      <trkpt lat="48.38872" lon="2.64095">
        <ele>120.86</ele>
        <time>2021-09-15T10:33:28Z</time>
      </trkpt>
      <trkpt lat="48.38878" lon="2.64104">
        <ele>120.93</ele>
        <time>2021-09-15T10:33:40Z</time>
      </trkpt>
      <trkpt lat="48.38879" lon="2.64105">
        <ele>120.94</ele>
        <time>2021-09-15T10:33:41Z</time>
      </trkpt>
      <trkpt lat="48.38883" lon="2.64113">
        <ele>121.08</ele>
        <time>2021-09-15T10:33:48Z</time>
      </trkpt>
      <trkpt lat="48.38884" lon="2.64114">
        <ele>121.1</ele>
        <time>2021-09-15T10:33:49Z</time>
      </trkpt>
      <trkpt lat="48.38885" lon="2.64117">
        <ele>121.19</ele>
        <time>2021-09-15T10:33:52Z</time>
      </trkpt>
      <trkpt lat="48.38886" lon="2.64121">
        <ele>121.24</ele>
        <time>2021-09-15T10:33:54Z</time>
      </trkpt>
      <trkpt lat="48.38888" lon="2.64123">
        <ele>121.27</ele>
        <time>2021-09-15T10:33:56Z</time>
      </trkpt>
      <trkpt lat="48.38898" lon="2.64135">
        <ele>120.45</ele>
        <time>2021-09-15T10:34:10Z</time>
      </trkpt>
      <trkpt lat="48.38911" lon="2.64155">
        <ele>118.01</ele>
        <time>2021-09-15T10:34:25Z</time>
      </trkpt>
      <trkpt lat="48.38913" lon="2.64157">
        <ele>117.66</ele>
        <time>2021-09-15T10:34:26Z</time>
      </trkpt>
      <trkpt lat="48.38914" lon="2.64158">
        <ele>117.35</ele>
        <time>2021-09-15T10:34:27Z</time>
      </trkpt>
      <trkpt lat="48.38915" lon="2.6416">
        <ele>117</ele>
        <time>2021-09-15T10:34:28Z</time>
      </trkpt>
      <trkpt lat="48.38916" lon="2.64162">
        <ele>116.57</ele>
        <time>2021-09-15T10:34:29Z</time>
      </trkpt>
      <trkpt lat="48.38918" lon="2.64164">
        <ele>116.13</ele>
        <time>2021-09-15T10:34:30Z</time>
      </trkpt>
      <trkpt lat="48.38919" lon="2.64165">
        <ele>115.73</ele>
        <time>2021-09-15T10:34:31Z</time>
      </trkpt>
      <trkpt lat="48.38921" lon="2.64167">
        <ele>115.29</ele>
        <time>2021-09-15T10:34:32Z</time>
      </trkpt>
      <trkpt lat="48.38929" lon="2.64175">
        <ele>111.96</ele>
        <time>2021-09-15T10:34:38Z</time>
      </trkpt>
      <trkpt lat="48.38939" lon="2.64184">
        <ele>108.92</ele>
        <time>2021-09-15T10:34:45Z</time>
      </trkpt>
      <trkpt lat="48.38944" lon="2.64189">
        <ele>106.96</ele>
        <time>2021-09-15T10:34:50Z</time>
      </trkpt>
      <trkpt lat="48.38945" lon="2.64191">
        <ele>106.66</ele>
        <time>2021-09-15T10:34:51Z</time>
      </trkpt>
      <trkpt lat="48.38947" lon="2.64192">
        <ele>106.33</ele>
        <time>2021-09-15T10:34:52Z</time>
      </trkpt>
      <trkpt lat="48.38954" lon="2.64199">
        <ele>103.22</ele>
        <time>2021-09-15T10:34:59Z</time>
      </trkpt>
      <trkpt lat="48.38955" lon="2.64198">
        <ele>103.14</ele>
        <time>2021-09-15T10:35:00Z</time>
      </trkpt>
      <trkpt lat="48.38957" lon="2.64198">
        <ele>103.09</ele>
        <time>2021-09-15T10:35:01Z</time>
      </trkpt>
      <trkpt lat="48.38969" lon="2.64196">
        <ele>101.48</ele>
        <time>2021-09-15T10:35:13Z</time>
      </trkpt>
      <trkpt lat="48.38974" lon="2.64192">
        <ele>100.94</ele>
        <time>2021-09-15T10:35:27Z</time>
      </trkpt>
      <trkpt lat="48.38972" lon="2.64186">
        <ele>99.95</ele>
        <time>2021-09-15T10:35:44Z</time>
      </trkpt>
      <trkpt lat="48.38973" lon="2.64187">
        <ele>99.94</ele>
        <time>2021-09-15T10:36:03Z</time>
      </trkpt>
      <trkpt lat="48.38978" lon="2.64189">
        <ele>100.1</ele>
        <time>2021-09-15T10:36:29Z</time>
      </trkpt>
      <trkpt lat="48.38979" lon="2.64182">
        <ele>100.06</ele>
        <time>2021-09-15T10:36:43Z</time>
      </trkpt>
      <trkpt lat="48.38979" lon="2.6418">
        <ele>100.05</ele>
        <time>2021-09-15T10:36:44Z</time>
      </trkpt>
      <trkpt lat="48.38979" lon="2.64178">
        <ele>100.05</ele>
        <time>2021-09-15T10:36:45Z</time>
      </trkpt>
      <trkpt lat="48.38979" lon="2.64176">
        <ele>100.05</ele>
        <time>2021-09-15T10:36:46Z</time>
      </trkpt>
      <trkpt lat="48.38979" lon="2.64175">
        <ele>100.07</ele>
        <time>2021-09-15T10:36:47Z</time>
      </trkpt>
      <trkpt lat="48.38979" lon="2.64173">
        <ele>100.09</ele>
        <time>2021-09-15T10:36:48Z</time>
      </trkpt>
      <trkpt lat="48.38979" lon="2.64171">
        <ele>100.13</ele>
        <time>2021-09-15T10:36:49Z</time>
      </trkpt>
      <trkpt lat="48.38979" lon="2.6417">
        <ele>100.23</ele>
        <time>2021-09-15T10:36:50Z</time>
      </trkpt>
      <trkpt lat="48.38983" lon="2.64148">
        <ele>100.82</ele>
        <time>2021-09-15T10:37:04Z</time>
      </trkpt>
      <trkpt lat="48.38985" lon="2.64132">
        <ele>101.14</ele>
        <time>2021-09-15T10:37:14Z</time>
      </trkpt>
      <trkpt lat="48.38989" lon="2.64113">
        <ele>100.83</ele>
        <time>2021-09-15T10:37:27Z</time>
      </trkpt>
      <trkpt lat="48.3899" lon="2.64106">
        <ele>101.89</ele>
        <time>2021-09-15T10:37:31Z</time>
      </trkpt>
      <trkpt lat="48.3899" lon="2.64104">
        <ele>101.85</ele>
        <time>2021-09-15T10:37:32Z</time>
      </trkpt>
      <trkpt lat="48.38994" lon="2.64076">
        <ele>101.88</ele>
        <time>2021-09-15T10:37:49Z</time>
      </trkpt>
      <trkpt lat="48.39009" lon="2.64068">
        <ele>101.95</ele>
        <time>2021-09-15T10:38:05Z</time>
      </trkpt>
      <trkpt lat="48.39022" lon="2.64062">
        <ele>102.47</ele>
        <time>2021-09-15T10:38:24Z</time>
      </trkpt>
      <trkpt lat="48.39041" lon="2.64062">
        <ele>104.59</ele>
        <time>2021-09-15T10:38:45Z</time>
      </trkpt>
      <trkpt lat="48.39055" lon="2.64064">
        <ele>107.68</ele>
        <time>2021-09-15T10:39:04Z</time>
      </trkpt>
      <trkpt lat="48.39062" lon="2.64064">
        <ele>110.89</ele>
        <time>2021-09-15T10:39:19Z</time>
      </trkpt>
      <trkpt lat="48.39071" lon="2.64063">
        <ele>113.96</ele>
        <time>2021-09-15T10:39:37Z</time>
      </trkpt>
      <trkpt lat="48.39079" lon="2.64064">
        <ele>116.99</ele>
        <time>2021-09-15T10:39:51Z</time>
      </trkpt>
      <trkpt lat="48.3908" lon="2.64065">
        <ele>117.85</ele>
        <time>2021-09-15T10:39:56Z</time>
      </trkpt>
      <trkpt lat="48.39081" lon="2.64071">
        <ele>119.53</ele>
        <time>2021-09-15T10:40:05Z</time>
      </trkpt>
      <trkpt lat="48.39083" lon="2.64074">
        <ele>120.08</ele>
        <time>2021-09-15T10:40:09Z</time>
      </trkpt>
      <trkpt lat="48.39088" lon="2.64074">
        <ele>123.17</ele>
        <time>2021-09-15T10:40:26Z</time>
      </trkpt>
      <trkpt lat="48.39099" lon="2.64069">
        <ele>125.97</ele>
        <time>2021-09-15T10:40:47Z</time>
      </trkpt>
      <trkpt lat="48.39101" lon="2.64073">
        <ele>125.74</ele>
        <time>2021-09-15T10:41:11Z</time>
      </trkpt>
      <trkpt lat="48.39103" lon="2.64075">
        <ele>125.99</ele>
        <time>2021-09-15T10:41:38Z</time>
      </trkpt>
      <trkpt lat="48.39105" lon="2.64074">
        <ele>125.86</ele>
        <time>2021-09-15T10:42:09Z</time>
      </trkpt>
      <trkpt lat="48.39104" lon="2.64075">
        <ele>125.62</ele>
        <time>2021-09-15T10:42:34Z</time>
      </trkpt>
      <trkpt lat="48.391" lon="2.64077">
        <ele>125.62</ele>
        <time>2021-09-15T10:43:14Z</time>
      </trkpt>
      <trkpt lat="48.391" lon="2.6408">
        <ele>125.62</ele>
        <time>2021-09-15T10:44:34Z</time>
      </trkpt>
      <trkpt lat="48.39101" lon="2.64083">
        <ele>125.62</ele>
        <time>2021-09-15T10:45:18Z</time>
      </trkpt>
      <trkpt lat="48.39101" lon="2.64086">
        <ele>125.62</ele>
        <time>2021-09-15T10:46:10Z</time>
      </trkpt>
      <trkpt lat="48.39097" lon="2.64088">
        <ele>125.62</ele>
        <time>2021-09-15T10:47:29Z</time>
      </trkpt>
      <trkpt lat="48.39096" lon="2.6409">
        <ele>125.62</ele>
        <time>2021-09-15T10:48:45Z</time>
      </trkpt>
      <trkpt lat="48.39095" lon="2.64088">
        <ele>125.62</ele>
        <time>2021-09-15T10:49:40Z</time>
      </trkpt>
      <trkpt lat="48.39099" lon="2.64083">
        <ele>125.62</ele>
        <time>2021-09-15T10:51:01Z</time>
      </trkpt>
      <trkpt lat="48.39098" lon="2.64083">
        <ele>125.62</ele>
        <time>2021-09-15T10:52:05Z</time>
      </trkpt>
      <trkpt lat="48.39098" lon="2.6408">
        <ele>125.62</ele>
        <time>2021-09-15T10:53:41Z</time>
      </trkpt>
      <trkpt lat="48.39099" lon="2.64083">
        <ele>125.62</ele>
        <time>2021-09-15T10:54:57Z</time>
      </trkpt>
      <trkpt lat="48.39097" lon="2.64084">
        <ele>125.62</ele>
        <time>2021-09-15T10:56:27Z</time>
      </trkpt>
      <trkpt lat="48.39098" lon="2.64084">
        <ele>125.62</ele>
        <time>2021-09-15T10:57:33Z</time>
      </trkpt>
      <trkpt lat="48.39099" lon="2.64082">
        <ele>125.62</ele>
        <time>2021-09-15T10:58:26Z</time>
      </trkpt>
      <trkpt lat="48.39098" lon="2.64081">
        <ele>125.62</ele>
        <time>2021-09-15T10:59:43Z</time>
      </trkpt>
      <trkpt lat="48.39101" lon="2.64081">
        <ele>125.62</ele>
        <time>2021-09-15T11:02:07Z</time>
      </trkpt>
      <trkpt lat="48.39101" lon="2.64082">
        <ele>125.62</ele>
        <time>2021-09-15T11:04:33Z</time>
      </trkpt>
      <trkpt lat="48.391" lon="2.64083">
        <ele>125.62</ele>
        <time>2021-09-15T11:05:59Z</time>
      </trkpt>
      <trkpt lat="48.39102" lon="2.64084">
        <ele>125.62</ele>
        <time>2021-09-15T11:07:36Z</time>
      </trkpt>
      <trkpt lat="48.39101" lon="2.64083">
        <ele>125.62</ele>
        <time>2021-09-15T11:08:25Z</time>
      </trkpt>
      <trkpt lat="48.391" lon="2.64086">
        <ele>125.62</ele>
        <time>2021-09-15T11:08:58Z</time>
      </trkpt>
      <trkpt lat="48.39101" lon="2.64083">
        <ele>125.62</ele>
        <time>2021-09-15T11:10:00Z</time>
      </trkpt>
      <trkpt lat="48.39103" lon="2.64083">
        <ele>125.62</ele>
        <time>2021-09-15T11:10:25Z</time>
      </trkpt>
      <trkpt lat="48.39099" lon="2.64084">
        <ele>125.62</ele>
        <time>2021-09-15T11:11:34Z</time>
      </trkpt>
      <trkpt lat="48.39101" lon="2.64084">
        <ele>125.62</ele>
        <time>2021-09-15T11:12:44Z</time>
      </trkpt>
      <trkpt lat="48.39101" lon="2.64084">
        <ele>130.56</ele>
        <time>2021-09-15T11:12:47Z</time>
      </trkpt>
      <trkpt lat="48.39101" lon="2.64084">
        <ele>129.25</ele>
        <time>2021-09-15T11:12:48Z</time>
      </trkpt>
      <trkpt lat="48.39101" lon="2.64084">
        <ele>124.9</ele>
        <time>2021-09-15T11:12:50Z</time>
      </trkpt>
      <trkpt lat="48.391" lon="2.64082">
        <ele>125.63</ele>
        <time>2021-09-15T11:13:35Z</time>
      </trkpt>
      <trkpt lat="48.39101" lon="2.64083">
        <ele>128.32</ele>
        <time>2021-09-15T11:13:59Z</time>
      </trkpt>
      <trkpt lat="48.39103" lon="2.64084">
        <ele>125.29</ele>
        <time>2021-09-15T11:14:24Z</time>
      </trkpt>
      <trkpt lat="48.39103" lon="2.64084">
        <ele>124.42</ele>
        <time>2021-09-15T11:14:26Z</time>
      </trkpt>
      <trkpt lat="48.39103" lon="2.64081">
        <ele>125.8</ele>
        <time>2021-09-15T11:15:21Z</time>
      </trkpt>
      <trkpt lat="48.39102" lon="2.64082">
        <ele>125.8</ele>
        <time>2021-09-15T11:15:42Z</time>
      </trkpt>
      <trkpt lat="48.39101" lon="2.64083">
        <ele>125.8</ele>
        <time>2021-09-15T11:16:21Z</time>
      </trkpt>
      <trkpt lat="48.39104" lon="2.64081">
        <ele>125.8</ele>
        <time>2021-09-15T11:16:51Z</time>
      </trkpt>
      <trkpt lat="48.39105" lon="2.64083">
        <ele>125.8</ele>
        <time>2021-09-15T11:17:40Z</time>
      </trkpt>
      <trkpt lat="48.39105" lon="2.64086">
        <ele>125.8</ele>
        <time>2021-09-15T11:18:07Z</time>
      </trkpt>
      <trkpt lat="48.39102" lon="2.64088">
        <ele>125.8</ele>
        <time>2021-09-15T11:18:59Z</time>
      </trkpt>
      <trkpt lat="48.39104" lon="2.64086">
        <ele>125.8</ele>
        <time>2021-09-15T11:19:39Z</time>
      </trkpt>
      <trkpt lat="48.39103" lon="2.64087">
        <ele>125.8</ele>
        <time>2021-09-15T11:20:10Z</time>
      </trkpt>
      <trkpt lat="48.39103" lon="2.64087">
        <ele>125.8</ele>
        <time>2021-09-15T11:20:39Z</time>
      </trkpt>
      <trkpt lat="48.39104" lon="2.64088">
        <ele>125.8</ele>
        <time>2021-09-15T11:21:05Z</time>
      </trkpt>
      <trkpt lat="48.39103" lon="2.64086">
        <ele>125.8</ele>
        <time>2021-09-15T11:21:32Z</time>
      </trkpt>
      <trkpt lat="48.39102" lon="2.64076">
        <ele>125.8</ele>
        <time>2021-09-15T11:22:02Z</time>
      </trkpt>
      <trkpt lat="48.39113" lon="2.64074">
        <ele>125.8</ele>
        <time>2021-09-15T11:22:29Z</time>
      </trkpt>
      <trkpt lat="48.3912" lon="2.64072">
        <ele>122.24</ele>
        <time>2021-09-15T11:22:40Z</time>
      </trkpt>
      <trkpt lat="48.39121" lon="2.64073">
        <ele>121.58</ele>
        <time>2021-09-15T11:22:42Z</time>
      </trkpt>
      <trkpt lat="48.39129" lon="2.6408">
        <ele>118.38</ele>
        <time>2021-09-15T11:23:01Z</time>
      </trkpt>
      <trkpt lat="48.39132" lon="2.64075">
        <ele>118.5</ele>
        <time>2021-09-15T11:23:15Z</time>
      </trkpt>
      <trkpt lat="48.39137" lon="2.64068">
        <ele>115.78</ele>
        <time>2021-09-15T11:23:38Z</time>
      </trkpt>
      <trkpt lat="48.3914" lon="2.64059">
        <ele>112.6</ele>
        <time>2021-09-15T11:23:53Z</time>
      </trkpt>
      <trkpt lat="48.39149" lon="2.64059">
        <ele>110.18</ele>
        <time>2021-09-15T11:24:08Z</time>
      </trkpt>
      <trkpt lat="48.39154" lon="2.64055">
        <ele>107.91</ele>
        <time>2021-09-15T11:24:14Z</time>
      </trkpt>
      <trkpt lat="48.39157" lon="2.64054">
        <ele>109.37</ele>
        <time>2021-09-15T11:24:17Z</time>
      </trkpt>
      <trkpt lat="48.39169" lon="2.64059">
        <ele>106.25</ele>
        <time>2021-09-15T11:24:33Z</time>
      </trkpt>
      <trkpt lat="48.39182" lon="2.64068">
        <ele>102.72</ele>
        <time>2021-09-15T11:24:52Z</time>
      </trkpt>
      <trkpt lat="48.39183" lon="2.64069">
        <ele>102.08</ele>
        <time>2021-09-15T11:24:54Z</time>
      </trkpt>
      <trkpt lat="48.39198" lon="2.64072">
        <ele>101.83</ele>
        <time>2021-09-15T11:25:11Z</time>
      </trkpt>
      <trkpt lat="48.39218" lon="2.64078">
        <ele>99.06</ele>
        <time>2021-09-15T11:25:38Z</time>
      </trkpt>
      <trkpt lat="48.39235" lon="2.64079">
        <ele>96.84</ele>
        <time>2021-09-15T11:26:02Z</time>
      </trkpt>
      <trkpt lat="48.39242" lon="2.64095">
        <ele>94.37</ele>
        <time>2021-09-15T11:26:17Z</time>
      </trkpt>
      <trkpt lat="48.39252" lon="2.64107">
        <ele>93.5</ele>
        <time>2021-09-15T11:26:31Z</time>
      </trkpt>
      <trkpt lat="48.39262" lon="2.64108">
        <ele>91.27</ele>
        <time>2021-09-15T11:26:45Z</time>
      </trkpt>
      <trkpt lat="48.39269" lon="2.64096">
        <ele>91.74</ele>
        <time>2021-09-15T11:27:02Z</time>
      </trkpt>
      <trkpt lat="48.39271" lon="2.64083">
        <ele>92.81</ele>
        <time>2021-09-15T11:27:18Z</time>
      </trkpt>
      <trkpt lat="48.39272" lon="2.64073">
        <ele>92.3</ele>
        <time>2021-09-15T11:27:35Z</time>
      </trkpt>
      <trkpt lat="48.39272" lon="2.64065">
        <ele>92.33</ele>
        <time>2021-09-15T11:27:43Z</time>
      </trkpt>
      <trkpt lat="48.39272" lon="2.64062">
        <ele>92.27</ele>
        <time>2021-09-15T11:27:45Z</time>
      </trkpt>
      <trkpt lat="48.3927" lon="2.64039">
        <ele>92.96</ele>
        <time>2021-09-15T11:28:02Z</time>
      </trkpt>
      <trkpt lat="48.3927" lon="2.64025">
        <ele>93.41</ele>
        <time>2021-09-15T11:28:10Z</time>
      </trkpt>
      <trkpt lat="48.39269" lon="2.64017">
        <ele>93.74</ele>
        <time>2021-09-15T11:28:15Z</time>
      </trkpt>
      <trkpt lat="48.39272" lon="2.64001">
        <ele>94.13</ele>
        <time>2021-09-15T11:28:29Z</time>
      </trkpt>
      <trkpt lat="48.39272" lon="2.63999">
        <ele>94.16</ele>
        <time>2021-09-15T11:28:30Z</time>
      </trkpt>
      <trkpt lat="48.39272" lon="2.63997">
        <ele>94.18</ele>
        <time>2021-09-15T11:28:31Z</time>
      </trkpt>
      <trkpt lat="48.39272" lon="2.63995">
        <ele>94.19</ele>
        <time>2021-09-15T11:28:32Z</time>
      </trkpt>
      <trkpt lat="48.39271" lon="2.63993">
        <ele>94.2</ele>
        <time>2021-09-15T11:28:33Z</time>
      </trkpt>
      <trkpt lat="48.39271" lon="2.63992">
        <ele>94.22</ele>
        <time>2021-09-15T11:28:34Z</time>
      </trkpt>
      <trkpt lat="48.39272" lon="2.6397">
        <ele>94.5</ele>
        <time>2021-09-15T11:28:48Z</time>
      </trkpt>
      <trkpt lat="48.39271" lon="2.63942">
        <ele>95.02</ele>
        <time>2021-09-15T11:29:05Z</time>
      </trkpt>
      <trkpt lat="48.39273" lon="2.63917">
        <ele>95.89</ele>
        <time>2021-09-15T11:29:24Z</time>
      </trkpt>
      <trkpt lat="48.39272" lon="2.63884">
        <ele>94.9</ele>
        <time>2021-09-15T11:29:45Z</time>
      </trkpt>
      <trkpt lat="48.39271" lon="2.63875">
        <ele>95.29</ele>
        <time>2021-09-15T11:29:50Z</time>
      </trkpt>
      <trkpt lat="48.39271" lon="2.63874">
        <ele>95.38</ele>
        <time>2021-09-15T11:29:51Z</time>
      </trkpt>
      <trkpt lat="48.39269" lon="2.63852">
        <ele>96.76</ele>
        <time>2021-09-15T11:30:10Z</time>
      </trkpt>
      <trkpt lat="48.39267" lon="2.63836">
        <ele>98.5</ele>
        <time>2021-09-15T11:30:19Z</time>
      </trkpt>
      <trkpt lat="48.39265" lon="2.63813">
        <ele>98.89</ele>
        <time>2021-09-15T11:30:35Z</time>
      </trkpt>
      <trkpt lat="48.39266" lon="2.63806">
        <ele>99.04</ele>
        <time>2021-09-15T11:30:39Z</time>
      </trkpt>
      <trkpt lat="48.39276" lon="2.63768">
        <ele>100.77</ele>
        <time>2021-09-15T11:31:07Z</time>
      </trkpt>
      <trkpt lat="48.39286" lon="2.63747">
        <ele>101.56</ele>
        <time>2021-09-15T11:31:22Z</time>
      </trkpt>
      <trkpt lat="48.39287" lon="2.63746">
        <ele>101.61</ele>
        <time>2021-09-15T11:31:23Z</time>
      </trkpt>
      <trkpt lat="48.39288" lon="2.63745">
        <ele>101.66</ele>
        <time>2021-09-15T11:31:24Z</time>
      </trkpt>
      <trkpt lat="48.39304" lon="2.6373">
        <ele>103.73</ele>
        <time>2021-09-15T11:31:41Z</time>
      </trkpt>
      <trkpt lat="48.39308" lon="2.63716">
        <ele>104.51</ele>
        <time>2021-09-15T11:31:49Z</time>
      </trkpt>
      <trkpt lat="48.39315" lon="2.63693">
        <ele>105.57</ele>
        <time>2021-09-15T11:32:04Z</time>
      </trkpt>
      <trkpt lat="48.39316" lon="2.63671">
        <ele>107.02</ele>
        <time>2021-09-15T11:32:17Z</time>
      </trkpt>
      <trkpt lat="48.39314" lon="2.63642">
        <ele>107.79</ele>
        <time>2021-09-15T11:32:37Z</time>
      </trkpt>
      <trkpt lat="48.39313" lon="2.63635">
        <ele>108.13</ele>
        <time>2021-09-15T11:32:41Z</time>
      </trkpt>
      <trkpt lat="48.39308" lon="2.63612">
        <ele>109.18</ele>
        <time>2021-09-15T11:32:56Z</time>
      </trkpt>
      <trkpt lat="48.39302" lon="2.63572">
        <ele>111.37</ele>
        <time>2021-09-15T11:33:22Z</time>
      </trkpt>
      <trkpt lat="48.393" lon="2.6354">
        <ele>113.83</ele>
        <time>2021-09-15T11:33:43Z</time>
      </trkpt>
      <trkpt lat="48.39308" lon="2.63502">
        <ele>114.25</ele>
        <time>2021-09-15T11:34:04Z</time>
      </trkpt>
      <trkpt lat="48.39308" lon="2.63484">
        <ele>114.44</ele>
        <time>2021-09-15T11:34:15Z</time>
      </trkpt>
      <trkpt lat="48.39308" lon="2.63482">
        <ele>114.47</ele>
        <time>2021-09-15T11:34:16Z</time>
      </trkpt>
      <trkpt lat="48.39308" lon="2.6348">
        <ele>114.5</ele>
        <time>2021-09-15T11:34:17Z</time>
      </trkpt>
      <trkpt lat="48.39315" lon="2.63456">
        <ele>115.09</ele>
        <time>2021-09-15T11:34:30Z</time>
      </trkpt>
      <trkpt lat="48.39315" lon="2.63454">
        <ele>115.23</ele>
        <time>2021-09-15T11:34:31Z</time>
      </trkpt>
      <trkpt lat="48.39315" lon="2.63452">
        <ele>115.29</ele>
        <time>2021-09-15T11:34:32Z</time>
      </trkpt>
      <trkpt lat="48.39316" lon="2.6345">
        <ele>115.34</ele>
        <time>2021-09-15T11:34:33Z</time>
      </trkpt>
      <trkpt lat="48.39316" lon="2.63447">
        <ele>115.37</ele>
        <time>2021-09-15T11:34:34Z</time>
      </trkpt>
      <trkpt lat="48.39317" lon="2.63445">
        <ele>115.4</ele>
        <time>2021-09-15T11:34:35Z</time>
      </trkpt>
      <trkpt lat="48.39317" lon="2.63444">
        <ele>115.42</ele>
        <time>2021-09-15T11:34:36Z</time>
      </trkpt>
      <trkpt lat="48.39318" lon="2.63442">
        <ele>115.42</ele>
        <time>2021-09-15T11:34:37Z</time>
      </trkpt>
      <trkpt lat="48.39318" lon="2.6344">
        <ele>115.46</ele>
        <time>2021-09-15T11:34:38Z</time>
      </trkpt>
      <trkpt lat="48.39319" lon="2.63434">
        <ele>115.73</ele>
        <time>2021-09-15T11:34:41Z</time>
      </trkpt>
      <trkpt lat="48.39319" lon="2.63433">
        <ele>115.8</ele>
        <time>2021-09-15T11:34:42Z</time>
      </trkpt>
      <trkpt lat="48.39323" lon="2.63412">
        <ele>116.43</ele>
        <time>2021-09-15T11:34:54Z</time>
      </trkpt>
      <trkpt lat="48.39323" lon="2.6341">
        <ele>116.49</ele>
        <time>2021-09-15T11:34:55Z</time>
      </trkpt>
      <trkpt lat="48.39323" lon="2.63408">
        <ele>116.56</ele>
        <time>2021-09-15T11:34:56Z</time>
      </trkpt>
      <trkpt lat="48.39323" lon="2.63406">
        <ele>116.68</ele>
        <time>2021-09-15T11:34:57Z</time>
      </trkpt>
      <trkpt lat="48.39327" lon="2.63373">
        <ele>118.36</ele>
        <time>2021-09-15T11:35:18Z</time>
      </trkpt>
      <trkpt lat="48.39327" lon="2.63322">
        <ele>119.81</ele>
        <time>2021-09-15T11:35:46Z</time>
      </trkpt>
      <trkpt lat="48.3933" lon="2.63295">
        <ele>122.1</ele>
        <time>2021-09-15T11:36:03Z</time>
      </trkpt>
      <trkpt lat="48.39331" lon="2.6327">
        <ele>123.44</ele>
        <time>2021-09-15T11:36:19Z</time>
      </trkpt>
      <trkpt lat="48.39334" lon="2.63242">
        <ele>124.92</ele>
        <time>2021-09-15T11:36:37Z</time>
      </trkpt>
      <trkpt lat="48.39333" lon="2.63235">
        <ele>125.25</ele>
        <time>2021-09-15T11:36:40Z</time>
      </trkpt>
      <trkpt lat="48.39334" lon="2.63233">
        <ele>125.46</ele>
        <time>2021-09-15T11:36:41Z</time>
      </trkpt>
      <trkpt lat="48.39334" lon="2.63231">
        <ele>125.54</ele>
        <time>2021-09-15T11:36:42Z</time>
      </trkpt>
      <trkpt lat="48.39339" lon="2.632">
        <ele>127.81</ele>
        <time>2021-09-15T11:37:02Z</time>
      </trkpt>
      <trkpt lat="48.39344" lon="2.63159">
        <ele>129.88</ele>
        <time>2021-09-15T11:37:26Z</time>
      </trkpt>
      <trkpt lat="48.39343" lon="2.63147">
        <ele>130.32</ele>
        <time>2021-09-15T11:37:46Z</time>
      </trkpt>
      <trkpt lat="48.39342" lon="2.63144">
        <ele>129.99</ele>
        <time>2021-09-15T11:38:12Z</time>
      </trkpt>
      <trkpt lat="48.39343" lon="2.63143">
        <ele>131.23</ele>
        <time>2021-09-15T11:38:34Z</time>
      </trkpt>
      <trkpt lat="48.39351" lon="2.63136">
        <ele>129.92</ele>
        <time>2021-09-15T11:38:47Z</time>
      </trkpt>
      <trkpt lat="48.39353" lon="2.63136">
        <ele>129.92</ele>
        <time>2021-09-15T11:38:48Z</time>
      </trkpt>
      <trkpt lat="48.39354" lon="2.63136">
        <ele>129.92</ele>
        <time>2021-09-15T11:38:49Z</time>
      </trkpt>
      <trkpt lat="48.39376" lon="2.63131">
        <ele>131.09</ele>
        <time>2021-09-15T11:39:12Z</time>
      </trkpt>
      <trkpt lat="48.3939" lon="2.63133">
        <ele>132.65</ele>
        <time>2021-09-15T11:39:26Z</time>
      </trkpt>
      <trkpt lat="48.39412" lon="2.63133">
        <ele>132.64</ele>
        <time>2021-09-15T11:39:52Z</time>
      </trkpt>
      <trkpt lat="48.39437" lon="2.63153">
        <ele>132.35</ele>
        <time>2021-09-15T11:40:12Z</time>
      </trkpt>
      <trkpt lat="48.39438" lon="2.63155">
        <ele>132.15</ele>
        <time>2021-09-15T11:40:13Z</time>
      </trkpt>
      <trkpt lat="48.39439" lon="2.63157">
        <ele>132.03</ele>
        <time>2021-09-15T11:40:14Z</time>
      </trkpt>
      <trkpt lat="48.39439" lon="2.63159">
        <ele>131.98</ele>
        <time>2021-09-15T11:40:15Z</time>
      </trkpt>
      <trkpt lat="48.39448" lon="2.6319">
        <ele>133.53</ele>
        <time>2021-09-15T11:40:31Z</time>
      </trkpt>
      <trkpt lat="48.39452" lon="2.63205">
        <ele>133.26</ele>
        <time>2021-09-15T11:40:38Z</time>
      </trkpt>
      <trkpt lat="48.39452" lon="2.63207">
        <ele>133.2</ele>
        <time>2021-09-15T11:40:39Z</time>
      </trkpt>
      <trkpt lat="48.39453" lon="2.63209">
        <ele>133.13</ele>
        <time>2021-09-15T11:40:40Z</time>
      </trkpt>
      <trkpt lat="48.39453" lon="2.63211">
        <ele>133.06</ele>
        <time>2021-09-15T11:40:41Z</time>
      </trkpt>
      <trkpt lat="48.39453" lon="2.63213">
        <ele>133.01</ele>
        <time>2021-09-15T11:40:42Z</time>
      </trkpt>
      <trkpt lat="48.39453" lon="2.63215">
        <ele>132.99</ele>
        <time>2021-09-15T11:40:43Z</time>
      </trkpt>
      <trkpt lat="48.39454" lon="2.63216">
        <ele>132.97</ele>
        <time>2021-09-15T11:40:44Z</time>
      </trkpt>
      <trkpt lat="48.39454" lon="2.63218">
        <ele>132.97</ele>
        <time>2021-09-15T11:40:45Z</time>
      </trkpt>
      <trkpt lat="48.39455" lon="2.6322">
        <ele>132.97</ele>
        <time>2021-09-15T11:40:46Z</time>
      </trkpt>
      <trkpt lat="48.39455" lon="2.63221">
        <ele>132.96</ele>
        <time>2021-09-15T11:40:47Z</time>
      </trkpt>
      <trkpt lat="48.3946" lon="2.63245">
        <ele>133.38</ele>
        <time>2021-09-15T11:41:02Z</time>
      </trkpt>
      <trkpt lat="48.39461" lon="2.63248">
        <ele>133.4</ele>
        <time>2021-09-15T11:41:03Z</time>
      </trkpt>
      <trkpt lat="48.39462" lon="2.6325">
        <ele>133.38</ele>
        <time>2021-09-15T11:41:04Z</time>
      </trkpt>
      <trkpt lat="48.39462" lon="2.63252">
        <ele>133.29</ele>
        <time>2021-09-15T11:41:05Z</time>
      </trkpt>
      <trkpt lat="48.39463" lon="2.63254">
        <ele>133.2</ele>
        <time>2021-09-15T11:41:06Z</time>
      </trkpt>
      <trkpt lat="48.39472" lon="2.63286">
        <ele>132.88</ele>
        <time>2021-09-15T11:41:23Z</time>
      </trkpt>
      <trkpt lat="48.39476" lon="2.63304">
        <ele>132.54</ele>
        <time>2021-09-15T11:41:33Z</time>
      </trkpt>
      <trkpt lat="48.39477" lon="2.63307">
        <ele>132.58</ele>
        <time>2021-09-15T11:41:35Z</time>
      </trkpt>
      <trkpt lat="48.39482" lon="2.63333">
        <ele>132.39</ele>
        <time>2021-09-15T11:41:51Z</time>
      </trkpt>
      <trkpt lat="48.39489" lon="2.6336">
        <ele>132.67</ele>
        <time>2021-09-15T11:42:06Z</time>
      </trkpt>
      <trkpt lat="48.39489" lon="2.63361">
        <ele>132.7</ele>
        <time>2021-09-15T11:42:07Z</time>
      </trkpt>
      <trkpt lat="48.39492" lon="2.63368">
        <ele>132.57</ele>
        <time>2021-09-15T11:42:18Z</time>
      </trkpt>
      <trkpt lat="48.39495" lon="2.63377">
        <ele>132.39</ele>
        <time>2021-09-15T11:42:27Z</time>
      </trkpt>
      <trkpt lat="48.39496" lon="2.6338">
        <ele>132.32</ele>
        <time>2021-09-15T11:42:29Z</time>
      </trkpt>
      <trkpt lat="48.39498" lon="2.63393">
        <ele>132.23</ele>
        <time>2021-09-15T11:42:38Z</time>
      </trkpt>
      <trkpt lat="48.39503" lon="2.63407">
        <ele>132.37</ele>
        <time>2021-09-15T11:42:47Z</time>
      </trkpt>
      <trkpt lat="48.39508" lon="2.63428">
        <ele>131.23</ele>
        <time>2021-09-15T11:43:02Z</time>
      </trkpt>
      <trkpt lat="48.39512" lon="2.63457">
        <ele>131.68</ele>
        <time>2021-09-15T11:43:17Z</time>
      </trkpt>
      <trkpt lat="48.39515" lon="2.63471">
        <ele>131.54</ele>
        <time>2021-09-15T11:43:23Z</time>
      </trkpt>
      <trkpt lat="48.39515" lon="2.63473">
        <ele>131.36</ele>
        <time>2021-09-15T11:43:24Z</time>
      </trkpt>
      <trkpt lat="48.39522" lon="2.63499">
        <ele>130.6</ele>
        <time>2021-09-15T11:43:39Z</time>
      </trkpt>
      <trkpt lat="48.39528" lon="2.63508">
        <ele>129.89</ele>
        <time>2021-09-15T11:43:48Z</time>
      </trkpt>
      <trkpt lat="48.39545" lon="2.63523">
        <ele>129.2</ele>
        <time>2021-09-15T11:44:08Z</time>
      </trkpt>
      <trkpt lat="48.39573" lon="2.63527">
        <ele>129.72</ele>
        <time>2021-09-15T11:44:31Z</time>
      </trkpt>
      <trkpt lat="48.39575" lon="2.63527">
        <ele>129.65</ele>
        <time>2021-09-15T11:44:32Z</time>
      </trkpt>
      <trkpt lat="48.39599" lon="2.63519">
        <ele>129.05</ele>
        <time>2021-09-15T11:44:57Z</time>
      </trkpt>
      <trkpt lat="48.39607" lon="2.63519">
        <ele>128.78</ele>
        <time>2021-09-15T11:45:05Z</time>
      </trkpt>
      <trkpt lat="48.39608" lon="2.63519">
        <ele>128.74</ele>
        <time>2021-09-15T11:45:06Z</time>
      </trkpt>
      <trkpt lat="48.39621" lon="2.63521">
        <ele>128.1</ele>
        <time>2021-09-15T11:45:21Z</time>
      </trkpt>
      <trkpt lat="48.39634" lon="2.63523">
        <ele>127.52</ele>
        <time>2021-09-15T11:45:38Z</time>
      </trkpt>
      <trkpt lat="48.39635" lon="2.63523">
        <ele>127.48</ele>
        <time>2021-09-15T11:45:39Z</time>
      </trkpt>
      <trkpt lat="48.3965" lon="2.63525">
        <ele>126.86</ele>
        <time>2021-09-15T11:45:55Z</time>
      </trkpt>
      <trkpt lat="48.39653" lon="2.63526">
        <ele>126.74</ele>
        <time>2021-09-15T11:45:57Z</time>
      </trkpt>
      <trkpt lat="48.39654" lon="2.63527">
        <ele>126.58</ele>
        <time>2021-09-15T11:45:58Z</time>
      </trkpt>
      <trkpt lat="48.39666" lon="2.63529">
        <ele>124.69</ele>
        <time>2021-09-15T11:46:09Z</time>
      </trkpt>
      <trkpt lat="48.39667" lon="2.63529">
        <ele>124.86</ele>
        <time>2021-09-15T11:46:10Z</time>
      </trkpt>
      <trkpt lat="48.3967" lon="2.6353">
        <ele>125.05</ele>
        <time>2021-09-15T11:46:12Z</time>
      </trkpt>
      <trkpt lat="48.39682" lon="2.63535">
        <ele>123.9</ele>
        <time>2021-09-15T11:46:26Z</time>
      </trkpt>
      <trkpt lat="48.39683" lon="2.63538">
        <ele>123.62</ele>
        <time>2021-09-15T11:46:28Z</time>
      </trkpt>
      <trkpt lat="48.39683" lon="2.6354">
        <ele>123.48</ele>
        <time>2021-09-15T11:46:29Z</time>
      </trkpt>
      <trkpt lat="48.39684" lon="2.63546">
        <ele>122.97</ele>
        <time>2021-09-15T11:46:33Z</time>
      </trkpt>
      <trkpt lat="48.39691" lon="2.63563">
        <ele>120.77</ele>
        <time>2021-09-15T11:46:48Z</time>
      </trkpt>
      <trkpt lat="48.39695" lon="2.63588">
        <ele>118.97</ele>
        <time>2021-09-15T11:47:00Z</time>
      </trkpt>
      <trkpt lat="48.39697" lon="2.63592">
        <ele>118.63</ele>
        <time>2021-09-15T11:47:02Z</time>
      </trkpt>
      <trkpt lat="48.39697" lon="2.63595">
        <ele>118.51</ele>
        <time>2021-09-15T11:47:03Z</time>
      </trkpt>
      <trkpt lat="48.39706" lon="2.6362">
        <ele>116.12</ele>
        <time>2021-09-15T11:47:21Z</time>
      </trkpt>
      <trkpt lat="48.39722" lon="2.63643">
        <ele>113.5</ele>
        <time>2021-09-15T11:47:44Z</time>
      </trkpt>
      <trkpt lat="48.39741" lon="2.63629">
        <ele>111.16</ele>
        <time>2021-09-15T11:48:05Z</time>
      </trkpt>
      <trkpt lat="48.39761" lon="2.63632">
        <ele>109.08</ele>
        <time>2021-09-15T11:48:22Z</time>
      </trkpt>
      <trkpt lat="48.39775" lon="2.63653">
        <ele>105.84</ele>
        <time>2021-09-15T11:48:39Z</time>
      </trkpt>
      <trkpt lat="48.39785" lon="2.63678">
        <ele>105.39</ele>
        <time>2021-09-15T11:48:58Z</time>
      </trkpt>
      <trkpt lat="48.39799" lon="2.63703">
        <ele>102.72</ele>
        <time>2021-09-15T11:49:19Z</time>
      </trkpt>
      <trkpt lat="48.39818" lon="2.63746">
        <ele>100.87</ele>
        <time>2021-09-15T11:49:48Z</time>
      </trkpt>
      <trkpt lat="48.39821" lon="2.63752">
        <ele>100.25</ele>
        <time>2021-09-15T11:49:52Z</time>
      </trkpt>
      <trkpt lat="48.39829" lon="2.63781">
        <ele>99.69</ele>
        <time>2021-09-15T11:50:09Z</time>
      </trkpt>
      <trkpt lat="48.3983" lon="2.63791">
        <ele>99.1</ele>
        <time>2021-09-15T11:50:20Z</time>
      </trkpt>
      <trkpt lat="48.39831" lon="2.6383">
        <ele>98.73</ele>
        <time>2021-09-15T11:50:42Z</time>
      </trkpt>
      <trkpt lat="48.3983" lon="2.63868">
        <ele>97.84</ele>
        <time>2021-09-15T11:51:02Z</time>
      </trkpt>
      <trkpt lat="48.39823" lon="2.6393">
        <ele>97.02</ele>
        <time>2021-09-15T11:51:32Z</time>
      </trkpt>
      <trkpt lat="48.39827" lon="2.63955">
        <ele>96.49</ele>
        <time>2021-09-15T11:51:56Z</time>
      </trkpt>
      <trkpt lat="48.39846" lon="2.63964">
        <ele>97.76</ele>
        <time>2021-09-15T11:52:22Z</time>
      </trkpt>
      <trkpt lat="48.39871" lon="2.63979">
        <ele>100.77</ele>
        <time>2021-09-15T11:52:49Z</time>
      </trkpt>
      <trkpt lat="48.39895" lon="2.63982">
        <ele>103.85</ele>
        <time>2021-09-15T11:53:14Z</time>
      </trkpt>
      <trkpt lat="48.39914" lon="2.63986">
        <ele>106.38</ele>
        <time>2021-09-15T11:53:33Z</time>
      </trkpt>
      <trkpt lat="48.39928" lon="2.63991">
        <ele>109.49</ele>
        <time>2021-09-15T11:53:47Z</time>
      </trkpt>
      <trkpt lat="48.39941" lon="2.63994">
        <ele>112.66</ele>
        <time>2021-09-15T11:54:03Z</time>
      </trkpt>
      <trkpt lat="48.39955" lon="2.63996">
        <ele>115.68</ele>
        <time>2021-09-15T11:54:18Z</time>
      </trkpt>
      <trkpt lat="48.39967" lon="2.63991">
        <ele>119.05</ele>
        <time>2021-09-15T11:54:35Z</time>
      </trkpt>
      <trkpt lat="48.39978" lon="2.63972">
        <ele>122.15</ele>
        <time>2021-09-15T11:54:55Z</time>
      </trkpt>
      <trkpt lat="48.39994" lon="2.63966">
        <ele>125.27</ele>
        <time>2021-09-15T11:55:16Z</time>
      </trkpt>
      <trkpt lat="48.40006" lon="2.63966">
        <ele>125.79</ele>
        <time>2021-09-15T11:55:26Z</time>
      </trkpt>
      <trkpt lat="48.40007" lon="2.63966">
        <ele>125.73</ele>
        <time>2021-09-15T11:55:27Z</time>
      </trkpt>
      <trkpt lat="48.40021" lon="2.63965">
        <ele>128.67</ele>
        <time>2021-09-15T11:55:43Z</time>
      </trkpt>
      <trkpt lat="48.40033" lon="2.63958">
        <ele>130.2</ele>
        <time>2021-09-15T11:56:07Z</time>
      </trkpt>
      <trkpt lat="48.40049" lon="2.63953">
        <ele>131.26</ele>
        <time>2021-09-15T11:56:29Z</time>
      </trkpt>
      <trkpt lat="48.4007" lon="2.63942">
        <ele>131.97</ele>
        <time>2021-09-15T11:56:54Z</time>
      </trkpt>
      <trkpt lat="48.40083" lon="2.63938">
        <ele>132.39</ele>
        <time>2021-09-15T11:57:16Z</time>
      </trkpt>
      <trkpt lat="48.40094" lon="2.63937">
        <ele>132.76</ele>
        <time>2021-09-15T11:57:41Z</time>
      </trkpt>
      <trkpt lat="48.40098" lon="2.63932">
        <ele>132.43</ele>
        <time>2021-09-15T11:58:17Z</time>
      </trkpt>
      <trkpt lat="48.401" lon="2.63931">
        <ele>132.53</ele>
        <time>2021-09-15T11:58:51Z</time>
      </trkpt>
      <trkpt lat="48.40117" lon="2.63925">
        <ele>132.54</ele>
        <time>2021-09-15T11:59:14Z</time>
      </trkpt>
      <trkpt lat="48.40139" lon="2.63918">
        <ele>133.05</ele>
        <time>2021-09-15T11:59:38Z</time>
      </trkpt>
      <trkpt lat="48.40171" lon="2.63912">
        <ele>133.67</ele>
        <time>2021-09-15T12:00:04Z</time>
      </trkpt>
      <trkpt lat="48.40203" lon="2.63902">
        <ele>133.72</ele>
        <time>2021-09-15T12:00:25Z</time>
      </trkpt>
      <trkpt lat="48.4022" lon="2.63896">
        <ele>133.47</ele>
        <time>2021-09-15T12:00:38Z</time>
      </trkpt>
      <trkpt lat="48.40242" lon="2.63886">
        <ele>133.21</ele>
        <time>2021-09-15T12:01:01Z</time>
      </trkpt>
      <trkpt lat="48.40277" lon="2.63877">
        <ele>132.83</ele>
        <time>2021-09-15T12:01:28Z</time>
      </trkpt>
      <trkpt lat="48.40307" lon="2.63866">
        <ele>132.85</ele>
        <time>2021-09-15T12:01:54Z</time>
      </trkpt>
      <trkpt lat="48.4033" lon="2.63859">
        <ele>132.71</ele>
        <time>2021-09-15T12:02:16Z</time>
      </trkpt>
      <trkpt lat="48.40344" lon="2.63851">
        <ele>132.71</ele>
        <time>2021-09-15T12:02:35Z</time>
      </trkpt>
      <trkpt lat="48.40368" lon="2.63846">
        <ele>132.67</ele>
        <time>2021-09-15T12:02:56Z</time>
      </trkpt>
      <trkpt lat="48.40388" lon="2.63851">
        <ele>131.46</ele>
        <time>2021-09-15T12:03:19Z</time>
      </trkpt>
      <trkpt lat="48.40392" lon="2.63852">
        <ele>131.68</ele>
        <time>2021-09-15T12:03:21Z</time>
      </trkpt>
      <trkpt lat="48.40393" lon="2.63852">
        <ele>131.76</ele>
        <time>2021-09-15T12:03:22Z</time>
      </trkpt>
      <trkpt lat="48.40395" lon="2.63851">
        <ele>131.83</ele>
        <time>2021-09-15T12:03:23Z</time>
      </trkpt>
      <trkpt lat="48.40396" lon="2.63851">
        <ele>131.83</ele>
        <time>2021-09-15T12:03:24Z</time>
      </trkpt>
      <trkpt lat="48.40398" lon="2.6385">
        <ele>131.78</ele>
        <time>2021-09-15T12:03:25Z</time>
      </trkpt>
      <trkpt lat="48.40399" lon="2.6385">
        <ele>131.68</ele>
        <time>2021-09-15T12:03:26Z</time>
      </trkpt>
      <trkpt lat="48.40416" lon="2.63832">
        <ele>131.32</ele>
        <time>2021-09-15T12:03:45Z</time>
      </trkpt>
      <trkpt lat="48.40421" lon="2.63816">
        <ele>131.15</ele>
        <time>2021-09-15T12:03:57Z</time>
      </trkpt>
      <trkpt lat="48.40425" lon="2.63789">
        <ele>130.48</ele>
        <time>2021-09-15T12:04:15Z</time>
      </trkpt>
      <trkpt lat="48.40436" lon="2.63782">
        <ele>131.18</ele>
        <time>2021-09-15T12:04:30Z</time>
      </trkpt>
      <trkpt lat="48.40441" lon="2.63779">
        <ele>130.89</ele>
        <time>2021-09-15T12:04:34Z</time>
      </trkpt>
      <trkpt lat="48.40442" lon="2.63778">
        <ele>130.86</ele>
        <time>2021-09-15T12:04:35Z</time>
      </trkpt>
      <trkpt lat="48.4046" lon="2.63762">
        <ele>130.32</ele>
        <time>2021-09-15T12:04:51Z</time>
      </trkpt>
      <trkpt lat="48.40467" lon="2.63757">
        <ele>130.63</ele>
        <time>2021-09-15T12:04:56Z</time>
      </trkpt>
      <trkpt lat="48.40468" lon="2.63757">
        <ele>130.9</ele>
        <time>2021-09-15T12:04:57Z</time>
      </trkpt>
      <trkpt lat="48.40482" lon="2.63754">
        <ele>129.75</ele>
        <time>2021-09-15T12:05:11Z</time>
      </trkpt>
      <trkpt lat="48.40505" lon="2.63741">
        <ele>130.28</ele>
        <time>2021-09-15T12:05:33Z</time>
      </trkpt>
      <trkpt lat="48.40522" lon="2.6372">
        <ele>129.92</ele>
        <time>2021-09-15T12:05:57Z</time>
      </trkpt>
      <trkpt lat="48.4054" lon="2.63696">
        <ele>130.89</ele>
        <time>2021-09-15T12:06:17Z</time>
      </trkpt>
      <trkpt lat="48.40539" lon="2.63682">
        <ele>131.04</ele>
        <time>2021-09-15T12:06:27Z</time>
      </trkpt>
      <trkpt lat="48.40538" lon="2.6368">
        <ele>131.02</ele>
        <time>2021-09-15T12:06:28Z</time>
      </trkpt>
      <trkpt lat="48.40535" lon="2.63663">
        <ele>131.39</ele>
        <time>2021-09-15T12:06:41Z</time>
      </trkpt>
      <trkpt lat="48.40538" lon="2.63641">
        <ele>130.37</ele>
        <time>2021-09-15T12:06:57Z</time>
      </trkpt>
      <trkpt lat="48.40536" lon="2.6362">
        <ele>130.56</ele>
        <time>2021-09-15T12:07:11Z</time>
      </trkpt>
      <trkpt lat="48.4054" lon="2.63602">
        <ele>130.1</ele>
        <time>2021-09-15T12:07:26Z</time>
      </trkpt>
      <trkpt lat="48.40545" lon="2.63589">
        <ele>129.64</ele>
        <time>2021-09-15T12:07:40Z</time>
      </trkpt>
      <trkpt lat="48.40546" lon="2.63588">
        <ele>129.64</ele>
        <time>2021-09-15T12:07:41Z</time>
      </trkpt>
      <trkpt lat="48.40548" lon="2.63587">
        <ele>129.64</ele>
        <time>2021-09-15T12:07:42Z</time>
      </trkpt>
      <trkpt lat="48.40552" lon="2.63569">
        <ele>130.36</ele>
        <time>2021-09-15T12:07:55Z</time>
      </trkpt>
      <trkpt lat="48.40556" lon="2.63555">
        <ele>130.01</ele>
        <time>2021-09-15T12:08:11Z</time>
      </trkpt>
      <trkpt lat="48.40559" lon="2.63559">
        <ele>129.86</ele>
        <time>2021-09-15T12:08:25Z</time>
      </trkpt>
      <trkpt lat="48.40558" lon="2.63551">
        <ele>129.7</ele>
        <time>2021-09-15T12:08:31Z</time>
      </trkpt>
      <trkpt lat="48.40548" lon="2.63537">
        <ele>130.06</ele>
        <time>2021-09-15T12:08:45Z</time>
      </trkpt>
      <trkpt lat="48.40545" lon="2.63528">
        <ele>131.9</ele>
        <time>2021-09-15T12:08:58Z</time>
      </trkpt>
      <trkpt lat="48.40556" lon="2.63509">
        <ele>132.63</ele>
        <time>2021-09-15T12:09:17Z</time>
      </trkpt>
      <trkpt lat="48.40555" lon="2.63486">
        <ele>132.62</ele>
        <time>2021-09-15T12:09:32Z</time>
      </trkpt>
      <trkpt lat="48.40556" lon="2.63484">
        <ele>132.84</ele>
        <time>2021-09-15T12:09:33Z</time>
      </trkpt>
      <trkpt lat="48.40559" lon="2.63479">
        <ele>133.5</ele>
        <time>2021-09-15T12:09:37Z</time>
      </trkpt>
      <trkpt lat="48.40561" lon="2.6346">
        <ele>132.84</ele>
        <time>2021-09-15T12:09:47Z</time>
      </trkpt>
      <trkpt lat="48.40562" lon="2.63458">
        <ele>132.89</ele>
        <time>2021-09-15T12:09:48Z</time>
      </trkpt>
      <trkpt lat="48.40562" lon="2.63448">
        <ele>133.15</ele>
        <time>2021-09-15T12:09:59Z</time>
      </trkpt>
      <trkpt lat="48.40559" lon="2.63436">
        <ele>133.45</ele>
        <time>2021-09-15T12:10:17Z</time>
      </trkpt>
      <trkpt lat="48.4056" lon="2.63432">
        <ele>133.42</ele>
        <time>2021-09-15T12:10:19Z</time>
      </trkpt>
      <trkpt lat="48.4056" lon="2.63421">
        <ele>134.16</ele>
        <time>2021-09-15T12:10:34Z</time>
      </trkpt>
      <trkpt lat="48.40558" lon="2.6342">
        <ele>134.05</ele>
        <time>2021-09-15T12:10:47Z</time>
      </trkpt>
      <trkpt lat="48.40559" lon="2.63412">
        <ele>134.13</ele>
        <time>2021-09-15T12:10:55Z</time>
      </trkpt>
      <trkpt lat="48.40562" lon="2.63406">
        <ele>133.96</ele>
        <time>2021-09-15T12:11:01Z</time>
      </trkpt>
      <trkpt lat="48.40565" lon="2.63391">
        <ele>133.75</ele>
        <time>2021-09-15T12:11:12Z</time>
      </trkpt>
      <trkpt lat="48.40566" lon="2.63386">
        <ele>133.91</ele>
        <time>2021-09-15T12:11:16Z</time>
      </trkpt>
      <trkpt lat="48.40567" lon="2.63384">
        <ele>133.91</ele>
        <time>2021-09-15T12:11:17Z</time>
      </trkpt>
      <trkpt lat="48.40575" lon="2.6337">
        <ele>133.77</ele>
        <time>2021-09-15T12:11:31Z</time>
      </trkpt>
      <trkpt lat="48.40577" lon="2.63371">
        <ele>134.02</ele>
        <time>2021-09-15T12:11:55Z</time>
      </trkpt>
      <trkpt lat="48.40582" lon="2.63362">
        <ele>133.7</ele>
        <time>2021-09-15T12:12:21Z</time>
      </trkpt>
      <trkpt lat="48.40584" lon="2.63359">
        <ele>133.7</ele>
        <time>2021-09-15T12:12:25Z</time>
      </trkpt>
      <trkpt lat="48.40585" lon="2.63358">
        <ele>133.7</ele>
        <time>2021-09-15T12:12:26Z</time>
      </trkpt>
      <trkpt lat="48.40587" lon="2.63355">
        <ele>133.78</ele>
        <time>2021-09-15T12:12:29Z</time>
      </trkpt>
      <trkpt lat="48.40588" lon="2.63354">
        <ele>133.84</ele>
        <time>2021-09-15T12:12:30Z</time>
      </trkpt>
      <trkpt lat="48.40599" lon="2.63333">
        <ele>133.63</ele>
        <time>2021-09-15T12:12:47Z</time>
      </trkpt>
      <trkpt lat="48.40604" lon="2.63317">
        <ele>132.16</ele>
        <time>2021-09-15T12:13:02Z</time>
      </trkpt>
      <trkpt lat="48.40609" lon="2.63285">
        <ele>131.19</ele>
        <time>2021-09-15T12:13:22Z</time>
      </trkpt>
      <trkpt lat="48.40611" lon="2.63254">
        <ele>130.75</ele>
        <time>2021-09-15T12:13:44Z</time>
      </trkpt>
      <trkpt lat="48.40619" lon="2.63224">
        <ele>129.6</ele>
        <time>2021-09-15T12:14:04Z</time>
      </trkpt>
      <trkpt lat="48.40615" lon="2.63192">
        <ele>130.08</ele>
        <time>2021-09-15T12:14:23Z</time>
      </trkpt>
      <trkpt lat="48.40611" lon="2.63188">
        <ele>129.35</ele>
        <time>2021-09-15T12:14:39Z</time>
      </trkpt>
      <trkpt lat="48.40607" lon="2.63174">
        <ele>129.01</ele>
        <time>2021-09-15T12:14:51Z</time>
      </trkpt>
      <trkpt lat="48.40604" lon="2.63149">
        <ele>128.59</ele>
        <time>2021-09-15T12:15:09Z</time>
      </trkpt>
      <trkpt lat="48.40593" lon="2.63135">
        <ele>129.09</ele>
        <time>2021-09-15T12:15:24Z</time>
      </trkpt>
      <trkpt lat="48.40589" lon="2.63135">
        <ele>128.41</ele>
        <time>2021-09-15T12:15:43Z</time>
      </trkpt>
      <trkpt lat="48.40583" lon="2.63135">
        <ele>128.37</ele>
        <time>2021-09-15T12:16:07Z</time>
      </trkpt>
      <trkpt lat="48.40569" lon="2.63142">
        <ele>128.7</ele>
        <time>2021-09-15T12:16:25Z</time>
      </trkpt>
      <trkpt lat="48.40552" lon="2.63153">
        <ele>128.51</ele>
        <time>2021-09-15T12:16:41Z</time>
      </trkpt>
      <trkpt lat="48.40535" lon="2.63165">
        <ele>128.05</ele>
        <time>2021-09-15T12:16:58Z</time>
      </trkpt>
      <trkpt lat="48.40534" lon="2.63166">
        <ele>128.05</ele>
        <time>2021-09-15T12:16:59Z</time>
      </trkpt>
      <trkpt lat="48.40524" lon="2.63171">
        <ele>128.47</ele>
        <time>2021-09-15T12:17:12Z</time>
      </trkpt>
      <trkpt lat="48.40511" lon="2.63185">
        <ele>129.14</ele>
        <time>2021-09-15T12:17:30Z</time>
      </trkpt>
      <trkpt lat="48.40503" lon="2.63218">
        <ele>129.73</ele>
        <time>2021-09-15T12:17:52Z</time>
      </trkpt>
      <trkpt lat="48.40503" lon="2.63222">
        <ele>129.79</ele>
        <time>2021-09-15T12:17:54Z</time>
      </trkpt>
      <trkpt lat="48.40502" lon="2.63224">
        <ele>129.85</ele>
        <time>2021-09-15T12:17:55Z</time>
      </trkpt>
      <trkpt lat="48.40495" lon="2.63254">
        <ele>129.8</ele>
        <time>2021-09-15T12:18:14Z</time>
      </trkpt>
      <trkpt lat="48.40491" lon="2.6329">
        <ele>130.56</ele>
        <time>2021-09-15T12:18:35Z</time>
      </trkpt>
      <trkpt lat="48.40486" lon="2.6333">
        <ele>131.2</ele>
        <time>2021-09-15T12:18:59Z</time>
      </trkpt>
      <trkpt lat="48.40483" lon="2.63362">
        <ele>131.07</ele>
        <time>2021-09-15T12:19:22Z</time>
      </trkpt>
      <trkpt lat="48.40481" lon="2.63404">
        <ele>131.9</ele>
        <time>2021-09-15T12:19:44Z</time>
      </trkpt>
      <trkpt lat="48.40479" lon="2.63419">
        <ele>131.73</ele>
        <time>2021-09-15T12:19:54Z</time>
      </trkpt>
      <trkpt lat="48.40478" lon="2.63447">
        <ele>132.19</ele>
        <time>2021-09-15T12:20:09Z</time>
      </trkpt>
      <trkpt lat="48.40479" lon="2.63448">
        <ele>132.19</ele>
        <time>2021-09-15T12:20:10Z</time>
      </trkpt>
      <trkpt lat="48.40491" lon="2.63475">
        <ele>131.71</ele>
        <time>2021-09-15T12:20:33Z</time>
      </trkpt>
      <trkpt lat="48.40494" lon="2.63484">
        <ele>131.78</ele>
        <time>2021-09-15T12:20:39Z</time>
      </trkpt>
      <trkpt lat="48.40501" lon="2.63496">
        <ele>132.57</ele>
        <time>2021-09-15T12:20:48Z</time>
      </trkpt>
      <trkpt lat="48.40513" lon="2.63518">
        <ele>133.73</ele>
        <time>2021-09-15T12:21:06Z</time>
      </trkpt>
      <trkpt lat="48.40525" lon="2.63524">
        <ele>134</ele>
        <time>2021-09-15T12:21:16Z</time>
      </trkpt>
      <trkpt lat="48.40538" lon="2.63538">
        <ele>134.15</ele>
        <time>2021-09-15T12:21:31Z</time>
      </trkpt>
      <trkpt lat="48.40546" lon="2.63548">
        <ele>132.9</ele>
        <time>2021-09-15T12:21:41Z</time>
      </trkpt>
      <trkpt lat="48.40556" lon="2.63562">
        <ele>131.6</ele>
        <time>2021-09-15T12:21:51Z</time>
      </trkpt>
      <trkpt lat="48.40557" lon="2.63564">
        <ele>131.61</ele>
        <time>2021-09-15T12:21:52Z</time>
      </trkpt>
      <trkpt lat="48.40571" lon="2.6358">
        <ele>131.69</ele>
        <time>2021-09-15T12:22:08Z</time>
      </trkpt>
      <trkpt lat="48.40583" lon="2.63593">
        <ele>131.33</ele>
        <time>2021-09-15T12:22:22Z</time>
      </trkpt>
      <trkpt lat="48.40584" lon="2.63595">
        <ele>131.22</ele>
        <time>2021-09-15T12:22:23Z</time>
      </trkpt>
      <trkpt lat="48.40585" lon="2.63596">
        <ele>131.12</ele>
        <time>2021-09-15T12:22:24Z</time>
      </trkpt>
      <trkpt lat="48.40589" lon="2.63624">
        <ele>130.65</ele>
        <time>2021-09-15T12:22:45Z</time>
      </trkpt>
      <trkpt lat="48.40588" lon="2.63632">
        <ele>129.16</ele>
        <time>2021-09-15T12:22:50Z</time>
      </trkpt>
      <trkpt lat="48.40585" lon="2.6366">
        <ele>131.13</ele>
        <time>2021-09-15T12:23:07Z</time>
      </trkpt>
      <trkpt lat="48.40581" lon="2.63691">
        <ele>131.18</ele>
        <time>2021-09-15T12:23:25Z</time>
      </trkpt>
      <trkpt lat="48.4058" lon="2.63699">
        <ele>131.3</ele>
        <time>2021-09-15T12:23:28Z</time>
      </trkpt>
      <trkpt lat="48.40579" lon="2.63702">
        <ele>131.27</ele>
        <time>2021-09-15T12:23:29Z</time>
      </trkpt>
      <trkpt lat="48.40579" lon="2.63732">
        <ele>132.45</ele>
        <time>2021-09-15T12:23:44Z</time>
      </trkpt>
      <trkpt lat="48.40577" lon="2.63751">
        <ele>133.02</ele>
        <time>2021-09-15T12:23:57Z</time>
      </trkpt>
      <trkpt lat="48.40577" lon="2.63759">
        <ele>133.11</ele>
        <time>2021-09-15T12:24:22Z</time>
      </trkpt>
      <trkpt lat="48.40576" lon="2.63771">
        <ele>132.77</ele>
        <time>2021-09-15T12:24:30Z</time>
      </trkpt>
      <trkpt lat="48.40573" lon="2.638">
        <ele>132.99</ele>
        <time>2021-09-15T12:24:47Z</time>
      </trkpt>
      <trkpt lat="48.40577" lon="2.63821">
        <ele>133.16</ele>
        <time>2021-09-15T12:25:01Z</time>
      </trkpt>
      <trkpt lat="48.40579" lon="2.63852">
        <ele>132.87</ele>
        <time>2021-09-15T12:25:19Z</time>
      </trkpt>
      <trkpt lat="48.4058" lon="2.63855">
        <ele>132.83</ele>
        <time>2021-09-15T12:25:20Z</time>
      </trkpt>
      <trkpt lat="48.40585" lon="2.63875">
        <ele>132.3</ele>
        <time>2021-09-15T12:25:32Z</time>
      </trkpt>
      <trkpt lat="48.40587" lon="2.63878">
        <ele>132.27</ele>
        <time>2021-09-15T12:25:34Z</time>
      </trkpt>
      <trkpt lat="48.4059" lon="2.63891">
        <ele>131.92</ele>
        <time>2021-09-15T12:25:49Z</time>
      </trkpt>
      <trkpt lat="48.40592" lon="2.639">
        <ele>131.72</ele>
        <time>2021-09-15T12:26:05Z</time>
      </trkpt>
      <trkpt lat="48.40593" lon="2.63901">
        <ele>131.53</ele>
        <time>2021-09-15T12:26:06Z</time>
      </trkpt>
      <trkpt lat="48.40595" lon="2.63905">
        <ele>130.96</ele>
        <time>2021-09-15T12:26:09Z</time>
      </trkpt>
      <trkpt lat="48.40595" lon="2.63906">
        <ele>130.71</ele>
        <time>2021-09-15T12:26:10Z</time>
      </trkpt>
      <trkpt lat="48.40599" lon="2.63926">
        <ele>130.12</ele>
        <time>2021-09-15T12:26:25Z</time>
      </trkpt>
      <trkpt lat="48.40602" lon="2.63947">
        <ele>130.53</ele>
        <time>2021-09-15T12:26:36Z</time>
      </trkpt>
      <trkpt lat="48.40604" lon="2.63959">
        <ele>130.73</ele>
        <time>2021-09-15T12:26:42Z</time>
      </trkpt>
      <trkpt lat="48.40605" lon="2.63961">
        <ele>130.67</ele>
        <time>2021-09-15T12:26:43Z</time>
      </trkpt>
      <trkpt lat="48.4061" lon="2.63984">
        <ele>130.61</ele>
        <time>2021-09-15T12:26:59Z</time>
      </trkpt>
      <trkpt lat="48.40614" lon="2.64">
        <ele>132.69</ele>
        <time>2021-09-15T12:27:08Z</time>
      </trkpt>
      <trkpt lat="48.40618" lon="2.64025">
        <ele>131.63</ele>
        <time>2021-09-15T12:27:24Z</time>
      </trkpt>
      <trkpt lat="48.40627" lon="2.64057">
        <ele>130.62</ele>
        <time>2021-09-15T12:27:47Z</time>
      </trkpt>
      <trkpt lat="48.40634" lon="2.64084">
        <ele>130.73</ele>
        <time>2021-09-15T12:28:03Z</time>
      </trkpt>
      <trkpt lat="48.40634" lon="2.64086">
        <ele>130.76</ele>
        <time>2021-09-15T12:28:04Z</time>
      </trkpt>
      <trkpt lat="48.40634" lon="2.64088">
        <ele>130.8</ele>
        <time>2021-09-15T12:28:05Z</time>
      </trkpt>
      <trkpt lat="48.40634" lon="2.64107">
        <ele>131.04</ele>
        <time>2021-09-15T12:28:15Z</time>
      </trkpt>
      <trkpt lat="48.40638" lon="2.64131">
        <ele>131.54</ele>
        <time>2021-09-15T12:28:30Z</time>
      </trkpt>
      <trkpt lat="48.40648" lon="2.64161">
        <ele>132.57</ele>
        <time>2021-09-15T12:28:52Z</time>
      </trkpt>
      <trkpt lat="48.40652" lon="2.64186">
        <ele>133.49</ele>
        <time>2021-09-15T12:29:05Z</time>
      </trkpt>
      <trkpt lat="48.40654" lon="2.6421">
        <ele>133.63</ele>
        <time>2021-09-15T12:29:19Z</time>
      </trkpt>
      <trkpt lat="48.40652" lon="2.64222">
        <ele>133.4</ele>
        <time>2021-09-15T12:29:25Z</time>
      </trkpt>
      <trkpt lat="48.40651" lon="2.64254">
        <ele>133.78</ele>
        <time>2021-09-15T12:29:41Z</time>
      </trkpt>
      <trkpt lat="48.40648" lon="2.64257">
        <ele>133.76</ele>
        <time>2021-09-15T12:29:44Z</time>
      </trkpt>
      <trkpt lat="48.40636" lon="2.64269">
        <ele>132.86</ele>
        <time>2021-09-15T12:29:59Z</time>
      </trkpt>
      <trkpt lat="48.40633" lon="2.64277">
        <ele>133.3</ele>
        <time>2021-09-15T12:30:04Z</time>
      </trkpt>
      <trkpt lat="48.40632" lon="2.64279">
        <ele>133.15</ele>
        <time>2021-09-15T12:30:05Z</time>
      </trkpt>
      <trkpt lat="48.40631" lon="2.64285">
        <ele>132.44</ele>
        <time>2021-09-15T12:30:09Z</time>
      </trkpt>
      <trkpt lat="48.40631" lon="2.64287">
        <ele>132.15</ele>
        <time>2021-09-15T12:30:10Z</time>
      </trkpt>
      <trkpt lat="48.40632" lon="2.64298">
        <ele>130.53</ele>
        <time>2021-09-15T12:30:26Z</time>
      </trkpt>
      <trkpt lat="48.40633" lon="2.64311">
        <ele>129.17</ele>
        <time>2021-09-15T12:30:49Z</time>
      </trkpt>
      <trkpt lat="48.40633" lon="2.64315">
        <ele>128.82</ele>
        <time>2021-09-15T12:31:17Z</time>
      </trkpt>
      <trkpt lat="48.40631" lon="2.6433">
        <ele>127.96</ele>
        <time>2021-09-15T12:31:32Z</time>
      </trkpt>
      <trkpt lat="48.4063" lon="2.64332">
        <ele>127.74</ele>
        <time>2021-09-15T12:31:33Z</time>
      </trkpt>
      <trkpt lat="48.4063" lon="2.64333">
        <ele>127.62</ele>
        <time>2021-09-15T12:31:34Z</time>
      </trkpt>
      <trkpt lat="48.40629" lon="2.64335">
        <ele>127.55</ele>
        <time>2021-09-15T12:31:35Z</time>
      </trkpt>
      <trkpt lat="48.40629" lon="2.64337">
        <ele>127.52</ele>
        <time>2021-09-15T12:31:36Z</time>
      </trkpt>
      <trkpt lat="48.40629" lon="2.64338">
        <ele>127.62</ele>
        <time>2021-09-15T12:31:37Z</time>
      </trkpt>
      <trkpt lat="48.40628" lon="2.6434">
        <ele>127.71</ele>
        <time>2021-09-15T12:31:38Z</time>
      </trkpt>
      <trkpt lat="48.40627" lon="2.64342">
        <ele>127.76</ele>
        <time>2021-09-15T12:31:39Z</time>
      </trkpt>
      <trkpt lat="48.40627" lon="2.64345">
        <ele>127.75</ele>
        <time>2021-09-15T12:31:41Z</time>
      </trkpt>
      <trkpt lat="48.40628" lon="2.64372">
        <ele>125.61</ele>
        <time>2021-09-15T12:31:58Z</time>
      </trkpt>
      <trkpt lat="48.40631" lon="2.64393">
        <ele>122.53</ele>
        <time>2021-09-15T12:32:14Z</time>
      </trkpt>
      <trkpt lat="48.40625" lon="2.64417">
        <ele>120.68</ele>
        <time>2021-09-15T12:32:38Z</time>
      </trkpt>
      <trkpt lat="48.40622" lon="2.64423">
        <ele>120.74</ele>
        <time>2021-09-15T12:32:43Z</time>
      </trkpt>
      <trkpt lat="48.40622" lon="2.64424">
        <ele>120.72</ele>
        <time>2021-09-15T12:32:44Z</time>
      </trkpt>
      <trkpt lat="48.40619" lon="2.64426">
        <ele>120.5</ele>
        <time>2021-09-15T12:32:47Z</time>
      </trkpt>
      <trkpt lat="48.40607" lon="2.64446">
        <ele>119.47</ele>
        <time>2021-09-15T12:33:02Z</time>
      </trkpt>
      <trkpt lat="48.40597" lon="2.64485">
        <ele>117.77</ele>
        <time>2021-09-15T12:33:27Z</time>
      </trkpt>
      <trkpt lat="48.40597" lon="2.64495">
        <ele>117.75</ele>
        <time>2021-09-15T12:33:33Z</time>
      </trkpt>
      <trkpt lat="48.40597" lon="2.64497">
        <ele>117.65</ele>
        <time>2021-09-15T12:33:34Z</time>
      </trkpt>
      <trkpt lat="48.40597" lon="2.64498">
        <ele>117.52</ele>
        <time>2021-09-15T12:33:35Z</time>
      </trkpt>
      <trkpt lat="48.40609" lon="2.6454">
        <ele>115.71</ele>
        <time>2021-09-15T12:33:59Z</time>
      </trkpt>
      <trkpt lat="48.40616" lon="2.6459">
        <ele>114.79</ele>
        <time>2021-09-15T12:34:27Z</time>
      </trkpt>
      <trkpt lat="48.40621" lon="2.64627">
        <ele>113.08</ele>
        <time>2021-09-15T12:34:51Z</time>
      </trkpt>
      <trkpt lat="48.40621" lon="2.64629">
        <ele>113.05</ele>
        <time>2021-09-15T12:34:52Z</time>
      </trkpt>
      <trkpt lat="48.40614" lon="2.6467">
        <ele>112.16</ele>
        <time>2021-09-15T12:35:14Z</time>
      </trkpt>
      <trkpt lat="48.40604" lon="2.647">
        <ele>111.69</ele>
        <time>2021-09-15T12:35:28Z</time>
      </trkpt>
      <trkpt lat="48.40601" lon="2.64724">
        <ele>111.39</ele>
        <time>2021-09-15T12:35:42Z</time>
      </trkpt>
      <trkpt lat="48.40591" lon="2.64754">
        <ele>111.23</ele>
        <time>2021-09-15T12:35:57Z</time>
      </trkpt>
      <trkpt lat="48.40586" lon="2.64777">
        <ele>110.55</ele>
        <time>2021-09-15T12:36:11Z</time>
      </trkpt>
      <trkpt lat="48.40577" lon="2.64788">
        <ele>111.93</ele>
        <time>2021-09-15T12:36:32Z</time>
      </trkpt>
      <trkpt lat="48.40565" lon="2.64784">
        <ele>110.96</ele>
        <time>2021-09-15T12:36:52Z</time>
      </trkpt>
      <trkpt lat="48.40548" lon="2.6478">
        <ele>109.77</ele>
        <time>2021-09-15T12:37:08Z</time>
      </trkpt>
      <trkpt lat="48.40547" lon="2.64779">
        <ele>110.34</ele>
        <time>2021-09-15T12:37:09Z</time>
      </trkpt>
      <trkpt lat="48.40534" lon="2.64776">
        <ele>113.35</ele>
        <time>2021-09-15T12:37:19Z</time>
      </trkpt>
      <trkpt lat="48.40517" lon="2.64775">
        <ele>112.44</ele>
        <time>2021-09-15T12:37:34Z</time>
      </trkpt>
      <trkpt lat="48.40506" lon="2.64768">
        <ele>114.51</ele>
        <time>2021-09-15T12:37:46Z</time>
      </trkpt>
      <trkpt lat="48.40488" lon="2.64752">
        <ele>115.69</ele>
        <time>2021-09-15T12:38:09Z</time>
      </trkpt>
      <trkpt lat="48.40471" lon="2.64745">
        <ele>117.71</ele>
        <time>2021-09-15T12:38:28Z</time>
      </trkpt>
      <trkpt lat="48.40452" lon="2.64728">
        <ele>120.87</ele>
        <time>2021-09-15T12:38:50Z</time>
      </trkpt>
      <trkpt lat="48.40442" lon="2.64724">
        <ele>124</ele>
        <time>2021-09-15T12:39:05Z</time>
      </trkpt>
      <trkpt lat="48.40427" lon="2.64707">
        <ele>126.61</ele>
        <time>2021-09-15T12:39:27Z</time>
      </trkpt>
      <trkpt lat="48.40421" lon="2.64699">
        <ele>129.69</ele>
        <time>2021-09-15T12:39:35Z</time>
      </trkpt>
      <trkpt lat="48.40408" lon="2.64685">
        <ele>130.49</ele>
        <time>2021-09-15T12:39:56Z</time>
      </trkpt>
      <trkpt lat="48.40403" lon="2.64676">
        <ele>128.04</ele>
        <time>2021-09-15T12:40:09Z</time>
      </trkpt>
      <trkpt lat="48.40393" lon="2.6466">
        <ele>128.54</ele>
        <time>2021-09-15T12:40:25Z</time>
      </trkpt>
      <trkpt lat="48.40391" lon="2.64655">
        <ele>126.87</ele>
        <time>2021-09-15T12:40:30Z</time>
      </trkpt>
      <trkpt lat="48.40379" lon="2.64639">
        <ele>125.84</ele>
        <time>2021-09-15T12:40:47Z</time>
      </trkpt>
      <trkpt lat="48.40369" lon="2.64612">
        <ele>123.48</ele>
        <time>2021-09-15T12:41:09Z</time>
      </trkpt>
      <trkpt lat="48.40368" lon="2.64593">
        <ele>122.94</ele>
        <time>2021-09-15T12:41:21Z</time>
      </trkpt>
      <trkpt lat="48.40368" lon="2.64591">
        <ele>122.92</ele>
        <time>2021-09-15T12:41:22Z</time>
      </trkpt>
      <trkpt lat="48.40367" lon="2.64564">
        <ele>123.22</ele>
        <time>2021-09-15T12:41:36Z</time>
      </trkpt>
      <trkpt lat="48.40367" lon="2.64562">
        <ele>123.23</ele>
        <time>2021-09-15T12:41:37Z</time>
      </trkpt>
      <trkpt lat="48.40363" lon="2.64547">
        <ele>123.55</ele>
        <time>2021-09-15T12:41:47Z</time>
      </trkpt>
      <trkpt lat="48.40363" lon="2.64544">
        <ele>123.55</ele>
        <time>2021-09-15T12:41:48Z</time>
      </trkpt>
      <trkpt lat="48.40363" lon="2.64542">
        <ele>123.55</ele>
        <time>2021-09-15T12:41:49Z</time>
      </trkpt>
      <trkpt lat="48.40353" lon="2.64525">
        <ele>121.35</ele>
        <time>2021-09-15T12:42:06Z</time>
      </trkpt>
      <trkpt lat="48.40342" lon="2.64528">
        <ele>118.15</ele>
        <time>2021-09-15T12:42:21Z</time>
      </trkpt>
      <trkpt lat="48.40329" lon="2.64528">
        <ele>115.97</ele>
        <time>2021-09-15T12:42:32Z</time>
      </trkpt>
      <trkpt lat="48.40325" lon="2.64527">
        <ele>115.63</ele>
        <time>2021-09-15T12:42:36Z</time>
      </trkpt>
      <trkpt lat="48.40317" lon="2.64513">
        <ele>113.49</ele>
        <time>2021-09-15T12:42:47Z</time>
      </trkpt>
      <trkpt lat="48.40313" lon="2.64498">
        <ele>112.03</ele>
        <time>2021-09-15T12:42:56Z</time>
      </trkpt>
      <trkpt lat="48.40312" lon="2.64496">
        <ele>112.01</ele>
        <time>2021-09-15T12:42:57Z</time>
      </trkpt>
      <trkpt lat="48.40312" lon="2.64494">
        <ele>111.99</ele>
        <time>2021-09-15T12:42:58Z</time>
      </trkpt>
      <trkpt lat="48.40311" lon="2.64492">
        <ele>111.94</ele>
        <time>2021-09-15T12:42:59Z</time>
      </trkpt>
      <trkpt lat="48.40311" lon="2.6449">
        <ele>111.85</ele>
        <time>2021-09-15T12:43:00Z</time>
      </trkpt>
      <trkpt lat="48.40303" lon="2.64468">
        <ele>111.51</ele>
        <time>2021-09-15T12:43:18Z</time>
      </trkpt>
      <trkpt lat="48.40304" lon="2.64469">
        <ele>112.04</ele>
        <time>2021-09-15T12:43:46Z</time>
      </trkpt>
      <trkpt lat="48.40306" lon="2.64469">
        <ele>112.04</ele>
        <time>2021-09-15T12:44:22Z</time>
      </trkpt>
      <trkpt lat="48.40308" lon="2.64465">
        <ele>112.04</ele>
        <time>2021-09-15T12:44:54Z</time>
      </trkpt>
      <trkpt lat="48.40303" lon="2.64465">
        <ele>107.88</ele>
        <time>2021-09-15T12:45:26Z</time>
      </trkpt>
      <trkpt lat="48.40303" lon="2.64465">
        <ele>107.88</ele>
        <time>2021-09-15T12:45:27Z</time>
      </trkpt>
      <trkpt lat="48.40303" lon="2.64464">
        <ele>106.2</ele>
        <time>2021-09-15T12:45:29Z</time>
      </trkpt>
      <trkpt lat="48.40302" lon="2.64464">
        <ele>110.07</ele>
        <time>2021-09-15T12:45:31Z</time>
      </trkpt>
      <trkpt lat="48.40302" lon="2.64463">
        <ele>107.81</ele>
        <time>2021-09-15T12:45:34Z</time>
      </trkpt>
      <trkpt lat="48.40302" lon="2.64462">
        <ele>110.72</ele>
        <time>2021-09-15T12:45:37Z</time>
      </trkpt>
      <trkpt lat="48.40301" lon="2.64462">
        <ele>113.34</ele>
        <time>2021-09-15T12:45:53Z</time>
      </trkpt>
      <trkpt lat="48.403" lon="2.64462">
        <ele>111.38</ele>
        <time>2021-09-15T12:46:19Z</time>
      </trkpt>
      <trkpt lat="48.40291" lon="2.64453">
        <ele>110.69</ele>
        <time>2021-09-15T12:46:40Z</time>
      </trkpt>
      <trkpt lat="48.40287" lon="2.64446">
        <ele>113.87</ele>
        <time>2021-09-15T12:46:52Z</time>
      </trkpt>
      <trkpt lat="48.40279" lon="2.64441">
        <ele>116.96</ele>
        <time>2021-09-15T12:47:08Z</time>
      </trkpt>
      <trkpt lat="48.40269" lon="2.6444">
        <ele>120.1</ele>
        <time>2021-09-15T12:47:23Z</time>
      </trkpt>
      <trkpt lat="48.40263" lon="2.64444">
        <ele>123.15</ele>
        <time>2021-09-15T12:47:37Z</time>
      </trkpt>
      <trkpt lat="48.40254" lon="2.64447">
        <ele>126.19</ele>
        <time>2021-09-15T12:47:53Z</time>
      </trkpt>
      <trkpt lat="48.40245" lon="2.64455">
        <ele>129.4</ele>
        <time>2021-09-15T12:48:12Z</time>
      </trkpt>
      <trkpt lat="48.40245" lon="2.64455">
        <ele>129.68</ele>
        <time>2021-09-15T12:48:13Z</time>
      </trkpt>
      <trkpt lat="48.40243" lon="2.64457">
        <ele>129.18</ele>
        <time>2021-09-15T12:48:41Z</time>
      </trkpt>
      <trkpt lat="48.40241" lon="2.64478">
        <ele>129.66</ele>
        <time>2021-09-15T12:49:03Z</time>
      </trkpt>
      <trkpt lat="48.40235" lon="2.64504">
        <ele>129.38</ele>
        <time>2021-09-15T12:49:19Z</time>
      </trkpt>
      <trkpt lat="48.40235" lon="2.64506">
        <ele>129.37</ele>
        <time>2021-09-15T12:49:20Z</time>
      </trkpt>
      <trkpt lat="48.40234" lon="2.64508">
        <ele>129.33</ele>
        <time>2021-09-15T12:49:21Z</time>
      </trkpt>
      <trkpt lat="48.40233" lon="2.64509">
        <ele>129.31</ele>
        <time>2021-09-15T12:49:22Z</time>
      </trkpt>
      <trkpt lat="48.40232" lon="2.64524">
        <ele>128.3</ele>
        <time>2021-09-15T12:49:32Z</time>
      </trkpt>
      <trkpt lat="48.40231" lon="2.64526">
        <ele>128.25</ele>
        <time>2021-09-15T12:49:33Z</time>
      </trkpt>
      <trkpt lat="48.40231" lon="2.64533">
        <ele>128.31</ele>
        <time>2021-09-15T12:49:37Z</time>
      </trkpt>
      <trkpt lat="48.40226" lon="2.64555">
        <ele>127.87</ele>
        <time>2021-09-15T12:49:52Z</time>
      </trkpt>
      <trkpt lat="48.4022" lon="2.64582">
        <ele>127.83</ele>
        <time>2021-09-15T12:50:10Z</time>
      </trkpt>
      <trkpt lat="48.4021" lon="2.64605">
        <ele>127.39</ele>
        <time>2021-09-15T12:50:27Z</time>
      </trkpt>
      <trkpt lat="48.40196" lon="2.64636">
        <ele>127.9</ele>
        <time>2021-09-15T12:50:49Z</time>
      </trkpt>
      <trkpt lat="48.4018" lon="2.64669">
        <ele>128.21</ele>
        <time>2021-09-15T12:51:15Z</time>
      </trkpt>
      <trkpt lat="48.4017" lon="2.6469">
        <ele>125.64</ele>
        <time>2021-09-15T12:51:30Z</time>
      </trkpt>
      <trkpt lat="48.40163" lon="2.64701">
        <ele>127.94</ele>
        <time>2021-09-15T12:51:37Z</time>
      </trkpt>
      <trkpt lat="48.40152" lon="2.6472">
        <ele>129.32</ele>
        <time>2021-09-15T12:51:51Z</time>
      </trkpt>
      <trkpt lat="48.40141" lon="2.64748">
        <ele>128.41</ele>
        <time>2021-09-15T12:52:11Z</time>
      </trkpt>
      <trkpt lat="48.40133" lon="2.64775">
        <ele>128.32</ele>
        <time>2021-09-15T12:52:30Z</time>
      </trkpt>
      <trkpt lat="48.40126" lon="2.64799">
        <ele>128.19</ele>
        <time>2021-09-15T12:52:47Z</time>
      </trkpt>
      <trkpt lat="48.40126" lon="2.64801">
        <ele>128.17</ele>
        <time>2021-09-15T12:52:48Z</time>
      </trkpt>
      <trkpt lat="48.40124" lon="2.64803">
        <ele>129.3</ele>
        <time>2021-09-15T12:53:22Z</time>
      </trkpt>
      <trkpt lat="48.40123" lon="2.64805">
        <ele>129.3</ele>
        <time>2021-09-15T12:53:25Z</time>
      </trkpt>
      <trkpt lat="48.40119" lon="2.64811">
        <ele>129.2</ele>
        <time>2021-09-15T12:53:42Z</time>
      </trkpt>
      <trkpt lat="48.40115" lon="2.6483">
        <ele>128.92</ele>
        <time>2021-09-15T12:54:09Z</time>
      </trkpt>
      <trkpt lat="48.40118" lon="2.64867">
        <ele>129.15</ele>
        <time>2021-09-15T12:54:34Z</time>
      </trkpt>
      <trkpt lat="48.40119" lon="2.64869">
        <ele>129.14</ele>
        <time>2021-09-15T12:54:35Z</time>
      </trkpt>
      <trkpt lat="48.40121" lon="2.64904">
        <ele>128.3</ele>
        <time>2021-09-15T12:55:02Z</time>
      </trkpt>
      <trkpt lat="48.40109" lon="2.64941">
        <ele>128.25</ele>
        <time>2021-09-15T12:55:23Z</time>
      </trkpt>
      <trkpt lat="48.40102" lon="2.64973">
        <ele>128.05</ele>
        <time>2021-09-15T12:55:45Z</time>
      </trkpt>
      <trkpt lat="48.40103" lon="2.65013">
        <ele>127.95</ele>
        <time>2021-09-15T12:56:08Z</time>
      </trkpt>
      <trkpt lat="48.401" lon="2.65052">
        <ele>126.85</ele>
        <time>2021-09-15T12:56:33Z</time>
      </trkpt>
      <trkpt lat="48.40092" lon="2.65078">
        <ele>126.36</ele>
        <time>2021-09-15T12:56:49Z</time>
      </trkpt>
      <trkpt lat="48.40087" lon="2.65103">
        <ele>126.03</ele>
        <time>2021-09-15T12:57:08Z</time>
      </trkpt>
      <trkpt lat="48.40076" lon="2.6514">
        <ele>126.69</ele>
        <time>2021-09-15T12:57:32Z</time>
      </trkpt>
      <trkpt lat="48.40066" lon="2.65188">
        <ele>127.1</ele>
        <time>2021-09-15T12:58:00Z</time>
      </trkpt>
      <trkpt lat="48.4006" lon="2.65216">
        <ele>127.17</ele>
        <time>2021-09-15T12:58:22Z</time>
      </trkpt>
      <trkpt lat="48.40046" lon="2.65254">
        <ele>127.67</ele>
        <time>2021-09-15T12:58:45Z</time>
      </trkpt>
      <trkpt lat="48.40043" lon="2.65283">
        <ele>128.21</ele>
        <time>2021-09-15T12:59:01Z</time>
      </trkpt>
      <trkpt lat="48.40043" lon="2.65286">
        <ele>128.3</ele>
        <time>2021-09-15T12:59:02Z</time>
      </trkpt>
      <trkpt lat="48.40044" lon="2.65287">
        <ele>128.44</ele>
        <time>2021-09-15T12:59:03Z</time>
      </trkpt>
      <trkpt lat="48.40044" lon="2.65311">
        <ele>128.54</ele>
        <time>2021-09-15T12:59:21Z</time>
      </trkpt>
      <trkpt lat="48.40034" lon="2.65345">
        <ele>127.54</ele>
        <time>2021-09-15T12:59:41Z</time>
      </trkpt>
      <trkpt lat="48.40033" lon="2.65382">
        <ele>127.29</ele>
        <time>2021-09-15T13:00:02Z</time>
      </trkpt>
      <trkpt lat="48.40026" lon="2.65411">
        <ele>127.3</ele>
        <time>2021-09-15T13:00:23Z</time>
      </trkpt>
      <trkpt lat="48.40017" lon="2.6542">
        <ele>127.99</ele>
        <time>2021-09-15T13:00:32Z</time>
      </trkpt>
      <trkpt lat="48.40016" lon="2.65421">
        <ele>127.99</ele>
        <time>2021-09-15T13:00:33Z</time>
      </trkpt>
      <trkpt lat="48.40014" lon="2.65422">
        <ele>127.99</ele>
        <time>2021-09-15T13:00:34Z</time>
      </trkpt>
      <trkpt lat="48.4001" lon="2.65423">
        <ele>127.98</ele>
        <time>2021-09-15T13:00:38Z</time>
      </trkpt>
      <trkpt lat="48.39999" lon="2.65438">
        <ele>127.93</ele>
        <time>2021-09-15T13:00:54Z</time>
      </trkpt>
      <trkpt lat="48.39996" lon="2.65443">
        <ele>126.57</ele>
        <time>2021-09-15T13:00:58Z</time>
      </trkpt>
      <trkpt lat="48.3999" lon="2.65462">
        <ele>127</ele>
        <time>2021-09-15T13:01:14Z</time>
      </trkpt>
      <trkpt lat="48.39985" lon="2.65475">
        <ele>125.65</ele>
        <time>2021-09-15T13:01:28Z</time>
      </trkpt>
      <trkpt lat="48.39986" lon="2.65484">
        <ele>124.95</ele>
        <time>2021-09-15T13:01:40Z</time>
      </trkpt>
      <trkpt lat="48.39989" lon="2.65503">
        <ele>124.73</ele>
        <time>2021-09-15T13:01:55Z</time>
      </trkpt>
      <trkpt lat="48.3999" lon="2.65505">
        <ele>124.73</ele>
        <time>2021-09-15T13:01:56Z</time>
      </trkpt>
      <trkpt lat="48.39991" lon="2.65515">
        <ele>126.07</ele>
        <time>2021-09-15T13:02:05Z</time>
      </trkpt>
      <trkpt lat="48.39996" lon="2.6552">
        <ele>127.4</ele>
        <time>2021-09-15T13:02:22Z</time>
      </trkpt>
      <trkpt lat="48.39999" lon="2.65529">
        <ele>126.05</ele>
        <time>2021-09-15T13:02:37Z</time>
      </trkpt>
      <trkpt lat="48.40004" lon="2.65544">
        <ele>125.87</ele>
        <time>2021-09-15T13:02:57Z</time>
      </trkpt>
      <trkpt lat="48.40011" lon="2.65548">
        <ele>122.77</ele>
        <time>2021-09-15T13:03:09Z</time>
      </trkpt>
      <trkpt lat="48.40014" lon="2.65547">
        <ele>121.41</ele>
        <time>2021-09-15T13:03:12Z</time>
      </trkpt>
      <trkpt lat="48.40018" lon="2.65547">
        <ele>120.4</ele>
        <time>2021-09-15T13:03:16Z</time>
      </trkpt>
      <trkpt lat="48.4002" lon="2.65547">
        <ele>120.16</ele>
        <time>2021-09-15T13:03:17Z</time>
      </trkpt>
      <trkpt lat="48.40021" lon="2.65547">
        <ele>119.9</ele>
        <time>2021-09-15T13:03:18Z</time>
      </trkpt>
      <trkpt lat="48.40028" lon="2.65546">
        <ele>116.82</ele>
        <time>2021-09-15T13:03:27Z</time>
      </trkpt>
      <trkpt lat="48.40027" lon="2.65543">
        <ele>115.95</ele>
        <time>2021-09-15T13:03:47Z</time>
      </trkpt>
      <trkpt lat="48.40036" lon="2.65548">
        <ele>114.91</ele>
        <time>2021-09-15T13:04:04Z</time>
      </trkpt>
      <trkpt lat="48.4004" lon="2.65545">
        <ele>114.04</ele>
        <time>2021-09-15T13:04:10Z</time>
      </trkpt>
      <trkpt lat="48.40045" lon="2.65546">
        <ele>112.79</ele>
        <time>2021-09-15T13:04:22Z</time>
      </trkpt>
      <trkpt lat="48.40044" lon="2.65552">
        <ele>111.31</ele>
        <time>2021-09-15T13:04:36Z</time>
      </trkpt>
      <trkpt lat="48.40046" lon="2.65562">
        <ele>111.52</ele>
        <time>2021-09-15T13:04:47Z</time>
      </trkpt>
      <trkpt lat="48.40055" lon="2.65571">
        <ele>108.98</ele>
        <time>2021-09-15T13:05:02Z</time>
      </trkpt>
      <trkpt lat="48.4006" lon="2.6556">
        <ele>108.79</ele>
        <time>2021-09-15T13:05:17Z</time>
      </trkpt>
      <trkpt lat="48.40067" lon="2.65538">
        <ele>105.77</ele>
        <time>2021-09-15T13:05:37Z</time>
      </trkpt>
      <trkpt lat="48.40079" lon="2.65529">
        <ele>104.17</ele>
        <time>2021-09-15T13:05:57Z</time>
      </trkpt>
      <trkpt lat="48.40081" lon="2.65529">
        <ele>103.92</ele>
        <time>2021-09-15T13:05:59Z</time>
      </trkpt>
      <trkpt lat="48.40083" lon="2.65528">
        <ele>103.68</ele>
        <time>2021-09-15T13:06:00Z</time>
      </trkpt>
      <trkpt lat="48.40085" lon="2.65527">
        <ele>103.4</ele>
        <time>2021-09-15T13:06:01Z</time>
      </trkpt>
      <trkpt lat="48.40086" lon="2.65527">
        <ele>103.12</ele>
        <time>2021-09-15T13:06:02Z</time>
      </trkpt>
      <trkpt lat="48.40088" lon="2.65527">
        <ele>102.83</ele>
        <time>2021-09-15T13:06:03Z</time>
      </trkpt>
      <trkpt lat="48.40089" lon="2.65528">
        <ele>102.18</ele>
        <time>2021-09-15T13:06:04Z</time>
      </trkpt>
      <trkpt lat="48.40091" lon="2.65528">
        <ele>101.77</ele>
        <time>2021-09-15T13:06:05Z</time>
      </trkpt>
      <trkpt lat="48.40093" lon="2.65528">
        <ele>101.36</ele>
        <time>2021-09-15T13:06:06Z</time>
      </trkpt>
      <trkpt lat="48.40095" lon="2.65527">
        <ele>100.93</ele>
        <time>2021-09-15T13:06:07Z</time>
      </trkpt>
      <trkpt lat="48.40107" lon="2.65518">
        <ele>97.78</ele>
        <time>2021-09-15T13:06:15Z</time>
      </trkpt>
      <trkpt lat="48.40114" lon="2.65501">
        <ele>95.38</ele>
        <time>2021-09-15T13:06:29Z</time>
      </trkpt>
      <trkpt lat="48.40115" lon="2.65506">
        <ele>94.76</ele>
        <time>2021-09-15T13:06:48Z</time>
      </trkpt>
      <trkpt lat="48.40114" lon="2.65508">
        <ele>94.96</ele>
        <time>2021-09-15T13:07:12Z</time>
      </trkpt>
      <trkpt lat="48.40123" lon="2.65484">
        <ele>93.68</ele>
        <time>2021-09-15T13:07:32Z</time>
      </trkpt>
      <trkpt lat="48.40126" lon="2.65478">
        <ele>94.06</ele>
        <time>2021-09-15T13:07:37Z</time>
      </trkpt>
      <trkpt lat="48.40136" lon="2.65452">
        <ele>93.05</ele>
        <time>2021-09-15T13:07:52Z</time>
      </trkpt>
      <trkpt lat="48.40149" lon="2.65436">
        <ele>91.48</ele>
        <time>2021-09-15T13:08:05Z</time>
      </trkpt>
      <trkpt lat="48.40159" lon="2.65426">
        <ele>93.29</ele>
        <time>2021-09-15T13:08:17Z</time>
      </trkpt>
      <trkpt lat="48.40162" lon="2.65417">
        <ele>93.21</ele>
        <time>2021-09-15T13:08:35Z</time>
      </trkpt>
      <trkpt lat="48.40164" lon="2.65412">
        <ele>93.33</ele>
        <time>2021-09-15T13:09:01Z</time>
      </trkpt>
      <trkpt lat="48.40163" lon="2.65411">
        <ele>93.22</ele>
        <time>2021-09-15T13:09:29Z</time>
      </trkpt>
      <trkpt lat="48.40163" lon="2.65411">
        <ele>93.35</ele>
        <time>2021-09-15T13:10:10Z</time>
      </trkpt>
      <trkpt lat="48.40162" lon="2.6541">
        <ele>93.35</ele>
        <time>2021-09-15T13:10:48Z</time>
      </trkpt>
      <trkpt lat="48.40162" lon="2.65412">
        <ele>93.35</ele>
        <time>2021-09-15T13:11:12Z</time>
      </trkpt>
      <trkpt lat="48.40162" lon="2.65412">
        <ele>93.35</ele>
        <time>2021-09-15T13:11:46Z</time>
      </trkpt>
      <trkpt lat="48.40162" lon="2.65412">
        <ele>93.35</ele>
        <time>2021-09-15T13:12:20Z</time>
      </trkpt>
      <trkpt lat="48.40162" lon="2.65414">
        <ele>93.35</ele>
        <time>2021-09-15T13:12:57Z</time>
      </trkpt>
      <trkpt lat="48.40162" lon="2.65416">
        <ele>93.35</ele>
        <time>2021-09-15T13:13:25Z</time>
      </trkpt>
      <trkpt lat="48.4016" lon="2.65421">
        <ele>93.35</ele>
        <time>2021-09-15T13:13:53Z</time>
      </trkpt>
      <trkpt lat="48.40161" lon="2.65415">
        <ele>93.35</ele>
        <time>2021-09-15T13:14:26Z</time>
      </trkpt>
      <trkpt lat="48.4016" lon="2.65414">
        <ele>93.35</ele>
        <time>2021-09-15T13:14:57Z</time>
      </trkpt>
      <trkpt lat="48.40161" lon="2.65416">
        <ele>93.35</ele>
        <time>2021-09-15T13:15:15Z</time>
      </trkpt>
      <trkpt lat="48.40161" lon="2.65418">
        <ele>93.35</ele>
        <time>2021-09-15T13:15:46Z</time>
      </trkpt>
      <trkpt lat="48.4016" lon="2.65421">
        <ele>93.35</ele>
        <time>2021-09-15T13:16:20Z</time>
      </trkpt>
      <trkpt lat="48.40162" lon="2.65421">
        <ele>93.35</ele>
        <time>2021-09-15T13:16:56Z</time>
      </trkpt>
      <trkpt lat="48.40161" lon="2.65419">
        <ele>93.35</ele>
        <time>2021-09-15T13:17:19Z</time>
      </trkpt>
      <trkpt lat="48.40162" lon="2.65418">
        <ele>93.35</ele>
        <time>2021-09-15T13:17:39Z</time>
      </trkpt>
      <trkpt lat="48.40161" lon="2.65417">
        <ele>93.35</ele>
        <time>2021-09-15T13:18:03Z</time>
      </trkpt>
      <trkpt lat="48.40161" lon="2.65417">
        <ele>93.35</ele>
        <time>2021-09-15T13:18:29Z</time>
      </trkpt>
      <trkpt lat="48.40162" lon="2.65418">
        <ele>93.35</ele>
        <time>2021-09-15T13:18:59Z</time>
      </trkpt>
      <trkpt lat="48.40166" lon="2.65413">
        <ele>93.35</ele>
        <time>2021-09-15T13:19:23Z</time>
      </trkpt>
      <trkpt lat="48.40178" lon="2.65393">
        <ele>93.42</ele>
        <time>2021-09-15T13:19:41Z</time>
      </trkpt>
      <trkpt lat="48.40179" lon="2.6539">
        <ele>94.25</ele>
        <time>2021-09-15T13:19:43Z</time>
      </trkpt>
      <trkpt lat="48.40189" lon="2.65373">
        <ele>94.2</ele>
        <time>2021-09-15T13:20:01Z</time>
      </trkpt>
      <trkpt lat="48.40198" lon="2.65358">
        <ele>97.09</ele>
        <time>2021-09-15T13:20:20Z</time>
      </trkpt>
      <trkpt lat="48.40211" lon="2.65349">
        <ele>100.18</ele>
        <time>2021-09-15T13:20:44Z</time>
      </trkpt>
      <trkpt lat="48.40224" lon="2.65354">
        <ele>102.55</ele>
        <time>2021-09-15T13:21:02Z</time>
      </trkpt>
      <trkpt lat="48.40234" lon="2.65352">
        <ele>103.54</ele>
        <time>2021-09-15T13:21:16Z</time>
      </trkpt>
      <trkpt lat="48.40237" lon="2.65356">
        <ele>104.53</ele>
        <time>2021-09-15T13:21:35Z</time>
      </trkpt>
      <trkpt lat="48.40251" lon="2.65343">
        <ele>105.1</ele>
        <time>2021-09-15T13:21:56Z</time>
      </trkpt>
      <trkpt lat="48.40261" lon="2.65333">
        <ele>105.98</ele>
        <time>2021-09-15T13:22:11Z</time>
      </trkpt>
      <trkpt lat="48.40271" lon="2.65315">
        <ele>107.06</ele>
        <time>2021-09-15T13:22:31Z</time>
      </trkpt>
      <trkpt lat="48.40282" lon="2.65289">
        <ele>106.68</ele>
        <time>2021-09-15T13:22:51Z</time>
      </trkpt>
      <trkpt lat="48.40285" lon="2.65274">
        <ele>105.98</ele>
        <time>2021-09-15T13:23:10Z</time>
      </trkpt>
      <trkpt lat="48.40291" lon="2.65257">
        <ele>104.55</ele>
        <time>2021-09-15T13:23:29Z</time>
      </trkpt>
      <trkpt lat="48.403" lon="2.65247">
        <ele>102.72</ele>
        <time>2021-09-15T13:23:44Z</time>
      </trkpt>
      <trkpt lat="48.40311" lon="2.65235">
        <ele>101.49</ele>
        <time>2021-09-15T13:23:57Z</time>
      </trkpt>
      <trkpt lat="48.40319" lon="2.65215">
        <ele>100.72</ele>
        <time>2021-09-15T13:24:12Z</time>
      </trkpt>
      <trkpt lat="48.40323" lon="2.65198">
        <ele>99.61</ele>
        <time>2021-09-15T13:24:28Z</time>
      </trkpt>
      <trkpt lat="48.40336" lon="2.652">
        <ele>99.13</ele>
        <time>2021-09-15T13:24:47Z</time>
      </trkpt>
      <trkpt lat="48.40344" lon="2.65196">
        <ele>95.82</ele>
        <time>2021-09-15T13:24:56Z</time>
      </trkpt>
      <trkpt lat="48.40358" lon="2.65195">
        <ele>95.4</ele>
        <time>2021-09-15T13:25:15Z</time>
      </trkpt>
      <trkpt lat="48.40371" lon="2.65182">
        <ele>94.98</ele>
        <time>2021-09-15T13:25:35Z</time>
      </trkpt>
      <trkpt lat="48.40372" lon="2.65181">
        <ele>94.96</ele>
        <time>2021-09-15T13:25:36Z</time>
      </trkpt>
      <trkpt lat="48.40374" lon="2.6518">
        <ele>94.93</ele>
        <time>2021-09-15T13:25:37Z</time>
      </trkpt>
      <trkpt lat="48.40375" lon="2.65178">
        <ele>94.86</ele>
        <time>2021-09-15T13:25:38Z</time>
      </trkpt>
      <trkpt lat="48.40379" lon="2.65173">
        <ele>93.22</ele>
        <time>2021-09-15T13:25:42Z</time>
      </trkpt>
      <trkpt lat="48.40385" lon="2.65167">
        <ele>94.19</ele>
        <time>2021-09-15T13:25:48Z</time>
      </trkpt>
      <trkpt lat="48.40395" lon="2.65154">
        <ele>93.83</ele>
        <time>2021-09-15T13:26:00Z</time>
      </trkpt>
      <trkpt lat="48.40413" lon="2.65138">
        <ele>94.29</ele>
        <time>2021-09-15T13:26:20Z</time>
      </trkpt>
      <trkpt lat="48.40433" lon="2.65127">
        <ele>94.31</ele>
        <time>2021-09-15T13:26:40Z</time>
      </trkpt>
      <trkpt lat="48.40451" lon="2.6512">
        <ele>94.64</ele>
        <time>2021-09-15T13:26:58Z</time>
      </trkpt>
      <trkpt lat="48.40467" lon="2.65113">
        <ele>94.78</ele>
        <time>2021-09-15T13:27:17Z</time>
      </trkpt>
      <trkpt lat="48.40471" lon="2.65087">
        <ele>95.54</ele>
        <time>2021-09-15T13:27:36Z</time>
      </trkpt>
      <trkpt lat="48.40481" lon="2.6507">
        <ele>96.36</ele>
        <time>2021-09-15T13:27:51Z</time>
      </trkpt>
      <trkpt lat="48.40491" lon="2.65056">
        <ele>96.96</ele>
        <time>2021-09-15T13:28:08Z</time>
      </trkpt>
      <trkpt lat="48.405" lon="2.65032">
        <ele>97.27</ele>
        <time>2021-09-15T13:28:26Z</time>
      </trkpt>
      <trkpt lat="48.40514" lon="2.65011">
        <ele>98.27</ele>
        <time>2021-09-15T13:28:45Z</time>
      </trkpt>
      <trkpt lat="48.40526" lon="2.6501">
        <ele>99.9</ele>
        <time>2021-09-15T13:29:09Z</time>
      </trkpt>
      <trkpt lat="48.40529" lon="2.65014">
        <ele>101.4</ele>
        <time>2021-09-15T13:29:18Z</time>
      </trkpt>
      <trkpt lat="48.40531" lon="2.65014">
        <ele>101.55</ele>
        <time>2021-09-15T13:29:19Z</time>
      </trkpt>
      <trkpt lat="48.40535" lon="2.65029">
        <ele>104.42</ele>
        <time>2021-09-15T13:29:35Z</time>
      </trkpt>
      <trkpt lat="48.40544" lon="2.65047">
        <ele>107.46</ele>
        <time>2021-09-15T13:29:59Z</time>
      </trkpt>
      <trkpt lat="48.40545" lon="2.65061">
        <ele>108.09</ele>
        <time>2021-09-15T13:30:20Z</time>
      </trkpt>
      <trkpt lat="48.4055" lon="2.65088">
        <ele>109.17</ele>
        <time>2021-09-15T13:30:41Z</time>
      </trkpt>
      <trkpt lat="48.40543" lon="2.65111">
        <ele>108.17</ele>
        <time>2021-09-15T13:31:03Z</time>
      </trkpt>
      <trkpt lat="48.40543" lon="2.65122">
        <ele>107.94</ele>
        <time>2021-09-15T13:31:15Z</time>
      </trkpt>
      <trkpt lat="48.40546" lon="2.65142">
        <ele>108.68</ele>
        <time>2021-09-15T13:31:30Z</time>
      </trkpt>
      <trkpt lat="48.40547" lon="2.65151">
        <ele>108.84</ele>
        <time>2021-09-15T13:31:38Z</time>
      </trkpt>
      <trkpt lat="48.40545" lon="2.6516">
        <ele>110.91</ele>
        <time>2021-09-15T13:31:45Z</time>
      </trkpt>
      <trkpt lat="48.40554" lon="2.65184">
        <ele>113.03</ele>
        <time>2021-09-15T13:32:10Z</time>
      </trkpt>
      <trkpt lat="48.40561" lon="2.65203">
        <ele>115.98</ele>
        <time>2021-09-15T13:32:38Z</time>
      </trkpt>
      <trkpt lat="48.40556" lon="2.65224">
        <ele>118.08</ele>
        <time>2021-09-15T13:32:59Z</time>
      </trkpt>
      <trkpt lat="48.40553" lon="2.65245">
        <ele>121.09</ele>
        <time>2021-09-15T13:33:23Z</time>
      </trkpt>
      <trkpt lat="48.40557" lon="2.65263">
        <ele>122.82</ele>
        <time>2021-09-15T13:33:43Z</time>
      </trkpt>
      <trkpt lat="48.40559" lon="2.65278">
        <ele>121.05</ele>
        <time>2021-09-15T13:34:00Z</time>
      </trkpt>
      <trkpt lat="48.4056" lon="2.65295">
        <ele>118.78</ele>
        <time>2021-09-15T13:34:19Z</time>
      </trkpt>
      <trkpt lat="48.40566" lon="2.65304">
        <ele>116.03</ele>
        <time>2021-09-15T13:34:37Z</time>
      </trkpt>
      <trkpt lat="48.40574" lon="2.65314">
        <ele>113.34</ele>
        <time>2021-09-15T13:34:53Z</time>
      </trkpt>
      <trkpt lat="48.40581" lon="2.65322">
        <ele>110.98</ele>
        <time>2021-09-15T13:35:03Z</time>
      </trkpt>
      <trkpt lat="48.40586" lon="2.65348">
        <ele>107.92</ele>
        <time>2021-09-15T13:35:23Z</time>
      </trkpt>
      <trkpt lat="48.4059" lon="2.65368">
        <ele>106.09</ele>
        <time>2021-09-15T13:35:38Z</time>
      </trkpt>
      <trkpt lat="48.40592" lon="2.65389">
        <ele>105.45</ele>
        <time>2021-09-15T13:35:55Z</time>
      </trkpt>
      <trkpt lat="48.40603" lon="2.65391">
        <ele>105.06</ele>
        <time>2021-09-15T13:36:12Z</time>
      </trkpt>
      <trkpt lat="48.40614" lon="2.65404">
        <ele>107.62</ele>
        <time>2021-09-15T13:36:37Z</time>
      </trkpt>
      <trkpt lat="48.40621" lon="2.65418">
        <ele>110.63</ele>
        <time>2021-09-15T13:36:54Z</time>
      </trkpt>
      <trkpt lat="48.4062" lon="2.65435">
        <ele>113.64</ele>
        <time>2021-09-15T13:37:13Z</time>
      </trkpt>
      <trkpt lat="48.40621" lon="2.65437">
        <ele>113.84</ele>
        <time>2021-09-15T13:37:15Z</time>
      </trkpt>
      <trkpt lat="48.40619" lon="2.65442">
        <ele>113.11</ele>
        <time>2021-09-15T13:37:23Z</time>
      </trkpt>
      <trkpt lat="48.40614" lon="2.6545">
        <ele>114.06</ele>
        <time>2021-09-15T13:37:36Z</time>
      </trkpt>
      <trkpt lat="48.40607" lon="2.65448">
        <ele>114.2</ele>
        <time>2021-09-15T13:37:44Z</time>
      </trkpt>
      <trkpt lat="48.40595" lon="2.65443">
        <ele>111.43</ele>
        <time>2021-09-15T13:38:06Z</time>
      </trkpt>
      <trkpt lat="48.40581" lon="2.65436">
        <ele>108.92</ele>
        <time>2021-09-15T13:38:35Z</time>
      </trkpt>
      <trkpt lat="48.4057" lon="2.65442">
        <ele>108.91</ele>
        <time>2021-09-15T13:38:53Z</time>
      </trkpt>
      <trkpt lat="48.40556" lon="2.65443">
        <ele>109.38</ele>
        <time>2021-09-15T13:39:13Z</time>
      </trkpt>
      <trkpt lat="48.40532" lon="2.65445">
        <ele>108.97</ele>
        <time>2021-09-15T13:39:38Z</time>
      </trkpt>
      <trkpt lat="48.40514" lon="2.6545">
        <ele>108.97</ele>
        <time>2021-09-15T13:40:00Z</time>
      </trkpt>
      <trkpt lat="48.40497" lon="2.65456">
        <ele>105.22</ele>
        <time>2021-09-15T13:40:22Z</time>
      </trkpt>
      <trkpt lat="48.40496" lon="2.65457">
        <ele>105.58</ele>
        <time>2021-09-15T13:40:23Z</time>
      </trkpt>
      <trkpt lat="48.40483" lon="2.65456">
        <ele>105.11</ele>
        <time>2021-09-15T13:40:42Z</time>
      </trkpt>
      <trkpt lat="48.4047" lon="2.65466">
        <ele>101.8</ele>
        <time>2021-09-15T13:41:03Z</time>
      </trkpt>
      <trkpt lat="48.40469" lon="2.65467">
        <ele>101.5</ele>
        <time>2021-09-15T13:41:04Z</time>
      </trkpt>
      <trkpt lat="48.40459" lon="2.65471">
        <ele>102.16</ele>
        <time>2021-09-15T13:41:23Z</time>
      </trkpt>
      <trkpt lat="48.40463" lon="2.6547">
        <ele>101.33</ele>
        <time>2021-09-15T13:41:43Z</time>
      </trkpt>
      <trkpt lat="48.40466" lon="2.65457">
        <ele>101.5</ele>
        <time>2021-09-15T13:42:04Z</time>
      </trkpt>
      <trkpt lat="48.40462" lon="2.65447">
        <ele>99.93</ele>
        <time>2021-09-15T13:42:19Z</time>
      </trkpt>
      <trkpt lat="48.40453" lon="2.65446">
        <ele>96.85</ele>
        <time>2021-09-15T13:42:33Z</time>
      </trkpt>
      <trkpt lat="48.40439" lon="2.65461">
        <ele>97.14</ele>
        <time>2021-09-15T13:42:52Z</time>
      </trkpt>
      <trkpt lat="48.40428" lon="2.65483">
        <ele>95.51</ele>
        <time>2021-09-15T13:43:12Z</time>
      </trkpt>
      <trkpt lat="48.40426" lon="2.65503">
        <ele>96.29</ele>
        <time>2021-09-15T13:43:31Z</time>
      </trkpt>
      <trkpt lat="48.40416" lon="2.65525">
        <ele>95.3</ele>
        <time>2021-09-15T13:43:51Z</time>
      </trkpt>
      <trkpt lat="48.40421" lon="2.65535">
        <ele>96.31</ele>
        <time>2021-09-15T13:44:03Z</time>
      </trkpt>
      <trkpt lat="48.40421" lon="2.65536">
        <ele>96.43</ele>
        <time>2021-09-15T13:44:04Z</time>
      </trkpt>
      <trkpt lat="48.40422" lon="2.65539">
        <ele>96.74</ele>
        <time>2021-09-15T13:44:06Z</time>
      </trkpt>
      <trkpt lat="48.40428" lon="2.65558">
        <ele>96.71</ele>
        <time>2021-09-15T13:44:21Z</time>
      </trkpt>
      <trkpt lat="48.40432" lon="2.65577">
        <ele>96.52</ele>
        <time>2021-09-15T13:44:35Z</time>
      </trkpt>
      <trkpt lat="48.40436" lon="2.65596">
        <ele>96.48</ele>
        <time>2021-09-15T13:44:47Z</time>
      </trkpt>
      <trkpt lat="48.40448" lon="2.65611">
        <ele>96.6</ele>
        <time>2021-09-15T13:45:04Z</time>
      </trkpt>
      <trkpt lat="48.40459" lon="2.65642">
        <ele>96.47</ele>
        <time>2021-09-15T13:45:31Z</time>
      </trkpt>
      <trkpt lat="48.40473" lon="2.65658">
        <ele>96.51</ele>
        <time>2021-09-15T13:45:46Z</time>
      </trkpt>
      <trkpt lat="48.40475" lon="2.65659">
        <ele>96.53</ele>
        <time>2021-09-15T13:45:47Z</time>
      </trkpt>
      <trkpt lat="48.40489" lon="2.65685">
        <ele>96.49</ele>
        <time>2021-09-15T13:46:08Z</time>
      </trkpt>
      <trkpt lat="48.40493" lon="2.65704">
        <ele>98.52</ele>
        <time>2021-09-15T13:46:24Z</time>
      </trkpt>
      <trkpt lat="48.40494" lon="2.65734">
        <ele>97.12</ele>
        <time>2021-09-15T13:46:43Z</time>
      </trkpt>
      <trkpt lat="48.40492" lon="2.65754">
        <ele>96.35</ele>
        <time>2021-09-15T13:46:57Z</time>
      </trkpt>
      <trkpt lat="48.40494" lon="2.65782">
        <ele>95.75</ele>
        <time>2021-09-15T13:47:17Z</time>
      </trkpt>
      <trkpt lat="48.40488" lon="2.65806">
        <ele>97.12</ele>
        <time>2021-09-15T13:47:36Z</time>
      </trkpt>
      <trkpt lat="48.4048" lon="2.65816">
        <ele>97.6</ele>
        <time>2021-09-15T13:47:49Z</time>
      </trkpt>
      <trkpt lat="48.40473" lon="2.65816">
        <ele>96.3</ele>
        <time>2021-09-15T13:48:01Z</time>
      </trkpt>
      <trkpt lat="48.40463" lon="2.65827">
        <ele>98.18</ele>
        <time>2021-09-15T13:48:17Z</time>
      </trkpt>
      <trkpt lat="48.40454" lon="2.65844">
        <ele>98.75</ele>
        <time>2021-09-15T13:48:32Z</time>
      </trkpt>
      <trkpt lat="48.40443" lon="2.65864">
        <ele>98.72</ele>
        <time>2021-09-15T13:48:50Z</time>
      </trkpt>
      <trkpt lat="48.4044" lon="2.65882">
        <ele>98.03</ele>
        <time>2021-09-15T13:49:04Z</time>
      </trkpt>
      <trkpt lat="48.40435" lon="2.65908">
        <ele>98.03</ele>
        <time>2021-09-15T13:49:28Z</time>
      </trkpt>
      <trkpt lat="48.40431" lon="2.6592">
        <ele>98.03</ele>
        <time>2021-09-15T13:49:52Z</time>
      </trkpt>
      <trkpt lat="48.40438" lon="2.65945">
        <ele>98.91</ele>
        <time>2021-09-15T13:50:14Z</time>
      </trkpt>
      <trkpt lat="48.4045" lon="2.65977">
        <ele>100.09</ele>
        <time>2021-09-15T13:50:37Z</time>
      </trkpt>
      <trkpt lat="48.40449" lon="2.66008">
        <ele>98.46</ele>
        <time>2021-09-15T13:51:01Z</time>
      </trkpt>
      <trkpt lat="48.40434" lon="2.66029">
        <ele>97.83</ele>
        <time>2021-09-15T13:51:23Z</time>
      </trkpt>
      <trkpt lat="48.40428" lon="2.66054">
        <ele>98.28</ele>
        <time>2021-09-15T13:51:41Z</time>
      </trkpt>
      <trkpt lat="48.40425" lon="2.66056">
        <ele>95.43</ele>
        <time>2021-09-15T13:51:49Z</time>
      </trkpt>
      <trkpt lat="48.4041" lon="2.66057">
        <ele>91.9</ele>
        <time>2021-09-15T13:52:08Z</time>
      </trkpt>
      <trkpt lat="48.40397" lon="2.66059">
        <ele>91.1</ele>
        <time>2021-09-15T13:52:22Z</time>
      </trkpt>
      <trkpt lat="48.40379" lon="2.66069">
        <ele>88.54</ele>
        <time>2021-09-15T13:52:42Z</time>
      </trkpt>
      <trkpt lat="48.40362" lon="2.66087">
        <ele>88</ele>
        <time>2021-09-15T13:53:01Z</time>
      </trkpt>
      <trkpt lat="48.40359" lon="2.66094">
        <ele>88.1</ele>
        <time>2021-09-15T13:53:06Z</time>
      </trkpt>
      <trkpt lat="48.40352" lon="2.66112">
        <ele>86.73</ele>
        <time>2021-09-15T13:53:22Z</time>
      </trkpt>
      <trkpt lat="48.40341" lon="2.66139">
        <ele>88.56</ele>
        <time>2021-09-15T13:53:41Z</time>
      </trkpt>
      <trkpt lat="48.4033" lon="2.66164">
        <ele>88.21</ele>
        <time>2021-09-15T13:54:01Z</time>
      </trkpt>
      <trkpt lat="48.40316" lon="2.66187">
        <ele>89.58</ele>
        <time>2021-09-15T13:54:23Z</time>
      </trkpt>
      <trkpt lat="48.40305" lon="2.66214">
        <ele>92.2</ele>
        <time>2021-09-15T13:54:48Z</time>
      </trkpt>
      <trkpt lat="48.40282" lon="2.66228">
        <ele>94.02</ele>
        <time>2021-09-15T13:55:12Z</time>
      </trkpt>
      <trkpt lat="48.40265" lon="2.6624">
        <ele>95.77</ele>
        <time>2021-09-15T13:55:34Z</time>
      </trkpt>
      <trkpt lat="48.40246" lon="2.66261">
        <ele>97.35</ele>
        <time>2021-09-15T13:55:58Z</time>
      </trkpt>
      <trkpt lat="48.40223" lon="2.66273">
        <ele>97.58</ele>
        <time>2021-09-15T13:56:21Z</time>
      </trkpt>
      <trkpt lat="48.40208" lon="2.66295">
        <ele>97.77</ele>
        <time>2021-09-15T13:56:43Z</time>
      </trkpt>
      <trkpt lat="48.40196" lon="2.66321">
        <ele>98.38</ele>
        <time>2021-09-15T13:57:05Z</time>
      </trkpt>
      <trkpt lat="48.40184" lon="2.66338">
        <ele>99.73</ele>
        <time>2021-09-15T13:57:27Z</time>
      </trkpt>
      <trkpt lat="48.40175" lon="2.66366">
        <ele>100.17</ele>
        <time>2021-09-15T13:57:50Z</time>
      </trkpt>
      <trkpt lat="48.4017" lon="2.66386">
        <ele>100.26</ele>
        <time>2021-09-15T13:58:08Z</time>
      </trkpt>
      <trkpt lat="48.40173" lon="2.66409">
        <ele>103.31</ele>
        <time>2021-09-15T13:58:30Z</time>
      </trkpt>
      <trkpt lat="48.40173" lon="2.66417">
        <ele>105.13</ele>
        <time>2021-09-15T13:58:55Z</time>
      </trkpt>
      <trkpt lat="48.40179" lon="2.66429">
        <ele>105.48</ele>
        <time>2021-09-15T13:59:19Z</time>
      </trkpt>
      <trkpt lat="48.40185" lon="2.66464">
        <ele>104.2</ele>
        <time>2021-09-15T13:59:43Z</time>
      </trkpt>
      <trkpt lat="48.40191" lon="2.66486">
        <ele>105.11</ele>
        <time>2021-09-15T14:00:02Z</time>
      </trkpt>
      <trkpt lat="48.40197" lon="2.66503">
        <ele>106.78</ele>
        <time>2021-09-15T14:00:23Z</time>
      </trkpt>
      <trkpt lat="48.40201" lon="2.6652">
        <ele>108.21</ele>
        <time>2021-09-15T14:00:44Z</time>
      </trkpt>
      <trkpt lat="48.40202" lon="2.66528">
        <ele>109.59</ele>
        <time>2021-09-15T14:01:06Z</time>
      </trkpt>
      <trkpt lat="48.4021" lon="2.66532">
        <ele>111.09</ele>
        <time>2021-09-15T14:01:22Z</time>
      </trkpt>
      <trkpt lat="48.40214" lon="2.6653">
        <ele>112.47</ele>
        <time>2021-09-15T14:01:37Z</time>
      </trkpt>
      <trkpt lat="48.40213" lon="2.66527">
        <ele>112.54</ele>
        <time>2021-09-15T14:02:09Z</time>
      </trkpt>
      <trkpt lat="48.40209" lon="2.66521">
        <ele>112.31</ele>
        <time>2021-09-15T14:02:31Z</time>
      </trkpt>
      <trkpt lat="48.40212" lon="2.66521">
        <ele>112.79</ele>
        <time>2021-09-15T14:03:09Z</time>
      </trkpt>
      <trkpt lat="48.4021" lon="2.66522">
        <ele>112.83</ele>
        <time>2021-09-15T14:03:36Z</time>
      </trkpt>
      <trkpt lat="48.40209" lon="2.66523">
        <ele>112.83</ele>
        <time>2021-09-15T14:03:58Z</time>
      </trkpt>
      <trkpt lat="48.40206" lon="2.66525">
        <ele>112.83</ele>
        <time>2021-09-15T14:04:31Z</time>
      </trkpt>
      <trkpt lat="48.40206" lon="2.66528">
        <ele>112.83</ele>
        <time>2021-09-15T14:05:08Z</time>
      </trkpt>
      <trkpt lat="48.40207" lon="2.66526">
        <ele>112.83</ele>
        <time>2021-09-15T14:05:40Z</time>
      </trkpt>
      <trkpt lat="48.40209" lon="2.66525">
        <ele>112.83</ele>
        <time>2021-09-15T14:06:02Z</time>
      </trkpt>
      <trkpt lat="48.4021" lon="2.66522">
        <ele>112.83</ele>
        <time>2021-09-15T14:06:19Z</time>
      </trkpt>
      <trkpt lat="48.40211" lon="2.6652">
        <ele>112.83</ele>
        <time>2021-09-15T14:06:47Z</time>
      </trkpt>
      <trkpt lat="48.40205" lon="2.66504">
        <ele>111.99</ele>
        <time>2021-09-15T14:07:08Z</time>
      </trkpt>
      <trkpt lat="48.4021" lon="2.665">
        <ele>111.45</ele>
        <time>2021-09-15T14:07:19Z</time>
      </trkpt>
      <trkpt lat="48.40231" lon="2.66495">
        <ele>113.04</ele>
        <time>2021-09-15T14:07:58Z</time>
      </trkpt>
      <trkpt lat="48.40237" lon="2.66488">
        <ele>115.75</ele>
        <time>2021-09-15T14:08:18Z</time>
      </trkpt>
      <trkpt lat="48.40243" lon="2.66475">
        <ele>116.92</ele>
        <time>2021-09-15T14:08:37Z</time>
      </trkpt>
      <trkpt lat="48.40247" lon="2.66453">
        <ele>116.48</ele>
        <time>2021-09-15T14:08:51Z</time>
      </trkpt>
      <trkpt lat="48.40253" lon="2.66431">
        <ele>115.42</ele>
        <time>2021-09-15T14:09:07Z</time>
      </trkpt>
      <trkpt lat="48.4026" lon="2.66421">
        <ele>114.92</ele>
        <time>2021-09-15T14:09:16Z</time>
      </trkpt>
      <trkpt lat="48.40269" lon="2.66411">
        <ele>114.95</ele>
        <time>2021-09-15T14:09:28Z</time>
      </trkpt>
      <trkpt lat="48.40282" lon="2.66404">
        <ele>113.61</ele>
        <time>2021-09-15T14:09:46Z</time>
      </trkpt>
      <trkpt lat="48.40303" lon="2.66401">
        <ele>111.12</ele>
        <time>2021-09-15T14:10:03Z</time>
      </trkpt>
      <trkpt lat="48.4032" lon="2.66385">
        <ele>108.28</ele>
        <time>2021-09-15T14:10:24Z</time>
      </trkpt>
      <trkpt lat="48.40343" lon="2.66377">
        <ele>107.91</ele>
        <time>2021-09-15T14:10:45Z</time>
      </trkpt>
      <trkpt lat="48.40354" lon="2.66384">
        <ele>108.32</ele>
        <time>2021-09-15T14:11:05Z</time>
      </trkpt>
      <trkpt lat="48.40362" lon="2.66394">
        <ele>107.83</ele>
        <time>2021-09-15T14:11:25Z</time>
      </trkpt>
      <trkpt lat="48.40381" lon="2.66403">
        <ele>107.68</ele>
        <time>2021-09-15T14:11:47Z</time>
      </trkpt>
      <trkpt lat="48.40397" lon="2.66411">
        <ele>109.16</ele>
        <time>2021-09-15T14:12:04Z</time>
      </trkpt>
      <trkpt lat="48.40404" lon="2.66415">
        <ele>112.18</ele>
        <time>2021-09-15T14:12:11Z</time>
      </trkpt>
      <trkpt lat="48.40424" lon="2.6643">
        <ele>113.68</ele>
        <time>2021-09-15T14:12:34Z</time>
      </trkpt>
      <trkpt lat="48.40445" lon="2.66432">
        <ele>115.62</ele>
        <time>2021-09-15T14:12:55Z</time>
      </trkpt>
      <trkpt lat="48.40464" lon="2.66432">
        <ele>117.43</ele>
        <time>2021-09-15T14:13:14Z</time>
      </trkpt>
      <trkpt lat="48.40482" lon="2.6642">
        <ele>118.6</ele>
        <time>2021-09-15T14:13:32Z</time>
      </trkpt>
      <trkpt lat="48.40484" lon="2.66418">
        <ele>118.77</ele>
        <time>2021-09-15T14:13:34Z</time>
      </trkpt>
      <trkpt lat="48.40498" lon="2.66397">
        <ele>121.38</ele>
        <time>2021-09-15T14:13:53Z</time>
      </trkpt>
      <trkpt lat="48.40509" lon="2.6637">
        <ele>123.23</ele>
        <time>2021-09-15T14:14:16Z</time>
      </trkpt>
      <trkpt lat="48.4051" lon="2.6636">
        <ele>123.29</ele>
        <time>2021-09-15T14:14:20Z</time>
      </trkpt>
      <trkpt lat="48.4051" lon="2.66353">
        <ele>123.37</ele>
        <time>2021-09-15T14:14:23Z</time>
      </trkpt>
      <trkpt lat="48.4051" lon="2.66351">
        <ele>123.39</ele>
        <time>2021-09-15T14:14:24Z</time>
      </trkpt>
      <trkpt lat="48.4051" lon="2.66348">
        <ele>123.4</ele>
        <time>2021-09-15T14:14:25Z</time>
      </trkpt>
      <trkpt lat="48.4051" lon="2.66346">
        <ele>123.4</ele>
        <time>2021-09-15T14:14:26Z</time>
      </trkpt>
      <trkpt lat="48.40513" lon="2.66326">
        <ele>123.48</ele>
        <time>2021-09-15T14:14:40Z</time>
      </trkpt>
      <trkpt lat="48.4051" lon="2.66305">
        <ele>124.16</ele>
        <time>2021-09-15T14:14:51Z</time>
      </trkpt>
      <trkpt lat="48.40505" lon="2.6629">
        <ele>125.62</ele>
        <time>2021-09-15T14:15:01Z</time>
      </trkpt>
      <trkpt lat="48.40504" lon="2.66288">
        <ele>125.7</ele>
        <time>2021-09-15T14:15:02Z</time>
      </trkpt>
      <trkpt lat="48.40503" lon="2.66287">
        <ele>125.77</ele>
        <time>2021-09-15T14:15:03Z</time>
      </trkpt>
      <trkpt lat="48.40488" lon="2.66276">
        <ele>128.56</ele>
        <time>2021-09-15T14:15:22Z</time>
      </trkpt>
      <trkpt lat="48.40475" lon="2.6629">
        <ele>131.6</ele>
        <time>2021-09-15T14:15:44Z</time>
      </trkpt>
      <trkpt lat="48.40479" lon="2.66307">
        <ele>132.45</ele>
        <time>2021-09-15T14:16:05Z</time>
      </trkpt>
      <trkpt lat="48.40481" lon="2.66309">
        <ele>130.89</ele>
        <time>2021-09-15T14:16:08Z</time>
      </trkpt>
      <trkpt lat="48.40482" lon="2.66309">
        <ele>133.36</ele>
        <time>2021-09-15T14:16:14Z</time>
      </trkpt>
      <trkpt lat="48.40481" lon="2.66311">
        <ele>132.78</ele>
        <time>2021-09-15T14:16:37Z</time>
      </trkpt>
      <trkpt lat="48.40477" lon="2.6631">
        <ele>132.47</ele>
        <time>2021-09-15T14:17:04Z</time>
      </trkpt>
      <trkpt lat="48.40477" lon="2.66311">
        <ele>131.08</ele>
        <time>2021-09-15T14:17:11Z</time>
      </trkpt>
      <trkpt lat="48.40476" lon="2.66308">
        <ele>131.86</ele>
        <time>2021-09-15T14:17:29Z</time>
      </trkpt>
      <trkpt lat="48.40476" lon="2.66308">
        <ele>132.63</ele>
        <time>2021-09-15T14:17:53Z</time>
      </trkpt>
      <trkpt lat="48.40476" lon="2.66309">
        <ele>133.28</ele>
        <time>2021-09-15T14:17:55Z</time>
      </trkpt>
      <trkpt lat="48.40476" lon="2.66311">
        <ele>131.41</ele>
        <time>2021-09-15T14:18:26Z</time>
      </trkpt>
      <trkpt lat="48.40477" lon="2.66313">
        <ele>131.41</ele>
        <time>2021-09-15T14:18:50Z</time>
      </trkpt>
      <trkpt lat="48.40482" lon="2.66317">
        <ele>131.41</ele>
        <time>2021-09-15T14:19:14Z</time>
      </trkpt>
      <trkpt lat="48.40484" lon="2.66327">
        <ele>131.41</ele>
        <time>2021-09-15T14:19:35Z</time>
      </trkpt>
      <trkpt lat="48.40485" lon="2.66339">
        <ele>131.41</ele>
        <time>2021-09-15T14:19:45Z</time>
      </trkpt>
      <trkpt lat="48.40482" lon="2.66345">
        <ele>132.25</ele>
        <time>2021-09-15T14:19:50Z</time>
      </trkpt>
      <trkpt lat="48.40482" lon="2.66346">
        <ele>132.37</ele>
        <time>2021-09-15T14:19:51Z</time>
      </trkpt>
      <trkpt lat="48.40474" lon="2.6636">
        <ele>132.81</ele>
        <time>2021-09-15T14:20:06Z</time>
      </trkpt>
      <trkpt lat="48.40467" lon="2.66363">
        <ele>133.41</ele>
        <time>2021-09-15T14:20:18Z</time>
      </trkpt>
      <trkpt lat="48.4046" lon="2.66365">
        <ele>133.27</ele>
        <time>2021-09-15T14:20:26Z</time>
      </trkpt>
      <trkpt lat="48.40446" lon="2.66373">
        <ele>132.38</ele>
        <time>2021-09-15T14:20:42Z</time>
      </trkpt>
      <trkpt lat="48.40442" lon="2.66371">
        <ele>132.19</ele>
        <time>2021-09-15T14:20:54Z</time>
      </trkpt>
      <trkpt lat="48.40443" lon="2.66369">
        <ele>132.08</ele>
        <time>2021-09-15T14:20:55Z</time>
      </trkpt>
      <trkpt lat="48.40443" lon="2.66365">
        <ele>131.83</ele>
        <time>2021-09-15T14:20:57Z</time>
      </trkpt>
      <trkpt lat="48.40444" lon="2.66362">
        <ele>131.74</ele>
        <time>2021-09-15T14:20:58Z</time>
      </trkpt>
      <trkpt lat="48.40445" lon="2.6636">
        <ele>131.66</ele>
        <time>2021-09-15T14:20:59Z</time>
      </trkpt>
      <trkpt lat="48.40448" lon="2.66348">
        <ele>130.08</ele>
        <time>2021-09-15T14:21:06Z</time>
      </trkpt>
      <trkpt lat="48.40447" lon="2.66346">
        <ele>129.98</ele>
        <time>2021-09-15T14:21:07Z</time>
      </trkpt>
      <trkpt lat="48.40444" lon="2.66336">
        <ele>129.11</ele>
        <time>2021-09-15T14:21:15Z</time>
      </trkpt>
      <trkpt lat="48.40443" lon="2.66331">
        <ele>128.82</ele>
        <time>2021-09-15T14:21:17Z</time>
      </trkpt>
      <trkpt lat="48.40442" lon="2.66329">
        <ele>128.52</ele>
        <time>2021-09-15T14:21:18Z</time>
      </trkpt>
      <trkpt lat="48.4044" lon="2.66323">
        <ele>127.37</ele>
        <time>2021-09-15T14:21:21Z</time>
      </trkpt>
      <trkpt lat="48.4044" lon="2.66321">
        <ele>127.01</ele>
        <time>2021-09-15T14:21:22Z</time>
      </trkpt>
      <trkpt lat="48.4044" lon="2.66319">
        <ele>126.62</ele>
        <time>2021-09-15T14:21:23Z</time>
      </trkpt>
      <trkpt lat="48.4044" lon="2.66316">
        <ele>126.24</ele>
        <time>2021-09-15T14:21:24Z</time>
      </trkpt>
      <trkpt lat="48.4044" lon="2.66314">
        <ele>125.88</ele>
        <time>2021-09-15T14:21:25Z</time>
      </trkpt>
      <trkpt lat="48.4044" lon="2.66312">
        <ele>125.57</ele>
        <time>2021-09-15T14:21:26Z</time>
      </trkpt>
      <trkpt lat="48.4044" lon="2.6631">
        <ele>125.29</ele>
        <time>2021-09-15T14:21:27Z</time>
      </trkpt>
      <trkpt lat="48.40446" lon="2.66294">
        <ele>122.35</ele>
        <time>2021-09-15T14:21:35Z</time>
      </trkpt>
      <trkpt lat="48.40446" lon="2.6629">
        <ele>121.98</ele>
        <time>2021-09-15T14:21:36Z</time>
      </trkpt>
      <trkpt lat="48.40447" lon="2.66283">
        <ele>120.91</ele>
        <time>2021-09-15T14:21:39Z</time>
      </trkpt>
      <trkpt lat="48.40448" lon="2.66281">
        <ele>120.6</ele>
        <time>2021-09-15T14:21:40Z</time>
      </trkpt>
      <trkpt lat="48.40449" lon="2.66279">
        <ele>120.28</ele>
        <time>2021-09-15T14:21:41Z</time>
      </trkpt>
      <trkpt lat="48.4045" lon="2.66277">
        <ele>119.94</ele>
        <time>2021-09-15T14:21:42Z</time>
      </trkpt>
      <trkpt lat="48.40451" lon="2.66276">
        <ele>119.58</ele>
        <time>2021-09-15T14:21:43Z</time>
      </trkpt>
      <trkpt lat="48.40452" lon="2.66274">
        <ele>119.23</ele>
        <time>2021-09-15T14:21:44Z</time>
      </trkpt>
      <trkpt lat="48.40453" lon="2.66273">
        <ele>118.94</ele>
        <time>2021-09-15T14:21:45Z</time>
      </trkpt>
      <trkpt lat="48.40464" lon="2.66259">
        <ele>117.3</ele>
        <time>2021-09-15T14:22:01Z</time>
      </trkpt>
      <trkpt lat="48.40478" lon="2.6625">
        <ele>116.94</ele>
        <time>2021-09-15T14:22:12Z</time>
      </trkpt>
      <trkpt lat="48.40481" lon="2.66247">
        <ele>116.93</ele>
        <time>2021-09-15T14:22:13Z</time>
      </trkpt>
      <trkpt lat="48.40483" lon="2.66246">
        <ele>116.86</ele>
        <time>2021-09-15T14:22:14Z</time>
      </trkpt>
      <trkpt lat="48.40485" lon="2.66244">
        <ele>116.65</ele>
        <time>2021-09-15T14:22:15Z</time>
      </trkpt>
      <trkpt lat="48.40487" lon="2.66243">
        <ele>116.53</ele>
        <time>2021-09-15T14:22:16Z</time>
      </trkpt>
      <trkpt lat="48.40489" lon="2.66243">
        <ele>116.41</ele>
        <time>2021-09-15T14:22:17Z</time>
      </trkpt>
      <trkpt lat="48.4049" lon="2.66242">
        <ele>116.29</ele>
        <time>2021-09-15T14:22:18Z</time>
      </trkpt>
      <trkpt lat="48.40491" lon="2.66242">
        <ele>116.17</ele>
        <time>2021-09-15T14:22:19Z</time>
      </trkpt>
      <trkpt lat="48.40492" lon="2.66242">
        <ele>116.1</ele>
        <time>2021-09-15T14:22:20Z</time>
      </trkpt>
      <trkpt lat="48.4051" lon="2.66251">
        <ele>114.39</ele>
        <time>2021-09-15T14:22:30Z</time>
      </trkpt>
      <trkpt lat="48.40516" lon="2.6626">
        <ele>112.78</ele>
        <time>2021-09-15T14:22:36Z</time>
      </trkpt>
      <trkpt lat="48.40517" lon="2.66261">
        <ele>112.75</ele>
        <time>2021-09-15T14:22:37Z</time>
      </trkpt>
      <trkpt lat="48.40518" lon="2.66262">
        <ele>112.64</ele>
        <time>2021-09-15T14:22:38Z</time>
      </trkpt>
      <trkpt lat="48.40518" lon="2.66263">
        <ele>112.5</ele>
        <time>2021-09-15T14:22:39Z</time>
      </trkpt>
      <trkpt lat="48.40525" lon="2.66282">
        <ele>111.61</ele>
        <time>2021-09-15T14:22:54Z</time>
      </trkpt>
      <trkpt lat="48.40524" lon="2.66284">
        <ele>111.62</ele>
        <time>2021-09-15T14:22:55Z</time>
      </trkpt>
      <trkpt lat="48.40528" lon="2.66306">
        <ele>111.38</ele>
        <time>2021-09-15T14:23:03Z</time>
      </trkpt>
      <trkpt lat="48.40528" lon="2.66309">
        <ele>111.34</ele>
        <time>2021-09-15T14:23:04Z</time>
      </trkpt>
      <trkpt lat="48.4053" lon="2.66312">
        <ele>111.31</ele>
        <time>2021-09-15T14:23:05Z</time>
      </trkpt>
      <trkpt lat="48.40531" lon="2.66317">
        <ele>111.23</ele>
        <time>2021-09-15T14:23:06Z</time>
      </trkpt>
      <trkpt lat="48.40531" lon="2.66321">
        <ele>111.04</ele>
        <time>2021-09-15T14:23:07Z</time>
      </trkpt>
      <trkpt lat="48.40532" lon="2.66326">
        <ele>110.6</ele>
        <time>2021-09-15T14:23:08Z</time>
      </trkpt>
      <trkpt lat="48.40533" lon="2.6633">
        <ele>110.41</ele>
        <time>2021-09-15T14:23:09Z</time>
      </trkpt>
      <trkpt lat="48.40531" lon="2.6635">
        <ele>109.11</ele>
        <time>2021-09-15T14:23:19Z</time>
      </trkpt>
      <trkpt lat="48.40531" lon="2.66352">
        <ele>109.05</ele>
        <time>2021-09-15T14:23:20Z</time>
      </trkpt>
      <trkpt lat="48.40532" lon="2.6636">
        <ele>108.49</ele>
        <time>2021-09-15T14:23:23Z</time>
      </trkpt>
      <trkpt lat="48.40533" lon="2.66362">
        <ele>108.32</ele>
        <time>2021-09-15T14:23:24Z</time>
      </trkpt>
      <trkpt lat="48.40527" lon="2.66391">
        <ele>108.46</ele>
        <time>2021-09-15T14:23:40Z</time>
      </trkpt>
      <trkpt lat="48.40529" lon="2.66397">
        <ele>107.98</ele>
        <time>2021-09-15T14:23:43Z</time>
      </trkpt>
      <trkpt lat="48.4053" lon="2.66399">
        <ele>107.76</ele>
        <time>2021-09-15T14:23:44Z</time>
      </trkpt>
      <trkpt lat="48.40532" lon="2.66417">
        <ele>104.6</ele>
        <time>2021-09-15T14:23:51Z</time>
      </trkpt>
      <trkpt lat="48.40531" lon="2.6642">
        <ele>104.29</ele>
        <time>2021-09-15T14:23:52Z</time>
      </trkpt>
      <trkpt lat="48.4053" lon="2.66422">
        <ele>103.92</ele>
        <time>2021-09-15T14:23:53Z</time>
      </trkpt>
      <trkpt lat="48.40529" lon="2.66425">
        <ele>103.57</ele>
        <time>2021-09-15T14:23:54Z</time>
      </trkpt>
      <trkpt lat="48.40528" lon="2.66427">
        <ele>103.25</ele>
        <time>2021-09-15T14:23:55Z</time>
      </trkpt>
      <trkpt lat="48.40527" lon="2.66429">
        <ele>102.93</ele>
        <time>2021-09-15T14:23:56Z</time>
      </trkpt>
      <trkpt lat="48.40526" lon="2.66431">
        <ele>102.68</ele>
        <time>2021-09-15T14:23:57Z</time>
      </trkpt>
      <trkpt lat="48.40525" lon="2.66434">
        <ele>102.49</ele>
        <time>2021-09-15T14:23:58Z</time>
      </trkpt>
      <trkpt lat="48.40524" lon="2.66436">
        <ele>102.29</ele>
        <time>2021-09-15T14:23:59Z</time>
      </trkpt>
      <trkpt lat="48.40523" lon="2.66439">
        <ele>101.62</ele>
        <time>2021-09-15T14:24:00Z</time>
      </trkpt>
      <trkpt lat="48.40522" lon="2.66441">
        <ele>101.3</ele>
        <time>2021-09-15T14:24:01Z</time>
      </trkpt>
      <trkpt lat="48.4052" lon="2.66442">
        <ele>101.02</ele>
        <time>2021-09-15T14:24:02Z</time>
      </trkpt>
      <trkpt lat="48.40502" lon="2.66462">
        <ele>98.59</ele>
        <time>2021-09-15T14:24:14Z</time>
      </trkpt>
      <trkpt lat="48.40499" lon="2.66468">
        <ele>98.21</ele>
        <time>2021-09-15T14:24:16Z</time>
      </trkpt>
      <trkpt lat="48.40497" lon="2.66471">
        <ele>98.06</ele>
        <time>2021-09-15T14:24:17Z</time>
      </trkpt>
      <trkpt lat="48.40496" lon="2.66473">
        <ele>97.91</ele>
        <time>2021-09-15T14:24:18Z</time>
      </trkpt>
      <trkpt lat="48.40494" lon="2.66476">
        <ele>97.7</ele>
        <time>2021-09-15T14:24:19Z</time>
      </trkpt>
      <trkpt lat="48.40493" lon="2.66479">
        <ele>97.42</ele>
        <time>2021-09-15T14:24:20Z</time>
      </trkpt>
      <trkpt lat="48.40479" lon="2.66516">
        <ele>94.39</ele>
        <time>2021-09-15T14:24:31Z</time>
      </trkpt>
      <trkpt lat="48.40475" lon="2.66545">
        <ele>92.44</ele>
        <time>2021-09-15T14:24:42Z</time>
      </trkpt>
      <trkpt lat="48.40474" lon="2.66547">
        <ele>92.25</ele>
        <time>2021-09-15T14:24:43Z</time>
      </trkpt>
      <trkpt lat="48.40474" lon="2.66551">
        <ele>92.05</ele>
        <time>2021-09-15T14:24:44Z</time>
      </trkpt>
      <trkpt lat="48.40473" lon="2.66555">
        <ele>91.87</ele>
        <time>2021-09-15T14:24:45Z</time>
      </trkpt>
      <trkpt lat="48.40472" lon="2.66559">
        <ele>91.73</ele>
        <time>2021-09-15T14:24:46Z</time>
      </trkpt>
      <trkpt lat="48.40472" lon="2.66564">
        <ele>91.59</ele>
        <time>2021-09-15T14:24:47Z</time>
      </trkpt>
      <trkpt lat="48.4047" lon="2.6659">
        <ele>91.16</ele>
        <time>2021-09-15T14:24:52Z</time>
      </trkpt>
      <trkpt lat="48.4047" lon="2.66595">
        <ele>91.06</ele>
        <time>2021-09-15T14:24:53Z</time>
      </trkpt>
      <trkpt lat="48.40469" lon="2.66602">
        <ele>90.97</ele>
        <time>2021-09-15T14:24:54Z</time>
      </trkpt>
      <trkpt lat="48.40468" lon="2.66607">
        <ele>90.69</ele>
        <time>2021-09-15T14:24:55Z</time>
      </trkpt>
      <trkpt lat="48.40468" lon="2.66612">
        <ele>90.57</ele>
        <time>2021-09-15T14:24:56Z</time>
      </trkpt>
      <trkpt lat="48.40468" lon="2.66616">
        <ele>90.48</ele>
        <time>2021-09-15T14:24:57Z</time>
      </trkpt>
      <trkpt lat="48.40469" lon="2.66644">
        <ele>90.09</ele>
        <time>2021-09-15T14:25:09Z</time>
      </trkpt>
      <trkpt lat="48.4047" lon="2.66645">
        <ele>90.08</ele>
        <time>2021-09-15T14:25:10Z</time>
      </trkpt>
      <trkpt lat="48.4047" lon="2.6665">
        <ele>90.04</ele>
        <time>2021-09-15T14:25:12Z</time>
      </trkpt>
      <trkpt lat="48.40471" lon="2.66652">
        <ele>90.02</ele>
        <time>2021-09-15T14:25:13Z</time>
      </trkpt>
      <trkpt lat="48.40472" lon="2.66676">
        <ele>90</ele>
        <time>2021-09-15T14:25:24Z</time>
      </trkpt>
      <trkpt lat="48.40474" lon="2.66689">
        <ele>90.1</ele>
        <time>2021-09-15T14:25:30Z</time>
      </trkpt>
      <trkpt lat="48.40474" lon="2.66691">
        <ele>90.1</ele>
        <time>2021-09-15T14:25:31Z</time>
      </trkpt>
      <trkpt lat="48.40473" lon="2.66693">
        <ele>90.11</ele>
        <time>2021-09-15T14:25:32Z</time>
      </trkpt>
      <trkpt lat="48.40473" lon="2.66696">
        <ele>90.11</ele>
        <time>2021-09-15T14:25:33Z</time>
      </trkpt>
      <trkpt lat="48.40474" lon="2.66698">
        <ele>90.11</ele>
        <time>2021-09-15T14:25:34Z</time>
      </trkpt>
      <trkpt lat="48.40474" lon="2.66709">
        <ele>89.91</ele>
        <time>2021-09-15T14:25:40Z</time>
      </trkpt>
      <trkpt lat="48.40474" lon="2.66711">
        <ele>89.91</ele>
        <time>2021-09-15T14:25:41Z</time>
      </trkpt>
      <trkpt lat="48.40474" lon="2.66715">
        <ele>89.81</ele>
        <time>2021-09-15T14:25:43Z</time>
      </trkpt>
      <trkpt lat="48.40476" lon="2.66728">
        <ele>89.32</ele>
        <time>2021-09-15T14:25:51Z</time>
      </trkpt>
      <trkpt lat="48.40477" lon="2.6673">
        <ele>89.3</ele>
        <time>2021-09-15T14:25:52Z</time>
      </trkpt>
      <trkpt lat="48.40478" lon="2.66732">
        <ele>89.29</ele>
        <time>2021-09-15T14:25:53Z</time>
      </trkpt>
      <trkpt lat="48.40479" lon="2.66734">
        <ele>89.26</ele>
        <time>2021-09-15T14:25:54Z</time>
      </trkpt>
      <trkpt lat="48.40479" lon="2.66736">
        <ele>89.22</ele>
        <time>2021-09-15T14:25:55Z</time>
      </trkpt>
      <trkpt lat="48.40479" lon="2.66738">
        <ele>89.2</ele>
        <time>2021-09-15T14:25:56Z</time>
      </trkpt>
      <trkpt lat="48.40481" lon="2.66758">
        <ele>88.72</ele>
        <time>2021-09-15T14:26:09Z</time>
      </trkpt>
      <trkpt lat="48.40482" lon="2.66783">
        <ele>86.99</ele>
        <time>2021-09-15T14:26:24Z</time>
      </trkpt>
      <trkpt lat="48.40484" lon="2.66787">
        <ele>87.13</ele>
        <time>2021-09-15T14:26:27Z</time>
      </trkpt>
      <trkpt lat="48.40494" lon="2.66806">
        <ele>87.85</ele>
        <time>2021-09-15T14:26:43Z</time>
      </trkpt>
      <trkpt lat="48.40493" lon="2.66809">
        <ele>87.31</ele>
        <time>2021-09-15T14:27:07Z</time>
      </trkpt>
      <trkpt lat="48.40486" lon="2.66809">
        <ele>87.46</ele>
        <time>2021-09-15T14:27:48Z</time>
      </trkpt>
      <trkpt lat="48.40487" lon="2.66803">
        <ele>87.47</ele>
        <time>2021-09-15T14:28:25Z</time>
      </trkpt>
      <trkpt lat="48.40485" lon="2.66803">
        <ele>87.67</ele>
        <time>2021-09-15T14:28:57Z</time>
      </trkpt>
      <trkpt lat="48.40483" lon="2.66804">
        <ele>87.52</ele>
        <time>2021-09-15T14:29:47Z</time>
      </trkpt>
      <trkpt lat="48.40477" lon="2.66812">
        <ele>87.55</ele>
        <time>2021-09-15T14:30:03Z</time>
      </trkpt>
      <trkpt lat="48.40476" lon="2.66831">
        <ele>87.65</ele>
        <time>2021-09-15T14:30:19Z</time>
      </trkpt>
      <trkpt lat="48.40478" lon="2.66857">
        <ele>86.97</ele>
        <time>2021-09-15T14:30:35Z</time>
      </trkpt>
      <trkpt lat="48.40485" lon="2.66882">
        <ele>86.98</ele>
        <time>2021-09-15T14:30:52Z</time>
      </trkpt>
      <trkpt lat="48.40487" lon="2.6691">
        <ele>87.06</ele>
        <time>2021-09-15T14:31:08Z</time>
      </trkpt>
      <trkpt lat="48.4049" lon="2.66916">
        <ele>86.99</ele>
        <time>2021-09-15T14:31:13Z</time>
      </trkpt>
      <trkpt lat="48.40491" lon="2.66926">
        <ele>87</ele>
        <time>2021-09-15T14:31:23Z</time>
      </trkpt>
      <trkpt lat="48.40491" lon="2.66928">
        <ele>86.99</ele>
        <time>2021-09-15T14:31:24Z</time>
      </trkpt>
      <trkpt lat="48.40491" lon="2.6693">
        <ele>86.99</ele>
        <time>2021-09-15T14:31:25Z</time>
      </trkpt>
      <trkpt lat="48.40491" lon="2.66931">
        <ele>86.99</ele>
        <time>2021-09-15T14:31:26Z</time>
      </trkpt>
      <trkpt lat="48.40492" lon="2.66933">
        <ele>86.99</ele>
        <time>2021-09-15T14:31:27Z</time>
      </trkpt>
      <trkpt lat="48.40492" lon="2.66935">
        <ele>86.99</ele>
        <time>2021-09-15T14:31:28Z</time>
      </trkpt>
      <trkpt lat="48.40493" lon="2.66937">
        <ele>86.99</ele>
        <time>2021-09-15T14:31:29Z</time>
      </trkpt>
      <trkpt lat="48.40494" lon="2.66946">
        <ele>87.13</ele>
        <time>2021-09-15T14:31:34Z</time>
      </trkpt>
      <trkpt lat="48.40493" lon="2.66947">
        <ele>87.13</ele>
        <time>2021-09-15T14:31:35Z</time>
      </trkpt>
      <trkpt lat="48.40493" lon="2.66949">
        <ele>87.13</ele>
        <time>2021-09-15T14:31:36Z</time>
      </trkpt>
      <trkpt lat="48.40492" lon="2.66951">
        <ele>87.09</ele>
        <time>2021-09-15T14:31:38Z</time>
      </trkpt>
      <trkpt lat="48.40495" lon="2.66973">
        <ele>87.17</ele>
        <time>2021-09-15T14:31:54Z</time>
      </trkpt>
      <trkpt lat="48.40495" lon="2.66991">
        <ele>87.1</ele>
        <time>2021-09-15T14:32:03Z</time>
      </trkpt>
      <trkpt lat="48.40496" lon="2.67018">
        <ele>85.93</ele>
        <time>2021-09-15T14:32:18Z</time>
      </trkpt>
      <trkpt lat="48.40496" lon="2.67023">
        <ele>85.89</ele>
        <time>2021-09-15T14:32:20Z</time>
      </trkpt>
      <trkpt lat="48.40495" lon="2.67025">
        <ele>85.89</ele>
        <time>2021-09-15T14:32:21Z</time>
      </trkpt>
      <trkpt lat="48.40496" lon="2.67028">
        <ele>85.88</ele>
        <time>2021-09-15T14:32:22Z</time>
      </trkpt>
      <trkpt lat="48.40496" lon="2.67032">
        <ele>85.87</ele>
        <time>2021-09-15T14:32:23Z</time>
      </trkpt>
      <trkpt lat="48.40496" lon="2.67035">
        <ele>85.86</ele>
        <time>2021-09-15T14:32:24Z</time>
      </trkpt>
      <trkpt lat="48.40496" lon="2.67038">
        <ele>85.84</ele>
        <time>2021-09-15T14:32:25Z</time>
      </trkpt>
      <trkpt lat="48.40496" lon="2.6704">
        <ele>85.83</ele>
        <time>2021-09-15T14:32:26Z</time>
      </trkpt>
      <trkpt lat="48.40496" lon="2.67043">
        <ele>85.81</ele>
        <time>2021-09-15T14:32:27Z</time>
      </trkpt>
      <trkpt lat="48.40497" lon="2.67046">
        <ele>85.8</ele>
        <time>2021-09-15T14:32:28Z</time>
      </trkpt>
      <trkpt lat="48.40497" lon="2.67048">
        <ele>85.8</ele>
        <time>2021-09-15T14:32:29Z</time>
      </trkpt>
      <trkpt lat="48.40497" lon="2.6705">
        <ele>85.8</ele>
        <time>2021-09-15T14:32:30Z</time>
      </trkpt>
      <trkpt lat="48.40498" lon="2.67052">
        <ele>85.76</ele>
        <time>2021-09-15T14:32:31Z</time>
      </trkpt>
      <trkpt lat="48.40498" lon="2.67055">
        <ele>85.73</ele>
        <time>2021-09-15T14:32:32Z</time>
      </trkpt>
      <trkpt lat="48.40497" lon="2.67057">
        <ele>85.69</ele>
        <time>2021-09-15T14:32:33Z</time>
      </trkpt>
      <trkpt lat="48.40496" lon="2.67082">
        <ele>85.34</ele>
        <time>2021-09-15T14:32:48Z</time>
      </trkpt>
      <trkpt lat="48.40496" lon="2.67114">
        <ele>85.27</ele>
        <time>2021-09-15T14:33:01Z</time>
      </trkpt>
      <trkpt lat="48.40499" lon="2.67138">
        <ele>85.14</ele>
        <time>2021-09-15T14:33:15Z</time>
      </trkpt>
      <trkpt lat="48.405" lon="2.6714">
        <ele>85.12</ele>
        <time>2021-09-15T14:33:16Z</time>
      </trkpt>
      <trkpt lat="48.405" lon="2.67142">
        <ele>85.11</ele>
        <time>2021-09-15T14:33:17Z</time>
      </trkpt>
      <trkpt lat="48.405" lon="2.67169">
        <ele>85.09</ele>
        <time>2021-09-15T14:33:29Z</time>
      </trkpt>
      <trkpt lat="48.40501" lon="2.67178">
        <ele>85.08</ele>
        <time>2021-09-15T14:33:33Z</time>
      </trkpt>
      <trkpt lat="48.40501" lon="2.67181">
        <ele>85.07</ele>
        <time>2021-09-15T14:33:34Z</time>
      </trkpt>
      <trkpt lat="48.40502" lon="2.67184">
        <ele>85.06</ele>
        <time>2021-09-15T14:33:35Z</time>
      </trkpt>
      <trkpt lat="48.40502" lon="2.67187">
        <ele>85.06</ele>
        <time>2021-09-15T14:33:36Z</time>
      </trkpt>
      <trkpt lat="48.40503" lon="2.6719">
        <ele>85.06</ele>
        <time>2021-09-15T14:33:37Z</time>
      </trkpt>
      <trkpt lat="48.40503" lon="2.67192">
        <ele>85.06</ele>
        <time>2021-09-15T14:33:38Z</time>
      </trkpt>
      <trkpt lat="48.40503" lon="2.67194">
        <ele>85.02</ele>
        <time>2021-09-15T14:33:39Z</time>
      </trkpt>
      <trkpt lat="48.40504" lon="2.67215">
        <ele>85.03</ele>
        <time>2021-09-15T14:33:53Z</time>
      </trkpt>
      <trkpt lat="48.40504" lon="2.67217">
        <ele>85.02</ele>
        <time>2021-09-15T14:33:54Z</time>
      </trkpt>
      <trkpt lat="48.40506" lon="2.67244">
        <ele>84.99</ele>
        <time>2021-09-15T14:34:06Z</time>
      </trkpt>
      <trkpt lat="48.4051" lon="2.67281">
        <ele>85.03</ele>
        <time>2021-09-15T14:34:21Z</time>
      </trkpt>
      <trkpt lat="48.40512" lon="2.67314">
        <ele>84.75</ele>
        <time>2021-09-15T14:34:37Z</time>
      </trkpt>
      <trkpt lat="48.40516" lon="2.67347">
        <ele>84.35</ele>
        <time>2021-09-15T14:34:54Z</time>
      </trkpt>
      <trkpt lat="48.40518" lon="2.6738">
        <ele>84.32</ele>
        <time>2021-09-15T14:35:09Z</time>
      </trkpt>
      <trkpt lat="48.4052" lon="2.67407">
        <ele>84.16</ele>
        <time>2021-09-15T14:35:23Z</time>
      </trkpt>
      <trkpt lat="48.40524" lon="2.6744">
        <ele>84.13</ele>
        <time>2021-09-15T14:35:40Z</time>
      </trkpt>
      <trkpt lat="48.40527" lon="2.6747">
        <ele>83.9</ele>
        <time>2021-09-15T14:35:54Z</time>
      </trkpt>
      <trkpt lat="48.40527" lon="2.67477">
        <ele>83.92</ele>
        <time>2021-09-15T14:35:58Z</time>
      </trkpt>
      <trkpt lat="48.40527" lon="2.67479">
        <ele>83.93</ele>
        <time>2021-09-15T14:35:59Z</time>
      </trkpt>
      <trkpt lat="48.40528" lon="2.67482">
        <ele>83.94</ele>
        <time>2021-09-15T14:36:00Z</time>
      </trkpt>
      <trkpt lat="48.40529" lon="2.67504">
        <ele>83.78</ele>
        <time>2021-09-15T14:36:12Z</time>
      </trkpt>
      <trkpt lat="48.40532" lon="2.67535">
        <ele>83.92</ele>
        <time>2021-09-15T14:36:29Z</time>
      </trkpt>
      <trkpt lat="48.40533" lon="2.67541">
        <ele>84.06</ele>
        <time>2021-09-15T14:36:32Z</time>
      </trkpt>
      <trkpt lat="48.40534" lon="2.67543">
        <ele>83.95</ele>
        <time>2021-09-15T14:36:33Z</time>
      </trkpt>
      <trkpt lat="48.40535" lon="2.67568">
        <ele>83.88</ele>
        <time>2021-09-15T14:36:48Z</time>
      </trkpt>
      <trkpt lat="48.40537" lon="2.67596">
        <ele>84.08</ele>
        <time>2021-09-15T14:37:05Z</time>
      </trkpt>
      <trkpt lat="48.40538" lon="2.67607">
        <ele>82.02</ele>
        <time>2021-09-15T14:37:11Z</time>
      </trkpt>
      <trkpt lat="48.40539" lon="2.6762">
        <ele>84.91</ele>
        <time>2021-09-15T14:37:18Z</time>
      </trkpt>
      <trkpt lat="48.40541" lon="2.67649">
        <ele>83.91</ele>
        <time>2021-09-15T14:37:36Z</time>
      </trkpt>
      <trkpt lat="48.40541" lon="2.6767">
        <ele>80.72</ele>
        <time>2021-09-15T14:37:49Z</time>
      </trkpt>
      <trkpt lat="48.40542" lon="2.67679">
        <ele>83.87</ele>
        <time>2021-09-15T14:37:57Z</time>
      </trkpt>
      <trkpt lat="48.40542" lon="2.67693">
        <ele>85.53</ele>
        <time>2021-09-15T14:38:15Z</time>
      </trkpt>
      <trkpt lat="48.40542" lon="2.677">
        <ele>85.66</ele>
        <time>2021-09-15T14:38:25Z</time>
      </trkpt>
      <trkpt lat="48.40539" lon="2.67722">
        <ele>84.6</ele>
        <time>2021-09-15T14:38:39Z</time>
      </trkpt>
      <trkpt lat="48.40527" lon="2.67748">
        <ele>84.05</ele>
        <time>2021-09-15T14:38:57Z</time>
      </trkpt>
      <trkpt lat="48.4051" lon="2.67765">
        <ele>83.92</ele>
        <time>2021-09-15T14:39:16Z</time>
      </trkpt>
      <trkpt lat="48.40506" lon="2.67768">
        <ele>83.77</ele>
        <time>2021-09-15T14:39:20Z</time>
      </trkpt>
      <trkpt lat="48.40504" lon="2.67769">
        <ele>83.94</ele>
        <time>2021-09-15T14:39:21Z</time>
      </trkpt>
      <trkpt lat="48.40496" lon="2.67774">
        <ele>87.03</ele>
        <time>2021-09-15T14:39:26Z</time>
      </trkpt>
      <trkpt lat="48.40481" lon="2.67786">
        <ele>83.98</ele>
        <time>2021-09-15T14:39:38Z</time>
      </trkpt>
      <trkpt lat="48.4046" lon="2.67793">
        <ele>83.33</ele>
        <time>2021-09-15T14:39:56Z</time>
      </trkpt>
      <trkpt lat="48.40456" lon="2.67794">
        <ele>83.19</ele>
        <time>2021-09-15T14:40:09Z</time>
      </trkpt>
      <trkpt lat="48.40455" lon="2.67794">
        <ele>84.16</ele>
        <time>2021-09-15T14:40:20Z</time>
      </trkpt>
      <trkpt lat="48.4045" lon="2.67795">
        <ele>82.1</ele>
        <time>2021-09-15T14:40:30Z</time>
      </trkpt>
      <trkpt lat="48.40448" lon="2.67796">
        <ele>83.63</ele>
        <time>2021-09-15T14:40:34Z</time>
      </trkpt>
    </trkseg>
  </trk>
  <trk>
    <name><![CDATA[2021-09-15 16:40:35]]></name>
    <extensions>
      <line xmlns="http://www.topografix.com/GPX/gpx_style/0/2">
        <color>00FF00</color>
        <width>4</width>
      </line>
    </extensions>
    <trkseg>
      <trkpt lat="48.40214" lon="2.67475">
        <ele>78.36</ele>
        <time>2021-09-15T06:43:17Z</time>
      </trkpt>
      <trkpt lat="48.40213" lon="2.67474">
        <ele>78.65</ele>
        <time>2021-09-15T06:43:18Z</time>
      </trkpt>
      <trkpt lat="48.40209" lon="2.67471">
        <ele>80.29</ele>
        <time>2021-09-15T06:43:21Z</time>
      </trkpt>
      <trkpt lat="48.40196" lon="2.67462">
        <ele>79.7</ele>
        <time>2021-09-15T06:43:36Z</time>
      </trkpt>
      <trkpt lat="48.4018" lon="2.67455">
        <ele>79.26</ele>
        <time>2021-09-15T06:43:58Z</time>
      </trkpt>
      <trkpt lat="48.40179" lon="2.67454">
        <ele>79.32</ele>
        <time>2021-09-15T06:43:59Z</time>
      </trkpt>
      <trkpt lat="48.40178" lon="2.67452">
        <ele>79.34</ele>
        <time>2021-09-15T06:44:00Z</time>
      </trkpt>
      <trkpt lat="48.40177" lon="2.67452">
        <ele>79.35</ele>
        <time>2021-09-15T06:44:01Z</time>
      </trkpt>
      <trkpt lat="48.40163" lon="2.6743">
        <ele>78.98</ele>
        <time>2021-09-15T06:44:21Z</time>
      </trkpt>
      <trkpt lat="48.4015" lon="2.67411">
        <ele>78.9</ele>
        <time>2021-09-15T06:44:42Z</time>
      </trkpt>
      <trkpt lat="48.40146" lon="2.67407">
        <ele>78.75</ele>
        <time>2021-09-15T06:45:03Z</time>
      </trkpt>
      <trkpt lat="48.40143" lon="2.67405">
        <ele>78.75</ele>
        <time>2021-09-15T06:45:06Z</time>
      </trkpt>
      <trkpt lat="48.40128" lon="2.67398">
        <ele>78.75</ele>
        <time>2021-09-15T06:45:29Z</time>
      </trkpt>
      <trkpt lat="48.40115" lon="2.67398">
        <ele>75.72</ele>
        <time>2021-09-15T06:45:48Z</time>
      </trkpt>
      <trkpt lat="48.4011" lon="2.67402">
        <ele>78.43</ele>
        <time>2021-09-15T06:46:13Z</time>
      </trkpt>
      <trkpt lat="48.40109" lon="2.67402">
        <ele>79.68</ele>
        <time>2021-09-15T06:46:16Z</time>
      </trkpt>
      <trkpt lat="48.40089" lon="2.674">
        <ele>79.6</ele>
        <time>2021-09-15T06:46:41Z</time>
      </trkpt>
      <trkpt lat="48.4008" lon="2.67403">
        <ele>79.55</ele>
        <time>2021-09-15T06:46:48Z</time>
      </trkpt>
      <trkpt lat="48.40052" lon="2.67408">
        <ele>79.85</ele>
        <time>2021-09-15T06:47:13Z</time>
      </trkpt>
      <trkpt lat="48.40042" lon="2.67408">
        <ele>77.79</ele>
        <time>2021-09-15T06:47:22Z</time>
      </trkpt>
      <trkpt lat="48.40035" lon="2.67409">
        <ele>79.73</ele>
        <time>2021-09-15T06:47:27Z</time>
      </trkpt>
      <trkpt lat="48.4001" lon="2.67408">
        <ele>78.18</ele>
        <time>2021-09-15T06:47:44Z</time>
      </trkpt>
      <trkpt lat="48.39994" lon="2.674">
        <ele>78.06</ele>
        <time>2021-09-15T06:48:01Z</time>
      </trkpt>
      <trkpt lat="48.39994" lon="2.67392">
        <ele>78.32</ele>
        <time>2021-09-15T06:48:05Z</time>
      </trkpt>
      <trkpt lat="48.39993" lon="2.6739">
        <ele>78.35</ele>
        <time>2021-09-15T06:48:06Z</time>
      </trkpt>
      <trkpt lat="48.39993" lon="2.67389">
        <ele>78.38</ele>
        <time>2021-09-15T06:48:07Z</time>
      </trkpt>
      <trkpt lat="48.39989" lon="2.67364">
        <ele>78.66</ele>
        <time>2021-09-15T06:48:23Z</time>
      </trkpt>
      <trkpt lat="48.39993" lon="2.67346">
        <ele>78.53</ele>
        <time>2021-09-15T06:48:33Z</time>
      </trkpt>
      <trkpt lat="48.40006" lon="2.67326">
        <ele>78.61</ele>
        <time>2021-09-15T06:48:53Z</time>
      </trkpt>
      <trkpt lat="48.40007" lon="2.67325">
        <ele>78.61</ele>
        <time>2021-09-15T06:48:54Z</time>
      </trkpt>
      <trkpt lat="48.40009" lon="2.67324">
        <ele>78.63</ele>
        <time>2021-09-15T06:48:56Z</time>
      </trkpt>
      <trkpt lat="48.40022" lon="2.67322">
        <ele>78.72</ele>
        <time>2021-09-15T06:49:08Z</time>
      </trkpt>
      <trkpt lat="48.40031" lon="2.67309">
        <ele>78.81</ele>
        <time>2021-09-15T06:49:18Z</time>
      </trkpt>
      <trkpt lat="48.40031" lon="2.67293">
        <ele>77.77</ele>
        <time>2021-09-15T06:49:27Z</time>
      </trkpt>
      <trkpt lat="48.40031" lon="2.67291">
        <ele>77.55</ele>
        <time>2021-09-15T06:49:28Z</time>
      </trkpt>
      <trkpt lat="48.4003" lon="2.6729">
        <ele>77.52</ele>
        <time>2021-09-15T06:49:29Z</time>
      </trkpt>
      <trkpt lat="48.40029" lon="2.67289">
        <ele>78.6</ele>
        <time>2021-09-15T06:49:30Z</time>
      </trkpt>
      <trkpt lat="48.40028" lon="2.67288">
        <ele>79.31</ele>
        <time>2021-09-15T06:49:31Z</time>
      </trkpt>
      <trkpt lat="48.40027" lon="2.67287">
        <ele>79.84</ele>
        <time>2021-09-15T06:49:32Z</time>
      </trkpt>
      <trkpt lat="48.40026" lon="2.67285">
        <ele>80.55</ele>
        <time>2021-09-15T06:49:34Z</time>
      </trkpt>
      <trkpt lat="48.40007" lon="2.67279">
        <ele>78.13</ele>
        <time>2021-09-15T06:49:52Z</time>
      </trkpt>
      <trkpt lat="48.39987" lon="2.6726">
        <ele>78.58</ele>
        <time>2021-09-15T06:50:12Z</time>
      </trkpt>
      <trkpt lat="48.39983" lon="2.6724">
        <ele>79.9</ele>
        <time>2021-09-15T06:50:27Z</time>
      </trkpt>
      <trkpt lat="48.3998" lon="2.6722">
        <ele>78.27</ele>
        <time>2021-09-15T06:50:43Z</time>
      </trkpt>
      <trkpt lat="48.39981" lon="2.67204">
        <ele>77.59</ele>
        <time>2021-09-15T06:50:52Z</time>
      </trkpt>
      <trkpt lat="48.39977" lon="2.67172">
        <ele>79.13</ele>
        <time>2021-09-15T06:51:13Z</time>
      </trkpt>
      <trkpt lat="48.39973" lon="2.67149">
        <ele>80.06</ele>
        <time>2021-09-15T06:51:26Z</time>
      </trkpt>
      <trkpt lat="48.3997" lon="2.6712">
        <ele>79.39</ele>
        <time>2021-09-15T06:51:43Z</time>
      </trkpt>
      <trkpt lat="48.39963" lon="2.67077">
        <ele>80.11</ele>
        <time>2021-09-15T06:52:09Z</time>
      </trkpt>
      <trkpt lat="48.39956" lon="2.67055">
        <ele>81.58</ele>
        <time>2021-09-15T06:52:24Z</time>
      </trkpt>
      <trkpt lat="48.39941" lon="2.67017">
        <ele>81.38</ele>
        <time>2021-09-15T06:52:48Z</time>
      </trkpt>
      <trkpt lat="48.39929" lon="2.66992">
        <ele>82.23</ele>
        <time>2021-09-15T06:53:08Z</time>
      </trkpt>
      <trkpt lat="48.39924" lon="2.66971">
        <ele>82.66</ele>
        <time>2021-09-15T06:53:25Z</time>
      </trkpt>
      <trkpt lat="48.39913" lon="2.66953">
        <ele>83.28</ele>
        <time>2021-09-15T06:53:47Z</time>
      </trkpt>
      <trkpt lat="48.39905" lon="2.66946">
        <ele>83.54</ele>
        <time>2021-09-15T06:54:07Z</time>
      </trkpt>
      <trkpt lat="48.39896" lon="2.66926">
        <ele>84.41</ele>
        <time>2021-09-15T06:54:30Z</time>
      </trkpt>
      <trkpt lat="48.39893" lon="2.66915">
        <ele>85.83</ele>
        <time>2021-09-15T06:54:57Z</time>
      </trkpt>
      <trkpt lat="48.39895" lon="2.66904">
        <ele>85.57</ele>
        <time>2021-09-15T06:55:23Z</time>
      </trkpt>
      <trkpt lat="48.39889" lon="2.66903">
        <ele>86.8</ele>
        <time>2021-09-15T06:55:47Z</time>
      </trkpt>
      <trkpt lat="48.39879" lon="2.6689">
        <ele>87</ele>
        <time>2021-09-15T06:56:07Z</time>
      </trkpt>
      <trkpt lat="48.39867" lon="2.66885">
        <ele>89.13</ele>
        <time>2021-09-15T06:56:22Z</time>
      </trkpt>
      <trkpt lat="48.39851" lon="2.66884">
        <ele>91.71</ele>
        <time>2021-09-15T06:56:44Z</time>
      </trkpt>
      <trkpt lat="48.39837" lon="2.66892">
        <ele>94.03</ele>
        <time>2021-09-15T06:57:05Z</time>
      </trkpt>
      <trkpt lat="48.39822" lon="2.66891">
        <ele>97.06</ele>
        <time>2021-09-15T06:57:26Z</time>
      </trkpt>
      <trkpt lat="48.3981" lon="2.66902">
        <ele>100.45</ele>
        <time>2021-09-15T06:57:50Z</time>
      </trkpt>
      <trkpt lat="48.39818" lon="2.66917">
        <ele>103.43</ele>
        <time>2021-09-15T06:58:13Z</time>
      </trkpt>
      <trkpt lat="48.39811" lon="2.66922">
        <ele>104.76</ele>
        <time>2021-09-15T06:58:26Z</time>
      </trkpt>
      <trkpt lat="48.39808" lon="2.6692">
        <ele>105.4</ele>
        <time>2021-09-15T06:58:46Z</time>
      </trkpt>
      <trkpt lat="48.39804" lon="2.66919">
        <ele>105.25</ele>
        <time>2021-09-15T06:59:06Z</time>
      </trkpt>
      <trkpt lat="48.39799" lon="2.66922">
        <ele>106.38</ele>
        <time>2021-09-15T06:59:24Z</time>
      </trkpt>
      <trkpt lat="48.39798" lon="2.66927">
        <ele>108.14</ele>
        <time>2021-09-15T06:59:38Z</time>
      </trkpt>
      <trkpt lat="48.3979" lon="2.66927">
        <ele>111.07</ele>
        <time>2021-09-15T07:00:01Z</time>
      </trkpt>
      <trkpt lat="48.39783" lon="2.66921">
        <ele>113.54</ele>
        <time>2021-09-15T07:00:20Z</time>
      </trkpt>
      <trkpt lat="48.39776" lon="2.6692">
        <ele>116.3</ele>
        <time>2021-09-15T07:00:35Z</time>
      </trkpt>
      <trkpt lat="48.39771" lon="2.66909">
        <ele>118.14</ele>
        <time>2021-09-15T07:00:49Z</time>
      </trkpt>
      <trkpt lat="48.39763" lon="2.6689">
        <ele>119.65</ele>
        <time>2021-09-15T07:01:10Z</time>
      </trkpt>
      <trkpt lat="48.39756" lon="2.6689">
        <ele>121.93</ele>
        <time>2021-09-15T07:01:28Z</time>
      </trkpt>
      <trkpt lat="48.39743" lon="2.66886">
        <ele>124.88</ele>
        <time>2021-09-15T07:01:46Z</time>
      </trkpt>
      <trkpt lat="48.39742" lon="2.66873">
        <ele>126.02</ele>
        <time>2021-09-15T07:02:01Z</time>
      </trkpt>
      <trkpt lat="48.39742" lon="2.66869">
        <ele>126.17</ele>
        <time>2021-09-15T07:02:16Z</time>
      </trkpt>
      <trkpt lat="48.39742" lon="2.66863">
        <ele>125.79</ele>
        <time>2021-09-15T07:02:29Z</time>
      </trkpt>
      <trkpt lat="48.39748" lon="2.66851">
        <ele>125.52</ele>
        <time>2021-09-15T07:02:45Z</time>
      </trkpt>
      <trkpt lat="48.39753" lon="2.66837">
        <ele>124.88</ele>
        <time>2021-09-15T07:03:02Z</time>
      </trkpt>
      <trkpt lat="48.39758" lon="2.66829">
        <ele>124.97</ele>
        <time>2021-09-15T07:03:11Z</time>
      </trkpt>
      <trkpt lat="48.39766" lon="2.66806">
        <ele>125.25</ele>
        <time>2021-09-15T07:03:31Z</time>
      </trkpt>
      <trkpt lat="48.39766" lon="2.66793">
        <ele>124.28</ele>
        <time>2021-09-15T07:03:48Z</time>
      </trkpt>
      <trkpt lat="48.39765" lon="2.66784">
        <ele>122.5</ele>
        <time>2021-09-15T07:04:07Z</time>
      </trkpt>
      <trkpt lat="48.39771" lon="2.66771">
        <ele>120.3</ele>
        <time>2021-09-15T07:04:25Z</time>
      </trkpt>
      <trkpt lat="48.39772" lon="2.66763">
        <ele>117.66</ele>
        <time>2021-09-15T07:04:45Z</time>
      </trkpt>
      <trkpt lat="48.39777" lon="2.66761">
        <ele>117.04</ele>
        <time>2021-09-15T07:05:14Z</time>
      </trkpt>
      <trkpt lat="48.3978" lon="2.66747">
        <ele>118.06</ele>
        <time>2021-09-15T07:05:30Z</time>
      </trkpt>
      <trkpt lat="48.39783" lon="2.66737">
        <ele>121.1</ele>
        <time>2021-09-15T07:05:48Z</time>
      </trkpt>
      <trkpt lat="48.39788" lon="2.6673">
        <ele>123.82</ele>
        <time>2021-09-15T07:06:08Z</time>
      </trkpt>
      <trkpt lat="48.3979" lon="2.66723">
        <ele>121.9</ele>
        <time>2021-09-15T07:06:21Z</time>
      </trkpt>
      <trkpt lat="48.39788" lon="2.66713">
        <ele>120.63</ele>
        <time>2021-09-15T07:06:37Z</time>
      </trkpt>
      <trkpt lat="48.39786" lon="2.66696">
        <ele>120.45</ele>
        <time>2021-09-15T07:06:57Z</time>
      </trkpt>
      <trkpt lat="48.39783" lon="2.66689">
        <ele>117.41</ele>
        <time>2021-09-15T07:07:18Z</time>
      </trkpt>
      <trkpt lat="48.39775" lon="2.66699">
        <ele>114.37</ele>
        <time>2021-09-15T07:07:38Z</time>
      </trkpt>
      <trkpt lat="48.39768" lon="2.66697">
        <ele>112.9</ele>
        <time>2021-09-15T07:07:51Z</time>
      </trkpt>
      <trkpt lat="48.39766" lon="2.66696">
        <ele>112.78</ele>
        <time>2021-09-15T07:07:52Z</time>
      </trkpt>
      <trkpt lat="48.39765" lon="2.66695">
        <ele>112.64</ele>
        <time>2021-09-15T07:07:53Z</time>
      </trkpt>
      <trkpt lat="48.39763" lon="2.66695">
        <ele>112.43</ele>
        <time>2021-09-15T07:07:54Z</time>
      </trkpt>
      <trkpt lat="48.39762" lon="2.66695">
        <ele>112.17</ele>
        <time>2021-09-15T07:07:55Z</time>
      </trkpt>
      <trkpt lat="48.3976" lon="2.66695">
        <ele>111.92</ele>
        <time>2021-09-15T07:07:56Z</time>
      </trkpt>
      <trkpt lat="48.39759" lon="2.66695">
        <ele>111.37</ele>
        <time>2021-09-15T07:07:57Z</time>
      </trkpt>
      <trkpt lat="48.39757" lon="2.66695">
        <ele>111.06</ele>
        <time>2021-09-15T07:07:58Z</time>
      </trkpt>
      <trkpt lat="48.39756" lon="2.66694">
        <ele>110.74</ele>
        <time>2021-09-15T07:07:59Z</time>
      </trkpt>
      <trkpt lat="48.39755" lon="2.66692">
        <ele>110.35</ele>
        <time>2021-09-15T07:08:00Z</time>
      </trkpt>
      <trkpt lat="48.39754" lon="2.66689">
        <ele>109.86</ele>
        <time>2021-09-15T07:08:01Z</time>
      </trkpt>
      <trkpt lat="48.39753" lon="2.66686">
        <ele>109.37</ele>
        <time>2021-09-15T07:08:02Z</time>
      </trkpt>
      <trkpt lat="48.39752" lon="2.66684">
        <ele>108.92</ele>
        <time>2021-09-15T07:08:03Z</time>
      </trkpt>
      <trkpt lat="48.39746" lon="2.66672">
        <ele>105.34</ele>
        <time>2021-09-15T07:08:09Z</time>
      </trkpt>
      <trkpt lat="48.39736" lon="2.66663">
        <ele>102.26</ele>
        <time>2021-09-15T07:08:17Z</time>
      </trkpt>
      <trkpt lat="48.3972" lon="2.66667">
        <ele>99.46</ele>
        <time>2021-09-15T07:08:25Z</time>
      </trkpt>
      <trkpt lat="48.39719" lon="2.66668">
        <ele>99.16</ele>
        <time>2021-09-15T07:08:26Z</time>
      </trkpt>
      <trkpt lat="48.39711" lon="2.66672">
        <ele>97.44</ele>
        <time>2021-09-15T07:08:31Z</time>
      </trkpt>
      <trkpt lat="48.39682" lon="2.66684">
        <ele>94.48</ele>
        <time>2021-09-15T07:08:51Z</time>
      </trkpt>
      <trkpt lat="48.39677" lon="2.66685">
        <ele>94.1</ele>
        <time>2021-09-15T07:08:54Z</time>
      </trkpt>
      <trkpt lat="48.39652" lon="2.66688">
        <ele>90.73</ele>
        <time>2021-09-15T07:09:14Z</time>
      </trkpt>
      <trkpt lat="48.39645" lon="2.66689">
        <ele>92.09</ele>
        <time>2021-09-15T07:09:18Z</time>
      </trkpt>
      <trkpt lat="48.39617" lon="2.6669">
        <ele>89.13</ele>
        <time>2021-09-15T07:09:42Z</time>
      </trkpt>
      <trkpt lat="48.39604" lon="2.66685">
        <ele>87.77</ele>
        <time>2021-09-15T07:10:00Z</time>
      </trkpt>
      <trkpt lat="48.39593" lon="2.66679">
        <ele>86.53</ele>
        <time>2021-09-15T07:10:07Z</time>
      </trkpt>
      <trkpt lat="48.39589" lon="2.66678">
        <ele>85.9</ele>
        <time>2021-09-15T07:10:08Z</time>
      </trkpt>
      <trkpt lat="48.3958" lon="2.66674">
        <ele>85</ele>
        <time>2021-09-15T07:10:15Z</time>
      </trkpt>
      <trkpt lat="48.39561" lon="2.66671">
        <ele>84.83</ele>
        <time>2021-09-15T07:10:33Z</time>
      </trkpt>
      <trkpt lat="48.39549" lon="2.6667">
        <ele>84.54</ele>
        <time>2021-09-15T07:10:43Z</time>
      </trkpt>
      <trkpt lat="48.39527" lon="2.66664">
        <ele>84</ele>
        <time>2021-09-15T07:11:06Z</time>
      </trkpt>
      <trkpt lat="48.3951" lon="2.66666">
        <ele>82.8</ele>
        <time>2021-09-15T07:11:26Z</time>
      </trkpt>
      <trkpt lat="48.39495" lon="2.66675">
        <ele>82.34</ele>
        <time>2021-09-15T07:11:46Z</time>
      </trkpt>
      <trkpt lat="48.39486" lon="2.66679">
        <ele>81.9</ele>
        <time>2021-09-15T07:12:07Z</time>
      </trkpt>
      <trkpt lat="48.39488" lon="2.66675">
        <ele>81.82</ele>
        <time>2021-09-15T07:12:40Z</time>
      </trkpt>
      <trkpt lat="48.3949" lon="2.66674">
        <ele>81.82</ele>
        <time>2021-09-15T07:12:52Z</time>
      </trkpt>
      <trkpt lat="48.39489" lon="2.66674">
        <ele>81.82</ele>
        <time>2021-09-15T07:12:56Z</time>
      </trkpt>
      <trkpt lat="48.3947" lon="2.66686">
        <ele>81.01</ele>
        <time>2021-09-15T07:13:16Z</time>
      </trkpt>
      <trkpt lat="48.39444" lon="2.66711">
        <ele>80.06</ele>
        <time>2021-09-15T07:13:42Z</time>
      </trkpt>
      <trkpt lat="48.3943" lon="2.66723">
        <ele>79.76</ele>
        <time>2021-09-15T07:13:55Z</time>
      </trkpt>
      <trkpt lat="48.39414" lon="2.66737">
        <ele>79.33</ele>
        <time>2021-09-15T07:14:10Z</time>
      </trkpt>
      <trkpt lat="48.39397" lon="2.66754">
        <ele>78.98</ele>
        <time>2021-09-15T07:14:26Z</time>
      </trkpt>
      <trkpt lat="48.39388" lon="2.66761">
        <ele>78.63</ele>
        <time>2021-09-15T07:14:35Z</time>
      </trkpt>
      <trkpt lat="48.39386" lon="2.66762">
        <ele>78.61</ele>
        <time>2021-09-15T07:14:36Z</time>
      </trkpt>
      <trkpt lat="48.39385" lon="2.66762">
        <ele>78.6</ele>
        <time>2021-09-15T07:14:37Z</time>
      </trkpt>
      <trkpt lat="48.39373" lon="2.66768">
        <ele>76.98</ele>
        <time>2021-09-15T07:14:47Z</time>
      </trkpt>
      <trkpt lat="48.39355" lon="2.66773">
        <ele>77.31</ele>
        <time>2021-09-15T07:15:03Z</time>
      </trkpt>
      <trkpt lat="48.39329" lon="2.66778">
        <ele>76.52</ele>
        <time>2021-09-15T07:15:23Z</time>
      </trkpt>
      <trkpt lat="48.39325" lon="2.66777">
        <ele>76.56</ele>
        <time>2021-09-15T07:15:26Z</time>
      </trkpt>
      <trkpt lat="48.39318" lon="2.66779">
        <ele>76.71</ele>
        <time>2021-09-15T07:15:32Z</time>
      </trkpt>
      <trkpt lat="48.39317" lon="2.6678">
        <ele>76.72</ele>
        <time>2021-09-15T07:15:33Z</time>
      </trkpt>
      <trkpt lat="48.39298" lon="2.66782">
        <ele>76.85</ele>
        <time>2021-09-15T07:15:48Z</time>
      </trkpt>
      <trkpt lat="48.39282" lon="2.66786">
        <ele>77.23</ele>
        <time>2021-09-15T07:16:03Z</time>
      </trkpt>
      <trkpt lat="48.39279" lon="2.66789">
        <ele>77.28</ele>
        <time>2021-09-15T07:16:06Z</time>
      </trkpt>
      <trkpt lat="48.39277" lon="2.66789">
        <ele>77.29</ele>
        <time>2021-09-15T07:16:07Z</time>
      </trkpt>
      <trkpt lat="48.39273" lon="2.6679">
        <ele>77.37</ele>
        <time>2021-09-15T07:16:11Z</time>
      </trkpt>
      <trkpt lat="48.3927" lon="2.66791">
        <ele>77.46</ele>
        <time>2021-09-15T07:16:14Z</time>
      </trkpt>
      <trkpt lat="48.39256" lon="2.66794">
        <ele>77.85</ele>
        <time>2021-09-15T07:16:27Z</time>
      </trkpt>
      <trkpt lat="48.39254" lon="2.66795">
        <ele>77.88</ele>
        <time>2021-09-15T07:16:28Z</time>
      </trkpt>
      <trkpt lat="48.39239" lon="2.66798">
        <ele>78.41</ele>
        <time>2021-09-15T07:16:43Z</time>
      </trkpt>
      <trkpt lat="48.39227" lon="2.66814">
        <ele>77.53</ele>
        <time>2021-09-15T07:16:57Z</time>
      </trkpt>
      <trkpt lat="48.39226" lon="2.66818">
        <ele>77.35</ele>
        <time>2021-09-15T07:16:59Z</time>
      </trkpt>
      <trkpt lat="48.39224" lon="2.66831">
        <ele>79.37</ele>
        <time>2021-09-15T07:17:08Z</time>
      </trkpt>
      <trkpt lat="48.39223" lon="2.66833">
        <ele>79.49</ele>
        <time>2021-09-15T07:17:09Z</time>
      </trkpt>
      <trkpt lat="48.39215" lon="2.66862">
        <ele>77.66</ele>
        <time>2021-09-15T07:17:25Z</time>
      </trkpt>
      <trkpt lat="48.39207" lon="2.66892">
        <ele>77.84</ele>
        <time>2021-09-15T07:17:42Z</time>
      </trkpt>
      <trkpt lat="48.39201" lon="2.66915">
        <ele>78.09</ele>
        <time>2021-09-15T07:17:56Z</time>
      </trkpt>
      <trkpt lat="48.39195" lon="2.66934">
        <ele>77.96</ele>
        <time>2021-09-15T07:18:08Z</time>
      </trkpt>
      <trkpt lat="48.39195" lon="2.66936">
        <ele>77.92</ele>
        <time>2021-09-15T07:18:09Z</time>
      </trkpt>
      <trkpt lat="48.3919" lon="2.6696">
        <ele>77.81</ele>
        <time>2021-09-15T07:18:25Z</time>
      </trkpt>
      <trkpt lat="48.39185" lon="2.66983">
        <ele>77.7</ele>
        <time>2021-09-15T07:18:39Z</time>
      </trkpt>
      <trkpt lat="48.39177" lon="2.67017">
        <ele>77.84</ele>
        <time>2021-09-15T07:18:57Z</time>
      </trkpt>
      <trkpt lat="48.39167" lon="2.67052">
        <ele>77.77</ele>
        <time>2021-09-15T07:19:16Z</time>
      </trkpt>
      <trkpt lat="48.39156" lon="2.67085">
        <ele>77.6</ele>
        <time>2021-09-15T07:19:35Z</time>
      </trkpt>
      <trkpt lat="48.39145" lon="2.67111">
        <ele>77.81</ele>
        <time>2021-09-15T07:19:53Z</time>
      </trkpt>
      <trkpt lat="48.39134" lon="2.67135">
        <ele>77.73</ele>
        <time>2021-09-15T07:20:09Z</time>
      </trkpt>
      <trkpt lat="48.39133" lon="2.67137">
        <ele>77.75</ele>
        <time>2021-09-15T07:20:10Z</time>
      </trkpt>
      <trkpt lat="48.39132" lon="2.67138">
        <ele>77.76</ele>
        <time>2021-09-15T07:20:11Z</time>
      </trkpt>
      <trkpt lat="48.39125" lon="2.67175">
        <ele>77.87</ele>
        <time>2021-09-15T07:20:32Z</time>
      </trkpt>
      <trkpt lat="48.39111" lon="2.67193">
        <ele>77.58</ele>
        <time>2021-09-15T07:20:47Z</time>
      </trkpt>
      <trkpt lat="48.39103" lon="2.67214">
        <ele>77.27</ele>
        <time>2021-09-15T07:21:02Z</time>
      </trkpt>
      <trkpt lat="48.39103" lon="2.67221">
        <ele>77.22</ele>
        <time>2021-09-15T07:21:07Z</time>
      </trkpt>
      <trkpt lat="48.39103" lon="2.67223">
        <ele>77.21</ele>
        <time>2021-09-15T07:21:08Z</time>
      </trkpt>
      <trkpt lat="48.39103" lon="2.67225">
        <ele>77.21</ele>
        <time>2021-09-15T07:21:09Z</time>
      </trkpt>
      <trkpt lat="48.39103" lon="2.67227">
        <ele>77.2</ele>
        <time>2021-09-15T07:21:10Z</time>
      </trkpt>
      <trkpt lat="48.39103" lon="2.67228">
        <ele>77.2</ele>
        <time>2021-09-15T07:21:11Z</time>
      </trkpt>
      <trkpt lat="48.39102" lon="2.67258">
        <ele>76.98</ele>
        <time>2021-09-15T07:21:29Z</time>
      </trkpt>
      <trkpt lat="48.391" lon="2.67283">
        <ele>76.8</ele>
        <time>2021-09-15T07:21:43Z</time>
      </trkpt>
      <trkpt lat="48.39096" lon="2.6732">
        <ele>76.81</ele>
        <time>2021-09-15T07:22:01Z</time>
      </trkpt>
      <trkpt lat="48.39093" lon="2.6735">
        <ele>76.78</ele>
        <time>2021-09-15T07:22:17Z</time>
      </trkpt>
      <trkpt lat="48.39091" lon="2.6738">
        <ele>76.57</ele>
        <time>2021-09-15T07:22:33Z</time>
      </trkpt>
      <trkpt lat="48.39091" lon="2.67411">
        <ele>76.62</ele>
        <time>2021-09-15T07:22:50Z</time>
      </trkpt>
      <trkpt lat="48.39091" lon="2.67413">
        <ele>76.61</ele>
        <time>2021-09-15T07:22:51Z</time>
      </trkpt>
      <trkpt lat="48.39091" lon="2.67415">
        <ele>76.6</ele>
        <time>2021-09-15T07:22:52Z</time>
      </trkpt>
      <trkpt lat="48.39092" lon="2.67416">
        <ele>76.61</ele>
        <time>2021-09-15T07:22:53Z</time>
      </trkpt>
      <trkpt lat="48.39092" lon="2.67418">
        <ele>76.64</ele>
        <time>2021-09-15T07:22:54Z</time>
      </trkpt>
      <trkpt lat="48.39092" lon="2.6742">
        <ele>76.67</ele>
        <time>2021-09-15T07:22:55Z</time>
      </trkpt>
      <trkpt lat="48.39093" lon="2.67422">
        <ele>76.68</ele>
        <time>2021-09-15T07:22:56Z</time>
      </trkpt>
      <trkpt lat="48.39093" lon="2.67424">
        <ele>76.68</ele>
        <time>2021-09-15T07:22:57Z</time>
      </trkpt>
      <trkpt lat="48.39093" lon="2.67426">
        <ele>76.68</ele>
        <time>2021-09-15T07:22:58Z</time>
      </trkpt>
      <trkpt lat="48.3909" lon="2.67448">
        <ele>76.6</ele>
        <time>2021-09-15T07:23:09Z</time>
      </trkpt>
      <trkpt lat="48.39086" lon="2.67485">
        <ele>76.52</ele>
        <time>2021-09-15T07:23:28Z</time>
      </trkpt>
      <trkpt lat="48.3909" lon="2.67509">
        <ele>76.69</ele>
        <time>2021-09-15T07:23:41Z</time>
      </trkpt>
      <trkpt lat="48.39091" lon="2.6754">
        <ele>76.35</ele>
        <time>2021-09-15T07:23:58Z</time>
      </trkpt>
      <trkpt lat="48.39091" lon="2.67579">
        <ele>76.18</ele>
        <time>2021-09-15T07:24:18Z</time>
      </trkpt>
      <trkpt lat="48.39099" lon="2.67611">
        <ele>76.23</ele>
        <time>2021-09-15T07:24:37Z</time>
      </trkpt>
      <trkpt lat="48.39106" lon="2.67635">
        <ele>75.51</ele>
        <time>2021-09-15T07:24:53Z</time>
      </trkpt>
      <trkpt lat="48.39105" lon="2.67636">
        <ele>75.54</ele>
        <time>2021-09-15T07:24:54Z</time>
      </trkpt>
      <trkpt lat="48.39105" lon="2.67638">
        <ele>75.55</ele>
        <time>2021-09-15T07:24:55Z</time>
      </trkpt>
      <trkpt lat="48.39105" lon="2.6764">
        <ele>75.46</ele>
        <time>2021-09-15T07:24:56Z</time>
      </trkpt>
      <trkpt lat="48.39104" lon="2.67641">
        <ele>75.23</ele>
        <time>2021-09-15T07:24:57Z</time>
      </trkpt>
      <trkpt lat="48.39104" lon="2.67643">
        <ele>74.99</ele>
        <time>2021-09-15T07:24:58Z</time>
      </trkpt>
      <trkpt lat="48.39104" lon="2.67645">
        <ele>74.85</ele>
        <time>2021-09-15T07:24:59Z</time>
      </trkpt>
      <trkpt lat="48.39105" lon="2.67649">
        <ele>74.73</ele>
        <time>2021-09-15T07:25:01Z</time>
      </trkpt>
      <trkpt lat="48.39106" lon="2.67653">
        <ele>74.73</ele>
        <time>2021-09-15T07:25:03Z</time>
      </trkpt>
      <trkpt lat="48.39106" lon="2.67655">
        <ele>74.81</ele>
        <time>2021-09-15T07:25:04Z</time>
      </trkpt>
      <trkpt lat="48.39107" lon="2.67657">
        <ele>74.85</ele>
        <time>2021-09-15T07:25:05Z</time>
      </trkpt>
      <trkpt lat="48.39107" lon="2.67658">
        <ele>74.86</ele>
        <time>2021-09-15T07:25:06Z</time>
      </trkpt>
      <trkpt lat="48.39108" lon="2.6766">
        <ele>74.86</ele>
        <time>2021-09-15T07:25:07Z</time>
      </trkpt>
      <trkpt lat="48.39109" lon="2.67661">
        <ele>74.78</ele>
        <time>2021-09-15T07:25:08Z</time>
      </trkpt>
      <trkpt lat="48.3911" lon="2.67663">
        <ele>74.79</ele>
        <time>2021-09-15T07:25:09Z</time>
      </trkpt>
      <trkpt lat="48.3911" lon="2.67664">
        <ele>74.85</ele>
        <time>2021-09-15T07:25:10Z</time>
      </trkpt>
      <trkpt lat="48.3911" lon="2.67666">
        <ele>75.12</ele>
        <time>2021-09-15T07:25:11Z</time>
      </trkpt>
      <trkpt lat="48.3911" lon="2.67668">
        <ele>75.39</ele>
        <time>2021-09-15T07:25:12Z</time>
      </trkpt>
      <trkpt lat="48.39108" lon="2.67682">
        <ele>75.82</ele>
        <time>2021-09-15T07:25:25Z</time>
      </trkpt>
      <trkpt lat="48.39115" lon="2.67702">
        <ele>75.43</ele>
        <time>2021-09-15T07:25:38Z</time>
      </trkpt>
      <trkpt lat="48.39115" lon="2.67704">
        <ele>75.38</ele>
        <time>2021-09-15T07:25:39Z</time>
      </trkpt>
      <trkpt lat="48.39115" lon="2.67705">
        <ele>75.33</ele>
        <time>2021-09-15T07:25:40Z</time>
      </trkpt>
      <trkpt lat="48.39115" lon="2.67707">
        <ele>75.29</ele>
        <time>2021-09-15T07:25:41Z</time>
      </trkpt>
      <trkpt lat="48.39115" lon="2.67709">
        <ele>75.26</ele>
        <time>2021-09-15T07:25:42Z</time>
      </trkpt>
      <trkpt lat="48.39116" lon="2.67717">
        <ele>75.18</ele>
        <time>2021-09-15T07:25:48Z</time>
      </trkpt>
      <trkpt lat="48.39121" lon="2.67738">
        <ele>75.28</ele>
        <time>2021-09-15T07:26:01Z</time>
      </trkpt>
      <trkpt lat="48.39131" lon="2.67768">
        <ele>75.43</ele>
        <time>2021-09-15T07:26:19Z</time>
      </trkpt>
      <trkpt lat="48.39137" lon="2.6778">
        <ele>75.26</ele>
        <time>2021-09-15T07:26:27Z</time>
      </trkpt>
      <trkpt lat="48.39137" lon="2.67781">
        <ele>75.23</ele>
        <time>2021-09-15T07:26:28Z</time>
      </trkpt>
      <trkpt lat="48.39138" lon="2.67783">
        <ele>75.21</ele>
        <time>2021-09-15T07:26:29Z</time>
      </trkpt>
      <trkpt lat="48.39139" lon="2.67785">
        <ele>75.2</ele>
        <time>2021-09-15T07:26:30Z</time>
      </trkpt>
      <trkpt lat="48.39139" lon="2.67786">
        <ele>75.19</ele>
        <time>2021-09-15T07:26:31Z</time>
      </trkpt>
      <trkpt lat="48.3914" lon="2.67788">
        <ele>75.18</ele>
        <time>2021-09-15T07:26:32Z</time>
      </trkpt>
      <trkpt lat="48.3914" lon="2.67789">
        <ele>75.17</ele>
        <time>2021-09-15T07:26:33Z</time>
      </trkpt>
      <trkpt lat="48.39141" lon="2.67791">
        <ele>75.15</ele>
        <time>2021-09-15T07:26:34Z</time>
      </trkpt>
      <trkpt lat="48.39142" lon="2.67792">
        <ele>75.12</ele>
        <time>2021-09-15T07:26:35Z</time>
      </trkpt>
      <trkpt lat="48.39154" lon="2.67821">
        <ele>73.93</ele>
        <time>2021-09-15T07:26:54Z</time>
      </trkpt>
      <trkpt lat="48.39164" lon="2.67843">
        <ele>74.3</ele>
        <time>2021-09-15T07:27:10Z</time>
      </trkpt>
      <trkpt lat="48.39174" lon="2.67867">
        <ele>74.55</ele>
        <time>2021-09-15T07:27:24Z</time>
      </trkpt>
      <trkpt lat="48.39178" lon="2.67883">
        <ele>74.02</ele>
        <time>2021-09-15T07:27:34Z</time>
      </trkpt>
      <trkpt lat="48.39177" lon="2.67885">
        <ele>73.89</ele>
        <time>2021-09-15T07:27:35Z</time>
      </trkpt>
      <trkpt lat="48.39168" lon="2.67901">
        <ele>73.1</ele>
        <time>2021-09-15T07:27:49Z</time>
      </trkpt>
      <trkpt lat="48.39156" lon="2.6792">
        <ele>73.82</ele>
        <time>2021-09-15T07:28:06Z</time>
      </trkpt>
      <trkpt lat="48.39154" lon="2.67923">
        <ele>73.92</ele>
        <time>2021-09-15T07:28:08Z</time>
      </trkpt>
      <trkpt lat="48.39152" lon="2.67924">
        <ele>73.88</ele>
        <time>2021-09-15T07:28:09Z</time>
      </trkpt>
      <trkpt lat="48.39151" lon="2.67924">
        <ele>73.74</ele>
        <time>2021-09-15T07:28:10Z</time>
      </trkpt>
      <trkpt lat="48.3915" lon="2.67925">
        <ele>73.6</ele>
        <time>2021-09-15T07:28:11Z</time>
      </trkpt>
      <trkpt lat="48.39148" lon="2.67925">
        <ele>73.46</ele>
        <time>2021-09-15T07:28:12Z</time>
      </trkpt>
      <trkpt lat="48.39126" lon="2.67917">
        <ele>72.8</ele>
        <time>2021-09-15T07:28:29Z</time>
      </trkpt>
      <trkpt lat="48.3912" lon="2.67915">
        <ele>73.06</ele>
        <time>2021-09-15T07:28:34Z</time>
      </trkpt>
      <trkpt lat="48.39119" lon="2.67915">
        <ele>73.09</ele>
        <time>2021-09-15T07:28:35Z</time>
      </trkpt>
      <trkpt lat="48.39117" lon="2.67914">
        <ele>73.18</ele>
        <time>2021-09-15T07:28:36Z</time>
      </trkpt>
      <trkpt lat="48.39116" lon="2.67914">
        <ele>73.28</ele>
        <time>2021-09-15T07:28:37Z</time>
      </trkpt>
      <trkpt lat="48.39115" lon="2.67913">
        <ele>73.32</ele>
        <time>2021-09-15T07:28:38Z</time>
      </trkpt>
      <trkpt lat="48.39113" lon="2.67913">
        <ele>73.34</ele>
        <time>2021-09-15T07:28:39Z</time>
      </trkpt>
      <trkpt lat="48.39091" lon="2.67906">
        <ele>75.17</ele>
        <time>2021-09-15T07:28:57Z</time>
      </trkpt>
      <trkpt lat="48.39063" lon="2.67886">
        <ele>76.36</ele>
        <time>2021-09-15T07:29:22Z</time>
      </trkpt>
      <trkpt lat="48.39024" lon="2.67869">
        <ele>76.32</ele>
        <time>2021-09-15T07:29:54Z</time>
      </trkpt>
      <trkpt lat="48.38997" lon="2.67853">
        <ele>75.39</ele>
        <time>2021-09-15T07:30:18Z</time>
      </trkpt>
      <trkpt lat="48.38972" lon="2.67842">
        <ele>75.69</ele>
        <time>2021-09-15T07:30:39Z</time>
      </trkpt>
      <trkpt lat="48.38942" lon="2.67827">
        <ele>72.84</ele>
        <time>2021-09-15T07:31:04Z</time>
      </trkpt>
      <trkpt lat="48.38935" lon="2.67822">
        <ele>75.54</ele>
        <time>2021-09-15T07:31:11Z</time>
      </trkpt>
      <trkpt lat="48.38911" lon="2.67812">
        <ele>75.11</ele>
        <time>2021-09-15T07:31:32Z</time>
      </trkpt>
      <trkpt lat="48.38896" lon="2.67804">
        <ele>75.36</ele>
        <time>2021-09-15T07:31:48Z</time>
      </trkpt>
      <trkpt lat="48.38876" lon="2.67793">
        <ele>75.91</ele>
        <time>2021-09-15T07:32:07Z</time>
      </trkpt>
      <trkpt lat="48.3885" lon="2.67778">
        <ele>75.8</ele>
        <time>2021-09-15T07:32:29Z</time>
      </trkpt>
      <trkpt lat="48.38832" lon="2.67774">
        <ele>75.44</ele>
        <time>2021-09-15T07:32:46Z</time>
      </trkpt>
      <trkpt lat="48.38827" lon="2.67783">
        <ele>75.35</ele>
        <time>2021-09-15T07:32:54Z</time>
      </trkpt>
      <trkpt lat="48.38822" lon="2.67812">
        <ele>75.82</ele>
        <time>2021-09-15T07:33:09Z</time>
      </trkpt>
      <trkpt lat="48.38817" lon="2.67838">
        <ele>75.88</ele>
        <time>2021-09-15T07:33:23Z</time>
      </trkpt>
      <trkpt lat="48.38815" lon="2.6787">
        <ele>76.01</ele>
        <time>2021-09-15T07:33:39Z</time>
      </trkpt>
      <trkpt lat="48.38808" lon="2.67894">
        <ele>76.15</ele>
        <time>2021-09-15T07:33:54Z</time>
      </trkpt>
      <trkpt lat="48.38801" lon="2.67912">
        <ele>76.58</ele>
        <time>2021-09-15T07:34:11Z</time>
      </trkpt>
      <trkpt lat="48.38798" lon="2.67941">
        <ele>76.39</ele>
        <time>2021-09-15T07:34:32Z</time>
      </trkpt>
      <trkpt lat="48.38789" lon="2.67983">
        <ele>76.53</ele>
        <time>2021-09-15T07:34:54Z</time>
      </trkpt>
      <trkpt lat="48.38786" lon="2.68041">
        <ele>76.31</ele>
        <time>2021-09-15T07:35:22Z</time>
      </trkpt>
      <trkpt lat="48.38783" lon="2.68096">
        <ele>76.7</ele>
        <time>2021-09-15T07:35:51Z</time>
      </trkpt>
      <trkpt lat="48.38774" lon="2.6816">
        <ele>76.34</ele>
        <time>2021-09-15T07:36:20Z</time>
      </trkpt>
      <trkpt lat="48.3877" lon="2.68191">
        <ele>75.97</ele>
        <time>2021-09-15T07:36:38Z</time>
      </trkpt>
      <trkpt lat="48.38771" lon="2.68191">
        <ele>75.33</ele>
        <time>2021-09-15T07:36:47Z</time>
      </trkpt>
      <trkpt lat="48.38771" lon="2.6819">
        <ele>75.4</ele>
        <time>2021-09-15T07:36:48Z</time>
      </trkpt>
      <trkpt lat="48.38768" lon="2.68181">
        <ele>75.93</ele>
        <time>2021-09-15T07:36:56Z</time>
      </trkpt>
      <trkpt lat="48.38767" lon="2.6818">
        <ele>75.88</ele>
        <time>2021-09-15T07:36:57Z</time>
      </trkpt>
      <trkpt lat="48.38766" lon="2.6818">
        <ele>75.85</ele>
        <time>2021-09-15T07:36:58Z</time>
      </trkpt>
      <trkpt lat="48.38765" lon="2.68179">
        <ele>75.83</ele>
        <time>2021-09-15T07:36:59Z</time>
      </trkpt>
      <trkpt lat="48.38763" lon="2.68178">
        <ele>75.82</ele>
        <time>2021-09-15T07:37:00Z</time>
      </trkpt>
      <trkpt lat="48.38746" lon="2.68175">
        <ele>76.81</ele>
        <time>2021-09-15T07:37:18Z</time>
      </trkpt>
      <trkpt lat="48.38729" lon="2.68176">
        <ele>78.42</ele>
        <time>2021-09-15T07:37:35Z</time>
      </trkpt>
      <trkpt lat="48.38701" lon="2.68179">
        <ele>80.88</ele>
        <time>2021-09-15T07:38:04Z</time>
      </trkpt>
      <trkpt lat="48.3868" lon="2.68182">
        <ele>83.9</ele>
        <time>2021-09-15T07:38:27Z</time>
      </trkpt>
      <trkpt lat="48.38661" lon="2.68175">
        <ele>87.09</ele>
        <time>2021-09-15T07:38:52Z</time>
      </trkpt>
      <trkpt lat="48.38647" lon="2.68173">
        <ele>89.41</ele>
        <time>2021-09-15T07:39:13Z</time>
      </trkpt>
      <trkpt lat="48.38633" lon="2.68165">
        <ele>92.42</ele>
        <time>2021-09-15T07:39:32Z</time>
      </trkpt>
      <trkpt lat="48.38616" lon="2.68149">
        <ele>95.04</ele>
        <time>2021-09-15T07:39:57Z</time>
      </trkpt>
      <trkpt lat="48.3861" lon="2.68144">
        <ele>95.88</ele>
        <time>2021-09-15T07:40:06Z</time>
      </trkpt>
      <trkpt lat="48.38598" lon="2.68137">
        <ele>98.98</ele>
        <time>2021-09-15T07:40:25Z</time>
      </trkpt>
      <trkpt lat="48.386" lon="2.68133">
        <ele>99.53</ele>
        <time>2021-09-15T07:40:43Z</time>
      </trkpt>
      <trkpt lat="48.38596" lon="2.68131">
        <ele>99.75</ele>
        <time>2021-09-15T07:41:05Z</time>
      </trkpt>
      <trkpt lat="48.38597" lon="2.68117">
        <ele>100.71</ele>
        <time>2021-09-15T07:41:25Z</time>
      </trkpt>
      <trkpt lat="48.38601" lon="2.68093">
        <ele>103.06</ele>
        <time>2021-09-15T07:41:46Z</time>
      </trkpt>
      <trkpt lat="48.38605" lon="2.68076">
        <ele>105.35</ele>
        <time>2021-09-15T07:42:07Z</time>
      </trkpt>
      <trkpt lat="48.38617" lon="2.68052">
        <ele>107.37</ele>
        <time>2021-09-15T07:42:28Z</time>
      </trkpt>
      <trkpt lat="48.38617" lon="2.68017">
        <ele>107.63</ele>
        <time>2021-09-15T07:42:54Z</time>
      </trkpt>
      <trkpt lat="48.38612" lon="2.67983">
        <ele>107.94</ele>
        <time>2021-09-15T07:43:15Z</time>
      </trkpt>
      <trkpt lat="48.38611" lon="2.67954">
        <ele>106.84</ele>
        <time>2021-09-15T07:43:35Z</time>
      </trkpt>
      <trkpt lat="48.38613" lon="2.67918">
        <ele>106.12</ele>
        <time>2021-09-15T07:43:59Z</time>
      </trkpt>
      <trkpt lat="48.38622" lon="2.67895">
        <ele>106.4</ele>
        <time>2021-09-15T07:44:20Z</time>
      </trkpt>
      <trkpt lat="48.38633" lon="2.6787">
        <ele>108.67</ele>
        <time>2021-09-15T07:44:43Z</time>
      </trkpt>
      <trkpt lat="48.38643" lon="2.6785">
        <ele>111.18</ele>
        <time>2021-09-15T07:45:04Z</time>
      </trkpt>
      <trkpt lat="48.38647" lon="2.67837">
        <ele>114.34</ele>
        <time>2021-09-15T07:45:21Z</time>
      </trkpt>
      <trkpt lat="48.38649" lon="2.67825">
        <ele>117.45</ele>
        <time>2021-09-15T07:45:41Z</time>
      </trkpt>
      <trkpt lat="48.38651" lon="2.67801">
        <ele>120.17</ele>
        <time>2021-09-15T07:46:03Z</time>
      </trkpt>
      <trkpt lat="48.38653" lon="2.67785">
        <ele>120.77</ele>
        <time>2021-09-15T07:46:21Z</time>
      </trkpt>
      <trkpt lat="48.38648" lon="2.67784">
        <ele>122.26</ele>
        <time>2021-09-15T07:46:40Z</time>
      </trkpt>
      <trkpt lat="48.38643" lon="2.67783">
        <ele>122.48</ele>
        <time>2021-09-15T07:47:08Z</time>
      </trkpt>
      <trkpt lat="48.38643" lon="2.6778">
        <ele>121.59</ele>
        <time>2021-09-15T07:47:37Z</time>
      </trkpt>
      <trkpt lat="48.38646" lon="2.6778">
        <ele>121.59</ele>
        <time>2021-09-15T07:48:18Z</time>
      </trkpt>
      <trkpt lat="48.38644" lon="2.67781">
        <ele>121.59</ele>
        <time>2021-09-15T07:48:42Z</time>
      </trkpt>
      <trkpt lat="48.38644" lon="2.67784">
        <ele>121.59</ele>
        <time>2021-09-15T07:49:08Z</time>
      </trkpt>
      <trkpt lat="48.38644" lon="2.67784">
        <ele>121.59</ele>
        <time>2021-09-15T07:49:29Z</time>
      </trkpt>
      <trkpt lat="48.38644" lon="2.67784">
        <ele>121.59</ele>
        <time>2021-09-15T07:49:47Z</time>
      </trkpt>
      <trkpt lat="48.38643" lon="2.67784">
        <ele>121.59</ele>
        <time>2021-09-15T07:50:11Z</time>
      </trkpt>
      <trkpt lat="48.38644" lon="2.67784">
        <ele>121.59</ele>
        <time>2021-09-15T07:50:34Z</time>
      </trkpt>
      <trkpt lat="48.38644" lon="2.67784">
        <ele>121.59</ele>
        <time>2021-09-15T07:51:04Z</time>
      </trkpt>
      <trkpt lat="48.38644" lon="2.67785">
        <ele>121.59</ele>
        <time>2021-09-15T07:51:37Z</time>
      </trkpt>
      <trkpt lat="48.38638" lon="2.67779">
        <ele>121.48</ele>
        <time>2021-09-15T07:51:54Z</time>
      </trkpt>
      <trkpt lat="48.3864" lon="2.67761">
        <ele>120.16</ele>
        <time>2021-09-15T07:52:12Z</time>
      </trkpt>
      <trkpt lat="48.38645" lon="2.67743">
        <ele>120.03</ele>
        <time>2021-09-15T07:52:29Z</time>
      </trkpt>
      <trkpt lat="48.3864" lon="2.67724">
        <ele>117.55</ele>
        <time>2021-09-15T07:52:45Z</time>
      </trkpt>
      <trkpt lat="48.38643" lon="2.67719">
        <ele>117.24</ele>
        <time>2021-09-15T07:52:48Z</time>
      </trkpt>
      <trkpt lat="48.38644" lon="2.67718">
        <ele>117.07</ele>
        <time>2021-09-15T07:52:49Z</time>
      </trkpt>
      <trkpt lat="48.38646" lon="2.67716">
        <ele>116.8</ele>
        <time>2021-09-15T07:52:50Z</time>
      </trkpt>
      <trkpt lat="48.38654" lon="2.67704">
        <ele>114.41</ele>
        <time>2021-09-15T07:52:56Z</time>
      </trkpt>
      <trkpt lat="48.38656" lon="2.67702">
        <ele>113.81</ele>
        <time>2021-09-15T07:52:58Z</time>
      </trkpt>
      <trkpt lat="48.38657" lon="2.67701">
        <ele>113.52</ele>
        <time>2021-09-15T07:52:59Z</time>
      </trkpt>
      <trkpt lat="48.38659" lon="2.67681">
        <ele>110.49</ele>
        <time>2021-09-15T07:53:13Z</time>
      </trkpt>
      <trkpt lat="48.38645" lon="2.67661">
        <ele>109.07</ele>
        <time>2021-09-15T07:53:35Z</time>
      </trkpt>
      <trkpt lat="48.38644" lon="2.67646">
        <ele>108.57</ele>
        <time>2021-09-15T07:53:45Z</time>
      </trkpt>
      <trkpt lat="48.38643" lon="2.67644">
        <ele>108.56</ele>
        <time>2021-09-15T07:53:46Z</time>
      </trkpt>
      <trkpt lat="48.38641" lon="2.67642">
        <ele>108.57</ele>
        <time>2021-09-15T07:53:47Z</time>
      </trkpt>
      <trkpt lat="48.3864" lon="2.67639">
        <ele>108.54</ele>
        <time>2021-09-15T07:53:48Z</time>
      </trkpt>
      <trkpt lat="48.38639" lon="2.67637">
        <ele>108.49</ele>
        <time>2021-09-15T07:53:49Z</time>
      </trkpt>
      <trkpt lat="48.3863" lon="2.67613">
        <ele>105.44</ele>
        <time>2021-09-15T07:54:06Z</time>
      </trkpt>
      <trkpt lat="48.38624" lon="2.67588">
        <ele>103.99</ele>
        <time>2021-09-15T07:54:23Z</time>
      </trkpt>
      <trkpt lat="48.38624" lon="2.67584">
        <ele>103.39</ele>
        <time>2021-09-15T07:54:25Z</time>
      </trkpt>
      <trkpt lat="48.38624" lon="2.67582">
        <ele>103.14</ele>
        <time>2021-09-15T07:54:26Z</time>
      </trkpt>
      <trkpt lat="48.38624" lon="2.67568">
        <ele>101.33</ele>
        <time>2021-09-15T07:54:34Z</time>
      </trkpt>
      <trkpt lat="48.38623" lon="2.67564">
        <ele>101.18</ele>
        <time>2021-09-15T07:54:35Z</time>
      </trkpt>
      <trkpt lat="48.38624" lon="2.67559">
        <ele>100.97</ele>
        <time>2021-09-15T07:54:36Z</time>
      </trkpt>
      <trkpt lat="48.38618" lon="2.67536">
        <ele>99.46</ele>
        <time>2021-09-15T07:54:43Z</time>
      </trkpt>
      <trkpt lat="48.38617" lon="2.67534">
        <ele>99.2</ele>
        <time>2021-09-15T07:54:44Z</time>
      </trkpt>
      <trkpt lat="48.38615" lon="2.6753">
        <ele>98.98</ele>
        <time>2021-09-15T07:54:45Z</time>
      </trkpt>
      <trkpt lat="48.38613" lon="2.67525">
        <ele>98.78</ele>
        <time>2021-09-15T07:54:46Z</time>
      </trkpt>
      <trkpt lat="48.38611" lon="2.67522">
        <ele>98.53</ele>
        <time>2021-09-15T07:54:47Z</time>
      </trkpt>
      <trkpt lat="48.38608" lon="2.67519">
        <ele>98.28</ele>
        <time>2021-09-15T07:54:48Z</time>
      </trkpt>
      <trkpt lat="48.38606" lon="2.67516">
        <ele>98.01</ele>
        <time>2021-09-15T07:54:49Z</time>
      </trkpt>
      <trkpt lat="48.38604" lon="2.67512">
        <ele>97.63</ele>
        <time>2021-09-15T07:54:50Z</time>
      </trkpt>
      <trkpt lat="48.38603" lon="2.6751">
        <ele>96.74</ele>
        <time>2021-09-15T07:54:51Z</time>
      </trkpt>
      <trkpt lat="48.38602" lon="2.67509">
        <ele>96.44</ele>
        <time>2021-09-15T07:54:52Z</time>
      </trkpt>
      <trkpt lat="48.38601" lon="2.67507">
        <ele>96.13</ele>
        <time>2021-09-15T07:54:53Z</time>
      </trkpt>
      <trkpt lat="48.38595" lon="2.67489">
        <ele>93.11</ele>
        <time>2021-09-15T07:55:04Z</time>
      </trkpt>
      <trkpt lat="48.38591" lon="2.67485">
        <ele>91.68</ele>
        <time>2021-09-15T07:55:07Z</time>
      </trkpt>
      <trkpt lat="48.38589" lon="2.6748">
        <ele>91.54</ele>
        <time>2021-09-15T07:55:09Z</time>
      </trkpt>
      <trkpt lat="48.38587" lon="2.67478">
        <ele>91.6</ele>
        <time>2021-09-15T07:55:10Z</time>
      </trkpt>
      <trkpt lat="48.38586" lon="2.67476">
        <ele>91.75</ele>
        <time>2021-09-15T07:55:11Z</time>
      </trkpt>
      <trkpt lat="48.38585" lon="2.67474">
        <ele>91.96</ele>
        <time>2021-09-15T07:55:12Z</time>
      </trkpt>
      <trkpt lat="48.38578" lon="2.67464">
        <ele>90.27</ele>
        <time>2021-09-15T07:55:19Z</time>
      </trkpt>
      <trkpt lat="48.38568" lon="2.67456">
        <ele>86.71</ele>
        <time>2021-09-15T07:55:31Z</time>
      </trkpt>
      <trkpt lat="48.38565" lon="2.67456">
        <ele>88.58</ele>
        <time>2021-09-15T07:55:37Z</time>
      </trkpt>
      <trkpt lat="48.38564" lon="2.67455">
        <ele>89.86</ele>
        <time>2021-09-15T07:55:39Z</time>
      </trkpt>
      <trkpt lat="48.38562" lon="2.67455">
        <ele>91.75</ele>
        <time>2021-09-15T07:55:55Z</time>
      </trkpt>
      <trkpt lat="48.38563" lon="2.67455">
        <ele>92.4</ele>
        <time>2021-09-15T07:55:57Z</time>
      </trkpt>
      <trkpt lat="48.38564" lon="2.67454">
        <ele>90.65</ele>
        <time>2021-09-15T07:56:17Z</time>
      </trkpt>
      <trkpt lat="48.38562" lon="2.67455">
        <ele>90.61</ele>
        <time>2021-09-15T07:56:21Z</time>
      </trkpt>
      <trkpt lat="48.38555" lon="2.67453">
        <ele>90.95</ele>
        <time>2021-09-15T07:56:32Z</time>
      </trkpt>
      <trkpt lat="48.38539" lon="2.67451">
        <ele>92.24</ele>
        <time>2021-09-15T07:56:47Z</time>
      </trkpt>
      <trkpt lat="48.3853" lon="2.67449">
        <ele>93.09</ele>
        <time>2021-09-15T07:56:56Z</time>
      </trkpt>
      <trkpt lat="48.38529" lon="2.67449">
        <ele>93.19</ele>
        <time>2021-09-15T07:56:57Z</time>
      </trkpt>
      <trkpt lat="48.38527" lon="2.67448">
        <ele>93.29</ele>
        <time>2021-09-15T07:56:58Z</time>
      </trkpt>
      <trkpt lat="48.38509" lon="2.67447">
        <ele>95.23</ele>
        <time>2021-09-15T07:57:15Z</time>
      </trkpt>
      <trkpt lat="48.38487" lon="2.67446">
        <ele>98.42</ele>
        <time>2021-09-15T07:57:40Z</time>
      </trkpt>
      <trkpt lat="48.38465" lon="2.67448">
        <ele>101.53</ele>
        <time>2021-09-15T07:58:02Z</time>
      </trkpt>
      <trkpt lat="48.38437" lon="2.67447">
        <ele>103.27</ele>
        <time>2021-09-15T07:58:24Z</time>
      </trkpt>
      <trkpt lat="48.38434" lon="2.67447">
        <ele>106.45</ele>
        <time>2021-09-15T07:58:28Z</time>
      </trkpt>
      <trkpt lat="48.38433" lon="2.67447">
        <ele>106.74</ele>
        <time>2021-09-15T07:58:29Z</time>
      </trkpt>
      <trkpt lat="48.38428" lon="2.67447">
        <ele>106.94</ele>
        <time>2021-09-15T07:58:34Z</time>
      </trkpt>
      <trkpt lat="48.38416" lon="2.67447">
        <ele>107.95</ele>
        <time>2021-09-15T07:58:50Z</time>
      </trkpt>
      <trkpt lat="48.38407" lon="2.67451">
        <ele>111.06</ele>
        <time>2021-09-15T07:59:04Z</time>
      </trkpt>
      <trkpt lat="48.38385" lon="2.67455">
        <ele>114.09</ele>
        <time>2021-09-15T07:59:28Z</time>
      </trkpt>
      <trkpt lat="48.38359" lon="2.67453">
        <ele>117.1</ele>
        <time>2021-09-15T07:59:57Z</time>
      </trkpt>
      <trkpt lat="48.38354" lon="2.67454">
        <ele>117.31</ele>
        <time>2021-09-15T08:00:00Z</time>
      </trkpt>
      <trkpt lat="48.38327" lon="2.67466">
        <ele>118.65</ele>
        <time>2021-09-15T08:00:16Z</time>
      </trkpt>
      <trkpt lat="48.38313" lon="2.67473">
        <ele>119.16</ele>
        <time>2021-09-15T08:00:29Z</time>
      </trkpt>
      <trkpt lat="48.38311" lon="2.67475">
        <ele>119.17</ele>
        <time>2021-09-15T08:00:31Z</time>
      </trkpt>
      <trkpt lat="48.3831" lon="2.67475">
        <ele>119.17</ele>
        <time>2021-09-15T08:00:32Z</time>
      </trkpt>
      <trkpt lat="48.38283" lon="2.67483">
        <ele>118.77</ele>
        <time>2021-09-15T08:00:56Z</time>
      </trkpt>
      <trkpt lat="48.38261" lon="2.67487">
        <ele>118.86</ele>
        <time>2021-09-15T08:01:14Z</time>
      </trkpt>
      <trkpt lat="48.38245" lon="2.67494">
        <ele>119.95</ele>
        <time>2021-09-15T08:01:29Z</time>
      </trkpt>
      <trkpt lat="48.38232" lon="2.67511">
        <ele>120.11</ele>
        <time>2021-09-15T08:01:45Z</time>
      </trkpt>
      <trkpt lat="48.3822" lon="2.67528">
        <ele>119.86</ele>
        <time>2021-09-15T08:02:01Z</time>
      </trkpt>
      <trkpt lat="48.38219" lon="2.67531">
        <ele>119.83</ele>
        <time>2021-09-15T08:02:03Z</time>
      </trkpt>
      <trkpt lat="48.38218" lon="2.67533">
        <ele>119.83</ele>
        <time>2021-09-15T08:02:04Z</time>
      </trkpt>
      <trkpt lat="48.38207" lon="2.67551">
        <ele>120.44</ele>
        <time>2021-09-15T08:02:19Z</time>
      </trkpt>
      <trkpt lat="48.38195" lon="2.6757">
        <ele>120.74</ele>
        <time>2021-09-15T08:02:35Z</time>
      </trkpt>
      <trkpt lat="48.38182" lon="2.67591">
        <ele>119.8</ele>
        <time>2021-09-15T08:02:50Z</time>
      </trkpt>
      <trkpt lat="48.38168" lon="2.67614">
        <ele>119.4</ele>
        <time>2021-09-15T08:03:06Z</time>
      </trkpt>
      <trkpt lat="48.38148" lon="2.6765">
        <ele>119.33</ele>
        <time>2021-09-15T08:03:28Z</time>
      </trkpt>
      <trkpt lat="48.38136" lon="2.67672">
        <ele>116.57</ele>
        <time>2021-09-15T08:03:43Z</time>
      </trkpt>
      <trkpt lat="48.3813" lon="2.67676">
        <ele>116.96</ele>
        <time>2021-09-15T08:03:50Z</time>
      </trkpt>
      <trkpt lat="48.38116" lon="2.67683">
        <ele>114.05</ele>
        <time>2021-09-15T08:04:04Z</time>
      </trkpt>
      <trkpt lat="48.38102" lon="2.67692">
        <ele>111.94</ele>
        <time>2021-09-15T08:04:19Z</time>
      </trkpt>
      <trkpt lat="48.38085" lon="2.67699">
        <ele>109.06</ele>
        <time>2021-09-15T08:04:39Z</time>
      </trkpt>
      <trkpt lat="48.38069" lon="2.67705">
        <ele>106</ele>
        <time>2021-09-15T08:04:54Z</time>
      </trkpt>
      <trkpt lat="48.38052" lon="2.6771">
        <ele>102.99</ele>
        <time>2021-09-15T08:05:14Z</time>
      </trkpt>
      <trkpt lat="48.38026" lon="2.67721">
        <ele>99.87</ele>
        <time>2021-09-15T08:05:35Z</time>
      </trkpt>
      <trkpt lat="48.38" lon="2.67731">
        <ele>97.7</ele>
        <time>2021-09-15T08:05:55Z</time>
      </trkpt>
      <trkpt lat="48.37987" lon="2.67738">
        <ele>96.05</ele>
        <time>2021-09-15T08:06:13Z</time>
      </trkpt>
      <trkpt lat="48.37986" lon="2.67739">
        <ele>95.85</ele>
        <time>2021-09-15T08:06:29Z</time>
      </trkpt>
      <trkpt lat="48.37987" lon="2.67737">
        <ele>95.85</ele>
        <time>2021-09-15T08:06:47Z</time>
      </trkpt>
      <trkpt lat="48.37984" lon="2.67739">
        <ele>95.85</ele>
        <time>2021-09-15T08:07:14Z</time>
      </trkpt>
      <trkpt lat="48.37983" lon="2.67739">
        <ele>95.85</ele>
        <time>2021-09-15T08:07:38Z</time>
      </trkpt>
      <trkpt lat="48.37983" lon="2.67737">
        <ele>95.85</ele>
        <time>2021-09-15T08:08:09Z</time>
      </trkpt>
      <trkpt lat="48.37982" lon="2.67735">
        <ele>95.85</ele>
        <time>2021-09-15T08:08:35Z</time>
      </trkpt>
      <trkpt lat="48.3798" lon="2.67737">
        <ele>95.85</ele>
        <time>2021-09-15T08:09:10Z</time>
      </trkpt>
      <trkpt lat="48.37982" lon="2.67738">
        <ele>95.85</ele>
        <time>2021-09-15T08:09:48Z</time>
      </trkpt>
      <trkpt lat="48.37981" lon="2.67738">
        <ele>95.85</ele>
        <time>2021-09-15T08:10:14Z</time>
      </trkpt>
      <trkpt lat="48.3798" lon="2.67737">
        <ele>95.85</ele>
        <time>2021-09-15T08:10:36Z</time>
      </trkpt>
      <trkpt lat="48.3798" lon="2.67737">
        <ele>95.85</ele>
        <time>2021-09-15T08:10:55Z</time>
      </trkpt>
      <trkpt lat="48.37981" lon="2.67737">
        <ele>95.85</ele>
        <time>2021-09-15T08:11:25Z</time>
      </trkpt>
      <trkpt lat="48.37981" lon="2.67739">
        <ele>95.85</ele>
        <time>2021-09-15T08:11:59Z</time>
      </trkpt>
      <trkpt lat="48.37981" lon="2.67738">
        <ele>95.85</ele>
        <time>2021-09-15T08:12:39Z</time>
      </trkpt>
      <trkpt lat="48.37982" lon="2.67738">
        <ele>95.85</ele>
        <time>2021-09-15T08:12:52Z</time>
      </trkpt>
      <trkpt lat="48.37984" lon="2.67737">
        <ele>95.85</ele>
        <time>2021-09-15T08:13:21Z</time>
      </trkpt>
      <trkpt lat="48.37984" lon="2.67735">
        <ele>95.85</ele>
        <time>2021-09-15T08:14:07Z</time>
      </trkpt>
      <trkpt lat="48.37983" lon="2.67736">
        <ele>95.85</ele>
        <time>2021-09-15T08:14:38Z</time>
      </trkpt>
      <trkpt lat="48.37984" lon="2.67738">
        <ele>95.85</ele>
        <time>2021-09-15T08:15:13Z</time>
      </trkpt>
      <trkpt lat="48.37981" lon="2.67736">
        <ele>95.85</ele>
        <time>2021-09-15T08:15:36Z</time>
      </trkpt>
      <trkpt lat="48.37982" lon="2.67735">
        <ele>95.85</ele>
        <time>2021-09-15T08:16:09Z</time>
      </trkpt>
      <trkpt lat="48.37983" lon="2.67736">
        <ele>95.85</ele>
        <time>2021-09-15T08:16:31Z</time>
      </trkpt>
      <trkpt lat="48.37981" lon="2.67735">
        <ele>95.85</ele>
        <time>2021-09-15T08:16:54Z</time>
      </trkpt>
      <trkpt lat="48.37981" lon="2.67734">
        <ele>95.85</ele>
        <time>2021-09-15T08:17:18Z</time>
      </trkpt>
      <trkpt lat="48.37982" lon="2.67736">
        <ele>95.85</ele>
        <time>2021-09-15T08:17:43Z</time>
      </trkpt>
      <trkpt lat="48.37982" lon="2.67735">
        <ele>95.85</ele>
        <time>2021-09-15T08:18:14Z</time>
      </trkpt>
      <trkpt lat="48.37984" lon="2.67746">
        <ele>95.85</ele>
        <time>2021-09-15T08:18:38Z</time>
      </trkpt>
      <trkpt lat="48.3798" lon="2.67765">
        <ele>95.21</ele>
        <time>2021-09-15T08:18:54Z</time>
      </trkpt>
      <trkpt lat="48.37972" lon="2.67798">
        <ele>94.54</ele>
        <time>2021-09-15T08:19:18Z</time>
      </trkpt>
      <trkpt lat="48.37966" lon="2.67835">
        <ele>94.02</ele>
        <time>2021-09-15T08:19:36Z</time>
      </trkpt>
      <trkpt lat="48.3796" lon="2.67876">
        <ele>93.48</ele>
        <time>2021-09-15T08:19:54Z</time>
      </trkpt>
      <trkpt lat="48.37954" lon="2.67913">
        <ele>93.23</ele>
        <time>2021-09-15T08:20:13Z</time>
      </trkpt>
      <trkpt lat="48.37948" lon="2.67943">
        <ele>93.29</ele>
        <time>2021-09-15T08:20:31Z</time>
      </trkpt>
      <trkpt lat="48.37942" lon="2.67971">
        <ele>92</ele>
        <time>2021-09-15T08:20:49Z</time>
      </trkpt>
      <trkpt lat="48.37933" lon="2.68009">
        <ele>91.3</ele>
        <time>2021-09-15T08:21:11Z</time>
      </trkpt>
      <trkpt lat="48.37921" lon="2.68046">
        <ele>90.25</ele>
        <time>2021-09-15T08:21:39Z</time>
      </trkpt>
      <trkpt lat="48.37912" lon="2.68083">
        <ele>88.71</ele>
        <time>2021-09-15T08:21:59Z</time>
      </trkpt>
      <trkpt lat="48.3791" lon="2.68119">
        <ele>87.62</ele>
        <time>2021-09-15T08:22:18Z</time>
      </trkpt>
      <trkpt lat="48.379" lon="2.6816">
        <ele>86.16</ele>
        <time>2021-09-15T08:22:43Z</time>
      </trkpt>
      <trkpt lat="48.37891" lon="2.68203">
        <ele>85.25</ele>
        <time>2021-09-15T08:23:02Z</time>
      </trkpt>
      <trkpt lat="48.3789" lon="2.68204">
        <ele>85.29</ele>
        <time>2021-09-15T08:23:03Z</time>
      </trkpt>
      <trkpt lat="48.37888" lon="2.68206">
        <ele>85.93</ele>
        <time>2021-09-15T08:23:05Z</time>
      </trkpt>
      <trkpt lat="48.37886" lon="2.68206">
        <ele>86.24</ele>
        <time>2021-09-15T08:23:06Z</time>
      </trkpt>
      <trkpt lat="48.37885" lon="2.68207">
        <ele>86.67</ele>
        <time>2021-09-15T08:23:07Z</time>
      </trkpt>
      <trkpt lat="48.37884" lon="2.68206">
        <ele>86.74</ele>
        <time>2021-09-15T08:23:08Z</time>
      </trkpt>
      <trkpt lat="48.37878" lon="2.6819">
        <ele>86.36</ele>
        <time>2021-09-15T08:23:22Z</time>
      </trkpt>
      <trkpt lat="48.37876" lon="2.68183">
        <ele>86.28</ele>
        <time>2021-09-15T08:23:27Z</time>
      </trkpt>
      <trkpt lat="48.37873" lon="2.68165">
        <ele>86.83</ele>
        <time>2021-09-15T08:23:40Z</time>
      </trkpt>
      <trkpt lat="48.37866" lon="2.68154">
        <ele>87.09</ele>
        <time>2021-09-15T08:23:48Z</time>
      </trkpt>
      <trkpt lat="48.37865" lon="2.6815">
        <ele>86.98</ele>
        <time>2021-09-15T08:23:50Z</time>
      </trkpt>
      <trkpt lat="48.37865" lon="2.68148">
        <ele>87.01</ele>
        <time>2021-09-15T08:23:51Z</time>
      </trkpt>
      <trkpt lat="48.37865" lon="2.68147">
        <ele>87.06</ele>
        <time>2021-09-15T08:23:52Z</time>
      </trkpt>
      <trkpt lat="48.37859" lon="2.68127">
        <ele>88.4</ele>
        <time>2021-09-15T08:24:07Z</time>
      </trkpt>
      <trkpt lat="48.37859" lon="2.68101">
        <ele>88.88</ele>
        <time>2021-09-15T08:24:24Z</time>
      </trkpt>
      <trkpt lat="48.37854" lon="2.68068">
        <ele>90.7</ele>
        <time>2021-09-15T08:24:50Z</time>
      </trkpt>
      <trkpt lat="48.37842" lon="2.68031">
        <ele>93.45</ele>
        <time>2021-09-15T08:25:17Z</time>
      </trkpt>
      <trkpt lat="48.3783" lon="2.6801">
        <ele>96.54</ele>
        <time>2021-09-15T08:25:39Z</time>
      </trkpt>
      <trkpt lat="48.37824" lon="2.67997">
        <ele>99.67</ele>
        <time>2021-09-15T08:25:57Z</time>
      </trkpt>
      <trkpt lat="48.37805" lon="2.67986">
        <ele>102.81</ele>
        <time>2021-09-15T08:26:18Z</time>
      </trkpt>
      <trkpt lat="48.37795" lon="2.67986">
        <ele>105.87</ele>
        <time>2021-09-15T08:26:37Z</time>
      </trkpt>
      <trkpt lat="48.37798" lon="2.67967">
        <ele>108.8</ele>
        <time>2021-09-15T08:26:55Z</time>
      </trkpt>
      <trkpt lat="48.37804" lon="2.67953">
        <ele>111.1</ele>
        <time>2021-09-15T08:27:16Z</time>
      </trkpt>
      <trkpt lat="48.37806" lon="2.67949">
        <ele>111.52</ele>
        <time>2021-09-15T08:27:20Z</time>
      </trkpt>
      <trkpt lat="48.37809" lon="2.67948">
        <ele>111.7</ele>
        <time>2021-09-15T08:27:23Z</time>
      </trkpt>
      <trkpt lat="48.37811" lon="2.67934">
        <ele>114.75</ele>
        <time>2021-09-15T08:27:45Z</time>
      </trkpt>
      <trkpt lat="48.37815" lon="2.6792">
        <ele>117.6</ele>
        <time>2021-09-15T08:28:06Z</time>
      </trkpt>
      <trkpt lat="48.37819" lon="2.67914">
        <ele>118.96</ele>
        <time>2021-09-15T08:28:27Z</time>
      </trkpt>
      <trkpt lat="48.37826" lon="2.67896">
        <ele>120.31</ele>
        <time>2021-09-15T08:28:48Z</time>
      </trkpt>
      <trkpt lat="48.37835" lon="2.67888">
        <ele>121.5</ele>
        <time>2021-09-15T08:29:13Z</time>
      </trkpt>
      <trkpt lat="48.37841" lon="2.67894">
        <ele>120.73</ele>
        <time>2021-09-15T08:29:35Z</time>
      </trkpt>
      <trkpt lat="48.37849" lon="2.67892">
        <ele>120.5</ele>
        <time>2021-09-15T08:29:51Z</time>
      </trkpt>
      <trkpt lat="48.37856" lon="2.67875">
        <ele>120.8</ele>
        <time>2021-09-15T08:30:08Z</time>
      </trkpt>
      <trkpt lat="48.37858" lon="2.67846">
        <ele>120.99</ele>
        <time>2021-09-15T08:30:28Z</time>
      </trkpt>
      <trkpt lat="48.3786" lon="2.67827">
        <ele>121.89</ele>
        <time>2021-09-15T08:30:48Z</time>
      </trkpt>
      <trkpt lat="48.37864" lon="2.67807">
        <ele>121.01</ele>
        <time>2021-09-15T08:31:07Z</time>
      </trkpt>
      <trkpt lat="48.37859" lon="2.6779">
        <ele>120.17</ele>
        <time>2021-09-15T08:31:22Z</time>
      </trkpt>
      <trkpt lat="48.37857" lon="2.67773">
        <ele>119.91</ele>
        <time>2021-09-15T08:31:39Z</time>
      </trkpt>
      <trkpt lat="48.37859" lon="2.67754">
        <ele>119.91</ele>
        <time>2021-09-15T08:31:56Z</time>
      </trkpt>
      <trkpt lat="48.37853" lon="2.67734">
        <ele>117.78</ele>
        <time>2021-09-15T08:32:15Z</time>
      </trkpt>
      <trkpt lat="48.37844" lon="2.67726">
        <ele>119.77</ele>
        <time>2021-09-15T08:32:33Z</time>
      </trkpt>
      <trkpt lat="48.37841" lon="2.67711">
        <ele>120.76</ele>
        <time>2021-09-15T08:32:49Z</time>
      </trkpt>
      <trkpt lat="48.37838" lon="2.67692">
        <ele>119.16</ele>
        <time>2021-09-15T08:33:05Z</time>
      </trkpt>
      <trkpt lat="48.37833" lon="2.67668">
        <ele>120.16</ele>
        <time>2021-09-15T08:33:23Z</time>
      </trkpt>
      <trkpt lat="48.37829" lon="2.67647">
        <ele>119.79</ele>
        <time>2021-09-15T08:33:36Z</time>
      </trkpt>
      <trkpt lat="48.37826" lon="2.67635">
        <ele>119.47</ele>
        <time>2021-09-15T08:33:45Z</time>
      </trkpt>
      <trkpt lat="48.37825" lon="2.67615">
        <ele>120.63</ele>
        <time>2021-09-15T08:33:58Z</time>
      </trkpt>
      <trkpt lat="48.3782" lon="2.67588">
        <ele>120.38</ele>
        <time>2021-09-15T08:34:21Z</time>
      </trkpt>
      <trkpt lat="48.3782" lon="2.67583">
        <ele>120.77</ele>
        <time>2021-09-15T08:34:44Z</time>
      </trkpt>
      <trkpt lat="48.37818" lon="2.67577">
        <ele>121.17</ele>
        <time>2021-09-15T08:35:02Z</time>
      </trkpt>
      <trkpt lat="48.37809" lon="2.67556">
        <ele>118.42</ele>
        <time>2021-09-15T08:35:27Z</time>
      </trkpt>
      <trkpt lat="48.37808" lon="2.67546">
        <ele>119.84</ele>
        <time>2021-09-15T08:35:43Z</time>
      </trkpt>
      <trkpt lat="48.37808" lon="2.67543">
        <ele>118.97</ele>
        <time>2021-09-15T08:35:52Z</time>
      </trkpt>
      <trkpt lat="48.37816" lon="2.67538">
        <ele>120.33</ele>
        <time>2021-09-15T08:36:12Z</time>
      </trkpt>
      <trkpt lat="48.37822" lon="2.67538">
        <ele>120.96</ele>
        <time>2021-09-15T08:36:30Z</time>
      </trkpt>
      <trkpt lat="48.37821" lon="2.6755">
        <ele>121.57</ele>
        <time>2021-09-15T08:37:00Z</time>
      </trkpt>
      <trkpt lat="48.37831" lon="2.67565">
        <ele>121.57</ele>
        <time>2021-09-15T08:37:21Z</time>
      </trkpt>
      <trkpt lat="48.3784" lon="2.67576">
        <ele>120.44</ele>
        <time>2021-09-15T08:37:31Z</time>
      </trkpt>
      <trkpt lat="48.37851" lon="2.67587">
        <ele>120.94</ele>
        <time>2021-09-15T08:37:45Z</time>
      </trkpt>
      <trkpt lat="48.37852" lon="2.67588">
        <ele>120.84</ele>
        <time>2021-09-15T08:37:46Z</time>
      </trkpt>
      <trkpt lat="48.37853" lon="2.67589">
        <ele>120.64</ele>
        <time>2021-09-15T08:37:47Z</time>
      </trkpt>
      <trkpt lat="48.37855" lon="2.6759">
        <ele>120.34</ele>
        <time>2021-09-15T08:37:48Z</time>
      </trkpt>
      <trkpt lat="48.37875" lon="2.67602">
        <ele>120.13</ele>
        <time>2021-09-15T08:38:09Z</time>
      </trkpt>
      <trkpt lat="48.37886" lon="2.67591">
        <ele>118.58</ele>
        <time>2021-09-15T08:38:25Z</time>
      </trkpt>
      <trkpt lat="48.37895" lon="2.67597">
        <ele>115.84</ele>
        <time>2021-09-15T08:38:42Z</time>
      </trkpt>
      <trkpt lat="48.37901" lon="2.67607">
        <ele>114.09</ele>
        <time>2021-09-15T08:38:51Z</time>
      </trkpt>
      <trkpt lat="48.37904" lon="2.67612">
        <ele>113.74</ele>
        <time>2021-09-15T08:38:55Z</time>
      </trkpt>
      <trkpt lat="48.37905" lon="2.67613">
        <ele>113.7</ele>
        <time>2021-09-15T08:38:56Z</time>
      </trkpt>
      <trkpt lat="48.37917" lon="2.67613">
        <ele>114.75</ele>
        <time>2021-09-15T08:39:15Z</time>
      </trkpt>
      <trkpt lat="48.37917" lon="2.676">
        <ele>117.69</ele>
        <time>2021-09-15T08:39:29Z</time>
      </trkpt>
      <trkpt lat="48.37922" lon="2.67591">
        <ele>118.14</ele>
        <time>2021-09-15T08:39:48Z</time>
      </trkpt>
      <trkpt lat="48.37931" lon="2.67581">
        <ele>117.51</ele>
        <time>2021-09-15T08:40:08Z</time>
      </trkpt>
      <trkpt lat="48.3794" lon="2.67559">
        <ele>116.25</ele>
        <time>2021-09-15T08:40:26Z</time>
      </trkpt>
      <trkpt lat="48.37947" lon="2.67551">
        <ele>116.51</ele>
        <time>2021-09-15T08:40:35Z</time>
      </trkpt>
      <trkpt lat="48.37948" lon="2.6755">
        <ele>116.52</ele>
        <time>2021-09-15T08:40:36Z</time>
      </trkpt>
      <trkpt lat="48.37953" lon="2.67546">
        <ele>116.73</ele>
        <time>2021-09-15T08:40:52Z</time>
      </trkpt>
      <trkpt lat="48.37951" lon="2.67537">
        <ele>117.38</ele>
        <time>2021-09-15T08:41:15Z</time>
      </trkpt>
      <trkpt lat="48.37956" lon="2.67514">
        <ele>119.48</ele>
        <time>2021-09-15T08:41:34Z</time>
      </trkpt>
      <trkpt lat="48.37957" lon="2.67513">
        <ele>119.5</ele>
        <time>2021-09-15T08:41:35Z</time>
      </trkpt>
      <trkpt lat="48.37958" lon="2.67512">
        <ele>119.5</ele>
        <time>2021-09-15T08:41:36Z</time>
      </trkpt>
      <trkpt lat="48.37959" lon="2.6751">
        <ele>119.49</ele>
        <time>2021-09-15T08:41:37Z</time>
      </trkpt>
      <trkpt lat="48.3796" lon="2.67505">
        <ele>118.73</ele>
        <time>2021-09-15T08:41:40Z</time>
      </trkpt>
      <trkpt lat="48.37961" lon="2.67503">
        <ele>118.52</ele>
        <time>2021-09-15T08:41:41Z</time>
      </trkpt>
      <trkpt lat="48.37961" lon="2.67502">
        <ele>118.35</ele>
        <time>2021-09-15T08:41:42Z</time>
      </trkpt>
      <trkpt lat="48.37961" lon="2.67491">
        <ele>117.09</ele>
        <time>2021-09-15T08:41:56Z</time>
      </trkpt>
      <trkpt lat="48.37964" lon="2.67476">
        <ele>116.8</ele>
        <time>2021-09-15T08:42:12Z</time>
      </trkpt>
      <trkpt lat="48.37961" lon="2.67465">
        <ele>117.76</ele>
        <time>2021-09-15T08:42:25Z</time>
      </trkpt>
      <trkpt lat="48.37962" lon="2.67462">
        <ele>117.81</ele>
        <time>2021-09-15T08:42:27Z</time>
      </trkpt>
      <trkpt lat="48.37964" lon="2.67444">
        <ele>117.73</ele>
        <time>2021-09-15T08:42:44Z</time>
      </trkpt>
      <trkpt lat="48.37964" lon="2.67414">
        <ele>118.2</ele>
        <time>2021-09-15T08:43:06Z</time>
      </trkpt>
      <trkpt lat="48.37963" lon="2.67394">
        <ele>119.56</ele>
        <time>2021-09-15T08:43:23Z</time>
      </trkpt>
      <trkpt lat="48.37964" lon="2.67389">
        <ele>119.05</ele>
        <time>2021-09-15T08:43:28Z</time>
      </trkpt>
      <trkpt lat="48.37958" lon="2.67377">
        <ele>118.02</ele>
        <time>2021-09-15T08:43:41Z</time>
      </trkpt>
      <trkpt lat="48.37941" lon="2.67372">
        <ele>118.49</ele>
        <time>2021-09-15T08:44:00Z</time>
      </trkpt>
      <trkpt lat="48.37935" lon="2.67371">
        <ele>118.78</ele>
        <time>2021-09-15T08:44:05Z</time>
      </trkpt>
      <trkpt lat="48.37933" lon="2.67371">
        <ele>118.85</ele>
        <time>2021-09-15T08:44:06Z</time>
      </trkpt>
      <trkpt lat="48.37923" lon="2.67368">
        <ele>118.55</ele>
        <time>2021-09-15T08:44:19Z</time>
      </trkpt>
      <trkpt lat="48.37922" lon="2.67368">
        <ele>118.58</ele>
        <time>2021-09-15T08:44:20Z</time>
      </trkpt>
      <trkpt lat="48.3792" lon="2.67368">
        <ele>118.61</ele>
        <time>2021-09-15T08:44:21Z</time>
      </trkpt>
      <trkpt lat="48.37918" lon="2.67369">
        <ele>118.65</ele>
        <time>2021-09-15T08:44:22Z</time>
      </trkpt>
      <trkpt lat="48.37902" lon="2.67365">
        <ele>119.03</ele>
        <time>2021-09-15T08:44:38Z</time>
      </trkpt>
      <trkpt lat="48.37898" lon="2.67351">
        <ele>117.64</ele>
        <time>2021-09-15T08:44:55Z</time>
      </trkpt>
      <trkpt lat="48.3791" lon="2.67333">
        <ele>119.75</ele>
        <time>2021-09-15T08:45:16Z</time>
      </trkpt>
      <trkpt lat="48.37911" lon="2.67332">
        <ele>119.68</ele>
        <time>2021-09-15T08:45:17Z</time>
      </trkpt>
      <trkpt lat="48.37912" lon="2.67331">
        <ele>119.61</ele>
        <time>2021-09-15T08:45:18Z</time>
      </trkpt>
      <trkpt lat="48.37919" lon="2.67318">
        <ele>118.33</ele>
        <time>2021-09-15T08:45:28Z</time>
      </trkpt>
      <trkpt lat="48.37927" lon="2.67305">
        <ele>117.63</ele>
        <time>2021-09-15T08:45:43Z</time>
      </trkpt>
      <trkpt lat="48.37935" lon="2.67296">
        <ele>117.96</ele>
        <time>2021-09-15T08:45:55Z</time>
      </trkpt>
      <trkpt lat="48.37936" lon="2.67294">
        <ele>117.96</ele>
        <time>2021-09-15T08:45:56Z</time>
      </trkpt>
      <trkpt lat="48.37937" lon="2.67294">
        <ele>117.94</ele>
        <time>2021-09-15T08:45:57Z</time>
      </trkpt>
      <trkpt lat="48.37944" lon="2.67282">
        <ele>116.71</ele>
        <time>2021-09-15T08:46:08Z</time>
      </trkpt>
      <trkpt lat="48.37951" lon="2.67267">
        <ele>117.41</ele>
        <time>2021-09-15T08:46:22Z</time>
      </trkpt>
      <trkpt lat="48.37956" lon="2.67245">
        <ele>115.76</ele>
        <time>2021-09-15T08:46:40Z</time>
      </trkpt>
      <trkpt lat="48.3796" lon="2.67228">
        <ele>116.99</ele>
        <time>2021-09-15T08:47:05Z</time>
      </trkpt>
      <trkpt lat="48.37968" lon="2.67224">
        <ele>118.32</ele>
        <time>2021-09-15T08:47:26Z</time>
      </trkpt>
      <trkpt lat="48.37977" lon="2.67226">
        <ele>116</ele>
        <time>2021-09-15T08:47:43Z</time>
      </trkpt>
      <trkpt lat="48.37979" lon="2.67221">
        <ele>115.98</ele>
        <time>2021-09-15T08:47:48Z</time>
      </trkpt>
      <trkpt lat="48.3798" lon="2.67218">
        <ele>115.7</ele>
        <time>2021-09-15T08:47:50Z</time>
      </trkpt>
      <trkpt lat="48.37981" lon="2.67217">
        <ele>115.52</ele>
        <time>2021-09-15T08:47:51Z</time>
      </trkpt>
      <trkpt lat="48.37982" lon="2.67216">
        <ele>115.37</ele>
        <time>2021-09-15T08:47:52Z</time>
      </trkpt>
      <trkpt lat="48.37983" lon="2.67216">
        <ele>115.22</ele>
        <time>2021-09-15T08:47:53Z</time>
      </trkpt>
      <trkpt lat="48.37984" lon="2.67217">
        <ele>115.14</ele>
        <time>2021-09-15T08:47:54Z</time>
      </trkpt>
      <trkpt lat="48.37985" lon="2.67217">
        <ele>115.01</ele>
        <time>2021-09-15T08:47:55Z</time>
      </trkpt>
      <trkpt lat="48.3799" lon="2.67215">
        <ele>112.46</ele>
        <time>2021-09-15T08:48:09Z</time>
      </trkpt>
      <trkpt lat="48.37988" lon="2.67211">
        <ele>114.01</ele>
        <time>2021-09-15T08:48:13Z</time>
      </trkpt>
      <trkpt lat="48.37984" lon="2.67194">
        <ele>111.9</ele>
        <time>2021-09-15T08:48:32Z</time>
      </trkpt>
      <trkpt lat="48.37991" lon="2.6718">
        <ele>111.15</ele>
        <time>2021-09-15T08:48:49Z</time>
      </trkpt>
      <trkpt lat="48.37995" lon="2.67163">
        <ele>108.85</ele>
        <time>2021-09-15T08:49:08Z</time>
      </trkpt>
      <trkpt lat="48.37995" lon="2.67173">
        <ele>108.57</ele>
        <time>2021-09-15T08:49:29Z</time>
      </trkpt>
      <trkpt lat="48.37988" lon="2.6718">
        <ele>110.3</ele>
        <time>2021-09-15T08:49:51Z</time>
      </trkpt>
      <trkpt lat="48.37984" lon="2.67183">
        <ele>110.76</ele>
        <time>2021-09-15T08:50:06Z</time>
      </trkpt>
      <trkpt lat="48.37989" lon="2.6718">
        <ele>110.75</ele>
        <time>2021-09-15T08:50:24Z</time>
      </trkpt>
      <trkpt lat="48.37992" lon="2.67167">
        <ele>108.93</ele>
        <time>2021-09-15T08:50:45Z</time>
      </trkpt>
      <trkpt lat="48.37987" lon="2.6716">
        <ele>108.59</ele>
        <time>2021-09-15T08:51:04Z</time>
      </trkpt>
      <trkpt lat="48.3798" lon="2.67148">
        <ele>107.21</ele>
        <time>2021-09-15T08:51:20Z</time>
      </trkpt>
      <trkpt lat="48.37975" lon="2.67148">
        <ele>104.35</ele>
        <time>2021-09-15T08:51:34Z</time>
      </trkpt>
      <trkpt lat="48.37973" lon="2.67141">
        <ele>102.29</ele>
        <time>2021-09-15T08:51:48Z</time>
      </trkpt>
      <trkpt lat="48.37966" lon="2.67132">
        <ele>99.25</ele>
        <time>2021-09-15T08:52:06Z</time>
      </trkpt>
      <trkpt lat="48.37956" lon="2.6715">
        <ele>99.54</ele>
        <time>2021-09-15T08:52:34Z</time>
      </trkpt>
      <trkpt lat="48.37953" lon="2.67152">
        <ele>99.8</ele>
        <time>2021-09-15T08:53:08Z</time>
      </trkpt>
      <trkpt lat="48.37945" lon="2.67167">
        <ele>99.03</ele>
        <time>2021-09-15T08:53:35Z</time>
      </trkpt>
      <trkpt lat="48.37938" lon="2.67198">
        <ele>100.52</ele>
        <time>2021-09-15T08:53:56Z</time>
      </trkpt>
      <trkpt lat="48.37931" lon="2.67219">
        <ele>101.44</ele>
        <time>2021-09-15T08:54:12Z</time>
      </trkpt>
      <trkpt lat="48.37924" lon="2.67244">
        <ele>101.06</ele>
        <time>2021-09-15T08:54:30Z</time>
      </trkpt>
      <trkpt lat="48.37919" lon="2.67261">
        <ele>102.56</ele>
        <time>2021-09-15T08:54:46Z</time>
      </trkpt>
      <trkpt lat="48.3791" lon="2.67272">
        <ele>103.58</ele>
        <time>2021-09-15T08:55:03Z</time>
      </trkpt>
      <trkpt lat="48.37909" lon="2.67273">
        <ele>103.53</ele>
        <time>2021-09-15T08:55:05Z</time>
      </trkpt>
      <trkpt lat="48.37904" lon="2.67278">
        <ele>103.57</ele>
        <time>2021-09-15T08:55:22Z</time>
      </trkpt>
      <trkpt lat="48.37903" lon="2.6728">
        <ele>105.05</ele>
        <time>2021-09-15T08:55:25Z</time>
      </trkpt>
      <trkpt lat="48.37898" lon="2.67296">
        <ele>104.77</ele>
        <time>2021-09-15T08:55:41Z</time>
      </trkpt>
      <trkpt lat="48.37893" lon="2.67314">
        <ele>107.8</ele>
        <time>2021-09-15T08:55:59Z</time>
      </trkpt>
      <trkpt lat="48.37886" lon="2.67318">
        <ele>110.9</ele>
        <time>2021-09-15T08:56:14Z</time>
      </trkpt>
      <trkpt lat="48.37881" lon="2.67325">
        <ele>113.28</ele>
        <time>2021-09-15T08:56:29Z</time>
      </trkpt>
      <trkpt lat="48.37881" lon="2.6734">
        <ele>115.13</ele>
        <time>2021-09-15T08:56:46Z</time>
      </trkpt>
      <trkpt lat="48.37877" lon="2.67352">
        <ele>118.16</ele>
        <time>2021-09-15T08:57:02Z</time>
      </trkpt>
      <trkpt lat="48.37873" lon="2.67371">
        <ele>120.85</ele>
        <time>2021-09-15T08:57:21Z</time>
      </trkpt>
      <trkpt lat="48.37861" lon="2.67366">
        <ele>121.52</ele>
        <time>2021-09-15T08:57:35Z</time>
      </trkpt>
      <trkpt lat="48.37855" lon="2.67354">
        <ele>121.32</ele>
        <time>2021-09-15T08:57:57Z</time>
      </trkpt>
      <trkpt lat="48.37844" lon="2.67333">
        <ele>121.42</ele>
        <time>2021-09-15T08:58:15Z</time>
      </trkpt>
      <trkpt lat="48.37837" lon="2.67316">
        <ele>120.82</ele>
        <time>2021-09-15T08:58:31Z</time>
      </trkpt>
      <trkpt lat="48.37828" lon="2.67303">
        <ele>119.32</ele>
        <time>2021-09-15T08:58:46Z</time>
      </trkpt>
      <trkpt lat="48.37828" lon="2.67301">
        <ele>118.66</ele>
        <time>2021-09-15T08:58:48Z</time>
      </trkpt>
      <trkpt lat="48.37825" lon="2.67296">
        <ele>122.35</ele>
        <time>2021-09-15T08:58:52Z</time>
      </trkpt>
      <trkpt lat="48.37824" lon="2.67293">
        <ele>123.05</ele>
        <time>2021-09-15T08:58:54Z</time>
      </trkpt>
      <trkpt lat="48.37821" lon="2.67287">
        <ele>121.06</ele>
        <time>2021-09-15T08:59:01Z</time>
      </trkpt>
      <trkpt lat="48.37809" lon="2.67266">
        <ele>122.41</ele>
        <time>2021-09-15T08:59:20Z</time>
      </trkpt>
      <trkpt lat="48.37802" lon="2.67253">
        <ele>121.16</ele>
        <time>2021-09-15T08:59:32Z</time>
      </trkpt>
      <trkpt lat="48.37801" lon="2.67247">
        <ele>123.16</ele>
        <time>2021-09-15T08:59:37Z</time>
      </trkpt>
      <trkpt lat="48.37802" lon="2.67246">
        <ele>123.28</ele>
        <time>2021-09-15T08:59:38Z</time>
      </trkpt>
      <trkpt lat="48.37804" lon="2.67243">
        <ele>122.86</ele>
        <time>2021-09-15T08:59:40Z</time>
      </trkpt>
      <trkpt lat="48.37808" lon="2.67242">
        <ele>121.86</ele>
        <time>2021-09-15T08:59:46Z</time>
      </trkpt>
      <trkpt lat="48.37816" lon="2.67239">
        <ele>121.37</ele>
        <time>2021-09-15T08:59:58Z</time>
      </trkpt>
      <trkpt lat="48.37826" lon="2.67236">
        <ele>120.45</ele>
        <time>2021-09-15T09:00:21Z</time>
      </trkpt>
      <trkpt lat="48.37829" lon="2.67227">
        <ele>120.16</ele>
        <time>2021-09-15T09:00:42Z</time>
      </trkpt>
      <trkpt lat="48.37832" lon="2.67229">
        <ele>119.94</ele>
        <time>2021-09-15T09:01:10Z</time>
      </trkpt>
      <trkpt lat="48.37839" lon="2.67224">
        <ele>116.91</ele>
        <time>2021-09-15T09:01:20Z</time>
      </trkpt>
      <trkpt lat="48.37843" lon="2.6722">
        <ele>119.38</ele>
        <time>2021-09-15T09:01:25Z</time>
      </trkpt>
      <trkpt lat="48.37852" lon="2.6721">
        <ele>121.92</ele>
        <time>2021-09-15T09:01:42Z</time>
      </trkpt>
      <trkpt lat="48.37861" lon="2.67194">
        <ele>122.38</ele>
        <time>2021-09-15T09:02:00Z</time>
      </trkpt>
      <trkpt lat="48.37868" lon="2.67181">
        <ele>120.83</ele>
        <time>2021-09-15T09:02:16Z</time>
      </trkpt>
      <trkpt lat="48.37873" lon="2.67189">
        <ele>118.5</ele>
        <time>2021-09-15T09:02:34Z</time>
      </trkpt>
      <trkpt lat="48.37874" lon="2.67208">
        <ele>118.66</ele>
        <time>2021-09-15T09:02:50Z</time>
      </trkpt>
      <trkpt lat="48.3787" lon="2.67222">
        <ele>118.91</ele>
        <time>2021-09-15T09:03:05Z</time>
      </trkpt>
      <trkpt lat="48.37877" lon="2.67238">
        <ele>117.82</ele>
        <time>2021-09-15T09:03:19Z</time>
      </trkpt>
      <trkpt lat="48.37873" lon="2.67254">
        <ele>118.22</ele>
        <time>2021-09-15T09:03:34Z</time>
      </trkpt>
      <trkpt lat="48.37872" lon="2.67259">
        <ele>119.05</ele>
        <time>2021-09-15T09:03:52Z</time>
      </trkpt>
      <trkpt lat="48.37877" lon="2.6725">
        <ele>118.71</ele>
        <time>2021-09-15T09:04:15Z</time>
      </trkpt>
      <trkpt lat="48.37879" lon="2.67238">
        <ele>118.71</ele>
        <time>2021-09-15T09:04:35Z</time>
      </trkpt>
      <trkpt lat="48.37883" lon="2.67229">
        <ele>118.71</ele>
        <time>2021-09-15T09:04:51Z</time>
      </trkpt>
      <trkpt lat="48.37884" lon="2.67221">
        <ele>116.04</ele>
        <time>2021-09-15T09:04:58Z</time>
      </trkpt>
      <trkpt lat="48.37887" lon="2.67202">
        <ele>114.36</ele>
        <time>2021-09-15T09:05:18Z</time>
      </trkpt>
      <trkpt lat="48.37888" lon="2.67183">
        <ele>112.64</ele>
        <time>2021-09-15T09:05:37Z</time>
      </trkpt>
      <trkpt lat="48.37894" lon="2.67166">
        <ele>110.91</ele>
        <time>2021-09-15T09:05:52Z</time>
      </trkpt>
      <trkpt lat="48.37902" lon="2.6715">
        <ele>110.16</ele>
        <time>2021-09-15T09:06:09Z</time>
      </trkpt>
      <trkpt lat="48.37907" lon="2.67131">
        <ele>107.08</ele>
        <time>2021-09-15T09:06:24Z</time>
      </trkpt>
      <trkpt lat="48.37919" lon="2.67129">
        <ele>103.43</ele>
        <time>2021-09-15T09:06:42Z</time>
      </trkpt>
      <trkpt lat="48.37929" lon="2.67135">
        <ele>102.27</ele>
        <time>2021-09-15T09:07:00Z</time>
      </trkpt>
      <trkpt lat="48.37939" lon="2.67148">
        <ele>100.11</ele>
        <time>2021-09-15T09:07:15Z</time>
      </trkpt>
      <trkpt lat="48.37942" lon="2.67164">
        <ele>99.23</ele>
        <time>2021-09-15T09:07:31Z</time>
      </trkpt>
      <trkpt lat="48.37952" lon="2.6716">
        <ele>98.66</ele>
        <time>2021-09-15T09:07:49Z</time>
      </trkpt>
      <trkpt lat="48.37964" lon="2.67139">
        <ele>98.72</ele>
        <time>2021-09-15T09:08:07Z</time>
      </trkpt>
      <trkpt lat="48.37971" lon="2.67115">
        <ele>98.85</ele>
        <time>2021-09-15T09:08:25Z</time>
      </trkpt>
      <trkpt lat="48.37973" lon="2.67097">
        <ele>102.97</ele>
        <time>2021-09-15T09:08:47Z</time>
      </trkpt>
      <trkpt lat="48.37974" lon="2.67096">
        <ele>103.62</ele>
        <time>2021-09-15T09:08:49Z</time>
      </trkpt>
      <trkpt lat="48.37983" lon="2.67085">
        <ele>106.15</ele>
        <time>2021-09-15T09:09:12Z</time>
      </trkpt>
      <trkpt lat="48.37983" lon="2.6707">
        <ele>107.95</ele>
        <time>2021-09-15T09:09:34Z</time>
      </trkpt>
      <trkpt lat="48.37973" lon="2.67066">
        <ele>110.96</ele>
        <time>2021-09-15T09:09:58Z</time>
      </trkpt>
      <trkpt lat="48.37964" lon="2.67051">
        <ele>113.5</ele>
        <time>2021-09-15T09:10:17Z</time>
      </trkpt>
      <trkpt lat="48.37952" lon="2.67049">
        <ele>115.92</ele>
        <time>2021-09-15T09:10:32Z</time>
      </trkpt>
      <trkpt lat="48.37951" lon="2.67032">
        <ele>118.07</ele>
        <time>2021-09-15T09:10:55Z</time>
      </trkpt>
      <trkpt lat="48.37959" lon="2.67023">
        <ele>120.58</ele>
        <time>2021-09-15T09:11:15Z</time>
      </trkpt>
      <trkpt lat="48.37955" lon="2.6701">
        <ele>119.19</ele>
        <time>2021-09-15T09:11:40Z</time>
      </trkpt>
      <trkpt lat="48.37942" lon="2.6701">
        <ele>117.56</ele>
        <time>2021-09-15T09:12:02Z</time>
      </trkpt>
      <trkpt lat="48.37932" lon="2.67005">
        <ele>118.37</ele>
        <time>2021-09-15T09:12:22Z</time>
      </trkpt>
      <trkpt lat="48.37921" lon="2.6701">
        <ele>120.72</ele>
        <time>2021-09-15T09:12:40Z</time>
      </trkpt>
      <trkpt lat="48.37913" lon="2.67006">
        <ele>119.85</ele>
        <time>2021-09-15T09:13:00Z</time>
      </trkpt>
      <trkpt lat="48.37901" lon="2.67004">
        <ele>120.85</ele>
        <time>2021-09-15T09:13:18Z</time>
      </trkpt>
      <trkpt lat="48.3789" lon="2.66995">
        <ele>121.14</ele>
        <time>2021-09-15T09:13:39Z</time>
      </trkpt>
      <trkpt lat="48.3789" lon="2.66984">
        <ele>121.6</ele>
        <time>2021-09-15T09:13:58Z</time>
      </trkpt>
      <trkpt lat="48.37885" lon="2.66981">
        <ele>119.89</ele>
        <time>2021-09-15T09:14:13Z</time>
      </trkpt>
      <trkpt lat="48.37875" lon="2.66985">
        <ele>118.2</ele>
        <time>2021-09-15T09:14:32Z</time>
      </trkpt>
      <trkpt lat="48.37873" lon="2.66981">
        <ele>114.53</ele>
        <time>2021-09-15T09:14:44Z</time>
      </trkpt>
      <trkpt lat="48.37873" lon="2.66981">
        <ele>113.81</ele>
        <time>2021-09-15T09:14:46Z</time>
      </trkpt>
      <trkpt lat="48.37874" lon="2.66979">
        <ele>117.19</ele>
        <time>2021-09-15T09:14:55Z</time>
      </trkpt>
      <trkpt lat="48.37874" lon="2.66978">
        <ele>118.13</ele>
        <time>2021-09-15T09:14:57Z</time>
      </trkpt>
      <trkpt lat="48.37874" lon="2.66965">
        <ele>115.66</ele>
        <time>2021-09-15T09:15:11Z</time>
      </trkpt>
      <trkpt lat="48.37872" lon="2.66961">
        <ele>114.85</ele>
        <time>2021-09-15T09:15:14Z</time>
      </trkpt>
      <trkpt lat="48.37872" lon="2.6696">
        <ele>114.54</ele>
        <time>2021-09-15T09:15:15Z</time>
      </trkpt>
      <trkpt lat="48.37874" lon="2.66954">
        <ele>111.24</ele>
        <time>2021-09-15T09:15:22Z</time>
      </trkpt>
      <trkpt lat="48.37875" lon="2.66952">
        <ele>110.44</ele>
        <time>2021-09-15T09:15:24Z</time>
      </trkpt>
      <trkpt lat="48.37879" lon="2.66939">
        <ele>110.13</ele>
        <time>2021-09-15T09:15:35Z</time>
      </trkpt>
      <trkpt lat="48.37875" lon="2.66934">
        <ele>107.03</ele>
        <time>2021-09-15T09:15:47Z</time>
      </trkpt>
      <trkpt lat="48.37869" lon="2.66933">
        <ele>105.13</ele>
        <time>2021-09-15T09:16:14Z</time>
      </trkpt>
      <trkpt lat="48.37868" lon="2.66911">
        <ele>103.13</ele>
        <time>2021-09-15T09:16:42Z</time>
      </trkpt>
      <trkpt lat="48.37875" lon="2.66886">
        <ele>100.09</ele>
        <time>2021-09-15T09:17:03Z</time>
      </trkpt>
      <trkpt lat="48.37874" lon="2.66867">
        <ele>98.03</ele>
        <time>2021-09-15T09:17:16Z</time>
      </trkpt>
      <trkpt lat="48.37874" lon="2.66853">
        <ele>94.9</ele>
        <time>2021-09-15T09:17:27Z</time>
      </trkpt>
      <trkpt lat="48.37862" lon="2.66814">
        <ele>93.37</ele>
        <time>2021-09-15T09:17:55Z</time>
      </trkpt>
      <trkpt lat="48.37864" lon="2.66779">
        <ele>92.2</ele>
        <time>2021-09-15T09:18:22Z</time>
      </trkpt>
      <trkpt lat="48.3786" lon="2.66753">
        <ele>92</ele>
        <time>2021-09-15T09:18:44Z</time>
      </trkpt>
      <trkpt lat="48.37856" lon="2.66739">
        <ele>89.77</ele>
        <time>2021-09-15T09:18:52Z</time>
      </trkpt>
      <trkpt lat="48.3785" lon="2.66709">
        <ele>91.1</ele>
        <time>2021-09-15T09:19:15Z</time>
      </trkpt>
      <trkpt lat="48.37841" lon="2.66671">
        <ele>91.43</ele>
        <time>2021-09-15T09:19:42Z</time>
      </trkpt>
      <trkpt lat="48.37838" lon="2.66652">
        <ele>92.52</ele>
        <time>2021-09-15T09:19:58Z</time>
      </trkpt>
      <trkpt lat="48.37837" lon="2.66645">
        <ele>92</ele>
        <time>2021-09-15T09:20:23Z</time>
      </trkpt>
      <trkpt lat="48.37837" lon="2.66645">
        <ele>92.37</ele>
        <time>2021-09-15T09:20:47Z</time>
      </trkpt>
      <trkpt lat="48.37839" lon="2.66646">
        <ele>92.61</ele>
        <time>2021-09-15T09:21:03Z</time>
      </trkpt>
      <trkpt lat="48.37841" lon="2.66649">
        <ele>92.89</ele>
        <time>2021-09-15T09:21:40Z</time>
      </trkpt>
      <trkpt lat="48.3784" lon="2.66651">
        <ele>94.1</ele>
        <time>2021-09-15T09:21:55Z</time>
      </trkpt>
      <trkpt lat="48.3784" lon="2.66651">
        <ele>93.3</ele>
        <time>2021-09-15T09:21:57Z</time>
      </trkpt>
      <trkpt lat="48.37839" lon="2.66651">
        <ele>93.01</ele>
        <time>2021-09-15T09:22:27Z</time>
      </trkpt>
      <trkpt lat="48.37839" lon="2.6665">
        <ele>93.01</ele>
        <time>2021-09-15T09:22:50Z</time>
      </trkpt>
      <trkpt lat="48.37838" lon="2.6665">
        <ele>93.01</ele>
        <time>2021-09-15T09:23:12Z</time>
      </trkpt>
      <trkpt lat="48.37837" lon="2.66651">
        <ele>93.01</ele>
        <time>2021-09-15T09:23:56Z</time>
      </trkpt>
      <trkpt lat="48.37837" lon="2.66652">
        <ele>93.01</ele>
        <time>2021-09-15T09:24:47Z</time>
      </trkpt>
      <trkpt lat="48.37837" lon="2.66651">
        <ele>93.01</ele>
        <time>2021-09-15T09:25:21Z</time>
      </trkpt>
      <trkpt lat="48.37836" lon="2.66645">
        <ele>93.01</ele>
        <time>2021-09-15T09:25:46Z</time>
      </trkpt>
      <trkpt lat="48.3783" lon="2.66638">
        <ele>92.65</ele>
        <time>2021-09-15T09:25:59Z</time>
      </trkpt>
      <trkpt lat="48.37818" lon="2.66626">
        <ele>92.25</ele>
        <time>2021-09-15T09:26:18Z</time>
      </trkpt>
      <trkpt lat="48.37815" lon="2.66625">
        <ele>92.23</ele>
        <time>2021-09-15T09:26:20Z</time>
      </trkpt>
      <trkpt lat="48.37814" lon="2.66624">
        <ele>92.22</ele>
        <time>2021-09-15T09:26:21Z</time>
      </trkpt>
      <trkpt lat="48.37797" lon="2.66615">
        <ele>92.62</ele>
        <time>2021-09-15T09:26:38Z</time>
      </trkpt>
      <trkpt lat="48.37777" lon="2.666">
        <ele>92.84</ele>
        <time>2021-09-15T09:26:56Z</time>
      </trkpt>
      <trkpt lat="48.37769" lon="2.66593">
        <ele>93.05</ele>
        <time>2021-09-15T09:27:04Z</time>
      </trkpt>
      <trkpt lat="48.37768" lon="2.66592">
        <ele>93.07</ele>
        <time>2021-09-15T09:27:05Z</time>
      </trkpt>
      <trkpt lat="48.37767" lon="2.66591">
        <ele>93.12</ele>
        <time>2021-09-15T09:27:06Z</time>
      </trkpt>
      <trkpt lat="48.37748" lon="2.66571">
        <ele>93.49</ele>
        <time>2021-09-15T09:27:24Z</time>
      </trkpt>
      <trkpt lat="48.37734" lon="2.66547">
        <ele>94.38</ele>
        <time>2021-09-15T09:27:41Z</time>
      </trkpt>
      <trkpt lat="48.37719" lon="2.6652">
        <ele>94.09</ele>
        <time>2021-09-15T09:28:00Z</time>
      </trkpt>
      <trkpt lat="48.37705" lon="2.66493">
        <ele>93.12</ele>
        <time>2021-09-15T09:28:17Z</time>
      </trkpt>
      <trkpt lat="48.37697" lon="2.6648">
        <ele>93.49</ele>
        <time>2021-09-15T09:28:25Z</time>
      </trkpt>
      <trkpt lat="48.37682" lon="2.6646">
        <ele>93.6</ele>
        <time>2021-09-15T09:28:41Z</time>
      </trkpt>
      <trkpt lat="48.37671" lon="2.66443">
        <ele>93.75</ele>
        <time>2021-09-15T09:28:54Z</time>
      </trkpt>
      <trkpt lat="48.37655" lon="2.66423">
        <ele>94.06</ele>
        <time>2021-09-15T09:29:12Z</time>
      </trkpt>
      <trkpt lat="48.37639" lon="2.66393">
        <ele>94.4</ele>
        <time>2021-09-15T09:29:32Z</time>
      </trkpt>
      <trkpt lat="48.37633" lon="2.6638">
        <ele>94.54</ele>
        <time>2021-09-15T09:29:52Z</time>
      </trkpt>
      <trkpt lat="48.3763" lon="2.66382">
        <ele>94.43</ele>
        <time>2021-09-15T09:29:59Z</time>
      </trkpt>
      <trkpt lat="48.37629" lon="2.66383">
        <ele>94.43</ele>
        <time>2021-09-15T09:30:00Z</time>
      </trkpt>
      <trkpt lat="48.37615" lon="2.66366">
        <ele>94.63</ele>
        <time>2021-09-15T09:30:24Z</time>
      </trkpt>
      <trkpt lat="48.37614" lon="2.66365">
        <ele>94.59</ele>
        <time>2021-09-15T09:30:25Z</time>
      </trkpt>
      <trkpt lat="48.37613" lon="2.66365">
        <ele>94.59</ele>
        <time>2021-09-15T09:30:26Z</time>
      </trkpt>
      <trkpt lat="48.37612" lon="2.66363">
        <ele>94.65</ele>
        <time>2021-09-15T09:30:27Z</time>
      </trkpt>
      <trkpt lat="48.37611" lon="2.66362">
        <ele>94.83</ele>
        <time>2021-09-15T09:30:28Z</time>
      </trkpt>
      <trkpt lat="48.37611" lon="2.6636">
        <ele>95.05</ele>
        <time>2021-09-15T09:30:29Z</time>
      </trkpt>
      <trkpt lat="48.3761" lon="2.66358">
        <ele>95.18</ele>
        <time>2021-09-15T09:30:30Z</time>
      </trkpt>
      <trkpt lat="48.3761" lon="2.66357">
        <ele>95.24</ele>
        <time>2021-09-15T09:30:31Z</time>
      </trkpt>
      <trkpt lat="48.37612" lon="2.66332">
        <ele>94.91</ele>
        <time>2021-09-15T09:30:46Z</time>
      </trkpt>
      <trkpt lat="48.37613" lon="2.66335">
        <ele>95.08</ele>
        <time>2021-09-15T09:30:50Z</time>
      </trkpt>
      <trkpt lat="48.37612" lon="2.66336">
        <ele>95.18</ele>
        <time>2021-09-15T09:30:51Z</time>
      </trkpt>
      <trkpt lat="48.37612" lon="2.66338">
        <ele>95.21</ele>
        <time>2021-09-15T09:30:52Z</time>
      </trkpt>
      <trkpt lat="48.37614" lon="2.66333">
        <ele>95.17</ele>
        <time>2021-09-15T09:31:02Z</time>
      </trkpt>
      <trkpt lat="48.37614" lon="2.66331">
        <ele>95.17</ele>
        <time>2021-09-15T09:31:03Z</time>
      </trkpt>
      <trkpt lat="48.3762" lon="2.66308">
        <ele>95.89</ele>
        <time>2021-09-15T09:31:20Z</time>
      </trkpt>
      <trkpt lat="48.37626" lon="2.66282">
        <ele>96.96</ele>
        <time>2021-09-15T09:31:39Z</time>
      </trkpt>
      <trkpt lat="48.37638" lon="2.66244">
        <ele>99.09</ele>
        <time>2021-09-15T09:32:05Z</time>
      </trkpt>
      <trkpt lat="48.37642" lon="2.66216">
        <ele>101.08</ele>
        <time>2021-09-15T09:32:22Z</time>
      </trkpt>
      <trkpt lat="48.37643" lon="2.66206">
        <ele>102.1</ele>
        <time>2021-09-15T09:32:28Z</time>
      </trkpt>
      <trkpt lat="48.37645" lon="2.66184">
        <ele>103.54</ele>
        <time>2021-09-15T09:32:45Z</time>
      </trkpt>
      <trkpt lat="48.37645" lon="2.66162">
        <ele>105.71</ele>
        <time>2021-09-15T09:33:00Z</time>
      </trkpt>
      <trkpt lat="48.37645" lon="2.6614">
        <ele>107.57</ele>
        <time>2021-09-15T09:33:15Z</time>
      </trkpt>
      <trkpt lat="48.37643" lon="2.66113">
        <ele>110.26</ele>
        <time>2021-09-15T09:33:34Z</time>
      </trkpt>
      <trkpt lat="48.3764" lon="2.66088">
        <ele>113.14</ele>
        <time>2021-09-15T09:33:53Z</time>
      </trkpt>
      <trkpt lat="48.37641" lon="2.66069">
        <ele>115.56</ele>
        <time>2021-09-15T09:34:09Z</time>
      </trkpt>
      <trkpt lat="48.3764" lon="2.66048">
        <ele>116.57</ele>
        <time>2021-09-15T09:34:26Z</time>
      </trkpt>
      <trkpt lat="48.3764" lon="2.66038">
        <ele>118.97</ele>
        <time>2021-09-15T09:34:42Z</time>
      </trkpt>
      <trkpt lat="48.37642" lon="2.66042">
        <ele>119</ele>
        <time>2021-09-15T09:34:48Z</time>
      </trkpt>
      <trkpt lat="48.37643" lon="2.66043">
        <ele>118.92</ele>
        <time>2021-09-15T09:34:49Z</time>
      </trkpt>
      <trkpt lat="48.37659" lon="2.66063">
        <ele>117.75</ele>
        <time>2021-09-15T09:35:13Z</time>
      </trkpt>
      <trkpt lat="48.3766" lon="2.66064">
        <ele>117.68</ele>
        <time>2021-09-15T09:35:14Z</time>
      </trkpt>
      <trkpt lat="48.37661" lon="2.66065">
        <ele>117.65</ele>
        <time>2021-09-15T09:35:15Z</time>
      </trkpt>
      <trkpt lat="48.37682" lon="2.66088">
        <ele>117.33</ele>
        <time>2021-09-15T09:35:37Z</time>
      </trkpt>
      <trkpt lat="48.37699" lon="2.66111">
        <ele>118.01</ele>
        <time>2021-09-15T09:35:56Z</time>
      </trkpt>
      <trkpt lat="48.37706" lon="2.66119">
        <ele>118.09</ele>
        <time>2021-09-15T09:36:03Z</time>
      </trkpt>
      <trkpt lat="48.37707" lon="2.66119">
        <ele>118.1</ele>
        <time>2021-09-15T09:36:04Z</time>
      </trkpt>
      <trkpt lat="48.37708" lon="2.6612">
        <ele>118.13</ele>
        <time>2021-09-15T09:36:05Z</time>
      </trkpt>
      <trkpt lat="48.37716" lon="2.6613">
        <ele>118.59</ele>
        <time>2021-09-15T09:36:14Z</time>
      </trkpt>
      <trkpt lat="48.37727" lon="2.66147">
        <ele>118.51</ele>
        <time>2021-09-15T09:36:27Z</time>
      </trkpt>
      <trkpt lat="48.37736" lon="2.66163">
        <ele>117.61</ele>
        <time>2021-09-15T09:36:42Z</time>
      </trkpt>
      <trkpt lat="48.37746" lon="2.66173">
        <ele>116.96</ele>
        <time>2021-09-15T09:36:53Z</time>
      </trkpt>
      <trkpt lat="48.37748" lon="2.66175">
        <ele>116.82</ele>
        <time>2021-09-15T09:36:54Z</time>
      </trkpt>
      <trkpt lat="48.37749" lon="2.66176">
        <ele>116.7</ele>
        <time>2021-09-15T09:36:55Z</time>
      </trkpt>
      <trkpt lat="48.37764" lon="2.66176">
        <ele>116.12</ele>
        <time>2021-09-15T09:37:12Z</time>
      </trkpt>
      <trkpt lat="48.37769" lon="2.66168">
        <ele>116.47</ele>
        <time>2021-09-15T09:37:19Z</time>
      </trkpt>
      <trkpt lat="48.3778" lon="2.66152">
        <ele>115.98</ele>
        <time>2021-09-15T09:37:34Z</time>
      </trkpt>
      <trkpt lat="48.37788" lon="2.66131">
        <ele>116.07</ele>
        <time>2021-09-15T09:37:55Z</time>
      </trkpt>
      <trkpt lat="48.37783" lon="2.66144">
        <ele>116.73</ele>
        <time>2021-09-15T09:38:15Z</time>
      </trkpt>
      <trkpt lat="48.37775" lon="2.66162">
        <ele>116.58</ele>
        <time>2021-09-15T09:38:35Z</time>
      </trkpt>
      <trkpt lat="48.37768" lon="2.66187">
        <ele>116.88</ele>
        <time>2021-09-15T09:38:54Z</time>
      </trkpt>
      <trkpt lat="48.37775" lon="2.66207">
        <ele>116.51</ele>
        <time>2021-09-15T09:39:15Z</time>
      </trkpt>
      <trkpt lat="48.37788" lon="2.66227">
        <ele>114.85</ele>
        <time>2021-09-15T09:39:34Z</time>
      </trkpt>
      <trkpt lat="48.37789" lon="2.66229">
        <ele>114.82</ele>
        <time>2021-09-15T09:39:35Z</time>
      </trkpt>
      <trkpt lat="48.3779" lon="2.6623">
        <ele>114.78</ele>
        <time>2021-09-15T09:39:36Z</time>
      </trkpt>
      <trkpt lat="48.37798" lon="2.66234">
        <ele>114.62</ele>
        <time>2021-09-15T09:39:42Z</time>
      </trkpt>
      <trkpt lat="48.37799" lon="2.66235">
        <ele>114.63</ele>
        <time>2021-09-15T09:39:43Z</time>
      </trkpt>
      <trkpt lat="48.378" lon="2.66237">
        <ele>114.65</ele>
        <time>2021-09-15T09:39:44Z</time>
      </trkpt>
      <trkpt lat="48.37801" lon="2.66238">
        <ele>114.67</ele>
        <time>2021-09-15T09:39:45Z</time>
      </trkpt>
      <trkpt lat="48.37801" lon="2.66239">
        <ele>114.68</ele>
        <time>2021-09-15T09:39:46Z</time>
      </trkpt>
      <trkpt lat="48.37819" lon="2.66254">
        <ele>112.56</ele>
        <time>2021-09-15T09:40:05Z</time>
      </trkpt>
      <trkpt lat="48.37826" lon="2.66265">
        <ele>111.06</ele>
        <time>2021-09-15T09:40:13Z</time>
      </trkpt>
      <trkpt lat="48.3783" lon="2.66275">
        <ele>110.78</ele>
        <time>2021-09-15T09:40:20Z</time>
      </trkpt>
      <trkpt lat="48.37835" lon="2.66283">
        <ele>110.06</ele>
        <time>2021-09-15T09:40:27Z</time>
      </trkpt>
      <trkpt lat="48.37837" lon="2.66284">
        <ele>109.92</ele>
        <time>2021-09-15T09:40:28Z</time>
      </trkpt>
      <trkpt lat="48.37837" lon="2.66286">
        <ele>109.78</ele>
        <time>2021-09-15T09:40:29Z</time>
      </trkpt>
      <trkpt lat="48.37844" lon="2.66302">
        <ele>108.67</ele>
        <time>2021-09-15T09:40:40Z</time>
      </trkpt>
      <trkpt lat="48.37853" lon="2.66315">
        <ele>107.58</ele>
        <time>2021-09-15T09:40:54Z</time>
      </trkpt>
      <trkpt lat="48.37876" lon="2.66324">
        <ele>105.08</ele>
        <time>2021-09-15T09:41:19Z</time>
      </trkpt>
      <trkpt lat="48.37885" lon="2.66314">
        <ele>104.42</ele>
        <time>2021-09-15T09:41:42Z</time>
      </trkpt>
      <trkpt lat="48.37887" lon="2.66303">
        <ele>102.59</ele>
        <time>2021-09-15T09:41:48Z</time>
      </trkpt>
      <trkpt lat="48.37888" lon="2.66301">
        <ele>101.76</ele>
        <time>2021-09-15T09:41:49Z</time>
      </trkpt>
      <trkpt lat="48.37888" lon="2.66299">
        <ele>101.36</ele>
        <time>2021-09-15T09:41:50Z</time>
      </trkpt>
      <trkpt lat="48.3789" lon="2.66292">
        <ele>103.85</ele>
        <time>2021-09-15T09:41:54Z</time>
      </trkpt>
      <trkpt lat="48.37889" lon="2.6627">
        <ele>101.1</ele>
        <time>2021-09-15T09:42:13Z</time>
      </trkpt>
      <trkpt lat="48.3789" lon="2.66235">
        <ele>100.05</ele>
        <time>2021-09-15T09:42:34Z</time>
      </trkpt>
      <trkpt lat="48.37894" lon="2.66204">
        <ele>98.78</ele>
        <time>2021-09-15T09:42:50Z</time>
      </trkpt>
      <trkpt lat="48.37894" lon="2.66174">
        <ele>98.51</ele>
        <time>2021-09-15T09:43:06Z</time>
      </trkpt>
      <trkpt lat="48.37892" lon="2.66151">
        <ele>98.29</ele>
        <time>2021-09-15T09:43:21Z</time>
      </trkpt>
      <trkpt lat="48.37896" lon="2.66104">
        <ele>98.08</ele>
        <time>2021-09-15T09:43:47Z</time>
      </trkpt>
      <trkpt lat="48.37898" lon="2.66057">
        <ele>97.81</ele>
        <time>2021-09-15T09:44:12Z</time>
      </trkpt>
      <trkpt lat="48.37901" lon="2.6603">
        <ele>96.77</ele>
        <time>2021-09-15T09:44:28Z</time>
      </trkpt>
      <trkpt lat="48.37899" lon="2.65984">
        <ele>95.39</ele>
        <time>2021-09-15T09:44:51Z</time>
      </trkpt>
      <trkpt lat="48.37898" lon="2.65973">
        <ele>95.07</ele>
        <time>2021-09-15T09:44:58Z</time>
      </trkpt>
      <trkpt lat="48.37898" lon="2.6597">
        <ele>95.02</ele>
        <time>2021-09-15T09:44:59Z</time>
      </trkpt>
      <trkpt lat="48.37898" lon="2.65968">
        <ele>94.95</ele>
        <time>2021-09-15T09:45:00Z</time>
      </trkpt>
      <trkpt lat="48.37899" lon="2.65966">
        <ele>94.9</ele>
        <time>2021-09-15T09:45:01Z</time>
      </trkpt>
      <trkpt lat="48.37899" lon="2.65964">
        <ele>94.83</ele>
        <time>2021-09-15T09:45:02Z</time>
      </trkpt>
      <trkpt lat="48.37899" lon="2.65962">
        <ele>94.8</ele>
        <time>2021-09-15T09:45:03Z</time>
      </trkpt>
      <trkpt lat="48.37899" lon="2.65935">
        <ele>94.37</ele>
        <time>2021-09-15T09:45:16Z</time>
      </trkpt>
      <trkpt lat="48.379" lon="2.65933">
        <ele>94.36</ele>
        <time>2021-09-15T09:45:17Z</time>
      </trkpt>
      <trkpt lat="48.379" lon="2.65932">
        <ele>94.35</ele>
        <time>2021-09-15T09:45:18Z</time>
      </trkpt>
      <trkpt lat="48.37902" lon="2.65906">
        <ele>93.89</ele>
        <time>2021-09-15T09:45:37Z</time>
      </trkpt>
      <trkpt lat="48.37902" lon="2.65902">
        <ele>93.85</ele>
        <time>2021-09-15T09:45:41Z</time>
      </trkpt>
      <trkpt lat="48.37902" lon="2.659">
        <ele>93.81</ele>
        <time>2021-09-15T09:45:42Z</time>
      </trkpt>
      <trkpt lat="48.37902" lon="2.65898">
        <ele>93.73</ele>
        <time>2021-09-15T09:45:43Z</time>
      </trkpt>
      <trkpt lat="48.37902" lon="2.65896">
        <ele>93.67</ele>
        <time>2021-09-15T09:45:44Z</time>
      </trkpt>
      <trkpt lat="48.37902" lon="2.65895">
        <ele>93.62</ele>
        <time>2021-09-15T09:45:45Z</time>
      </trkpt>
      <trkpt lat="48.37903" lon="2.65893">
        <ele>93.57</ele>
        <time>2021-09-15T09:45:46Z</time>
      </trkpt>
      <trkpt lat="48.37903" lon="2.65891">
        <ele>93.53</ele>
        <time>2021-09-15T09:45:47Z</time>
      </trkpt>
      <trkpt lat="48.37903" lon="2.6589">
        <ele>93.5</ele>
        <time>2021-09-15T09:45:48Z</time>
      </trkpt>
      <trkpt lat="48.37904" lon="2.65862">
        <ele>92.85</ele>
        <time>2021-09-15T09:46:05Z</time>
      </trkpt>
      <trkpt lat="48.37905" lon="2.65825">
        <ele>91.89</ele>
        <time>2021-09-15T09:46:26Z</time>
      </trkpt>
      <trkpt lat="48.37905" lon="2.65806">
        <ele>91.56</ele>
        <time>2021-09-15T09:46:36Z</time>
      </trkpt>
      <trkpt lat="48.37905" lon="2.65805">
        <ele>91.53</ele>
        <time>2021-09-15T09:46:37Z</time>
      </trkpt>
      <trkpt lat="48.37905" lon="2.65803">
        <ele>91.49</ele>
        <time>2021-09-15T09:46:38Z</time>
      </trkpt>
      <trkpt lat="48.37906" lon="2.65802">
        <ele>91.45</ele>
        <time>2021-09-15T09:46:39Z</time>
      </trkpt>
      <trkpt lat="48.37907" lon="2.65766">
        <ele>90.63</ele>
        <time>2021-09-15T09:46:59Z</time>
      </trkpt>
      <trkpt lat="48.37906" lon="2.65727">
        <ele>90.8</ele>
        <time>2021-09-15T09:47:19Z</time>
      </trkpt>
      <trkpt lat="48.37905" lon="2.65697">
        <ele>89.69</ele>
        <time>2021-09-15T09:47:37Z</time>
      </trkpt>
      <trkpt lat="48.37907" lon="2.65663">
        <ele>90.14</ele>
        <time>2021-09-15T09:47:58Z</time>
      </trkpt>
      <trkpt lat="48.37906" lon="2.65638">
        <ele>90.35</ele>
        <time>2021-09-15T09:48:14Z</time>
      </trkpt>
      <trkpt lat="48.37907" lon="2.656">
        <ele>90.25</ele>
        <time>2021-09-15T09:48:35Z</time>
      </trkpt>
      <trkpt lat="48.37908" lon="2.65594">
        <ele>90.21</ele>
        <time>2021-09-15T09:48:38Z</time>
      </trkpt>
      <trkpt lat="48.37916" lon="2.65569">
        <ele>90.14</ele>
        <time>2021-09-15T09:48:55Z</time>
      </trkpt>
      <trkpt lat="48.37917" lon="2.65566">
        <ele>90.13</ele>
        <time>2021-09-15T09:48:57Z</time>
      </trkpt>
      <trkpt lat="48.3793" lon="2.65551">
        <ele>89.66</ele>
        <time>2021-09-15T09:49:13Z</time>
      </trkpt>
      <trkpt lat="48.37942" lon="2.6553">
        <ele>89.2</ele>
        <time>2021-09-15T09:49:27Z</time>
      </trkpt>
      <trkpt lat="48.37958" lon="2.65504">
        <ele>88.52</ele>
        <time>2021-09-15T09:49:44Z</time>
      </trkpt>
      <trkpt lat="48.37968" lon="2.65484">
        <ele>88.05</ele>
        <time>2021-09-15T09:49:58Z</time>
      </trkpt>
      <trkpt lat="48.37975" lon="2.65469">
        <ele>87.67</ele>
        <time>2021-09-15T09:50:10Z</time>
      </trkpt>
      <trkpt lat="48.37987" lon="2.65455">
        <ele>86.91</ele>
        <time>2021-09-15T09:50:24Z</time>
      </trkpt>
      <trkpt lat="48.37988" lon="2.65454">
        <ele>86.89</ele>
        <time>2021-09-15T09:50:25Z</time>
      </trkpt>
      <trkpt lat="48.37989" lon="2.65453">
        <ele>86.85</ele>
        <time>2021-09-15T09:50:26Z</time>
      </trkpt>
      <trkpt lat="48.37995" lon="2.65451">
        <ele>86.71</ele>
        <time>2021-09-15T09:50:31Z</time>
      </trkpt>
      <trkpt lat="48.38012" lon="2.65446">
        <ele>86.27</ele>
        <time>2021-09-15T09:50:44Z</time>
      </trkpt>
      <trkpt lat="48.38029" lon="2.65445">
        <ele>85.9</ele>
        <time>2021-09-15T09:50:57Z</time>
      </trkpt>
      <trkpt lat="48.38045" lon="2.65444">
        <ele>86.68</ele>
        <time>2021-09-15T09:51:11Z</time>
      </trkpt>
      <trkpt lat="48.38052" lon="2.65438">
        <ele>86.29</ele>
        <time>2021-09-15T09:51:24Z</time>
      </trkpt>
      <trkpt lat="48.38052" lon="2.65435">
        <ele>85.81</ele>
        <time>2021-09-15T09:51:26Z</time>
      </trkpt>
      <trkpt lat="48.38043" lon="2.65411">
        <ele>86.29</ele>
        <time>2021-09-15T09:51:46Z</time>
      </trkpt>
      <trkpt lat="48.38043" lon="2.65405">
        <ele>86.1</ele>
        <time>2021-09-15T09:51:51Z</time>
      </trkpt>
      <trkpt lat="48.38041" lon="2.654">
        <ele>85.93</ele>
        <time>2021-09-15T09:51:55Z</time>
      </trkpt>
      <trkpt lat="48.38038" lon="2.6538">
        <ele>85.73</ele>
        <time>2021-09-15T09:52:12Z</time>
      </trkpt>
      <trkpt lat="48.38032" lon="2.65342">
        <ele>85.68</ele>
        <time>2021-09-15T09:52:34Z</time>
      </trkpt>
      <trkpt lat="48.38032" lon="2.6534">
        <ele>85.68</ele>
        <time>2021-09-15T09:52:35Z</time>
      </trkpt>
      <trkpt lat="48.3803" lon="2.65325">
        <ele>85.59</ele>
        <time>2021-09-15T09:52:52Z</time>
      </trkpt>
      <trkpt lat="48.3803" lon="2.6531">
        <ele>85.5</ele>
        <time>2021-09-15T09:53:18Z</time>
      </trkpt>
      <trkpt lat="48.3803" lon="2.65309">
        <ele>85.5</ele>
        <time>2021-09-15T09:53:19Z</time>
      </trkpt>
      <trkpt lat="48.38031" lon="2.65301">
        <ele>86.23</ele>
        <time>2021-09-15T09:53:37Z</time>
      </trkpt>
      <trkpt lat="48.38027" lon="2.6528">
        <ele>85.31</ele>
        <time>2021-09-15T09:53:52Z</time>
      </trkpt>
      <trkpt lat="48.38026" lon="2.65278">
        <ele>85.3</ele>
        <time>2021-09-15T09:53:53Z</time>
      </trkpt>
      <trkpt lat="48.38026" lon="2.65276">
        <ele>85.29</ele>
        <time>2021-09-15T09:53:54Z</time>
      </trkpt>
      <trkpt lat="48.38026" lon="2.65274">
        <ele>85.28</ele>
        <time>2021-09-15T09:53:55Z</time>
      </trkpt>
      <trkpt lat="48.38026" lon="2.65272">
        <ele>85.28</ele>
        <time>2021-09-15T09:53:56Z</time>
      </trkpt>
      <trkpt lat="48.38027" lon="2.65251">
        <ele>82.83</ele>
        <time>2021-09-15T09:54:07Z</time>
      </trkpt>
      <trkpt lat="48.38027" lon="2.6524">
        <ele>84.62</ele>
        <time>2021-09-15T09:54:13Z</time>
      </trkpt>
      <trkpt lat="48.3803" lon="2.65208">
        <ele>83.8</ele>
        <time>2021-09-15T09:54:30Z</time>
      </trkpt>
      <trkpt lat="48.38029" lon="2.65173">
        <ele>84.05</ele>
        <time>2021-09-15T09:54:47Z</time>
      </trkpt>
      <trkpt lat="48.38031" lon="2.65144">
        <ele>84.6</ele>
        <time>2021-09-15T09:55:02Z</time>
      </trkpt>
      <trkpt lat="48.38029" lon="2.65115">
        <ele>85.45</ele>
        <time>2021-09-15T09:55:21Z</time>
      </trkpt>
      <trkpt lat="48.38025" lon="2.65087">
        <ele>85.59</ele>
        <time>2021-09-15T09:55:43Z</time>
      </trkpt>
      <trkpt lat="48.38021" lon="2.65074">
        <ele>85.71</ele>
        <time>2021-09-15T09:56:04Z</time>
      </trkpt>
      <trkpt lat="48.38013" lon="2.6504">
        <ele>85.71</ele>
        <time>2021-09-15T09:56:29Z</time>
      </trkpt>
      <trkpt lat="48.38008" lon="2.65014">
        <ele>85.64</ele>
        <time>2021-09-15T09:56:49Z</time>
      </trkpt>
      <trkpt lat="48.37993" lon="2.64973">
        <ele>85.72</ele>
        <time>2021-09-15T09:57:16Z</time>
      </trkpt>
      <trkpt lat="48.37986" lon="2.64944">
        <ele>85.63</ele>
        <time>2021-09-15T09:57:32Z</time>
      </trkpt>
      <trkpt lat="48.37986" lon="2.6494">
        <ele>85.71</ele>
        <time>2021-09-15T09:57:34Z</time>
      </trkpt>
      <trkpt lat="48.37986" lon="2.64938">
        <ele>85.73</ele>
        <time>2021-09-15T09:57:35Z</time>
      </trkpt>
      <trkpt lat="48.37986" lon="2.64936">
        <ele>85.71</ele>
        <time>2021-09-15T09:57:36Z</time>
      </trkpt>
      <trkpt lat="48.37985" lon="2.64935">
        <ele>85.59</ele>
        <time>2021-09-15T09:57:37Z</time>
      </trkpt>
      <trkpt lat="48.37985" lon="2.64933">
        <ele>85.55</ele>
        <time>2021-09-15T09:57:38Z</time>
      </trkpt>
      <trkpt lat="48.37985" lon="2.64932">
        <ele>85.53</ele>
        <time>2021-09-15T09:57:39Z</time>
      </trkpt>
      <trkpt lat="48.37984" lon="2.6493">
        <ele>85.62</ele>
        <time>2021-09-15T09:57:40Z</time>
      </trkpt>
      <trkpt lat="48.37984" lon="2.64928">
        <ele>85.9</ele>
        <time>2021-09-15T09:57:41Z</time>
      </trkpt>
      <trkpt lat="48.37983" lon="2.64926">
        <ele>86.49</ele>
        <time>2021-09-15T09:57:42Z</time>
      </trkpt>
      <trkpt lat="48.37982" lon="2.64924">
        <ele>87.04</ele>
        <time>2021-09-15T09:57:44Z</time>
      </trkpt>
      <trkpt lat="48.37982" lon="2.64922">
        <ele>87.14</ele>
        <time>2021-09-15T09:57:45Z</time>
      </trkpt>
      <trkpt lat="48.37978" lon="2.64905">
        <ele>86.22</ele>
        <time>2021-09-15T09:57:57Z</time>
      </trkpt>
      <trkpt lat="48.37981" lon="2.64876">
        <ele>86.11</ele>
        <time>2021-09-15T09:58:13Z</time>
      </trkpt>
      <trkpt lat="48.37981" lon="2.64869">
        <ele>86.25</ele>
        <time>2021-09-15T09:58:18Z</time>
      </trkpt>
      <trkpt lat="48.3798" lon="2.64867">
        <ele>86.22</ele>
        <time>2021-09-15T09:58:19Z</time>
      </trkpt>
      <trkpt lat="48.3798" lon="2.64864">
        <ele>86.17</ele>
        <time>2021-09-15T09:58:21Z</time>
      </trkpt>
      <trkpt lat="48.3798" lon="2.64863">
        <ele>86.16</ele>
        <time>2021-09-15T09:58:22Z</time>
      </trkpt>
      <trkpt lat="48.37982" lon="2.6483">
        <ele>86.29</ele>
        <time>2021-09-15T09:58:41Z</time>
      </trkpt>
      <trkpt lat="48.37981" lon="2.64814">
        <ele>86.42</ele>
        <time>2021-09-15T09:58:57Z</time>
      </trkpt>
      <trkpt lat="48.3798" lon="2.64784">
        <ele>86.56</ele>
        <time>2021-09-15T09:59:12Z</time>
      </trkpt>
      <trkpt lat="48.37983" lon="2.64757">
        <ele>86.87</ele>
        <time>2021-09-15T09:59:28Z</time>
      </trkpt>
      <trkpt lat="48.37988" lon="2.6473">
        <ele>86.71</ele>
        <time>2021-09-15T09:59:46Z</time>
      </trkpt>
      <trkpt lat="48.37999" lon="2.64713">
        <ele>87.15</ele>
        <time>2021-09-15T09:59:59Z</time>
      </trkpt>
      <trkpt lat="48.38022" lon="2.64683">
        <ele>87.72</ele>
        <time>2021-09-15T10:00:28Z</time>
      </trkpt>
      <trkpt lat="48.38044" lon="2.64652">
        <ele>88.54</ele>
        <time>2021-09-15T10:00:59Z</time>
      </trkpt>
      <trkpt lat="48.38061" lon="2.64606">
        <ele>89.63</ele>
        <time>2021-09-15T10:01:30Z</time>
      </trkpt>
      <trkpt lat="48.38067" lon="2.64575">
        <ele>88.98</ele>
        <time>2021-09-15T10:01:45Z</time>
      </trkpt>
      <trkpt lat="48.38076" lon="2.64546">
        <ele>90.8</ele>
        <time>2021-09-15T10:02:00Z</time>
      </trkpt>
      <trkpt lat="48.38082" lon="2.6452">
        <ele>91.34</ele>
        <time>2021-09-15T10:02:17Z</time>
      </trkpt>
      <trkpt lat="48.38094" lon="2.64477">
        <ele>93.16</ele>
        <time>2021-09-15T10:02:44Z</time>
      </trkpt>
      <trkpt lat="48.38098" lon="2.64452">
        <ele>94.22</ele>
        <time>2021-09-15T10:03:01Z</time>
      </trkpt>
      <trkpt lat="48.38111" lon="2.64414">
        <ele>95.55</ele>
        <time>2021-09-15T10:03:25Z</time>
      </trkpt>
      <trkpt lat="48.38119" lon="2.64371">
        <ele>97.27</ele>
        <time>2021-09-15T10:03:48Z</time>
      </trkpt>
      <trkpt lat="48.38122" lon="2.64327">
        <ele>98.27</ele>
        <time>2021-09-15T10:04:14Z</time>
      </trkpt>
      <trkpt lat="48.38127" lon="2.64279">
        <ele>99.37</ele>
        <time>2021-09-15T10:04:42Z</time>
      </trkpt>
      <trkpt lat="48.38129" lon="2.64236">
        <ele>100.05</ele>
        <time>2021-09-15T10:05:06Z</time>
      </trkpt>
      <trkpt lat="48.3813" lon="2.64234">
        <ele>100.06</ele>
        <time>2021-09-15T10:05:07Z</time>
      </trkpt>
      <trkpt lat="48.3813" lon="2.64232">
        <ele>100.09</ele>
        <time>2021-09-15T10:05:08Z</time>
      </trkpt>
      <trkpt lat="48.3813" lon="2.64229">
        <ele>100.12</ele>
        <time>2021-09-15T10:05:09Z</time>
      </trkpt>
      <trkpt lat="48.3813" lon="2.64227">
        <ele>100.15</ele>
        <time>2021-09-15T10:05:10Z</time>
      </trkpt>
      <trkpt lat="48.38132" lon="2.6421">
        <ele>100.74</ele>
        <time>2021-09-15T10:05:21Z</time>
      </trkpt>
      <trkpt lat="48.38135" lon="2.64187">
        <ele>101</ele>
        <time>2021-09-15T10:05:33Z</time>
      </trkpt>
      <trkpt lat="48.38138" lon="2.64154">
        <ele>99.81</ele>
        <time>2021-09-15T10:05:50Z</time>
      </trkpt>
      <trkpt lat="48.3814" lon="2.64146">
        <ele>100.25</ele>
        <time>2021-09-15T10:05:55Z</time>
      </trkpt>
      <trkpt lat="48.38143" lon="2.6412">
        <ele>100.81</ele>
        <time>2021-09-15T10:06:11Z</time>
      </trkpt>
      <trkpt lat="48.38145" lon="2.64094">
        <ele>101.6</ele>
        <time>2021-09-15T10:06:26Z</time>
      </trkpt>
      <trkpt lat="48.38148" lon="2.64084">
        <ele>101.67</ele>
        <time>2021-09-15T10:06:39Z</time>
      </trkpt>
      <trkpt lat="48.38155" lon="2.64065">
        <ele>103.14</ele>
        <time>2021-09-15T10:07:08Z</time>
      </trkpt>
      <trkpt lat="48.38174" lon="2.64056">
        <ele>106.22</ele>
        <time>2021-09-15T10:07:30Z</time>
      </trkpt>
      <trkpt lat="48.38185" lon="2.64064">
        <ele>109.36</ele>
        <time>2021-09-15T10:07:48Z</time>
      </trkpt>
      <trkpt lat="48.3819" lon="2.64084">
        <ele>112.16</ele>
        <time>2021-09-15T10:08:11Z</time>
      </trkpt>
      <trkpt lat="48.38198" lon="2.64113">
        <ele>115.26</ele>
        <time>2021-09-15T10:08:36Z</time>
      </trkpt>
      <trkpt lat="48.38205" lon="2.64108">
        <ele>117.38</ele>
        <time>2021-09-15T10:08:55Z</time>
      </trkpt>
      <trkpt lat="48.38206" lon="2.64103">
        <ele>119.08</ele>
        <time>2021-09-15T10:09:00Z</time>
      </trkpt>
      <trkpt lat="48.38215" lon="2.64084">
        <ele>121.38</ele>
        <time>2021-09-15T10:09:22Z</time>
      </trkpt>
      <trkpt lat="48.38217" lon="2.64079">
        <ele>121.67</ele>
        <time>2021-09-15T10:09:26Z</time>
      </trkpt>
      <trkpt lat="48.38215" lon="2.64062">
        <ele>122.03</ele>
        <time>2021-09-15T10:09:42Z</time>
      </trkpt>
      <trkpt lat="48.38215" lon="2.64044">
        <ele>122.12</ele>
        <time>2021-09-15T10:10:00Z</time>
      </trkpt>
      <trkpt lat="48.38218" lon="2.64046">
        <ele>121.66</ele>
        <time>2021-09-15T10:10:18Z</time>
      </trkpt>
      <trkpt lat="48.38213" lon="2.64058">
        <ele>121.37</ele>
        <time>2021-09-15T10:10:33Z</time>
      </trkpt>
      <trkpt lat="48.38215" lon="2.64081">
        <ele>120.62</ele>
        <time>2021-09-15T10:10:50Z</time>
      </trkpt>
      <trkpt lat="48.38211" lon="2.64082">
        <ele>120.64</ele>
        <time>2021-09-15T10:11:06Z</time>
      </trkpt>
      <trkpt lat="48.38206" lon="2.64096">
        <ele>120.03</ele>
        <time>2021-09-15T10:11:19Z</time>
      </trkpt>
      <trkpt lat="48.38201" lon="2.6412">
        <ele>118.06</ele>
        <time>2021-09-15T10:11:35Z</time>
      </trkpt>
      <trkpt lat="48.38203" lon="2.64142">
        <ele>118.25</ele>
        <time>2021-09-15T10:11:52Z</time>
      </trkpt>
      <trkpt lat="48.38198" lon="2.64165">
        <ele>120.08</ele>
        <time>2021-09-15T10:12:14Z</time>
      </trkpt>
      <trkpt lat="48.38194" lon="2.64187">
        <ele>120.08</ele>
        <time>2021-09-15T10:12:43Z</time>
      </trkpt>
      <trkpt lat="48.382" lon="2.64185">
        <ele>120.08</ele>
        <time>2021-09-15T10:13:06Z</time>
      </trkpt>
      <trkpt lat="48.38212" lon="2.64179">
        <ele>120.08</ele>
        <time>2021-09-15T10:13:28Z</time>
      </trkpt>
      <trkpt lat="48.38225" lon="2.64183">
        <ele>120.08</ele>
        <time>2021-09-15T10:13:50Z</time>
      </trkpt>
      <trkpt lat="48.38228" lon="2.64183">
        <ele>120.08</ele>
        <time>2021-09-15T10:14:09Z</time>
      </trkpt>
      <trkpt lat="48.38232" lon="2.64178">
        <ele>123.13</ele>
        <time>2021-09-15T10:14:15Z</time>
      </trkpt>
      <trkpt lat="48.38242" lon="2.64162">
        <ele>124.58</ele>
        <time>2021-09-15T10:14:30Z</time>
      </trkpt>
      <trkpt lat="48.38257" lon="2.64141">
        <ele>124.32</ele>
        <time>2021-09-15T10:14:53Z</time>
      </trkpt>
      <trkpt lat="48.38276" lon="2.64137">
        <ele>123.57</ele>
        <time>2021-09-15T10:15:12Z</time>
      </trkpt>
      <trkpt lat="48.38278" lon="2.6413">
        <ele>123.38</ele>
        <time>2021-09-15T10:15:28Z</time>
      </trkpt>
      <trkpt lat="48.38277" lon="2.64122">
        <ele>123.73</ele>
        <time>2021-09-15T10:15:44Z</time>
      </trkpt>
      <trkpt lat="48.38274" lon="2.641">
        <ele>122.26</ele>
        <time>2021-09-15T10:16:01Z</time>
      </trkpt>
      <trkpt lat="48.38275" lon="2.64079">
        <ele>125.02</ele>
        <time>2021-09-15T10:16:14Z</time>
      </trkpt>
      <trkpt lat="48.38285" lon="2.64057">
        <ele>125.43</ele>
        <time>2021-09-15T10:16:31Z</time>
      </trkpt>
      <trkpt lat="48.38302" lon="2.64029">
        <ele>123.33</ele>
        <time>2021-09-15T10:16:57Z</time>
      </trkpt>
      <trkpt lat="48.38313" lon="2.63988">
        <ele>123.18</ele>
        <time>2021-09-15T10:17:22Z</time>
      </trkpt>
      <trkpt lat="48.38315" lon="2.63966">
        <ele>123.98</ele>
        <time>2021-09-15T10:17:37Z</time>
      </trkpt>
      <trkpt lat="48.38313" lon="2.63954">
        <ele>124.35</ele>
        <time>2021-09-15T10:17:46Z</time>
      </trkpt>
      <trkpt lat="48.38315" lon="2.63924">
        <ele>124.07</ele>
        <time>2021-09-15T10:18:03Z</time>
      </trkpt>
      <trkpt lat="48.38314" lon="2.6392">
        <ele>124.14</ele>
        <time>2021-09-15T10:18:05Z</time>
      </trkpt>
      <trkpt lat="48.38313" lon="2.63904">
        <ele>124.52</ele>
        <time>2021-09-15T10:18:14Z</time>
      </trkpt>
      <trkpt lat="48.38311" lon="2.63883">
        <ele>125.29</ele>
        <time>2021-09-15T10:18:29Z</time>
      </trkpt>
      <trkpt lat="48.38313" lon="2.6387">
        <ele>122.46</ele>
        <time>2021-09-15T10:18:42Z</time>
      </trkpt>
      <trkpt lat="48.38313" lon="2.63856">
        <ele>122.32</ele>
        <time>2021-09-15T10:19:00Z</time>
      </trkpt>
      <trkpt lat="48.38317" lon="2.63856">
        <ele>122.32</ele>
        <time>2021-09-15T10:19:20Z</time>
      </trkpt>
      <trkpt lat="48.3833" lon="2.63844">
        <ele>122.32</ele>
        <time>2021-09-15T10:19:44Z</time>
      </trkpt>
      <trkpt lat="48.3834" lon="2.63863">
        <ele>122.32</ele>
        <time>2021-09-15T10:20:04Z</time>
      </trkpt>
      <trkpt lat="48.38346" lon="2.63868">
        <ele>122.32</ele>
        <time>2021-09-15T10:20:08Z</time>
      </trkpt>
      <trkpt lat="48.38349" lon="2.63872">
        <ele>122.32</ele>
        <time>2021-09-15T10:20:35Z</time>
      </trkpt>
      <trkpt lat="48.38359" lon="2.63874">
        <ele>121.98</ele>
        <time>2021-09-15T10:20:47Z</time>
      </trkpt>
      <trkpt lat="48.38366" lon="2.6388">
        <ele>120.86</ele>
        <time>2021-09-15T10:20:53Z</time>
      </trkpt>
      <trkpt lat="48.38374" lon="2.63899">
        <ele>117.1</ele>
        <time>2021-09-15T10:21:07Z</time>
      </trkpt>
      <trkpt lat="48.38385" lon="2.63914">
        <ele>114.62</ele>
        <time>2021-09-15T10:21:22Z</time>
      </trkpt>
      <trkpt lat="48.38397" lon="2.63939">
        <ele>111.43</ele>
        <time>2021-09-15T10:21:40Z</time>
      </trkpt>
      <trkpt lat="48.3841" lon="2.63952">
        <ele>109.32</ele>
        <time>2021-09-15T10:21:58Z</time>
      </trkpt>
      <trkpt lat="48.3842" lon="2.63965">
        <ele>106.14</ele>
        <time>2021-09-15T10:22:15Z</time>
      </trkpt>
      <trkpt lat="48.38439" lon="2.63988">
        <ele>103.86</ele>
        <time>2021-09-15T10:22:33Z</time>
      </trkpt>
      <trkpt lat="48.38446" lon="2.63995">
        <ele>102.96</ele>
        <time>2021-09-15T10:22:39Z</time>
      </trkpt>
      <trkpt lat="48.38464" lon="2.64016">
        <ele>101.14</ele>
        <time>2021-09-15T10:22:56Z</time>
      </trkpt>
      <trkpt lat="48.38476" lon="2.64028">
        <ele>99.78</ele>
        <time>2021-09-15T10:23:11Z</time>
      </trkpt>
      <trkpt lat="48.38484" lon="2.6404">
        <ele>98.64</ele>
        <time>2021-09-15T10:23:21Z</time>
      </trkpt>
      <trkpt lat="48.38494" lon="2.64052">
        <ele>98.29</ele>
        <time>2021-09-15T10:23:32Z</time>
      </trkpt>
      <trkpt lat="48.38502" lon="2.64063">
        <ele>97.67</ele>
        <time>2021-09-15T10:23:44Z</time>
      </trkpt>
      <trkpt lat="48.38514" lon="2.64083">
        <ele>97.84</ele>
        <time>2021-09-15T10:24:04Z</time>
      </trkpt>
      <trkpt lat="48.38524" lon="2.64097">
        <ele>97.32</ele>
        <time>2021-09-15T10:24:18Z</time>
      </trkpt>
      <trkpt lat="48.38537" lon="2.64115">
        <ele>97.95</ele>
        <time>2021-09-15T10:24:33Z</time>
      </trkpt>
      <trkpt lat="48.38545" lon="2.64127">
        <ele>98.34</ele>
        <time>2021-09-15T10:24:49Z</time>
      </trkpt>
      <trkpt lat="48.38558" lon="2.64142">
        <ele>98.68</ele>
        <time>2021-09-15T10:25:03Z</time>
      </trkpt>
      <trkpt lat="48.38569" lon="2.64161">
        <ele>98.8</ele>
        <time>2021-09-15T10:25:23Z</time>
      </trkpt>
      <trkpt lat="48.38582" lon="2.64178">
        <ele>98.94</ele>
        <time>2021-09-15T10:25:40Z</time>
      </trkpt>
      <trkpt lat="48.38597" lon="2.6418">
        <ele>100.23</ele>
        <time>2021-09-15T10:25:48Z</time>
      </trkpt>
      <trkpt lat="48.386" lon="2.64177">
        <ele>100.49</ele>
        <time>2021-09-15T10:25:51Z</time>
      </trkpt>
      <trkpt lat="48.38608" lon="2.64159">
        <ele>101.62</ele>
        <time>2021-09-15T10:26:06Z</time>
      </trkpt>
      <trkpt lat="48.3861" lon="2.64156">
        <ele>102.04</ele>
        <time>2021-09-15T10:26:09Z</time>
      </trkpt>
      <trkpt lat="48.38619" lon="2.64133">
        <ele>101.58</ele>
        <time>2021-09-15T10:26:25Z</time>
      </trkpt>
      <trkpt lat="48.38627" lon="2.64107">
        <ele>101.7</ele>
        <time>2021-09-15T10:26:43Z</time>
      </trkpt>
      <trkpt lat="48.38633" lon="2.64081">
        <ele>101.87</ele>
        <time>2021-09-15T10:26:58Z</time>
      </trkpt>
      <trkpt lat="48.38642" lon="2.64058">
        <ele>102.56</ele>
        <time>2021-09-15T10:27:12Z</time>
      </trkpt>
      <trkpt lat="48.38642" lon="2.64056">
        <ele>102.8</ele>
        <time>2021-09-15T10:27:13Z</time>
      </trkpt>
      <trkpt lat="48.38651" lon="2.64031">
        <ele>103.42</ele>
        <time>2021-09-15T10:27:33Z</time>
      </trkpt>
      <trkpt lat="48.38662" lon="2.64009">
        <ele>103.85</ele>
        <time>2021-09-15T10:27:55Z</time>
      </trkpt>
      <trkpt lat="48.38669" lon="2.63977">
        <ele>104.44</ele>
        <time>2021-09-15T10:28:12Z</time>
      </trkpt>
      <trkpt lat="48.38678" lon="2.63948">
        <ele>104.42</ele>
        <time>2021-09-15T10:28:30Z</time>
      </trkpt>
      <trkpt lat="48.38679" lon="2.63942">
        <ele>104.43</ele>
        <time>2021-09-15T10:28:33Z</time>
      </trkpt>
      <trkpt lat="48.38684" lon="2.63926">
        <ele>104.4</ele>
        <time>2021-09-15T10:28:43Z</time>
      </trkpt>
      <trkpt lat="48.38685" lon="2.63923">
        <ele>104.41</ele>
        <time>2021-09-15T10:28:44Z</time>
      </trkpt>
      <trkpt lat="48.38685" lon="2.63921">
        <ele>104.44</ele>
        <time>2021-09-15T10:28:45Z</time>
      </trkpt>
      <trkpt lat="48.3869" lon="2.63899">
        <ele>105.02</ele>
        <time>2021-09-15T10:28:59Z</time>
      </trkpt>
      <trkpt lat="48.38692" lon="2.63892">
        <ele>105.13</ele>
        <time>2021-09-15T10:29:03Z</time>
      </trkpt>
      <trkpt lat="48.38696" lon="2.63876">
        <ele>106.06</ele>
        <time>2021-09-15T10:29:17Z</time>
      </trkpt>
      <trkpt lat="48.38704" lon="2.63873">
        <ele>106.67</ele>
        <time>2021-09-15T10:29:35Z</time>
      </trkpt>
      <trkpt lat="48.3871" lon="2.63885">
        <ele>108.32</ele>
        <time>2021-09-15T10:29:48Z</time>
      </trkpt>
      <trkpt lat="48.3871" lon="2.63887">
        <ele>108.58</ele>
        <time>2021-09-15T10:29:49Z</time>
      </trkpt>
      <trkpt lat="48.38722" lon="2.63901">
        <ele>111.2</ele>
        <time>2021-09-15T10:30:06Z</time>
      </trkpt>
      <trkpt lat="48.38734" lon="2.63912">
        <ele>113.99</ele>
        <time>2021-09-15T10:30:23Z</time>
      </trkpt>
      <trkpt lat="48.38735" lon="2.63913">
        <ele>114.16</ele>
        <time>2021-09-15T10:30:24Z</time>
      </trkpt>
      <trkpt lat="48.38742" lon="2.63919">
        <ele>115.74</ele>
        <time>2021-09-15T10:30:33Z</time>
      </trkpt>
      <trkpt lat="48.38743" lon="2.6392">
        <ele>116.01</ele>
        <time>2021-09-15T10:30:35Z</time>
      </trkpt>
      <trkpt lat="48.38753" lon="2.63933">
        <ele>116.22</ele>
        <time>2021-09-15T10:30:51Z</time>
      </trkpt>
      <trkpt lat="48.3876" lon="2.63942">
        <ele>118.23</ele>
        <time>2021-09-15T10:31:01Z</time>
      </trkpt>
      <trkpt lat="48.38761" lon="2.63943">
        <ele>118.28</ele>
        <time>2021-09-15T10:31:02Z</time>
      </trkpt>
      <trkpt lat="48.38763" lon="2.63943">
        <ele>118.31</ele>
        <time>2021-09-15T10:31:03Z</time>
      </trkpt>
      <trkpt lat="48.38763" lon="2.63945">
        <ele>118.32</ele>
        <time>2021-09-15T10:31:04Z</time>
      </trkpt>
      <trkpt lat="48.38767" lon="2.63951">
        <ele>118.35</ele>
        <time>2021-09-15T10:31:10Z</time>
      </trkpt>
      <trkpt lat="48.3878" lon="2.63968">
        <ele>120.02</ele>
        <time>2021-09-15T10:31:26Z</time>
      </trkpt>
      <trkpt lat="48.38792" lon="2.63984">
        <ele>120.76</ele>
        <time>2021-09-15T10:31:41Z</time>
      </trkpt>
      <trkpt lat="48.38807" lon="2.64003">
        <ele>121.37</ele>
        <time>2021-09-15T10:31:59Z</time>
      </trkpt>
      <trkpt lat="48.38826" lon="2.64029">
        <ele>121.28</ele>
        <time>2021-09-15T10:32:21Z</time>
      </trkpt>
      <trkpt lat="48.38832" lon="2.64037">
        <ele>121.19</ele>
        <time>2021-09-15T10:32:28Z</time>
      </trkpt>
      <trkpt lat="48.38833" lon="2.64038">
        <ele>121.15</ele>
        <time>2021-09-15T10:32:29Z</time>
      </trkpt>
      <trkpt lat="48.38834" lon="2.64039">
        <ele>121.13</ele>
        <time>2021-09-15T10:32:30Z</time>
      </trkpt>
      <trkpt lat="48.38844" lon="2.64055">
        <ele>121.21</ele>
        <time>2021-09-15T10:32:43Z</time>
      </trkpt>
      <trkpt lat="48.38855" lon="2.64074">
        <ele>121.06</ele>
        <time>2021-09-15T10:33:00Z</time>
      </trkpt>
      <trkpt lat="48.38865" lon="2.64086">
        <ele>121.48</ele>
        <time>2021-09-15T10:33:14Z</time>
      </trkpt>
      <trkpt lat="48.38872" lon="2.64095">
        <ele>120.86</ele>
        <time>2021-09-15T10:33:28Z</time>
      </trkpt>
      <trkpt lat="48.38878" lon="2.64104">
        <ele>120.93</ele>
        <time>2021-09-15T10:33:40Z</time>
      </trkpt>
      <trkpt lat="48.38879" lon="2.64105">
        <ele>120.94</ele>
        <time>2021-09-15T10:33:41Z</time>
      </trkpt>
      <trkpt lat="48.38883" lon="2.64113">
        <ele>121.08</ele>
        <time>2021-09-15T10:33:48Z</time>
      </trkpt>
      <trkpt lat="48.38884" lon="2.64114">
        <ele>121.1</ele>
        <time>2021-09-15T10:33:49Z</time>
      </trkpt>
      <trkpt lat="48.38885" lon="2.64117">
        <ele>121.19</ele>
        <time>2021-09-15T10:33:52Z</time>
      </trkpt>
      <trkpt lat="48.38886" lon="2.64121">
        <ele>121.24</ele>
        <time>2021-09-15T10:33:54Z</time>
      </trkpt>
      <trkpt lat="48.38888" lon="2.64123">
        <ele>121.27</ele>
        <time>2021-09-15T10:33:56Z</time>
      </trkpt>
      <trkpt lat="48.38898" lon="2.64135">
        <ele>120.45</ele>
        <time>2021-09-15T10:34:10Z</time>
      </trkpt>
      <trkpt lat="48.38911" lon="2.64155">
        <ele>118.01</ele>
        <time>2021-09-15T10:34:25Z</time>
      </trkpt>
      <trkpt lat="48.38913" lon="2.64157">
        <ele>117.66</ele>
        <time>2021-09-15T10:34:26Z</time>
      </trkpt>
      <trkpt lat="48.38914" lon="2.64158">
        <ele>117.35</ele>
        <time>2021-09-15T10:34:27Z</time>
      </trkpt>
      <trkpt lat="48.38915" lon="2.6416">
        <ele>117</ele>
        <time>2021-09-15T10:34:28Z</time>
      </trkpt>
      <trkpt lat="48.38916" lon="2.64162">
        <ele>116.57</ele>
        <time>2021-09-15T10:34:29Z</time>
      </trkpt>
      <trkpt lat="48.38918" lon="2.64164">
        <ele>116.13</ele>
        <time>2021-09-15T10:34:30Z</time>
      </trkpt>
      <trkpt lat="48.38919" lon="2.64165">
        <ele>115.73</ele>
        <time>2021-09-15T10:34:31Z</time>
      </trkpt>
      <trkpt lat="48.38921" lon="2.64167">
        <ele>115.29</ele>
        <time>2021-09-15T10:34:32Z</time>
      </trkpt>
      <trkpt lat="48.38929" lon="2.64175">
        <ele>111.96</ele>
        <time>2021-09-15T10:34:38Z</time>
      </trkpt>
      <trkpt lat="48.38939" lon="2.64184">
        <ele>108.92</ele>
        <time>2021-09-15T10:34:45Z</time>
      </trkpt>
      <trkpt lat="48.38944" lon="2.64189">
        <ele>106.96</ele>
        <time>2021-09-15T10:34:50Z</time>
      </trkpt>
      <trkpt lat="48.38945" lon="2.64191">
        <ele>106.66</ele>
        <time>2021-09-15T10:34:51Z</time>
      </trkpt>
      <trkpt lat="48.38947" lon="2.64192">
        <ele>106.33</ele>
        <time>2021-09-15T10:34:52Z</time>
      </trkpt>
      <trkpt lat="48.38954" lon="2.64199">
        <ele>103.22</ele>
        <time>2021-09-15T10:34:59Z</time>
      </trkpt>
      <trkpt lat="48.38955" lon="2.64198">
        <ele>103.14</ele>
        <time>2021-09-15T10:35:00Z</time>
      </trkpt>
      <trkpt lat="48.38957" lon="2.64198">
        <ele>103.09</ele>
        <time>2021-09-15T10:35:01Z</time>
      </trkpt>
      <trkpt lat="48.38969" lon="2.64196">
        <ele>101.48</ele>
        <time>2021-09-15T10:35:13Z</time>
      </trkpt>
      <trkpt lat="48.38974" lon="2.64192">
        <ele>100.94</ele>
        <time>2021-09-15T10:35:27Z</time>
      </trkpt>
      <trkpt lat="48.38972" lon="2.64186">
        <ele>99.95</ele>
        <time>2021-09-15T10:35:44Z</time>
      </trkpt>
      <trkpt lat="48.38973" lon="2.64187">
        <ele>99.94</ele>
        <time>2021-09-15T10:36:03Z</time>
      </trkpt>
      <trkpt lat="48.38978" lon="2.64189">
        <ele>100.1</ele>
        <time>2021-09-15T10:36:29Z</time>
      </trkpt>
      <trkpt lat="48.38979" lon="2.64182">
        <ele>100.06</ele>
        <time>2021-09-15T10:36:43Z</time>
      </trkpt>
      <trkpt lat="48.38979" lon="2.6418">
        <ele>100.05</ele>
        <time>2021-09-15T10:36:44Z</time>
      </trkpt>
      <trkpt lat="48.38979" lon="2.64178">
        <ele>100.05</ele>
        <time>2021-09-15T10:36:45Z</time>
      </trkpt>
      <trkpt lat="48.38979" lon="2.64176">
        <ele>100.05</ele>
        <time>2021-09-15T10:36:46Z</time>
      </trkpt>
      <trkpt lat="48.38979" lon="2.64175">
        <ele>100.07</ele>
        <time>2021-09-15T10:36:47Z</time>
      </trkpt>
      <trkpt lat="48.38979" lon="2.64173">
        <ele>100.09</ele>
        <time>2021-09-15T10:36:48Z</time>
      </trkpt>
      <trkpt lat="48.38979" lon="2.64171">
        <ele>100.13</ele>
        <time>2021-09-15T10:36:49Z</time>
      </trkpt>
      <trkpt lat="48.38979" lon="2.6417">
        <ele>100.23</ele>
        <time>2021-09-15T10:36:50Z</time>
      </trkpt>
      <trkpt lat="48.38983" lon="2.64148">
        <ele>100.82</ele>
        <time>2021-09-15T10:37:04Z</time>
      </trkpt>
      <trkpt lat="48.38985" lon="2.64132">
        <ele>101.14</ele>
        <time>2021-09-15T10:37:14Z</time>
      </trkpt>
      <trkpt lat="48.38989" lon="2.64113">
        <ele>100.83</ele>
        <time>2021-09-15T10:37:27Z</time>
      </trkpt>
      <trkpt lat="48.3899" lon="2.64106">
        <ele>101.89</ele>
        <time>2021-09-15T10:37:31Z</time>
      </trkpt>
      <trkpt lat="48.3899" lon="2.64104">
        <ele>101.85</ele>
        <time>2021-09-15T10:37:32Z</time>
      </trkpt>
      <trkpt lat="48.38994" lon="2.64076">
        <ele>101.88</ele>
        <time>2021-09-15T10:37:49Z</time>
      </trkpt>
      <trkpt lat="48.39009" lon="2.64068">
        <ele>101.95</ele>
        <time>2021-09-15T10:38:05Z</time>
      </trkpt>
      <trkpt lat="48.39022" lon="2.64062">
        <ele>102.47</ele>
        <time>2021-09-15T10:38:24Z</time>
      </trkpt>
      <trkpt lat="48.39041" lon="2.64062">
        <ele>104.59</ele>
        <time>2021-09-15T10:38:45Z</time>
      </trkpt>
      <trkpt lat="48.39055" lon="2.64064">
        <ele>107.68</ele>
        <time>2021-09-15T10:39:04Z</time>
      </trkpt>
      <trkpt lat="48.39062" lon="2.64064">
        <ele>110.89</ele>
        <time>2021-09-15T10:39:19Z</time>
      </trkpt>
      <trkpt lat="48.39071" lon="2.64063">
        <ele>113.96</ele>
        <time>2021-09-15T10:39:37Z</time>
      </trkpt>
      <trkpt lat="48.39079" lon="2.64064">
        <ele>116.99</ele>
        <time>2021-09-15T10:39:51Z</time>
      </trkpt>
      <trkpt lat="48.3908" lon="2.64065">
        <ele>117.85</ele>
        <time>2021-09-15T10:39:56Z</time>
      </trkpt>
      <trkpt lat="48.39081" lon="2.64071">
        <ele>119.53</ele>
        <time>2021-09-15T10:40:05Z</time>
      </trkpt>
      <trkpt lat="48.39083" lon="2.64074">
        <ele>120.08</ele>
        <time>2021-09-15T10:40:09Z</time>
      </trkpt>
      <trkpt lat="48.39088" lon="2.64074">
        <ele>123.17</ele>
        <time>2021-09-15T10:40:26Z</time>
      </trkpt>
      <trkpt lat="48.39099" lon="2.64069">
        <ele>125.97</ele>
        <time>2021-09-15T10:40:47Z</time>
      </trkpt>
      <trkpt lat="48.39101" lon="2.64073">
        <ele>125.74</ele>
        <time>2021-09-15T10:41:11Z</time>
      </trkpt>
      <trkpt lat="48.39103" lon="2.64075">
        <ele>125.99</ele>
        <time>2021-09-15T10:41:38Z</time>
      </trkpt>
      <trkpt lat="48.39105" lon="2.64074">
        <ele>125.86</ele>
        <time>2021-09-15T10:42:09Z</time>
      </trkpt>
      <trkpt lat="48.39104" lon="2.64075">
        <ele>125.62</ele>
        <time>2021-09-15T10:42:34Z</time>
      </trkpt>
      <trkpt lat="48.391" lon="2.64077">
        <ele>125.62</ele>
        <time>2021-09-15T10:43:14Z</time>
      </trkpt>
      <trkpt lat="48.391" lon="2.6408">
        <ele>125.62</ele>
        <time>2021-09-15T10:44:34Z</time>
      </trkpt>
      <trkpt lat="48.39101" lon="2.64083">
        <ele>125.62</ele>
        <time>2021-09-15T10:45:18Z</time>
      </trkpt>
      <trkpt lat="48.39101" lon="2.64086">
        <ele>125.62</ele>
        <time>2021-09-15T10:46:10Z</time>
      </trkpt>
      <trkpt lat="48.39097" lon="2.64088">
        <ele>125.62</ele>
        <time>2021-09-15T10:47:29Z</time>
      </trkpt>
      <trkpt lat="48.39096" lon="2.6409">
        <ele>125.62</ele>
        <time>2021-09-15T10:48:45Z</time>
      </trkpt>
      <trkpt lat="48.39095" lon="2.64088">
        <ele>125.62</ele>
        <time>2021-09-15T10:49:40Z</time>
      </trkpt>
      <trkpt lat="48.39099" lon="2.64083">
        <ele>125.62</ele>
        <time>2021-09-15T10:51:01Z</time>
      </trkpt>
      <trkpt lat="48.39098" lon="2.64083">
        <ele>125.62</ele>
        <time>2021-09-15T10:52:05Z</time>
      </trkpt>
      <trkpt lat="48.39098" lon="2.6408">
        <ele>125.62</ele>
        <time>2021-09-15T10:53:41Z</time>
      </trkpt>
      <trkpt lat="48.39099" lon="2.64083">
        <ele>125.62</ele>
        <time>2021-09-15T10:54:57Z</time>
      </trkpt>
      <trkpt lat="48.39097" lon="2.64084">
        <ele>125.62</ele>
        <time>2021-09-15T10:56:27Z</time>
      </trkpt>
      <trkpt lat="48.39098" lon="2.64084">
        <ele>125.62</ele>
        <time>2021-09-15T10:57:33Z</time>
      </trkpt>
      <trkpt lat="48.39099" lon="2.64082">
        <ele>125.62</ele>
        <time>2021-09-15T10:58:26Z</time>
      </trkpt>
      <trkpt lat="48.39098" lon="2.64081">
        <ele>125.62</ele>
        <time>2021-09-15T10:59:43Z</time>
      </trkpt>
      <trkpt lat="48.39101" lon="2.64081">
        <ele>125.62</ele>
        <time>2021-09-15T11:02:07Z</time>
      </trkpt>
      <trkpt lat="48.39101" lon="2.64082">
        <ele>125.62</ele>
        <time>2021-09-15T11:04:33Z</time>
      </trkpt>
      <trkpt lat="48.391" lon="2.64083">
        <ele>125.62</ele>
        <time>2021-09-15T11:05:59Z</time>
      </trkpt>
      <trkpt lat="48.39102" lon="2.64084">
        <ele>125.62</ele>
        <time>2021-09-15T11:07:36Z</time>
      </trkpt>
      <trkpt lat="48.39101" lon="2.64083">
        <ele>125.62</ele>
        <time>2021-09-15T11:08:25Z</time>
      </trkpt>
      <trkpt lat="48.391" lon="2.64086">
        <ele>125.62</ele>
        <time>2021-09-15T11:08:58Z</time>
      </trkpt>
      <trkpt lat="48.39101" lon="2.64083">
        <ele>125.62</ele>
        <time>2021-09-15T11:10:00Z</time>
      </trkpt>
      <trkpt lat="48.39103" lon="2.64083">
        <ele>125.62</ele>
        <time>2021-09-15T11:10:25Z</time>
      </trkpt>
      <trkpt lat="48.39099" lon="2.64084">
        <ele>125.62</ele>
        <time>2021-09-15T11:11:34Z</time>
      </trkpt>
      <trkpt lat="48.39101" lon="2.64084">
        <ele>125.62</ele>
        <time>2021-09-15T11:12:44Z</time>
      </trkpt>
      <trkpt lat="48.39101" lon="2.64084">
        <ele>130.56</ele>
        <time>2021-09-15T11:12:47Z</time>
      </trkpt>
      <trkpt lat="48.39101" lon="2.64084">
        <ele>129.25</ele>
        <time>2021-09-15T11:12:48Z</time>
      </trkpt>
      <trkpt lat="48.39101" lon="2.64084">
        <ele>124.9</ele>
        <time>2021-09-15T11:12:50Z</time>
      </trkpt>
      <trkpt lat="48.391" lon="2.64082">
        <ele>125.63</ele>
        <time>2021-09-15T11:13:35Z</time>
      </trkpt>
      <trkpt lat="48.39101" lon="2.64083">
        <ele>128.32</ele>
        <time>2021-09-15T11:13:59Z</time>
      </trkpt>
      <trkpt lat="48.39103" lon="2.64084">
        <ele>125.29</ele>
        <time>2021-09-15T11:14:24Z</time>
      </trkpt>
      <trkpt lat="48.39103" lon="2.64084">
        <ele>124.42</ele>
        <time>2021-09-15T11:14:26Z</time>
      </trkpt>
      <trkpt lat="48.39103" lon="2.64081">
        <ele>125.8</ele>
        <time>2021-09-15T11:15:21Z</time>
      </trkpt>
      <trkpt lat="48.39102" lon="2.64082">
        <ele>125.8</ele>
        <time>2021-09-15T11:15:42Z</time>
      </trkpt>
      <trkpt lat="48.39101" lon="2.64083">
        <ele>125.8</ele>
        <time>2021-09-15T11:16:21Z</time>
      </trkpt>
      <trkpt lat="48.39104" lon="2.64081">
        <ele>125.8</ele>
        <time>2021-09-15T11:16:51Z</time>
      </trkpt>
      <trkpt lat="48.39105" lon="2.64083">
        <ele>125.8</ele>
        <time>2021-09-15T11:17:40Z</time>
      </trkpt>
      <trkpt lat="48.39105" lon="2.64086">
        <ele>125.8</ele>
        <time>2021-09-15T11:18:07Z</time>
      </trkpt>
      <trkpt lat="48.39102" lon="2.64088">
        <ele>125.8</ele>
        <time>2021-09-15T11:18:59Z</time>
      </trkpt>
      <trkpt lat="48.39104" lon="2.64086">
        <ele>125.8</ele>
        <time>2021-09-15T11:19:39Z</time>
      </trkpt>
      <trkpt lat="48.39103" lon="2.64087">
        <ele>125.8</ele>
        <time>2021-09-15T11:20:10Z</time>
      </trkpt>
      <trkpt lat="48.39103" lon="2.64087">
        <ele>125.8</ele>
        <time>2021-09-15T11:20:39Z</time>
      </trkpt>
      <trkpt lat="48.39104" lon="2.64088">
        <ele>125.8</ele>
        <time>2021-09-15T11:21:05Z</time>
      </trkpt>
      <trkpt lat="48.39103" lon="2.64086">
        <ele>125.8</ele>
        <time>2021-09-15T11:21:32Z</time>
      </trkpt>
      <trkpt lat="48.39102" lon="2.64076">
        <ele>125.8</ele>
        <time>2021-09-15T11:22:02Z</time>
      </trkpt>
      <trkpt lat="48.39113" lon="2.64074">
        <ele>125.8</ele>
        <time>2021-09-15T11:22:29Z</time>
      </trkpt>
      <trkpt lat="48.3912" lon="2.64072">
        <ele>122.24</ele>
        <time>2021-09-15T11:22:40Z</time>
      </trkpt>
      <trkpt lat="48.39121" lon="2.64073">
        <ele>121.58</ele>
        <time>2021-09-15T11:22:42Z</time>
      </trkpt>
      <trkpt lat="48.39129" lon="2.6408">
        <ele>118.38</ele>
        <time>2021-09-15T11:23:01Z</time>
      </trkpt>
      <trkpt lat="48.39132" lon="2.64075">
        <ele>118.5</ele>
        <time>2021-09-15T11:23:15Z</time>
      </trkpt>
      <trkpt lat="48.39137" lon="2.64068">
        <ele>115.78</ele>
        <time>2021-09-15T11:23:38Z</time>
      </trkpt>
      <trkpt lat="48.3914" lon="2.64059">
        <ele>112.6</ele>
        <time>2021-09-15T11:23:53Z</time>
      </trkpt>
      <trkpt lat="48.39149" lon="2.64059">
        <ele>110.18</ele>
        <time>2021-09-15T11:24:08Z</time>
      </trkpt>
      <trkpt lat="48.39154" lon="2.64055">
        <ele>107.91</ele>
        <time>2021-09-15T11:24:14Z</time>
      </trkpt>
      <trkpt lat="48.39157" lon="2.64054">
        <ele>109.37</ele>
        <time>2021-09-15T11:24:17Z</time>
      </trkpt>
      <trkpt lat="48.39169" lon="2.64059">
        <ele>106.25</ele>
        <time>2021-09-15T11:24:33Z</time>
      </trkpt>
      <trkpt lat="48.39182" lon="2.64068">
        <ele>102.72</ele>
        <time>2021-09-15T11:24:52Z</time>
      </trkpt>
      <trkpt lat="48.39183" lon="2.64069">
        <ele>102.08</ele>
        <time>2021-09-15T11:24:54Z</time>
      </trkpt>
      <trkpt lat="48.39198" lon="2.64072">
        <ele>101.83</ele>
        <time>2021-09-15T11:25:11Z</time>
      </trkpt>
      <trkpt lat="48.39218" lon="2.64078">
        <ele>99.06</ele>
        <time>2021-09-15T11:25:38Z</time>
      </trkpt>
      <trkpt lat="48.39235" lon="2.64079">
        <ele>96.84</ele>
        <time>2021-09-15T11:26:02Z</time>
      </trkpt>
      <trkpt lat="48.39242" lon="2.64095">
        <ele>94.37</ele>
        <time>2021-09-15T11:26:17Z</time>
      </trkpt>
      <trkpt lat="48.39252" lon="2.64107">
        <ele>93.5</ele>
        <time>2021-09-15T11:26:31Z</time>
      </trkpt>
      <trkpt lat="48.39262" lon="2.64108">
        <ele>91.27</ele>
        <time>2021-09-15T11:26:45Z</time>
      </trkpt>
      <trkpt lat="48.39269" lon="2.64096">
        <ele>91.74</ele>
        <time>2021-09-15T11:27:02Z</time>
      </trkpt>
      <trkpt lat="48.39271" lon="2.64083">
        <ele>92.81</ele>
        <time>2021-09-15T11:27:18Z</time>
      </trkpt>
      <trkpt lat="48.39272" lon="2.64073">
        <ele>92.3</ele>
        <time>2021-09-15T11:27:35Z</time>
      </trkpt>
      <trkpt lat="48.39272" lon="2.64065">
        <ele>92.33</ele>
        <time>2021-09-15T11:27:43Z</time>
      </trkpt>
      <trkpt lat="48.39272" lon="2.64062">
        <ele>92.27</ele>
        <time>2021-09-15T11:27:45Z</time>
      </trkpt>
      <trkpt lat="48.3927" lon="2.64039">
        <ele>92.96</ele>
        <time>2021-09-15T11:28:02Z</time>
      </trkpt>
      <trkpt lat="48.3927" lon="2.64025">
        <ele>93.41</ele>
        <time>2021-09-15T11:28:10Z</time>
      </trkpt>
      <trkpt lat="48.39269" lon="2.64017">
        <ele>93.74</ele>
        <time>2021-09-15T11:28:15Z</time>
      </trkpt>
      <trkpt lat="48.39272" lon="2.64001">
        <ele>94.13</ele>
        <time>2021-09-15T11:28:29Z</time>
      </trkpt>
      <trkpt lat="48.39272" lon="2.63999">
        <ele>94.16</ele>
        <time>2021-09-15T11:28:30Z</time>
      </trkpt>
      <trkpt lat="48.39272" lon="2.63997">
        <ele>94.18</ele>
        <time>2021-09-15T11:28:31Z</time>
      </trkpt>
      <trkpt lat="48.39272" lon="2.63995">
        <ele>94.19</ele>
        <time>2021-09-15T11:28:32Z</time>
      </trkpt>
      <trkpt lat="48.39271" lon="2.63993">
        <ele>94.2</ele>
        <time>2021-09-15T11:28:33Z</time>
      </trkpt>
      <trkpt lat="48.39271" lon="2.63992">
        <ele>94.22</ele>
        <time>2021-09-15T11:28:34Z</time>
      </trkpt>
      <trkpt lat="48.39272" lon="2.6397">
        <ele>94.5</ele>
        <time>2021-09-15T11:28:48Z</time>
      </trkpt>
      <trkpt lat="48.39271" lon="2.63942">
        <ele>95.02</ele>
        <time>2021-09-15T11:29:05Z</time>
      </trkpt>
      <trkpt lat="48.39273" lon="2.63917">
        <ele>95.89</ele>
        <time>2021-09-15T11:29:24Z</time>
      </trkpt>
      <trkpt lat="48.39272" lon="2.63884">
        <ele>94.9</ele>
        <time>2021-09-15T11:29:45Z</time>
      </trkpt>
      <trkpt lat="48.39271" lon="2.63875">
        <ele>95.29</ele>
        <time>2021-09-15T11:29:50Z</time>
      </trkpt>
      <trkpt lat="48.39271" lon="2.63874">
        <ele>95.38</ele>
        <time>2021-09-15T11:29:51Z</time>
      </trkpt>
      <trkpt lat="48.39269" lon="2.63852">
        <ele>96.76</ele>
        <time>2021-09-15T11:30:10Z</time>
      </trkpt>
      <trkpt lat="48.39267" lon="2.63836">
        <ele>98.5</ele>
        <time>2021-09-15T11:30:19Z</time>
      </trkpt>
      <trkpt lat="48.39265" lon="2.63813">
        <ele>98.89</ele>
        <time>2021-09-15T11:30:35Z</time>
      </trkpt>
      <trkpt lat="48.39266" lon="2.63806">
        <ele>99.04</ele>
        <time>2021-09-15T11:30:39Z</time>
      </trkpt>
      <trkpt lat="48.39276" lon="2.63768">
        <ele>100.77</ele>
        <time>2021-09-15T11:31:07Z</time>
      </trkpt>
      <trkpt lat="48.39286" lon="2.63747">
        <ele>101.56</ele>
        <time>2021-09-15T11:31:22Z</time>
      </trkpt>
      <trkpt lat="48.39287" lon="2.63746">
        <ele>101.61</ele>
        <time>2021-09-15T11:31:23Z</time>
      </trkpt>
      <trkpt lat="48.39288" lon="2.63745">
        <ele>101.66</ele>
        <time>2021-09-15T11:31:24Z</time>
      </trkpt>
      <trkpt lat="48.39304" lon="2.6373">
        <ele>103.73</ele>
        <time>2021-09-15T11:31:41Z</time>
      </trkpt>
      <trkpt lat="48.39308" lon="2.63716">
        <ele>104.51</ele>
        <time>2021-09-15T11:31:49Z</time>
      </trkpt>
      <trkpt lat="48.39315" lon="2.63693">
        <ele>105.57</ele>
        <time>2021-09-15T11:32:04Z</time>
      </trkpt>
      <trkpt lat="48.39316" lon="2.63671">
        <ele>107.02</ele>
        <time>2021-09-15T11:32:17Z</time>
      </trkpt>
      <trkpt lat="48.39314" lon="2.63642">
        <ele>107.79</ele>
        <time>2021-09-15T11:32:37Z</time>
      </trkpt>
      <trkpt lat="48.39313" lon="2.63635">
        <ele>108.13</ele>
        <time>2021-09-15T11:32:41Z</time>
      </trkpt>
      <trkpt lat="48.39308" lon="2.63612">
        <ele>109.18</ele>
        <time>2021-09-15T11:32:56Z</time>
      </trkpt>
      <trkpt lat="48.39302" lon="2.63572">
        <ele>111.37</ele>
        <time>2021-09-15T11:33:22Z</time>
      </trkpt>
      <trkpt lat="48.393" lon="2.6354">
        <ele>113.83</ele>
        <time>2021-09-15T11:33:43Z</time>
      </trkpt>
      <trkpt lat="48.39308" lon="2.63502">
        <ele>114.25</ele>
        <time>2021-09-15T11:34:04Z</time>
      </trkpt>
      <trkpt lat="48.39308" lon="2.63484">
        <ele>114.44</ele>
        <time>2021-09-15T11:34:15Z</time>
      </trkpt>
      <trkpt lat="48.39308" lon="2.63482">
        <ele>114.47</ele>
        <time>2021-09-15T11:34:16Z</time>
      </trkpt>
      <trkpt lat="48.39308" lon="2.6348">
        <ele>114.5</ele>
        <time>2021-09-15T11:34:17Z</time>
      </trkpt>
      <trkpt lat="48.39315" lon="2.63456">
        <ele>115.09</ele>
        <time>2021-09-15T11:34:30Z</time>
      </trkpt>
      <trkpt lat="48.39315" lon="2.63454">
        <ele>115.23</ele>
        <time>2021-09-15T11:34:31Z</time>
      </trkpt>
      <trkpt lat="48.39315" lon="2.63452">
        <ele>115.29</ele>
        <time>2021-09-15T11:34:32Z</time>
      </trkpt>
      <trkpt lat="48.39316" lon="2.6345">
        <ele>115.34</ele>
        <time>2021-09-15T11:34:33Z</time>
      </trkpt>
      <trkpt lat="48.39316" lon="2.63447">
        <ele>115.37</ele>
        <time>2021-09-15T11:34:34Z</time>
      </trkpt>
      <trkpt lat="48.39317" lon="2.63445">
        <ele>115.4</ele>
        <time>2021-09-15T11:34:35Z</time>
      </trkpt>
      <trkpt lat="48.39317" lon="2.63444">
        <ele>115.42</ele>
        <time>2021-09-15T11:34:36Z</time>
      </trkpt>
      <trkpt lat="48.39318" lon="2.63442">
        <ele>115.42</ele>
        <time>2021-09-15T11:34:37Z</time>
      </trkpt>
      <trkpt lat="48.39318" lon="2.6344">
        <ele>115.46</ele>
        <time>2021-09-15T11:34:38Z</time>
      </trkpt>
      <trkpt lat="48.39319" lon="2.63434">
        <ele>115.73</ele>
        <time>2021-09-15T11:34:41Z</time>
      </trkpt>
      <trkpt lat="48.39319" lon="2.63433">
        <ele>115.8</ele>
        <time>2021-09-15T11:34:42Z</time>
      </trkpt>
      <trkpt lat="48.39323" lon="2.63412">
        <ele>116.43</ele>
        <time>2021-09-15T11:34:54Z</time>
      </trkpt>
      <trkpt lat="48.39323" lon="2.6341">
        <ele>116.49</ele>
        <time>2021-09-15T11:34:55Z</time>
      </trkpt>
      <trkpt lat="48.39323" lon="2.63408">
        <ele>116.56</ele>
        <time>2021-09-15T11:34:56Z</time>
      </trkpt>
      <trkpt lat="48.39323" lon="2.63406">
        <ele>116.68</ele>
        <time>2021-09-15T11:34:57Z</time>
      </trkpt>
      <trkpt lat="48.39327" lon="2.63373">
        <ele>118.36</ele>
        <time>2021-09-15T11:35:18Z</time>
      </trkpt>
      <trkpt lat="48.39327" lon="2.63322">
        <ele>119.81</ele>
        <time>2021-09-15T11:35:46Z</time>
      </trkpt>
      <trkpt lat="48.3933" lon="2.63295">
        <ele>122.1</ele>
        <time>2021-09-15T11:36:03Z</time>
      </trkpt>
      <trkpt lat="48.39331" lon="2.6327">
        <ele>123.44</ele>
        <time>2021-09-15T11:36:19Z</time>
      </trkpt>
      <trkpt lat="48.39334" lon="2.63242">
        <ele>124.92</ele>
        <time>2021-09-15T11:36:37Z</time>
      </trkpt>
      <trkpt lat="48.39333" lon="2.63235">
        <ele>125.25</ele>
        <time>2021-09-15T11:36:40Z</time>
      </trkpt>
      <trkpt lat="48.39334" lon="2.63233">
        <ele>125.46</ele>
        <time>2021-09-15T11:36:41Z</time>
      </trkpt>
      <trkpt lat="48.39334" lon="2.63231">
        <ele>125.54</ele>
        <time>2021-09-15T11:36:42Z</time>
      </trkpt>
      <trkpt lat="48.39339" lon="2.632">
        <ele>127.81</ele>
        <time>2021-09-15T11:37:02Z</time>
      </trkpt>
      <trkpt lat="48.39344" lon="2.63159">
        <ele>129.88</ele>
        <time>2021-09-15T11:37:26Z</time>
      </trkpt>
      <trkpt lat="48.39343" lon="2.63147">
        <ele>130.32</ele>
        <time>2021-09-15T11:37:46Z</time>
      </trkpt>
      <trkpt lat="48.39342" lon="2.63144">
        <ele>129.99</ele>
        <time>2021-09-15T11:38:12Z</time>
      </trkpt>
      <trkpt lat="48.39343" lon="2.63143">
        <ele>131.23</ele>
        <time>2021-09-15T11:38:34Z</time>
      </trkpt>
      <trkpt lat="48.39351" lon="2.63136">
        <ele>129.92</ele>
        <time>2021-09-15T11:38:47Z</time>
      </trkpt>
      <trkpt lat="48.39353" lon="2.63136">
        <ele>129.92</ele>
        <time>2021-09-15T11:38:48Z</time>
      </trkpt>
      <trkpt lat="48.39354" lon="2.63136">
        <ele>129.92</ele>
        <time>2021-09-15T11:38:49Z</time>
      </trkpt>
      <trkpt lat="48.39376" lon="2.63131">
        <ele>131.09</ele>
        <time>2021-09-15T11:39:12Z</time>
      </trkpt>
      <trkpt lat="48.3939" lon="2.63133">
        <ele>132.65</ele>
        <time>2021-09-15T11:39:26Z</time>
      </trkpt>
      <trkpt lat="48.39412" lon="2.63133">
        <ele>132.64</ele>
        <time>2021-09-15T11:39:52Z</time>
      </trkpt>
      <trkpt lat="48.39437" lon="2.63153">
        <ele>132.35</ele>
        <time>2021-09-15T11:40:12Z</time>
      </trkpt>
      <trkpt lat="48.39438" lon="2.63155">
        <ele>132.15</ele>
        <time>2021-09-15T11:40:13Z</time>
      </trkpt>
      <trkpt lat="48.39439" lon="2.63157">
        <ele>132.03</ele>
        <time>2021-09-15T11:40:14Z</time>
      </trkpt>
      <trkpt lat="48.39439" lon="2.63159">
        <ele>131.98</ele>
        <time>2021-09-15T11:40:15Z</time>
      </trkpt>
      <trkpt lat="48.39448" lon="2.6319">
        <ele>133.53</ele>
        <time>2021-09-15T11:40:31Z</time>
      </trkpt>
      <trkpt lat="48.39452" lon="2.63205">
        <ele>133.26</ele>
        <time>2021-09-15T11:40:38Z</time>
      </trkpt>
      <trkpt lat="48.39452" lon="2.63207">
        <ele>133.2</ele>
        <time>2021-09-15T11:40:39Z</time>
      </trkpt>
      <trkpt lat="48.39453" lon="2.63209">
        <ele>133.13</ele>
        <time>2021-09-15T11:40:40Z</time>
      </trkpt>
      <trkpt lat="48.39453" lon="2.63211">
        <ele>133.06</ele>
        <time>2021-09-15T11:40:41Z</time>
      </trkpt>
      <trkpt lat="48.39453" lon="2.63213">
        <ele>133.01</ele>
        <time>2021-09-15T11:40:42Z</time>
      </trkpt>
      <trkpt lat="48.39453" lon="2.63215">
        <ele>132.99</ele>
        <time>2021-09-15T11:40:43Z</time>
      </trkpt>
      <trkpt lat="48.39454" lon="2.63216">
        <ele>132.97</ele>
        <time>2021-09-15T11:40:44Z</time>
      </trkpt>
      <trkpt lat="48.39454" lon="2.63218">
        <ele>132.97</ele>
        <time>2021-09-15T11:40:45Z</time>
      </trkpt>
      <trkpt lat="48.39455" lon="2.6322">
        <ele>132.97</ele>
        <time>2021-09-15T11:40:46Z</time>
      </trkpt>
      <trkpt lat="48.39455" lon="2.63221">
        <ele>132.96</ele>
        <time>2021-09-15T11:40:47Z</time>
      </trkpt>
      <trkpt lat="48.3946" lon="2.63245">
        <ele>133.38</ele>
        <time>2021-09-15T11:41:02Z</time>
      </trkpt>
      <trkpt lat="48.39461" lon="2.63248">
        <ele>133.4</ele>
        <time>2021-09-15T11:41:03Z</time>
      </trkpt>
      <trkpt lat="48.39462" lon="2.6325">
        <ele>133.38</ele>
        <time>2021-09-15T11:41:04Z</time>
      </trkpt>
      <trkpt lat="48.39462" lon="2.63252">
        <ele>133.29</ele>
        <time>2021-09-15T11:41:05Z</time>
      </trkpt>
      <trkpt lat="48.39463" lon="2.63254">
        <ele>133.2</ele>
        <time>2021-09-15T11:41:06Z</time>
      </trkpt>
      <trkpt lat="48.39472" lon="2.63286">
        <ele>132.88</ele>
        <time>2021-09-15T11:41:23Z</time>
      </trkpt>
      <trkpt lat="48.39476" lon="2.63304">
        <ele>132.54</ele>
        <time>2021-09-15T11:41:33Z</time>
      </trkpt>
      <trkpt lat="48.39477" lon="2.63307">
        <ele>132.58</ele>
        <time>2021-09-15T11:41:35Z</time>
      </trkpt>
      <trkpt lat="48.39482" lon="2.63333">
        <ele>132.39</ele>
        <time>2021-09-15T11:41:51Z</time>
      </trkpt>
      <trkpt lat="48.39489" lon="2.6336">
        <ele>132.67</ele>
        <time>2021-09-15T11:42:06Z</time>
      </trkpt>
      <trkpt lat="48.39489" lon="2.63361">
        <ele>132.7</ele>
        <time>2021-09-15T11:42:07Z</time>
      </trkpt>
      <trkpt lat="48.39492" lon="2.63368">
        <ele>132.57</ele>
        <time>2021-09-15T11:42:18Z</time>
      </trkpt>
      <trkpt lat="48.39495" lon="2.63377">
        <ele>132.39</ele>
        <time>2021-09-15T11:42:27Z</time>
      </trkpt>
      <trkpt lat="48.39496" lon="2.6338">
        <ele>132.32</ele>
        <time>2021-09-15T11:42:29Z</time>
      </trkpt>
      <trkpt lat="48.39498" lon="2.63393">
        <ele>132.23</ele>
        <time>2021-09-15T11:42:38Z</time>
      </trkpt>
      <trkpt lat="48.39503" lon="2.63407">
        <ele>132.37</ele>
        <time>2021-09-15T11:42:47Z</time>
      </trkpt>
      <trkpt lat="48.39508" lon="2.63428">
        <ele>131.23</ele>
        <time>2021-09-15T11:43:02Z</time>
      </trkpt>
      <trkpt lat="48.39512" lon="2.63457">
        <ele>131.68</ele>
        <time>2021-09-15T11:43:17Z</time>
      </trkpt>
      <trkpt lat="48.39515" lon="2.63471">
        <ele>131.54</ele>
        <time>2021-09-15T11:43:23Z</time>
      </trkpt>
      <trkpt lat="48.39515" lon="2.63473">
        <ele>131.36</ele>
        <time>2021-09-15T11:43:24Z</time>
      </trkpt>
      <trkpt lat="48.39522" lon="2.63499">
        <ele>130.6</ele>
        <time>2021-09-15T11:43:39Z</time>
      </trkpt>
      <trkpt lat="48.39528" lon="2.63508">
        <ele>129.89</ele>
        <time>2021-09-15T11:43:48Z</time>
      </trkpt>
      <trkpt lat="48.39545" lon="2.63523">
        <ele>129.2</ele>
        <time>2021-09-15T11:44:08Z</time>
      </trkpt>
      <trkpt lat="48.39573" lon="2.63527">
        <ele>129.72</ele>
        <time>2021-09-15T11:44:31Z</time>
      </trkpt>
      <trkpt lat="48.39575" lon="2.63527">
        <ele>129.65</ele>
        <time>2021-09-15T11:44:32Z</time>
      </trkpt>
      <trkpt lat="48.39599" lon="2.63519">
        <ele>129.05</ele>
        <time>2021-09-15T11:44:57Z</time>
      </trkpt>
      <trkpt lat="48.39607" lon="2.63519">
        <ele>128.78</ele>
        <time>2021-09-15T11:45:05Z</time>
      </trkpt>
      <trkpt lat="48.39608" lon="2.63519">
        <ele>128.74</ele>
        <time>2021-09-15T11:45:06Z</time>
      </trkpt>
      <trkpt lat="48.39621" lon="2.63521">
        <ele>128.1</ele>
        <time>2021-09-15T11:45:21Z</time>
      </trkpt>
      <trkpt lat="48.39634" lon="2.63523">
        <ele>127.52</ele>
        <time>2021-09-15T11:45:38Z</time>
      </trkpt>
      <trkpt lat="48.39635" lon="2.63523">
        <ele>127.48</ele>
        <time>2021-09-15T11:45:39Z</time>
      </trkpt>
      <trkpt lat="48.3965" lon="2.63525">
        <ele>126.86</ele>
        <time>2021-09-15T11:45:55Z</time>
      </trkpt>
      <trkpt lat="48.39653" lon="2.63526">
        <ele>126.74</ele>
        <time>2021-09-15T11:45:57Z</time>
      </trkpt>
      <trkpt lat="48.39654" lon="2.63527">
        <ele>126.58</ele>
        <time>2021-09-15T11:45:58Z</time>
      </trkpt>
      <trkpt lat="48.39666" lon="2.63529">
        <ele>124.69</ele>
        <time>2021-09-15T11:46:09Z</time>
      </trkpt>
      <trkpt lat="48.39667" lon="2.63529">
        <ele>124.86</ele>
        <time>2021-09-15T11:46:10Z</time>
      </trkpt>
      <trkpt lat="48.3967" lon="2.6353">
        <ele>125.05</ele>
        <time>2021-09-15T11:46:12Z</time>
      </trkpt>
      <trkpt lat="48.39682" lon="2.63535">
        <ele>123.9</ele>
        <time>2021-09-15T11:46:26Z</time>
      </trkpt>
      <trkpt lat="48.39683" lon="2.63538">
        <ele>123.62</ele>
        <time>2021-09-15T11:46:28Z</time>
      </trkpt>
      <trkpt lat="48.39683" lon="2.6354">
        <ele>123.48</ele>
        <time>2021-09-15T11:46:29Z</time>
      </trkpt>
      <trkpt lat="48.39684" lon="2.63546">
        <ele>122.97</ele>
        <time>2021-09-15T11:46:33Z</time>
      </trkpt>
      <trkpt lat="48.39691" lon="2.63563">
        <ele>120.77</ele>
        <time>2021-09-15T11:46:48Z</time>
      </trkpt>
      <trkpt lat="48.39695" lon="2.63588">
        <ele>118.97</ele>
        <time>2021-09-15T11:47:00Z</time>
      </trkpt>
      <trkpt lat="48.39697" lon="2.63592">
        <ele>118.63</ele>
        <time>2021-09-15T11:47:02Z</time>
      </trkpt>
      <trkpt lat="48.39697" lon="2.63595">
        <ele>118.51</ele>
        <time>2021-09-15T11:47:03Z</time>
      </trkpt>
      <trkpt lat="48.39706" lon="2.6362">
        <ele>116.12</ele>
        <time>2021-09-15T11:47:21Z</time>
      </trkpt>
      <trkpt lat="48.39722" lon="2.63643">
        <ele>113.5</ele>
        <time>2021-09-15T11:47:44Z</time>
      </trkpt>
      <trkpt lat="48.39741" lon="2.63629">
        <ele>111.16</ele>
        <time>2021-09-15T11:48:05Z</time>
      </trkpt>
      <trkpt lat="48.39761" lon="2.63632">
        <ele>109.08</ele>
        <time>2021-09-15T11:48:22Z</time>
      </trkpt>
      <trkpt lat="48.39775" lon="2.63653">
        <ele>105.84</ele>
        <time>2021-09-15T11:48:39Z</time>
      </trkpt>
      <trkpt lat="48.39785" lon="2.63678">
        <ele>105.39</ele>
        <time>2021-09-15T11:48:58Z</time>
      </trkpt>
      <trkpt lat="48.39799" lon="2.63703">
        <ele>102.72</ele>
        <time>2021-09-15T11:49:19Z</time>
      </trkpt>
      <trkpt lat="48.39818" lon="2.63746">
        <ele>100.87</ele>
        <time>2021-09-15T11:49:48Z</time>
      </trkpt>
      <trkpt lat="48.39821" lon="2.63752">
        <ele>100.25</ele>
        <time>2021-09-15T11:49:52Z</time>
      </trkpt>
      <trkpt lat="48.39829" lon="2.63781">
        <ele>99.69</ele>
        <time>2021-09-15T11:50:09Z</time>
      </trkpt>
      <trkpt lat="48.3983" lon="2.63791">
        <ele>99.1</ele>
        <time>2021-09-15T11:50:20Z</time>
      </trkpt>
      <trkpt lat="48.39831" lon="2.6383">
        <ele>98.73</ele>
        <time>2021-09-15T11:50:42Z</time>
      </trkpt>
      <trkpt lat="48.3983" lon="2.63868">
        <ele>97.84</ele>
        <time>2021-09-15T11:51:02Z</time>
      </trkpt>
      <trkpt lat="48.39823" lon="2.6393">
        <ele>97.02</ele>
        <time>2021-09-15T11:51:32Z</time>
      </trkpt>
      <trkpt lat="48.39827" lon="2.63955">
        <ele>96.49</ele>
        <time>2021-09-15T11:51:56Z</time>
      </trkpt>
      <trkpt lat="48.39846" lon="2.63964">
        <ele>97.76</ele>
        <time>2021-09-15T11:52:22Z</time>
      </trkpt>
      <trkpt lat="48.39871" lon="2.63979">
        <ele>100.77</ele>
        <time>2021-09-15T11:52:49Z</time>
      </trkpt>
      <trkpt lat="48.39895" lon="2.63982">
        <ele>103.85</ele>
        <time>2021-09-15T11:53:14Z</time>
      </trkpt>
      <trkpt lat="48.39914" lon="2.63986">
        <ele>106.38</ele>
        <time>2021-09-15T11:53:33Z</time>
      </trkpt>
      <trkpt lat="48.39928" lon="2.63991">
        <ele>109.49</ele>
        <time>2021-09-15T11:53:47Z</time>
      </trkpt>
      <trkpt lat="48.39941" lon="2.63994">
        <ele>112.66</ele>
        <time>2021-09-15T11:54:03Z</time>
      </trkpt>
      <trkpt lat="48.39955" lon="2.63996">
        <ele>115.68</ele>
        <time>2021-09-15T11:54:18Z</time>
      </trkpt>
      <trkpt lat="48.39967" lon="2.63991">
        <ele>119.05</ele>
        <time>2021-09-15T11:54:35Z</time>
      </trkpt>
      <trkpt lat="48.39978" lon="2.63972">
        <ele>122.15</ele>
        <time>2021-09-15T11:54:55Z</time>
      </trkpt>
      <trkpt lat="48.39994" lon="2.63966">
        <ele>125.27</ele>
        <time>2021-09-15T11:55:16Z</time>
      </trkpt>
      <trkpt lat="48.40006" lon="2.63966">
        <ele>125.79</ele>
        <time>2021-09-15T11:55:26Z</time>
      </trkpt>
      <trkpt lat="48.40007" lon="2.63966">
        <ele>125.73</ele>
        <time>2021-09-15T11:55:27Z</time>
      </trkpt>
      <trkpt lat="48.40021" lon="2.63965">
        <ele>128.67</ele>
        <time>2021-09-15T11:55:43Z</time>
      </trkpt>
      <trkpt lat="48.40033" lon="2.63958">
        <ele>130.2</ele>
        <time>2021-09-15T11:56:07Z</time>
      </trkpt>
      <trkpt lat="48.40049" lon="2.63953">
        <ele>131.26</ele>
        <time>2021-09-15T11:56:29Z</time>
      </trkpt>
      <trkpt lat="48.4007" lon="2.63942">
        <ele>131.97</ele>
        <time>2021-09-15T11:56:54Z</time>
      </trkpt>
      <trkpt lat="48.40083" lon="2.63938">
        <ele>132.39</ele>
        <time>2021-09-15T11:57:16Z</time>
      </trkpt>
      <trkpt lat="48.40094" lon="2.63937">
        <ele>132.76</ele>
        <time>2021-09-15T11:57:41Z</time>
      </trkpt>
      <trkpt lat="48.40098" lon="2.63932">
        <ele>132.43</ele>
        <time>2021-09-15T11:58:17Z</time>
      </trkpt>
      <trkpt lat="48.401" lon="2.63931">
        <ele>132.53</ele>
        <time>2021-09-15T11:58:51Z</time>
      </trkpt>
      <trkpt lat="48.40117" lon="2.63925">
        <ele>132.54</ele>
        <time>2021-09-15T11:59:14Z</time>
      </trkpt>
      <trkpt lat="48.40139" lon="2.63918">
        <ele>133.05</ele>
        <time>2021-09-15T11:59:38Z</time>
      </trkpt>
      <trkpt lat="48.40171" lon="2.63912">
        <ele>133.67</ele>
        <time>2021-09-15T12:00:04Z</time>
      </trkpt>
      <trkpt lat="48.40203" lon="2.63902">
        <ele>133.72</ele>
        <time>2021-09-15T12:00:25Z</time>
      </trkpt>
      <trkpt lat="48.4022" lon="2.63896">
        <ele>133.47</ele>
        <time>2021-09-15T12:00:38Z</time>
      </trkpt>
      <trkpt lat="48.40242" lon="2.63886">
        <ele>133.21</ele>
        <time>2021-09-15T12:01:01Z</time>
      </trkpt>
      <trkpt lat="48.40277" lon="2.63877">
        <ele>132.83</ele>
        <time>2021-09-15T12:01:28Z</time>
      </trkpt>
      <trkpt lat="48.40307" lon="2.63866">
        <ele>132.85</ele>
        <time>2021-09-15T12:01:54Z</time>
      </trkpt>
      <trkpt lat="48.4033" lon="2.63859">
        <ele>132.71</ele>
        <time>2021-09-15T12:02:16Z</time>
      </trkpt>
      <trkpt lat="48.40344" lon="2.63851">
        <ele>132.71</ele>
        <time>2021-09-15T12:02:35Z</time>
      </trkpt>
      <trkpt lat="48.40368" lon="2.63846">
        <ele>132.67</ele>
        <time>2021-09-15T12:02:56Z</time>
      </trkpt>
      <trkpt lat="48.40388" lon="2.63851">
        <ele>131.46</ele>
        <time>2021-09-15T12:03:19Z</time>
      </trkpt>
      <trkpt lat="48.40392" lon="2.63852">
        <ele>131.68</ele>
        <time>2021-09-15T12:03:21Z</time>
      </trkpt>
      <trkpt lat="48.40393" lon="2.63852">
        <ele>131.76</ele>
        <time>2021-09-15T12:03:22Z</time>
      </trkpt>
      <trkpt lat="48.40395" lon="2.63851">
        <ele>131.83</ele>
        <time>2021-09-15T12:03:23Z</time>
      </trkpt>
      <trkpt lat="48.40396" lon="2.63851">
        <ele>131.83</ele>
        <time>2021-09-15T12:03:24Z</time>
      </trkpt>
      <trkpt lat="48.40398" lon="2.6385">
        <ele>131.78</ele>
        <time>2021-09-15T12:03:25Z</time>
      </trkpt>
      <trkpt lat="48.40399" lon="2.6385">
        <ele>131.68</ele>
        <time>2021-09-15T12:03:26Z</time>
      </trkpt>
      <trkpt lat="48.40416" lon="2.63832">
        <ele>131.32</ele>
        <time>2021-09-15T12:03:45Z</time>
      </trkpt>
      <trkpt lat="48.40421" lon="2.63816">
        <ele>131.15</ele>
        <time>2021-09-15T12:03:57Z</time>
      </trkpt>
      <trkpt lat="48.40425" lon="2.63789">
        <ele>130.48</ele>
        <time>2021-09-15T12:04:15Z</time>
      </trkpt>
      <trkpt lat="48.40436" lon="2.63782">
        <ele>131.18</ele>
        <time>2021-09-15T12:04:30Z</time>
      </trkpt>
      <trkpt lat="48.40441" lon="2.63779">
        <ele>130.89</ele>
        <time>2021-09-15T12:04:34Z</time>
      </trkpt>
      <trkpt lat="48.40442" lon="2.63778">
        <ele>130.86</ele>
        <time>2021-09-15T12:04:35Z</time>
      </trkpt>
      <trkpt lat="48.4046" lon="2.63762">
        <ele>130.32</ele>
        <time>2021-09-15T12:04:51Z</time>
      </trkpt>
      <trkpt lat="48.40467" lon="2.63757">
        <ele>130.63</ele>
        <time>2021-09-15T12:04:56Z</time>
      </trkpt>
      <trkpt lat="48.40468" lon="2.63757">
        <ele>130.9</ele>
        <time>2021-09-15T12:04:57Z</time>
      </trkpt>
      <trkpt lat="48.40482" lon="2.63754">
        <ele>129.75</ele>
        <time>2021-09-15T12:05:11Z</time>
      </trkpt>
      <trkpt lat="48.40505" lon="2.63741">
        <ele>130.28</ele>
        <time>2021-09-15T12:05:33Z</time>
      </trkpt>
      <trkpt lat="48.40522" lon="2.6372">
        <ele>129.92</ele>
        <time>2021-09-15T12:05:57Z</time>
      </trkpt>
      <trkpt lat="48.4054" lon="2.63696">
        <ele>130.89</ele>
        <time>2021-09-15T12:06:17Z</time>
      </trkpt>
      <trkpt lat="48.40539" lon="2.63682">
        <ele>131.04</ele>
        <time>2021-09-15T12:06:27Z</time>
      </trkpt>
      <trkpt lat="48.40538" lon="2.6368">
        <ele>131.02</ele>
        <time>2021-09-15T12:06:28Z</time>
      </trkpt>
      <trkpt lat="48.40535" lon="2.63663">
        <ele>131.39</ele>
        <time>2021-09-15T12:06:41Z</time>
      </trkpt>
      <trkpt lat="48.40538" lon="2.63641">
        <ele>130.37</ele>
        <time>2021-09-15T12:06:57Z</time>
      </trkpt>
      <trkpt lat="48.40536" lon="2.6362">
        <ele>130.56</ele>
        <time>2021-09-15T12:07:11Z</time>
      </trkpt>
      <trkpt lat="48.4054" lon="2.63602">
        <ele>130.1</ele>
        <time>2021-09-15T12:07:26Z</time>
      </trkpt>
      <trkpt lat="48.40545" lon="2.63589">
        <ele>129.64</ele>
        <time>2021-09-15T12:07:40Z</time>
      </trkpt>
      <trkpt lat="48.40546" lon="2.63588">
        <ele>129.64</ele>
        <time>2021-09-15T12:07:41Z</time>
      </trkpt>
      <trkpt lat="48.40548" lon="2.63587">
        <ele>129.64</ele>
        <time>2021-09-15T12:07:42Z</time>
      </trkpt>
      <trkpt lat="48.40552" lon="2.63569">
        <ele>130.36</ele>
        <time>2021-09-15T12:07:55Z</time>
      </trkpt>
      <trkpt lat="48.40556" lon="2.63555">
        <ele>130.01</ele>
        <time>2021-09-15T12:08:11Z</time>
      </trkpt>
      <trkpt lat="48.40559" lon="2.63559">
        <ele>129.86</ele>
        <time>2021-09-15T12:08:25Z</time>
      </trkpt>
      <trkpt lat="48.40558" lon="2.63551">
        <ele>129.7</ele>
        <time>2021-09-15T12:08:31Z</time>
      </trkpt>
      <trkpt lat="48.40548" lon="2.63537">
        <ele>130.06</ele>
        <time>2021-09-15T12:08:45Z</time>
      </trkpt>
      <trkpt lat="48.40545" lon="2.63528">
        <ele>131.9</ele>
        <time>2021-09-15T12:08:58Z</time>
      </trkpt>
      <trkpt lat="48.40556" lon="2.63509">
        <ele>132.63</ele>
        <time>2021-09-15T12:09:17Z</time>
      </trkpt>
      <trkpt lat="48.40555" lon="2.63486">
        <ele>132.62</ele>
        <time>2021-09-15T12:09:32Z</time>
      </trkpt>
      <trkpt lat="48.40556" lon="2.63484">
        <ele>132.84</ele>
        <time>2021-09-15T12:09:33Z</time>
      </trkpt>
      <trkpt lat="48.40559" lon="2.63479">
        <ele>133.5</ele>
        <time>2021-09-15T12:09:37Z</time>
      </trkpt>
      <trkpt lat="48.40561" lon="2.6346">
        <ele>132.84</ele>
        <time>2021-09-15T12:09:47Z</time>
      </trkpt>
      <trkpt lat="48.40562" lon="2.63458">
        <ele>132.89</ele>
        <time>2021-09-15T12:09:48Z</time>
      </trkpt>
      <trkpt lat="48.40562" lon="2.63448">
        <ele>133.15</ele>
        <time>2021-09-15T12:09:59Z</time>
      </trkpt>
      <trkpt lat="48.40559" lon="2.63436">
        <ele>133.45</ele>
        <time>2021-09-15T12:10:17Z</time>
      </trkpt>
      <trkpt lat="48.4056" lon="2.63432">
        <ele>133.42</ele>
        <time>2021-09-15T12:10:19Z</time>
      </trkpt>
      <trkpt lat="48.4056" lon="2.63421">
        <ele>134.16</ele>
        <time>2021-09-15T12:10:34Z</time>
      </trkpt>
      <trkpt lat="48.40558" lon="2.6342">
        <ele>134.05</ele>
        <time>2021-09-15T12:10:47Z</time>
      </trkpt>
      <trkpt lat="48.40559" lon="2.63412">
        <ele>134.13</ele>
        <time>2021-09-15T12:10:55Z</time>
      </trkpt>
      <trkpt lat="48.40562" lon="2.63406">
        <ele>133.96</ele>
        <time>2021-09-15T12:11:01Z</time>
      </trkpt>
      <trkpt lat="48.40565" lon="2.63391">
        <ele>133.75</ele>
        <time>2021-09-15T12:11:12Z</time>
      </trkpt>
      <trkpt lat="48.40566" lon="2.63386">
        <ele>133.91</ele>
        <time>2021-09-15T12:11:16Z</time>
      </trkpt>
      <trkpt lat="48.40567" lon="2.63384">
        <ele>133.91</ele>
        <time>2021-09-15T12:11:17Z</time>
      </trkpt>
      <trkpt lat="48.40575" lon="2.6337">
        <ele>133.77</ele>
        <time>2021-09-15T12:11:31Z</time>
      </trkpt>
      <trkpt lat="48.40577" lon="2.63371">
        <ele>134.02</ele>
        <time>2021-09-15T12:11:55Z</time>
      </trkpt>
      <trkpt lat="48.40582" lon="2.63362">
        <ele>133.7</ele>
        <time>2021-09-15T12:12:21Z</time>
      </trkpt>
      <trkpt lat="48.40584" lon="2.63359">
        <ele>133.7</ele>
        <time>2021-09-15T12:12:25Z</time>
      </trkpt>
      <trkpt lat="48.40585" lon="2.63358">
        <ele>133.7</ele>
        <time>2021-09-15T12:12:26Z</time>
      </trkpt>
      <trkpt lat="48.40587" lon="2.63355">
        <ele>133.78</ele>
        <time>2021-09-15T12:12:29Z</time>
      </trkpt>
      <trkpt lat="48.40588" lon="2.63354">
        <ele>133.84</ele>
        <time>2021-09-15T12:12:30Z</time>
      </trkpt>
      <trkpt lat="48.40599" lon="2.63333">
        <ele>133.63</ele>
        <time>2021-09-15T12:12:47Z</time>
      </trkpt>
      <trkpt lat="48.40604" lon="2.63317">
        <ele>132.16</ele>
        <time>2021-09-15T12:13:02Z</time>
      </trkpt>
      <trkpt lat="48.40609" lon="2.63285">
        <ele>131.19</ele>
        <time>2021-09-15T12:13:22Z</time>
      </trkpt>
      <trkpt lat="48.40611" lon="2.63254">
        <ele>130.75</ele>
        <time>2021-09-15T12:13:44Z</time>
      </trkpt>
      <trkpt lat="48.40619" lon="2.63224">
        <ele>129.6</ele>
        <time>2021-09-15T12:14:04Z</time>
      </trkpt>
      <trkpt lat="48.40615" lon="2.63192">
        <ele>130.08</ele>
        <time>2021-09-15T12:14:23Z</time>
      </trkpt>
      <trkpt lat="48.40611" lon="2.63188">
        <ele>129.35</ele>
        <time>2021-09-15T12:14:39Z</time>
      </trkpt>
      <trkpt lat="48.40607" lon="2.63174">
        <ele>129.01</ele>
        <time>2021-09-15T12:14:51Z</time>
      </trkpt>
      <trkpt lat="48.40604" lon="2.63149">
        <ele>128.59</ele>
        <time>2021-09-15T12:15:09Z</time>
      </trkpt>
      <trkpt lat="48.40593" lon="2.63135">
        <ele>129.09</ele>
        <time>2021-09-15T12:15:24Z</time>
      </trkpt>
      <trkpt lat="48.40589" lon="2.63135">
        <ele>128.41</ele>
        <time>2021-09-15T12:15:43Z</time>
      </trkpt>
      <trkpt lat="48.40583" lon="2.63135">
        <ele>128.37</ele>
        <time>2021-09-15T12:16:07Z</time>
      </trkpt>
      <trkpt lat="48.40569" lon="2.63142">
        <ele>128.7</ele>
        <time>2021-09-15T12:16:25Z</time>
      </trkpt>
      <trkpt lat="48.40552" lon="2.63153">
        <ele>128.51</ele>
        <time>2021-09-15T12:16:41Z</time>
      </trkpt>
      <trkpt lat="48.40535" lon="2.63165">
        <ele>128.05</ele>
        <time>2021-09-15T12:16:58Z</time>
      </trkpt>
      <trkpt lat="48.40534" lon="2.63166">
        <ele>128.05</ele>
        <time>2021-09-15T12:16:59Z</time>
      </trkpt>
      <trkpt lat="48.40524" lon="2.63171">
        <ele>128.47</ele>
        <time>2021-09-15T12:17:12Z</time>
      </trkpt>
      <trkpt lat="48.40511" lon="2.63185">
        <ele>129.14</ele>
        <time>2021-09-15T12:17:30Z</time>
      </trkpt>
      <trkpt lat="48.40503" lon="2.63218">
        <ele>129.73</ele>
        <time>2021-09-15T12:17:52Z</time>
      </trkpt>
      <trkpt lat="48.40503" lon="2.63222">
        <ele>129.79</ele>
        <time>2021-09-15T12:17:54Z</time>
      </trkpt>
      <trkpt lat="48.40502" lon="2.63224">
        <ele>129.85</ele>
        <time>2021-09-15T12:17:55Z</time>
      </trkpt>
      <trkpt lat="48.40495" lon="2.63254">
        <ele>129.8</ele>
        <time>2021-09-15T12:18:14Z</time>
      </trkpt>
      <trkpt lat="48.40491" lon="2.6329">
        <ele>130.56</ele>
        <time>2021-09-15T12:18:35Z</time>
      </trkpt>
      <trkpt lat="48.40486" lon="2.6333">
        <ele>131.2</ele>
        <time>2021-09-15T12:18:59Z</time>
      </trkpt>
      <trkpt lat="48.40483" lon="2.63362">
        <ele>131.07</ele>
        <time>2021-09-15T12:19:22Z</time>
      </trkpt>
      <trkpt lat="48.40481" lon="2.63404">
        <ele>131.9</ele>
        <time>2021-09-15T12:19:44Z</time>
      </trkpt>
      <trkpt lat="48.40479" lon="2.63419">
        <ele>131.73</ele>
        <time>2021-09-15T12:19:54Z</time>
      </trkpt>
      <trkpt lat="48.40478" lon="2.63447">
        <ele>132.19</ele>
        <time>2021-09-15T12:20:09Z</time>
      </trkpt>
      <trkpt lat="48.40479" lon="2.63448">
        <ele>132.19</ele>
        <time>2021-09-15T12:20:10Z</time>
      </trkpt>
      <trkpt lat="48.40491" lon="2.63475">
        <ele>131.71</ele>
        <time>2021-09-15T12:20:33Z</time>
      </trkpt>
      <trkpt lat="48.40494" lon="2.63484">
        <ele>131.78</ele>
        <time>2021-09-15T12:20:39Z</time>
      </trkpt>
      <trkpt lat="48.40501" lon="2.63496">
        <ele>132.57</ele>
        <time>2021-09-15T12:20:48Z</time>
      </trkpt>
      <trkpt lat="48.40513" lon="2.63518">
        <ele>133.73</ele>
        <time>2021-09-15T12:21:06Z</time>
      </trkpt>
      <trkpt lat="48.40525" lon="2.63524">
        <ele>134</ele>
        <time>2021-09-15T12:21:16Z</time>
      </trkpt>
      <trkpt lat="48.40538" lon="2.63538">
        <ele>134.15</ele>
        <time>2021-09-15T12:21:31Z</time>
      </trkpt>
      <trkpt lat="48.40546" lon="2.63548">
        <ele>132.9</ele>
        <time>2021-09-15T12:21:41Z</time>
      </trkpt>
      <trkpt lat="48.40556" lon="2.63562">
        <ele>131.6</ele>
        <time>2021-09-15T12:21:51Z</time>
      </trkpt>
      <trkpt lat="48.40557" lon="2.63564">
        <ele>131.61</ele>
        <time>2021-09-15T12:21:52Z</time>
      </trkpt>
      <trkpt lat="48.40571" lon="2.6358">
        <ele>131.69</ele>
        <time>2021-09-15T12:22:08Z</time>
      </trkpt>
      <trkpt lat="48.40583" lon="2.63593">
        <ele>131.33</ele>
        <time>2021-09-15T12:22:22Z</time>
      </trkpt>
      <trkpt lat="48.40584" lon="2.63595">
        <ele>131.22</ele>
        <time>2021-09-15T12:22:23Z</time>
      </trkpt>
      <trkpt lat="48.40585" lon="2.63596">
        <ele>131.12</ele>
        <time>2021-09-15T12:22:24Z</time>
      </trkpt>
      <trkpt lat="48.40589" lon="2.63624">
        <ele>130.65</ele>
        <time>2021-09-15T12:22:45Z</time>
      </trkpt>
      <trkpt lat="48.40588" lon="2.63632">
        <ele>129.16</ele>
        <time>2021-09-15T12:22:50Z</time>
      </trkpt>
      <trkpt lat="48.40585" lon="2.6366">
        <ele>131.13</ele>
        <time>2021-09-15T12:23:07Z</time>
      </trkpt>
      <trkpt lat="48.40581" lon="2.63691">
        <ele>131.18</ele>
        <time>2021-09-15T12:23:25Z</time>
      </trkpt>
      <trkpt lat="48.4058" lon="2.63699">
        <ele>131.3</ele>
        <time>2021-09-15T12:23:28Z</time>
      </trkpt>
      <trkpt lat="48.40579" lon="2.63702">
        <ele>131.27</ele>
        <time>2021-09-15T12:23:29Z</time>
      </trkpt>
      <trkpt lat="48.40579" lon="2.63732">
        <ele>132.45</ele>
        <time>2021-09-15T12:23:44Z</time>
      </trkpt>
      <trkpt lat="48.40577" lon="2.63751">
        <ele>133.02</ele>
        <time>2021-09-15T12:23:57Z</time>
      </trkpt>
      <trkpt lat="48.40577" lon="2.63759">
        <ele>133.11</ele>
        <time>2021-09-15T12:24:22Z</time>
      </trkpt>
      <trkpt lat="48.40576" lon="2.63771">
        <ele>132.77</ele>
        <time>2021-09-15T12:24:30Z</time>
      </trkpt>
      <trkpt lat="48.40573" lon="2.638">
        <ele>132.99</ele>
        <time>2021-09-15T12:24:47Z</time>
      </trkpt>
      <trkpt lat="48.40577" lon="2.63821">
        <ele>133.16</ele>
        <time>2021-09-15T12:25:01Z</time>
      </trkpt>
      <trkpt lat="48.40579" lon="2.63852">
        <ele>132.87</ele>
        <time>2021-09-15T12:25:19Z</time>
      </trkpt>
      <trkpt lat="48.4058" lon="2.63855">
        <ele>132.83</ele>
        <time>2021-09-15T12:25:20Z</time>
      </trkpt>
      <trkpt lat="48.40585" lon="2.63875">
        <ele>132.3</ele>
        <time>2021-09-15T12:25:32Z</time>
      </trkpt>
      <trkpt lat="48.40587" lon="2.63878">
        <ele>132.27</ele>
        <time>2021-09-15T12:25:34Z</time>
      </trkpt>
      <trkpt lat="48.4059" lon="2.63891">
        <ele>131.92</ele>
        <time>2021-09-15T12:25:49Z</time>
      </trkpt>
      <trkpt lat="48.40592" lon="2.639">
        <ele>131.72</ele>
        <time>2021-09-15T12:26:05Z</time>
      </trkpt>
      <trkpt lat="48.40593" lon="2.63901">
        <ele>131.53</ele>
        <time>2021-09-15T12:26:06Z</time>
      </trkpt>
      <trkpt lat="48.40595" lon="2.63905">
        <ele>130.96</ele>
        <time>2021-09-15T12:26:09Z</time>
      </trkpt>
      <trkpt lat="48.40595" lon="2.63906">
        <ele>130.71</ele>
        <time>2021-09-15T12:26:10Z</time>
      </trkpt>
      <trkpt lat="48.40599" lon="2.63926">
        <ele>130.12</ele>
        <time>2021-09-15T12:26:25Z</time>
      </trkpt>
      <trkpt lat="48.40602" lon="2.63947">
        <ele>130.53</ele>
        <time>2021-09-15T12:26:36Z</time>
      </trkpt>
      <trkpt lat="48.40604" lon="2.63959">
        <ele>130.73</ele>
        <time>2021-09-15T12:26:42Z</time>
      </trkpt>
      <trkpt lat="48.40605" lon="2.63961">
        <ele>130.67</ele>
        <time>2021-09-15T12:26:43Z</time>
      </trkpt>
      <trkpt lat="48.4061" lon="2.63984">
        <ele>130.61</ele>
        <time>2021-09-15T12:26:59Z</time>
      </trkpt>
      <trkpt lat="48.40614" lon="2.64">
        <ele>132.69</ele>
        <time>2021-09-15T12:27:08Z</time>
      </trkpt>
      <trkpt lat="48.40618" lon="2.64025">
        <ele>131.63</ele>
        <time>2021-09-15T12:27:24Z</time>
      </trkpt>
      <trkpt lat="48.40627" lon="2.64057">
        <ele>130.62</ele>
        <time>2021-09-15T12:27:47Z</time>
      </trkpt>
      <trkpt lat="48.40634" lon="2.64084">
        <ele>130.73</ele>
        <time>2021-09-15T12:28:03Z</time>
      </trkpt>
      <trkpt lat="48.40634" lon="2.64086">
        <ele>130.76</ele>
        <time>2021-09-15T12:28:04Z</time>
      </trkpt>
      <trkpt lat="48.40634" lon="2.64088">
        <ele>130.8</ele>
        <time>2021-09-15T12:28:05Z</time>
      </trkpt>
      <trkpt lat="48.40634" lon="2.64107">
        <ele>131.04</ele>
        <time>2021-09-15T12:28:15Z</time>
      </trkpt>
      <trkpt lat="48.40638" lon="2.64131">
        <ele>131.54</ele>
        <time>2021-09-15T12:28:30Z</time>
      </trkpt>
      <trkpt lat="48.40648" lon="2.64161">
        <ele>132.57</ele>
        <time>2021-09-15T12:28:52Z</time>
      </trkpt>
      <trkpt lat="48.40652" lon="2.64186">
        <ele>133.49</ele>
        <time>2021-09-15T12:29:05Z</time>
      </trkpt>
      <trkpt lat="48.40654" lon="2.6421">
        <ele>133.63</ele>
        <time>2021-09-15T12:29:19Z</time>
      </trkpt>
      <trkpt lat="48.40652" lon="2.64222">
        <ele>133.4</ele>
        <time>2021-09-15T12:29:25Z</time>
      </trkpt>
      <trkpt lat="48.40651" lon="2.64254">
        <ele>133.78</ele>
        <time>2021-09-15T12:29:41Z</time>
      </trkpt>
      <trkpt lat="48.40648" lon="2.64257">
        <ele>133.76</ele>
        <time>2021-09-15T12:29:44Z</time>
      </trkpt>
      <trkpt lat="48.40636" lon="2.64269">
        <ele>132.86</ele>
        <time>2021-09-15T12:29:59Z</time>
      </trkpt>
      <trkpt lat="48.40633" lon="2.64277">
        <ele>133.3</ele>
        <time>2021-09-15T12:30:04Z</time>
      </trkpt>
      <trkpt lat="48.40632" lon="2.64279">
        <ele>133.15</ele>
        <time>2021-09-15T12:30:05Z</time>
      </trkpt>
      <trkpt lat="48.40631" lon="2.64285">
        <ele>132.44</ele>
        <time>2021-09-15T12:30:09Z</time>
      </trkpt>
      <trkpt lat="48.40631" lon="2.64287">
        <ele>132.15</ele>
        <time>2021-09-15T12:30:10Z</time>
      </trkpt>
      <trkpt lat="48.40632" lon="2.64298">
        <ele>130.53</ele>
        <time>2021-09-15T12:30:26Z</time>
      </trkpt>
      <trkpt lat="48.40633" lon="2.64311">
        <ele>129.17</ele>
        <time>2021-09-15T12:30:49Z</time>
      </trkpt>
      <trkpt lat="48.40633" lon="2.64315">
        <ele>128.82</ele>
        <time>2021-09-15T12:31:17Z</time>
      </trkpt>
      <trkpt lat="48.40631" lon="2.6433">
        <ele>127.96</ele>
        <time>2021-09-15T12:31:32Z</time>
      </trkpt>
      <trkpt lat="48.4063" lon="2.64332">
        <ele>127.74</ele>
        <time>2021-09-15T12:31:33Z</time>
      </trkpt>
      <trkpt lat="48.4063" lon="2.64333">
        <ele>127.62</ele>
        <time>2021-09-15T12:31:34Z</time>
      </trkpt>
      <trkpt lat="48.40629" lon="2.64335">
        <ele>127.55</ele>
        <time>2021-09-15T12:31:35Z</time>
      </trkpt>
      <trkpt lat="48.40629" lon="2.64337">
        <ele>127.52</ele>
        <time>2021-09-15T12:31:36Z</time>
      </trkpt>
      <trkpt lat="48.40629" lon="2.64338">
        <ele>127.62</ele>
        <time>2021-09-15T12:31:37Z</time>
      </trkpt>
      <trkpt lat="48.40628" lon="2.6434">
        <ele>127.71</ele>
        <time>2021-09-15T12:31:38Z</time>
      </trkpt>
      <trkpt lat="48.40627" lon="2.64342">
        <ele>127.76</ele>
        <time>2021-09-15T12:31:39Z</time>
      </trkpt>
      <trkpt lat="48.40627" lon="2.64345">
        <ele>127.75</ele>
        <time>2021-09-15T12:31:41Z</time>
      </trkpt>
      <trkpt lat="48.40628" lon="2.64372">
        <ele>125.61</ele>
        <time>2021-09-15T12:31:58Z</time>
      </trkpt>
      <trkpt lat="48.40631" lon="2.64393">
        <ele>122.53</ele>
        <time>2021-09-15T12:32:14Z</time>
      </trkpt>
      <trkpt lat="48.40625" lon="2.64417">
        <ele>120.68</ele>
        <time>2021-09-15T12:32:38Z</time>
      </trkpt>
      <trkpt lat="48.40622" lon="2.64423">
        <ele>120.74</ele>
        <time>2021-09-15T12:32:43Z</time>
      </trkpt>
      <trkpt lat="48.40622" lon="2.64424">
        <ele>120.72</ele>
        <time>2021-09-15T12:32:44Z</time>
      </trkpt>
      <trkpt lat="48.40619" lon="2.64426">
        <ele>120.5</ele>
        <time>2021-09-15T12:32:47Z</time>
      </trkpt>
      <trkpt lat="48.40607" lon="2.64446">
        <ele>119.47</ele>
        <time>2021-09-15T12:33:02Z</time>
      </trkpt>
      <trkpt lat="48.40597" lon="2.64485">
        <ele>117.77</ele>
        <time>2021-09-15T12:33:27Z</time>
      </trkpt>
      <trkpt lat="48.40597" lon="2.64495">
        <ele>117.75</ele>
        <time>2021-09-15T12:33:33Z</time>
      </trkpt>
      <trkpt lat="48.40597" lon="2.64497">
        <ele>117.65</ele>
        <time>2021-09-15T12:33:34Z</time>
      </trkpt>
      <trkpt lat="48.40597" lon="2.64498">
        <ele>117.52</ele>
        <time>2021-09-15T12:33:35Z</time>
      </trkpt>
      <trkpt lat="48.40609" lon="2.6454">
        <ele>115.71</ele>
        <time>2021-09-15T12:33:59Z</time>
      </trkpt>
      <trkpt lat="48.40616" lon="2.6459">
        <ele>114.79</ele>
        <time>2021-09-15T12:34:27Z</time>
      </trkpt>
      <trkpt lat="48.40621" lon="2.64627">
        <ele>113.08</ele>
        <time>2021-09-15T12:34:51Z</time>
      </trkpt>
      <trkpt lat="48.40621" lon="2.64629">
        <ele>113.05</ele>
        <time>2021-09-15T12:34:52Z</time>
      </trkpt>
      <trkpt lat="48.40614" lon="2.6467">
        <ele>112.16</ele>
        <time>2021-09-15T12:35:14Z</time>
      </trkpt>
      <trkpt lat="48.40604" lon="2.647">
        <ele>111.69</ele>
        <time>2021-09-15T12:35:28Z</time>
      </trkpt>
      <trkpt lat="48.40601" lon="2.64724">
        <ele>111.39</ele>
        <time>2021-09-15T12:35:42Z</time>
      </trkpt>
      <trkpt lat="48.40591" lon="2.64754">
        <ele>111.23</ele>
        <time>2021-09-15T12:35:57Z</time>
      </trkpt>
      <trkpt lat="48.40586" lon="2.64777">
        <ele>110.55</ele>
        <time>2021-09-15T12:36:11Z</time>
      </trkpt>
      <trkpt lat="48.40577" lon="2.64788">
        <ele>111.93</ele>
        <time>2021-09-15T12:36:32Z</time>
      </trkpt>
      <trkpt lat="48.40565" lon="2.64784">
        <ele>110.96</ele>
        <time>2021-09-15T12:36:52Z</time>
      </trkpt>
      <trkpt lat="48.40548" lon="2.6478">
        <ele>109.77</ele>
        <time>2021-09-15T12:37:08Z</time>
      </trkpt>
      <trkpt lat="48.40547" lon="2.64779">
        <ele>110.34</ele>
        <time>2021-09-15T12:37:09Z</time>
      </trkpt>
      <trkpt lat="48.40534" lon="2.64776">
        <ele>113.35</ele>
        <time>2021-09-15T12:37:19Z</time>
      </trkpt>
      <trkpt lat="48.40517" lon="2.64775">
        <ele>112.44</ele>
        <time>2021-09-15T12:37:34Z</time>
      </trkpt>
      <trkpt lat="48.40506" lon="2.64768">
        <ele>114.51</ele>
        <time>2021-09-15T12:37:46Z</time>
      </trkpt>
      <trkpt lat="48.40488" lon="2.64752">
        <ele>115.69</ele>
        <time>2021-09-15T12:38:09Z</time>
      </trkpt>
      <trkpt lat="48.40471" lon="2.64745">
        <ele>117.71</ele>
        <time>2021-09-15T12:38:28Z</time>
      </trkpt>
      <trkpt lat="48.40452" lon="2.64728">
        <ele>120.87</ele>
        <time>2021-09-15T12:38:50Z</time>
      </trkpt>
      <trkpt lat="48.40442" lon="2.64724">
        <ele>124</ele>
        <time>2021-09-15T12:39:05Z</time>
      </trkpt>
      <trkpt lat="48.40427" lon="2.64707">
        <ele>126.61</ele>
        <time>2021-09-15T12:39:27Z</time>
      </trkpt>
      <trkpt lat="48.40421" lon="2.64699">
        <ele>129.69</ele>
        <time>2021-09-15T12:39:35Z</time>
      </trkpt>
      <trkpt lat="48.40408" lon="2.64685">
        <ele>130.49</ele>
        <time>2021-09-15T12:39:56Z</time>
      </trkpt>
      <trkpt lat="48.40403" lon="2.64676">
        <ele>128.04</ele>
        <time>2021-09-15T12:40:09Z</time>
      </trkpt>
      <trkpt lat="48.40393" lon="2.6466">
        <ele>128.54</ele>
        <time>2021-09-15T12:40:25Z</time>
      </trkpt>
      <trkpt lat="48.40391" lon="2.64655">
        <ele>126.87</ele>
        <time>2021-09-15T12:40:30Z</time>
      </trkpt>
      <trkpt lat="48.40379" lon="2.64639">
        <ele>125.84</ele>
        <time>2021-09-15T12:40:47Z</time>
      </trkpt>
      <trkpt lat="48.40369" lon="2.64612">
        <ele>123.48</ele>
        <time>2021-09-15T12:41:09Z</time>
      </trkpt>
      <trkpt lat="48.40368" lon="2.64593">
        <ele>122.94</ele>
        <time>2021-09-15T12:41:21Z</time>
      </trkpt>
      <trkpt lat="48.40368" lon="2.64591">
        <ele>122.92</ele>
        <time>2021-09-15T12:41:22Z</time>
      </trkpt>
      <trkpt lat="48.40367" lon="2.64564">
        <ele>123.22</ele>
        <time>2021-09-15T12:41:36Z</time>
      </trkpt>
      <trkpt lat="48.40367" lon="2.64562">
        <ele>123.23</ele>
        <time>2021-09-15T12:41:37Z</time>
      </trkpt>
      <trkpt lat="48.40363" lon="2.64547">
        <ele>123.55</ele>
        <time>2021-09-15T12:41:47Z</time>
      </trkpt>
      <trkpt lat="48.40363" lon="2.64544">
        <ele>123.55</ele>
        <time>2021-09-15T12:41:48Z</time>
      </trkpt>
      <trkpt lat="48.40363" lon="2.64542">
        <ele>123.55</ele>
        <time>2021-09-15T12:41:49Z</time>
      </trkpt>
      <trkpt lat="48.40353" lon="2.64525">
        <ele>121.35</ele>
        <time>2021-09-15T12:42:06Z</time>
      </trkpt>
      <trkpt lat="48.40342" lon="2.64528">
        <ele>118.15</ele>
        <time>2021-09-15T12:42:21Z</time>
      </trkpt>
      <trkpt lat="48.40329" lon="2.64528">
        <ele>115.97</ele>
        <time>2021-09-15T12:42:32Z</time>
      </trkpt>
      <trkpt lat="48.40325" lon="2.64527">
        <ele>115.63</ele>
        <time>2021-09-15T12:42:36Z</time>
      </trkpt>
      <trkpt lat="48.40317" lon="2.64513">
        <ele>113.49</ele>
        <time>2021-09-15T12:42:47Z</time>
      </trkpt>
      <trkpt lat="48.40313" lon="2.64498">
        <ele>112.03</ele>
        <time>2021-09-15T12:42:56Z</time>
      </trkpt>
      <trkpt lat="48.40312" lon="2.64496">
        <ele>112.01</ele>
        <time>2021-09-15T12:42:57Z</time>
      </trkpt>
      <trkpt lat="48.40312" lon="2.64494">
        <ele>111.99</ele>
        <time>2021-09-15T12:42:58Z</time>
      </trkpt>
      <trkpt lat="48.40311" lon="2.64492">
        <ele>111.94</ele>
        <time>2021-09-15T12:42:59Z</time>
      </trkpt>
      <trkpt lat="48.40311" lon="2.6449">
        <ele>111.85</ele>
        <time>2021-09-15T12:43:00Z</time>
      </trkpt>
      <trkpt lat="48.40303" lon="2.64468">
        <ele>111.51</ele>
        <time>2021-09-15T12:43:18Z</time>
      </trkpt>
      <trkpt lat="48.40304" lon="2.64469">
        <ele>112.04</ele>
        <time>2021-09-15T12:43:46Z</time>
      </trkpt>
      <trkpt lat="48.40306" lon="2.64469">
        <ele>112.04</ele>
        <time>2021-09-15T12:44:22Z</time>
      </trkpt>
      <trkpt lat="48.40308" lon="2.64465">
        <ele>112.04</ele>
        <time>2021-09-15T12:44:54Z</time>
      </trkpt>
      <trkpt lat="48.40303" lon="2.64465">
        <ele>107.88</ele>
        <time>2021-09-15T12:45:26Z</time>
      </trkpt>
      <trkpt lat="48.40303" lon="2.64465">
        <ele>107.88</ele>
        <time>2021-09-15T12:45:27Z</time>
      </trkpt>
      <trkpt lat="48.40303" lon="2.64464">
        <ele>106.2</ele>
        <time>2021-09-15T12:45:29Z</time>
      </trkpt>
      <trkpt lat="48.40302" lon="2.64464">
        <ele>110.07</ele>
        <time>2021-09-15T12:45:31Z</time>
      </trkpt>
      <trkpt lat="48.40302" lon="2.64463">
        <ele>107.81</ele>
        <time>2021-09-15T12:45:34Z</time>
      </trkpt>
      <trkpt lat="48.40302" lon="2.64462">
        <ele>110.72</ele>
        <time>2021-09-15T12:45:37Z</time>
      </trkpt>
      <trkpt lat="48.40301" lon="2.64462">
        <ele>113.34</ele>
        <time>2021-09-15T12:45:53Z</time>
      </trkpt>
      <trkpt lat="48.403" lon="2.64462">
        <ele>111.38</ele>
        <time>2021-09-15T12:46:19Z</time>
      </trkpt>
      <trkpt lat="48.40291" lon="2.64453">
        <ele>110.69</ele>
        <time>2021-09-15T12:46:40Z</time>
      </trkpt>
      <trkpt lat="48.40287" lon="2.64446">
        <ele>113.87</ele>
        <time>2021-09-15T12:46:52Z</time>
      </trkpt>
      <trkpt lat="48.40279" lon="2.64441">
        <ele>116.96</ele>
        <time>2021-09-15T12:47:08Z</time>
      </trkpt>
      <trkpt lat="48.40269" lon="2.6444">
        <ele>120.1</ele>
        <time>2021-09-15T12:47:23Z</time>
      </trkpt>
      <trkpt lat="48.40263" lon="2.64444">
        <ele>123.15</ele>
        <time>2021-09-15T12:47:37Z</time>
      </trkpt>
      <trkpt lat="48.40254" lon="2.64447">
        <ele>126.19</ele>
        <time>2021-09-15T12:47:53Z</time>
      </trkpt>
      <trkpt lat="48.40245" lon="2.64455">
        <ele>129.4</ele>
        <time>2021-09-15T12:48:12Z</time>
      </trkpt>
      <trkpt lat="48.40245" lon="2.64455">
        <ele>129.68</ele>
        <time>2021-09-15T12:48:13Z</time>
      </trkpt>
      <trkpt lat="48.40243" lon="2.64457">
        <ele>129.18</ele>
        <time>2021-09-15T12:48:41Z</time>
      </trkpt>
      <trkpt lat="48.40241" lon="2.64478">
        <ele>129.66</ele>
        <time>2021-09-15T12:49:03Z</time>
      </trkpt>
      <trkpt lat="48.40235" lon="2.64504">
        <ele>129.38</ele>
        <time>2021-09-15T12:49:19Z</time>
      </trkpt>
      <trkpt lat="48.40235" lon="2.64506">
        <ele>129.37</ele>
        <time>2021-09-15T12:49:20Z</time>
      </trkpt>
      <trkpt lat="48.40234" lon="2.64508">
        <ele>129.33</ele>
        <time>2021-09-15T12:49:21Z</time>
      </trkpt>
      <trkpt lat="48.40233" lon="2.64509">
        <ele>129.31</ele>
        <time>2021-09-15T12:49:22Z</time>
      </trkpt>
      <trkpt lat="48.40232" lon="2.64524">
        <ele>128.3</ele>
        <time>2021-09-15T12:49:32Z</time>
      </trkpt>
      <trkpt lat="48.40231" lon="2.64526">
        <ele>128.25</ele>
        <time>2021-09-15T12:49:33Z</time>
      </trkpt>
      <trkpt lat="48.40231" lon="2.64533">
        <ele>128.31</ele>
        <time>2021-09-15T12:49:37Z</time>
      </trkpt>
      <trkpt lat="48.40226" lon="2.64555">
        <ele>127.87</ele>
        <time>2021-09-15T12:49:52Z</time>
      </trkpt>
      <trkpt lat="48.4022" lon="2.64582">
        <ele>127.83</ele>
        <time>2021-09-15T12:50:10Z</time>
      </trkpt>
      <trkpt lat="48.4021" lon="2.64605">
        <ele>127.39</ele>
        <time>2021-09-15T12:50:27Z</time>
      </trkpt>
      <trkpt lat="48.40196" lon="2.64636">
        <ele>127.9</ele>
        <time>2021-09-15T12:50:49Z</time>
      </trkpt>
      <trkpt lat="48.4018" lon="2.64669">
        <ele>128.21</ele>
        <time>2021-09-15T12:51:15Z</time>
      </trkpt>
      <trkpt lat="48.4017" lon="2.6469">
        <ele>125.64</ele>
        <time>2021-09-15T12:51:30Z</time>
      </trkpt>
      <trkpt lat="48.40163" lon="2.64701">
        <ele>127.94</ele>
        <time>2021-09-15T12:51:37Z</time>
      </trkpt>
      <trkpt lat="48.40152" lon="2.6472">
        <ele>129.32</ele>
        <time>2021-09-15T12:51:51Z</time>
      </trkpt>
      <trkpt lat="48.40141" lon="2.64748">
        <ele>128.41</ele>
        <time>2021-09-15T12:52:11Z</time>
      </trkpt>
      <trkpt lat="48.40133" lon="2.64775">
        <ele>128.32</ele>
        <time>2021-09-15T12:52:30Z</time>
      </trkpt>
      <trkpt lat="48.40126" lon="2.64799">
        <ele>128.19</ele>
        <time>2021-09-15T12:52:47Z</time>
      </trkpt>
      <trkpt lat="48.40126" lon="2.64801">
        <ele>128.17</ele>
        <time>2021-09-15T12:52:48Z</time>
      </trkpt>
      <trkpt lat="48.40124" lon="2.64803">
        <ele>129.3</ele>
        <time>2021-09-15T12:53:22Z</time>
      </trkpt>
      <trkpt lat="48.40123" lon="2.64805">
        <ele>129.3</ele>
        <time>2021-09-15T12:53:25Z</time>
      </trkpt>
      <trkpt lat="48.40119" lon="2.64811">
        <ele>129.2</ele>
        <time>2021-09-15T12:53:42Z</time>
      </trkpt>
      <trkpt lat="48.40115" lon="2.6483">
        <ele>128.92</ele>
        <time>2021-09-15T12:54:09Z</time>
      </trkpt>
      <trkpt lat="48.40118" lon="2.64867">
        <ele>129.15</ele>
        <time>2021-09-15T12:54:34Z</time>
      </trkpt>
      <trkpt lat="48.40119" lon="2.64869">
        <ele>129.14</ele>
        <time>2021-09-15T12:54:35Z</time>
      </trkpt>
      <trkpt lat="48.40121" lon="2.64904">
        <ele>128.3</ele>
        <time>2021-09-15T12:55:02Z</time>
      </trkpt>
      <trkpt lat="48.40109" lon="2.64941">
        <ele>128.25</ele>
        <time>2021-09-15T12:55:23Z</time>
      </trkpt>
      <trkpt lat="48.40102" lon="2.64973">
        <ele>128.05</ele>
        <time>2021-09-15T12:55:45Z</time>
      </trkpt>
      <trkpt lat="48.40103" lon="2.65013">
        <ele>127.95</ele>
        <time>2021-09-15T12:56:08Z</time>
      </trkpt>
      <trkpt lat="48.401" lon="2.65052">
        <ele>126.85</ele>
        <time>2021-09-15T12:56:33Z</time>
      </trkpt>
      <trkpt lat="48.40092" lon="2.65078">
        <ele>126.36</ele>
        <time>2021-09-15T12:56:49Z</time>
      </trkpt>
      <trkpt lat="48.40087" lon="2.65103">
        <ele>126.03</ele>
        <time>2021-09-15T12:57:08Z</time>
      </trkpt>
      <trkpt lat="48.40076" lon="2.6514">
        <ele>126.69</ele>
        <time>2021-09-15T12:57:32Z</time>
      </trkpt>
      <trkpt lat="48.40066" lon="2.65188">
        <ele>127.1</ele>
        <time>2021-09-15T12:58:00Z</time>
      </trkpt>
      <trkpt lat="48.4006" lon="2.65216">
        <ele>127.17</ele>
        <time>2021-09-15T12:58:22Z</time>
      </trkpt>
      <trkpt lat="48.40046" lon="2.65254">
        <ele>127.67</ele>
        <time>2021-09-15T12:58:45Z</time>
      </trkpt>
      <trkpt lat="48.40043" lon="2.65283">
        <ele>128.21</ele>
        <time>2021-09-15T12:59:01Z</time>
      </trkpt>
      <trkpt lat="48.40043" lon="2.65286">
        <ele>128.3</ele>
        <time>2021-09-15T12:59:02Z</time>
      </trkpt>
      <trkpt lat="48.40044" lon="2.65287">
        <ele>128.44</ele>
        <time>2021-09-15T12:59:03Z</time>
      </trkpt>
      <trkpt lat="48.40044" lon="2.65311">
        <ele>128.54</ele>
        <time>2021-09-15T12:59:21Z</time>
      </trkpt>
      <trkpt lat="48.40034" lon="2.65345">
        <ele>127.54</ele>
        <time>2021-09-15T12:59:41Z</time>
      </trkpt>
      <trkpt lat="48.40033" lon="2.65382">
        <ele>127.29</ele>
        <time>2021-09-15T13:00:02Z</time>
      </trkpt>
      <trkpt lat="48.40026" lon="2.65411">
        <ele>127.3</ele>
        <time>2021-09-15T13:00:23Z</time>
      </trkpt>
      <trkpt lat="48.40017" lon="2.6542">
        <ele>127.99</ele>
        <time>2021-09-15T13:00:32Z</time>
      </trkpt>
      <trkpt lat="48.40016" lon="2.65421">
        <ele>127.99</ele>
        <time>2021-09-15T13:00:33Z</time>
      </trkpt>
      <trkpt lat="48.40014" lon="2.65422">
        <ele>127.99</ele>
        <time>2021-09-15T13:00:34Z</time>
      </trkpt>
      <trkpt lat="48.4001" lon="2.65423">
        <ele>127.98</ele>
        <time>2021-09-15T13:00:38Z</time>
      </trkpt>
      <trkpt lat="48.39999" lon="2.65438">
        <ele>127.93</ele>
        <time>2021-09-15T13:00:54Z</time>
      </trkpt>
      <trkpt lat="48.39996" lon="2.65443">
        <ele>126.57</ele>
        <time>2021-09-15T13:00:58Z</time>
      </trkpt>
      <trkpt lat="48.3999" lon="2.65462">
        <ele>127</ele>
        <time>2021-09-15T13:01:14Z</time>
      </trkpt>
      <trkpt lat="48.39985" lon="2.65475">
        <ele>125.65</ele>
        <time>2021-09-15T13:01:28Z</time>
      </trkpt>
      <trkpt lat="48.39986" lon="2.65484">
        <ele>124.95</ele>
        <time>2021-09-15T13:01:40Z</time>
      </trkpt>
      <trkpt lat="48.39989" lon="2.65503">
        <ele>124.73</ele>
        <time>2021-09-15T13:01:55Z</time>
      </trkpt>
      <trkpt lat="48.3999" lon="2.65505">
        <ele>124.73</ele>
        <time>2021-09-15T13:01:56Z</time>
      </trkpt>
      <trkpt lat="48.39991" lon="2.65515">
        <ele>126.07</ele>
        <time>2021-09-15T13:02:05Z</time>
      </trkpt>
      <trkpt lat="48.39996" lon="2.6552">
        <ele>127.4</ele>
        <time>2021-09-15T13:02:22Z</time>
      </trkpt>
      <trkpt lat="48.39999" lon="2.65529">
        <ele>126.05</ele>
        <time>2021-09-15T13:02:37Z</time>
      </trkpt>
      <trkpt lat="48.40004" lon="2.65544">
        <ele>125.87</ele>
        <time>2021-09-15T13:02:57Z</time>
      </trkpt>
      <trkpt lat="48.40011" lon="2.65548">
        <ele>122.77</ele>
        <time>2021-09-15T13:03:09Z</time>
      </trkpt>
      <trkpt lat="48.40014" lon="2.65547">
        <ele>121.41</ele>
        <time>2021-09-15T13:03:12Z</time>
      </trkpt>
      <trkpt lat="48.40018" lon="2.65547">
        <ele>120.4</ele>
        <time>2021-09-15T13:03:16Z</time>
      </trkpt>
      <trkpt lat="48.4002" lon="2.65547">
        <ele>120.16</ele>
        <time>2021-09-15T13:03:17Z</time>
      </trkpt>
      <trkpt lat="48.40021" lon="2.65547">
        <ele>119.9</ele>
        <time>2021-09-15T13:03:18Z</time>
      </trkpt>
      <trkpt lat="48.40028" lon="2.65546">
        <ele>116.82</ele>
        <time>2021-09-15T13:03:27Z</time>
      </trkpt>
      <trkpt lat="48.40027" lon="2.65543">
        <ele>115.95</ele>
        <time>2021-09-15T13:03:47Z</time>
      </trkpt>
      <trkpt lat="48.40036" lon="2.65548">
        <ele>114.91</ele>
        <time>2021-09-15T13:04:04Z</time>
      </trkpt>
      <trkpt lat="48.4004" lon="2.65545">
        <ele>114.04</ele>
        <time>2021-09-15T13:04:10Z</time>
      </trkpt>
      <trkpt lat="48.40045" lon="2.65546">
        <ele>112.79</ele>
        <time>2021-09-15T13:04:22Z</time>
      </trkpt>
      <trkpt lat="48.40044" lon="2.65552">
        <ele>111.31</ele>
        <time>2021-09-15T13:04:36Z</time>
      </trkpt>
      <trkpt lat="48.40046" lon="2.65562">
        <ele>111.52</ele>
        <time>2021-09-15T13:04:47Z</time>
      </trkpt>
      <trkpt lat="48.40055" lon="2.65571">
        <ele>108.98</ele>
        <time>2021-09-15T13:05:02Z</time>
      </trkpt>
      <trkpt lat="48.4006" lon="2.6556">
        <ele>108.79</ele>
        <time>2021-09-15T13:05:17Z</time>
      </trkpt>
      <trkpt lat="48.40067" lon="2.65538">
        <ele>105.77</ele>
        <time>2021-09-15T13:05:37Z</time>
      </trkpt>
      <trkpt lat="48.40079" lon="2.65529">
        <ele>104.17</ele>
        <time>2021-09-15T13:05:57Z</time>
      </trkpt>
      <trkpt lat="48.40081" lon="2.65529">
        <ele>103.92</ele>
        <time>2021-09-15T13:05:59Z</time>
      </trkpt>
      <trkpt lat="48.40083" lon="2.65528">
        <ele>103.68</ele>
        <time>2021-09-15T13:06:00Z</time>
      </trkpt>
      <trkpt lat="48.40085" lon="2.65527">
        <ele>103.4</ele>
        <time>2021-09-15T13:06:01Z</time>
      </trkpt>
      <trkpt lat="48.40086" lon="2.65527">
        <ele>103.12</ele>
        <time>2021-09-15T13:06:02Z</time>
      </trkpt>
      <trkpt lat="48.40088" lon="2.65527">
        <ele>102.83</ele>
        <time>2021-09-15T13:06:03Z</time>
      </trkpt>
      <trkpt lat="48.40089" lon="2.65528">
        <ele>102.18</ele>
        <time>2021-09-15T13:06:04Z</time>
      </trkpt>
      <trkpt lat="48.40091" lon="2.65528">
        <ele>101.77</ele>
        <time>2021-09-15T13:06:05Z</time>
      </trkpt>
      <trkpt lat="48.40093" lon="2.65528">
        <ele>101.36</ele>
        <time>2021-09-15T13:06:06Z</time>
      </trkpt>
      <trkpt lat="48.40095" lon="2.65527">
        <ele>100.93</ele>
        <time>2021-09-15T13:06:07Z</time>
      </trkpt>
      <trkpt lat="48.40107" lon="2.65518">
        <ele>97.78</ele>
        <time>2021-09-15T13:06:15Z</time>
      </trkpt>
      <trkpt lat="48.40114" lon="2.65501">
        <ele>95.38</ele>
        <time>2021-09-15T13:06:29Z</time>
      </trkpt>
      <trkpt lat="48.40115" lon="2.65506">
        <ele>94.76</ele>
        <time>2021-09-15T13:06:48Z</time>
      </trkpt>
      <trkpt lat="48.40114" lon="2.65508">
        <ele>94.96</ele>
        <time>2021-09-15T13:07:12Z</time>
      </trkpt>
      <trkpt lat="48.40123" lon="2.65484">
        <ele>93.68</ele>
        <time>2021-09-15T13:07:32Z</time>
      </trkpt>
      <trkpt lat="48.40126" lon="2.65478">
        <ele>94.06</ele>
        <time>2021-09-15T13:07:37Z</time>
      </trkpt>
      <trkpt lat="48.40136" lon="2.65452">
        <ele>93.05</ele>
        <time>2021-09-15T13:07:52Z</time>
      </trkpt>
      <trkpt lat="48.40149" lon="2.65436">
        <ele>91.48</ele>
        <time>2021-09-15T13:08:05Z</time>
      </trkpt>
      <trkpt lat="48.40159" lon="2.65426">
        <ele>93.29</ele>
        <time>2021-09-15T13:08:17Z</time>
      </trkpt>
      <trkpt lat="48.40162" lon="2.65417">
        <ele>93.21</ele>
        <time>2021-09-15T13:08:35Z</time>
      </trkpt>
      <trkpt lat="48.40164" lon="2.65412">
        <ele>93.33</ele>
        <time>2021-09-15T13:09:01Z</time>
      </trkpt>
      <trkpt lat="48.40163" lon="2.65411">
        <ele>93.22</ele>
        <time>2021-09-15T13:09:29Z</time>
      </trkpt>
      <trkpt lat="48.40163" lon="2.65411">
        <ele>93.35</ele>
        <time>2021-09-15T13:10:10Z</time>
      </trkpt>
      <trkpt lat="48.40162" lon="2.6541">
        <ele>93.35</ele>
        <time>2021-09-15T13:10:48Z</time>
      </trkpt>
      <trkpt lat="48.40162" lon="2.65412">
        <ele>93.35</ele>
        <time>2021-09-15T13:11:12Z</time>
      </trkpt>
      <trkpt lat="48.40162" lon="2.65412">
        <ele>93.35</ele>
        <time>2021-09-15T13:11:46Z</time>
      </trkpt>
      <trkpt lat="48.40162" lon="2.65412">
        <ele>93.35</ele>
        <time>2021-09-15T13:12:20Z</time>
      </trkpt>
      <trkpt lat="48.40162" lon="2.65414">
        <ele>93.35</ele>
        <time>2021-09-15T13:12:57Z</time>
      </trkpt>
      <trkpt lat="48.40162" lon="2.65416">
        <ele>93.35</ele>
        <time>2021-09-15T13:13:25Z</time>
      </trkpt>
      <trkpt lat="48.4016" lon="2.65421">
        <ele>93.35</ele>
        <time>2021-09-15T13:13:53Z</time>
      </trkpt>
      <trkpt lat="48.40161" lon="2.65415">
        <ele>93.35</ele>
        <time>2021-09-15T13:14:26Z</time>
      </trkpt>
      <trkpt lat="48.4016" lon="2.65414">
        <ele>93.35</ele>
        <time>2021-09-15T13:14:57Z</time>
      </trkpt>
      <trkpt lat="48.40161" lon="2.65416">
        <ele>93.35</ele>
        <time>2021-09-15T13:15:15Z</time>
      </trkpt>
      <trkpt lat="48.40161" lon="2.65418">
        <ele>93.35</ele>
        <time>2021-09-15T13:15:46Z</time>
      </trkpt>
      <trkpt lat="48.4016" lon="2.65421">
        <ele>93.35</ele>
        <time>2021-09-15T13:16:20Z</time>
      </trkpt>
      <trkpt lat="48.40162" lon="2.65421">
        <ele>93.35</ele>
        <time>2021-09-15T13:16:56Z</time>
      </trkpt>
      <trkpt lat="48.40161" lon="2.65419">
        <ele>93.35</ele>
        <time>2021-09-15T13:17:19Z</time>
      </trkpt>
      <trkpt lat="48.40162" lon="2.65418">
        <ele>93.35</ele>
        <time>2021-09-15T13:17:39Z</time>
      </trkpt>
      <trkpt lat="48.40161" lon="2.65417">
        <ele>93.35</ele>
        <time>2021-09-15T13:18:03Z</time>
      </trkpt>
      <trkpt lat="48.40161" lon="2.65417">
        <ele>93.35</ele>
        <time>2021-09-15T13:18:29Z</time>
      </trkpt>
      <trkpt lat="48.40162" lon="2.65418">
        <ele>93.35</ele>
        <time>2021-09-15T13:18:59Z</time>
      </trkpt>
      <trkpt lat="48.40166" lon="2.65413">
        <ele>93.35</ele>
        <time>2021-09-15T13:19:23Z</time>
      </trkpt>
      <trkpt lat="48.40178" lon="2.65393">
        <ele>93.42</ele>
        <time>2021-09-15T13:19:41Z</time>
      </trkpt>
      <trkpt lat="48.40179" lon="2.6539">
        <ele>94.25</ele>
        <time>2021-09-15T13:19:43Z</time>
      </trkpt>
      <trkpt lat="48.40189" lon="2.65373">
        <ele>94.2</ele>
        <time>2021-09-15T13:20:01Z</time>
      </trkpt>
      <trkpt lat="48.40198" lon="2.65358">
        <ele>97.09</ele>
        <time>2021-09-15T13:20:20Z</time>
      </trkpt>
      <trkpt lat="48.40211" lon="2.65349">
        <ele>100.18</ele>
        <time>2021-09-15T13:20:44Z</time>
      </trkpt>
      <trkpt lat="48.40224" lon="2.65354">
        <ele>102.55</ele>
        <time>2021-09-15T13:21:02Z</time>
      </trkpt>
      <trkpt lat="48.40234" lon="2.65352">
        <ele>103.54</ele>
        <time>2021-09-15T13:21:16Z</time>
      </trkpt>
      <trkpt lat="48.40237" lon="2.65356">
        <ele>104.53</ele>
        <time>2021-09-15T13:21:35Z</time>
      </trkpt>
      <trkpt lat="48.40251" lon="2.65343">
        <ele>105.1</ele>
        <time>2021-09-15T13:21:56Z</time>
      </trkpt>
      <trkpt lat="48.40261" lon="2.65333">
        <ele>105.98</ele>
        <time>2021-09-15T13:22:11Z</time>
      </trkpt>
      <trkpt lat="48.40271" lon="2.65315">
        <ele>107.06</ele>
        <time>2021-09-15T13:22:31Z</time>
      </trkpt>
      <trkpt lat="48.40282" lon="2.65289">
        <ele>106.68</ele>
        <time>2021-09-15T13:22:51Z</time>
      </trkpt>
      <trkpt lat="48.40285" lon="2.65274">
        <ele>105.98</ele>
        <time>2021-09-15T13:23:10Z</time>
      </trkpt>
      <trkpt lat="48.40291" lon="2.65257">
        <ele>104.55</ele>
        <time>2021-09-15T13:23:29Z</time>
      </trkpt>
      <trkpt lat="48.403" lon="2.65247">
        <ele>102.72</ele>
        <time>2021-09-15T13:23:44Z</time>
      </trkpt>
      <trkpt lat="48.40311" lon="2.65235">
        <ele>101.49</ele>
        <time>2021-09-15T13:23:57Z</time>
      </trkpt>
      <trkpt lat="48.40319" lon="2.65215">
        <ele>100.72</ele>
        <time>2021-09-15T13:24:12Z</time>
      </trkpt>
      <trkpt lat="48.40323" lon="2.65198">
        <ele>99.61</ele>
        <time>2021-09-15T13:24:28Z</time>
      </trkpt>
      <trkpt lat="48.40336" lon="2.652">
        <ele>99.13</ele>
        <time>2021-09-15T13:24:47Z</time>
      </trkpt>
      <trkpt lat="48.40344" lon="2.65196">
        <ele>95.82</ele>
        <time>2021-09-15T13:24:56Z</time>
      </trkpt>
      <trkpt lat="48.40358" lon="2.65195">
        <ele>95.4</ele>
        <time>2021-09-15T13:25:15Z</time>
      </trkpt>
      <trkpt lat="48.40371" lon="2.65182">
        <ele>94.98</ele>
        <time>2021-09-15T13:25:35Z</time>
      </trkpt>
      <trkpt lat="48.40372" lon="2.65181">
        <ele>94.96</ele>
        <time>2021-09-15T13:25:36Z</time>
      </trkpt>
      <trkpt lat="48.40374" lon="2.6518">
        <ele>94.93</ele>
        <time>2021-09-15T13:25:37Z</time>
      </trkpt>
      <trkpt lat="48.40375" lon="2.65178">
        <ele>94.86</ele>
        <time>2021-09-15T13:25:38Z</time>
      </trkpt>
      <trkpt lat="48.40379" lon="2.65173">
        <ele>93.22</ele>
        <time>2021-09-15T13:25:42Z</time>
      </trkpt>
      <trkpt lat="48.40385" lon="2.65167">
        <ele>94.19</ele>
        <time>2021-09-15T13:25:48Z</time>
      </trkpt>
      <trkpt lat="48.40395" lon="2.65154">
        <ele>93.83</ele>
        <time>2021-09-15T13:26:00Z</time>
      </trkpt>
      <trkpt lat="48.40413" lon="2.65138">
        <ele>94.29</ele>
        <time>2021-09-15T13:26:20Z</time>
      </trkpt>
      <trkpt lat="48.40433" lon="2.65127">
        <ele>94.31</ele>
        <time>2021-09-15T13:26:40Z</time>
      </trkpt>
      <trkpt lat="48.40451" lon="2.6512">
        <ele>94.64</ele>
        <time>2021-09-15T13:26:58Z</time>
      </trkpt>
      <trkpt lat="48.40467" lon="2.65113">
        <ele>94.78</ele>
        <time>2021-09-15T13:27:17Z</time>
      </trkpt>
      <trkpt lat="48.40471" lon="2.65087">
        <ele>95.54</ele>
        <time>2021-09-15T13:27:36Z</time>
      </trkpt>
      <trkpt lat="48.40481" lon="2.6507">
        <ele>96.36</ele>
        <time>2021-09-15T13:27:51Z</time>
      </trkpt>
      <trkpt lat="48.40491" lon="2.65056">
        <ele>96.96</ele>
        <time>2021-09-15T13:28:08Z</time>
      </trkpt>
      <trkpt lat="48.405" lon="2.65032">
        <ele>97.27</ele>
        <time>2021-09-15T13:28:26Z</time>
      </trkpt>
      <trkpt lat="48.40514" lon="2.65011">
        <ele>98.27</ele>
        <time>2021-09-15T13:28:45Z</time>
      </trkpt>
      <trkpt lat="48.40526" lon="2.6501">
        <ele>99.9</ele>
        <time>2021-09-15T13:29:09Z</time>
      </trkpt>
      <trkpt lat="48.40529" lon="2.65014">
        <ele>101.4</ele>
        <time>2021-09-15T13:29:18Z</time>
      </trkpt>
      <trkpt lat="48.40531" lon="2.65014">
        <ele>101.55</ele>
        <time>2021-09-15T13:29:19Z</time>
      </trkpt>
      <trkpt lat="48.40535" lon="2.65029">
        <ele>104.42</ele>
        <time>2021-09-15T13:29:35Z</time>
      </trkpt>
      <trkpt lat="48.40544" lon="2.65047">
        <ele>107.46</ele>
        <time>2021-09-15T13:29:59Z</time>
      </trkpt>
      <trkpt lat="48.40545" lon="2.65061">
        <ele>108.09</ele>
        <time>2021-09-15T13:30:20Z</time>
      </trkpt>
      <trkpt lat="48.4055" lon="2.65088">
        <ele>109.17</ele>
        <time>2021-09-15T13:30:41Z</time>
      </trkpt>
      <trkpt lat="48.40543" lon="2.65111">
        <ele>108.17</ele>
        <time>2021-09-15T13:31:03Z</time>
      </trkpt>
      <trkpt lat="48.40543" lon="2.65122">
        <ele>107.94</ele>
        <time>2021-09-15T13:31:15Z</time>
      </trkpt>
      <trkpt lat="48.40546" lon="2.65142">
        <ele>108.68</ele>
        <time>2021-09-15T13:31:30Z</time>
      </trkpt>
      <trkpt lat="48.40547" lon="2.65151">
        <ele>108.84</ele>
        <time>2021-09-15T13:31:38Z</time>
      </trkpt>
      <trkpt lat="48.40545" lon="2.6516">
        <ele>110.91</ele>
        <time>2021-09-15T13:31:45Z</time>
      </trkpt>
      <trkpt lat="48.40554" lon="2.65184">
        <ele>113.03</ele>
        <time>2021-09-15T13:32:10Z</time>
      </trkpt>
      <trkpt lat="48.40561" lon="2.65203">
        <ele>115.98</ele>
        <time>2021-09-15T13:32:38Z</time>
      </trkpt>
      <trkpt lat="48.40556" lon="2.65224">
        <ele>118.08</ele>
        <time>2021-09-15T13:32:59Z</time>
      </trkpt>
      <trkpt lat="48.40553" lon="2.65245">
        <ele>121.09</ele>
        <time>2021-09-15T13:33:23Z</time>
      </trkpt>
      <trkpt lat="48.40557" lon="2.65263">
        <ele>122.82</ele>
        <time>2021-09-15T13:33:43Z</time>
      </trkpt>
      <trkpt lat="48.40559" lon="2.65278">
        <ele>121.05</ele>
        <time>2021-09-15T13:34:00Z</time>
      </trkpt>
      <trkpt lat="48.4056" lon="2.65295">
        <ele>118.78</ele>
        <time>2021-09-15T13:34:19Z</time>
      </trkpt>
      <trkpt lat="48.40566" lon="2.65304">
        <ele>116.03</ele>
        <time>2021-09-15T13:34:37Z</time>
      </trkpt>
      <trkpt lat="48.40574" lon="2.65314">
        <ele>113.34</ele>
        <time>2021-09-15T13:34:53Z</time>
      </trkpt>
      <trkpt lat="48.40581" lon="2.65322">
        <ele>110.98</ele>
        <time>2021-09-15T13:35:03Z</time>
      </trkpt>
      <trkpt lat="48.40586" lon="2.65348">
        <ele>107.92</ele>
        <time>2021-09-15T13:35:23Z</time>
      </trkpt>
      <trkpt lat="48.4059" lon="2.65368">
        <ele>106.09</ele>
        <time>2021-09-15T13:35:38Z</time>
      </trkpt>
      <trkpt lat="48.40592" lon="2.65389">
        <ele>105.45</ele>
        <time>2021-09-15T13:35:55Z</time>
      </trkpt>
      <trkpt lat="48.40603" lon="2.65391">
        <ele>105.06</ele>
        <time>2021-09-15T13:36:12Z</time>
      </trkpt>
      <trkpt lat="48.40614" lon="2.65404">
        <ele>107.62</ele>
        <time>2021-09-15T13:36:37Z</time>
      </trkpt>
      <trkpt lat="48.40621" lon="2.65418">
        <ele>110.63</ele>
        <time>2021-09-15T13:36:54Z</time>
      </trkpt>
      <trkpt lat="48.4062" lon="2.65435">
        <ele>113.64</ele>
        <time>2021-09-15T13:37:13Z</time>
      </trkpt>
      <trkpt lat="48.40621" lon="2.65437">
        <ele>113.84</ele>
        <time>2021-09-15T13:37:15Z</time>
      </trkpt>
      <trkpt lat="48.40619" lon="2.65442">
        <ele>113.11</ele>
        <time>2021-09-15T13:37:23Z</time>
      </trkpt>
      <trkpt lat="48.40614" lon="2.6545">
        <ele>114.06</ele>
        <time>2021-09-15T13:37:36Z</time>
      </trkpt>
      <trkpt lat="48.40607" lon="2.65448">
        <ele>114.2</ele>
        <time>2021-09-15T13:37:44Z</time>
      </trkpt>
      <trkpt lat="48.40595" lon="2.65443">
        <ele>111.43</ele>
        <time>2021-09-15T13:38:06Z</time>
      </trkpt>
      <trkpt lat="48.40581" lon="2.65436">
        <ele>108.92</ele>
        <time>2021-09-15T13:38:35Z</time>
      </trkpt>
      <trkpt lat="48.4057" lon="2.65442">
        <ele>108.91</ele>
        <time>2021-09-15T13:38:53Z</time>
      </trkpt>
      <trkpt lat="48.40556" lon="2.65443">
        <ele>109.38</ele>
        <time>2021-09-15T13:39:13Z</time>
      </trkpt>
      <trkpt lat="48.40532" lon="2.65445">
        <ele>108.97</ele>
        <time>2021-09-15T13:39:38Z</time>
      </trkpt>
      <trkpt lat="48.40514" lon="2.6545">
        <ele>108.97</ele>
        <time>2021-09-15T13:40:00Z</time>
      </trkpt>
      <trkpt lat="48.40497" lon="2.65456">
        <ele>105.22</ele>
        <time>2021-09-15T13:40:22Z</time>
      </trkpt>
      <trkpt lat="48.40496" lon="2.65457">
        <ele>105.58</ele>
        <time>2021-09-15T13:40:23Z</time>
      </trkpt>
      <trkpt lat="48.40483" lon="2.65456">
        <ele>105.11</ele>
        <time>2021-09-15T13:40:42Z</time>
      </trkpt>
      <trkpt lat="48.4047" lon="2.65466">
        <ele>101.8</ele>
        <time>2021-09-15T13:41:03Z</time>
      </trkpt>
      <trkpt lat="48.40469" lon="2.65467">
        <ele>101.5</ele>
        <time>2021-09-15T13:41:04Z</time>
      </trkpt>
      <trkpt lat="48.40459" lon="2.65471">
        <ele>102.16</ele>
        <time>2021-09-15T13:41:23Z</time>
      </trkpt>
      <trkpt lat="48.40463" lon="2.6547">
        <ele>101.33</ele>
        <time>2021-09-15T13:41:43Z</time>
      </trkpt>
      <trkpt lat="48.40466" lon="2.65457">
        <ele>101.5</ele>
        <time>2021-09-15T13:42:04Z</time>
      </trkpt>
      <trkpt lat="48.40462" lon="2.65447">
        <ele>99.93</ele>
        <time>2021-09-15T13:42:19Z</time>
      </trkpt>
      <trkpt lat="48.40453" lon="2.65446">
        <ele>96.85</ele>
        <time>2021-09-15T13:42:33Z</time>
      </trkpt>
      <trkpt lat="48.40439" lon="2.65461">
        <ele>97.14</ele>
        <time>2021-09-15T13:42:52Z</time>
      </trkpt>
      <trkpt lat="48.40428" lon="2.65483">
        <ele>95.51</ele>
        <time>2021-09-15T13:43:12Z</time>
      </trkpt>
      <trkpt lat="48.40426" lon="2.65503">
        <ele>96.29</ele>
        <time>2021-09-15T13:43:31Z</time>
      </trkpt>
      <trkpt lat="48.40416" lon="2.65525">
        <ele>95.3</ele>
        <time>2021-09-15T13:43:51Z</time>
      </trkpt>
      <trkpt lat="48.40421" lon="2.65535">
        <ele>96.31</ele>
        <time>2021-09-15T13:44:03Z</time>
      </trkpt>
      <trkpt lat="48.40421" lon="2.65536">
        <ele>96.43</ele>
        <time>2021-09-15T13:44:04Z</time>
      </trkpt>
      <trkpt lat="48.40422" lon="2.65539">
        <ele>96.74</ele>
        <time>2021-09-15T13:44:06Z</time>
      </trkpt>
      <trkpt lat="48.40428" lon="2.65558">
        <ele>96.71</ele>
        <time>2021-09-15T13:44:21Z</time>
      </trkpt>
      <trkpt lat="48.40432" lon="2.65577">
        <ele>96.52</ele>
        <time>2021-09-15T13:44:35Z</time>
      </trkpt>
      <trkpt lat="48.40436" lon="2.65596">
        <ele>96.48</ele>
        <time>2021-09-15T13:44:47Z</time>
      </trkpt>
      <trkpt lat="48.40448" lon="2.65611">
        <ele>96.6</ele>
        <time>2021-09-15T13:45:04Z</time>
      </trkpt>
      <trkpt lat="48.40459" lon="2.65642">
        <ele>96.47</ele>
        <time>2021-09-15T13:45:31Z</time>
      </trkpt>
      <trkpt lat="48.40473" lon="2.65658">
        <ele>96.51</ele>
        <time>2021-09-15T13:45:46Z</time>
      </trkpt>
      <trkpt lat="48.40475" lon="2.65659">
        <ele>96.53</ele>
        <time>2021-09-15T13:45:47Z</time>
      </trkpt>
      <trkpt lat="48.40489" lon="2.65685">
        <ele>96.49</ele>
        <time>2021-09-15T13:46:08Z</time>
      </trkpt>
      <trkpt lat="48.40493" lon="2.65704">
        <ele>98.52</ele>
        <time>2021-09-15T13:46:24Z</time>
      </trkpt>
      <trkpt lat="48.40494" lon="2.65734">
        <ele>97.12</ele>
        <time>2021-09-15T13:46:43Z</time>
      </trkpt>
      <trkpt lat="48.40492" lon="2.65754">
        <ele>96.35</ele>
        <time>2021-09-15T13:46:57Z</time>
      </trkpt>
      <trkpt lat="48.40494" lon="2.65782">
        <ele>95.75</ele>
        <time>2021-09-15T13:47:17Z</time>
      </trkpt>
      <trkpt lat="48.40488" lon="2.65806">
        <ele>97.12</ele>
        <time>2021-09-15T13:47:36Z</time>
      </trkpt>
      <trkpt lat="48.4048" lon="2.65816">
        <ele>97.6</ele>
        <time>2021-09-15T13:47:49Z</time>
      </trkpt>
      <trkpt lat="48.40473" lon="2.65816">
        <ele>96.3</ele>
        <time>2021-09-15T13:48:01Z</time>
      </trkpt>
      <trkpt lat="48.40463" lon="2.65827">
        <ele>98.18</ele>
        <time>2021-09-15T13:48:17Z</time>
      </trkpt>
      <trkpt lat="48.40454" lon="2.65844">
        <ele>98.75</ele>
        <time>2021-09-15T13:48:32Z</time>
      </trkpt>
      <trkpt lat="48.40443" lon="2.65864">
        <ele>98.72</ele>
        <time>2021-09-15T13:48:50Z</time>
      </trkpt>
      <trkpt lat="48.4044" lon="2.65882">
        <ele>98.03</ele>
        <time>2021-09-15T13:49:04Z</time>
      </trkpt>
      <trkpt lat="48.40435" lon="2.65908">
        <ele>98.03</ele>
        <time>2021-09-15T13:49:28Z</time>
      </trkpt>
      <trkpt lat="48.40431" lon="2.6592">
        <ele>98.03</ele>
        <time>2021-09-15T13:49:52Z</time>
      </trkpt>
      <trkpt lat="48.40438" lon="2.65945">
        <ele>98.91</ele>
        <time>2021-09-15T13:50:14Z</time>
      </trkpt>
      <trkpt lat="48.4045" lon="2.65977">
        <ele>100.09</ele>
        <time>2021-09-15T13:50:37Z</time>
      </trkpt>
      <trkpt lat="48.40449" lon="2.66008">
        <ele>98.46</ele>
        <time>2021-09-15T13:51:01Z</time>
      </trkpt>
      <trkpt lat="48.40434" lon="2.66029">
        <ele>97.83</ele>
        <time>2021-09-15T13:51:23Z</time>
      </trkpt>
      <trkpt lat="48.40428" lon="2.66054">
        <ele>98.28</ele>
        <time>2021-09-15T13:51:41Z</time>
      </trkpt>
      <trkpt lat="48.40425" lon="2.66056">
        <ele>95.43</ele>
        <time>2021-09-15T13:51:49Z</time>
      </trkpt>
      <trkpt lat="48.4041" lon="2.66057">
        <ele>91.9</ele>
        <time>2021-09-15T13:52:08Z</time>
      </trkpt>
      <trkpt lat="48.40397" lon="2.66059">
        <ele>91.1</ele>
        <time>2021-09-15T13:52:22Z</time>
      </trkpt>
      <trkpt lat="48.40379" lon="2.66069">
        <ele>88.54</ele>
        <time>2021-09-15T13:52:42Z</time>
      </trkpt>
      <trkpt lat="48.40362" lon="2.66087">
        <ele>88</ele>
        <time>2021-09-15T13:53:01Z</time>
      </trkpt>
      <trkpt lat="48.40359" lon="2.66094">
        <ele>88.1</ele>
        <time>2021-09-15T13:53:06Z</time>
      </trkpt>
      <trkpt lat="48.40352" lon="2.66112">
        <ele>86.73</ele>
        <time>2021-09-15T13:53:22Z</time>
      </trkpt>
      <trkpt lat="48.40341" lon="2.66139">
        <ele>88.56</ele>
        <time>2021-09-15T13:53:41Z</time>
      </trkpt>
      <trkpt lat="48.4033" lon="2.66164">
        <ele>88.21</ele>
        <time>2021-09-15T13:54:01Z</time>
      </trkpt>
      <trkpt lat="48.40316" lon="2.66187">
        <ele>89.58</ele>
        <time>2021-09-15T13:54:23Z</time>
      </trkpt>
      <trkpt lat="48.40305" lon="2.66214">
        <ele>92.2</ele>
        <time>2021-09-15T13:54:48Z</time>
      </trkpt>
      <trkpt lat="48.40282" lon="2.66228">
        <ele>94.02</ele>
        <time>2021-09-15T13:55:12Z</time>
      </trkpt>
      <trkpt lat="48.40265" lon="2.6624">
        <ele>95.77</ele>
        <time>2021-09-15T13:55:34Z</time>
      </trkpt>
      <trkpt lat="48.40246" lon="2.66261">
        <ele>97.35</ele>
        <time>2021-09-15T13:55:58Z</time>
      </trkpt>
      <trkpt lat="48.40223" lon="2.66273">
        <ele>97.58</ele>
        <time>2021-09-15T13:56:21Z</time>
      </trkpt>
      <trkpt lat="48.40208" lon="2.66295">
        <ele>97.77</ele>
        <time>2021-09-15T13:56:43Z</time>
      </trkpt>
      <trkpt lat="48.40196" lon="2.66321">
        <ele>98.38</ele>
        <time>2021-09-15T13:57:05Z</time>
      </trkpt>
      <trkpt lat="48.40184" lon="2.66338">
        <ele>99.73</ele>
        <time>2021-09-15T13:57:27Z</time>
      </trkpt>
      <trkpt lat="48.40175" lon="2.66366">
        <ele>100.17</ele>
        <time>2021-09-15T13:57:50Z</time>
      </trkpt>
      <trkpt lat="48.4017" lon="2.66386">
        <ele>100.26</ele>
        <time>2021-09-15T13:58:08Z</time>
      </trkpt>
      <trkpt lat="48.40173" lon="2.66409">
        <ele>103.31</ele>
        <time>2021-09-15T13:58:30Z</time>
      </trkpt>
      <trkpt lat="48.40173" lon="2.66417">
        <ele>105.13</ele>
        <time>2021-09-15T13:58:55Z</time>
      </trkpt>
      <trkpt lat="48.40179" lon="2.66429">
        <ele>105.48</ele>
        <time>2021-09-15T13:59:19Z</time>
      </trkpt>
      <trkpt lat="48.40185" lon="2.66464">
        <ele>104.2</ele>
        <time>2021-09-15T13:59:43Z</time>
      </trkpt>
      <trkpt lat="48.40191" lon="2.66486">
        <ele>105.11</ele>
        <time>2021-09-15T14:00:02Z</time>
      </trkpt>
      <trkpt lat="48.40197" lon="2.66503">
        <ele>106.78</ele>
        <time>2021-09-15T14:00:23Z</time>
      </trkpt>
      <trkpt lat="48.40201" lon="2.6652">
        <ele>108.21</ele>
        <time>2021-09-15T14:00:44Z</time>
      </trkpt>
      <trkpt lat="48.40202" lon="2.66528">
        <ele>109.59</ele>
        <time>2021-09-15T14:01:06Z</time>
      </trkpt>
      <trkpt lat="48.4021" lon="2.66532">
        <ele>111.09</ele>
        <time>2021-09-15T14:01:22Z</time>
      </trkpt>
      <trkpt lat="48.40214" lon="2.6653">
        <ele>112.47</ele>
        <time>2021-09-15T14:01:37Z</time>
      </trkpt>
      <trkpt lat="48.40213" lon="2.66527">
        <ele>112.54</ele>
        <time>2021-09-15T14:02:09Z</time>
      </trkpt>
      <trkpt lat="48.40209" lon="2.66521">
        <ele>112.31</ele>
        <time>2021-09-15T14:02:31Z</time>
      </trkpt>
      <trkpt lat="48.40212" lon="2.66521">
        <ele>112.79</ele>
        <time>2021-09-15T14:03:09Z</time>
      </trkpt>
      <trkpt lat="48.4021" lon="2.66522">
        <ele>112.83</ele>
        <time>2021-09-15T14:03:36Z</time>
      </trkpt>
      <trkpt lat="48.40209" lon="2.66523">
        <ele>112.83</ele>
        <time>2021-09-15T14:03:58Z</time>
      </trkpt>
      <trkpt lat="48.40206" lon="2.66525">
        <ele>112.83</ele>
        <time>2021-09-15T14:04:31Z</time>
      </trkpt>
      <trkpt lat="48.40206" lon="2.66528">
        <ele>112.83</ele>
        <time>2021-09-15T14:05:08Z</time>
      </trkpt>
      <trkpt lat="48.40207" lon="2.66526">
        <ele>112.83</ele>
        <time>2021-09-15T14:05:40Z</time>
      </trkpt>
      <trkpt lat="48.40209" lon="2.66525">
        <ele>112.83</ele>
        <time>2021-09-15T14:06:02Z</time>
      </trkpt>
      <trkpt lat="48.4021" lon="2.66522">
        <ele>112.83</ele>
        <time>2021-09-15T14:06:19Z</time>
      </trkpt>
      <trkpt lat="48.40211" lon="2.6652">
        <ele>112.83</ele>
        <time>2021-09-15T14:06:47Z</time>
      </trkpt>
      <trkpt lat="48.40205" lon="2.66504">
        <ele>111.99</ele>
        <time>2021-09-15T14:07:08Z</time>
      </trkpt>
      <trkpt lat="48.4021" lon="2.665">
        <ele>111.45</ele>
        <time>2021-09-15T14:07:19Z</time>
      </trkpt>
      <trkpt lat="48.40231" lon="2.66495">
        <ele>113.04</ele>
        <time>2021-09-15T14:07:58Z</time>
      </trkpt>
      <trkpt lat="48.40237" lon="2.66488">
        <ele>115.75</ele>
        <time>2021-09-15T14:08:18Z</time>
      </trkpt>
      <trkpt lat="48.40243" lon="2.66475">
        <ele>116.92</ele>
        <time>2021-09-15T14:08:37Z</time>
      </trkpt>
      <trkpt lat="48.40247" lon="2.66453">
        <ele>116.48</ele>
        <time>2021-09-15T14:08:51Z</time>
      </trkpt>
      <trkpt lat="48.40253" lon="2.66431">
        <ele>115.42</ele>
        <time>2021-09-15T14:09:07Z</time>
      </trkpt>
      <trkpt lat="48.4026" lon="2.66421">
        <ele>114.92</ele>
        <time>2021-09-15T14:09:16Z</time>
      </trkpt>
      <trkpt lat="48.40269" lon="2.66411">
        <ele>114.95</ele>
        <time>2021-09-15T14:09:28Z</time>
      </trkpt>
      <trkpt lat="48.40282" lon="2.66404">
        <ele>113.61</ele>
        <time>2021-09-15T14:09:46Z</time>
      </trkpt>
      <trkpt lat="48.40303" lon="2.66401">
        <ele>111.12</ele>
        <time>2021-09-15T14:10:03Z</time>
      </trkpt>
      <trkpt lat="48.4032" lon="2.66385">
        <ele>108.28</ele>
        <time>2021-09-15T14:10:24Z</time>
      </trkpt>
      <trkpt lat="48.40343" lon="2.66377">
        <ele>107.91</ele>
        <time>2021-09-15T14:10:45Z</time>
      </trkpt>
      <trkpt lat="48.40354" lon="2.66384">
        <ele>108.32</ele>
        <time>2021-09-15T14:11:05Z</time>
      </trkpt>
      <trkpt lat="48.40362" lon="2.66394">
        <ele>107.83</ele>
        <time>2021-09-15T14:11:25Z</time>
      </trkpt>
      <trkpt lat="48.40381" lon="2.66403">
        <ele>107.68</ele>
        <time>2021-09-15T14:11:47Z</time>
      </trkpt>
      <trkpt lat="48.40397" lon="2.66411">
        <ele>109.16</ele>
        <time>2021-09-15T14:12:04Z</time>
      </trkpt>
      <trkpt lat="48.40404" lon="2.66415">
        <ele>112.18</ele>
        <time>2021-09-15T14:12:11Z</time>
      </trkpt>
      <trkpt lat="48.40424" lon="2.6643">
        <ele>113.68</ele>
        <time>2021-09-15T14:12:34Z</time>
      </trkpt>
      <trkpt lat="48.40445" lon="2.66432">
        <ele>115.62</ele>
        <time>2021-09-15T14:12:55Z</time>
      </trkpt>
      <trkpt lat="48.40464" lon="2.66432">
        <ele>117.43</ele>
        <time>2021-09-15T14:13:14Z</time>
      </trkpt>
      <trkpt lat="48.40482" lon="2.6642">
        <ele>118.6</ele>
        <time>2021-09-15T14:13:32Z</time>
      </trkpt>
      <trkpt lat="48.40484" lon="2.66418">
        <ele>118.77</ele>
        <time>2021-09-15T14:13:34Z</time>
      </trkpt>
      <trkpt lat="48.40498" lon="2.66397">
        <ele>121.38</ele>
        <time>2021-09-15T14:13:53Z</time>
      </trkpt>
      <trkpt lat="48.40509" lon="2.6637">
        <ele>123.23</ele>
        <time>2021-09-15T14:14:16Z</time>
      </trkpt>
      <trkpt lat="48.4051" lon="2.6636">
        <ele>123.29</ele>
        <time>2021-09-15T14:14:20Z</time>
      </trkpt>
      <trkpt lat="48.4051" lon="2.66353">
        <ele>123.37</ele>
        <time>2021-09-15T14:14:23Z</time>
      </trkpt>
      <trkpt lat="48.4051" lon="2.66351">
        <ele>123.39</ele>
        <time>2021-09-15T14:14:24Z</time>
      </trkpt>
      <trkpt lat="48.4051" lon="2.66348">
        <ele>123.4</ele>
        <time>2021-09-15T14:14:25Z</time>
      </trkpt>
      <trkpt lat="48.4051" lon="2.66346">
        <ele>123.4</ele>
        <time>2021-09-15T14:14:26Z</time>
      </trkpt>
      <trkpt lat="48.40513" lon="2.66326">
        <ele>123.48</ele>
        <time>2021-09-15T14:14:40Z</time>
      </trkpt>
      <trkpt lat="48.4051" lon="2.66305">
        <ele>124.16</ele>
        <time>2021-09-15T14:14:51Z</time>
      </trkpt>
      <trkpt lat="48.40505" lon="2.6629">
        <ele>125.62</ele>
        <time>2021-09-15T14:15:01Z</time>
      </trkpt>
      <trkpt lat="48.40504" lon="2.66288">
        <ele>125.7</ele>
        <time>2021-09-15T14:15:02Z</time>
      </trkpt>
      <trkpt lat="48.40503" lon="2.66287">
        <ele>125.77</ele>
        <time>2021-09-15T14:15:03Z</time>
      </trkpt>
      <trkpt lat="48.40488" lon="2.66276">
        <ele>128.56</ele>
        <time>2021-09-15T14:15:22Z</time>
      </trkpt>
      <trkpt lat="48.40475" lon="2.6629">
        <ele>131.6</ele>
        <time>2021-09-15T14:15:44Z</time>
      </trkpt>
      <trkpt lat="48.40479" lon="2.66307">
        <ele>132.45</ele>
        <time>2021-09-15T14:16:05Z</time>
      </trkpt>
      <trkpt lat="48.40481" lon="2.66309">
        <ele>130.89</ele>
        <time>2021-09-15T14:16:08Z</time>
      </trkpt>
      <trkpt lat="48.40482" lon="2.66309">
        <ele>133.36</ele>
        <time>2021-09-15T14:16:14Z</time>
      </trkpt>
      <trkpt lat="48.40481" lon="2.66311">
        <ele>132.78</ele>
        <time>2021-09-15T14:16:37Z</time>
      </trkpt>
      <trkpt lat="48.40477" lon="2.6631">
        <ele>132.47</ele>
        <time>2021-09-15T14:17:04Z</time>
      </trkpt>
      <trkpt lat="48.40477" lon="2.66311">
        <ele>131.08</ele>
        <time>2021-09-15T14:17:11Z</time>
      </trkpt>
      <trkpt lat="48.40476" lon="2.66308">
        <ele>131.86</ele>
        <time>2021-09-15T14:17:29Z</time>
      </trkpt>
      <trkpt lat="48.40476" lon="2.66308">
        <ele>132.63</ele>
        <time>2021-09-15T14:17:53Z</time>
      </trkpt>
      <trkpt lat="48.40476" lon="2.66309">
        <ele>133.28</ele>
        <time>2021-09-15T14:17:55Z</time>
      </trkpt>
      <trkpt lat="48.40476" lon="2.66311">
        <ele>131.41</ele>
        <time>2021-09-15T14:18:26Z</time>
      </trkpt>
      <trkpt lat="48.40477" lon="2.66313">
        <ele>131.41</ele>
        <time>2021-09-15T14:18:50Z</time>
      </trkpt>
      <trkpt lat="48.40482" lon="2.66317">
        <ele>131.41</ele>
        <time>2021-09-15T14:19:14Z</time>
      </trkpt>
      <trkpt lat="48.40484" lon="2.66327">
        <ele>131.41</ele>
        <time>2021-09-15T14:19:35Z</time>
      </trkpt>
      <trkpt lat="48.40485" lon="2.66339">
        <ele>131.41</ele>
        <time>2021-09-15T14:19:45Z</time>
      </trkpt>
      <trkpt lat="48.40482" lon="2.66345">
        <ele>132.25</ele>
        <time>2021-09-15T14:19:50Z</time>
      </trkpt>
      <trkpt lat="48.40482" lon="2.66346">
        <ele>132.37</ele>
        <time>2021-09-15T14:19:51Z</time>
      </trkpt>
      <trkpt lat="48.40474" lon="2.6636">
        <ele>132.81</ele>
        <time>2021-09-15T14:20:06Z</time>
      </trkpt>
      <trkpt lat="48.40467" lon="2.66363">
        <ele>133.41</ele>
        <time>2021-09-15T14:20:18Z</time>
      </trkpt>
      <trkpt lat="48.4046" lon="2.66365">
        <ele>133.27</ele>
        <time>2021-09-15T14:20:26Z</time>
      </trkpt>
      <trkpt lat="48.40446" lon="2.66373">
        <ele>132.38</ele>
        <time>2021-09-15T14:20:42Z</time>
      </trkpt>
      <trkpt lat="48.40442" lon="2.66371">
        <ele>132.19</ele>
        <time>2021-09-15T14:20:54Z</time>
      </trkpt>
      <trkpt lat="48.40443" lon="2.66369">
        <ele>132.08</ele>
        <time>2021-09-15T14:20:55Z</time>
      </trkpt>
      <trkpt lat="48.40443" lon="2.66365">
        <ele>131.83</ele>
        <time>2021-09-15T14:20:57Z</time>
      </trkpt>
      <trkpt lat="48.40444" lon="2.66362">
        <ele>131.74</ele>
        <time>2021-09-15T14:20:58Z</time>
      </trkpt>
      <trkpt lat="48.40445" lon="2.6636">
        <ele>131.66</ele>
        <time>2021-09-15T14:20:59Z</time>
      </trkpt>
      <trkpt lat="48.40448" lon="2.66348">
        <ele>130.08</ele>
        <time>2021-09-15T14:21:06Z</time>
      </trkpt>
      <trkpt lat="48.40447" lon="2.66346">
        <ele>129.98</ele>
        <time>2021-09-15T14:21:07Z</time>
      </trkpt>
      <trkpt lat="48.40444" lon="2.66336">
        <ele>129.11</ele>
        <time>2021-09-15T14:21:15Z</time>
      </trkpt>
      <trkpt lat="48.40443" lon="2.66331">
        <ele>128.82</ele>
        <time>2021-09-15T14:21:17Z</time>
      </trkpt>
      <trkpt lat="48.40442" lon="2.66329">
        <ele>128.52</ele>
        <time>2021-09-15T14:21:18Z</time>
      </trkpt>
      <trkpt lat="48.4044" lon="2.66323">
        <ele>127.37</ele>
        <time>2021-09-15T14:21:21Z</time>
      </trkpt>
      <trkpt lat="48.4044" lon="2.66321">
        <ele>127.01</ele>
        <time>2021-09-15T14:21:22Z</time>
      </trkpt>
      <trkpt lat="48.4044" lon="2.66319">
        <ele>126.62</ele>
        <time>2021-09-15T14:21:23Z</time>
      </trkpt>
      <trkpt lat="48.4044" lon="2.66316">
        <ele>126.24</ele>
        <time>2021-09-15T14:21:24Z</time>
      </trkpt>
      <trkpt lat="48.4044" lon="2.66314">
        <ele>125.88</ele>
        <time>2021-09-15T14:21:25Z</time>
      </trkpt>
      <trkpt lat="48.4044" lon="2.66312">
        <ele>125.57</ele>
        <time>2021-09-15T14:21:26Z</time>
      </trkpt>
      <trkpt lat="48.4044" lon="2.6631">
        <ele>125.29</ele>
        <time>2021-09-15T14:21:27Z</time>
      </trkpt>
      <trkpt lat="48.40446" lon="2.66294">
        <ele>122.35</ele>
        <time>2021-09-15T14:21:35Z</time>
      </trkpt>
      <trkpt lat="48.40446" lon="2.6629">
        <ele>121.98</ele>
        <time>2021-09-15T14:21:36Z</time>
      </trkpt>
      <trkpt lat="48.40447" lon="2.66283">
        <ele>120.91</ele>
        <time>2021-09-15T14:21:39Z</time>
      </trkpt>
      <trkpt lat="48.40448" lon="2.66281">
        <ele>120.6</ele>
        <time>2021-09-15T14:21:40Z</time>
      </trkpt>
      <trkpt lat="48.40449" lon="2.66279">
        <ele>120.28</ele>
        <time>2021-09-15T14:21:41Z</time>
      </trkpt>
      <trkpt lat="48.4045" lon="2.66277">
        <ele>119.94</ele>
        <time>2021-09-15T14:21:42Z</time>
      </trkpt>
      <trkpt lat="48.40451" lon="2.66276">
        <ele>119.58</ele>
        <time>2021-09-15T14:21:43Z</time>
      </trkpt>
      <trkpt lat="48.40452" lon="2.66274">
        <ele>119.23</ele>
        <time>2021-09-15T14:21:44Z</time>
      </trkpt>
      <trkpt lat="48.40453" lon="2.66273">
        <ele>118.94</ele>
        <time>2021-09-15T14:21:45Z</time>
      </trkpt>
      <trkpt lat="48.40464" lon="2.66259">
        <ele>117.3</ele>
        <time>2021-09-15T14:22:01Z</time>
      </trkpt>
      <trkpt lat="48.40478" lon="2.6625">
        <ele>116.94</ele>
        <time>2021-09-15T14:22:12Z</time>
      </trkpt>
      <trkpt lat="48.40481" lon="2.66247">
        <ele>116.93</ele>
        <time>2021-09-15T14:22:13Z</time>
      </trkpt>
      <trkpt lat="48.40483" lon="2.66246">
        <ele>116.86</ele>
        <time>2021-09-15T14:22:14Z</time>
      </trkpt>
      <trkpt lat="48.40485" lon="2.66244">
        <ele>116.65</ele>
        <time>2021-09-15T14:22:15Z</time>
      </trkpt>
      <trkpt lat="48.40487" lon="2.66243">
        <ele>116.53</ele>
        <time>2021-09-15T14:22:16Z</time>
      </trkpt>
      <trkpt lat="48.40489" lon="2.66243">
        <ele>116.41</ele>
        <time>2021-09-15T14:22:17Z</time>
      </trkpt>
      <trkpt lat="48.4049" lon="2.66242">
        <ele>116.29</ele>
        <time>2021-09-15T14:22:18Z</time>
      </trkpt>
      <trkpt lat="48.40491" lon="2.66242">
        <ele>116.17</ele>
        <time>2021-09-15T14:22:19Z</time>
      </trkpt>
      <trkpt lat="48.40492" lon="2.66242">
        <ele>116.1</ele>
        <time>2021-09-15T14:22:20Z</time>
      </trkpt>
      <trkpt lat="48.4051" lon="2.66251">
        <ele>114.39</ele>
        <time>2021-09-15T14:22:30Z</time>
      </trkpt>
      <trkpt lat="48.40516" lon="2.6626">
        <ele>112.78</ele>
        <time>2021-09-15T14:22:36Z</time>
      </trkpt>
      <trkpt lat="48.40517" lon="2.66261">
        <ele>112.75</ele>
        <time>2021-09-15T14:22:37Z</time>
      </trkpt>
      <trkpt lat="48.40518" lon="2.66262">
        <ele>112.64</ele>
        <time>2021-09-15T14:22:38Z</time>
      </trkpt>
      <trkpt lat="48.40518" lon="2.66263">
        <ele>112.5</ele>
        <time>2021-09-15T14:22:39Z</time>
      </trkpt>
      <trkpt lat="48.40525" lon="2.66282">
        <ele>111.61</ele>
        <time>2021-09-15T14:22:54Z</time>
      </trkpt>
      <trkpt lat="48.40524" lon="2.66284">
        <ele>111.62</ele>
        <time>2021-09-15T14:22:55Z</time>
      </trkpt>
      <trkpt lat="48.40528" lon="2.66306">
        <ele>111.38</ele>
        <time>2021-09-15T14:23:03Z</time>
      </trkpt>
      <trkpt lat="48.40528" lon="2.66309">
        <ele>111.34</ele>
        <time>2021-09-15T14:23:04Z</time>
      </trkpt>
      <trkpt lat="48.4053" lon="2.66312">
        <ele>111.31</ele>
        <time>2021-09-15T14:23:05Z</time>
      </trkpt>
      <trkpt lat="48.40531" lon="2.66317">
        <ele>111.23</ele>
        <time>2021-09-15T14:23:06Z</time>
      </trkpt>
      <trkpt lat="48.40531" lon="2.66321">
        <ele>111.04</ele>
        <time>2021-09-15T14:23:07Z</time>
      </trkpt>
      <trkpt lat="48.40532" lon="2.66326">
        <ele>110.6</ele>
        <time>2021-09-15T14:23:08Z</time>
      </trkpt>
      <trkpt lat="48.40533" lon="2.6633">
        <ele>110.41</ele>
        <time>2021-09-15T14:23:09Z</time>
      </trkpt>
      <trkpt lat="48.40531" lon="2.6635">
        <ele>109.11</ele>
        <time>2021-09-15T14:23:19Z</time>
      </trkpt>
      <trkpt lat="48.40531" lon="2.66352">
        <ele>109.05</ele>
        <time>2021-09-15T14:23:20Z</time>
      </trkpt>
      <trkpt lat="48.40532" lon="2.6636">
        <ele>108.49</ele>
        <time>2021-09-15T14:23:23Z</time>
      </trkpt>
      <trkpt lat="48.40533" lon="2.66362">
        <ele>108.32</ele>
        <time>2021-09-15T14:23:24Z</time>
      </trkpt>
      <trkpt lat="48.40527" lon="2.66391">
        <ele>108.46</ele>
        <time>2021-09-15T14:23:40Z</time>
      </trkpt>
      <trkpt lat="48.40529" lon="2.66397">
        <ele>107.98</ele>
        <time>2021-09-15T14:23:43Z</time>
      </trkpt>
      <trkpt lat="48.4053" lon="2.66399">
        <ele>107.76</ele>
        <time>2021-09-15T14:23:44Z</time>
      </trkpt>
      <trkpt lat="48.40532" lon="2.66417">
        <ele>104.6</ele>
        <time>2021-09-15T14:23:51Z</time>
      </trkpt>
      <trkpt lat="48.40531" lon="2.6642">
        <ele>104.29</ele>
        <time>2021-09-15T14:23:52Z</time>
      </trkpt>
      <trkpt lat="48.4053" lon="2.66422">
        <ele>103.92</ele>
        <time>2021-09-15T14:23:53Z</time>
      </trkpt>
      <trkpt lat="48.40529" lon="2.66425">
        <ele>103.57</ele>
        <time>2021-09-15T14:23:54Z</time>
      </trkpt>
      <trkpt lat="48.40528" lon="2.66427">
        <ele>103.25</ele>
        <time>2021-09-15T14:23:55Z</time>
      </trkpt>
      <trkpt lat="48.40527" lon="2.66429">
        <ele>102.93</ele>
        <time>2021-09-15T14:23:56Z</time>
      </trkpt>
      <trkpt lat="48.40526" lon="2.66431">
        <ele>102.68</ele>
        <time>2021-09-15T14:23:57Z</time>
      </trkpt>
      <trkpt lat="48.40525" lon="2.66434">
        <ele>102.49</ele>
        <time>2021-09-15T14:23:58Z</time>
      </trkpt>
      <trkpt lat="48.40524" lon="2.66436">
        <ele>102.29</ele>
        <time>2021-09-15T14:23:59Z</time>
      </trkpt>
      <trkpt lat="48.40523" lon="2.66439">
        <ele>101.62</ele>
        <time>2021-09-15T14:24:00Z</time>
      </trkpt>
      <trkpt lat="48.40522" lon="2.66441">
        <ele>101.3</ele>
        <time>2021-09-15T14:24:01Z</time>
      </trkpt>
      <trkpt lat="48.4052" lon="2.66442">
        <ele>101.02</ele>
        <time>2021-09-15T14:24:02Z</time>
      </trkpt>
      <trkpt lat="48.40502" lon="2.66462">
        <ele>98.59</ele>
        <time>2021-09-15T14:24:14Z</time>
      </trkpt>
      <trkpt lat="48.40499" lon="2.66468">
        <ele>98.21</ele>
        <time>2021-09-15T14:24:16Z</time>
      </trkpt>
      <trkpt lat="48.40497" lon="2.66471">
        <ele>98.06</ele>
        <time>2021-09-15T14:24:17Z</time>
      </trkpt>
      <trkpt lat="48.40496" lon="2.66473">
        <ele>97.91</ele>
        <time>2021-09-15T14:24:18Z</time>
      </trkpt>
      <trkpt lat="48.40494" lon="2.66476">
        <ele>97.7</ele>
        <time>2021-09-15T14:24:19Z</time>
      </trkpt>
      <trkpt lat="48.40493" lon="2.66479">
        <ele>97.42</ele>
        <time>2021-09-15T14:24:20Z</time>
      </trkpt>
      <trkpt lat="48.40479" lon="2.66516">
        <ele>94.39</ele>
        <time>2021-09-15T14:24:31Z</time>
      </trkpt>
      <trkpt lat="48.40475" lon="2.66545">
        <ele>92.44</ele>
        <time>2021-09-15T14:24:42Z</time>
      </trkpt>
      <trkpt lat="48.40474" lon="2.66547">
        <ele>92.25</ele>
        <time>2021-09-15T14:24:43Z</time>
      </trkpt>
      <trkpt lat="48.40474" lon="2.66551">
        <ele>92.05</ele>
        <time>2021-09-15T14:24:44Z</time>
      </trkpt>
      <trkpt lat="48.40473" lon="2.66555">
        <ele>91.87</ele>
        <time>2021-09-15T14:24:45Z</time>
      </trkpt>
      <trkpt lat="48.40472" lon="2.66559">
        <ele>91.73</ele>
        <time>2021-09-15T14:24:46Z</time>
      </trkpt>
      <trkpt lat="48.40472" lon="2.66564">
        <ele>91.59</ele>
        <time>2021-09-15T14:24:47Z</time>
      </trkpt>
      <trkpt lat="48.4047" lon="2.6659">
        <ele>91.16</ele>
        <time>2021-09-15T14:24:52Z</time>
      </trkpt>
      <trkpt lat="48.4047" lon="2.66595">
        <ele>91.06</ele>
        <time>2021-09-15T14:24:53Z</time>
      </trkpt>
      <trkpt lat="48.40469" lon="2.66602">
        <ele>90.97</ele>
        <time>2021-09-15T14:24:54Z</time>
      </trkpt>
      <trkpt lat="48.40468" lon="2.66607">
        <ele>90.69</ele>
        <time>2021-09-15T14:24:55Z</time>
      </trkpt>
      <trkpt lat="48.40468" lon="2.66612">
        <ele>90.57</ele>
        <time>2021-09-15T14:24:56Z</time>
      </trkpt>
      <trkpt lat="48.40468" lon="2.66616">
        <ele>90.48</ele>
        <time>2021-09-15T14:24:57Z</time>
      </trkpt>
      <trkpt lat="48.40469" lon="2.66644">
        <ele>90.09</ele>
        <time>2021-09-15T14:25:09Z</time>
      </trkpt>
      <trkpt lat="48.4047" lon="2.66645">
        <ele>90.08</ele>
        <time>2021-09-15T14:25:10Z</time>
      </trkpt>
      <trkpt lat="48.4047" lon="2.6665">
        <ele>90.04</ele>
        <time>2021-09-15T14:25:12Z</time>
      </trkpt>
      <trkpt lat="48.40471" lon="2.66652">
        <ele>90.02</ele>
        <time>2021-09-15T14:25:13Z</time>
      </trkpt>
      <trkpt lat="48.40472" lon="2.66676">
        <ele>90</ele>
        <time>2021-09-15T14:25:24Z</time>
      </trkpt>
      <trkpt lat="48.40474" lon="2.66689">
        <ele>90.1</ele>
        <time>2021-09-15T14:25:30Z</time>
      </trkpt>
      <trkpt lat="48.40474" lon="2.66691">
        <ele>90.1</ele>
        <time>2021-09-15T14:25:31Z</time>
      </trkpt>
      <trkpt lat="48.40473" lon="2.66693">
        <ele>90.11</ele>
        <time>2021-09-15T14:25:32Z</time>
      </trkpt>
      <trkpt lat="48.40473" lon="2.66696">
        <ele>90.11</ele>
        <time>2021-09-15T14:25:33Z</time>
      </trkpt>
      <trkpt lat="48.40474" lon="2.66698">
        <ele>90.11</ele>
        <time>2021-09-15T14:25:34Z</time>
      </trkpt>
      <trkpt lat="48.40474" lon="2.66709">
        <ele>89.91</ele>
        <time>2021-09-15T14:25:40Z</time>
      </trkpt>
      <trkpt lat="48.40474" lon="2.66711">
        <ele>89.91</ele>
        <time>2021-09-15T14:25:41Z</time>
      </trkpt>
      <trkpt lat="48.40474" lon="2.66715">
        <ele>89.81</ele>
        <time>2021-09-15T14:25:43Z</time>
      </trkpt>
      <trkpt lat="48.40476" lon="2.66728">
        <ele>89.32</ele>
        <time>2021-09-15T14:25:51Z</time>
      </trkpt>
      <trkpt lat="48.40477" lon="2.6673">
        <ele>89.3</ele>
        <time>2021-09-15T14:25:52Z</time>
      </trkpt>
      <trkpt lat="48.40478" lon="2.66732">
        <ele>89.29</ele>
        <time>2021-09-15T14:25:53Z</time>
      </trkpt>
      <trkpt lat="48.40479" lon="2.66734">
        <ele>89.26</ele>
        <time>2021-09-15T14:25:54Z</time>
      </trkpt>
      <trkpt lat="48.40479" lon="2.66736">
        <ele>89.22</ele>
        <time>2021-09-15T14:25:55Z</time>
      </trkpt>
      <trkpt lat="48.40479" lon="2.66738">
        <ele>89.2</ele>
        <time>2021-09-15T14:25:56Z</time>
      </trkpt>
      <trkpt lat="48.40481" lon="2.66758">
        <ele>88.72</ele>
        <time>2021-09-15T14:26:09Z</time>
      </trkpt>
      <trkpt lat="48.40482" lon="2.66783">
        <ele>86.99</ele>
        <time>2021-09-15T14:26:24Z</time>
      </trkpt>
      <trkpt lat="48.40484" lon="2.66787">
        <ele>87.13</ele>
        <time>2021-09-15T14:26:27Z</time>
      </trkpt>
      <trkpt lat="48.40494" lon="2.66806">
        <ele>87.85</ele>
        <time>2021-09-15T14:26:43Z</time>
      </trkpt>
      <trkpt lat="48.40493" lon="2.66809">
        <ele>87.31</ele>
        <time>2021-09-15T14:27:07Z</time>
      </trkpt>
      <trkpt lat="48.40486" lon="2.66809">
        <ele>87.46</ele>
        <time>2021-09-15T14:27:48Z</time>
      </trkpt>
      <trkpt lat="48.40487" lon="2.66803">
        <ele>87.47</ele>
        <time>2021-09-15T14:28:25Z</time>
      </trkpt>
      <trkpt lat="48.40485" lon="2.66803">
        <ele>87.67</ele>
        <time>2021-09-15T14:28:57Z</time>
      </trkpt>
      <trkpt lat="48.40483" lon="2.66804">
        <ele>87.52</ele>
        <time>2021-09-15T14:29:47Z</time>
      </trkpt>
      <trkpt lat="48.40477" lon="2.66812">
        <ele>87.55</ele>
        <time>2021-09-15T14:30:03Z</time>
      </trkpt>
      <trkpt lat="48.40476" lon="2.66831">
        <ele>87.65</ele>
        <time>2021-09-15T14:30:19Z</time>
      </trkpt>
      <trkpt lat="48.40478" lon="2.66857">
        <ele>86.97</ele>
        <time>2021-09-15T14:30:35Z</time>
      </trkpt>
      <trkpt lat="48.40485" lon="2.66882">
        <ele>86.98</ele>
        <time>2021-09-15T14:30:52Z</time>
      </trkpt>
      <trkpt lat="48.40487" lon="2.6691">
        <ele>87.06</ele>
        <time>2021-09-15T14:31:08Z</time>
      </trkpt>
      <trkpt lat="48.4049" lon="2.66916">
        <ele>86.99</ele>
        <time>2021-09-15T14:31:13Z</time>
      </trkpt>
      <trkpt lat="48.40491" lon="2.66926">
        <ele>87</ele>
        <time>2021-09-15T14:31:23Z</time>
      </trkpt>
      <trkpt lat="48.40491" lon="2.66928">
        <ele>86.99</ele>
        <time>2021-09-15T14:31:24Z</time>
      </trkpt>
      <trkpt lat="48.40491" lon="2.6693">
        <ele>86.99</ele>
        <time>2021-09-15T14:31:25Z</time>
      </trkpt>
      <trkpt lat="48.40491" lon="2.66931">
        <ele>86.99</ele>
        <time>2021-09-15T14:31:26Z</time>
      </trkpt>
      <trkpt lat="48.40492" lon="2.66933">
        <ele>86.99</ele>
        <time>2021-09-15T14:31:27Z</time>
      </trkpt>
      <trkpt lat="48.40492" lon="2.66935">
        <ele>86.99</ele>
        <time>2021-09-15T14:31:28Z</time>
      </trkpt>
      <trkpt lat="48.40493" lon="2.66937">
        <ele>86.99</ele>
        <time>2021-09-15T14:31:29Z</time>
      </trkpt>
      <trkpt lat="48.40494" lon="2.66946">
        <ele>87.13</ele>
        <time>2021-09-15T14:31:34Z</time>
      </trkpt>
      <trkpt lat="48.40493" lon="2.66947">
        <ele>87.13</ele>
        <time>2021-09-15T14:31:35Z</time>
      </trkpt>
      <trkpt lat="48.40493" lon="2.66949">
        <ele>87.13</ele>
        <time>2021-09-15T14:31:36Z</time>
      </trkpt>
      <trkpt lat="48.40492" lon="2.66951">
        <ele>87.09</ele>
        <time>2021-09-15T14:31:38Z</time>
      </trkpt>
      <trkpt lat="48.40495" lon="2.66973">
        <ele>87.17</ele>
        <time>2021-09-15T14:31:54Z</time>
      </trkpt>
      <trkpt lat="48.40495" lon="2.66991">
        <ele>87.1</ele>
        <time>2021-09-15T14:32:03Z</time>
      </trkpt>
      <trkpt lat="48.40496" lon="2.67018">
        <ele>85.93</ele>
        <time>2021-09-15T14:32:18Z</time>
      </trkpt>
      <trkpt lat="48.40496" lon="2.67023">
        <ele>85.89</ele>
        <time>2021-09-15T14:32:20Z</time>
      </trkpt>
      <trkpt lat="48.40495" lon="2.67025">
        <ele>85.89</ele>
        <time>2021-09-15T14:32:21Z</time>
      </trkpt>
      <trkpt lat="48.40496" lon="2.67028">
        <ele>85.88</ele>
        <time>2021-09-15T14:32:22Z</time>
      </trkpt>
      <trkpt lat="48.40496" lon="2.67032">
        <ele>85.87</ele>
        <time>2021-09-15T14:32:23Z</time>
      </trkpt>
      <trkpt lat="48.40496" lon="2.67035">
        <ele>85.86</ele>
        <time>2021-09-15T14:32:24Z</time>
      </trkpt>
      <trkpt lat="48.40496" lon="2.67038">
        <ele>85.84</ele>
        <time>2021-09-15T14:32:25Z</time>
      </trkpt>
      <trkpt lat="48.40496" lon="2.6704">
        <ele>85.83</ele>
        <time>2021-09-15T14:32:26Z</time>
      </trkpt>
      <trkpt lat="48.40496" lon="2.67043">
        <ele>85.81</ele>
        <time>2021-09-15T14:32:27Z</time>
      </trkpt>
      <trkpt lat="48.40497" lon="2.67046">
        <ele>85.8</ele>
        <time>2021-09-15T14:32:28Z</time>
      </trkpt>
      <trkpt lat="48.40497" lon="2.67048">
        <ele>85.8</ele>
        <time>2021-09-15T14:32:29Z</time>
      </trkpt>
      <trkpt lat="48.40497" lon="2.6705">
        <ele>85.8</ele>
        <time>2021-09-15T14:32:30Z</time>
      </trkpt>
      <trkpt lat="48.40498" lon="2.67052">
        <ele>85.76</ele>
        <time>2021-09-15T14:32:31Z</time>
      </trkpt>
      <trkpt lat="48.40498" lon="2.67055">
        <ele>85.73</ele>
        <time>2021-09-15T14:32:32Z</time>
      </trkpt>
      <trkpt lat="48.40497" lon="2.67057">
        <ele>85.69</ele>
        <time>2021-09-15T14:32:33Z</time>
      </trkpt>
      <trkpt lat="48.40496" lon="2.67082">
        <ele>85.34</ele>
        <time>2021-09-15T14:32:48Z</time>
      </trkpt>
      <trkpt lat="48.40496" lon="2.67114">
        <ele>85.27</ele>
        <time>2021-09-15T14:33:01Z</time>
      </trkpt>
      <trkpt lat="48.40499" lon="2.67138">
        <ele>85.14</ele>
        <time>2021-09-15T14:33:15Z</time>
      </trkpt>
      <trkpt lat="48.405" lon="2.6714">
        <ele>85.12</ele>
        <time>2021-09-15T14:33:16Z</time>
      </trkpt>
      <trkpt lat="48.405" lon="2.67142">
        <ele>85.11</ele>
        <time>2021-09-15T14:33:17Z</time>
      </trkpt>
      <trkpt lat="48.405" lon="2.67169">
        <ele>85.09</ele>
        <time>2021-09-15T14:33:29Z</time>
      </trkpt>
      <trkpt lat="48.40501" lon="2.67178">
        <ele>85.08</ele>
        <time>2021-09-15T14:33:33Z</time>
      </trkpt>
      <trkpt lat="48.40501" lon="2.67181">
        <ele>85.07</ele>
        <time>2021-09-15T14:33:34Z</time>
      </trkpt>
      <trkpt lat="48.40502" lon="2.67184">
        <ele>85.06</ele>
        <time>2021-09-15T14:33:35Z</time>
      </trkpt>
      <trkpt lat="48.40502" lon="2.67187">
        <ele>85.06</ele>
        <time>2021-09-15T14:33:36Z</time>
      </trkpt>
      <trkpt lat="48.40503" lon="2.6719">
        <ele>85.06</ele>
        <time>2021-09-15T14:33:37Z</time>
      </trkpt>
      <trkpt lat="48.40503" lon="2.67192">
        <ele>85.06</ele>
        <time>2021-09-15T14:33:38Z</time>
      </trkpt>
      <trkpt lat="48.40503" lon="2.67194">
        <ele>85.02</ele>
        <time>2021-09-15T14:33:39Z</time>
      </trkpt>
      <trkpt lat="48.40504" lon="2.67215">
        <ele>85.03</ele>
        <time>2021-09-15T14:33:53Z</time>
      </trkpt>
      <trkpt lat="48.40504" lon="2.67217">
        <ele>85.02</ele>
        <time>2021-09-15T14:33:54Z</time>
      </trkpt>
      <trkpt lat="48.40506" lon="2.67244">
        <ele>84.99</ele>
        <time>2021-09-15T14:34:06Z</time>
      </trkpt>
      <trkpt lat="48.4051" lon="2.67281">
        <ele>85.03</ele>
        <time>2021-09-15T14:34:21Z</time>
      </trkpt>
      <trkpt lat="48.40512" lon="2.67314">
        <ele>84.75</ele>
        <time>2021-09-15T14:34:37Z</time>
      </trkpt>
      <trkpt lat="48.40516" lon="2.67347">
        <ele>84.35</ele>
        <time>2021-09-15T14:34:54Z</time>
      </trkpt>
      <trkpt lat="48.40518" lon="2.6738">
        <ele>84.32</ele>
        <time>2021-09-15T14:35:09Z</time>
      </trkpt>
      <trkpt lat="48.4052" lon="2.67407">
        <ele>84.16</ele>
        <time>2021-09-15T14:35:23Z</time>
      </trkpt>
      <trkpt lat="48.40524" lon="2.6744">
        <ele>84.13</ele>
        <time>2021-09-15T14:35:40Z</time>
      </trkpt>
      <trkpt lat="48.40527" lon="2.6747">
        <ele>83.9</ele>
        <time>2021-09-15T14:35:54Z</time>
      </trkpt>
      <trkpt lat="48.40527" lon="2.67477">
        <ele>83.92</ele>
        <time>2021-09-15T14:35:58Z</time>
      </trkpt>
      <trkpt lat="48.40527" lon="2.67479">
        <ele>83.93</ele>
        <time>2021-09-15T14:35:59Z</time>
      </trkpt>
      <trkpt lat="48.40528" lon="2.67482">
        <ele>83.94</ele>
        <time>2021-09-15T14:36:00Z</time>
      </trkpt>
      <trkpt lat="48.40529" lon="2.67504">
        <ele>83.78</ele>
        <time>2021-09-15T14:36:12Z</time>
      </trkpt>
      <trkpt lat="48.40532" lon="2.67535">
        <ele>83.92</ele>
        <time>2021-09-15T14:36:29Z</time>
      </trkpt>
      <trkpt lat="48.40533" lon="2.67541">
        <ele>84.06</ele>
        <time>2021-09-15T14:36:32Z</time>
      </trkpt>
      <trkpt lat="48.40534" lon="2.67543">
        <ele>83.95</ele>
        <time>2021-09-15T14:36:33Z</time>
      </trkpt>
      <trkpt lat="48.40535" lon="2.67568">
        <ele>83.88</ele>
        <time>2021-09-15T14:36:48Z</time>
      </trkpt>
      <trkpt lat="48.40537" lon="2.67596">
        <ele>84.08</ele>
        <time>2021-09-15T14:37:05Z</time>
      </trkpt>
      <trkpt lat="48.40538" lon="2.67607">
        <ele>82.02</ele>
        <time>2021-09-15T14:37:11Z</time>
      </trkpt>
      <trkpt lat="48.40539" lon="2.6762">
        <ele>84.91</ele>
        <time>2021-09-15T14:37:18Z</time>
      </trkpt>
      <trkpt lat="48.40541" lon="2.67649">
        <ele>83.91</ele>
        <time>2021-09-15T14:37:36Z</time>
      </trkpt>
      <trkpt lat="48.40541" lon="2.6767">
        <ele>80.72</ele>
        <time>2021-09-15T14:37:49Z</time>
      </trkpt>
      <trkpt lat="48.40542" lon="2.67679">
        <ele>83.87</ele>
        <time>2021-09-15T14:37:57Z</time>
      </trkpt>
      <trkpt lat="48.40542" lon="2.67693">
        <ele>85.53</ele>
        <time>2021-09-15T14:38:15Z</time>
      </trkpt>
      <trkpt lat="48.40542" lon="2.677">
        <ele>85.66</ele>
        <time>2021-09-15T14:38:25Z</time>
      </trkpt>
      <trkpt lat="48.40539" lon="2.67722">
        <ele>84.6</ele>
        <time>2021-09-15T14:38:39Z</time>
      </trkpt>
      <trkpt lat="48.40527" lon="2.67748">
        <ele>84.05</ele>
        <time>2021-09-15T14:38:57Z</time>
      </trkpt>
      <trkpt lat="48.4051" lon="2.67765">
        <ele>83.92</ele>
        <time>2021-09-15T14:39:16Z</time>
      </trkpt>
      <trkpt lat="48.40506" lon="2.67768">
        <ele>83.77</ele>
        <time>2021-09-15T14:39:20Z</time>
      </trkpt>
      <trkpt lat="48.40504" lon="2.67769">
        <ele>83.94</ele>
        <time>2021-09-15T14:39:21Z</time>
      </trkpt>
      <trkpt lat="48.40496" lon="2.67774">
        <ele>87.03</ele>
        <time>2021-09-15T14:39:26Z</time>
      </trkpt>
      <trkpt lat="48.40481" lon="2.67786">
        <ele>83.98</ele>
        <time>2021-09-15T14:39:38Z</time>
      </trkpt>
      <trkpt lat="48.4046" lon="2.67793">
        <ele>83.33</ele>
        <time>2021-09-15T14:39:56Z</time>
      </trkpt>
      <trkpt lat="48.40456" lon="2.67794">
        <ele>83.19</ele>
        <time>2021-09-15T14:40:09Z</time>
      </trkpt>
      <trkpt lat="48.40455" lon="2.67794">
        <ele>84.16</ele>
        <time>2021-09-15T14:40:20Z</time>
      </trkpt>
      <trkpt lat="48.4045" lon="2.67795">
        <ele>82.1</ele>
        <time>2021-09-15T14:40:30Z</time>
      </trkpt>
      <trkpt lat="48.40448" lon="2.67796">
        <ele>83.63</ele>
        <time>2021-09-15T14:40:34Z</time>
      </trkpt>
    </trkseg>
  </trk>
  <trk>
    <name><![CDATA[2021-09-15 16:40:35]]></name>
    <extensions>
      <line xmlns="http://www.topografix.com/GPX/gpx_style/0/2">
        <color>0000FF</color>
        <width>4</width>
      </line>
    </extensions>
    <trkseg>
      <trkpt lat="48.40214" lon="2.67475">
        <ele>78.36</ele>
        <time>2021-09-15T06:43:17Z</time>
      </trkpt>
      <trkpt lat="48.40213" lon="2.67474">
        <ele>78.65</ele>
        <time>2021-09-15T06:43:18Z</time>
      </trkpt>
      <trkpt lat="48.40209" lon="2.67471">
        <ele>80.29</ele>
        <time>2021-09-15T06:43:21Z</time>
      </trkpt>
      <trkpt lat="48.40196" lon="2.67462">
        <ele>79.7</ele>
        <time>2021-09-15T06:43:36Z</time>
      </trkpt>
      <trkpt lat="48.4018" lon="2.67455">
        <ele>79.26</ele>
        <time>2021-09-15T06:43:58Z</time>
      </trkpt>
      <trkpt lat="48.40179" lon="2.67454">
        <ele>79.32</ele>
        <time>2021-09-15T06:43:59Z</time>
      </trkpt>
      <trkpt lat="48.40178" lon="2.67452">
        <ele>79.34</ele>
        <time>2021-09-15T06:44:00Z</time>
      </trkpt>
      <trkpt lat="48.40177" lon="2.67452">
        <ele>79.35</ele>
        <time>2021-09-15T06:44:01Z</time>
      </trkpt>
      <trkpt lat="48.40163" lon="2.6743">
        <ele>78.98</ele>
        <time>2021-09-15T06:44:21Z</time>
      </trkpt>
      <trkpt lat="48.4015" lon="2.67411">
        <ele>78.9</ele>
        <time>2021-09-15T06:44:42Z</time>
      </trkpt>
      <trkpt lat="48.40146" lon="2.67407">
        <ele>78.75</ele>
        <time>2021-09-15T06:45:03Z</time>
      </trkpt>
      <trkpt lat="48.40143" lon="2.67405">
        <ele>78.75</ele>
        <time>2021-09-15T06:45:06Z</time>
      </trkpt>
      <trkpt lat="48.40128" lon="2.67398">
        <ele>78.75</ele>
        <time>2021-09-15T06:45:29Z</time>
      </trkpt>
      <trkpt lat="48.40115" lon="2.67398">
        <ele>75.72</ele>
        <time>2021-09-15T06:45:48Z</time>
      </trkpt>
      <trkpt lat="48.4011" lon="2.67402">
        <ele>78.43</ele>
        <time>2021-09-15T06:46:13Z</time>
      </trkpt>
      <trkpt lat="48.40109" lon="2.67402">
        <ele>79.68</ele>
        <time>2021-09-15T06:46:16Z</time>
      </trkpt>
      <trkpt lat="48.40089" lon="2.674">
        <ele>79.6</ele>
        <time>2021-09-15T06:46:41Z</time>
      </trkpt>
      <trkpt lat="48.4008" lon="2.67403">
        <ele>79.55</ele>
        <time>2021-09-15T06:46:48Z</time>
      </trkpt>
      <trkpt lat="48.40052" lon="2.67408">
        <ele>79.85</ele>
        <time>2021-09-15T06:47:13Z</time>
      </trkpt>
      <trkpt lat="48.40042" lon="2.67408">
        <ele>77.79</ele>
        <time>2021-09-15T06:47:22Z</time>
      </trkpt>
      <trkpt lat="48.40035" lon="2.67409">
        <ele>79.73</ele>
        <time>2021-09-15T06:47:27Z</time>
      </trkpt>
      <trkpt lat="48.4001" lon="2.67408">
        <ele>78.18</ele>
        <time>2021-09-15T06:47:44Z</time>
      </trkpt>
      <trkpt lat="48.39994" lon="2.674">
        <ele>78.06</ele>
        <time>2021-09-15T06:48:01Z</time>
      </trkpt>
      <trkpt lat="48.39994" lon="2.67392">
        <ele>78.32</ele>
        <time>2021-09-15T06:48:05Z</time>
      </trkpt>
      <trkpt lat="48.39993" lon="2.6739">
        <ele>78.35</ele>
        <time>2021-09-15T06:48:06Z</time>
      </trkpt>
      <trkpt lat="48.39993" lon="2.67389">
        <ele>78.38</ele>
        <time>2021-09-15T06:48:07Z</time>
      </trkpt>
      <trkpt lat="48.39989" lon="2.67364">
        <ele>78.66</ele>
        <time>2021-09-15T06:48:23Z</time>
      </trkpt>
      <trkpt lat="48.39993" lon="2.67346">
        <ele>78.53</ele>
        <time>2021-09-15T06:48:33Z</time>
      </trkpt>
      <trkpt lat="48.40006" lon="2.67326">
        <ele>78.61</ele>
        <time>2021-09-15T06:48:53Z</time>
      </trkpt>
      <trkpt lat="48.40007" lon="2.67325">
        <ele>78.61</ele>
        <time>2021-09-15T06:48:54Z</time>
      </trkpt>
      <trkpt lat="48.40009" lon="2.67324">
        <ele>78.63</ele>
        <time>2021-09-15T06:48:56Z</time>
      </trkpt>
      <trkpt lat="48.40022" lon="2.67322">
        <ele>78.72</ele>
        <time>2021-09-15T06:49:08Z</time>
      </trkpt>
      <trkpt lat="48.40031" lon="2.67309">
        <ele>78.81</ele>
        <time>2021-09-15T06:49:18Z</time>
      </trkpt>
      <trkpt lat="48.40031" lon="2.67293">
        <ele>77.77</ele>
        <time>2021-09-15T06:49:27Z</time>
      </trkpt>
      <trkpt lat="48.40031" lon="2.67291">
        <ele>77.55</ele>
        <time>2021-09-15T06:49:28Z</time>
      </trkpt>
      <trkpt lat="48.4003" lon="2.6729">
        <ele>77.52</ele>
        <time>2021-09-15T06:49:29Z</time>
      </trkpt>
      <trkpt lat="48.40029" lon="2.67289">
        <ele>78.6</ele>
        <time>2021-09-15T06:49:30Z</time>
      </trkpt>
      <trkpt lat="48.40028" lon="2.67288">
        <ele>79.31</ele>
        <time>2021-09-15T06:49:31Z</time>
      </trkpt>
      <trkpt lat="48.40027" lon="2.67287">
        <ele>79.84</ele>
        <time>2021-09-15T06:49:32Z</time>
      </trkpt>
      <trkpt lat="48.40026" lon="2.67285">
        <ele>80.55</ele>
        <time>2021-09-15T06:49:34Z</time>
      </trkpt>
      <trkpt lat="48.40007" lon="2.67279">
        <ele>78.13</ele>
        <time>2021-09-15T06:49:52Z</time>
      </trkpt>
      <trkpt lat="48.39987" lon="2.6726">
        <ele>78.58</ele>
        <time>2021-09-15T06:50:12Z</time>
      </trkpt>
      <trkpt lat="48.39983" lon="2.6724">
        <ele>79.9</ele>
        <time>2021-09-15T06:50:27Z</time>
      </trkpt>
      <trkpt lat="48.3998" lon="2.6722">
        <ele>78.27</ele>
        <time>2021-09-15T06:50:43Z</time>
      </trkpt>
      <trkpt lat="48.39981" lon="2.67204">
        <ele>77.59</ele>
        <time>2021-09-15T06:50:52Z</time>
      </trkpt>
      <trkpt lat="48.39977" lon="2.67172">
        <ele>79.13</ele>
        <time>2021-09-15T06:51:13Z</time>
      </trkpt>
      <trkpt lat="48.39973" lon="2.67149">
        <ele>80.06</ele>
        <time>2021-09-15T06:51:26Z</time>
      </trkpt>
      <trkpt lat="48.3997" lon="2.6712">
        <ele>79.39</ele>
        <time>2021-09-15T06:51:43Z</time>
      </trkpt>
      <trkpt lat="48.39963" lon="2.67077">
        <ele>80.11</ele>
        <time>2021-09-15T06:52:09Z</time>
      </trkpt>
      <trkpt lat="48.39956" lon="2.67055">
        <ele>81.58</ele>
        <time>2021-09-15T06:52:24Z</time>
      </trkpt>
      <trkpt lat="48.39941" lon="2.67017">
        <ele>81.38</ele>
        <time>2021-09-15T06:52:48Z</time>
      </trkpt>
      <trkpt lat="48.39929" lon="2.66992">
        <ele>82.23</ele>
        <time>2021-09-15T06:53:08Z</time>
      </trkpt>
      <trkpt lat="48.39924" lon="2.66971">
        <ele>82.66</ele>
        <time>2021-09-15T06:53:25Z</time>
      </trkpt>
      <trkpt lat="48.39913" lon="2.66953">
        <ele>83.28</ele>
        <time>2021-09-15T06:53:47Z</time>
      </trkpt>
      <trkpt lat="48.39905" lon="2.66946">
        <ele>83.54</ele>
        <time>2021-09-15T06:54:07Z</time>
      </trkpt>
      <trkpt lat="48.39896" lon="2.66926">
        <ele>84.41</ele>
        <time>2021-09-15T06:54:30Z</time>
      </trkpt>
      <trkpt lat="48.39893" lon="2.66915">
        <ele>85.83</ele>
        <time>2021-09-15T06:54:57Z</time>
      </trkpt>
      <trkpt lat="48.39895" lon="2.66904">
        <ele>85.57</ele>
        <time>2021-09-15T06:55:23Z</time>
      </trkpt>
      <trkpt lat="48.39889" lon="2.66903">
        <ele>86.8</ele>
        <time>2021-09-15T06:55:47Z</time>
      </trkpt>
      <trkpt lat="48.39879" lon="2.6689">
        <ele>87</ele>
        <time>2021-09-15T06:56:07Z</time>
      </trkpt>
      <trkpt lat="48.39867" lon="2.66885">
        <ele>89.13</ele>
        <time>2021-09-15T06:56:22Z</time>
      </trkpt>
      <trkpt lat="48.39851" lon="2.66884">
        <ele>91.71</ele>
        <time>2021-09-15T06:56:44Z</time>
      </trkpt>
      <trkpt lat="48.39837" lon="2.66892">
        <ele>94.03</ele>
        <time>2021-09-15T06:57:05Z</time>
      </trkpt>
      <trkpt lat="48.39822" lon="2.66891">
        <ele>97.06</ele>
        <time>2021-09-15T06:57:26Z</time>
      </trkpt>
      <trkpt lat="48.3981" lon="2.66902">
        <ele>100.45</ele>
        <time>2021-09-15T06:57:50Z</time>
      </trkpt>
      <trkpt lat="48.39818" lon="2.66917">
        <ele>103.43</ele>
        <time>2021-09-15T06:58:13Z</time>
      </trkpt>
      <trkpt lat="48.39811" lon="2.66922">
        <ele>104.76</ele>
        <time>2021-09-15T06:58:26Z</time>
      </trkpt>
      <trkpt lat="48.39808" lon="2.6692">
        <ele>105.4</ele>
        <time>2021-09-15T06:58:46Z</time>
      </trkpt>
      <trkpt lat="48.39804" lon="2.66919">
        <ele>105.25</ele>
        <time>2021-09-15T06:59:06Z</time>
      </trkpt>
      <trkpt lat="48.39799" lon="2.66922">
        <ele>106.38</ele>
        <time>2021-09-15T06:59:24Z</time>
      </trkpt>
      <trkpt lat="48.39798" lon="2.66927">
        <ele>108.14</ele>
        <time>2021-09-15T06:59:38Z</time>
      </trkpt>
      <trkpt lat="48.3979" lon="2.66927">
        <ele>111.07</ele>
        <time>2021-09-15T07:00:01Z</time>
      </trkpt>
      <trkpt lat="48.39783" lon="2.66921">
        <ele>113.54</ele>
        <time>2021-09-15T07:00:20Z</time>
      </trkpt>
      <trkpt lat="48.39776" lon="2.6692">
        <ele>116.3</ele>
        <time>2021-09-15T07:00:35Z</time>
      </trkpt>
      <trkpt lat="48.39771" lon="2.66909">
        <ele>118.14</ele>
        <time>2021-09-15T07:00:49Z</time>
      </trkpt>
      <trkpt lat="48.39763" lon="2.6689">
        <ele>119.65</ele>
        <time>2021-09-15T07:01:10Z</time>
      </trkpt>
      <trkpt lat="48.39756" lon="2.6689">
        <ele>121.93</ele>
        <time>2021-09-15T07:01:28Z</time>
      </trkpt>
      <trkpt lat="48.39743" lon="2.66886">
        <ele>124.88</ele>
        <time>2021-09-15T07:01:46Z</time>
      </trkpt>
      <trkpt lat="48.39742" lon="2.66873">
        <ele>126.02</ele>
        <time>2021-09-15T07:02:01Z</time>
      </trkpt>
      <trkpt lat="48.39742" lon="2.66869">
        <ele>126.17</ele>
        <time>2021-09-15T07:02:16Z</time>
      </trkpt>
      <trkpt lat="48.39742" lon="2.66863">
        <ele>125.79</ele>
        <time>2021-09-15T07:02:29Z</time>
      </trkpt>
      <trkpt lat="48.39748" lon="2.66851">
        <ele>125.52</ele>
        <time>2021-09-15T07:02:45Z</time>
      </trkpt>
      <trkpt lat="48.39753" lon="2.66837">
        <ele>124.88</ele>
        <time>2021-09-15T07:03:02Z</time>
      </trkpt>
      <trkpt lat="48.39758" lon="2.66829">
        <ele>124.97</ele>
        <time>2021-09-15T07:03:11Z</time>
      </trkpt>
      <trkpt lat="48.39766" lon="2.66806">
        <ele>125.25</ele>
        <time>2021-09-15T07:03:31Z</time>
      </trkpt>
      <trkpt lat="48.39766" lon="2.66793">
        <ele>124.28</ele>
        <time>2021-09-15T07:03:48Z</time>
      </trkpt>
      <trkpt lat="48.39765" lon="2.66784">
        <ele>122.5</ele>
        <time>2021-09-15T07:04:07Z</time>
      </trkpt>
      <trkpt lat="48.39771" lon="2.66771">
        <ele>120.3</ele>
        <time>2021-09-15T07:04:25Z</time>
      </trkpt>
      <trkpt lat="48.39772" lon="2.66763">
        <ele>117.66</ele>
        <time>2021-09-15T07:04:45Z</time>
      </trkpt>
      <trkpt lat="48.39777" lon="2.66761">
        <ele>117.04</ele>
        <time>2021-09-15T07:05:14Z</time>
      </trkpt>
      <trkpt lat="48.3978" lon="2.66747">
        <ele>118.06</ele>
        <time>2021-09-15T07:05:30Z</time>
      </trkpt>
      <trkpt lat="48.39783" lon="2.66737">
        <ele>121.1</ele>
        <time>2021-09-15T07:05:48Z</time>
      </trkpt>
      <trkpt lat="48.39788" lon="2.6673">
        <ele>123.82</ele>
        <time>2021-09-15T07:06:08Z</time>
      </trkpt>
      <trkpt lat="48.3979" lon="2.66723">
        <ele>121.9</ele>
        <time>2021-09-15T07:06:21Z</time>
      </trkpt>
      <trkpt lat="48.39788" lon="2.66713">
        <ele>120.63</ele>
        <time>2021-09-15T07:06:37Z</time>
      </trkpt>
      <trkpt lat="48.39786" lon="2.66696">
        <ele>120.45</ele>
        <time>2021-09-15T07:06:57Z</time>
      </trkpt>
      <trkpt lat="48.39783" lon="2.66689">
        <ele>117.41</ele>
        <time>2021-09-15T07:07:18Z</time>
      </trkpt>
      <trkpt lat="48.39775" lon="2.66699">
        <ele>114.37</ele>
        <time>2021-09-15T07:07:38Z</time>
      </trkpt>
      <trkpt lat="48.39768" lon="2.66697">
        <ele>112.9</ele>
        <time>2021-09-15T07:07:51Z</time>
      </trkpt>
      <trkpt lat="48.39766" lon="2.66696">
        <ele>112.78</ele>
        <time>2021-09-15T07:07:52Z</time>
      </trkpt>
      <trkpt lat="48.39765" lon="2.66695">
        <ele>112.64</ele>
        <time>2021-09-15T07:07:53Z</time>
      </trkpt>
      <trkpt lat="48.39763" lon="2.66695">
        <ele>112.43</ele>
        <time>2021-09-15T07:07:54Z</time>
      </trkpt>
      <trkpt lat="48.39762" lon="2.66695">
        <ele>112.17</ele>
        <time>2021-09-15T07:07:55Z</time>
      </trkpt>
      <trkpt lat="48.3976" lon="2.66695">
        <ele>111.92</ele>
        <time>2021-09-15T07:07:56Z</time>
      </trkpt>
      <trkpt lat="48.39759" lon="2.66695">
        <ele>111.37</ele>
        <time>2021-09-15T07:07:57Z</time>
      </trkpt>
      <trkpt lat="48.39757" lon="2.66695">
        <ele>111.06</ele>
        <time>2021-09-15T07:07:58Z</time>
      </trkpt>
      <trkpt lat="48.39756" lon="2.66694">
        <ele>110.74</ele>
        <time>2021-09-15T07:07:59Z</time>
      </trkpt>
      <trkpt lat="48.39755" lon="2.66692">
        <ele>110.35</ele>
        <time>2021-09-15T07:08:00Z</time>
      </trkpt>
      <trkpt lat="48.39754" lon="2.66689">
        <ele>109.86</ele>
        <time>2021-09-15T07:08:01Z</time>
      </trkpt>
      <trkpt lat="48.39753" lon="2.66686">
        <ele>109.37</ele>
        <time>2021-09-15T07:08:02Z</time>
      </trkpt>
      <trkpt lat="48.39752" lon="2.66684">
        <ele>108.92</ele>
        <time>2021-09-15T07:08:03Z</time>
      </trkpt>
      <trkpt lat="48.39746" lon="2.66672">
        <ele>105.34</ele>
        <time>2021-09-15T07:08:09Z</time>
      </trkpt>
      <trkpt lat="48.39736" lon="2.66663">
        <ele>102.26</ele>
        <time>2021-09-15T07:08:17Z</time>
      </trkpt>
      <trkpt lat="48.3972" lon="2.66667">
        <ele>99.46</ele>
        <time>2021-09-15T07:08:25Z</time>
      </trkpt>
      <trkpt lat="48.39719" lon="2.66668">
        <ele>99.16</ele>
        <time>2021-09-15T07:08:26Z</time>
      </trkpt>
      <trkpt lat="48.39711" lon="2.66672">
        <ele>97.44</ele>
        <time>2021-09-15T07:08:31Z</time>
      </trkpt>
      <trkpt lat="48.39682" lon="2.66684">
        <ele>94.48</ele>
        <time>2021-09-15T07:08:51Z</time>
      </trkpt>
      <trkpt lat="48.39677" lon="2.66685">
        <ele>94.1</ele>
        <time>2021-09-15T07:08:54Z</time>
      </trkpt>
      <trkpt lat="48.39652" lon="2.66688">
        <ele>90.73</ele>
        <time>2021-09-15T07:09:14Z</time>
      </trkpt>
      <trkpt lat="48.39645" lon="2.66689">
        <ele>92.09</ele>
        <time>2021-09-15T07:09:18Z</time>
      </trkpt>
      <trkpt lat="48.39617" lon="2.6669">
        <ele>89.13</ele>
        <time>2021-09-15T07:09:42Z</time>
      </trkpt>
      <trkpt lat="48.39604" lon="2.66685">
        <ele>87.77</ele>
        <time>2021-09-15T07:10:00Z</time>
      </trkpt>
      <trkpt lat="48.39593" lon="2.66679">
        <ele>86.53</ele>
        <time>2021-09-15T07:10:07Z</time>
      </trkpt>
      <trkpt lat="48.39589" lon="2.66678">
        <ele>85.9</ele>
        <time>2021-09-15T07:10:08Z</time>
      </trkpt>
      <trkpt lat="48.3958" lon="2.66674">
        <ele>85</ele>
        <time>2021-09-15T07:10:15Z</time>
      </trkpt>
      <trkpt lat="48.39561" lon="2.66671">
        <ele>84.83</ele>
        <time>2021-09-15T07:10:33Z</time>
      </trkpt>
      <trkpt lat="48.39549" lon="2.6667">
        <ele>84.54</ele>
        <time>2021-09-15T07:10:43Z</time>
      </trkpt>
      <trkpt lat="48.39527" lon="2.66664">
        <ele>84</ele>
        <time>2021-09-15T07:11:06Z</time>
      </trkpt>
      <trkpt lat="48.3951" lon="2.66666">
        <ele>82.8</ele>
        <time>2021-09-15T07:11:26Z</time>
      </trkpt>
      <trkpt lat="48.39495" lon="2.66675">
        <ele>82.34</ele>
        <time>2021-09-15T07:11:46Z</time>
      </trkpt>
      <trkpt lat="48.39486" lon="2.66679">
        <ele>81.9</ele>
        <time>2021-09-15T07:12:07Z</time>
      </trkpt>
      <trkpt lat="48.39488" lon="2.66675">
        <ele>81.82</ele>
        <time>2021-09-15T07:12:40Z</time>
      </trkpt>
      <trkpt lat="48.3949" lon="2.66674">
        <ele>81.82</ele>
        <time>2021-09-15T07:12:52Z</time>
      </trkpt>
      <trkpt lat="48.39489" lon="2.66674">
        <ele>81.82</ele>
        <time>2021-09-15T07:12:56Z</time>
      </trkpt>
      <trkpt lat="48.3947" lon="2.66686">
        <ele>81.01</ele>
        <time>2021-09-15T07:13:16Z</time>
      </trkpt>
      <trkpt lat="48.39444" lon="2.66711">
        <ele>80.06</ele>
        <time>2021-09-15T07:13:42Z</time>
      </trkpt>
      <trkpt lat="48.3943" lon="2.66723">
        <ele>79.76</ele>
        <time>2021-09-15T07:13:55Z</time>
      </trkpt>
      <trkpt lat="48.39414" lon="2.66737">
        <ele>79.33</ele>
        <time>2021-09-15T07:14:10Z</time>
      </trkpt>
      <trkpt lat="48.39397" lon="2.66754">
        <ele>78.98</ele>
        <time>2021-09-15T07:14:26Z</time>
      </trkpt>
      <trkpt lat="48.39388" lon="2.66761">
        <ele>78.63</ele>
        <time>2021-09-15T07:14:35Z</time>
      </trkpt>
      <trkpt lat="48.39386" lon="2.66762">
        <ele>78.61</ele>
        <time>2021-09-15T07:14:36Z</time>
      </trkpt>
      <trkpt lat="48.39385" lon="2.66762">
        <ele>78.6</ele>
        <time>2021-09-15T07:14:37Z</time>
      </trkpt>
      <trkpt lat="48.39373" lon="2.66768">
        <ele>76.98</ele>
        <time>2021-09-15T07:14:47Z</time>
      </trkpt>
      <trkpt lat="48.39355" lon="2.66773">
        <ele>77.31</ele>
        <time>2021-09-15T07:15:03Z</time>
      </trkpt>
      <trkpt lat="48.39329" lon="2.66778">
        <ele>76.52</ele>
        <time>2021-09-15T07:15:23Z</time>
      </trkpt>
      <trkpt lat="48.39325" lon="2.66777">
        <ele>76.56</ele>
        <time>2021-09-15T07:15:26Z</time>
      </trkpt>
      <trkpt lat="48.39318" lon="2.66779">
        <ele>76.71</ele>
        <time>2021-09-15T07:15:32Z</time>
      </trkpt>
      <trkpt lat="48.39317" lon="2.6678">
        <ele>76.72</ele>
        <time>2021-09-15T07:15:33Z</time>
      </trkpt>
      <trkpt lat="48.39298" lon="2.66782">
        <ele>76.85</ele>
        <time>2021-09-15T07:15:48Z</time>
      </trkpt>
      <trkpt lat="48.39282" lon="2.66786">
        <ele>77.23</ele>
        <time>2021-09-15T07:16:03Z</time>
      </trkpt>
      <trkpt lat="48.39279" lon="2.66789">
        <ele>77.28</ele>
        <time>2021-09-15T07:16:06Z</time>
      </trkpt>
      <trkpt lat="48.39277" lon="2.66789">
        <ele>77.29</ele>
        <time>2021-09-15T07:16:07Z</time>
      </trkpt>
      <trkpt lat="48.39273" lon="2.6679">
        <ele>77.37</ele>
        <time>2021-09-15T07:16:11Z</time>
      </trkpt>
      <trkpt lat="48.3927" lon="2.66791">
        <ele>77.46</ele>
        <time>2021-09-15T07:16:14Z</time>
      </trkpt>
      <trkpt lat="48.39256" lon="2.66794">
        <ele>77.85</ele>
        <time>2021-09-15T07:16:27Z</time>
      </trkpt>
      <trkpt lat="48.39254" lon="2.66795">
        <ele>77.88</ele>
        <time>2021-09-15T07:16:28Z</time>
      </trkpt>
      <trkpt lat="48.39239" lon="2.66798">
        <ele>78.41</ele>
        <time>2021-09-15T07:16:43Z</time>
      </trkpt>
      <trkpt lat="48.39227" lon="2.66814">
        <ele>77.53</ele>
        <time>2021-09-15T07:16:57Z</time>
      </trkpt>
      <trkpt lat="48.39226" lon="2.66818">
        <ele>77.35</ele>
        <time>2021-09-15T07:16:59Z</time>
      </trkpt>
      <trkpt lat="48.39224" lon="2.66831">
        <ele>79.37</ele>
        <time>2021-09-15T07:17:08Z</time>
      </trkpt>
      <trkpt lat="48.39223" lon="2.66833">
        <ele>79.49</ele>
        <time>2021-09-15T07:17:09Z</time>
      </trkpt>
      <trkpt lat="48.39215" lon="2.66862">
        <ele>77.66</ele>
        <time>2021-09-15T07:17:25Z</time>
      </trkpt>
      <trkpt lat="48.39207" lon="2.66892">
        <ele>77.84</ele>
        <time>2021-09-15T07:17:42Z</time>
      </trkpt>
      <trkpt lat="48.39201" lon="2.66915">
        <ele>78.09</ele>
        <time>2021-09-15T07:17:56Z</time>
      </trkpt>
      <trkpt lat="48.39195" lon="2.66934">
        <ele>77.96</ele>
        <time>2021-09-15T07:18:08Z</time>
      </trkpt>
      <trkpt lat="48.39195" lon="2.66936">
        <ele>77.92</ele>
        <time>2021-09-15T07:18:09Z</time>
      </trkpt>
      <trkpt lat="48.3919" lon="2.6696">
        <ele>77.81</ele>
        <time>2021-09-15T07:18:25Z</time>
      </trkpt>
      <trkpt lat="48.39185" lon="2.66983">
        <ele>77.7</ele>
        <time>2021-09-15T07:18:39Z</time>
      </trkpt>
      <trkpt lat="48.39177" lon="2.67017">
        <ele>77.84</ele>
        <time>2021-09-15T07:18:57Z</time>
      </trkpt>
      <trkpt lat="48.39167" lon="2.67052">
        <ele>77.77</ele>
        <time>2021-09-15T07:19:16Z</time>
      </trkpt>
      <trkpt lat="48.39156" lon="2.67085">
        <ele>77.6</ele>
        <time>2021-09-15T07:19:35Z</time>
      </trkpt>
      <trkpt lat="48.39145" lon="2.67111">
        <ele>77.81</ele>
        <time>2021-09-15T07:19:53Z</time>
      </trkpt>
      <trkpt lat="48.39134" lon="2.67135">
        <ele>77.73</ele>
        <time>2021-09-15T07:20:09Z</time>
      </trkpt>
      <trkpt lat="48.39133" lon="2.67137">
        <ele>77.75</ele>
        <time>2021-09-15T07:20:10Z</time>
      </trkpt>
      <trkpt lat="48.39132" lon="2.67138">
        <ele>77.76</ele>
        <time>2021-09-15T07:20:11Z</time>
      </trkpt>
      <trkpt lat="48.39125" lon="2.67175">
        <ele>77.87</ele>
        <time>2021-09-15T07:20:32Z</time>
      </trkpt>
      <trkpt lat="48.39111" lon="2.67193">
        <ele>77.58</ele>
        <time>2021-09-15T07:20:47Z</time>
      </trkpt>
      <trkpt lat="48.39103" lon="2.67214">
        <ele>77.27</ele>
        <time>2021-09-15T07:21:02Z</time>
      </trkpt>
      <trkpt lat="48.39103" lon="2.67221">
        <ele>77.22</ele>
        <time>2021-09-15T07:21:07Z</time>
      </trkpt>
      <trkpt lat="48.39103" lon="2.67223">
        <ele>77.21</ele>
        <time>2021-09-15T07:21:08Z</time>
      </trkpt>
      <trkpt lat="48.39103" lon="2.67225">
        <ele>77.21</ele>
        <time>2021-09-15T07:21:09Z</time>
      </trkpt>
      <trkpt lat="48.39103" lon="2.67227">
        <ele>77.2</ele>
        <time>2021-09-15T07:21:10Z</time>
      </trkpt>
      <trkpt lat="48.39103" lon="2.67228">
        <ele>77.2</ele>
        <time>2021-09-15T07:21:11Z</time>
      </trkpt>
      <trkpt lat="48.39102" lon="2.67258">
        <ele>76.98</ele>
        <time>2021-09-15T07:21:29Z</time>
      </trkpt>
      <trkpt lat="48.391" lon="2.67283">
        <ele>76.8</ele>
        <time>2021-09-15T07:21:43Z</time>
      </trkpt>
      <trkpt lat="48.39096" lon="2.6732">
        <ele>76.81</ele>
        <time>2021-09-15T07:22:01Z</time>
      </trkpt>
      <trkpt lat="48.39093" lon="2.6735">
        <ele>76.78</ele>
        <time>2021-09-15T07:22:17Z</time>
      </trkpt>
      <trkpt lat="48.39091" lon="2.6738">
        <ele>76.57</ele>
        <time>2021-09-15T07:22:33Z</time>
      </trkpt>
      <trkpt lat="48.39091" lon="2.67411">
        <ele>76.62</ele>
        <time>2021-09-15T07:22:50Z</time>
      </trkpt>
      <trkpt lat="48.39091" lon="2.67413">
        <ele>76.61</ele>
        <time>2021-09-15T07:22:51Z</time>
      </trkpt>
      <trkpt lat="48.39091" lon="2.67415">
        <ele>76.6</ele>
        <time>2021-09-15T07:22:52Z</time>
      </trkpt>
      <trkpt lat="48.39092" lon="2.67416">
        <ele>76.61</ele>
        <time>2021-09-15T07:22:53Z</time>
      </trkpt>
      <trkpt lat="48.39092" lon="2.67418">
        <ele>76.64</ele>
        <time>2021-09-15T07:22:54Z</time>
      </trkpt>
      <trkpt lat="48.39092" lon="2.6742">
        <ele>76.67</ele>
        <time>2021-09-15T07:22:55Z</time>
      </trkpt>
      <trkpt lat="48.39093" lon="2.67422">
        <ele>76.68</ele>
        <time>2021-09-15T07:22:56Z</time>
      </trkpt>
      <trkpt lat="48.39093" lon="2.67424">
        <ele>76.68</ele>
        <time>2021-09-15T07:22:57Z</time>
      </trkpt>
      <trkpt lat="48.39093" lon="2.67426">
        <ele>76.68</ele>
        <time>2021-09-15T07:22:58Z</time>
      </trkpt>
      <trkpt lat="48.3909" lon="2.67448">
        <ele>76.6</ele>
        <time>2021-09-15T07:23:09Z</time>
      </trkpt>
      <trkpt lat="48.39086" lon="2.67485">
        <ele>76.52</ele>
        <time>2021-09-15T07:23:28Z</time>
      </trkpt>
      <trkpt lat="48.3909" lon="2.67509">
        <ele>76.69</ele>
        <time>2021-09-15T07:23:41Z</time>
      </trkpt>
      <trkpt lat="48.39091" lon="2.6754">
        <ele>76.35</ele>
        <time>2021-09-15T07:23:58Z</time>
      </trkpt>
      <trkpt lat="48.39091" lon="2.67579">
        <ele>76.18</ele>
        <time>2021-09-15T07:24:18Z</time>
      </trkpt>
      <trkpt lat="48.39099" lon="2.67611">
        <ele>76.23</ele>
        <time>2021-09-15T07:24:37Z</time>
      </trkpt>
      <trkpt lat="48.39106" lon="2.67635">
        <ele>75.51</ele>
        <time>2021-09-15T07:24:53Z</time>
      </trkpt>
      <trkpt lat="48.39105" lon="2.67636">
        <ele>75.54</ele>
        <time>2021-09-15T07:24:54Z</time>
      </trkpt>
      <trkpt lat="48.39105" lon="2.67638">
        <ele>75.55</ele>
        <time>2021-09-15T07:24:55Z</time>
      </trkpt>
      <trkpt lat="48.39105" lon="2.6764">
        <ele>75.46</ele>
        <time>2021-09-15T07:24:56Z</time>
      </trkpt>
      <trkpt lat="48.39104" lon="2.67641">
        <ele>75.23</ele>
        <time>2021-09-15T07:24:57Z</time>
      </trkpt>
      <trkpt lat="48.39104" lon="2.67643">
        <ele>74.99</ele>
        <time>2021-09-15T07:24:58Z</time>
      </trkpt>
      <trkpt lat="48.39104" lon="2.67645">
        <ele>74.85</ele>
        <time>2021-09-15T07:24:59Z</time>
      </trkpt>
      <trkpt lat="48.39105" lon="2.67649">
        <ele>74.73</ele>
        <time>2021-09-15T07:25:01Z</time>
      </trkpt>
      <trkpt lat="48.39106" lon="2.67653">
        <ele>74.73</ele>
        <time>2021-09-15T07:25:03Z</time>
      </trkpt>
      <trkpt lat="48.39106" lon="2.67655">
        <ele>74.81</ele>
        <time>2021-09-15T07:25:04Z</time>
      </trkpt>
      <trkpt lat="48.39107" lon="2.67657">
        <ele>74.85</ele>
        <time>2021-09-15T07:25:05Z</time>
      </trkpt>
      <trkpt lat="48.39107" lon="2.67658">
        <ele>74.86</ele>
        <time>2021-09-15T07:25:06Z</time>
      </trkpt>
      <trkpt lat="48.39108" lon="2.6766">
        <ele>74.86</ele>
        <time>2021-09-15T07:25:07Z</time>
      </trkpt>
      <trkpt lat="48.39109" lon="2.67661">
        <ele>74.78</ele>
        <time>2021-09-15T07:25:08Z</time>
      </trkpt>
      <trkpt lat="48.3911" lon="2.67663">
        <ele>74.79</ele>
        <time>2021-09-15T07:25:09Z</time>
      </trkpt>
      <trkpt lat="48.3911" lon="2.67664">
        <ele>74.85</ele>
        <time>2021-09-15T07:25:10Z</time>
      </trkpt>
      <trkpt lat="48.3911" lon="2.67666">
        <ele>75.12</ele>
        <time>2021-09-15T07:25:11Z</time>
      </trkpt>
      <trkpt lat="48.3911" lon="2.67668">
        <ele>75.39</ele>
        <time>2021-09-15T07:25:12Z</time>
      </trkpt>
      <trkpt lat="48.39108" lon="2.67682">
        <ele>75.82</ele>
        <time>2021-09-15T07:25:25Z</time>
      </trkpt>
      <trkpt lat="48.39115" lon="2.67702">
        <ele>75.43</ele>
        <time>2021-09-15T07:25:38Z</time>
      </trkpt>
      <trkpt lat="48.39115" lon="2.67704">
        <ele>75.38</ele>
        <time>2021-09-15T07:25:39Z</time>
      </trkpt>
      <trkpt lat="48.39115" lon="2.67705">
        <ele>75.33</ele>
        <time>2021-09-15T07:25:40Z</time>
      </trkpt>
      <trkpt lat="48.39115" lon="2.67707">
        <ele>75.29</ele>
        <time>2021-09-15T07:25:41Z</time>
      </trkpt>
      <trkpt lat="48.39115" lon="2.67709">
        <ele>75.26</ele>
        <time>2021-09-15T07:25:42Z</time>
      </trkpt>
      <trkpt lat="48.39116" lon="2.67717">
        <ele>75.18</ele>
        <time>2021-09-15T07:25:48Z</time>
      </trkpt>
      <trkpt lat="48.39121" lon="2.67738">
        <ele>75.28</ele>
        <time>2021-09-15T07:26:01Z</time>
      </trkpt>
      <trkpt lat="48.39131" lon="2.67768">
        <ele>75.43</ele>
        <time>2021-09-15T07:26:19Z</time>
      </trkpt>
      <trkpt lat="48.39137" lon="2.6778">
        <ele>75.26</ele>
        <time>2021-09-15T07:26:27Z</time>
      </trkpt>
      <trkpt lat="48.39137" lon="2.67781">
        <ele>75.23</ele>
        <time>2021-09-15T07:26:28Z</time>
      </trkpt>
      <trkpt lat="48.39138" lon="2.67783">
        <ele>75.21</ele>
        <time>2021-09-15T07:26:29Z</time>
      </trkpt>
      <trkpt lat="48.39139" lon="2.67785">
        <ele>75.2</ele>
        <time>2021-09-15T07:26:30Z</time>
      </trkpt>
      <trkpt lat="48.39139" lon="2.67786">
        <ele>75.19</ele>
        <time>2021-09-15T07:26:31Z</time>
      </trkpt>
      <trkpt lat="48.3914" lon="2.67788">
        <ele>75.18</ele>
        <time>2021-09-15T07:26:32Z</time>
      </trkpt>
      <trkpt lat="48.3914" lon="2.67789">
        <ele>75.17</ele>
        <time>2021-09-15T07:26:33Z</time>
      </trkpt>
      <trkpt lat="48.39141" lon="2.67791">
        <ele>75.15</ele>
        <time>2021-09-15T07:26:34Z</time>
      </trkpt>
      <trkpt lat="48.39142" lon="2.67792">
        <ele>75.12</ele>
        <time>2021-09-15T07:26:35Z</time>
      </trkpt>
      <trkpt lat="48.39154" lon="2.67821">
        <ele>73.93</ele>
        <time>2021-09-15T07:26:54Z</time>
      </trkpt>
      <trkpt lat="48.39164" lon="2.67843">
        <ele>74.3</ele>
        <time>2021-09-15T07:27:10Z</time>
      </trkpt>
      <trkpt lat="48.39174" lon="2.67867">
        <ele>74.55</ele>
        <time>2021-09-15T07:27:24Z</time>
      </trkpt>
      <trkpt lat="48.39178" lon="2.67883">
        <ele>74.02</ele>
        <time>2021-09-15T07:27:34Z</time>
      </trkpt>
      <trkpt lat="48.39177" lon="2.67885">
        <ele>73.89</ele>
        <time>2021-09-15T07:27:35Z</time>
      </trkpt>
      <trkpt lat="48.39168" lon="2.67901">
        <ele>73.1</ele>
        <time>2021-09-15T07:27:49Z</time>
      </trkpt>
      <trkpt lat="48.39156" lon="2.6792">
        <ele>73.82</ele>
        <time>2021-09-15T07:28:06Z</time>
      </trkpt>
      <trkpt lat="48.39154" lon="2.67923">
        <ele>73.92</ele>
        <time>2021-09-15T07:28:08Z</time>
      </trkpt>
      <trkpt lat="48.39152" lon="2.67924">
        <ele>73.88</ele>
        <time>2021-09-15T07:28:09Z</time>
      </trkpt>
      <trkpt lat="48.39151" lon="2.67924">
        <ele>73.74</ele>
        <time>2021-09-15T07:28:10Z</time>
      </trkpt>
      <trkpt lat="48.3915" lon="2.67925">
        <ele>73.6</ele>
        <time>2021-09-15T07:28:11Z</time>
      </trkpt>
      <trkpt lat="48.39148" lon="2.67925">
        <ele>73.46</ele>
        <time>2021-09-15T07:28:12Z</time>
      </trkpt>
      <trkpt lat="48.39126" lon="2.67917">
        <ele>72.8</ele>
        <time>2021-09-15T07:28:29Z</time>
      </trkpt>
      <trkpt lat="48.3912" lon="2.67915">
        <ele>73.06</ele>
        <time>2021-09-15T07:28:34Z</time>
      </trkpt>
      <trkpt lat="48.39119" lon="2.67915">
        <ele>73.09</ele>
        <time>2021-09-15T07:28:35Z</time>
      </trkpt>
      <trkpt lat="48.39117" lon="2.67914">
        <ele>73.18</ele>
        <time>2021-09-15T07:28:36Z</time>
      </trkpt>
      <trkpt lat="48.39116" lon="2.67914">
        <ele>73.28</ele>
        <time>2021-09-15T07:28:37Z</time>
      </trkpt>
      <trkpt lat="48.39115" lon="2.67913">
        <ele>73.32</ele>
        <time>2021-09-15T07:28:38Z</time>
      </trkpt>
      <trkpt lat="48.39113" lon="2.67913">
        <ele>73.34</ele>
        <time>2021-09-15T07:28:39Z</time>
      </trkpt>
      <trkpt lat="48.39091" lon="2.67906">
        <ele>75.17</ele>
        <time>2021-09-15T07:28:57Z</time>
      </trkpt>
      <trkpt lat="48.39063" lon="2.67886">
        <ele>76.36</ele>
        <time>2021-09-15T07:29:22Z</time>
      </trkpt>
      <trkpt lat="48.39024" lon="2.67869">
        <ele>76.32</ele>
        <time>2021-09-15T07:29:54Z</time>
      </trkpt>
      <trkpt lat="48.38997" lon="2.67853">
        <ele>75.39</ele>
        <time>2021-09-15T07:30:18Z</time>
      </trkpt>
      <trkpt lat="48.38972" lon="2.67842">
        <ele>75.69</ele>
        <time>2021-09-15T07:30:39Z</time>
      </trkpt>
      <trkpt lat="48.38942" lon="2.67827">
        <ele>72.84</ele>
        <time>2021-09-15T07:31:04Z</time>
      </trkpt>
      <trkpt lat="48.38935" lon="2.67822">
        <ele>75.54</ele>
        <time>2021-09-15T07:31:11Z</time>
      </trkpt>
      <trkpt lat="48.38911" lon="2.67812">
        <ele>75.11</ele>
        <time>2021-09-15T07:31:32Z</time>
      </trkpt>
      <trkpt lat="48.38896" lon="2.67804">
        <ele>75.36</ele>
        <time>2021-09-15T07:31:48Z</time>
      </trkpt>
      <trkpt lat="48.38876" lon="2.67793">
        <ele>75.91</ele>
        <time>2021-09-15T07:32:07Z</time>
      </trkpt>
      <trkpt lat="48.3885" lon="2.67778">
        <ele>75.8</ele>
        <time>2021-09-15T07:32:29Z</time>
      </trkpt>
      <trkpt lat="48.38832" lon="2.67774">
        <ele>75.44</ele>
        <time>2021-09-15T07:32:46Z</time>
      </trkpt>
      <trkpt lat="48.38827" lon="2.67783">
        <ele>75.35</ele>
        <time>2021-09-15T07:32:54Z</time>
      </trkpt>
      <trkpt lat="48.38822" lon="2.67812">
        <ele>75.82</ele>
        <time>2021-09-15T07:33:09Z</time>
      </trkpt>
      <trkpt lat="48.38817" lon="2.67838">
        <ele>75.88</ele>
        <time>2021-09-15T07:33:23Z</time>
      </trkpt>
      <trkpt lat="48.38815" lon="2.6787">
        <ele>76.01</ele>
        <time>2021-09-15T07:33:39Z</time>
      </trkpt>
      <trkpt lat="48.38808" lon="2.67894">
        <ele>76.15</ele>
        <time>2021-09-15T07:33:54Z</time>
      </trkpt>
      <trkpt lat="48.38801" lon="2.67912">
        <ele>76.58</ele>
        <time>2021-09-15T07:34:11Z</time>
      </trkpt>
      <trkpt lat="48.38798" lon="2.67941">
        <ele>76.39</ele>
        <time>2021-09-15T07:34:32Z</time>
      </trkpt>
      <trkpt lat="48.38789" lon="2.67983">
        <ele>76.53</ele>
        <time>2021-09-15T07:34:54Z</time>
      </trkpt>
      <trkpt lat="48.38786" lon="2.68041">
        <ele>76.31</ele>
        <time>2021-09-15T07:35:22Z</time>
      </trkpt>
      <trkpt lat="48.38783" lon="2.68096">
        <ele>76.7</ele>
        <time>2021-09-15T07:35:51Z</time>
      </trkpt>
      <trkpt lat="48.38774" lon="2.6816">
        <ele>76.34</ele>
        <time>2021-09-15T07:36:20Z</time>
      </trkpt>
      <trkpt lat="48.3877" lon="2.68191">
        <ele>75.97</ele>
        <time>2021-09-15T07:36:38Z</time>
      </trkpt>
      <trkpt lat="48.38771" lon="2.68191">
        <ele>75.33</ele>
        <time>2021-09-15T07:36:47Z</time>
      </trkpt>
      <trkpt lat="48.38771" lon="2.6819">
        <ele>75.4</ele>
        <time>2021-09-15T07:36:48Z</time>
      </trkpt>
      <trkpt lat="48.38768" lon="2.68181">
        <ele>75.93</ele>
        <time>2021-09-15T07:36:56Z</time>
      </trkpt>
      <trkpt lat="48.38767" lon="2.6818">
        <ele>75.88</ele>
        <time>2021-09-15T07:36:57Z</time>
      </trkpt>
      <trkpt lat="48.38766" lon="2.6818">
        <ele>75.85</ele>
        <time>2021-09-15T07:36:58Z</time>
      </trkpt>
      <trkpt lat="48.38765" lon="2.68179">
        <ele>75.83</ele>
        <time>2021-09-15T07:36:59Z</time>
      </trkpt>
      <trkpt lat="48.38763" lon="2.68178">
        <ele>75.82</ele>
        <time>2021-09-15T07:37:00Z</time>
      </trkpt>
      <trkpt lat="48.38746" lon="2.68175">
        <ele>76.81</ele>
        <time>2021-09-15T07:37:18Z</time>
      </trkpt>
      <trkpt lat="48.38729" lon="2.68176">
        <ele>78.42</ele>
        <time>2021-09-15T07:37:35Z</time>
      </trkpt>
      <trkpt lat="48.38701" lon="2.68179">
        <ele>80.88</ele>
        <time>2021-09-15T07:38:04Z</time>
      </trkpt>
      <trkpt lat="48.3868" lon="2.68182">
        <ele>83.9</ele>
        <time>2021-09-15T07:38:27Z</time>
      </trkpt>
      <trkpt lat="48.38661" lon="2.68175">
        <ele>87.09</ele>
        <time>2021-09-15T07:38:52Z</time>
      </trkpt>
      <trkpt lat="48.38647" lon="2.68173">
        <ele>89.41</ele>
        <time>2021-09-15T07:39:13Z</time>
      </trkpt>
      <trkpt lat="48.38633" lon="2.68165">
        <ele>92.42</ele>
        <time>2021-09-15T07:39:32Z</time>
      </trkpt>
      <trkpt lat="48.38616" lon="2.68149">
        <ele>95.04</ele>
        <time>2021-09-15T07:39:57Z</time>
      </trkpt>
      <trkpt lat="48.3861" lon="2.68144">
        <ele>95.88</ele>
        <time>2021-09-15T07:40:06Z</time>
      </trkpt>
      <trkpt lat="48.38598" lon="2.68137">
        <ele>98.98</ele>
        <time>2021-09-15T07:40:25Z</time>
      </trkpt>
      <trkpt lat="48.386" lon="2.68133">
        <ele>99.53</ele>
        <time>2021-09-15T07:40:43Z</time>
      </trkpt>
      <trkpt lat="48.38596" lon="2.68131">
        <ele>99.75</ele>
        <time>2021-09-15T07:41:05Z</time>
      </trkpt>
      <trkpt lat="48.38597" lon="2.68117">
        <ele>100.71</ele>
        <time>2021-09-15T07:41:25Z</time>
      </trkpt>
      <trkpt lat="48.38601" lon="2.68093">
        <ele>103.06</ele>
        <time>2021-09-15T07:41:46Z</time>
      </trkpt>
      <trkpt lat="48.38605" lon="2.68076">
        <ele>105.35</ele>
        <time>2021-09-15T07:42:07Z</time>
      </trkpt>
      <trkpt lat="48.38617" lon="2.68052">
        <ele>107.37</ele>
        <time>2021-09-15T07:42:28Z</time>
      </trkpt>
      <trkpt lat="48.38617" lon="2.68017">
        <ele>107.63</ele>
        <time>2021-09-15T07:42:54Z</time>
      </trkpt>
      <trkpt lat="48.38612" lon="2.67983">
        <ele>107.94</ele>
        <time>2021-09-15T07:43:15Z</time>
      </trkpt>
      <trkpt lat="48.38611" lon="2.67954">
        <ele>106.84</ele>
        <time>2021-09-15T07:43:35Z</time>
      </trkpt>
      <trkpt lat="48.38613" lon="2.67918">
        <ele>106.12</ele>
        <time>2021-09-15T07:43:59Z</time>
      </trkpt>
      <trkpt lat="48.38622" lon="2.67895">
        <ele>106.4</ele>
        <time>2021-09-15T07:44:20Z</time>
      </trkpt>
      <trkpt lat="48.38633" lon="2.6787">
        <ele>108.67</ele>
        <time>2021-09-15T07:44:43Z</time>
      </trkpt>
      <trkpt lat="48.38643" lon="2.6785">
        <ele>111.18</ele>
        <time>2021-09-15T07:45:04Z</time>
      </trkpt>
      <trkpt lat="48.38647" lon="2.67837">
        <ele>114.34</ele>
        <time>2021-09-15T07:45:21Z</time>
      </trkpt>
      <trkpt lat="48.38649" lon="2.67825">
        <ele>117.45</ele>
        <time>2021-09-15T07:45:41Z</time>
      </trkpt>
      <trkpt lat="48.38651" lon="2.67801">
        <ele>120.17</ele>
        <time>2021-09-15T07:46:03Z</time>
      </trkpt>
      <trkpt lat="48.38653" lon="2.67785">
        <ele>120.77</ele>
        <time>2021-09-15T07:46:21Z</time>
      </trkpt>
      <trkpt lat="48.38648" lon="2.67784">
        <ele>122.26</ele>
        <time>2021-09-15T07:46:40Z</time>
      </trkpt>
      <trkpt lat="48.38643" lon="2.67783">
        <ele>122.48</ele>
        <time>2021-09-15T07:47:08Z</time>
      </trkpt>
      <trkpt lat="48.38643" lon="2.6778">
        <ele>121.59</ele>
        <time>2021-09-15T07:47:37Z</time>
      </trkpt>
      <trkpt lat="48.38646" lon="2.6778">
        <ele>121.59</ele>
        <time>2021-09-15T07:48:18Z</time>
      </trkpt>
      <trkpt lat="48.38644" lon="2.67781">
        <ele>121.59</ele>
        <time>2021-09-15T07:48:42Z</time>
      </trkpt>
      <trkpt lat="48.38644" lon="2.67784">
        <ele>121.59</ele>
        <time>2021-09-15T07:49:08Z</time>
      </trkpt>
      <trkpt lat="48.38644" lon="2.67784">
        <ele>121.59</ele>
        <time>2021-09-15T07:49:29Z</time>
      </trkpt>
      <trkpt lat="48.38644" lon="2.67784">
        <ele>121.59</ele>
        <time>2021-09-15T07:49:47Z</time>
      </trkpt>
      <trkpt lat="48.38643" lon="2.67784">
        <ele>121.59</ele>
        <time>2021-09-15T07:50:11Z</time>
      </trkpt>
      <trkpt lat="48.38644" lon="2.67784">
        <ele>121.59</ele>
        <time>2021-09-15T07:50:34Z</time>
      </trkpt>
      <trkpt lat="48.38644" lon="2.67784">
        <ele>121.59</ele>
        <time>2021-09-15T07:51:04Z</time>
      </trkpt>
      <trkpt lat="48.38644" lon="2.67785">
        <ele>121.59</ele>
        <time>2021-09-15T07:51:37Z</time>
      </trkpt>
      <trkpt lat="48.38638" lon="2.67779">
        <ele>121.48</ele>
        <time>2021-09-15T07:51:54Z</time>
      </trkpt>
      <trkpt lat="48.3864" lon="2.67761">
        <ele>120.16</ele>
        <time>2021-09-15T07:52:12Z</time>
      </trkpt>
      <trkpt lat="48.38645" lon="2.67743">
        <ele>120.03</ele>
        <time>2021-09-15T07:52:29Z</time>
      </trkpt>
      <trkpt lat="48.3864" lon="2.67724">
        <ele>117.55</ele>
        <time>2021-09-15T07:52:45Z</time>
      </trkpt>
      <trkpt lat="48.38643" lon="2.67719">
        <ele>117.24</ele>
        <time>2021-09-15T07:52:48Z</time>
      </trkpt>
      <trkpt lat="48.38644" lon="2.67718">
        <ele>117.07</ele>
        <time>2021-09-15T07:52:49Z</time>
      </trkpt>
      <trkpt lat="48.38646" lon="2.67716">
        <ele>116.8</ele>
        <time>2021-09-15T07:52:50Z</time>
      </trkpt>
      <trkpt lat="48.38654" lon="2.67704">
        <ele>114.41</ele>
        <time>2021-09-15T07:52:56Z</time>
      </trkpt>
      <trkpt lat="48.38656" lon="2.67702">
        <ele>113.81</ele>
        <time>2021-09-15T07:52:58Z</time>
      </trkpt>
      <trkpt lat="48.38657" lon="2.67701">
        <ele>113.52</ele>
        <time>2021-09-15T07:52:59Z</time>
      </trkpt>
      <trkpt lat="48.38659" lon="2.67681">
        <ele>110.49</ele>
        <time>2021-09-15T07:53:13Z</time>
      </trkpt>
      <trkpt lat="48.38645" lon="2.67661">
        <ele>109.07</ele>
        <time>2021-09-15T07:53:35Z</time>
      </trkpt>
      <trkpt lat="48.38644" lon="2.67646">
        <ele>108.57</ele>
        <time>2021-09-15T07:53:45Z</time>
      </trkpt>
      <trkpt lat="48.38643" lon="2.67644">
        <ele>108.56</ele>
        <time>2021-09-15T07:53:46Z</time>
      </trkpt>
      <trkpt lat="48.38641" lon="2.67642">
        <ele>108.57</ele>
        <time>2021-09-15T07:53:47Z</time>
      </trkpt>
      <trkpt lat="48.3864" lon="2.67639">
        <ele>108.54</ele>
        <time>2021-09-15T07:53:48Z</time>
      </trkpt>
      <trkpt lat="48.38639" lon="2.67637">
        <ele>108.49</ele>
        <time>2021-09-15T07:53:49Z</time>
      </trkpt>
      <trkpt lat="48.3863" lon="2.67613">
        <ele>105.44</ele>
        <time>2021-09-15T07:54:06Z</time>
      </trkpt>
      <trkpt lat="48.38624" lon="2.67588">
        <ele>103.99</ele>
        <time>2021-09-15T07:54:23Z</time>
      </trkpt>
      <trkpt lat="48.38624" lon="2.67584">
        <ele>103.39</ele>
        <time>2021-09-15T07:54:25Z</time>
      </trkpt>
      <trkpt lat="48.38624" lon="2.67582">
        <ele>103.14</ele>
        <time>2021-09-15T07:54:26Z</time>
      </trkpt>
      <trkpt lat="48.38624" lon="2.67568">
        <ele>101.33</ele>
        <time>2021-09-15T07:54:34Z</time>
      </trkpt>
      <trkpt lat="48.38623" lon="2.67564">
        <ele>101.18</ele>
        <time>2021-09-15T07:54:35Z</time>
      </trkpt>
      <trkpt lat="48.38624" lon="2.67559">
        <ele>100.97</ele>
        <time>2021-09-15T07:54:36Z</time>
      </trkpt>
      <trkpt lat="48.38618" lon="2.67536">
        <ele>99.46</ele>
        <time>2021-09-15T07:54:43Z</time>
      </trkpt>
      <trkpt lat="48.38617" lon="2.67534">
        <ele>99.2</ele>
        <time>2021-09-15T07:54:44Z</time>
      </trkpt>
      <trkpt lat="48.38615" lon="2.6753">
        <ele>98.98</ele>
        <time>2021-09-15T07:54:45Z</time>
      </trkpt>
      <trkpt lat="48.38613" lon="2.67525">
        <ele>98.78</ele>
        <time>2021-09-15T07:54:46Z</time>
      </trkpt>
      <trkpt lat="48.38611" lon="2.67522">
        <ele>98.53</ele>
        <time>2021-09-15T07:54:47Z</time>
      </trkpt>
      <trkpt lat="48.38608" lon="2.67519">
        <ele>98.28</ele>
        <time>2021-09-15T07:54:48Z</time>
      </trkpt>
      <trkpt lat="48.38606" lon="2.67516">
        <ele>98.01</ele>
        <time>2021-09-15T07:54:49Z</time>
      </trkpt>
      <trkpt lat="48.38604" lon="2.67512">
        <ele>97.63</ele>
        <time>2021-09-15T07:54:50Z</time>
      </trkpt>
      <trkpt lat="48.38603" lon="2.6751">
        <ele>96.74</ele>
        <time>2021-09-15T07:54:51Z</time>
      </trkpt>
      <trkpt lat="48.38602" lon="2.67509">
        <ele>96.44</ele>
        <time>2021-09-15T07:54:52Z</time>
      </trkpt>
      <trkpt lat="48.38601" lon="2.67507">
        <ele>96.13</ele>
        <time>2021-09-15T07:54:53Z</time>
      </trkpt>
      <trkpt lat="48.38595" lon="2.67489">
        <ele>93.11</ele>
        <time>2021-09-15T07:55:04Z</time>
      </trkpt>
      <trkpt lat="48.38591" lon="2.67485">
        <ele>91.68</ele>
        <time>2021-09-15T07:55:07Z</time>
      </trkpt>
      <trkpt lat="48.38589" lon="2.6748">
        <ele>91.54</ele>
        <time>2021-09-15T07:55:09Z</time>
      </trkpt>
      <trkpt lat="48.38587" lon="2.67478">
        <ele>91.6</ele>
        <time>2021-09-15T07:55:10Z</time>
      </trkpt>
      <trkpt lat="48.38586" lon="2.67476">
        <ele>91.75</ele>
        <time>2021-09-15T07:55:11Z</time>
      </trkpt>
      <trkpt lat="48.38585" lon="2.67474">
        <ele>91.96</ele>
        <time>2021-09-15T07:55:12Z</time>
      </trkpt>
      <trkpt lat="48.38578" lon="2.67464">
        <ele>90.27</ele>
        <time>2021-09-15T07:55:19Z</time>
      </trkpt>
      <trkpt lat="48.38568" lon="2.67456">
        <ele>86.71</ele>
        <time>2021-09-15T07:55:31Z</time>
      </trkpt>
      <trkpt lat="48.38565" lon="2.67456">
        <ele>88.58</ele>
        <time>2021-09-15T07:55:37Z</time>
      </trkpt>
      <trkpt lat="48.38564" lon="2.67455">
        <ele>89.86</ele>
        <time>2021-09-15T07:55:39Z</time>
      </trkpt>
      <trkpt lat="48.38562" lon="2.67455">
        <ele>91.75</ele>
        <time>2021-09-15T07:55:55Z</time>
      </trkpt>
      <trkpt lat="48.38563" lon="2.67455">
        <ele>92.4</ele>
        <time>2021-09-15T07:55:57Z</time>
      </trkpt>
      <trkpt lat="48.38564" lon="2.67454">
        <ele>90.65</ele>
        <time>2021-09-15T07:56:17Z</time>
      </trkpt>
      <trkpt lat="48.38562" lon="2.67455">
        <ele>90.61</ele>
        <time>2021-09-15T07:56:21Z</time>
      </trkpt>
      <trkpt lat="48.38555" lon="2.67453">
        <ele>90.95</ele>
        <time>2021-09-15T07:56:32Z</time>
      </trkpt>
      <trkpt lat="48.38539" lon="2.67451">
        <ele>92.24</ele>
        <time>2021-09-15T07:56:47Z</time>
      </trkpt>
      <trkpt lat="48.3853" lon="2.67449">
        <ele>93.09</ele>
        <time>2021-09-15T07:56:56Z</time>
      </trkpt>
      <trkpt lat="48.38529" lon="2.67449">
        <ele>93.19</ele>
        <time>2021-09-15T07:56:57Z</time>
      </trkpt>
      <trkpt lat="48.38527" lon="2.67448">
        <ele>93.29</ele>
        <time>2021-09-15T07:56:58Z</time>
      </trkpt>
      <trkpt lat="48.38509" lon="2.67447">
        <ele>95.23</ele>
        <time>2021-09-15T07:57:15Z</time>
      </trkpt>
      <trkpt lat="48.38487" lon="2.67446">
        <ele>98.42</ele>
        <time>2021-09-15T07:57:40Z</time>
      </trkpt>
      <trkpt lat="48.38465" lon="2.67448">
        <ele>101.53</ele>
        <time>2021-09-15T07:58:02Z</time>
      </trkpt>
      <trkpt lat="48.38437" lon="2.67447">
        <ele>103.27</ele>
        <time>2021-09-15T07:58:24Z</time>
      </trkpt>
      <trkpt lat="48.38434" lon="2.67447">
        <ele>106.45</ele>
        <time>2021-09-15T07:58:28Z</time>
      </trkpt>
      <trkpt lat="48.38433" lon="2.67447">
        <ele>106.74</ele>
        <time>2021-09-15T07:58:29Z</time>
      </trkpt>
      <trkpt lat="48.38428" lon="2.67447">
        <ele>106.94</ele>
        <time>2021-09-15T07:58:34Z</time>
      </trkpt>
      <trkpt lat="48.38416" lon="2.67447">
        <ele>107.95</ele>
        <time>2021-09-15T07:58:50Z</time>
      </trkpt>
      <trkpt lat="48.38407" lon="2.67451">
        <ele>111.06</ele>
        <time>2021-09-15T07:59:04Z</time>
      </trkpt>
      <trkpt lat="48.38385" lon="2.67455">
        <ele>114.09</ele>
        <time>2021-09-15T07:59:28Z</time>
      </trkpt>
      <trkpt lat="48.38359" lon="2.67453">
        <ele>117.1</ele>
        <time>2021-09-15T07:59:57Z</time>
      </trkpt>
      <trkpt lat="48.38354" lon="2.67454">
        <ele>117.31</ele>
        <time>2021-09-15T08:00:00Z</time>
      </trkpt>
      <trkpt lat="48.38327" lon="2.67466">
        <ele>118.65</ele>
        <time>2021-09-15T08:00:16Z</time>
      </trkpt>
      <trkpt lat="48.38313" lon="2.67473">
        <ele>119.16</ele>
        <time>2021-09-15T08:00:29Z</time>
      </trkpt>
      <trkpt lat="48.38311" lon="2.67475">
        <ele>119.17</ele>
        <time>2021-09-15T08:00:31Z</time>
      </trkpt>
      <trkpt lat="48.3831" lon="2.67475">
        <ele>119.17</ele>
        <time>2021-09-15T08:00:32Z</time>
      </trkpt>
      <trkpt lat="48.38283" lon="2.67483">
        <ele>118.77</ele>
        <time>2021-09-15T08:00:56Z</time>
      </trkpt>
      <trkpt lat="48.38261" lon="2.67487">
        <ele>118.86</ele>
        <time>2021-09-15T08:01:14Z</time>
      </trkpt>
      <trkpt lat="48.38245" lon="2.67494">
        <ele>119.95</ele>
        <time>2021-09-15T08:01:29Z</time>
      </trkpt>
      <trkpt lat="48.38232" lon="2.67511">
        <ele>120.11</ele>
        <time>2021-09-15T08:01:45Z</time>
      </trkpt>
      <trkpt lat="48.3822" lon="2.67528">
        <ele>119.86</ele>
        <time>2021-09-15T08:02:01Z</time>
      </trkpt>
      <trkpt lat="48.38219" lon="2.67531">
        <ele>119.83</ele>
        <time>2021-09-15T08:02:03Z</time>
      </trkpt>
      <trkpt lat="48.38218" lon="2.67533">
        <ele>119.83</ele>
        <time>2021-09-15T08:02:04Z</time>
      </trkpt>
      <trkpt lat="48.38207" lon="2.67551">
        <ele>120.44</ele>
        <time>2021-09-15T08:02:19Z</time>
      </trkpt>
      <trkpt lat="48.38195" lon="2.6757">
        <ele>120.74</ele>
        <time>2021-09-15T08:02:35Z</time>
      </trkpt>
      <trkpt lat="48.38182" lon="2.67591">
        <ele>119.8</ele>
        <time>2021-09-15T08:02:50Z</time>
      </trkpt>
      <trkpt lat="48.38168" lon="2.67614">
        <ele>119.4</ele>
        <time>2021-09-15T08:03:06Z</time>
      </trkpt>
      <trkpt lat="48.38148" lon="2.6765">
        <ele>119.33</ele>
        <time>2021-09-15T08:03:28Z</time>
      </trkpt>
      <trkpt lat="48.38136" lon="2.67672">
        <ele>116.57</ele>
        <time>2021-09-15T08:03:43Z</time>
      </trkpt>
      <trkpt lat="48.3813" lon="2.67676">
        <ele>116.96</ele>
        <time>2021-09-15T08:03:50Z</time>
      </trkpt>
      <trkpt lat="48.38116" lon="2.67683">
        <ele>114.05</ele>
        <time>2021-09-15T08:04:04Z</time>
      </trkpt>
      <trkpt lat="48.38102" lon="2.67692">
        <ele>111.94</ele>
        <time>2021-09-15T08:04:19Z</time>
      </trkpt>
      <trkpt lat="48.38085" lon="2.67699">
        <ele>109.06</ele>
        <time>2021-09-15T08:04:39Z</time>
      </trkpt>
      <trkpt lat="48.38069" lon="2.67705">
        <ele>106</ele>
        <time>2021-09-15T08:04:54Z</time>
      </trkpt>
      <trkpt lat="48.38052" lon="2.6771">
        <ele>102.99</ele>
        <time>2021-09-15T08:05:14Z</time>
      </trkpt>
      <trkpt lat="48.38026" lon="2.67721">
        <ele>99.87</ele>
        <time>2021-09-15T08:05:35Z</time>
      </trkpt>
      <trkpt lat="48.38" lon="2.67731">
        <ele>97.7</ele>
        <time>2021-09-15T08:05:55Z</time>
      </trkpt>
      <trkpt lat="48.37987" lon="2.67738">
        <ele>96.05</ele>
        <time>2021-09-15T08:06:13Z</time>
      </trkpt>
      <trkpt lat="48.37986" lon="2.67739">
        <ele>95.85</ele>
        <time>2021-09-15T08:06:29Z</time>
      </trkpt>
      <trkpt lat="48.37987" lon="2.67737">
        <ele>95.85</ele>
        <time>2021-09-15T08:06:47Z</time>
      </trkpt>
      <trkpt lat="48.37984" lon="2.67739">
        <ele>95.85</ele>
        <time>2021-09-15T08:07:14Z</time>
      </trkpt>
      <trkpt lat="48.37983" lon="2.67739">
        <ele>95.85</ele>
        <time>2021-09-15T08:07:38Z</time>
      </trkpt>
      <trkpt lat="48.37983" lon="2.67737">
        <ele>95.85</ele>
        <time>2021-09-15T08:08:09Z</time>
      </trkpt>
      <trkpt lat="48.37982" lon="2.67735">
        <ele>95.85</ele>
        <time>2021-09-15T08:08:35Z</time>
      </trkpt>
      <trkpt lat="48.3798" lon="2.67737">
        <ele>95.85</ele>
        <time>2021-09-15T08:09:10Z</time>
      </trkpt>
      <trkpt lat="48.37982" lon="2.67738">
        <ele>95.85</ele>
        <time>2021-09-15T08:09:48Z</time>
      </trkpt>
      <trkpt lat="48.37981" lon="2.67738">
        <ele>95.85</ele>
        <time>2021-09-15T08:10:14Z</time>
      </trkpt>
      <trkpt lat="48.3798" lon="2.67737">
        <ele>95.85</ele>
        <time>2021-09-15T08:10:36Z</time>
      </trkpt>
      <trkpt lat="48.3798" lon="2.67737">
        <ele>95.85</ele>
        <time>2021-09-15T08:10:55Z</time>
      </trkpt>
      <trkpt lat="48.37981" lon="2.67737">
        <ele>95.85</ele>
        <time>2021-09-15T08:11:25Z</time>
      </trkpt>
      <trkpt lat="48.37981" lon="2.67739">
        <ele>95.85</ele>
        <time>2021-09-15T08:11:59Z</time>
      </trkpt>
      <trkpt lat="48.37981" lon="2.67738">
        <ele>95.85</ele>
        <time>2021-09-15T08:12:39Z</time>
      </trkpt>
      <trkpt lat="48.37982" lon="2.67738">
        <ele>95.85</ele>
        <time>2021-09-15T08:12:52Z</time>
      </trkpt>
      <trkpt lat="48.37984" lon="2.67737">
        <ele>95.85</ele>
        <time>2021-09-15T08:13:21Z</time>
      </trkpt>
      <trkpt lat="48.37984" lon="2.67735">
        <ele>95.85</ele>
        <time>2021-09-15T08:14:07Z</time>
      </trkpt>
      <trkpt lat="48.37983" lon="2.67736">
        <ele>95.85</ele>
        <time>2021-09-15T08:14:38Z</time>
      </trkpt>
      <trkpt lat="48.37984" lon="2.67738">
        <ele>95.85</ele>
        <time>2021-09-15T08:15:13Z</time>
      </trkpt>
      <trkpt lat="48.37981" lon="2.67736">
        <ele>95.85</ele>
        <time>2021-09-15T08:15:36Z</time>
      </trkpt>
      <trkpt lat="48.37982" lon="2.67735">
        <ele>95.85</ele>
        <time>2021-09-15T08:16:09Z</time>
      </trkpt>
      <trkpt lat="48.37983" lon="2.67736">
        <ele>95.85</ele>
        <time>2021-09-15T08:16:31Z</time>
      </trkpt>
      <trkpt lat="48.37981" lon="2.67735">
        <ele>95.85</ele>
        <time>2021-09-15T08:16:54Z</time>
      </trkpt>
      <trkpt lat="48.37981" lon="2.67734">
        <ele>95.85</ele>
        <time>2021-09-15T08:17:18Z</time>
      </trkpt>
      <trkpt lat="48.37982" lon="2.67736">
        <ele>95.85</ele>
        <time>2021-09-15T08:17:43Z</time>
      </trkpt>
      <trkpt lat="48.37982" lon="2.67735">
        <ele>95.85</ele>
        <time>2021-09-15T08:18:14Z</time>
      </trkpt>
      <trkpt lat="48.37984" lon="2.67746">
        <ele>95.85</ele>
        <time>2021-09-15T08:18:38Z</time>
      </trkpt>
      <trkpt lat="48.3798" lon="2.67765">
        <ele>95.21</ele>
        <time>2021-09-15T08:18:54Z</time>
      </trkpt>
      <trkpt lat="48.37972" lon="2.67798">
        <ele>94.54</ele>
        <time>2021-09-15T08:19:18Z</time>
      </trkpt>
      <trkpt lat="48.37966" lon="2.67835">
        <ele>94.02</ele>
        <time>2021-09-15T08:19:36Z</time>
      </trkpt>
      <trkpt lat="48.3796" lon="2.67876">
        <ele>93.48</ele>
        <time>2021-09-15T08:19:54Z</time>
      </trkpt>
      <trkpt lat="48.37954" lon="2.67913">
        <ele>93.23</ele>
        <time>2021-09-15T08:20:13Z</time>
      </trkpt>
      <trkpt lat="48.37948" lon="2.67943">
        <ele>93.29</ele>
        <time>2021-09-15T08:20:31Z</time>
      </trkpt>
      <trkpt lat="48.37942" lon="2.67971">
        <ele>92</ele>
        <time>2021-09-15T08:20:49Z</time>
      </trkpt>
      <trkpt lat="48.37933" lon="2.68009">
        <ele>91.3</ele>
        <time>2021-09-15T08:21:11Z</time>
      </trkpt>
      <trkpt lat="48.37921" lon="2.68046">
        <ele>90.25</ele>
        <time>2021-09-15T08:21:39Z</time>
      </trkpt>
      <trkpt lat="48.37912" lon="2.68083">
        <ele>88.71</ele>
        <time>2021-09-15T08:21:59Z</time>
      </trkpt>
      <trkpt lat="48.3791" lon="2.68119">
        <ele>87.62</ele>
        <time>2021-09-15T08:22:18Z</time>
      </trkpt>
      <trkpt lat="48.379" lon="2.6816">
        <ele>86.16</ele>
        <time>2021-09-15T08:22:43Z</time>
      </trkpt>
      <trkpt lat="48.37891" lon="2.68203">
        <ele>85.25</ele>
        <time>2021-09-15T08:23:02Z</time>
      </trkpt>
      <trkpt lat="48.3789" lon="2.68204">
        <ele>85.29</ele>
        <time>2021-09-15T08:23:03Z</time>
      </trkpt>
      <trkpt lat="48.37888" lon="2.68206">
        <ele>85.93</ele>
        <time>2021-09-15T08:23:05Z</time>
      </trkpt>
      <trkpt lat="48.37886" lon="2.68206">
        <ele>86.24</ele>
        <time>2021-09-15T08:23:06Z</time>
      </trkpt>
      <trkpt lat="48.37885" lon="2.68207">
        <ele>86.67</ele>
        <time>2021-09-15T08:23:07Z</time>
      </trkpt>
      <trkpt lat="48.37884" lon="2.68206">
        <ele>86.74</ele>
        <time>2021-09-15T08:23:08Z</time>
      </trkpt>
      <trkpt lat="48.37878" lon="2.6819">
        <ele>86.36</ele>
        <time>2021-09-15T08:23:22Z</time>
      </trkpt>
      <trkpt lat="48.37876" lon="2.68183">
        <ele>86.28</ele>
        <time>2021-09-15T08:23:27Z</time>
      </trkpt>
      <trkpt lat="48.37873" lon="2.68165">
        <ele>86.83</ele>
        <time>2021-09-15T08:23:40Z</time>
      </trkpt>
      <trkpt lat="48.37866" lon="2.68154">
        <ele>87.09</ele>
        <time>2021-09-15T08:23:48Z</time>
      </trkpt>
      <trkpt lat="48.37865" lon="2.6815">
        <ele>86.98</ele>
        <time>2021-09-15T08:23:50Z</time>
      </trkpt>
      <trkpt lat="48.37865" lon="2.68148">
        <ele>87.01</ele>
        <time>2021-09-15T08:23:51Z</time>
      </trkpt>
      <trkpt lat="48.37865" lon="2.68147">
        <ele>87.06</ele>
        <time>2021-09-15T08:23:52Z</time>
      </trkpt>
      <trkpt lat="48.37859" lon="2.68127">
        <ele>88.4</ele>
        <time>2021-09-15T08:24:07Z</time>
      </trkpt>
      <trkpt lat="48.37859" lon="2.68101">
        <ele>88.88</ele>
        <time>2021-09-15T08:24:24Z</time>
      </trkpt>
      <trkpt lat="48.37854" lon="2.68068">
        <ele>90.7</ele>
        <time>2021-09-15T08:24:50Z</time>
      </trkpt>
      <trkpt lat="48.37842" lon="2.68031">
        <ele>93.45</ele>
        <time>2021-09-15T08:25:17Z</time>
      </trkpt>
      <trkpt lat="48.3783" lon="2.6801">
        <ele>96.54</ele>
        <time>2021-09-15T08:25:39Z</time>
      </trkpt>
      <trkpt lat="48.37824" lon="2.67997">
        <ele>99.67</ele>
        <time>2021-09-15T08:25:57Z</time>
      </trkpt>
      <trkpt lat="48.37805" lon="2.67986">
        <ele>102.81</ele>
        <time>2021-09-15T08:26:18Z</time>
      </trkpt>
      <trkpt lat="48.37795" lon="2.67986">
        <ele>105.87</ele>
        <time>2021-09-15T08:26:37Z</time>
      </trkpt>
      <trkpt lat="48.37798" lon="2.67967">
        <ele>108.8</ele>
        <time>2021-09-15T08:26:55Z</time>
      </trkpt>
      <trkpt lat="48.37804" lon="2.67953">
        <ele>111.1</ele>
        <time>2021-09-15T08:27:16Z</time>
      </trkpt>
      <trkpt lat="48.37806" lon="2.67949">
        <ele>111.52</ele>
        <time>2021-09-15T08:27:20Z</time>
      </trkpt>
      <trkpt lat="48.37809" lon="2.67948">
        <ele>111.7</ele>
        <time>2021-09-15T08:27:23Z</time>
      </trkpt>
      <trkpt lat="48.37811" lon="2.67934">
        <ele>114.75</ele>
        <time>2021-09-15T08:27:45Z</time>
      </trkpt>
      <trkpt lat="48.37815" lon="2.6792">
        <ele>117.6</ele>
        <time>2021-09-15T08:28:06Z</time>
      </trkpt>
      <trkpt lat="48.37819" lon="2.67914">
        <ele>118.96</ele>
        <time>2021-09-15T08:28:27Z</time>
      </trkpt>
      <trkpt lat="48.37826" lon="2.67896">
        <ele>120.31</ele>
        <time>2021-09-15T08:28:48Z</time>
      </trkpt>
      <trkpt lat="48.37835" lon="2.67888">
        <ele>121.5</ele>
        <time>2021-09-15T08:29:13Z</time>
      </trkpt>
      <trkpt lat="48.37841" lon="2.67894">
        <ele>120.73</ele>
        <time>2021-09-15T08:29:35Z</time>
      </trkpt>
      <trkpt lat="48.37849" lon="2.67892">
        <ele>120.5</ele>
        <time>2021-09-15T08:29:51Z</time>
      </trkpt>
      <trkpt lat="48.37856" lon="2.67875">
        <ele>120.8</ele>
        <time>2021-09-15T08:30:08Z</time>
      </trkpt>
      <trkpt lat="48.37858" lon="2.67846">
        <ele>120.99</ele>
        <time>2021-09-15T08:30:28Z</time>
      </trkpt>
      <trkpt lat="48.3786" lon="2.67827">
        <ele>121.89</ele>
        <time>2021-09-15T08:30:48Z</time>
      </trkpt>
      <trkpt lat="48.37864" lon="2.67807">
        <ele>121.01</ele>
        <time>2021-09-15T08:31:07Z</time>
      </trkpt>
      <trkpt lat="48.37859" lon="2.6779">
        <ele>120.17</ele>
        <time>2021-09-15T08:31:22Z</time>
      </trkpt>
      <trkpt lat="48.37857" lon="2.67773">
        <ele>119.91</ele>
        <time>2021-09-15T08:31:39Z</time>
      </trkpt>
      <trkpt lat="48.37859" lon="2.67754">
        <ele>119.91</ele>
        <time>2021-09-15T08:31:56Z</time>
      </trkpt>
      <trkpt lat="48.37853" lon="2.67734">
        <ele>117.78</ele>
        <time>2021-09-15T08:32:15Z</time>
      </trkpt>
      <trkpt lat="48.37844" lon="2.67726">
        <ele>119.77</ele>
        <time>2021-09-15T08:32:33Z</time>
      </trkpt>
      <trkpt lat="48.37841" lon="2.67711">
        <ele>120.76</ele>
        <time>2021-09-15T08:32:49Z</time>
      </trkpt>
      <trkpt lat="48.37838" lon="2.67692">
        <ele>119.16</ele>
        <time>2021-09-15T08:33:05Z</time>
      </trkpt>
      <trkpt lat="48.37833" lon="2.67668">
        <ele>120.16</ele>
        <time>2021-09-15T08:33:23Z</time>
      </trkpt>
      <trkpt lat="48.37829" lon="2.67647">
        <ele>119.79</ele>
        <time>2021-09-15T08:33:36Z</time>
      </trkpt>
      <trkpt lat="48.37826" lon="2.67635">
        <ele>119.47</ele>
        <time>2021-09-15T08:33:45Z</time>
      </trkpt>
      <trkpt lat="48.37825" lon="2.67615">
        <ele>120.63</ele>
        <time>2021-09-15T08:33:58Z</time>
      </trkpt>
      <trkpt lat="48.3782" lon="2.67588">
        <ele>120.38</ele>
        <time>2021-09-15T08:34:21Z</time>
      </trkpt>
      <trkpt lat="48.3782" lon="2.67583">
        <ele>120.77</ele>
        <time>2021-09-15T08:34:44Z</time>
      </trkpt>
      <trkpt lat="48.37818" lon="2.67577">
        <ele>121.17</ele>
        <time>2021-09-15T08:35:02Z</time>
      </trkpt>
      <trkpt lat="48.37809" lon="2.67556">
        <ele>118.42</ele>
        <time>2021-09-15T08:35:27Z</time>
      </trkpt>
      <trkpt lat="48.37808" lon="2.67546">
        <ele>119.84</ele>
        <time>2021-09-15T08:35:43Z</time>
      </trkpt>
      <trkpt lat="48.37808" lon="2.67543">
        <ele>118.97</ele>
        <time>2021-09-15T08:35:52Z</time>
      </trkpt>
      <trkpt lat="48.37816" lon="2.67538">
        <ele>120.33</ele>
        <time>2021-09-15T08:36:12Z</time>
      </trkpt>
      <trkpt lat="48.37822" lon="2.67538">
        <ele>120.96</ele>
        <time>2021-09-15T08:36:30Z</time>
      </trkpt>
      <trkpt lat="48.37821" lon="2.6755">
        <ele>121.57</ele>
        <time>2021-09-15T08:37:00Z</time>
      </trkpt>
      <trkpt lat="48.37831" lon="2.67565">
        <ele>121.57</ele>
        <time>2021-09-15T08:37:21Z</time>
      </trkpt>
      <trkpt lat="48.3784" lon="2.67576">
        <ele>120.44</ele>
        <time>2021-09-15T08:37:31Z</time>
      </trkpt>
      <trkpt lat="48.37851" lon="2.67587">
        <ele>120.94</ele>
        <time>2021-09-15T08:37:45Z</time>
      </trkpt>
      <trkpt lat="48.37852" lon="2.67588">
        <ele>120.84</ele>
        <time>2021-09-15T08:37:46Z</time>
      </trkpt>
      <trkpt lat="48.37853" lon="2.67589">
        <ele>120.64</ele>
        <time>2021-09-15T08:37:47Z</time>
      </trkpt>
      <trkpt lat="48.37855" lon="2.6759">
        <ele>120.34</ele>
        <time>2021-09-15T08:37:48Z</time>
      </trkpt>
      <trkpt lat="48.37875" lon="2.67602">
        <ele>120.13</ele>
        <time>2021-09-15T08:38:09Z</time>
      </trkpt>
      <trkpt lat="48.37886" lon="2.67591">
        <ele>118.58</ele>
        <time>2021-09-15T08:38:25Z</time>
      </trkpt>
      <trkpt lat="48.37895" lon="2.67597">
        <ele>115.84</ele>
        <time>2021-09-15T08:38:42Z</time>
      </trkpt>
      <trkpt lat="48.37901" lon="2.67607">
        <ele>114.09</ele>
        <time>2021-09-15T08:38:51Z</time>
      </trkpt>
      <trkpt lat="48.37904" lon="2.67612">
        <ele>113.74</ele>
        <time>2021-09-15T08:38:55Z</time>
      </trkpt>
      <trkpt lat="48.37905" lon="2.67613">
        <ele>113.7</ele>
        <time>2021-09-15T08:38:56Z</time>
      </trkpt>
      <trkpt lat="48.37917" lon="2.67613">
        <ele>114.75</ele>
        <time>2021-09-15T08:39:15Z</time>
      </trkpt>
      <trkpt lat="48.37917" lon="2.676">
        <ele>117.69</ele>
        <time>2021-09-15T08:39:29Z</time>
      </trkpt>
      <trkpt lat="48.37922" lon="2.67591">
        <ele>118.14</ele>
        <time>2021-09-15T08:39:48Z</time>
      </trkpt>
      <trkpt lat="48.37931" lon="2.67581">
        <ele>117.51</ele>
        <time>2021-09-15T08:40:08Z</time>
      </trkpt>
      <trkpt lat="48.3794" lon="2.67559">
        <ele>116.25</ele>
        <time>2021-09-15T08:40:26Z</time>
      </trkpt>
      <trkpt lat="48.37947" lon="2.67551">
        <ele>116.51</ele>
        <time>2021-09-15T08:40:35Z</time>
      </trkpt>
      <trkpt lat="48.37948" lon="2.6755">
        <ele>116.52</ele>
        <time>2021-09-15T08:40:36Z</time>
      </trkpt>
      <trkpt lat="48.37953" lon="2.67546">
        <ele>116.73</ele>
        <time>2021-09-15T08:40:52Z</time>
      </trkpt>
      <trkpt lat="48.37951" lon="2.67537">
        <ele>117.38</ele>
        <time>2021-09-15T08:41:15Z</time>
      </trkpt>
      <trkpt lat="48.37956" lon="2.67514">
        <ele>119.48</ele>
        <time>2021-09-15T08:41:34Z</time>
      </trkpt>
      <trkpt lat="48.37957" lon="2.67513">
        <ele>119.5</ele>
        <time>2021-09-15T08:41:35Z</time>
      </trkpt>
      <trkpt lat="48.37958" lon="2.67512">
        <ele>119.5</ele>
        <time>2021-09-15T08:41:36Z</time>
      </trkpt>
      <trkpt lat="48.37959" lon="2.6751">
        <ele>119.49</ele>
        <time>2021-09-15T08:41:37Z</time>
      </trkpt>
      <trkpt lat="48.3796" lon="2.67505">
        <ele>118.73</ele>
        <time>2021-09-15T08:41:40Z</time>
      </trkpt>
      <trkpt lat="48.37961" lon="2.67503">
        <ele>118.52</ele>
        <time>2021-09-15T08:41:41Z</time>
      </trkpt>
      <trkpt lat="48.37961" lon="2.67502">
        <ele>118.35</ele>
        <time>2021-09-15T08:41:42Z</time>
      </trkpt>
      <trkpt lat="48.37961" lon="2.67491">
        <ele>117.09</ele>
        <time>2021-09-15T08:41:56Z</time>
      </trkpt>
      <trkpt lat="48.37964" lon="2.67476">
        <ele>116.8</ele>
        <time>2021-09-15T08:42:12Z</time>
      </trkpt>
      <trkpt lat="48.37961" lon="2.67465">
        <ele>117.76</ele>
        <time>2021-09-15T08:42:25Z</time>
      </trkpt>
      <trkpt lat="48.37962" lon="2.67462">
        <ele>117.81</ele>
        <time>2021-09-15T08:42:27Z</time>
      </trkpt>
      <trkpt lat="48.37964" lon="2.67444">
        <ele>117.73</ele>
        <time>2021-09-15T08:42:44Z</time>
      </trkpt>
      <trkpt lat="48.37964" lon="2.67414">
        <ele>118.2</ele>
        <time>2021-09-15T08:43:06Z</time>
      </trkpt>
      <trkpt lat="48.37963" lon="2.67394">
        <ele>119.56</ele>
        <time>2021-09-15T08:43:23Z</time>
      </trkpt>
      <trkpt lat="48.37964" lon="2.67389">
        <ele>119.05</ele>
        <time>2021-09-15T08:43:28Z</time>
      </trkpt>
      <trkpt lat="48.37958" lon="2.67377">
        <ele>118.02</ele>
        <time>2021-09-15T08:43:41Z</time>
      </trkpt>
      <trkpt lat="48.37941" lon="2.67372">
        <ele>118.49</ele>
        <time>2021-09-15T08:44:00Z</time>
      </trkpt>
      <trkpt lat="48.37935" lon="2.67371">
        <ele>118.78</ele>
        <time>2021-09-15T08:44:05Z</time>
      </trkpt>
      <trkpt lat="48.37933" lon="2.67371">
        <ele>118.85</ele>
        <time>2021-09-15T08:44:06Z</time>
      </trkpt>
      <trkpt lat="48.37923" lon="2.67368">
        <ele>118.55</ele>
        <time>2021-09-15T08:44:19Z</time>
      </trkpt>
      <trkpt lat="48.37922" lon="2.67368">
        <ele>118.58</ele>
        <time>2021-09-15T08:44:20Z</time>
      </trkpt>
      <trkpt lat="48.3792" lon="2.67368">
        <ele>118.61</ele>
        <time>2021-09-15T08:44:21Z</time>
      </trkpt>
      <trkpt lat="48.37918" lon="2.67369">
        <ele>118.65</ele>
        <time>2021-09-15T08:44:22Z</time>
      </trkpt>
      <trkpt lat="48.37902" lon="2.67365">
        <ele>119.03</ele>
        <time>2021-09-15T08:44:38Z</time>
      </trkpt>
      <trkpt lat="48.37898" lon="2.67351">
        <ele>117.64</ele>
        <time>2021-09-15T08:44:55Z</time>
      </trkpt>
      <trkpt lat="48.3791" lon="2.67333">
        <ele>119.75</ele>
        <time>2021-09-15T08:45:16Z</time>
      </trkpt>
      <trkpt lat="48.37911" lon="2.67332">
        <ele>119.68</ele>
        <time>2021-09-15T08:45:17Z</time>
      </trkpt>
      <trkpt lat="48.37912" lon="2.67331">
        <ele>119.61</ele>
        <time>2021-09-15T08:45:18Z</time>
      </trkpt>
      <trkpt lat="48.37919" lon="2.67318">
        <ele>118.33</ele>
        <time>2021-09-15T08:45:28Z</time>
      </trkpt>
      <trkpt lat="48.37927" lon="2.67305">
        <ele>117.63</ele>
        <time>2021-09-15T08:45:43Z</time>
      </trkpt>
      <trkpt lat="48.37935" lon="2.67296">
        <ele>117.96</ele>
        <time>2021-09-15T08:45:55Z</time>
      </trkpt>
      <trkpt lat="48.37936" lon="2.67294">
        <ele>117.96</ele>
        <time>2021-09-15T08:45:56Z</time>
      </trkpt>
      <trkpt lat="48.37937" lon="2.67294">
        <ele>117.94</ele>
        <time>2021-09-15T08:45:57Z</time>
      </trkpt>
      <trkpt lat="48.37944" lon="2.67282">
        <ele>116.71</ele>
        <time>2021-09-15T08:46:08Z</time>
      </trkpt>
      <trkpt lat="48.37951" lon="2.67267">
        <ele>117.41</ele>
        <time>2021-09-15T08:46:22Z</time>
      </trkpt>
      <trkpt lat="48.37956" lon="2.67245">
        <ele>115.76</ele>
        <time>2021-09-15T08:46:40Z</time>
      </trkpt>
      <trkpt lat="48.3796" lon="2.67228">
        <ele>116.99</ele>
        <time>2021-09-15T08:47:05Z</time>
      </trkpt>
      <trkpt lat="48.37968" lon="2.67224">
        <ele>118.32</ele>
        <time>2021-09-15T08:47:26Z</time>
      </trkpt>
      <trkpt lat="48.37977" lon="2.67226">
        <ele>116</ele>
        <time>2021-09-15T08:47:43Z</time>
      </trkpt>
      <trkpt lat="48.37979" lon="2.67221">
        <ele>115.98</ele>
        <time>2021-09-15T08:47:48Z</time>
      </trkpt>
      <trkpt lat="48.3798" lon="2.67218">
        <ele>115.7</ele>
        <time>2021-09-15T08:47:50Z</time>
      </trkpt>
      <trkpt lat="48.37981" lon="2.67217">
        <ele>115.52</ele>
        <time>2021-09-15T08:47:51Z</time>
      </trkpt>
      <trkpt lat="48.37982" lon="2.67216">
        <ele>115.37</ele>
        <time>2021-09-15T08:47:52Z</time>
      </trkpt>
      <trkpt lat="48.37983" lon="2.67216">
        <ele>115.22</ele>
        <time>2021-09-15T08:47:53Z</time>
      </trkpt>
      <trkpt lat="48.37984" lon="2.67217">
        <ele>115.14</ele>
        <time>2021-09-15T08:47:54Z</time>
      </trkpt>
      <trkpt lat="48.37985" lon="2.67217">
        <ele>115.01</ele>
        <time>2021-09-15T08:47:55Z</time>
      </trkpt>
      <trkpt lat="48.3799" lon="2.67215">
        <ele>112.46</ele>
        <time>2021-09-15T08:48:09Z</time>
      </trkpt>
      <trkpt lat="48.37988" lon="2.67211">
        <ele>114.01</ele>
        <time>2021-09-15T08:48:13Z</time>
      </trkpt>
      <trkpt lat="48.37984" lon="2.67194">
        <ele>111.9</ele>
        <time>2021-09-15T08:48:32Z</time>
      </trkpt>
      <trkpt lat="48.37991" lon="2.6718">
        <ele>111.15</ele>
        <time>2021-09-15T08:48:49Z</time>
      </trkpt>
      <trkpt lat="48.37995" lon="2.67163">
        <ele>108.85</ele>
        <time>2021-09-15T08:49:08Z</time>
      </trkpt>
      <trkpt lat="48.37995" lon="2.67173">
        <ele>108.57</ele>
        <time>2021-09-15T08:49:29Z</time>
      </trkpt>
      <trkpt lat="48.37988" lon="2.6718">
        <ele>110.3</ele>
        <time>2021-09-15T08:49:51Z</time>
      </trkpt>
      <trkpt lat="48.37984" lon="2.67183">
        <ele>110.76</ele>
        <time>2021-09-15T08:50:06Z</time>
      </trkpt>
      <trkpt lat="48.37989" lon="2.6718">
        <ele>110.75</ele>
        <time>2021-09-15T08:50:24Z</time>
      </trkpt>
      <trkpt lat="48.37992" lon="2.67167">
        <ele>108.93</ele>
        <time>2021-09-15T08:50:45Z</time>
      </trkpt>
      <trkpt lat="48.37987" lon="2.6716">
        <ele>108.59</ele>
        <time>2021-09-15T08:51:04Z</time>
      </trkpt>
      <trkpt lat="48.3798" lon="2.67148">
        <ele>107.21</ele>
        <time>2021-09-15T08:51:20Z</time>
      </trkpt>
      <trkpt lat="48.37975" lon="2.67148">
        <ele>104.35</ele>
        <time>2021-09-15T08:51:34Z</time>
      </trkpt>
      <trkpt lat="48.37973" lon="2.67141">
        <ele>102.29</ele>
        <time>2021-09-15T08:51:48Z</time>
      </trkpt>
      <trkpt lat="48.37966" lon="2.67132">
        <ele>99.25</ele>
        <time>2021-09-15T08:52:06Z</time>
      </trkpt>
      <trkpt lat="48.37956" lon="2.6715">
        <ele>99.54</ele>
        <time>2021-09-15T08:52:34Z</time>
      </trkpt>
      <trkpt lat="48.37953" lon="2.67152">
        <ele>99.8</ele>
        <time>2021-09-15T08:53:08Z</time>
      </trkpt>
      <trkpt lat="48.37945" lon="2.67167">
        <ele>99.03</ele>
        <time>2021-09-15T08:53:35Z</time>
      </trkpt>
      <trkpt lat="48.37938" lon="2.67198">
        <ele>100.52</ele>
        <time>2021-09-15T08:53:56Z</time>
      </trkpt>
      <trkpt lat="48.37931" lon="2.67219">
        <ele>101.44</ele>
        <time>2021-09-15T08:54:12Z</time>
      </trkpt>
      <trkpt lat="48.37924" lon="2.67244">
        <ele>101.06</ele>
        <time>2021-09-15T08:54:30Z</time>
      </trkpt>
      <trkpt lat="48.37919" lon="2.67261">
        <ele>102.56</ele>
        <time>2021-09-15T08:54:46Z</time>
      </trkpt>
      <trkpt lat="48.3791" lon="2.67272">
        <ele>103.58</ele>
        <time>2021-09-15T08:55:03Z</time>
      </trkpt>
      <trkpt lat="48.37909" lon="2.67273">
        <ele>103.53</ele>
        <time>2021-09-15T08:55:05Z</time>
      </trkpt>
      <trkpt lat="48.37904" lon="2.67278">
        <ele>103.57</ele>
        <time>2021-09-15T08:55:22Z</time>
      </trkpt>
      <trkpt lat="48.37903" lon="2.6728">
        <ele>105.05</ele>
        <time>2021-09-15T08:55:25Z</time>
      </trkpt>
      <trkpt lat="48.37898" lon="2.67296">
        <ele>104.77</ele>
        <time>2021-09-15T08:55:41Z</time>
      </trkpt>
      <trkpt lat="48.37893" lon="2.67314">
        <ele>107.8</ele>
        <time>2021-09-15T08:55:59Z</time>
      </trkpt>
      <trkpt lat="48.37886" lon="2.67318">
        <ele>110.9</ele>
        <time>2021-09-15T08:56:14Z</time>
      </trkpt>
      <trkpt lat="48.37881" lon="2.67325">
        <ele>113.28</ele>
        <time>2021-09-15T08:56:29Z</time>
      </trkpt>
      <trkpt lat="48.37881" lon="2.6734">
        <ele>115.13</ele>
        <time>2021-09-15T08:56:46Z</time>
      </trkpt>
      <trkpt lat="48.37877" lon="2.67352">
        <ele>118.16</ele>
        <time>2021-09-15T08:57:02Z</time>
      </trkpt>
      <trkpt lat="48.37873" lon="2.67371">
        <ele>120.85</ele>
        <time>2021-09-15T08:57:21Z</time>
      </trkpt>
      <trkpt lat="48.37861" lon="2.67366">
        <ele>121.52</ele>
        <time>2021-09-15T08:57:35Z</time>
      </trkpt>
      <trkpt lat="48.37855" lon="2.67354">
        <ele>121.32</ele>
        <time>2021-09-15T08:57:57Z</time>
      </trkpt>
      <trkpt lat="48.37844" lon="2.67333">
        <ele>121.42</ele>
        <time>2021-09-15T08:58:15Z</time>
      </trkpt>
      <trkpt lat="48.37837" lon="2.67316">
        <ele>120.82</ele>
        <time>2021-09-15T08:58:31Z</time>
      </trkpt>
      <trkpt lat="48.37828" lon="2.67303">
        <ele>119.32</ele>
        <time>2021-09-15T08:58:46Z</time>
      </trkpt>
      <trkpt lat="48.37828" lon="2.67301">
        <ele>118.66</ele>
        <time>2021-09-15T08:58:48Z</time>
      </trkpt>
      <trkpt lat="48.37825" lon="2.67296">
        <ele>122.35</ele>
        <time>2021-09-15T08:58:52Z</time>
      </trkpt>
      <trkpt lat="48.37824" lon="2.67293">
        <ele>123.05</ele>
        <time>2021-09-15T08:58:54Z</time>
      </trkpt>
      <trkpt lat="48.37821" lon="2.67287">
        <ele>121.06</ele>
        <time>2021-09-15T08:59:01Z</time>
      </trkpt>
      <trkpt lat="48.37809" lon="2.67266">
        <ele>122.41</ele>
        <time>2021-09-15T08:59:20Z</time>
      </trkpt>
      <trkpt lat="48.37802" lon="2.67253">
        <ele>121.16</ele>
        <time>2021-09-15T08:59:32Z</time>
      </trkpt>
      <trkpt lat="48.37801" lon="2.67247">
        <ele>123.16</ele>
        <time>2021-09-15T08:59:37Z</time>
      </trkpt>
      <trkpt lat="48.37802" lon="2.67246">
        <ele>123.28</ele>
        <time>2021-09-15T08:59:38Z</time>
      </trkpt>
      <trkpt lat="48.37804" lon="2.67243">
        <ele>122.86</ele>
        <time>2021-09-15T08:59:40Z</time>
      </trkpt>
      <trkpt lat="48.37808" lon="2.67242">
        <ele>121.86</ele>
        <time>2021-09-15T08:59:46Z</time>
      </trkpt>
      <trkpt lat="48.37816" lon="2.67239">
        <ele>121.37</ele>
        <time>2021-09-15T08:59:58Z</time>
      </trkpt>
      <trkpt lat="48.37826" lon="2.67236">
        <ele>120.45</ele>
        <time>2021-09-15T09:00:21Z</time>
      </trkpt>
      <trkpt lat="48.37829" lon="2.67227">
        <ele>120.16</ele>
        <time>2021-09-15T09:00:42Z</time>
      </trkpt>
      <trkpt lat="48.37832" lon="2.67229">
        <ele>119.94</ele>
        <time>2021-09-15T09:01:10Z</time>
      </trkpt>
      <trkpt lat="48.37839" lon="2.67224">
        <ele>116.91</ele>
        <time>2021-09-15T09:01:20Z</time>
      </trkpt>
      <trkpt lat="48.37843" lon="2.6722">
        <ele>119.38</ele>
        <time>2021-09-15T09:01:25Z</time>
      </trkpt>
      <trkpt lat="48.37852" lon="2.6721">
        <ele>121.92</ele>
        <time>2021-09-15T09:01:42Z</time>
      </trkpt>
      <trkpt lat="48.37861" lon="2.67194">
        <ele>122.38</ele>
        <time>2021-09-15T09:02:00Z</time>
      </trkpt>
      <trkpt lat="48.37868" lon="2.67181">
        <ele>120.83</ele>
        <time>2021-09-15T09:02:16Z</time>
      </trkpt>
      <trkpt lat="48.37873" lon="2.67189">
        <ele>118.5</ele>
        <time>2021-09-15T09:02:34Z</time>
      </trkpt>
      <trkpt lat="48.37874" lon="2.67208">
        <ele>118.66</ele>
        <time>2021-09-15T09:02:50Z</time>
      </trkpt>
      <trkpt lat="48.3787" lon="2.67222">
        <ele>118.91</ele>
        <time>2021-09-15T09:03:05Z</time>
      </trkpt>
      <trkpt lat="48.37877" lon="2.67238">
        <ele>117.82</ele>
        <time>2021-09-15T09:03:19Z</time>
      </trkpt>
      <trkpt lat="48.37873" lon="2.67254">
        <ele>118.22</ele>
        <time>2021-09-15T09:03:34Z</time>
      </trkpt>
      <trkpt lat="48.37872" lon="2.67259">
        <ele>119.05</ele>
        <time>2021-09-15T09:03:52Z</time>
      </trkpt>
      <trkpt lat="48.37877" lon="2.6725">
        <ele>118.71</ele>
        <time>2021-09-15T09:04:15Z</time>
      </trkpt>
      <trkpt lat="48.37879" lon="2.67238">
        <ele>118.71</ele>
        <time>2021-09-15T09:04:35Z</time>
      </trkpt>
      <trkpt lat="48.37883" lon="2.67229">
        <ele>118.71</ele>
        <time>2021-09-15T09:04:51Z</time>
      </trkpt>
      <trkpt lat="48.37884" lon="2.67221">
        <ele>116.04</ele>
        <time>2021-09-15T09:04:58Z</time>
      </trkpt>
      <trkpt lat="48.37887" lon="2.67202">
        <ele>114.36</ele>
        <time>2021-09-15T09:05:18Z</time>
      </trkpt>
      <trkpt lat="48.37888" lon="2.67183">
        <ele>112.64</ele>
        <time>2021-09-15T09:05:37Z</time>
      </trkpt>
      <trkpt lat="48.37894" lon="2.67166">
        <ele>110.91</ele>
        <time>2021-09-15T09:05:52Z</time>
      </trkpt>
      <trkpt lat="48.37902" lon="2.6715">
        <ele>110.16</ele>
        <time>2021-09-15T09:06:09Z</time>
      </trkpt>
      <trkpt lat="48.37907" lon="2.67131">
        <ele>107.08</ele>
        <time>2021-09-15T09:06:24Z</time>
      </trkpt>
      <trkpt lat="48.37919" lon="2.67129">
        <ele>103.43</ele>
        <time>2021-09-15T09:06:42Z</time>
      </trkpt>
      <trkpt lat="48.37929" lon="2.67135">
        <ele>102.27</ele>
        <time>2021-09-15T09:07:00Z</time>
      </trkpt>
      <trkpt lat="48.37939" lon="2.67148">
        <ele>100.11</ele>
        <time>2021-09-15T09:07:15Z</time>
      </trkpt>
      <trkpt lat="48.37942" lon="2.67164">
        <ele>99.23</ele>
        <time>2021-09-15T09:07:31Z</time>
      </trkpt>
      <trkpt lat="48.37952" lon="2.6716">
        <ele>98.66</ele>
        <time>2021-09-15T09:07:49Z</time>
      </trkpt>
      <trkpt lat="48.37964" lon="2.67139">
        <ele>98.72</ele>
        <time>2021-09-15T09:08:07Z</time>
      </trkpt>
      <trkpt lat="48.37971" lon="2.67115">
        <ele>98.85</ele>
        <time>2021-09-15T09:08:25Z</time>
      </trkpt>
      <trkpt lat="48.37973" lon="2.67097">
        <ele>102.97</ele>
        <time>2021-09-15T09:08:47Z</time>
      </trkpt>
      <trkpt lat="48.37974" lon="2.67096">
        <ele>103.62</ele>
        <time>2021-09-15T09:08:49Z</time>
      </trkpt>
      <trkpt lat="48.37983" lon="2.67085">
        <ele>106.15</ele>
        <time>2021-09-15T09:09:12Z</time>
      </trkpt>
      <trkpt lat="48.37983" lon="2.6707">
        <ele>107.95</ele>
        <time>2021-09-15T09:09:34Z</time>
      </trkpt>
      <trkpt lat="48.37973" lon="2.67066">
        <ele>110.96</ele>
        <time>2021-09-15T09:09:58Z</time>
      </trkpt>
      <trkpt lat="48.37964" lon="2.67051">
        <ele>113.5</ele>
        <time>2021-09-15T09:10:17Z</time>
      </trkpt>
      <trkpt lat="48.37952" lon="2.67049">
        <ele>115.92</ele>
        <time>2021-09-15T09:10:32Z</time>
      </trkpt>
      <trkpt lat="48.37951" lon="2.67032">
        <ele>118.07</ele>
        <time>2021-09-15T09:10:55Z</time>
      </trkpt>
      <trkpt lat="48.37959" lon="2.67023">
        <ele>120.58</ele>
        <time>2021-09-15T09:11:15Z</time>
      </trkpt>
      <trkpt lat="48.37955" lon="2.6701">
        <ele>119.19</ele>
        <time>2021-09-15T09:11:40Z</time>
      </trkpt>
      <trkpt lat="48.37942" lon="2.6701">
        <ele>117.56</ele>
        <time>2021-09-15T09:12:02Z</time>
      </trkpt>
      <trkpt lat="48.37932" lon="2.67005">
        <ele>118.37</ele>
        <time>2021-09-15T09:12:22Z</time>
      </trkpt>
      <trkpt lat="48.37921" lon="2.6701">
        <ele>120.72</ele>
        <time>2021-09-15T09:12:40Z</time>
      </trkpt>
      <trkpt lat="48.37913" lon="2.67006">
        <ele>119.85</ele>
        <time>2021-09-15T09:13:00Z</time>
      </trkpt>
      <trkpt lat="48.37901" lon="2.67004">
        <ele>120.85</ele>
        <time>2021-09-15T09:13:18Z</time>
      </trkpt>
      <trkpt lat="48.3789" lon="2.66995">
        <ele>121.14</ele>
        <time>2021-09-15T09:13:39Z</time>
      </trkpt>
      <trkpt lat="48.3789" lon="2.66984">
        <ele>121.6</ele>
        <time>2021-09-15T09:13:58Z</time>
      </trkpt>
      <trkpt lat="48.37885" lon="2.66981">
        <ele>119.89</ele>
        <time>2021-09-15T09:14:13Z</time>
      </trkpt>
      <trkpt lat="48.37875" lon="2.66985">
        <ele>118.2</ele>
        <time>2021-09-15T09:14:32Z</time>
      </trkpt>
      <trkpt lat="48.37873" lon="2.66981">
        <ele>114.53</ele>
        <time>2021-09-15T09:14:44Z</time>
      </trkpt>
      <trkpt lat="48.37873" lon="2.66981">
        <ele>113.81</ele>
        <time>2021-09-15T09:14:46Z</time>
      </trkpt>
      <trkpt lat="48.37874" lon="2.66979">
        <ele>117.19</ele>
        <time>2021-09-15T09:14:55Z</time>
      </trkpt>
      <trkpt lat="48.37874" lon="2.66978">
        <ele>118.13</ele>
        <time>2021-09-15T09:14:57Z</time>
      </trkpt>
      <trkpt lat="48.37874" lon="2.66965">
        <ele>115.66</ele>
        <time>2021-09-15T09:15:11Z</time>
      </trkpt>
      <trkpt lat="48.37872" lon="2.66961">
        <ele>114.85</ele>
        <time>2021-09-15T09:15:14Z</time>
      </trkpt>
      <trkpt lat="48.37872" lon="2.6696">
        <ele>114.54</ele>
        <time>2021-09-15T09:15:15Z</time>
      </trkpt>
      <trkpt lat="48.37874" lon="2.66954">
        <ele>111.24</ele>
        <time>2021-09-15T09:15:22Z</time>
      </trkpt>
      <trkpt lat="48.37875" lon="2.66952">
        <ele>110.44</ele>
        <time>2021-09-15T09:15:24Z</time>
      </trkpt>
      <trkpt lat="48.37879" lon="2.66939">
        <ele>110.13</ele>
        <time>2021-09-15T09:15:35Z</time>
      </trkpt>
      <trkpt lat="48.37875" lon="2.66934">
        <ele>107.03</ele>
        <time>2021-09-15T09:15:47Z</time>
      </trkpt>
      <trkpt lat="48.37869" lon="2.66933">
        <ele>105.13</ele>
        <time>2021-09-15T09:16:14Z</time>
      </trkpt>
      <trkpt lat="48.37868" lon="2.66911">
        <ele>103.13</ele>
        <time>2021-09-15T09:16:42Z</time>
      </trkpt>
      <trkpt lat="48.37875" lon="2.66886">
        <ele>100.09</ele>
        <time>2021-09-15T09:17:03Z</time>
      </trkpt>
      <trkpt lat="48.37874" lon="2.66867">
        <ele>98.03</ele>
        <time>2021-09-15T09:17:16Z</time>
      </trkpt>
      <trkpt lat="48.37874" lon="2.66853">
        <ele>94.9</ele>
        <time>2021-09-15T09:17:27Z</time>
      </trkpt>
      <trkpt lat="48.37862" lon="2.66814">
        <ele>93.37</ele>
        <time>2021-09-15T09:17:55Z</time>
      </trkpt>
      <trkpt lat="48.37864" lon="2.66779">
        <ele>92.2</ele>
        <time>2021-09-15T09:18:22Z</time>
      </trkpt>
      <trkpt lat="48.3786" lon="2.66753">
        <ele>92</ele>
        <time>2021-09-15T09:18:44Z</time>
      </trkpt>
      <trkpt lat="48.37856" lon="2.66739">
        <ele>89.77</ele>
        <time>2021-09-15T09:18:52Z</time>
      </trkpt>
      <trkpt lat="48.3785" lon="2.66709">
        <ele>91.1</ele>
        <time>2021-09-15T09:19:15Z</time>
      </trkpt>
      <trkpt lat="48.37841" lon="2.66671">
        <ele>91.43</ele>
        <time>2021-09-15T09:19:42Z</time>
      </trkpt>
      <trkpt lat="48.37838" lon="2.66652">
        <ele>92.52</ele>
        <time>2021-09-15T09:19:58Z</time>
      </trkpt>
      <trkpt lat="48.37837" lon="2.66645">
        <ele>92</ele>
        <time>2021-09-15T09:20:23Z</time>
      </trkpt>
      <trkpt lat="48.37837" lon="2.66645">
        <ele>92.37</ele>
        <time>2021-09-15T09:20:47Z</time>
      </trkpt>
      <trkpt lat="48.37839" lon="2.66646">
        <ele>92.61</ele>
        <time>2021-09-15T09:21:03Z</time>
      </trkpt>
      <trkpt lat="48.37841" lon="2.66649">
        <ele>92.89</ele>
        <time>2021-09-15T09:21:40Z</time>
      </trkpt>
      <trkpt lat="48.3784" lon="2.66651">
        <ele>94.1</ele>
        <time>2021-09-15T09:21:55Z</time>
      </trkpt>
      <trkpt lat="48.3784" lon="2.66651">
        <ele>93.3</ele>
        <time>2021-09-15T09:21:57Z</time>
      </trkpt>
      <trkpt lat="48.37839" lon="2.66651">
        <ele>93.01</ele>
        <time>2021-09-15T09:22:27Z</time>
      </trkpt>
      <trkpt lat="48.37839" lon="2.6665">
        <ele>93.01</ele>
        <time>2021-09-15T09:22:50Z</time>
      </trkpt>
      <trkpt lat="48.37838" lon="2.6665">
        <ele>93.01</ele>
        <time>2021-09-15T09:23:12Z</time>
      </trkpt>
      <trkpt lat="48.37837" lon="2.66651">
        <ele>93.01</ele>
        <time>2021-09-15T09:23:56Z</time>
      </trkpt>
      <trkpt lat="48.37837" lon="2.66652">
        <ele>93.01</ele>
        <time>2021-09-15T09:24:47Z</time>
      </trkpt>
      <trkpt lat="48.37837" lon="2.66651">
        <ele>93.01</ele>
        <time>2021-09-15T09:25:21Z</time>
      </trkpt>
      <trkpt lat="48.37836" lon="2.66645">
        <ele>93.01</ele>
        <time>2021-09-15T09:25:46Z</time>
      </trkpt>
      <trkpt lat="48.3783" lon="2.66638">
        <ele>92.65</ele>
        <time>2021-09-15T09:25:59Z</time>
      </trkpt>
      <trkpt lat="48.37818" lon="2.66626">
        <ele>92.25</ele>
        <time>2021-09-15T09:26:18Z</time>
      </trkpt>
      <trkpt lat="48.37815" lon="2.66625">
        <ele>92.23</ele>
        <time>2021-09-15T09:26:20Z</time>
      </trkpt>
      <trkpt lat="48.37814" lon="2.66624">
        <ele>92.22</ele>
        <time>2021-09-15T09:26:21Z</time>
      </trkpt>
      <trkpt lat="48.37797" lon="2.66615">
        <ele>92.62</ele>
        <time>2021-09-15T09:26:38Z</time>
      </trkpt>
      <trkpt lat="48.37777" lon="2.666">
        <ele>92.84</ele>
        <time>2021-09-15T09:26:56Z</time>
      </trkpt>
      <trkpt lat="48.37769" lon="2.66593">
        <ele>93.05</ele>
        <time>2021-09-15T09:27:04Z</time>
      </trkpt>
      <trkpt lat="48.37768" lon="2.66592">
        <ele>93.07</ele>
        <time>2021-09-15T09:27:05Z</time>
      </trkpt>
      <trkpt lat="48.37767" lon="2.66591">
        <ele>93.12</ele>
        <time>2021-09-15T09:27:06Z</time>
      </trkpt>
      <trkpt lat="48.37748" lon="2.66571">
        <ele>93.49</ele>
        <time>2021-09-15T09:27:24Z</time>
      </trkpt>
      <trkpt lat="48.37734" lon="2.66547">
        <ele>94.38</ele>
        <time>2021-09-15T09:27:41Z</time>
      </trkpt>
      <trkpt lat="48.37719" lon="2.6652">
        <ele>94.09</ele>
        <time>2021-09-15T09:28:00Z</time>
      </trkpt>
      <trkpt lat="48.37705" lon="2.66493">
        <ele>93.12</ele>
        <time>2021-09-15T09:28:17Z</time>
      </trkpt>
      <trkpt lat="48.37697" lon="2.6648">
        <ele>93.49</ele>
        <time>2021-09-15T09:28:25Z</time>
      </trkpt>
      <trkpt lat="48.37682" lon="2.6646">
        <ele>93.6</ele>
        <time>2021-09-15T09:28:41Z</time>
      </trkpt>
      <trkpt lat="48.37671" lon="2.66443">
        <ele>93.75</ele>
        <time>2021-09-15T09:28:54Z</time>
      </trkpt>
      <trkpt lat="48.37655" lon="2.66423">
        <ele>94.06</ele>
        <time>2021-09-15T09:29:12Z</time>
      </trkpt>
      <trkpt lat="48.37639" lon="2.66393">
        <ele>94.4</ele>
        <time>2021-09-15T09:29:32Z</time>
      </trkpt>
      <trkpt lat="48.37633" lon="2.6638">
        <ele>94.54</ele>
        <time>2021-09-15T09:29:52Z</time>
      </trkpt>
      <trkpt lat="48.3763" lon="2.66382">
        <ele>94.43</ele>
        <time>2021-09-15T09:29:59Z</time>
      </trkpt>
      <trkpt lat="48.37629" lon="2.66383">
        <ele>94.43</ele>
        <time>2021-09-15T09:30:00Z</time>
      </trkpt>
      <trkpt lat="48.37615" lon="2.66366">
        <ele>94.63</ele>
        <time>2021-09-15T09:30:24Z</time>
      </trkpt>
      <trkpt lat="48.37614" lon="2.66365">
        <ele>94.59</ele>
        <time>2021-09-15T09:30:25Z</time>
      </trkpt>
      <trkpt lat="48.37613" lon="2.66365">
        <ele>94.59</ele>
        <time>2021-09-15T09:30:26Z</time>
      </trkpt>
      <trkpt lat="48.37612" lon="2.66363">
        <ele>94.65</ele>
        <time>2021-09-15T09:30:27Z</time>
      </trkpt>
      <trkpt lat="48.37611" lon="2.66362">
        <ele>94.83</ele>
        <time>2021-09-15T09:30:28Z</time>
      </trkpt>
      <trkpt lat="48.37611" lon="2.6636">
        <ele>95.05</ele>
        <time>2021-09-15T09:30:29Z</time>
      </trkpt>
      <trkpt lat="48.3761" lon="2.66358">
        <ele>95.18</ele>
        <time>2021-09-15T09:30:30Z</time>
      </trkpt>
      <trkpt lat="48.3761" lon="2.66357">
        <ele>95.24</ele>
        <time>2021-09-15T09:30:31Z</time>
      </trkpt>
      <trkpt lat="48.37612" lon="2.66332">
        <ele>94.91</ele>
        <time>2021-09-15T09:30:46Z</time>
      </trkpt>
      <trkpt lat="48.37613" lon="2.66335">
        <ele>95.08</ele>
        <time>2021-09-15T09:30:50Z</time>
      </trkpt>
      <trkpt lat="48.37612" lon="2.66336">
        <ele>95.18</ele>
        <time>2021-09-15T09:30:51Z</time>
      </trkpt>
      <trkpt lat="48.37612" lon="2.66338">
        <ele>95.21</ele>
        <time>2021-09-15T09:30:52Z</time>
      </trkpt>
      <trkpt lat="48.37614" lon="2.66333">
        <ele>95.17</ele>
        <time>2021-09-15T09:31:02Z</time>
      </trkpt>
      <trkpt lat="48.37614" lon="2.66331">
        <ele>95.17</ele>
        <time>2021-09-15T09:31:03Z</time>
      </trkpt>
      <trkpt lat="48.3762" lon="2.66308">
        <ele>95.89</ele>
        <time>2021-09-15T09:31:20Z</time>
      </trkpt>
      <trkpt lat="48.37626" lon="2.66282">
        <ele>96.96</ele>
        <time>2021-09-15T09:31:39Z</time>
      </trkpt>
      <trkpt lat="48.37638" lon="2.66244">
        <ele>99.09</ele>
        <time>2021-09-15T09:32:05Z</time>
      </trkpt>
      <trkpt lat="48.37642" lon="2.66216">
        <ele>101.08</ele>
        <time>2021-09-15T09:32:22Z</time>
      </trkpt>
      <trkpt lat="48.37643" lon="2.66206">
        <ele>102.1</ele>
        <time>2021-09-15T09:32:28Z</time>
      </trkpt>
      <trkpt lat="48.37645" lon="2.66184">
        <ele>103.54</ele>
        <time>2021-09-15T09:32:45Z</time>
      </trkpt>
      <trkpt lat="48.37645" lon="2.66162">
        <ele>105.71</ele>
        <time>2021-09-15T09:33:00Z</time>
      </trkpt>
      <trkpt lat="48.37645" lon="2.6614">
        <ele>107.57</ele>
        <time>2021-09-15T09:33:15Z</time>
      </trkpt>
      <trkpt lat="48.37643" lon="2.66113">
        <ele>110.26</ele>
        <time>2021-09-15T09:33:34Z</time>
      </trkpt>
      <trkpt lat="48.3764" lon="2.66088">
        <ele>113.14</ele>
        <time>2021-09-15T09:33:53Z</time>
      </trkpt>
      <trkpt lat="48.37641" lon="2.66069">
        <ele>115.56</ele>
        <time>2021-09-15T09:34:09Z</time>
      </trkpt>
      <trkpt lat="48.3764" lon="2.66048">
        <ele>116.57</ele>
        <time>2021-09-15T09:34:26Z</time>
      </trkpt>
      <trkpt lat="48.3764" lon="2.66038">
        <ele>118.97</ele>
        <time>2021-09-15T09:34:42Z</time>
      </trkpt>
      <trkpt lat="48.37642" lon="2.66042">
        <ele>119</ele>
        <time>2021-09-15T09:34:48Z</time>
      </trkpt>
      <trkpt lat="48.37643" lon="2.66043">
        <ele>118.92</ele>
        <time>2021-09-15T09:34:49Z</time>
      </trkpt>
      <trkpt lat="48.37659" lon="2.66063">
        <ele>117.75</ele>
        <time>2021-09-15T09:35:13Z</time>
      </trkpt>
      <trkpt lat="48.3766" lon="2.66064">
        <ele>117.68</ele>
        <time>2021-09-15T09:35:14Z</time>
      </trkpt>
      <trkpt lat="48.37661" lon="2.66065">
        <ele>117.65</ele>
        <time>2021-09-15T09:35:15Z</time>
      </trkpt>
      <trkpt lat="48.37682" lon="2.66088">
        <ele>117.33</ele>
        <time>2021-09-15T09:35:37Z</time>
      </trkpt>
      <trkpt lat="48.37699" lon="2.66111">
        <ele>118.01</ele>
        <time>2021-09-15T09:35:56Z</time>
      </trkpt>
      <trkpt lat="48.37706" lon="2.66119">
        <ele>118.09</ele>
        <time>2021-09-15T09:36:03Z</time>
      </trkpt>
      <trkpt lat="48.37707" lon="2.66119">
        <ele>118.1</ele>
        <time>2021-09-15T09:36:04Z</time>
      </trkpt>
      <trkpt lat="48.37708" lon="2.6612">
        <ele>118.13</ele>
        <time>2021-09-15T09:36:05Z</time>
      </trkpt>
      <trkpt lat="48.37716" lon="2.6613">
        <ele>118.59</ele>
        <time>2021-09-15T09:36:14Z</time>
      </trkpt>
      <trkpt lat="48.37727" lon="2.66147">
        <ele>118.51</ele>
        <time>2021-09-15T09:36:27Z</time>
      </trkpt>
      <trkpt lat="48.37736" lon="2.66163">
        <ele>117.61</ele>
        <time>2021-09-15T09:36:42Z</time>
      </trkpt>
      <trkpt lat="48.37746" lon="2.66173">
        <ele>116.96</ele>
        <time>2021-09-15T09:36:53Z</time>
      </trkpt>
      <trkpt lat="48.37748" lon="2.66175">
        <ele>116.82</ele>
        <time>2021-09-15T09:36:54Z</time>
      </trkpt>
      <trkpt lat="48.37749" lon="2.66176">
        <ele>116.7</ele>
        <time>2021-09-15T09:36:55Z</time>
      </trkpt>
      <trkpt lat="48.37764" lon="2.66176">
        <ele>116.12</ele>
        <time>2021-09-15T09:37:12Z</time>
      </trkpt>
      <trkpt lat="48.37769" lon="2.66168">
        <ele>116.47</ele>
        <time>2021-09-15T09:37:19Z</time>
      </trkpt>
      <trkpt lat="48.3778" lon="2.66152">
        <ele>115.98</ele>
        <time>2021-09-15T09:37:34Z</time>
      </trkpt>
      <trkpt lat="48.37788" lon="2.66131">
        <ele>116.07</ele>
        <time>2021-09-15T09:37:55Z</time>
      </trkpt>
      <trkpt lat="48.37783" lon="2.66144">
        <ele>116.73</ele>
        <time>2021-09-15T09:38:15Z</time>
      </trkpt>
      <trkpt lat="48.37775" lon="2.66162">
        <ele>116.58</ele>
        <time>2021-09-15T09:38:35Z</time>
      </trkpt>
      <trkpt lat="48.37768" lon="2.66187">
        <ele>116.88</ele>
        <time>2021-09-15T09:38:54Z</time>
      </trkpt>
      <trkpt lat="48.37775" lon="2.66207">
        <ele>116.51</ele>
        <time>2021-09-15T09:39:15Z</time>
      </trkpt>
      <trkpt lat="48.37788" lon="2.66227">
        <ele>114.85</ele>
        <time>2021-09-15T09:39:34Z</time>
      </trkpt>
      <trkpt lat="48.37789" lon="2.66229">
        <ele>114.82</ele>
        <time>2021-09-15T09:39:35Z</time>
      </trkpt>
      <trkpt lat="48.3779" lon="2.6623">
        <ele>114.78</ele>
        <time>2021-09-15T09:39:36Z</time>
      </trkpt>
      <trkpt lat="48.37798" lon="2.66234">
        <ele>114.62</ele>
        <time>2021-09-15T09:39:42Z</time>
      </trkpt>
      <trkpt lat="48.37799" lon="2.66235">
        <ele>114.63</ele>
        <time>2021-09-15T09:39:43Z</time>
      </trkpt>
      <trkpt lat="48.378" lon="2.66237">
        <ele>114.65</ele>
        <time>2021-09-15T09:39:44Z</time>
      </trkpt>
      <trkpt lat="48.37801" lon="2.66238">
        <ele>114.67</ele>
        <time>2021-09-15T09:39:45Z</time>
      </trkpt>
      <trkpt lat="48.37801" lon="2.66239">
        <ele>114.68</ele>
        <time>2021-09-15T09:39:46Z</time>
      </trkpt>
      <trkpt lat="48.37819" lon="2.66254">
        <ele>112.56</ele>
        <time>2021-09-15T09:40:05Z</time>
      </trkpt>
      <trkpt lat="48.37826" lon="2.66265">
        <ele>111.06</ele>
        <time>2021-09-15T09:40:13Z</time>
      </trkpt>
      <trkpt lat="48.3783" lon="2.66275">
        <ele>110.78</ele>
        <time>2021-09-15T09:40:20Z</time>
      </trkpt>
      <trkpt lat="48.37835" lon="2.66283">
        <ele>110.06</ele>
        <time>2021-09-15T09:40:27Z</time>
      </trkpt>
      <trkpt lat="48.37837" lon="2.66284">
        <ele>109.92</ele>
        <time>2021-09-15T09:40:28Z</time>
      </trkpt>
      <trkpt lat="48.37837" lon="2.66286">
        <ele>109.78</ele>
        <time>2021-09-15T09:40:29Z</time>
      </trkpt>
      <trkpt lat="48.37844" lon="2.66302">
        <ele>108.67</ele>
        <time>2021-09-15T09:40:40Z</time>
      </trkpt>
      <trkpt lat="48.37853" lon="2.66315">
        <ele>107.58</ele>
        <time>2021-09-15T09:40:54Z</time>
      </trkpt>
      <trkpt lat="48.37876" lon="2.66324">
        <ele>105.08</ele>
        <time>2021-09-15T09:41:19Z</time>
      </trkpt>
      <trkpt lat="48.37885" lon="2.66314">
        <ele>104.42</ele>
        <time>2021-09-15T09:41:42Z</time>
      </trkpt>
      <trkpt lat="48.37887" lon="2.66303">
        <ele>102.59</ele>
        <time>2021-09-15T09:41:48Z</time>
      </trkpt>
      <trkpt lat="48.37888" lon="2.66301">
        <ele>101.76</ele>
        <time>2021-09-15T09:41:49Z</time>
      </trkpt>
      <trkpt lat="48.37888" lon="2.66299">
        <ele>101.36</ele>
        <time>2021-09-15T09:41:50Z</time>
      </trkpt>
      <trkpt lat="48.3789" lon="2.66292">
        <ele>103.85</ele>
        <time>2021-09-15T09:41:54Z</time>
      </trkpt>
      <trkpt lat="48.37889" lon="2.6627">
        <ele>101.1</ele>
        <time>2021-09-15T09:42:13Z</time>
      </trkpt>
      <trkpt lat="48.3789" lon="2.66235">
        <ele>100.05</ele>
        <time>2021-09-15T09:42:34Z</time>
      </trkpt>
      <trkpt lat="48.37894" lon="2.66204">
        <ele>98.78</ele>
        <time>2021-09-15T09:42:50Z</time>
      </trkpt>
      <trkpt lat="48.37894" lon="2.66174">
        <ele>98.51</ele>
        <time>2021-09-15T09:43:06Z</time>
      </trkpt>
      <trkpt lat="48.37892" lon="2.66151">
        <ele>98.29</ele>
        <time>2021-09-15T09:43:21Z</time>
      </trkpt>
      <trkpt lat="48.37896" lon="2.66104">
        <ele>98.08</ele>
        <time>2021-09-15T09:43:47Z</time>
      </trkpt>
      <trkpt lat="48.37898" lon="2.66057">
        <ele>97.81</ele>
        <time>2021-09-15T09:44:12Z</time>
      </trkpt>
      <trkpt lat="48.37901" lon="2.6603">
        <ele>96.77</ele>
        <time>2021-09-15T09:44:28Z</time>
      </trkpt>
      <trkpt lat="48.37899" lon="2.65984">
        <ele>95.39</ele>
        <time>2021-09-15T09:44:51Z</time>
      </trkpt>
      <trkpt lat="48.37898" lon="2.65973">
        <ele>95.07</ele>
        <time>2021-09-15T09:44:58Z</time>
      </trkpt>
      <trkpt lat="48.37898" lon="2.6597">
        <ele>95.02</ele>
        <time>2021-09-15T09:44:59Z</time>
      </trkpt>
      <trkpt lat="48.37898" lon="2.65968">
        <ele>94.95</ele>
        <time>2021-09-15T09:45:00Z</time>
      </trkpt>
      <trkpt lat="48.37899" lon="2.65966">
        <ele>94.9</ele>
        <time>2021-09-15T09:45:01Z</time>
      </trkpt>
      <trkpt lat="48.37899" lon="2.65964">
        <ele>94.83</ele>
        <time>2021-09-15T09:45:02Z</time>
      </trkpt>
      <trkpt lat="48.37899" lon="2.65962">
        <ele>94.8</ele>
        <time>2021-09-15T09:45:03Z</time>
      </trkpt>
      <trkpt lat="48.37899" lon="2.65935">
        <ele>94.37</ele>
        <time>2021-09-15T09:45:16Z</time>
      </trkpt>
      <trkpt lat="48.379" lon="2.65933">
        <ele>94.36</ele>
        <time>2021-09-15T09:45:17Z</time>
      </trkpt>
      <trkpt lat="48.379" lon="2.65932">
        <ele>94.35</ele>
        <time>2021-09-15T09:45:18Z</time>
      </trkpt>
      <trkpt lat="48.37902" lon="2.65906">
        <ele>93.89</ele>
        <time>2021-09-15T09:45:37Z</time>
      </trkpt>
      <trkpt lat="48.37902" lon="2.65902">
        <ele>93.85</ele>
        <time>2021-09-15T09:45:41Z</time>
      </trkpt>
      <trkpt lat="48.37902" lon="2.659">
        <ele>93.81</ele>
        <time>2021-09-15T09:45:42Z</time>
      </trkpt>
      <trkpt lat="48.37902" lon="2.65898">
        <ele>93.73</ele>
        <time>2021-09-15T09:45:43Z</time>
      </trkpt>
      <trkpt lat="48.37902" lon="2.65896">
        <ele>93.67</ele>
        <time>2021-09-15T09:45:44Z</time>
      </trkpt>
      <trkpt lat="48.37902" lon="2.65895">
        <ele>93.62</ele>
        <time>2021-09-15T09:45:45Z</time>
      </trkpt>
      <trkpt lat="48.37903" lon="2.65893">
        <ele>93.57</ele>
        <time>2021-09-15T09:45:46Z</time>
      </trkpt>
      <trkpt lat="48.37903" lon="2.65891">
        <ele>93.53</ele>
        <time>2021-09-15T09:45:47Z</time>
      </trkpt>
      <trkpt lat="48.37903" lon="2.6589">
        <ele>93.5</ele>
        <time>2021-09-15T09:45:48Z</time>
      </trkpt>
      <trkpt lat="48.37904" lon="2.65862">
        <ele>92.85</ele>
        <time>2021-09-15T09:46:05Z</time>
      </trkpt>
      <trkpt lat="48.37905" lon="2.65825">
        <ele>91.89</ele>
        <time>2021-09-15T09:46:26Z</time>
      </trkpt>
      <trkpt lat="48.37905" lon="2.65806">
        <ele>91.56</ele>
        <time>2021-09-15T09:46:36Z</time>
      </trkpt>
      <trkpt lat="48.37905" lon="2.65805">
        <ele>91.53</ele>
        <time>2021-09-15T09:46:37Z</time>
      </trkpt>
      <trkpt lat="48.37905" lon="2.65803">
        <ele>91.49</ele>
        <time>2021-09-15T09:46:38Z</time>
      </trkpt>
      <trkpt lat="48.37906" lon="2.65802">
        <ele>91.45</ele>
        <time>2021-09-15T09:46:39Z</time>
      </trkpt>
      <trkpt lat="48.37907" lon="2.65766">
        <ele>90.63</ele>
        <time>2021-09-15T09:46:59Z</time>
      </trkpt>
      <trkpt lat="48.37906" lon="2.65727">
        <ele>90.8</ele>
        <time>2021-09-15T09:47:19Z</time>
      </trkpt>
      <trkpt lat="48.37905" lon="2.65697">
        <ele>89.69</ele>
        <time>2021-09-15T09:47:37Z</time>
      </trkpt>
      <trkpt lat="48.37907" lon="2.65663">
        <ele>90.14</ele>
        <time>2021-09-15T09:47:58Z</time>
      </trkpt>
      <trkpt lat="48.37906" lon="2.65638">
        <ele>90.35</ele>
        <time>2021-09-15T09:48:14Z</time>
      </trkpt>
      <trkpt lat="48.37907" lon="2.656">
        <ele>90.25</ele>
        <time>2021-09-15T09:48:35Z</time>
      </trkpt>
      <trkpt lat="48.37908" lon="2.65594">
        <ele>90.21</ele>
        <time>2021-09-15T09:48:38Z</time>
      </trkpt>
      <trkpt lat="48.37916" lon="2.65569">
        <ele>90.14</ele>
        <time>2021-09-15T09:48:55Z</time>
      </trkpt>
      <trkpt lat="48.37917" lon="2.65566">
        <ele>90.13</ele>
        <time>2021-09-15T09:48:57Z</time>
      </trkpt>
      <trkpt lat="48.3793" lon="2.65551">
        <ele>89.66</ele>
        <time>2021-09-15T09:49:13Z</time>
      </trkpt>
      <trkpt lat="48.37942" lon="2.6553">
        <ele>89.2</ele>
        <time>2021-09-15T09:49:27Z</time>
      </trkpt>
      <trkpt lat="48.37958" lon="2.65504">
        <ele>88.52</ele>
        <time>2021-09-15T09:49:44Z</time>
      </trkpt>
      <trkpt lat="48.37968" lon="2.65484">
        <ele>88.05</ele>
        <time>2021-09-15T09:49:58Z</time>
      </trkpt>
      <trkpt lat="48.37975" lon="2.65469">
        <ele>87.67</ele>
        <time>2021-09-15T09:50:10Z</time>
      </trkpt>
      <trkpt lat="48.37987" lon="2.65455">
        <ele>86.91</ele>
        <time>2021-09-15T09:50:24Z</time>
      </trkpt>
      <trkpt lat="48.37988" lon="2.65454">
        <ele>86.89</ele>
        <time>2021-09-15T09:50:25Z</time>
      </trkpt>
      <trkpt lat="48.37989" lon="2.65453">
        <ele>86.85</ele>
        <time>2021-09-15T09:50:26Z</time>
      </trkpt>
      <trkpt lat="48.37995" lon="2.65451">
        <ele>86.71</ele>
        <time>2021-09-15T09:50:31Z</time>
      </trkpt>
      <trkpt lat="48.38012" lon="2.65446">
        <ele>86.27</ele>
        <time>2021-09-15T09:50:44Z</time>
      </trkpt>
      <trkpt lat="48.38029" lon="2.65445">
        <ele>85.9</ele>
        <time>2021-09-15T09:50:57Z</time>
      </trkpt>
      <trkpt lat="48.38045" lon="2.65444">
        <ele>86.68</ele>
        <time>2021-09-15T09:51:11Z</time>
      </trkpt>
      <trkpt lat="48.38052" lon="2.65438">
        <ele>86.29</ele>
        <time>2021-09-15T09:51:24Z</time>
      </trkpt>
      <trkpt lat="48.38052" lon="2.65435">
        <ele>85.81</ele>
        <time>2021-09-15T09:51:26Z</time>
      </trkpt>
      <trkpt lat="48.38043" lon="2.65411">
        <ele>86.29</ele>
        <time>2021-09-15T09:51:46Z</time>
      </trkpt>
      <trkpt lat="48.38043" lon="2.65405">
        <ele>86.1</ele>
        <time>2021-09-15T09:51:51Z</time>
      </trkpt>
      <trkpt lat="48.38041" lon="2.654">
        <ele>85.93</ele>
        <time>2021-09-15T09:51:55Z</time>
      </trkpt>
      <trkpt lat="48.38038" lon="2.6538">
        <ele>85.73</ele>
        <time>2021-09-15T09:52:12Z</time>
      </trkpt>
      <trkpt lat="48.38032" lon="2.65342">
        <ele>85.68</ele>
        <time>2021-09-15T09:52:34Z</time>
      </trkpt>
      <trkpt lat="48.38032" lon="2.6534">
        <ele>85.68</ele>
        <time>2021-09-15T09:52:35Z</time>
      </trkpt>
      <trkpt lat="48.3803" lon="2.65325">
        <ele>85.59</ele>
        <time>2021-09-15T09:52:52Z</time>
      </trkpt>
      <trkpt lat="48.3803" lon="2.6531">
        <ele>85.5</ele>
        <time>2021-09-15T09:53:18Z</time>
      </trkpt>
      <trkpt lat="48.3803" lon="2.65309">
        <ele>85.5</ele>
        <time>2021-09-15T09:53:19Z</time>
      </trkpt>
      <trkpt lat="48.38031" lon="2.65301">
        <ele>86.23</ele>
        <time>2021-09-15T09:53:37Z</time>
      </trkpt>
      <trkpt lat="48.38027" lon="2.6528">
        <ele>85.31</ele>
        <time>2021-09-15T09:53:52Z</time>
      </trkpt>
      <trkpt lat="48.38026" lon="2.65278">
        <ele>85.3</ele>
        <time>2021-09-15T09:53:53Z</time>
      </trkpt>
      <trkpt lat="48.38026" lon="2.65276">
        <ele>85.29</ele>
        <time>2021-09-15T09:53:54Z</time>
      </trkpt>
      <trkpt lat="48.38026" lon="2.65274">
        <ele>85.28</ele>
        <time>2021-09-15T09:53:55Z</time>
      </trkpt>
      <trkpt lat="48.38026" lon="2.65272">
        <ele>85.28</ele>
        <time>2021-09-15T09:53:56Z</time>
      </trkpt>
      <trkpt lat="48.38027" lon="2.65251">
        <ele>82.83</ele>
        <time>2021-09-15T09:54:07Z</time>
      </trkpt>
      <trkpt lat="48.38027" lon="2.6524">
        <ele>84.62</ele>
        <time>2021-09-15T09:54:13Z</time>
      </trkpt>
      <trkpt lat="48.3803" lon="2.65208">
        <ele>83.8</ele>
        <time>2021-09-15T09:54:30Z</time>
      </trkpt>
      <trkpt lat="48.38029" lon="2.65173">
        <ele>84.05</ele>
        <time>2021-09-15T09:54:47Z</time>
      </trkpt>
      <trkpt lat="48.38031" lon="2.65144">
        <ele>84.6</ele>
        <time>2021-09-15T09:55:02Z</time>
      </trkpt>
      <trkpt lat="48.38029" lon="2.65115">
        <ele>85.45</ele>
        <time>2021-09-15T09:55:21Z</time>
      </trkpt>
      <trkpt lat="48.38025" lon="2.65087">
        <ele>85.59</ele>
        <time>2021-09-15T09:55:43Z</time>
      </trkpt>
      <trkpt lat="48.38021" lon="2.65074">
        <ele>85.71</ele>
        <time>2021-09-15T09:56:04Z</time>
      </trkpt>
      <trkpt lat="48.38013" lon="2.6504">
        <ele>85.71</ele>
        <time>2021-09-15T09:56:29Z</time>
      </trkpt>
      <trkpt lat="48.38008" lon="2.65014">
        <ele>85.64</ele>
        <time>2021-09-15T09:56:49Z</time>
      </trkpt>
      <trkpt lat="48.37993" lon="2.64973">
        <ele>85.72</ele>
        <time>2021-09-15T09:57:16Z</time>
      </trkpt>
      <trkpt lat="48.37986" lon="2.64944">
        <ele>85.63</ele>
        <time>2021-09-15T09:57:32Z</time>
      </trkpt>
      <trkpt lat="48.37986" lon="2.6494">
        <ele>85.71</ele>
        <time>2021-09-15T09:57:34Z</time>
      </trkpt>
      <trkpt lat="48.37986" lon="2.64938">
        <ele>85.73</ele>
        <time>2021-09-15T09:57:35Z</time>
      </trkpt>
      <trkpt lat="48.37986" lon="2.64936">
        <ele>85.71</ele>
        <time>2021-09-15T09:57:36Z</time>
      </trkpt>
      <trkpt lat="48.37985" lon="2.64935">
        <ele>85.59</ele>
        <time>2021-09-15T09:57:37Z</time>
      </trkpt>
      <trkpt lat="48.37985" lon="2.64933">
        <ele>85.55</ele>
        <time>2021-09-15T09:57:38Z</time>
      </trkpt>
      <trkpt lat="48.37985" lon="2.64932">
        <ele>85.53</ele>
        <time>2021-09-15T09:57:39Z</time>
      </trkpt>
      <trkpt lat="48.37984" lon="2.6493">
        <ele>85.62</ele>
        <time>2021-09-15T09:57:40Z</time>
      </trkpt>
      <trkpt lat="48.37984" lon="2.64928">
        <ele>85.9</ele>
        <time>2021-09-15T09:57:41Z</time>
      </trkpt>
      <trkpt lat="48.37983" lon="2.64926">
        <ele>86.49</ele>
        <time>2021-09-15T09:57:42Z</time>
      </trkpt>
      <trkpt lat="48.37982" lon="2.64924">
        <ele>87.04</ele>
        <time>2021-09-15T09:57:44Z</time>
      </trkpt>
      <trkpt lat="48.37982" lon="2.64922">
        <ele>87.14</ele>
        <time>2021-09-15T09:57:45Z</time>
      </trkpt>
      <trkpt lat="48.37978" lon="2.64905">
        <ele>86.22</ele>
        <time>2021-09-15T09:57:57Z</time>
      </trkpt>
      <trkpt lat="48.37981" lon="2.64876">
        <ele>86.11</ele>
        <time>2021-09-15T09:58:13Z</time>
      </trkpt>
      <trkpt lat="48.37981" lon="2.64869">
        <ele>86.25</ele>
        <time>2021-09-15T09:58:18Z</time>
      </trkpt>
      <trkpt lat="48.3798" lon="2.64867">
        <ele>86.22</ele>
        <time>2021-09-15T09:58:19Z</time>
      </trkpt>
      <trkpt lat="48.3798" lon="2.64864">
        <ele>86.17</ele>
        <time>2021-09-15T09:58:21Z</time>
      </trkpt>
      <trkpt lat="48.3798" lon="2.64863">
        <ele>86.16</ele>
        <time>2021-09-15T09:58:22Z</time>
      </trkpt>
      <trkpt lat="48.37982" lon="2.6483">
        <ele>86.29</ele>
        <time>2021-09-15T09:58:41Z</time>
      </trkpt>
      <trkpt lat="48.37981" lon="2.64814">
        <ele>86.42</ele>
        <time>2021-09-15T09:58:57Z</time>
      </trkpt>
      <trkpt lat="48.3798" lon="2.64784">
        <ele>86.56</ele>
        <time>2021-09-15T09:59:12Z</time>
      </trkpt>
      <trkpt lat="48.37983" lon="2.64757">
        <ele>86.87</ele>
        <time>2021-09-15T09:59:28Z</time>
      </trkpt>
      <trkpt lat="48.37988" lon="2.6473">
        <ele>86.71</ele>
        <time>2021-09-15T09:59:46Z</time>
      </trkpt>
      <trkpt lat="48.37999" lon="2.64713">
        <ele>87.15</ele>
        <time>2021-09-15T09:59:59Z</time>
      </trkpt>
      <trkpt lat="48.38022" lon="2.64683">
        <ele>87.72</ele>
        <time>2021-09-15T10:00:28Z</time>
      </trkpt>
      <trkpt lat="48.38044" lon="2.64652">
        <ele>88.54</ele>
        <time>2021-09-15T10:00:59Z</time>
      </trkpt>
      <trkpt lat="48.38061" lon="2.64606">
        <ele>89.63</ele>
        <time>2021-09-15T10:01:30Z</time>
      </trkpt>
      <trkpt lat="48.38067" lon="2.64575">
        <ele>88.98</ele>
        <time>2021-09-15T10:01:45Z</time>
      </trkpt>
      <trkpt lat="48.38076" lon="2.64546">
        <ele>90.8</ele>
        <time>2021-09-15T10:02:00Z</time>
      </trkpt>
      <trkpt lat="48.38082" lon="2.6452">
        <ele>91.34</ele>
        <time>2021-09-15T10:02:17Z</time>
      </trkpt>
      <trkpt lat="48.38094" lon="2.64477">
        <ele>93.16</ele>
        <time>2021-09-15T10:02:44Z</time>
      </trkpt>
      <trkpt lat="48.38098" lon="2.64452">
        <ele>94.22</ele>
        <time>2021-09-15T10:03:01Z</time>
      </trkpt>
      <trkpt lat="48.38111" lon="2.64414">
        <ele>95.55</ele>
        <time>2021-09-15T10:03:25Z</time>
      </trkpt>
      <trkpt lat="48.38119" lon="2.64371">
        <ele>97.27</ele>
        <time>2021-09-15T10:03:48Z</time>
      </trkpt>
      <trkpt lat="48.38122" lon="2.64327">
        <ele>98.27</ele>
        <time>2021-09-15T10:04:14Z</time>
      </trkpt>
      <trkpt lat="48.38127" lon="2.64279">
        <ele>99.37</ele>
        <time>2021-09-15T10:04:42Z</time>
      </trkpt>
      <trkpt lat="48.38129" lon="2.64236">
        <ele>100.05</ele>
        <time>2021-09-15T10:05:06Z</time>
      </trkpt>
      <trkpt lat="48.3813" lon="2.64234">
        <ele>100.06</ele>
        <time>2021-09-15T10:05:07Z</time>
      </trkpt>
      <trkpt lat="48.3813" lon="2.64232">
        <ele>100.09</ele>
        <time>2021-09-15T10:05:08Z</time>
      </trkpt>
      <trkpt lat="48.3813" lon="2.64229">
        <ele>100.12</ele>
        <time>2021-09-15T10:05:09Z</time>
      </trkpt>
      <trkpt lat="48.3813" lon="2.64227">
        <ele>100.15</ele>
        <time>2021-09-15T10:05:10Z</time>
      </trkpt>
      <trkpt lat="48.38132" lon="2.6421">
        <ele>100.74</ele>
        <time>2021-09-15T10:05:21Z</time>
      </trkpt>
      <trkpt lat="48.38135" lon="2.64187">
        <ele>101</ele>
        <time>2021-09-15T10:05:33Z</time>
      </trkpt>
      <trkpt lat="48.38138" lon="2.64154">
        <ele>99.81</ele>
        <time>2021-09-15T10:05:50Z</time>
      </trkpt>
      <trkpt lat="48.3814" lon="2.64146">
        <ele>100.25</ele>
        <time>2021-09-15T10:05:55Z</time>
      </trkpt>
      <trkpt lat="48.38143" lon="2.6412">
        <ele>100.81</ele>
        <time>2021-09-15T10:06:11Z</time>
      </trkpt>
      <trkpt lat="48.38145" lon="2.64094">
        <ele>101.6</ele>
        <time>2021-09-15T10:06:26Z</time>
      </trkpt>
      <trkpt lat="48.38148" lon="2.64084">
        <ele>101.67</ele>
        <time>2021-09-15T10:06:39Z</time>
      </trkpt>
      <trkpt lat="48.38155" lon="2.64065">
        <ele>103.14</ele>
        <time>2021-09-15T10:07:08Z</time>
      </trkpt>
      <trkpt lat="48.38174" lon="2.64056">
        <ele>106.22</ele>
        <time>2021-09-15T10:07:30Z</time>
      </trkpt>
      <trkpt lat="48.38185" lon="2.64064">
        <ele>109.36</ele>
        <time>2021-09-15T10:07:48Z</time>
      </trkpt>
      <trkpt lat="48.3819" lon="2.64084">
        <ele>112.16</ele>
        <time>2021-09-15T10:08:11Z</time>
      </trkpt>
      <trkpt lat="48.38198" lon="2.64113">
        <ele>115.26</ele>
        <time>2021-09-15T10:08:36Z</time>
      </trkpt>
      <trkpt lat="48.38205" lon="2.64108">
        <ele>117.38</ele>
        <time>2021-09-15T10:08:55Z</time>
      </trkpt>
      <trkpt lat="48.38206" lon="2.64103">
        <ele>119.08</ele>
        <time>2021-09-15T10:09:00Z</time>
      </trkpt>
      <trkpt lat="48.38215" lon="2.64084">
        <ele>121.38</ele>
        <time>2021-09-15T10:09:22Z</time>
      </trkpt>
      <trkpt lat="48.38217" lon="2.64079">
        <ele>121.67</ele>
        <time>2021-09-15T10:09:26Z</time>
      </trkpt>
      <trkpt lat="48.38215" lon="2.64062">
        <ele>122.03</ele>
        <time>2021-09-15T10:09:42Z</time>
      </trkpt>
      <trkpt lat="48.38215" lon="2.64044">
        <ele>122.12</ele>
        <time>2021-09-15T10:10:00Z</time>
      </trkpt>
      <trkpt lat="48.38218" lon="2.64046">
        <ele>121.66</ele>
        <time>2021-09-15T10:10:18Z</time>
      </trkpt>
      <trkpt lat="48.38213" lon="2.64058">
        <ele>121.37</ele>
        <time>2021-09-15T10:10:33Z</time>
      </trkpt>
      <trkpt lat="48.38215" lon="2.64081">
        <ele>120.62</ele>
        <time>2021-09-15T10:10:50Z</time>
      </trkpt>
      <trkpt lat="48.38211" lon="2.64082">
        <ele>120.64</ele>
        <time>2021-09-15T10:11:06Z</time>
      </trkpt>
      <trkpt lat="48.38206" lon="2.64096">
        <ele>120.03</ele>
        <time>2021-09-15T10:11:19Z</time>
      </trkpt>
      <trkpt lat="48.38201" lon="2.6412">
        <ele>118.06</ele>
        <time>2021-09-15T10:11:35Z</time>
      </trkpt>
      <trkpt lat="48.38203" lon="2.64142">
        <ele>118.25</ele>
        <time>2021-09-15T10:11:52Z</time>
      </trkpt>
      <trkpt lat="48.38198" lon="2.64165">
        <ele>120.08</ele>
        <time>2021-09-15T10:12:14Z</time>
      </trkpt>
      <trkpt lat="48.38194" lon="2.64187">
        <ele>120.08</ele>
        <time>2021-09-15T10:12:43Z</time>
      </trkpt>
      <trkpt lat="48.382" lon="2.64185">
        <ele>120.08</ele>
        <time>2021-09-15T10:13:06Z</time>
      </trkpt>
      <trkpt lat="48.38212" lon="2.64179">
        <ele>120.08</ele>
        <time>2021-09-15T10:13:28Z</time>
      </trkpt>
      <trkpt lat="48.38225" lon="2.64183">
        <ele>120.08</ele>
        <time>2021-09-15T10:13:50Z</time>
      </trkpt>
      <trkpt lat="48.38228" lon="2.64183">
        <ele>120.08</ele>
        <time>2021-09-15T10:14:09Z</time>
      </trkpt>
      <trkpt lat="48.38232" lon="2.64178">
        <ele>123.13</ele>
        <time>2021-09-15T10:14:15Z</time>
      </trkpt>
      <trkpt lat="48.38242" lon="2.64162">
        <ele>124.58</ele>
        <time>2021-09-15T10:14:30Z</time>
      </trkpt>
      <trkpt lat="48.38257" lon="2.64141">
        <ele>124.32</ele>
        <time>2021-09-15T10:14:53Z</time>
      </trkpt>
      <trkpt lat="48.38276" lon="2.64137">
        <ele>123.57</ele>
        <time>2021-09-15T10:15:12Z</time>
      </trkpt>
      <trkpt lat="48.38278" lon="2.6413">
        <ele>123.38</ele>
        <time>2021-09-15T10:15:28Z</time>
      </trkpt>
      <trkpt lat="48.38277" lon="2.64122">
        <ele>123.73</ele>
        <time>2021-09-15T10:15:44Z</time>
      </trkpt>
      <trkpt lat="48.38274" lon="2.641">
        <ele>122.26</ele>
        <time>2021-09-15T10:16:01Z</time>
      </trkpt>
      <trkpt lat="48.38275" lon="2.64079">
        <ele>125.02</ele>
        <time>2021-09-15T10:16:14Z</time>
      </trkpt>
      <trkpt lat="48.38285" lon="2.64057">
        <ele>125.43</ele>
        <time>2021-09-15T10:16:31Z</time>
      </trkpt>
      <trkpt lat="48.38302" lon="2.64029">
        <ele>123.33</ele>
        <time>2021-09-15T10:16:57Z</time>
      </trkpt>
      <trkpt lat="48.38313" lon="2.63988">
        <ele>123.18</ele>
        <time>2021-09-15T10:17:22Z</time>
      </trkpt>
      <trkpt lat="48.38315" lon="2.63966">
        <ele>123.98</ele>
        <time>2021-09-15T10:17:37Z</time>
      </trkpt>
      <trkpt lat="48.38313" lon="2.63954">
        <ele>124.35</ele>
        <time>2021-09-15T10:17:46Z</time>
      </trkpt>
      <trkpt lat="48.38315" lon="2.63924">
        <ele>124.07</ele>
        <time>2021-09-15T10:18:03Z</time>
      </trkpt>
      <trkpt lat="48.38314" lon="2.6392">
        <ele>124.14</ele>
        <time>2021-09-15T10:18:05Z</time>
      </trkpt>
      <trkpt lat="48.38313" lon="2.63904">
        <ele>124.52</ele>
        <time>2021-09-15T10:18:14Z</time>
      </trkpt>
      <trkpt lat="48.38311" lon="2.63883">
        <ele>125.29</ele>
        <time>2021-09-15T10:18:29Z</time>
      </trkpt>
      <trkpt lat="48.38313" lon="2.6387">
        <ele>122.46</ele>
        <time>2021-09-15T10:18:42Z</time>
      </trkpt>
      <trkpt lat="48.38313" lon="2.63856">
        <ele>122.32</ele>
        <time>2021-09-15T10:19:00Z</time>
      </trkpt>
      <trkpt lat="48.38317" lon="2.63856">
        <ele>122.32</ele>
        <time>2021-09-15T10:19:20Z</time>
      </trkpt>
      <trkpt lat="48.3833" lon="2.63844">
        <ele>122.32</ele>
        <time>2021-09-15T10:19:44Z</time>
      </trkpt>
      <trkpt lat="48.3834" lon="2.63863">
        <ele>122.32</ele>
        <time>2021-09-15T10:20:04Z</time>
      </trkpt>
      <trkpt lat="48.38346" lon="2.63868">
        <ele>122.32</ele>
        <time>2021-09-15T10:20:08Z</time>
      </trkpt>
      <trkpt lat="48.38349" lon="2.63872">
        <ele>122.32</ele>
        <time>2021-09-15T10:20:35Z</time>
      </trkpt>
      <trkpt lat="48.38359" lon="2.63874">
        <ele>121.98</ele>
        <time>2021-09-15T10:20:47Z</time>
      </trkpt>
      <trkpt lat="48.38366" lon="2.6388">
        <ele>120.86</ele>
        <time>2021-09-15T10:20:53Z</time>
      </trkpt>
      <trkpt lat="48.38374" lon="2.63899">
        <ele>117.1</ele>
        <time>2021-09-15T10:21:07Z</time>
      </trkpt>
      <trkpt lat="48.38385" lon="2.63914">
        <ele>114.62</ele>
        <time>2021-09-15T10:21:22Z</time>
      </trkpt>
      <trkpt lat="48.38397" lon="2.63939">
        <ele>111.43</ele>
        <time>2021-09-15T10:21:40Z</time>
      </trkpt>
      <trkpt lat="48.3841" lon="2.63952">
        <ele>109.32</ele>
        <time>2021-09-15T10:21:58Z</time>
      </trkpt>
      <trkpt lat="48.3842" lon="2.63965">
        <ele>106.14</ele>
        <time>2021-09-15T10:22:15Z</time>
      </trkpt>
      <trkpt lat="48.38439" lon="2.63988">
        <ele>103.86</ele>
        <time>2021-09-15T10:22:33Z</time>
      </trkpt>
      <trkpt lat="48.38446" lon="2.63995">
        <ele>102.96</ele>
        <time>2021-09-15T10:22:39Z</time>
      </trkpt>
      <trkpt lat="48.38464" lon="2.64016">
        <ele>101.14</ele>
        <time>2021-09-15T10:22:56Z</time>
      </trkpt>
      <trkpt lat="48.38476" lon="2.64028">
        <ele>99.78</ele>
        <time>2021-09-15T10:23:11Z</time>
      </trkpt>
      <trkpt lat="48.38484" lon="2.6404">
        <ele>98.64</ele>
        <time>2021-09-15T10:23:21Z</time>
      </trkpt>
      <trkpt lat="48.38494" lon="2.64052">
        <ele>98.29</ele>
        <time>2021-09-15T10:23:32Z</time>
      </trkpt>
      <trkpt lat="48.38502" lon="2.64063">
        <ele>97.67</ele>
        <time>2021-09-15T10:23:44Z</time>
      </trkpt>
      <trkpt lat="48.38514" lon="2.64083">
        <ele>97.84</ele>
        <time>2021-09-15T10:24:04Z</time>
      </trkpt>
      <trkpt lat="48.38524" lon="2.64097">
        <ele>97.32</ele>
        <time>2021-09-15T10:24:18Z</time>
      </trkpt>
      <trkpt lat="48.38537" lon="2.64115">
        <ele>97.95</ele>
        <time>2021-09-15T10:24:33Z</time>
      </trkpt>
      <trkpt lat="48.38545" lon="2.64127">
        <ele>98.34</ele>
        <time>2021-09-15T10:24:49Z</time>
      </trkpt>
      <trkpt lat="48.38558" lon="2.64142">
        <ele>98.68</ele>
        <time>2021-09-15T10:25:03Z</time>
      </trkpt>
      <trkpt lat="48.38569" lon="2.64161">
        <ele>98.8</ele>
        <time>2021-09-15T10:25:23Z</time>
      </trkpt>
      <trkpt lat="48.38582" lon="2.64178">
        <ele>98.94</ele>
        <time>2021-09-15T10:25:40Z</time>
      </trkpt>
      <trkpt lat="48.38597" lon="2.6418">
        <ele>100.23</ele>
        <time>2021-09-15T10:25:48Z</time>
      </trkpt>
      <trkpt lat="48.386" lon="2.64177">
        <ele>100.49</ele>
        <time>2021-09-15T10:25:51Z</time>
      </trkpt>
      <trkpt lat="48.38608" lon="2.64159">
        <ele>101.62</ele>
        <time>2021-09-15T10:26:06Z</time>
      </trkpt>
      <trkpt lat="48.3861" lon="2.64156">
        <ele>102.04</ele>
        <time>2021-09-15T10:26:09Z</time>
      </trkpt>
      <trkpt lat="48.38619" lon="2.64133">
        <ele>101.58</ele>
        <time>2021-09-15T10:26:25Z</time>
      </trkpt>
      <trkpt lat="48.38627" lon="2.64107">
        <ele>101.7</ele>
        <time>2021-09-15T10:26:43Z</time>
      </trkpt>
      <trkpt lat="48.38633" lon="2.64081">
        <ele>101.87</ele>
        <time>2021-09-15T10:26:58Z</time>
      </trkpt>
      <trkpt lat="48.38642" lon="2.64058">
        <ele>102.56</ele>
        <time>2021-09-15T10:27:12Z</time>
      </trkpt>
      <trkpt lat="48.38642" lon="2.64056">
        <ele>102.8</ele>
        <time>2021-09-15T10:27:13Z</time>
      </trkpt>
      <trkpt lat="48.38651" lon="2.64031">
        <ele>103.42</ele>
        <time>2021-09-15T10:27:33Z</time>
      </trkpt>
      <trkpt lat="48.38662" lon="2.64009">
        <ele>103.85</ele>
        <time>2021-09-15T10:27:55Z</time>
      </trkpt>
      <trkpt lat="48.38669" lon="2.63977">
        <ele>104.44</ele>
        <time>2021-09-15T10:28:12Z</time>
      </trkpt>
      <trkpt lat="48.38678" lon="2.63948">
        <ele>104.42</ele>
        <time>2021-09-15T10:28:30Z</time>
      </trkpt>
      <trkpt lat="48.38679" lon="2.63942">
        <ele>104.43</ele>
        <time>2021-09-15T10:28:33Z</time>
      </trkpt>
      <trkpt lat="48.38684" lon="2.63926">
        <ele>104.4</ele>
        <time>2021-09-15T10:28:43Z</time>
      </trkpt>
      <trkpt lat="48.38685" lon="2.63923">
        <ele>104.41</ele>
        <time>2021-09-15T10:28:44Z</time>
      </trkpt>
      <trkpt lat="48.38685" lon="2.63921">
        <ele>104.44</ele>
        <time>2021-09-15T10:28:45Z</time>
      </trkpt>
      <trkpt lat="48.3869" lon="2.63899">
        <ele>105.02</ele>
        <time>2021-09-15T10:28:59Z</time>
      </trkpt>
      <trkpt lat="48.38692" lon="2.63892">
        <ele>105.13</ele>
        <time>2021-09-15T10:29:03Z</time>
      </trkpt>
      <trkpt lat="48.38696" lon="2.63876">
        <ele>106.06</ele>
        <time>2021-09-15T10:29:17Z</time>
      </trkpt>
      <trkpt lat="48.38704" lon="2.63873">
        <ele>106.67</ele>
        <time>2021-09-15T10:29:35Z</time>
      </trkpt>
      <trkpt lat="48.3871" lon="2.63885">
        <ele>108.32</ele>
        <time>2021-09-15T10:29:48Z</time>
      </trkpt>
      <trkpt lat="48.3871" lon="2.63887">
        <ele>108.58</ele>
        <time>2021-09-15T10:29:49Z</time>
      </trkpt>
      <trkpt lat="48.38722" lon="2.63901">
        <ele>111.2</ele>
        <time>2021-09-15T10:30:06Z</time>
      </trkpt>
      <trkpt lat="48.38734" lon="2.63912">
        <ele>113.99</ele>
        <time>2021-09-15T10:30:23Z</time>
      </trkpt>
      <trkpt lat="48.38735" lon="2.63913">
        <ele>114.16</ele>
        <time>2021-09-15T10:30:24Z</time>
      </trkpt>
      <trkpt lat="48.38742" lon="2.63919">
        <ele>115.74</ele>
        <time>2021-09-15T10:30:33Z</time>
      </trkpt>
      <trkpt lat="48.38743" lon="2.6392">
        <ele>116.01</ele>
        <time>2021-09-15T10:30:35Z</time>
      </trkpt>
      <trkpt lat="48.38753" lon="2.63933">
        <ele>116.22</ele>
        <time>2021-09-15T10:30:51Z</time>
      </trkpt>
      <trkpt lat="48.3876" lon="2.63942">
        <ele>118.23</ele>
        <time>2021-09-15T10:31:01Z</time>
      </trkpt>
      <trkpt lat="48.38761" lon="2.63943">
        <ele>118.28</ele>
        <time>2021-09-15T10:31:02Z</time>
      </trkpt>
      <trkpt lat="48.38763" lon="2.63943">
        <ele>118.31</ele>
        <time>2021-09-15T10:31:03Z</time>
      </trkpt>
      <trkpt lat="48.38763" lon="2.63945">
        <ele>118.32</ele>
        <time>2021-09-15T10:31:04Z</time>
      </trkpt>
      <trkpt lat="48.38767" lon="2.63951">
        <ele>118.35</ele>
        <time>2021-09-15T10:31:10Z</time>
      </trkpt>
      <trkpt lat="48.3878" lon="2.63968">
        <ele>120.02</ele>
        <time>2021-09-15T10:31:26Z</time>
      </trkpt>
      <trkpt lat="48.38792" lon="2.63984">
        <ele>120.76</ele>
        <time>2021-09-15T10:31:41Z</time>
      </trkpt>
      <trkpt lat="48.38807" lon="2.64003">
        <ele>121.37</ele>
        <time>2021-09-15T10:31:59Z</time>
      </trkpt>
      <trkpt lat="48.38826" lon="2.64029">
        <ele>121.28</ele>
        <time>2021-09-15T10:32:21Z</time>
      </trkpt>
      <trkpt lat="48.38832" lon="2.64037">
        <ele>121.19</ele>
        <time>2021-09-15T10:32:28Z</time>
      </trkpt>
      <trkpt lat="48.38833" lon="2.64038">
        <ele>121.15</ele>
        <time>2021-09-15T10:32:29Z</time>
      </trkpt>
      <trkpt lat="48.38834" lon="2.64039">
        <ele>121.13</ele>
        <time>2021-09-15T10:32:30Z</time>
      </trkpt>
      <trkpt lat="48.38844" lon="2.64055">
        <ele>121.21</ele>
        <time>2021-09-15T10:32:43Z</time>
      </trkpt>
      <trkpt lat="48.38855" lon="2.64074">
        <ele>121.06</ele>
        <time>2021-09-15T10:33:00Z</time>
      </trkpt>
      <trkpt lat="48.38865" lon="2.64086">
        <ele>121.48</ele>
        <time>2021-09-15T10:33:14Z</time>
      </trkpt>
      <trkpt lat="48.38872" lon="2.64095">
        <ele>120.86</ele>
        <time>2021-09-15T10:33:28Z</time>
      </trkpt>
      <trkpt lat="48.38878" lon="2.64104">
        <ele>120.93</ele>
        <time>2021-09-15T10:33:40Z</time>
      </trkpt>
      <trkpt lat="48.38879" lon="2.64105">
        <ele>120.94</ele>
        <time>2021-09-15T10:33:41Z</time>
      </trkpt>
      <trkpt lat="48.38883" lon="2.64113">
        <ele>121.08</ele>
        <time>2021-09-15T10:33:48Z</time>
      </trkpt>
      <trkpt lat="48.38884" lon="2.64114">
        <ele>121.1</ele>
        <time>2021-09-15T10:33:49Z</time>
      </trkpt>
      <trkpt lat="48.38885" lon="2.64117">
        <ele>121.19</ele>
        <time>2021-09-15T10:33:52Z</time>
      </trkpt>
      <trkpt lat="48.38886" lon="2.64121">
        <ele>121.24</ele>
        <time>2021-09-15T10:33:54Z</time>
      </trkpt>
      <trkpt lat="48.38888" lon="2.64123">
        <ele>121.27</ele>
        <time>2021-09-15T10:33:56Z</time>
      </trkpt>
      <trkpt lat="48.38898" lon="2.64135">
        <ele>120.45</ele>
        <time>2021-09-15T10:34:10Z</time>
      </trkpt>
      <trkpt lat="48.38911" lon="2.64155">
        <ele>118.01</ele>
        <time>2021-09-15T10:34:25Z</time>
      </trkpt>
      <trkpt lat="48.38913" lon="2.64157">
        <ele>117.66</ele>
        <time>2021-09-15T10:34:26Z</time>
      </trkpt>
      <trkpt lat="48.38914" lon="2.64158">
        <ele>117.35</ele>
        <time>2021-09-15T10:34:27Z</time>
      </trkpt>
      <trkpt lat="48.38915" lon="2.6416">
        <ele>117</ele>
        <time>2021-09-15T10:34:28Z</time>
      </trkpt>
      <trkpt lat="48.38916" lon="2.64162">
        <ele>116.57</ele>
        <time>2021-09-15T10:34:29Z</time>
      </trkpt>
      <trkpt lat="48.38918" lon="2.64164">
        <ele>116.13</ele>
        <time>2021-09-15T10:34:30Z</time>
      </trkpt>
      <trkpt lat="48.38919" lon="2.64165">
        <ele>115.73</ele>
        <time>2021-09-15T10:34:31Z</time>
      </trkpt>
      <trkpt lat="48.38921" lon="2.64167">
        <ele>115.29</ele>
        <time>2021-09-15T10:34:32Z</time>
      </trkpt>
      <trkpt lat="48.38929" lon="2.64175">
        <ele>111.96</ele>
        <time>2021-09-15T10:34:38Z</time>
      </trkpt>
      <trkpt lat="48.38939" lon="2.64184">
        <ele>108.92</ele>
        <time>2021-09-15T10:34:45Z</time>
      </trkpt>
      <trkpt lat="48.38944" lon="2.64189">
        <ele>106.96</ele>
        <time>2021-09-15T10:34:50Z</time>
      </trkpt>
      <trkpt lat="48.38945" lon="2.64191">
        <ele>106.66</ele>
        <time>2021-09-15T10:34:51Z</time>
      </trkpt>
      <trkpt lat="48.38947" lon="2.64192">
        <ele>106.33</ele>
        <time>2021-09-15T10:34:52Z</time>
      </trkpt>
      <trkpt lat="48.38954" lon="2.64199">
        <ele>103.22</ele>
        <time>2021-09-15T10:34:59Z</time>
      </trkpt>
      <trkpt lat="48.38955" lon="2.64198">
        <ele>103.14</ele>
        <time>2021-09-15T10:35:00Z</time>
      </trkpt>
      <trkpt lat="48.38957" lon="2.64198">
        <ele>103.09</ele>
        <time>2021-09-15T10:35:01Z</time>
      </trkpt>
      <trkpt lat="48.38969" lon="2.64196">
        <ele>101.48</ele>
        <time>2021-09-15T10:35:13Z</time>
      </trkpt>
      <trkpt lat="48.38974" lon="2.64192">
        <ele>100.94</ele>
        <time>2021-09-15T10:35:27Z</time>
      </trkpt>
      <trkpt lat="48.38972" lon="2.64186">
        <ele>99.95</ele>
        <time>2021-09-15T10:35:44Z</time>
      </trkpt>
      <trkpt lat="48.38973" lon="2.64187">
        <ele>99.94</ele>
        <time>2021-09-15T10:36:03Z</time>
      </trkpt>
      <trkpt lat="48.38978" lon="2.64189">
        <ele>100.1</ele>
        <time>2021-09-15T10:36:29Z</time>
      </trkpt>
      <trkpt lat="48.38979" lon="2.64182">
        <ele>100.06</ele>
        <time>2021-09-15T10:36:43Z</time>
      </trkpt>
      <trkpt lat="48.38979" lon="2.6418">
        <ele>100.05</ele>
        <time>2021-09-15T10:36:44Z</time>
      </trkpt>
      <trkpt lat="48.38979" lon="2.64178">
        <ele>100.05</ele>
        <time>2021-09-15T10:36:45Z</time>
      </trkpt>
      <trkpt lat="48.38979" lon="2.64176">
        <ele>100.05</ele>
        <time>2021-09-15T10:36:46Z</time>
      </trkpt>
      <trkpt lat="48.38979" lon="2.64175">
        <ele>100.07</ele>
        <time>2021-09-15T10:36:47Z</time>
      </trkpt>
      <trkpt lat="48.38979" lon="2.64173">
        <ele>100.09</ele>
        <time>2021-09-15T10:36:48Z</time>
      </trkpt>
      <trkpt lat="48.38979" lon="2.64171">
        <ele>100.13</ele>
        <time>2021-09-15T10:36:49Z</time>
      </trkpt>
      <trkpt lat="48.38979" lon="2.6417">
        <ele>100.23</ele>
        <time>2021-09-15T10:36:50Z</time>
      </trkpt>
      <trkpt lat="48.38983" lon="2.64148">
        <ele>100.82</ele>
        <time>2021-09-15T10:37:04Z</time>
      </trkpt>
      <trkpt lat="48.38985" lon="2.64132">
        <ele>101.14</ele>
        <time>2021-09-15T10:37:14Z</time>
      </trkpt>
      <trkpt lat="48.38989" lon="2.64113">
        <ele>100.83</ele>
        <time>2021-09-15T10:37:27Z</time>
      </trkpt>
      <trkpt lat="48.3899" lon="2.64106">
        <ele>101.89</ele>
        <time>2021-09-15T10:37:31Z</time>
      </trkpt>
      <trkpt lat="48.3899" lon="2.64104">
        <ele>101.85</ele>
        <time>2021-09-15T10:37:32Z</time>
      </trkpt>
      <trkpt lat="48.38994" lon="2.64076">
        <ele>101.88</ele>
        <time>2021-09-15T10:37:49Z</time>
      </trkpt>
      <trkpt lat="48.39009" lon="2.64068">
        <ele>101.95</ele>
        <time>2021-09-15T10:38:05Z</time>
      </trkpt>
      <trkpt lat="48.39022" lon="2.64062">
        <ele>102.47</ele>
        <time>2021-09-15T10:38:24Z</time>
      </trkpt>
      <trkpt lat="48.39041" lon="2.64062">
        <ele>104.59</ele>
        <time>2021-09-15T10:38:45Z</time>
      </trkpt>
      <trkpt lat="48.39055" lon="2.64064">
        <ele>107.68</ele>
        <time>2021-09-15T10:39:04Z</time>
      </trkpt>
      <trkpt lat="48.39062" lon="2.64064">
        <ele>110.89</ele>
        <time>2021-09-15T10:39:19Z</time>
      </trkpt>
      <trkpt lat="48.39071" lon="2.64063">
        <ele>113.96</ele>
        <time>2021-09-15T10:39:37Z</time>
      </trkpt>
      <trkpt lat="48.39079" lon="2.64064">
        <ele>116.99</ele>
        <time>2021-09-15T10:39:51Z</time>
      </trkpt>
      <trkpt lat="48.3908" lon="2.64065">
        <ele>117.85</ele>
        <time>2021-09-15T10:39:56Z</time>
      </trkpt>
      <trkpt lat="48.39081" lon="2.64071">
        <ele>119.53</ele>
        <time>2021-09-15T10:40:05Z</time>
      </trkpt>
      <trkpt lat="48.39083" lon="2.64074">
        <ele>120.08</ele>
        <time>2021-09-15T10:40:09Z</time>
      </trkpt>
      <trkpt lat="48.39088" lon="2.64074">
        <ele>123.17</ele>
        <time>2021-09-15T10:40:26Z</time>
      </trkpt>
      <trkpt lat="48.39099" lon="2.64069">
        <ele>125.97</ele>
        <time>2021-09-15T10:40:47Z</time>
      </trkpt>
      <trkpt lat="48.39101" lon="2.64073">
        <ele>125.74</ele>
        <time>2021-09-15T10:41:11Z</time>
      </trkpt>
      <trkpt lat="48.39103" lon="2.64075">
        <ele>125.99</ele>
        <time>2021-09-15T10:41:38Z</time>
      </trkpt>
      <trkpt lat="48.39105" lon="2.64074">
        <ele>125.86</ele>
        <time>2021-09-15T10:42:09Z</time>
      </trkpt>
      <trkpt lat="48.39104" lon="2.64075">
        <ele>125.62</ele>
        <time>2021-09-15T10:42:34Z</time>
      </trkpt>
      <trkpt lat="48.391" lon="2.64077">
        <ele>125.62</ele>
        <time>2021-09-15T10:43:14Z</time>
      </trkpt>
      <trkpt lat="48.391" lon="2.6408">
        <ele>125.62</ele>
        <time>2021-09-15T10:44:34Z</time>
      </trkpt>
      <trkpt lat="48.39101" lon="2.64083">
        <ele>125.62</ele>
        <time>2021-09-15T10:45:18Z</time>
      </trkpt>
      <trkpt lat="48.39101" lon="2.64086">
        <ele>125.62</ele>
        <time>2021-09-15T10:46:10Z</time>
      </trkpt>
      <trkpt lat="48.39097" lon="2.64088">
        <ele>125.62</ele>
        <time>2021-09-15T10:47:29Z</time>
      </trkpt>
      <trkpt lat="48.39096" lon="2.6409">
        <ele>125.62</ele>
        <time>2021-09-15T10:48:45Z</time>
      </trkpt>
      <trkpt lat="48.39095" lon="2.64088">
        <ele>125.62</ele>
        <time>2021-09-15T10:49:40Z</time>
      </trkpt>
      <trkpt lat="48.39099" lon="2.64083">
        <ele>125.62</ele>
        <time>2021-09-15T10:51:01Z</time>
      </trkpt>
      <trkpt lat="48.39098" lon="2.64083">
        <ele>125.62</ele>
        <time>2021-09-15T10:52:05Z</time>
      </trkpt>
      <trkpt lat="48.39098" lon="2.6408">
        <ele>125.62</ele>
        <time>2021-09-15T10:53:41Z</time>
      </trkpt>
      <trkpt lat="48.39099" lon="2.64083">
        <ele>125.62</ele>
        <time>2021-09-15T10:54:57Z</time>
      </trkpt>
      <trkpt lat="48.39097" lon="2.64084">
        <ele>125.62</ele>
        <time>2021-09-15T10:56:27Z</time>
      </trkpt>
      <trkpt lat="48.39098" lon="2.64084">
        <ele>125.62</ele>
        <time>2021-09-15T10:57:33Z</time>
      </trkpt>
      <trkpt lat="48.39099" lon="2.64082">
        <ele>125.62</ele>
        <time>2021-09-15T10:58:26Z</time>
      </trkpt>
      <trkpt lat="48.39098" lon="2.64081">
        <ele>125.62</ele>
        <time>2021-09-15T10:59:43Z</time>
      </trkpt>
      <trkpt lat="48.39101" lon="2.64081">
        <ele>125.62</ele>
        <time>2021-09-15T11:02:07Z</time>
      </trkpt>
      <trkpt lat="48.39101" lon="2.64082">
        <ele>125.62</ele>
        <time>2021-09-15T11:04:33Z</time>
      </trkpt>
      <trkpt lat="48.391" lon="2.64083">
        <ele>125.62</ele>
        <time>2021-09-15T11:05:59Z</time>
      </trkpt>
      <trkpt lat="48.39102" lon="2.64084">
        <ele>125.62</ele>
        <time>2021-09-15T11:07:36Z</time>
      </trkpt>
      <trkpt lat="48.39101" lon="2.64083">
        <ele>125.62</ele>
        <time>2021-09-15T11:08:25Z</time>
      </trkpt>
      <trkpt lat="48.391" lon="2.64086">
        <ele>125.62</ele>
        <time>2021-09-15T11:08:58Z</time>
      </trkpt>
      <trkpt lat="48.39101" lon="2.64083">
        <ele>125.62</ele>
        <time>2021-09-15T11:10:00Z</time>
      </trkpt>
      <trkpt lat="48.39103" lon="2.64083">
        <ele>125.62</ele>
        <time>2021-09-15T11:10:25Z</time>
      </trkpt>
      <trkpt lat="48.39099" lon="2.64084">
        <ele>125.62</ele>
        <time>2021-09-15T11:11:34Z</time>
      </trkpt>
      <trkpt lat="48.39101" lon="2.64084">
        <ele>125.62</ele>
        <time>2021-09-15T11:12:44Z</time>
      </trkpt>
      <trkpt lat="48.39101" lon="2.64084">
        <ele>130.56</ele>
        <time>2021-09-15T11:12:47Z</time>
      </trkpt>
      <trkpt lat="48.39101" lon="2.64084">
        <ele>129.25</ele>
        <time>2021-09-15T11:12:48Z</time>
      </trkpt>
      <trkpt lat="48.39101" lon="2.64084">
        <ele>124.9</ele>
        <time>2021-09-15T11:12:50Z</time>
      </trkpt>
      <trkpt lat="48.391" lon="2.64082">
        <ele>125.63</ele>
        <time>2021-09-15T11:13:35Z</time>
      </trkpt>
      <trkpt lat="48.39101" lon="2.64083">
        <ele>128.32</ele>
        <time>2021-09-15T11:13:59Z</time>
      </trkpt>
      <trkpt lat="48.39103" lon="2.64084">
        <ele>125.29</ele>
        <time>2021-09-15T11:14:24Z</time>
      </trkpt>
      <trkpt lat="48.39103" lon="2.64084">
        <ele>124.42</ele>
        <time>2021-09-15T11:14:26Z</time>
      </trkpt>
      <trkpt lat="48.39103" lon="2.64081">
        <ele>125.8</ele>
        <time>2021-09-15T11:15:21Z</time>
      </trkpt>
      <trkpt lat="48.39102" lon="2.64082">
        <ele>125.8</ele>
        <time>2021-09-15T11:15:42Z</time>
      </trkpt>
      <trkpt lat="48.39101" lon="2.64083">
        <ele>125.8</ele>
        <time>2021-09-15T11:16:21Z</time>
      </trkpt>
      <trkpt lat="48.39104" lon="2.64081">
        <ele>125.8</ele>
        <time>2021-09-15T11:16:51Z</time>
      </trkpt>
      <trkpt lat="48.39105" lon="2.64083">
        <ele>125.8</ele>
        <time>2021-09-15T11:17:40Z</time>
      </trkpt>
      <trkpt lat="48.39105" lon="2.64086">
        <ele>125.8</ele>
        <time>2021-09-15T11:18:07Z</time>
      </trkpt>
      <trkpt lat="48.39102" lon="2.64088">
        <ele>125.8</ele>
        <time>2021-09-15T11:18:59Z</time>
      </trkpt>
      <trkpt lat="48.39104" lon="2.64086">
        <ele>125.8</ele>
        <time>2021-09-15T11:19:39Z</time>
      </trkpt>
      <trkpt lat="48.39103" lon="2.64087">
        <ele>125.8</ele>
        <time>2021-09-15T11:20:10Z</time>
      </trkpt>
      <trkpt lat="48.39103" lon="2.64087">
        <ele>125.8</ele>
        <time>2021-09-15T11:20:39Z</time>
      </trkpt>
      <trkpt lat="48.39104" lon="2.64088">
        <ele>125.8</ele>
        <time>2021-09-15T11:21:05Z</time>
      </trkpt>
      <trkpt lat="48.39103" lon="2.64086">
        <ele>125.8</ele>
        <time>2021-09-15T11:21:32Z</time>
      </trkpt>
      <trkpt lat="48.39102" lon="2.64076">
        <ele>125.8</ele>
        <time>2021-09-15T11:22:02Z</time>
      </trkpt>
      <trkpt lat="48.39113" lon="2.64074">
        <ele>125.8</ele>
        <time>2021-09-15T11:22:29Z</time>
      </trkpt>
      <trkpt lat="48.3912" lon="2.64072">
        <ele>122.24</ele>
        <time>2021-09-15T11:22:40Z</time>
      </trkpt>
      <trkpt lat="48.39121" lon="2.64073">
        <ele>121.58</ele>
        <time>2021-09-15T11:22:42Z</time>
      </trkpt>
      <trkpt lat="48.39129" lon="2.6408">
        <ele>118.38</ele>
        <time>2021-09-15T11:23:01Z</time>
      </trkpt>
      <trkpt lat="48.39132" lon="2.64075">
        <ele>118.5</ele>
        <time>2021-09-15T11:23:15Z</time>
      </trkpt>
      <trkpt lat="48.39137" lon="2.64068">
        <ele>115.78</ele>
        <time>2021-09-15T11:23:38Z</time>
      </trkpt>
      <trkpt lat="48.3914" lon="2.64059">
        <ele>112.6</ele>
        <time>2021-09-15T11:23:53Z</time>
      </trkpt>
      <trkpt lat="48.39149" lon="2.64059">
        <ele>110.18</ele>
        <time>2021-09-15T11:24:08Z</time>
      </trkpt>
      <trkpt lat="48.39154" lon="2.64055">
        <ele>107.91</ele>
        <time>2021-09-15T11:24:14Z</time>
      </trkpt>
      <trkpt lat="48.39157" lon="2.64054">
        <ele>109.37</ele>
        <time>2021-09-15T11:24:17Z</time>
      </trkpt>
      <trkpt lat="48.39169" lon="2.64059">
        <ele>106.25</ele>
        <time>2021-09-15T11:24:33Z</time>
      </trkpt>
      <trkpt lat="48.39182" lon="2.64068">
        <ele>102.72</ele>
        <time>2021-09-15T11:24:52Z</time>
      </trkpt>
      <trkpt lat="48.39183" lon="2.64069">
        <ele>102.08</ele>
        <time>2021-09-15T11:24:54Z</time>
      </trkpt>
      <trkpt lat="48.39198" lon="2.64072">
        <ele>101.83</ele>
        <time>2021-09-15T11:25:11Z</time>
      </trkpt>
      <trkpt lat="48.39218" lon="2.64078">
        <ele>99.06</ele>
        <time>2021-09-15T11:25:38Z</time>
      </trkpt>
      <trkpt lat="48.39235" lon="2.64079">
        <ele>96.84</ele>
        <time>2021-09-15T11:26:02Z</time>
      </trkpt>
      <trkpt lat="48.39242" lon="2.64095">
        <ele>94.37</ele>
        <time>2021-09-15T11:26:17Z</time>
      </trkpt>
      <trkpt lat="48.39252" lon="2.64107">
        <ele>93.5</ele>
        <time>2021-09-15T11:26:31Z</time>
      </trkpt>
      <trkpt lat="48.39262" lon="2.64108">
        <ele>91.27</ele>
        <time>2021-09-15T11:26:45Z</time>
      </trkpt>
      <trkpt lat="48.39269" lon="2.64096">
        <ele>91.74</ele>
        <time>2021-09-15T11:27:02Z</time>
      </trkpt>
      <trkpt lat="48.39271" lon="2.64083">
        <ele>92.81</ele>
        <time>2021-09-15T11:27:18Z</time>
      </trkpt>
      <trkpt lat="48.39272" lon="2.64073">
        <ele>92.3</ele>
        <time>2021-09-15T11:27:35Z</time>
      </trkpt>
      <trkpt lat="48.39272" lon="2.64065">
        <ele>92.33</ele>
        <time>2021-09-15T11:27:43Z</time>
      </trkpt>
      <trkpt lat="48.39272" lon="2.64062">
        <ele>92.27</ele>
        <time>2021-09-15T11:27:45Z</time>
      </trkpt>
      <trkpt lat="48.3927" lon="2.64039">
        <ele>92.96</ele>
        <time>2021-09-15T11:28:02Z</time>
      </trkpt>
      <trkpt lat="48.3927" lon="2.64025">
        <ele>93.41</ele>
        <time>2021-09-15T11:28:10Z</time>
      </trkpt>
      <trkpt lat="48.39269" lon="2.64017">
        <ele>93.74</ele>
        <time>2021-09-15T11:28:15Z</time>
      </trkpt>
      <trkpt lat="48.39272" lon="2.64001">
        <ele>94.13</ele>
        <time>2021-09-15T11:28:29Z</time>
      </trkpt>
      <trkpt lat="48.39272" lon="2.63999">
        <ele>94.16</ele>
        <time>2021-09-15T11:28:30Z</time>
      </trkpt>
      <trkpt lat="48.39272" lon="2.63997">
        <ele>94.18</ele>
        <time>2021-09-15T11:28:31Z</time>
      </trkpt>
      <trkpt lat="48.39272" lon="2.63995">
        <ele>94.19</ele>
        <time>2021-09-15T11:28:32Z</time>
      </trkpt>
      <trkpt lat="48.39271" lon="2.63993">
        <ele>94.2</ele>
        <time>2021-09-15T11:28:33Z</time>
      </trkpt>
      <trkpt lat="48.39271" lon="2.63992">
        <ele>94.22</ele>
        <time>2021-09-15T11:28:34Z</time>
      </trkpt>
      <trkpt lat="48.39272" lon="2.6397">
        <ele>94.5</ele>
        <time>2021-09-15T11:28:48Z</time>
      </trkpt>
      <trkpt lat="48.39271" lon="2.63942">
        <ele>95.02</ele>
        <time>2021-09-15T11:29:05Z</time>
      </trkpt>
      <trkpt lat="48.39273" lon="2.63917">
        <ele>95.89</ele>
        <time>2021-09-15T11:29:24Z</time>
      </trkpt>
      <trkpt lat="48.39272" lon="2.63884">
        <ele>94.9</ele>
        <time>2021-09-15T11:29:45Z</time>
      </trkpt>
      <trkpt lat="48.39271" lon="2.63875">
        <ele>95.29</ele>
        <time>2021-09-15T11:29:50Z</time>
      </trkpt>
      <trkpt lat="48.39271" lon="2.63874">
        <ele>95.38</ele>
        <time>2021-09-15T11:29:51Z</time>
      </trkpt>
      <trkpt lat="48.39269" lon="2.63852">
        <ele>96.76</ele>
        <time>2021-09-15T11:30:10Z</time>
      </trkpt>
      <trkpt lat="48.39267" lon="2.63836">
        <ele>98.5</ele>
        <time>2021-09-15T11:30:19Z</time>
      </trkpt>
      <trkpt lat="48.39265" lon="2.63813">
        <ele>98.89</ele>
        <time>2021-09-15T11:30:35Z</time>
      </trkpt>
      <trkpt lat="48.39266" lon="2.63806">
        <ele>99.04</ele>
        <time>2021-09-15T11:30:39Z</time>
      </trkpt>
      <trkpt lat="48.39276" lon="2.63768">
        <ele>100.77</ele>
        <time>2021-09-15T11:31:07Z</time>
      </trkpt>
      <trkpt lat="48.39286" lon="2.63747">
        <ele>101.56</ele>
        <time>2021-09-15T11:31:22Z</time>
      </trkpt>
      <trkpt lat="48.39287" lon="2.63746">
        <ele>101.61</ele>
        <time>2021-09-15T11:31:23Z</time>
      </trkpt>
      <trkpt lat="48.39288" lon="2.63745">
        <ele>101.66</ele>
        <time>2021-09-15T11:31:24Z</time>
      </trkpt>
      <trkpt lat="48.39304" lon="2.6373">
        <ele>103.73</ele>
        <time>2021-09-15T11:31:41Z</time>
      </trkpt>
      <trkpt lat="48.39308" lon="2.63716">
        <ele>104.51</ele>
        <time>2021-09-15T11:31:49Z</time>
      </trkpt>
      <trkpt lat="48.39315" lon="2.63693">
        <ele>105.57</ele>
        <time>2021-09-15T11:32:04Z</time>
      </trkpt>
      <trkpt lat="48.39316" lon="2.63671">
        <ele>107.02</ele>
        <time>2021-09-15T11:32:17Z</time>
      </trkpt>
      <trkpt lat="48.39314" lon="2.63642">
        <ele>107.79</ele>
        <time>2021-09-15T11:32:37Z</time>
      </trkpt>
      <trkpt lat="48.39313" lon="2.63635">
        <ele>108.13</ele>
        <time>2021-09-15T11:32:41Z</time>
      </trkpt>
      <trkpt lat="48.39308" lon="2.63612">
        <ele>109.18</ele>
        <time>2021-09-15T11:32:56Z</time>
      </trkpt>
      <trkpt lat="48.39302" lon="2.63572">
        <ele>111.37</ele>
        <time>2021-09-15T11:33:22Z</time>
      </trkpt>
      <trkpt lat="48.393" lon="2.6354">
        <ele>113.83</ele>
        <time>2021-09-15T11:33:43Z</time>
      </trkpt>
      <trkpt lat="48.39308" lon="2.63502">
        <ele>114.25</ele>
        <time>2021-09-15T11:34:04Z</time>
      </trkpt>
      <trkpt lat="48.39308" lon="2.63484">
        <ele>114.44</ele>
        <time>2021-09-15T11:34:15Z</time>
      </trkpt>
      <trkpt lat="48.39308" lon="2.63482">
        <ele>114.47</ele>
        <time>2021-09-15T11:34:16Z</time>
      </trkpt>
      <trkpt lat="48.39308" lon="2.6348">
        <ele>114.5</ele>
        <time>2021-09-15T11:34:17Z</time>
      </trkpt>
      <trkpt lat="48.39315" lon="2.63456">
        <ele>115.09</ele>
        <time>2021-09-15T11:34:30Z</time>
      </trkpt>
      <trkpt lat="48.39315" lon="2.63454">
        <ele>115.23</ele>
        <time>2021-09-15T11:34:31Z</time>
      </trkpt>
      <trkpt lat="48.39315" lon="2.63452">
        <ele>115.29</ele>
        <time>2021-09-15T11:34:32Z</time>
      </trkpt>
      <trkpt lat="48.39316" lon="2.6345">
        <ele>115.34</ele>
        <time>2021-09-15T11:34:33Z</time>
      </trkpt>
      <trkpt lat="48.39316" lon="2.63447">
        <ele>115.37</ele>
        <time>2021-09-15T11:34:34Z</time>
      </trkpt>
      <trkpt lat="48.39317" lon="2.63445">
        <ele>115.4</ele>
        <time>2021-09-15T11:34:35Z</time>
      </trkpt>
      <trkpt lat="48.39317" lon="2.63444">
        <ele>115.42</ele>
        <time>2021-09-15T11:34:36Z</time>
      </trkpt>
      <trkpt lat="48.39318" lon="2.63442">
        <ele>115.42</ele>
        <time>2021-09-15T11:34:37Z</time>
      </trkpt>
      <trkpt lat="48.39318" lon="2.6344">
        <ele>115.46</ele>
        <time>2021-09-15T11:34:38Z</time>
      </trkpt>
      <trkpt lat="48.39319" lon="2.63434">
        <ele>115.73</ele>
        <time>2021-09-15T11:34:41Z</time>
      </trkpt>
      <trkpt lat="48.39319" lon="2.63433">
        <ele>115.8</ele>
        <time>2021-09-15T11:34:42Z</time>
      </trkpt>
      <trkpt lat="48.39323" lon="2.63412">
        <ele>116.43</ele>
        <time>2021-09-15T11:34:54Z</time>
      </trkpt>
      <trkpt lat="48.39323" lon="2.6341">
        <ele>116.49</ele>
        <time>2021-09-15T11:34:55Z</time>
      </trkpt>
      <trkpt lat="48.39323" lon="2.63408">
        <ele>116.56</ele>
        <time>2021-09-15T11:34:56Z</time>
      </trkpt>
      <trkpt lat="48.39323" lon="2.63406">
        <ele>116.68</ele>
        <time>2021-09-15T11:34:57Z</time>
      </trkpt>
      <trkpt lat="48.39327" lon="2.63373">
        <ele>118.36</ele>
        <time>2021-09-15T11:35:18Z</time>
      </trkpt>
      <trkpt lat="48.39327" lon="2.63322">
        <ele>119.81</ele>
        <time>2021-09-15T11:35:46Z</time>
      </trkpt>
      <trkpt lat="48.3933" lon="2.63295">
        <ele>122.1</ele>
        <time>2021-09-15T11:36:03Z</time>
      </trkpt>
      <trkpt lat="48.39331" lon="2.6327">
        <ele>123.44</ele>
        <time>2021-09-15T11:36:19Z</time>
      </trkpt>
      <trkpt lat="48.39334" lon="2.63242">
        <ele>124.92</ele>
        <time>2021-09-15T11:36:37Z</time>
      </trkpt>
      <trkpt lat="48.39333" lon="2.63235">
        <ele>125.25</ele>
        <time>2021-09-15T11:36:40Z</time>
      </trkpt>
      <trkpt lat="48.39334" lon="2.63233">
        <ele>125.46</ele>
        <time>2021-09-15T11:36:41Z</time>
      </trkpt>
      <trkpt lat="48.39334" lon="2.63231">
        <ele>125.54</ele>
        <time>2021-09-15T11:36:42Z</time>
      </trkpt>
      <trkpt lat="48.39339" lon="2.632">
        <ele>127.81</ele>
        <time>2021-09-15T11:37:02Z</time>
      </trkpt>
      <trkpt lat="48.39344" lon="2.63159">
        <ele>129.88</ele>
        <time>2021-09-15T11:37:26Z</time>
      </trkpt>
      <trkpt lat="48.39343" lon="2.63147">
        <ele>130.32</ele>
        <time>2021-09-15T11:37:46Z</time>
      </trkpt>
      <trkpt lat="48.39342" lon="2.63144">
        <ele>129.99</ele>
        <time>2021-09-15T11:38:12Z</time>
      </trkpt>
      <trkpt lat="48.39343" lon="2.63143">
        <ele>131.23</ele>
        <time>2021-09-15T11:38:34Z</time>
      </trkpt>
      <trkpt lat="48.39351" lon="2.63136">
        <ele>129.92</ele>
        <time>2021-09-15T11:38:47Z</time>
      </trkpt>
      <trkpt lat="48.39353" lon="2.63136">
        <ele>129.92</ele>
        <time>2021-09-15T11:38:48Z</time>
      </trkpt>
      <trkpt lat="48.39354" lon="2.63136">
        <ele>129.92</ele>
        <time>2021-09-15T11:38:49Z</time>
      </trkpt>
      <trkpt lat="48.39376" lon="2.63131">
        <ele>131.09</ele>
        <time>2021-09-15T11:39:12Z</time>
      </trkpt>
      <trkpt lat="48.3939" lon="2.63133">
        <ele>132.65</ele>
        <time>2021-09-15T11:39:26Z</time>
      </trkpt>
      <trkpt lat="48.39412" lon="2.63133">
        <ele>132.64</ele>
        <time>2021-09-15T11:39:52Z</time>
      </trkpt>
      <trkpt lat="48.39437" lon="2.63153">
        <ele>132.35</ele>
        <time>2021-09-15T11:40:12Z</time>
      </trkpt>
      <trkpt lat="48.39438" lon="2.63155">
        <ele>132.15</ele>
        <time>2021-09-15T11:40:13Z</time>
      </trkpt>
      <trkpt lat="48.39439" lon="2.63157">
        <ele>132.03</ele>
        <time>2021-09-15T11:40:14Z</time>
      </trkpt>
      <trkpt lat="48.39439" lon="2.63159">
        <ele>131.98</ele>
        <time>2021-09-15T11:40:15Z</time>
      </trkpt>
      <trkpt lat="48.39448" lon="2.6319">
        <ele>133.53</ele>
        <time>2021-09-15T11:40:31Z</time>
      </trkpt>
      <trkpt lat="48.39452" lon="2.63205">
        <ele>133.26</ele>
        <time>2021-09-15T11:40:38Z</time>
      </trkpt>
      <trkpt lat="48.39452" lon="2.63207">
        <ele>133.2</ele>
        <time>2021-09-15T11:40:39Z</time>
      </trkpt>
      <trkpt lat="48.39453" lon="2.63209">
        <ele>133.13</ele>
        <time>2021-09-15T11:40:40Z</time>
      </trkpt>
      <trkpt lat="48.39453" lon="2.63211">
        <ele>133.06</ele>
        <time>2021-09-15T11:40:41Z</time>
      </trkpt>
      <trkpt lat="48.39453" lon="2.63213">
        <ele>133.01</ele>
        <time>2021-09-15T11:40:42Z</time>
      </trkpt>
      <trkpt lat="48.39453" lon="2.63215">
        <ele>132.99</ele>
        <time>2021-09-15T11:40:43Z</time>
      </trkpt>
      <trkpt lat="48.39454" lon="2.63216">
        <ele>132.97</ele>
        <time>2021-09-15T11:40:44Z</time>
      </trkpt>
      <trkpt lat="48.39454" lon="2.63218">
        <ele>132.97</ele>
        <time>2021-09-15T11:40:45Z</time>
      </trkpt>
      <trkpt lat="48.39455" lon="2.6322">
        <ele>132.97</ele>
        <time>2021-09-15T11:40:46Z</time>
      </trkpt>
      <trkpt lat="48.39455" lon="2.63221">
        <ele>132.96</ele>
        <time>2021-09-15T11:40:47Z</time>
      </trkpt>
      <trkpt lat="48.3946" lon="2.63245">
        <ele>133.38</ele>
        <time>2021-09-15T11:41:02Z</time>
      </trkpt>
      <trkpt lat="48.39461" lon="2.63248">
        <ele>133.4</ele>
        <time>2021-09-15T11:41:03Z</time>
      </trkpt>
      <trkpt lat="48.39462" lon="2.6325">
        <ele>133.38</ele>
        <time>2021-09-15T11:41:04Z</time>
      </trkpt>
      <trkpt lat="48.39462" lon="2.63252">
        <ele>133.29</ele>
        <time>2021-09-15T11:41:05Z</time>
      </trkpt>
      <trkpt lat="48.39463" lon="2.63254">
        <ele>133.2</ele>
        <time>2021-09-15T11:41:06Z</time>
      </trkpt>
      <trkpt lat="48.39472" lon="2.63286">
        <ele>132.88</ele>
        <time>2021-09-15T11:41:23Z</time>
      </trkpt>
      <trkpt lat="48.39476" lon="2.63304">
        <ele>132.54</ele>
        <time>2021-09-15T11:41:33Z</time>
      </trkpt>
      <trkpt lat="48.39477" lon="2.63307">
        <ele>132.58</ele>
        <time>2021-09-15T11:41:35Z</time>
      </trkpt>
      <trkpt lat="48.39482" lon="2.63333">
        <ele>132.39</ele>
        <time>2021-09-15T11:41:51Z</time>
      </trkpt>
      <trkpt lat="48.39489" lon="2.6336">
        <ele>132.67</ele>
        <time>2021-09-15T11:42:06Z</time>
      </trkpt>
      <trkpt lat="48.39489" lon="2.63361">
        <ele>132.7</ele>
        <time>2021-09-15T11:42:07Z</time>
      </trkpt>
      <trkpt lat="48.39492" lon="2.63368">
        <ele>132.57</ele>
        <time>2021-09-15T11:42:18Z</time>
      </trkpt>
      <trkpt lat="48.39495" lon="2.63377">
        <ele>132.39</ele>
        <time>2021-09-15T11:42:27Z</time>
      </trkpt>
      <trkpt lat="48.39496" lon="2.6338">
        <ele>132.32</ele>
        <time>2021-09-15T11:42:29Z</time>
      </trkpt>
      <trkpt lat="48.39498" lon="2.63393">
        <ele>132.23</ele>
        <time>2021-09-15T11:42:38Z</time>
      </trkpt>
      <trkpt lat="48.39503" lon="2.63407">
        <ele>132.37</ele>
        <time>2021-09-15T11:42:47Z</time>
      </trkpt>
      <trkpt lat="48.39508" lon="2.63428">
        <ele>131.23</ele>
        <time>2021-09-15T11:43:02Z</time>
      </trkpt>
      <trkpt lat="48.39512" lon="2.63457">
        <ele>131.68</ele>
        <time>2021-09-15T11:43:17Z</time>
      </trkpt>
      <trkpt lat="48.39515" lon="2.63471">
        <ele>131.54</ele>
        <time>2021-09-15T11:43:23Z</time>
      </trkpt>
      <trkpt lat="48.39515" lon="2.63473">
        <ele>131.36</ele>
        <time>2021-09-15T11:43:24Z</time>
      </trkpt>
      <trkpt lat="48.39522" lon="2.63499">
        <ele>130.6</ele>
        <time>2021-09-15T11:43:39Z</time>
      </trkpt>
      <trkpt lat="48.39528" lon="2.63508">
        <ele>129.89</ele>
        <time>2021-09-15T11:43:48Z</time>
      </trkpt>
      <trkpt lat="48.39545" lon="2.63523">
        <ele>129.2</ele>
        <time>2021-09-15T11:44:08Z</time>
      </trkpt>
      <trkpt lat="48.39573" lon="2.63527">
        <ele>129.72</ele>
        <time>2021-09-15T11:44:31Z</time>
      </trkpt>
      <trkpt lat="48.39575" lon="2.63527">
        <ele>129.65</ele>
        <time>2021-09-15T11:44:32Z</time>
      </trkpt>
      <trkpt lat="48.39599" lon="2.63519">
        <ele>129.05</ele>
        <time>2021-09-15T11:44:57Z</time>
      </trkpt>
      <trkpt lat="48.39607" lon="2.63519">
        <ele>128.78</ele>
        <time>2021-09-15T11:45:05Z</time>
      </trkpt>
      <trkpt lat="48.39608" lon="2.63519">
        <ele>128.74</ele>
        <time>2021-09-15T11:45:06Z</time>
      </trkpt>
      <trkpt lat="48.39621" lon="2.63521">
        <ele>128.1</ele>
        <time>2021-09-15T11:45:21Z</time>
      </trkpt>
      <trkpt lat="48.39634" lon="2.63523">
        <ele>127.52</ele>
        <time>2021-09-15T11:45:38Z</time>
      </trkpt>
      <trkpt lat="48.39635" lon="2.63523">
        <ele>127.48</ele>
        <time>2021-09-15T11:45:39Z</time>
      </trkpt>
      <trkpt lat="48.3965" lon="2.63525">
        <ele>126.86</ele>
        <time>2021-09-15T11:45:55Z</time>
      </trkpt>
      <trkpt lat="48.39653" lon="2.63526">
        <ele>126.74</ele>
        <time>2021-09-15T11:45:57Z</time>
      </trkpt>
      <trkpt lat="48.39654" lon="2.63527">
        <ele>126.58</ele>
        <time>2021-09-15T11:45:58Z</time>
      </trkpt>
      <trkpt lat="48.39666" lon="2.63529">
        <ele>124.69</ele>
        <time>2021-09-15T11:46:09Z</time>
      </trkpt>
      <trkpt lat="48.39667" lon="2.63529">
        <ele>124.86</ele>
        <time>2021-09-15T11:46:10Z</time>
      </trkpt>
      <trkpt lat="48.3967" lon="2.6353">
        <ele>125.05</ele>
        <time>2021-09-15T11:46:12Z</time>
      </trkpt>
      <trkpt lat="48.39682" lon="2.63535">
        <ele>123.9</ele>
        <time>2021-09-15T11:46:26Z</time>
      </trkpt>
      <trkpt lat="48.39683" lon="2.63538">
        <ele>123.62</ele>
        <time>2021-09-15T11:46:28Z</time>
      </trkpt>
      <trkpt lat="48.39683" lon="2.6354">
        <ele>123.48</ele>
        <time>2021-09-15T11:46:29Z</time>
      </trkpt>
      <trkpt lat="48.39684" lon="2.63546">
        <ele>122.97</ele>
        <time>2021-09-15T11:46:33Z</time>
      </trkpt>
      <trkpt lat="48.39691" lon="2.63563">
        <ele>120.77</ele>
        <time>2021-09-15T11:46:48Z</time>
      </trkpt>
      <trkpt lat="48.39695" lon="2.63588">
        <ele>118.97</ele>
        <time>2021-09-15T11:47:00Z</time>
      </trkpt>
      <trkpt lat="48.39697" lon="2.63592">
        <ele>118.63</ele>
        <time>2021-09-15T11:47:02Z</time>
      </trkpt>
      <trkpt lat="48.39697" lon="2.63595">
        <ele>118.51</ele>
        <time>2021-09-15T11:47:03Z</time>
      </trkpt>
      <trkpt lat="48.39706" lon="2.6362">
        <ele>116.12</ele>
        <time>2021-09-15T11:47:21Z</time>
      </trkpt>
      <trkpt lat="48.39722" lon="2.63643">
        <ele>113.5</ele>
        <time>2021-09-15T11:47:44Z</time>
      </trkpt>
      <trkpt lat="48.39741" lon="2.63629">
        <ele>111.16</ele>
        <time>2021-09-15T11:48:05Z</time>
      </trkpt>
      <trkpt lat="48.39761" lon="2.63632">
        <ele>109.08</ele>
        <time>2021-09-15T11:48:22Z</time>
      </trkpt>
      <trkpt lat="48.39775" lon="2.63653">
        <ele>105.84</ele>
        <time>2021-09-15T11:48:39Z</time>
      </trkpt>
      <trkpt lat="48.39785" lon="2.63678">
        <ele>105.39</ele>
        <time>2021-09-15T11:48:58Z</time>
      </trkpt>
      <trkpt lat="48.39799" lon="2.63703">
        <ele>102.72</ele>
        <time>2021-09-15T11:49:19Z</time>
      </trkpt>
      <trkpt lat="48.39818" lon="2.63746">
        <ele>100.87</ele>
        <time>2021-09-15T11:49:48Z</time>
      </trkpt>
      <trkpt lat="48.39821" lon="2.63752">
        <ele>100.25</ele>
        <time>2021-09-15T11:49:52Z</time>
      </trkpt>
      <trkpt lat="48.39829" lon="2.63781">
        <ele>99.69</ele>
        <time>2021-09-15T11:50:09Z</time>
      </trkpt>
      <trkpt lat="48.3983" lon="2.63791">
        <ele>99.1</ele>
        <time>2021-09-15T11:50:20Z</time>
      </trkpt>
      <trkpt lat="48.39831" lon="2.6383">
        <ele>98.73</ele>
        <time>2021-09-15T11:50:42Z</time>
      </trkpt>
      <trkpt lat="48.3983" lon="2.63868">
        <ele>97.84</ele>
        <time>2021-09-15T11:51:02Z</time>
      </trkpt>
      <trkpt lat="48.39823" lon="2.6393">
        <ele>97.02</ele>
        <time>2021-09-15T11:51:32Z</time>
      </trkpt>
      <trkpt lat="48.39827" lon="2.63955">
        <ele>96.49</ele>
        <time>2021-09-15T11:51:56Z</time>
      </trkpt>
      <trkpt lat="48.39846" lon="2.63964">
        <ele>97.76</ele>
        <time>2021-09-15T11:52:22Z</time>
      </trkpt>
      <trkpt lat="48.39871" lon="2.63979">
        <ele>100.77</ele>
        <time>2021-09-15T11:52:49Z</time>
      </trkpt>
      <trkpt lat="48.39895" lon="2.63982">
        <ele>103.85</ele>
        <time>2021-09-15T11:53:14Z</time>
      </trkpt>
      <trkpt lat="48.39914" lon="2.63986">
        <ele>106.38</ele>
        <time>2021-09-15T11:53:33Z</time>
      </trkpt>
      <trkpt lat="48.39928" lon="2.63991">
        <ele>109.49</ele>
        <time>2021-09-15T11:53:47Z</time>
      </trkpt>
      <trkpt lat="48.39941" lon="2.63994">
        <ele>112.66</ele>
        <time>2021-09-15T11:54:03Z</time>
      </trkpt>
      <trkpt lat="48.39955" lon="2.63996">
        <ele>115.68</ele>
        <time>2021-09-15T11:54:18Z</time>
      </trkpt>
      <trkpt lat="48.39967" lon="2.63991">
        <ele>119.05</ele>
        <time>2021-09-15T11:54:35Z</time>
      </trkpt>
      <trkpt lat="48.39978" lon="2.63972">
        <ele>122.15</ele>
        <time>2021-09-15T11:54:55Z</time>
      </trkpt>
      <trkpt lat="48.39994" lon="2.63966">
        <ele>125.27</ele>
        <time>2021-09-15T11:55:16Z</time>
      </trkpt>
      <trkpt lat="48.40006" lon="2.63966">
        <ele>125.79</ele>
        <time>2021-09-15T11:55:26Z</time>
      </trkpt>
      <trkpt lat="48.40007" lon="2.63966">
        <ele>125.73</ele>
        <time>2021-09-15T11:55:27Z</time>
      </trkpt>
      <trkpt lat="48.40021" lon="2.63965">
        <ele>128.67</ele>
        <time>2021-09-15T11:55:43Z</time>
      </trkpt>
      <trkpt lat="48.40033" lon="2.63958">
        <ele>130.2</ele>
        <time>2021-09-15T11:56:07Z</time>
      </trkpt>
      <trkpt lat="48.40049" lon="2.63953">
        <ele>131.26</ele>
        <time>2021-09-15T11:56:29Z</time>
      </trkpt>
      <trkpt lat="48.4007" lon="2.63942">
        <ele>131.97</ele>
        <time>2021-09-15T11:56:54Z</time>
      </trkpt>
      <trkpt lat="48.40083" lon="2.63938">
        <ele>132.39</ele>
        <time>2021-09-15T11:57:16Z</time>
      </trkpt>
      <trkpt lat="48.40094" lon="2.63937">
        <ele>132.76</ele>
        <time>2021-09-15T11:57:41Z</time>
      </trkpt>
      <trkpt lat="48.40098" lon="2.63932">
        <ele>132.43</ele>
        <time>2021-09-15T11:58:17Z</time>
      </trkpt>
      <trkpt lat="48.401" lon="2.63931">
        <ele>132.53</ele>
        <time>2021-09-15T11:58:51Z</time>
      </trkpt>
      <trkpt lat="48.40117" lon="2.63925">
        <ele>132.54</ele>
        <time>2021-09-15T11:59:14Z</time>
      </trkpt>
      <trkpt lat="48.40139" lon="2.63918">
        <ele>133.05</ele>
        <time>2021-09-15T11:59:38Z</time>
      </trkpt>
      <trkpt lat="48.40171" lon="2.63912">
        <ele>133.67</ele>
        <time>2021-09-15T12:00:04Z</time>
      </trkpt>
      <trkpt lat="48.40203" lon="2.63902">
        <ele>133.72</ele>
        <time>2021-09-15T12:00:25Z</time>
      </trkpt>
      <trkpt lat="48.4022" lon="2.63896">
        <ele>133.47</ele>
        <time>2021-09-15T12:00:38Z</time>
      </trkpt>
      <trkpt lat="48.40242" lon="2.63886">
        <ele>133.21</ele>
        <time>2021-09-15T12:01:01Z</time>
      </trkpt>
      <trkpt lat="48.40277" lon="2.63877">
        <ele>132.83</ele>
        <time>2021-09-15T12:01:28Z</time>
      </trkpt>
      <trkpt lat="48.40307" lon="2.63866">
        <ele>132.85</ele>
        <time>2021-09-15T12:01:54Z</time>
      </trkpt>
      <trkpt lat="48.4033" lon="2.63859">
        <ele>132.71</ele>
        <time>2021-09-15T12:02:16Z</time>
      </trkpt>
      <trkpt lat="48.40344" lon="2.63851">
        <ele>132.71</ele>
        <time>2021-09-15T12:02:35Z</time>
      </trkpt>
      <trkpt lat="48.40368" lon="2.63846">
        <ele>132.67</ele>
        <time>2021-09-15T12:02:56Z</time>
      </trkpt>
      <trkpt lat="48.40388" lon="2.63851">
        <ele>131.46</ele>
        <time>2021-09-15T12:03:19Z</time>
      </trkpt>
      <trkpt lat="48.40392" lon="2.63852">
        <ele>131.68</ele>
        <time>2021-09-15T12:03:21Z</time>
      </trkpt>
      <trkpt lat="48.40393" lon="2.63852">
        <ele>131.76</ele>
        <time>2021-09-15T12:03:22Z</time>
      </trkpt>
      <trkpt lat="48.40395" lon="2.63851">
        <ele>131.83</ele>
        <time>2021-09-15T12:03:23Z</time>
      </trkpt>
      <trkpt lat="48.40396" lon="2.63851">
        <ele>131.83</ele>
        <time>2021-09-15T12:03:24Z</time>
      </trkpt>
      <trkpt lat="48.40398" lon="2.6385">
        <ele>131.78</ele>
        <time>2021-09-15T12:03:25Z</time>
      </trkpt>
      <trkpt lat="48.40399" lon="2.6385">
        <ele>131.68</ele>
        <time>2021-09-15T12:03:26Z</time>
      </trkpt>
      <trkpt lat="48.40416" lon="2.63832">
        <ele>131.32</ele>
        <time>2021-09-15T12:03:45Z</time>
      </trkpt>
      <trkpt lat="48.40421" lon="2.63816">
        <ele>131.15</ele>
        <time>2021-09-15T12:03:57Z</time>
      </trkpt>
      <trkpt lat="48.40425" lon="2.63789">
        <ele>130.48</ele>
        <time>2021-09-15T12:04:15Z</time>
      </trkpt>
      <trkpt lat="48.40436" lon="2.63782">
        <ele>131.18</ele>
        <time>2021-09-15T12:04:30Z</time>
      </trkpt>
      <trkpt lat="48.40441" lon="2.63779">
        <ele>130.89</ele>
        <time>2021-09-15T12:04:34Z</time>
      </trkpt>
      <trkpt lat="48.40442" lon="2.63778">
        <ele>130.86</ele>
        <time>2021-09-15T12:04:35Z</time>
      </trkpt>
      <trkpt lat="48.4046" lon="2.63762">
        <ele>130.32</ele>
        <time>2021-09-15T12:04:51Z</time>
      </trkpt>
      <trkpt lat="48.40467" lon="2.63757">
        <ele>130.63</ele>
        <time>2021-09-15T12:04:56Z</time>
      </trkpt>
      <trkpt lat="48.40468" lon="2.63757">
        <ele>130.9</ele>
        <time>2021-09-15T12:04:57Z</time>
      </trkpt>
      <trkpt lat="48.40482" lon="2.63754">
        <ele>129.75</ele>
        <time>2021-09-15T12:05:11Z</time>
      </trkpt>
      <trkpt lat="48.40505" lon="2.63741">
        <ele>130.28</ele>
        <time>2021-09-15T12:05:33Z</time>
      </trkpt>
      <trkpt lat="48.40522" lon="2.6372">
        <ele>129.92</ele>
        <time>2021-09-15T12:05:57Z</time>
      </trkpt>
      <trkpt lat="48.4054" lon="2.63696">
        <ele>130.89</ele>
        <time>2021-09-15T12:06:17Z</time>
      </trkpt>
      <trkpt lat="48.40539" lon="2.63682">
        <ele>131.04</ele>
        <time>2021-09-15T12:06:27Z</time>
      </trkpt>
      <trkpt lat="48.40538" lon="2.6368">
        <ele>131.02</ele>
        <time>2021-09-15T12:06:28Z</time>
      </trkpt>
      <trkpt lat="48.40535" lon="2.63663">
        <ele>131.39</ele>
        <time>2021-09-15T12:06:41Z</time>
      </trkpt>
      <trkpt lat="48.40538" lon="2.63641">
        <ele>130.37</ele>
        <time>2021-09-15T12:06:57Z</time>
      </trkpt>
      <trkpt lat="48.40536" lon="2.6362">
        <ele>130.56</ele>
        <time>2021-09-15T12:07:11Z</time>
      </trkpt>
      <trkpt lat="48.4054" lon="2.63602">
        <ele>130.1</ele>
        <time>2021-09-15T12:07:26Z</time>
      </trkpt>
      <trkpt lat="48.40545" lon="2.63589">
        <ele>129.64</ele>
        <time>2021-09-15T12:07:40Z</time>
      </trkpt>
      <trkpt lat="48.40546" lon="2.63588">
        <ele>129.64</ele>
        <time>2021-09-15T12:07:41Z</time>
      </trkpt>
      <trkpt lat="48.40548" lon="2.63587">
        <ele>129.64</ele>
        <time>2021-09-15T12:07:42Z</time>
      </trkpt>
      <trkpt lat="48.40552" lon="2.63569">
        <ele>130.36</ele>
        <time>2021-09-15T12:07:55Z</time>
      </trkpt>
      <trkpt lat="48.40556" lon="2.63555">
        <ele>130.01</ele>
        <time>2021-09-15T12:08:11Z</time>
      </trkpt>
      <trkpt lat="48.40559" lon="2.63559">
        <ele>129.86</ele>
        <time>2021-09-15T12:08:25Z</time>
      </trkpt>
      <trkpt lat="48.40558" lon="2.63551">
        <ele>129.7</ele>
        <time>2021-09-15T12:08:31Z</time>
      </trkpt>
      <trkpt lat="48.40548" lon="2.63537">
        <ele>130.06</ele>
        <time>2021-09-15T12:08:45Z</time>
      </trkpt>
      <trkpt lat="48.40545" lon="2.63528">
        <ele>131.9</ele>
        <time>2021-09-15T12:08:58Z</time>
      </trkpt>
      <trkpt lat="48.40556" lon="2.63509">
        <ele>132.63</ele>
        <time>2021-09-15T12:09:17Z</time>
      </trkpt>
      <trkpt lat="48.40555" lon="2.63486">
        <ele>132.62</ele>
        <time>2021-09-15T12:09:32Z</time>
      </trkpt>
      <trkpt lat="48.40556" lon="2.63484">
        <ele>132.84</ele>
        <time>2021-09-15T12:09:33Z</time>
      </trkpt>
      <trkpt lat="48.40559" lon="2.63479">
        <ele>133.5</ele>
        <time>2021-09-15T12:09:37Z</time>
      </trkpt>
      <trkpt lat="48.40561" lon="2.6346">
        <ele>132.84</ele>
        <time>2021-09-15T12:09:47Z</time>
      </trkpt>
      <trkpt lat="48.40562" lon="2.63458">
        <ele>132.89</ele>
        <time>2021-09-15T12:09:48Z</time>
      </trkpt>
      <trkpt lat="48.40562" lon="2.63448">
        <ele>133.15</ele>
        <time>2021-09-15T12:09:59Z</time>
      </trkpt>
      <trkpt lat="48.40559" lon="2.63436">
        <ele>133.45</ele>
        <time>2021-09-15T12:10:17Z</time>
      </trkpt>
      <trkpt lat="48.4056" lon="2.63432">
        <ele>133.42</ele>
        <time>2021-09-15T12:10:19Z</time>
      </trkpt>
      <trkpt lat="48.4056" lon="2.63421">
        <ele>134.16</ele>
        <time>2021-09-15T12:10:34Z</time>
      </trkpt>
      <trkpt lat="48.40558" lon="2.6342">
        <ele>134.05</ele>
        <time>2021-09-15T12:10:47Z</time>
      </trkpt>
      <trkpt lat="48.40559" lon="2.63412">
        <ele>134.13</ele>
        <time>2021-09-15T12:10:55Z</time>
      </trkpt>
      <trkpt lat="48.40562" lon="2.63406">
        <ele>133.96</ele>
        <time>2021-09-15T12:11:01Z</time>
      </trkpt>
      <trkpt lat="48.40565" lon="2.63391">
        <ele>133.75</ele>
        <time>2021-09-15T12:11:12Z</time>
      </trkpt>
      <trkpt lat="48.40566" lon="2.63386">
        <ele>133.91</ele>
        <time>2021-09-15T12:11:16Z</time>
      </trkpt>
      <trkpt lat="48.40567" lon="2.63384">
        <ele>133.91</ele>
        <time>2021-09-15T12:11:17Z</time>
      </trkpt>
      <trkpt lat="48.40575" lon="2.6337">
        <ele>133.77</ele>
        <time>2021-09-15T12:11:31Z</time>
      </trkpt>
      <trkpt lat="48.40577" lon="2.63371">
        <ele>134.02</ele>
        <time>2021-09-15T12:11:55Z</time>
      </trkpt>
      <trkpt lat="48.40582" lon="2.63362">
        <ele>133.7</ele>
        <time>2021-09-15T12:12:21Z</time>
      </trkpt>
      <trkpt lat="48.40584" lon="2.63359">
        <ele>133.7</ele>
        <time>2021-09-15T12:12:25Z</time>
      </trkpt>
      <trkpt lat="48.40585" lon="2.63358">
        <ele>133.7</ele>
        <time>2021-09-15T12:12:26Z</time>
      </trkpt>
      <trkpt lat="48.40587" lon="2.63355">
        <ele>133.78</ele>
        <time>2021-09-15T12:12:29Z</time>
      </trkpt>
      <trkpt lat="48.40588" lon="2.63354">
        <ele>133.84</ele>
        <time>2021-09-15T12:12:30Z</time>
      </trkpt>
      <trkpt lat="48.40599" lon="2.63333">
        <ele>133.63</ele>
        <time>2021-09-15T12:12:47Z</time>
      </trkpt>
      <trkpt lat="48.40604" lon="2.63317">
        <ele>132.16</ele>
        <time>2021-09-15T12:13:02Z</time>
      </trkpt>
      <trkpt lat="48.40609" lon="2.63285">
        <ele>131.19</ele>
        <time>2021-09-15T12:13:22Z</time>
      </trkpt>
      <trkpt lat="48.40611" lon="2.63254">
        <ele>130.75</ele>
        <time>2021-09-15T12:13:44Z</time>
      </trkpt>
      <trkpt lat="48.40619" lon="2.63224">
        <ele>129.6</ele>
        <time>2021-09-15T12:14:04Z</time>
      </trkpt>
      <trkpt lat="48.40615" lon="2.63192">
        <ele>130.08</ele>
        <time>2021-09-15T12:14:23Z</time>
      </trkpt>
      <trkpt lat="48.40611" lon="2.63188">
        <ele>129.35</ele>
        <time>2021-09-15T12:14:39Z</time>
      </trkpt>
      <trkpt lat="48.40607" lon="2.63174">
        <ele>129.01</ele>
        <time>2021-09-15T12:14:51Z</time>
      </trkpt>
      <trkpt lat="48.40604" lon="2.63149">
        <ele>128.59</ele>
        <time>2021-09-15T12:15:09Z</time>
      </trkpt>
      <trkpt lat="48.40593" lon="2.63135">
        <ele>129.09</ele>
        <time>2021-09-15T12:15:24Z</time>
      </trkpt>
      <trkpt lat="48.40589" lon="2.63135">
        <ele>128.41</ele>
        <time>2021-09-15T12:15:43Z</time>
      </trkpt>
      <trkpt lat="48.40583" lon="2.63135">
        <ele>128.37</ele>
        <time>2021-09-15T12:16:07Z</time>
      </trkpt>
      <trkpt lat="48.40569" lon="2.63142">
        <ele>128.7</ele>
        <time>2021-09-15T12:16:25Z</time>
      </trkpt>
      <trkpt lat="48.40552" lon="2.63153">
        <ele>128.51</ele>
        <time>2021-09-15T12:16:41Z</time>
      </trkpt>
      <trkpt lat="48.40535" lon="2.63165">
        <ele>128.05</ele>
        <time>2021-09-15T12:16:58Z</time>
      </trkpt>
      <trkpt lat="48.40534" lon="2.63166">
        <ele>128.05</ele>
        <time>2021-09-15T12:16:59Z</time>
      </trkpt>
      <trkpt lat="48.40524" lon="2.63171">
        <ele>128.47</ele>
        <time>2021-09-15T12:17:12Z</time>
      </trkpt>
      <trkpt lat="48.40511" lon="2.63185">
        <ele>129.14</ele>
        <time>2021-09-15T12:17:30Z</time>
      </trkpt>
      <trkpt lat="48.40503" lon="2.63218">
        <ele>129.73</ele>
        <time>2021-09-15T12:17:52Z</time>
      </trkpt>
      <trkpt lat="48.40503" lon="2.63222">
        <ele>129.79</ele>
        <time>2021-09-15T12:17:54Z</time>
      </trkpt>
      <trkpt lat="48.40502" lon="2.63224">
        <ele>129.85</ele>
        <time>2021-09-15T12:17:55Z</time>
      </trkpt>
      <trkpt lat="48.40495" lon="2.63254">
        <ele>129.8</ele>
        <time>2021-09-15T12:18:14Z</time>
      </trkpt>
      <trkpt lat="48.40491" lon="2.6329">
        <ele>130.56</ele>
        <time>2021-09-15T12:18:35Z</time>
      </trkpt>
      <trkpt lat="48.40486" lon="2.6333">
        <ele>131.2</ele>
        <time>2021-09-15T12:18:59Z</time>
      </trkpt>
      <trkpt lat="48.40483" lon="2.63362">
        <ele>131.07</ele>
        <time>2021-09-15T12:19:22Z</time>
      </trkpt>
      <trkpt lat="48.40481" lon="2.63404">
        <ele>131.9</ele>
        <time>2021-09-15T12:19:44Z</time>
      </trkpt>
      <trkpt lat="48.40479" lon="2.63419">
        <ele>131.73</ele>
        <time>2021-09-15T12:19:54Z</time>
      </trkpt>
      <trkpt lat="48.40478" lon="2.63447">
        <ele>132.19</ele>
        <time>2021-09-15T12:20:09Z</time>
      </trkpt>
      <trkpt lat="48.40479" lon="2.63448">
        <ele>132.19</ele>
        <time>2021-09-15T12:20:10Z</time>
      </trkpt>
      <trkpt lat="48.40491" lon="2.63475">
        <ele>131.71</ele>
        <time>2021-09-15T12:20:33Z</time>
      </trkpt>
      <trkpt lat="48.40494" lon="2.63484">
        <ele>131.78</ele>
        <time>2021-09-15T12:20:39Z</time>
      </trkpt>
      <trkpt lat="48.40501" lon="2.63496">
        <ele>132.57</ele>
        <time>2021-09-15T12:20:48Z</time>
      </trkpt>
      <trkpt lat="48.40513" lon="2.63518">
        <ele>133.73</ele>
        <time>2021-09-15T12:21:06Z</time>
      </trkpt>
      <trkpt lat="48.40525" lon="2.63524">
        <ele>134</ele>
        <time>2021-09-15T12:21:16Z</time>
      </trkpt>
      <trkpt lat="48.40538" lon="2.63538">
        <ele>134.15</ele>
        <time>2021-09-15T12:21:31Z</time>
      </trkpt>
      <trkpt lat="48.40546" lon="2.63548">
        <ele>132.9</ele>
        <time>2021-09-15T12:21:41Z</time>
      </trkpt>
      <trkpt lat="48.40556" lon="2.63562">
        <ele>131.6</ele>
        <time>2021-09-15T12:21:51Z</time>
      </trkpt>
      <trkpt lat="48.40557" lon="2.63564">
        <ele>131.61</ele>
        <time>2021-09-15T12:21:52Z</time>
      </trkpt>
      <trkpt lat="48.40571" lon="2.6358">
        <ele>131.69</ele>
        <time>2021-09-15T12:22:08Z</time>
      </trkpt>
      <trkpt lat="48.40583" lon="2.63593">
        <ele>131.33</ele>
        <time>2021-09-15T12:22:22Z</time>
      </trkpt>
      <trkpt lat="48.40584" lon="2.63595">
        <ele>131.22</ele>
        <time>2021-09-15T12:22:23Z</time>
      </trkpt>
      <trkpt lat="48.40585" lon="2.63596">
        <ele>131.12</ele>
        <time>2021-09-15T12:22:24Z</time>
      </trkpt>
      <trkpt lat="48.40589" lon="2.63624">
        <ele>130.65</ele>
        <time>2021-09-15T12:22:45Z</time>
      </trkpt>
      <trkpt lat="48.40588" lon="2.63632">
        <ele>129.16</ele>
        <time>2021-09-15T12:22:50Z</time>
      </trkpt>
      <trkpt lat="48.40585" lon="2.6366">
        <ele>131.13</ele>
        <time>2021-09-15T12:23:07Z</time>
      </trkpt>
      <trkpt lat="48.40581" lon="2.63691">
        <ele>131.18</ele>
        <time>2021-09-15T12:23:25Z</time>
      </trkpt>
      <trkpt lat="48.4058" lon="2.63699">
        <ele>131.3</ele>
        <time>2021-09-15T12:23:28Z</time>
      </trkpt>
      <trkpt lat="48.40579" lon="2.63702">
        <ele>131.27</ele>
        <time>2021-09-15T12:23:29Z</time>
      </trkpt>
      <trkpt lat="48.40579" lon="2.63732">
        <ele>132.45</ele>
        <time>2021-09-15T12:23:44Z</time>
      </trkpt>
      <trkpt lat="48.40577" lon="2.63751">
        <ele>133.02</ele>
        <time>2021-09-15T12:23:57Z</time>
      </trkpt>
      <trkpt lat="48.40577" lon="2.63759">
        <ele>133.11</ele>
        <time>2021-09-15T12:24:22Z</time>
      </trkpt>
      <trkpt lat="48.40576" lon="2.63771">
        <ele>132.77</ele>
        <time>2021-09-15T12:24:30Z</time>
      </trkpt>
      <trkpt lat="48.40573" lon="2.638">
        <ele>132.99</ele>
        <time>2021-09-15T12:24:47Z</time>
      </trkpt>
      <trkpt lat="48.40577" lon="2.63821">
        <ele>133.16</ele>
        <time>2021-09-15T12:25:01Z</time>
      </trkpt>
      <trkpt lat="48.40579" lon="2.63852">
        <ele>132.87</ele>
        <time>2021-09-15T12:25:19Z</time>
      </trkpt>
      <trkpt lat="48.4058" lon="2.63855">
        <ele>132.83</ele>
        <time>2021-09-15T12:25:20Z</time>
      </trkpt>
      <trkpt lat="48.40585" lon="2.63875">
        <ele>132.3</ele>
        <time>2021-09-15T12:25:32Z</time>
      </trkpt>
      <trkpt lat="48.40587" lon="2.63878">
        <ele>132.27</ele>
        <time>2021-09-15T12:25:34Z</time>
      </trkpt>
      <trkpt lat="48.4059" lon="2.63891">
        <ele>131.92</ele>
        <time>2021-09-15T12:25:49Z</time>
      </trkpt>
      <trkpt lat="48.40592" lon="2.639">
        <ele>131.72</ele>
        <time>2021-09-15T12:26:05Z</time>
      </trkpt>
      <trkpt lat="48.40593" lon="2.63901">
        <ele>131.53</ele>
        <time>2021-09-15T12:26:06Z</time>
      </trkpt>
      <trkpt lat="48.40595" lon="2.63905">
        <ele>130.96</ele>
        <time>2021-09-15T12:26:09Z</time>
      </trkpt>
      <trkpt lat="48.40595" lon="2.63906">
        <ele>130.71</ele>
        <time>2021-09-15T12:26:10Z</time>
      </trkpt>
      <trkpt lat="48.40599" lon="2.63926">
        <ele>130.12</ele>
        <time>2021-09-15T12:26:25Z</time>
      </trkpt>
      <trkpt lat="48.40602" lon="2.63947">
        <ele>130.53</ele>
        <time>2021-09-15T12:26:36Z</time>
      </trkpt>
      <trkpt lat="48.40604" lon="2.63959">
        <ele>130.73</ele>
        <time>2021-09-15T12:26:42Z</time>
      </trkpt>
      <trkpt lat="48.40605" lon="2.63961">
        <ele>130.67</ele>
        <time>2021-09-15T12:26:43Z</time>
      </trkpt>
      <trkpt lat="48.4061" lon="2.63984">
        <ele>130.61</ele>
        <time>2021-09-15T12:26:59Z</time>
      </trkpt>
      <trkpt lat="48.40614" lon="2.64">
        <ele>132.69</ele>
        <time>2021-09-15T12:27:08Z</time>
      </trkpt>
      <trkpt lat="48.40618" lon="2.64025">
        <ele>131.63</ele>
        <time>2021-09-15T12:27:24Z</time>
      </trkpt>
      <trkpt lat="48.40627" lon="2.64057">
        <ele>130.62</ele>
        <time>2021-09-15T12:27:47Z</time>
      </trkpt>
      <trkpt lat="48.40634" lon="2.64084">
        <ele>130.73</ele>
        <time>2021-09-15T12:28:03Z</time>
      </trkpt>
      <trkpt lat="48.40634" lon="2.64086">
        <ele>130.76</ele>
        <time>2021-09-15T12:28:04Z</time>
      </trkpt>
      <trkpt lat="48.40634" lon="2.64088">
        <ele>130.8</ele>
        <time>2021-09-15T12:28:05Z</time>
      </trkpt>
      <trkpt lat="48.40634" lon="2.64107">
        <ele>131.04</ele>
        <time>2021-09-15T12:28:15Z</time>
      </trkpt>
      <trkpt lat="48.40638" lon="2.64131">
        <ele>131.54</ele>
        <time>2021-09-15T12:28:30Z</time>
      </trkpt>
      <trkpt lat="48.40648" lon="2.64161">
        <ele>132.57</ele>
        <time>2021-09-15T12:28:52Z</time>
      </trkpt>
      <trkpt lat="48.40652" lon="2.64186">
        <ele>133.49</ele>
        <time>2021-09-15T12:29:05Z</time>
      </trkpt>
      <trkpt lat="48.40654" lon="2.6421">
        <ele>133.63</ele>
        <time>2021-09-15T12:29:19Z</time>
      </trkpt>
      <trkpt lat="48.40652" lon="2.64222">
        <ele>133.4</ele>
        <time>2021-09-15T12:29:25Z</time>
      </trkpt>
      <trkpt lat="48.40651" lon="2.64254">
        <ele>133.78</ele>
        <time>2021-09-15T12:29:41Z</time>
      </trkpt>
      <trkpt lat="48.40648" lon="2.64257">
        <ele>133.76</ele>
        <time>2021-09-15T12:29:44Z</time>
      </trkpt>
      <trkpt lat="48.40636" lon="2.64269">
        <ele>132.86</ele>
        <time>2021-09-15T12:29:59Z</time>
      </trkpt>
      <trkpt lat="48.40633" lon="2.64277">
        <ele>133.3</ele>
        <time>2021-09-15T12:30:04Z</time>
      </trkpt>
      <trkpt lat="48.40632" lon="2.64279">
        <ele>133.15</ele>
        <time>2021-09-15T12:30:05Z</time>
      </trkpt>
      <trkpt lat="48.40631" lon="2.64285">
        <ele>132.44</ele>
        <time>2021-09-15T12:30:09Z</time>
      </trkpt>
      <trkpt lat="48.40631" lon="2.64287">
        <ele>132.15</ele>
        <time>2021-09-15T12:30:10Z</time>
      </trkpt>
      <trkpt lat="48.40632" lon="2.64298">
        <ele>130.53</ele>
        <time>2021-09-15T12:30:26Z</time>
      </trkpt>
      <trkpt lat="48.40633" lon="2.64311">
        <ele>129.17</ele>
        <time>2021-09-15T12:30:49Z</time>
      </trkpt>
      <trkpt lat="48.40633" lon="2.64315">
        <ele>128.82</ele>
        <time>2021-09-15T12:31:17Z</time>
      </trkpt>
      <trkpt lat="48.40631" lon="2.6433">
        <ele>127.96</ele>
        <time>2021-09-15T12:31:32Z</time>
      </trkpt>
      <trkpt lat="48.4063" lon="2.64332">
        <ele>127.74</ele>
        <time>2021-09-15T12:31:33Z</time>
      </trkpt>
      <trkpt lat="48.4063" lon="2.64333">
        <ele>127.62</ele>
        <time>2021-09-15T12:31:34Z</time>
      </trkpt>
      <trkpt lat="48.40629" lon="2.64335">
        <ele>127.55</ele>
        <time>2021-09-15T12:31:35Z</time>
      </trkpt>
      <trkpt lat="48.40629" lon="2.64337">
        <ele>127.52</ele>
        <time>2021-09-15T12:31:36Z</time>
      </trkpt>
      <trkpt lat="48.40629" lon="2.64338">
        <ele>127.62</ele>
        <time>2021-09-15T12:31:37Z</time>
      </trkpt>
      <trkpt lat="48.40628" lon="2.6434">
        <ele>127.71</ele>
        <time>2021-09-15T12:31:38Z</time>
      </trkpt>
      <trkpt lat="48.40627" lon="2.64342">
        <ele>127.76</ele>
        <time>2021-09-15T12:31:39Z</time>
      </trkpt>
      <trkpt lat="48.40627" lon="2.64345">
        <ele>127.75</ele>
        <time>2021-09-15T12:31:41Z</time>
      </trkpt>
      <trkpt lat="48.40628" lon="2.64372">
        <ele>125.61</ele>
        <time>2021-09-15T12:31:58Z</time>
      </trkpt>
      <trkpt lat="48.40631" lon="2.64393">
        <ele>122.53</ele>
        <time>2021-09-15T12:32:14Z</time>
      </trkpt>
      <trkpt lat="48.40625" lon="2.64417">
        <ele>120.68</ele>
        <time>2021-09-15T12:32:38Z</time>
      </trkpt>
      <trkpt lat="48.40622" lon="2.64423">
        <ele>120.74</ele>
        <time>2021-09-15T12:32:43Z</time>
      </trkpt>
      <trkpt lat="48.40622" lon="2.64424">
        <ele>120.72</ele>
        <time>2021-09-15T12:32:44Z</time>
      </trkpt>
      <trkpt lat="48.40619" lon="2.64426">
        <ele>120.5</ele>
        <time>2021-09-15T12:32:47Z</time>
      </trkpt>
      <trkpt lat="48.40607" lon="2.64446">
        <ele>119.47</ele>
        <time>2021-09-15T12:33:02Z</time>
      </trkpt>
      <trkpt lat="48.40597" lon="2.64485">
        <ele>117.77</ele>
        <time>2021-09-15T12:33:27Z</time>
      </trkpt>
      <trkpt lat="48.40597" lon="2.64495">
        <ele>117.75</ele>
        <time>2021-09-15T12:33:33Z</time>
      </trkpt>
      <trkpt lat="48.40597" lon="2.64497">
        <ele>117.65</ele>
        <time>2021-09-15T12:33:34Z</time>
      </trkpt>
      <trkpt lat="48.40597" lon="2.64498">
        <ele>117.52</ele>
        <time>2021-09-15T12:33:35Z</time>
      </trkpt>
      <trkpt lat="48.40609" lon="2.6454">
        <ele>115.71</ele>
        <time>2021-09-15T12:33:59Z</time>
      </trkpt>
      <trkpt lat="48.40616" lon="2.6459">
        <ele>114.79</ele>
        <time>2021-09-15T12:34:27Z</time>
      </trkpt>
      <trkpt lat="48.40621" lon="2.64627">
        <ele>113.08</ele>
        <time>2021-09-15T12:34:51Z</time>
      </trkpt>
      <trkpt lat="48.40621" lon="2.64629">
        <ele>113.05</ele>
        <time>2021-09-15T12:34:52Z</time>
      </trkpt>
      <trkpt lat="48.40614" lon="2.6467">
        <ele>112.16</ele>
        <time>2021-09-15T12:35:14Z</time>
      </trkpt>
      <trkpt lat="48.40604" lon="2.647">
        <ele>111.69</ele>
        <time>2021-09-15T12:35:28Z</time>
      </trkpt>
      <trkpt lat="48.40601" lon="2.64724">
        <ele>111.39</ele>
        <time>2021-09-15T12:35:42Z</time>
      </trkpt>
      <trkpt lat="48.40591" lon="2.64754">
        <ele>111.23</ele>
        <time>2021-09-15T12:35:57Z</time>
      </trkpt>
      <trkpt lat="48.40586" lon="2.64777">
        <ele>110.55</ele>
        <time>2021-09-15T12:36:11Z</time>
      </trkpt>
      <trkpt lat="48.40577" lon="2.64788">
        <ele>111.93</ele>
        <time>2021-09-15T12:36:32Z</time>
      </trkpt>
      <trkpt lat="48.40565" lon="2.64784">
        <ele>110.96</ele>
        <time>2021-09-15T12:36:52Z</time>
      </trkpt>
      <trkpt lat="48.40548" lon="2.6478">
        <ele>109.77</ele>
        <time>2021-09-15T12:37:08Z</time>
      </trkpt>
      <trkpt lat="48.40547" lon="2.64779">
        <ele>110.34</ele>
        <time>2021-09-15T12:37:09Z</time>
      </trkpt>
      <trkpt lat="48.40534" lon="2.64776">
        <ele>113.35</ele>
        <time>2021-09-15T12:37:19Z</time>
      </trkpt>
      <trkpt lat="48.40517" lon="2.64775">
        <ele>112.44</ele>
        <time>2021-09-15T12:37:34Z</time>
      </trkpt>
      <trkpt lat="48.40506" lon="2.64768">
        <ele>114.51</ele>
        <time>2021-09-15T12:37:46Z</time>
      </trkpt>
      <trkpt lat="48.40488" lon="2.64752">
        <ele>115.69</ele>
        <time>2021-09-15T12:38:09Z</time>
      </trkpt>
      <trkpt lat="48.40471" lon="2.64745">
        <ele>117.71</ele>
        <time>2021-09-15T12:38:28Z</time>
      </trkpt>
      <trkpt lat="48.40452" lon="2.64728">
        <ele>120.87</ele>
        <time>2021-09-15T12:38:50Z</time>
      </trkpt>
      <trkpt lat="48.40442" lon="2.64724">
        <ele>124</ele>
        <time>2021-09-15T12:39:05Z</time>
      </trkpt>
      <trkpt lat="48.40427" lon="2.64707">
        <ele>126.61</ele>
        <time>2021-09-15T12:39:27Z</time>
      </trkpt>
      <trkpt lat="48.40421" lon="2.64699">
        <ele>129.69</ele>
        <time>2021-09-15T12:39:35Z</time>
      </trkpt>
      <trkpt lat="48.40408" lon="2.64685">
        <ele>130.49</ele>
        <time>2021-09-15T12:39:56Z</time>
      </trkpt>
      <trkpt lat="48.40403" lon="2.64676">
        <ele>128.04</ele>
        <time>2021-09-15T12:40:09Z</time>
      </trkpt>
      <trkpt lat="48.40393" lon="2.6466">
        <ele>128.54</ele>
        <time>2021-09-15T12:40:25Z</time>
      </trkpt>
      <trkpt lat="48.40391" lon="2.64655">
        <ele>126.87</ele>
        <time>2021-09-15T12:40:30Z</time>
      </trkpt>
      <trkpt lat="48.40379" lon="2.64639">
        <ele>125.84</ele>
        <time>2021-09-15T12:40:47Z</time>
      </trkpt>
      <trkpt lat="48.40369" lon="2.64612">
        <ele>123.48</ele>
        <time>2021-09-15T12:41:09Z</time>
      </trkpt>
      <trkpt lat="48.40368" lon="2.64593">
        <ele>122.94</ele>
        <time>2021-09-15T12:41:21Z</time>
      </trkpt>
      <trkpt lat="48.40368" lon="2.64591">
        <ele>122.92</ele>
        <time>2021-09-15T12:41:22Z</time>
      </trkpt>
      <trkpt lat="48.40367" lon="2.64564">
        <ele>123.22</ele>
        <time>2021-09-15T12:41:36Z</time>
      </trkpt>
      <trkpt lat="48.40367" lon="2.64562">
        <ele>123.23</ele>
        <time>2021-09-15T12:41:37Z</time>
      </trkpt>
      <trkpt lat="48.40363" lon="2.64547">
        <ele>123.55</ele>
        <time>2021-09-15T12:41:47Z</time>
      </trkpt>
      <trkpt lat="48.40363" lon="2.64544">
        <ele>123.55</ele>
        <time>2021-09-15T12:41:48Z</time>
      </trkpt>
      <trkpt lat="48.40363" lon="2.64542">
        <ele>123.55</ele>
        <time>2021-09-15T12:41:49Z</time>
      </trkpt>
      <trkpt lat="48.40353" lon="2.64525">
        <ele>121.35</ele>
        <time>2021-09-15T12:42:06Z</time>
      </trkpt>
      <trkpt lat="48.40342" lon="2.64528">
        <ele>118.15</ele>
        <time>2021-09-15T12:42:21Z</time>
      </trkpt>
      <trkpt lat="48.40329" lon="2.64528">
        <ele>115.97</ele>
        <time>2021-09-15T12:42:32Z</time>
      </trkpt>
      <trkpt lat="48.40325" lon="2.64527">
        <ele>115.63</ele>
        <time>2021-09-15T12:42:36Z</time>
      </trkpt>
      <trkpt lat="48.40317" lon="2.64513">
        <ele>113.49</ele>
        <time>2021-09-15T12:42:47Z</time>
      </trkpt>
      <trkpt lat="48.40313" lon="2.64498">
        <ele>112.03</ele>
        <time>2021-09-15T12:42:56Z</time>
      </trkpt>
      <trkpt lat="48.40312" lon="2.64496">
        <ele>112.01</ele>
        <time>2021-09-15T12:42:57Z</time>
      </trkpt>
      <trkpt lat="48.40312" lon="2.64494">
        <ele>111.99</ele>
        <time>2021-09-15T12:42:58Z</time>
      </trkpt>
      <trkpt lat="48.40311" lon="2.64492">
        <ele>111.94</ele>
        <time>2021-09-15T12:42:59Z</time>
      </trkpt>
      <trkpt lat="48.40311" lon="2.6449">
        <ele>111.85</ele>
        <time>2021-09-15T12:43:00Z</time>
      </trkpt>
      <trkpt lat="48.40303" lon="2.64468">
        <ele>111.51</ele>
        <time>2021-09-15T12:43:18Z</time>
      </trkpt>
      <trkpt lat="48.40304" lon="2.64469">
        <ele>112.04</ele>
        <time>2021-09-15T12:43:46Z</time>
      </trkpt>
      <trkpt lat="48.40306" lon="2.64469">
        <ele>112.04</ele>
        <time>2021-09-15T12:44:22Z</time>
      </trkpt>
      <trkpt lat="48.40308" lon="2.64465">
        <ele>112.04</ele>
        <time>2021-09-15T12:44:54Z</time>
      </trkpt>
      <trkpt lat="48.40303" lon="2.64465">
        <ele>107.88</ele>
        <time>2021-09-15T12:45:26Z</time>
      </trkpt>
      <trkpt lat="48.40303" lon="2.64465">
        <ele>107.88</ele>
        <time>2021-09-15T12:45:27Z</time>
      </trkpt>
      <trkpt lat="48.40303" lon="2.64464">
        <ele>106.2</ele>
        <time>2021-09-15T12:45:29Z</time>
      </trkpt>
      <trkpt lat="48.40302" lon="2.64464">
        <ele>110.07</ele>
        <time>2021-09-15T12:45:31Z</time>
      </trkpt>
      <trkpt lat="48.40302" lon="2.64463">
        <ele>107.81</ele>
        <time>2021-09-15T12:45:34Z</time>
      </trkpt>
      <trkpt lat="48.40302" lon="2.64462">
        <ele>110.72</ele>
        <time>2021-09-15T12:45:37Z</time>
      </trkpt>
      <trkpt lat="48.40301" lon="2.64462">
        <ele>113.34</ele>
        <time>2021-09-15T12:45:53Z</time>
      </trkpt>
      <trkpt lat="48.403" lon="2.64462">
        <ele>111.38</ele>
        <time>2021-09-15T12:46:19Z</time>
      </trkpt>
      <trkpt lat="48.40291" lon="2.64453">
        <ele>110.69</ele>
        <time>2021-09-15T12:46:40Z</time>
      </trkpt>
      <trkpt lat="48.40287" lon="2.64446">
        <ele>113.87</ele>
        <time>2021-09-15T12:46:52Z</time>
      </trkpt>
      <trkpt lat="48.40279" lon="2.64441">
        <ele>116.96</ele>
        <time>2021-09-15T12:47:08Z</time>
      </trkpt>
      <trkpt lat="48.40269" lon="2.6444">
        <ele>120.1</ele>
        <time>2021-09-15T12:47:23Z</time>
      </trkpt>
      <trkpt lat="48.40263" lon="2.64444">
        <ele>123.15</ele>
        <time>2021-09-15T12:47:37Z</time>
      </trkpt>
      <trkpt lat="48.40254" lon="2.64447">
        <ele>126.19</ele>
        <time>2021-09-15T12:47:53Z</time>
      </trkpt>
      <trkpt lat="48.40245" lon="2.64455">
        <ele>129.4</ele>
        <time>2021-09-15T12:48:12Z</time>
      </trkpt>
      <trkpt lat="48.40245" lon="2.64455">
        <ele>129.68</ele>
        <time>2021-09-15T12:48:13Z</time>
      </trkpt>
      <trkpt lat="48.40243" lon="2.64457">
        <ele>129.18</ele>
        <time>2021-09-15T12:48:41Z</time>
      </trkpt>
      <trkpt lat="48.40241" lon="2.64478">
        <ele>129.66</ele>
        <time>2021-09-15T12:49:03Z</time>
      </trkpt>
      <trkpt lat="48.40235" lon="2.64504">
        <ele>129.38</ele>
        <time>2021-09-15T12:49:19Z</time>
      </trkpt>
      <trkpt lat="48.40235" lon="2.64506">
        <ele>129.37</ele>
        <time>2021-09-15T12:49:20Z</time>
      </trkpt>
      <trkpt lat="48.40234" lon="2.64508">
        <ele>129.33</ele>
        <time>2021-09-15T12:49:21Z</time>
      </trkpt>
      <trkpt lat="48.40233" lon="2.64509">
        <ele>129.31</ele>
        <time>2021-09-15T12:49:22Z</time>
      </trkpt>
      <trkpt lat="48.40232" lon="2.64524">
        <ele>128.3</ele>
        <time>2021-09-15T12:49:32Z</time>
      </trkpt>
      <trkpt lat="48.40231" lon="2.64526">
        <ele>128.25</ele>
        <time>2021-09-15T12:49:33Z</time>
      </trkpt>
      <trkpt lat="48.40231" lon="2.64533">
        <ele>128.31</ele>
        <time>2021-09-15T12:49:37Z</time>
      </trkpt>
      <trkpt lat="48.40226" lon="2.64555">
        <ele>127.87</ele>
        <time>2021-09-15T12:49:52Z</time>
      </trkpt>
      <trkpt lat="48.4022" lon="2.64582">
        <ele>127.83</ele>
        <time>2021-09-15T12:50:10Z</time>
      </trkpt>
      <trkpt lat="48.4021" lon="2.64605">
        <ele>127.39</ele>
        <time>2021-09-15T12:50:27Z</time>
      </trkpt>
      <trkpt lat="48.40196" lon="2.64636">
        <ele>127.9</ele>
        <time>2021-09-15T12:50:49Z</time>
      </trkpt>
      <trkpt lat="48.4018" lon="2.64669">
        <ele>128.21</ele>
        <time>2021-09-15T12:51:15Z</time>
      </trkpt>
      <trkpt lat="48.4017" lon="2.6469">
        <ele>125.64</ele>
        <time>2021-09-15T12:51:30Z</time>
      </trkpt>
      <trkpt lat="48.40163" lon="2.64701">
        <ele>127.94</ele>
        <time>2021-09-15T12:51:37Z</time>
      </trkpt>
      <trkpt lat="48.40152" lon="2.6472">
        <ele>129.32</ele>
        <time>2021-09-15T12:51:51Z</time>
      </trkpt>
      <trkpt lat="48.40141" lon="2.64748">
        <ele>128.41</ele>
        <time>2021-09-15T12:52:11Z</time>
      </trkpt>
      <trkpt lat="48.40133" lon="2.64775">
        <ele>128.32</ele>
        <time>2021-09-15T12:52:30Z</time>
      </trkpt>
      <trkpt lat="48.40126" lon="2.64799">
        <ele>128.19</ele>
        <time>2021-09-15T12:52:47Z</time>
      </trkpt>
      <trkpt lat="48.40126" lon="2.64801">
        <ele>128.17</ele>
        <time>2021-09-15T12:52:48Z</time>
      </trkpt>
      <trkpt lat="48.40124" lon="2.64803">
        <ele>129.3</ele>
        <time>2021-09-15T12:53:22Z</time>
      </trkpt>
      <trkpt lat="48.40123" lon="2.64805">
        <ele>129.3</ele>
        <time>2021-09-15T12:53:25Z</time>
      </trkpt>
      <trkpt lat="48.40119" lon="2.64811">
        <ele>129.2</ele>
        <time>2021-09-15T12:53:42Z</time>
      </trkpt>
      <trkpt lat="48.40115" lon="2.6483">
        <ele>128.92</ele>
        <time>2021-09-15T12:54:09Z</time>
      </trkpt>
      <trkpt lat="48.40118" lon="2.64867">
        <ele>129.15</ele>
        <time>2021-09-15T12:54:34Z</time>
      </trkpt>
      <trkpt lat="48.40119" lon="2.64869">
        <ele>129.14</ele>
        <time>2021-09-15T12:54:35Z</time>
      </trkpt>
      <trkpt lat="48.40121" lon="2.64904">
        <ele>128.3</ele>
        <time>2021-09-15T12:55:02Z</time>
      </trkpt>
      <trkpt lat="48.40109" lon="2.64941">
        <ele>128.25</ele>
        <time>2021-09-15T12:55:23Z</time>
      </trkpt>
      <trkpt lat="48.40102" lon="2.64973">
        <ele>128.05</ele>
        <time>2021-09-15T12:55:45Z</time>
      </trkpt>
      <trkpt lat="48.40103" lon="2.65013">
        <ele>127.95</ele>
        <time>2021-09-15T12:56:08Z</time>
      </trkpt>
      <trkpt lat="48.401" lon="2.65052">
        <ele>126.85</ele>
        <time>2021-09-15T12:56:33Z</time>
      </trkpt>
      <trkpt lat="48.40092" lon="2.65078">
        <ele>126.36</ele>
        <time>2021-09-15T12:56:49Z</time>
      </trkpt>
      <trkpt lat="48.40087" lon="2.65103">
        <ele>126.03</ele>
        <time>2021-09-15T12:57:08Z</time>
      </trkpt>
      <trkpt lat="48.40076" lon="2.6514">
        <ele>126.69</ele>
        <time>2021-09-15T12:57:32Z</time>
      </trkpt>
      <trkpt lat="48.40066" lon="2.65188">
        <ele>127.1</ele>
        <time>2021-09-15T12:58:00Z</time>
      </trkpt>
      <trkpt lat="48.4006" lon="2.65216">
        <ele>127.17</ele>
        <time>2021-09-15T12:58:22Z</time>
      </trkpt>
      <trkpt lat="48.40046" lon="2.65254">
        <ele>127.67</ele>
        <time>2021-09-15T12:58:45Z</time>
      </trkpt>
      <trkpt lat="48.40043" lon="2.65283">
        <ele>128.21</ele>
        <time>2021-09-15T12:59:01Z</time>
      </trkpt>
      <trkpt lat="48.40043" lon="2.65286">
        <ele>128.3</ele>
        <time>2021-09-15T12:59:02Z</time>
      </trkpt>
      <trkpt lat="48.40044" lon="2.65287">
        <ele>128.44</ele>
        <time>2021-09-15T12:59:03Z</time>
      </trkpt>
      <trkpt lat="48.40044" lon="2.65311">
        <ele>128.54</ele>
        <time>2021-09-15T12:59:21Z</time>
      </trkpt>
      <trkpt lat="48.40034" lon="2.65345">
        <ele>127.54</ele>
        <time>2021-09-15T12:59:41Z</time>
      </trkpt>
      <trkpt lat="48.40033" lon="2.65382">
        <ele>127.29</ele>
        <time>2021-09-15T13:00:02Z</time>
      </trkpt>
      <trkpt lat="48.40026" lon="2.65411">
        <ele>127.3</ele>
        <time>2021-09-15T13:00:23Z</time>
      </trkpt>
      <trkpt lat="48.40017" lon="2.6542">
        <ele>127.99</ele>
        <time>2021-09-15T13:00:32Z</time>
      </trkpt>
      <trkpt lat="48.40016" lon="2.65421">
        <ele>127.99</ele>
        <time>2021-09-15T13:00:33Z</time>
      </trkpt>
      <trkpt lat="48.40014" lon="2.65422">
        <ele>127.99</ele>
        <time>2021-09-15T13:00:34Z</time>
      </trkpt>
      <trkpt lat="48.4001" lon="2.65423">
        <ele>127.98</ele>
        <time>2021-09-15T13:00:38Z</time>
      </trkpt>
      <trkpt lat="48.39999" lon="2.65438">
        <ele>127.93</ele>
        <time>2021-09-15T13:00:54Z</time>
      </trkpt>
      <trkpt lat="48.39996" lon="2.65443">
        <ele>126.57</ele>
        <time>2021-09-15T13:00:58Z</time>
      </trkpt>
      <trkpt lat="48.3999" lon="2.65462">
        <ele>127</ele>
        <time>2021-09-15T13:01:14Z</time>
      </trkpt>
      <trkpt lat="48.39985" lon="2.65475">
        <ele>125.65</ele>
        <time>2021-09-15T13:01:28Z</time>
      </trkpt>
      <trkpt lat="48.39986" lon="2.65484">
        <ele>124.95</ele>
        <time>2021-09-15T13:01:40Z</time>
      </trkpt>
      <trkpt lat="48.39989" lon="2.65503">
        <ele>124.73</ele>
        <time>2021-09-15T13:01:55Z</time>
      </trkpt>
      <trkpt lat="48.3999" lon="2.65505">
        <ele>124.73</ele>
        <time>2021-09-15T13:01:56Z</time>
      </trkpt>
      <trkpt lat="48.39991" lon="2.65515">
        <ele>126.07</ele>
        <time>2021-09-15T13:02:05Z</time>
      </trkpt>
      <trkpt lat="48.39996" lon="2.6552">
        <ele>127.4</ele>
        <time>2021-09-15T13:02:22Z</time>
      </trkpt>
      <trkpt lat="48.39999" lon="2.65529">
        <ele>126.05</ele>
        <time>2021-09-15T13:02:37Z</time>
      </trkpt>
      <trkpt lat="48.40004" lon="2.65544">
        <ele>125.87</ele>
        <time>2021-09-15T13:02:57Z</time>
      </trkpt>
      <trkpt lat="48.40011" lon="2.65548">
        <ele>122.77</ele>
        <time>2021-09-15T13:03:09Z</time>
      </trkpt>
      <trkpt lat="48.40014" lon="2.65547">
        <ele>121.41</ele>
        <time>2021-09-15T13:03:12Z</time>
      </trkpt>
      <trkpt lat="48.40018" lon="2.65547">
        <ele>120.4</ele>
        <time>2021-09-15T13:03:16Z</time>
      </trkpt>
      <trkpt lat="48.4002" lon="2.65547">
        <ele>120.16</ele>
        <time>2021-09-15T13:03:17Z</time>
      </trkpt>
      <trkpt lat="48.40021" lon="2.65547">
        <ele>119.9</ele>
        <time>2021-09-15T13:03:18Z</time>
      </trkpt>
      <trkpt lat="48.40028" lon="2.65546">
        <ele>116.82</ele>
        <time>2021-09-15T13:03:27Z</time>
      </trkpt>
      <trkpt lat="48.40027" lon="2.65543">
        <ele>115.95</ele>
        <time>2021-09-15T13:03:47Z</time>
      </trkpt>
      <trkpt lat="48.40036" lon="2.65548">
        <ele>114.91</ele>
        <time>2021-09-15T13:04:04Z</time>
      </trkpt>
      <trkpt lat="48.4004" lon="2.65545">
        <ele>114.04</ele>
        <time>2021-09-15T13:04:10Z</time>
      </trkpt>
      <trkpt lat="48.40045" lon="2.65546">
        <ele>112.79</ele>
        <time>2021-09-15T13:04:22Z</time>
      </trkpt>
      <trkpt lat="48.40044" lon="2.65552">
        <ele>111.31</ele>
        <time>2021-09-15T13:04:36Z</time>
      </trkpt>
      <trkpt lat="48.40046" lon="2.65562">
        <ele>111.52</ele>
        <time>2021-09-15T13:04:47Z</time>
      </trkpt>
      <trkpt lat="48.40055" lon="2.65571">
        <ele>108.98</ele>
        <time>2021-09-15T13:05:02Z</time>
      </trkpt>
      <trkpt lat="48.4006" lon="2.6556">
        <ele>108.79</ele>
        <time>2021-09-15T13:05:17Z</time>
      </trkpt>
      <trkpt lat="48.40067" lon="2.65538">
        <ele>105.77</ele>
        <time>2021-09-15T13:05:37Z</time>
      </trkpt>
      <trkpt lat="48.40079" lon="2.65529">
        <ele>104.17</ele>
        <time>2021-09-15T13:05:57Z</time>
      </trkpt>
      <trkpt lat="48.40081" lon="2.65529">
        <ele>103.92</ele>
        <time>2021-09-15T13:05:59Z</time>
      </trkpt>
      <trkpt lat="48.40083" lon="2.65528">
        <ele>103.68</ele>
        <time>2021-09-15T13:06:00Z</time>
      </trkpt>
      <trkpt lat="48.40085" lon="2.65527">
        <ele>103.4</ele>
        <time>2021-09-15T13:06:01Z</time>
      </trkpt>
      <trkpt lat="48.40086" lon="2.65527">
        <ele>103.12</ele>
        <time>2021-09-15T13:06:02Z</time>
      </trkpt>
      <trkpt lat="48.40088" lon="2.65527">
        <ele>102.83</ele>
        <time>2021-09-15T13:06:03Z</time>
      </trkpt>
      <trkpt lat="48.40089" lon="2.65528">
        <ele>102.18</ele>
        <time>2021-09-15T13:06:04Z</time>
      </trkpt>
      <trkpt lat="48.40091" lon="2.65528">
        <ele>101.77</ele>
        <time>2021-09-15T13:06:05Z</time>
      </trkpt>
      <trkpt lat="48.40093" lon="2.65528">
        <ele>101.36</ele>
        <time>2021-09-15T13:06:06Z</time>
      </trkpt>
      <trkpt lat="48.40095" lon="2.65527">
        <ele>100.93</ele>
        <time>2021-09-15T13:06:07Z</time>
      </trkpt>
      <trkpt lat="48.40107" lon="2.65518">
        <ele>97.78</ele>
        <time>2021-09-15T13:06:15Z</time>
      </trkpt>
      <trkpt lat="48.40114" lon="2.65501">
        <ele>95.38</ele>
        <time>2021-09-15T13:06:29Z</time>
      </trkpt>
      <trkpt lat="48.40115" lon="2.65506">
        <ele>94.76</ele>
        <time>2021-09-15T13:06:48Z</time>
      </trkpt>
      <trkpt lat="48.40114" lon="2.65508">
        <ele>94.96</ele>
        <time>2021-09-15T13:07:12Z</time>
      </trkpt>
      <trkpt lat="48.40123" lon="2.65484">
        <ele>93.68</ele>
        <time>2021-09-15T13:07:32Z</time>
      </trkpt>
      <trkpt lat="48.40126" lon="2.65478">
        <ele>94.06</ele>
        <time>2021-09-15T13:07:37Z</time>
      </trkpt>
      <trkpt lat="48.40136" lon="2.65452">
        <ele>93.05</ele>
        <time>2021-09-15T13:07:52Z</time>
      </trkpt>
      <trkpt lat="48.40149" lon="2.65436">
        <ele>91.48</ele>
        <time>2021-09-15T13:08:05Z</time>
      </trkpt>
      <trkpt lat="48.40159" lon="2.65426">
        <ele>93.29</ele>
        <time>2021-09-15T13:08:17Z</time>
      </trkpt>
      <trkpt lat="48.40162" lon="2.65417">
        <ele>93.21</ele>
        <time>2021-09-15T13:08:35Z</time>
      </trkpt>
      <trkpt lat="48.40164" lon="2.65412">
        <ele>93.33</ele>
        <time>2021-09-15T13:09:01Z</time>
      </trkpt>
      <trkpt lat="48.40163" lon="2.65411">
        <ele>93.22</ele>
        <time>2021-09-15T13:09:29Z</time>
      </trkpt>
      <trkpt lat="48.40163" lon="2.65411">
        <ele>93.35</ele>
        <time>2021-09-15T13:10:10Z</time>
      </trkpt>
      <trkpt lat="48.40162" lon="2.6541">
        <ele>93.35</ele>
        <time>2021-09-15T13:10:48Z</time>
      </trkpt>
      <trkpt lat="48.40162" lon="2.65412">
        <ele>93.35</ele>
        <time>2021-09-15T13:11:12Z</time>
      </trkpt>
      <trkpt lat="48.40162" lon="2.65412">
        <ele>93.35</ele>
        <time>2021-09-15T13:11:46Z</time>
      </trkpt>
      <trkpt lat="48.40162" lon="2.65412">
        <ele>93.35</ele>
        <time>2021-09-15T13:12:20Z</time>
      </trkpt>
      <trkpt lat="48.40162" lon="2.65414">
        <ele>93.35</ele>
        <time>2021-09-15T13:12:57Z</time>
      </trkpt>
      <trkpt lat="48.40162" lon="2.65416">
        <ele>93.35</ele>
        <time>2021-09-15T13:13:25Z</time>
      </trkpt>
      <trkpt lat="48.4016" lon="2.65421">
        <ele>93.35</ele>
        <time>2021-09-15T13:13:53Z</time>
      </trkpt>
      <trkpt lat="48.40161" lon="2.65415">
        <ele>93.35</ele>
        <time>2021-09-15T13:14:26Z</time>
      </trkpt>
      <trkpt lat="48.4016" lon="2.65414">
        <ele>93.35</ele>
        <time>2021-09-15T13:14:57Z</time>
      </trkpt>
      <trkpt lat="48.40161" lon="2.65416">
        <ele>93.35</ele>
        <time>2021-09-15T13:15:15Z</time>
      </trkpt>
      <trkpt lat="48.40161" lon="2.65418">
        <ele>93.35</ele>
        <time>2021-09-15T13:15:46Z</time>
      </trkpt>
      <trkpt lat="48.4016" lon="2.65421">
        <ele>93.35</ele>
        <time>2021-09-15T13:16:20Z</time>
      </trkpt>
      <trkpt lat="48.40162" lon="2.65421">
        <ele>93.35</ele>
        <time>2021-09-15T13:16:56Z</time>
      </trkpt>
      <trkpt lat="48.40161" lon="2.65419">
        <ele>93.35</ele>
        <time>2021-09-15T13:17:19Z</time>
      </trkpt>
      <trkpt lat="48.40162" lon="2.65418">
        <ele>93.35</ele>
        <time>2021-09-15T13:17:39Z</time>
      </trkpt>
      <trkpt lat="48.40161" lon="2.65417">
        <ele>93.35</ele>
        <time>2021-09-15T13:18:03Z</time>
      </trkpt>
      <trkpt lat="48.40161" lon="2.65417">
        <ele>93.35</ele>
        <time>2021-09-15T13:18:29Z</time>
      </trkpt>
      <trkpt lat="48.40162" lon="2.65418">
        <ele>93.35</ele>
        <time>2021-09-15T13:18:59Z</time>
      </trkpt>
      <trkpt lat="48.40166" lon="2.65413">
        <ele>93.35</ele>
        <time>2021-09-15T13:19:23Z</time>
      </trkpt>
      <trkpt lat="48.40178" lon="2.65393">
        <ele>93.42</ele>
        <time>2021-09-15T13:19:41Z</time>
      </trkpt>
      <trkpt lat="48.40179" lon="2.6539">
        <ele>94.25</ele>
        <time>2021-09-15T13:19:43Z</time>
      </trkpt>
      <trkpt lat="48.40189" lon="2.65373">
        <ele>94.2</ele>
        <time>2021-09-15T13:20:01Z</time>
      </trkpt>
      <trkpt lat="48.40198" lon="2.65358">
        <ele>97.09</ele>
        <time>2021-09-15T13:20:20Z</time>
      </trkpt>
      <trkpt lat="48.40211" lon="2.65349">
        <ele>100.18</ele>
        <time>2021-09-15T13:20:44Z</time>
      </trkpt>
      <trkpt lat="48.40224" lon="2.65354">
        <ele>102.55</ele>
        <time>2021-09-15T13:21:02Z</time>
      </trkpt>
      <trkpt lat="48.40234" lon="2.65352">
        <ele>103.54</ele>
        <time>2021-09-15T13:21:16Z</time>
      </trkpt>
      <trkpt lat="48.40237" lon="2.65356">
        <ele>104.53</ele>
        <time>2021-09-15T13:21:35Z</time>
      </trkpt>
      <trkpt lat="48.40251" lon="2.65343">
        <ele>105.1</ele>
        <time>2021-09-15T13:21:56Z</time>
      </trkpt>
      <trkpt lat="48.40261" lon="2.65333">
        <ele>105.98</ele>
        <time>2021-09-15T13:22:11Z</time>
      </trkpt>
      <trkpt lat="48.40271" lon="2.65315">
        <ele>107.06</ele>
        <time>2021-09-15T13:22:31Z</time>
      </trkpt>
      <trkpt lat="48.40282" lon="2.65289">
        <ele>106.68</ele>
        <time>2021-09-15T13:22:51Z</time>
      </trkpt>
      <trkpt lat="48.40285" lon="2.65274">
        <ele>105.98</ele>
        <time>2021-09-15T13:23:10Z</time>
      </trkpt>
      <trkpt lat="48.40291" lon="2.65257">
        <ele>104.55</ele>
        <time>2021-09-15T13:23:29Z</time>
      </trkpt>
      <trkpt lat="48.403" lon="2.65247">
        <ele>102.72</ele>
        <time>2021-09-15T13:23:44Z</time>
      </trkpt>
      <trkpt lat="48.40311" lon="2.65235">
        <ele>101.49</ele>
        <time>2021-09-15T13:23:57Z</time>
      </trkpt>
      <trkpt lat="48.40319" lon="2.65215">
        <ele>100.72</ele>
        <time>2021-09-15T13:24:12Z</time>
      </trkpt>
      <trkpt lat="48.40323" lon="2.65198">
        <ele>99.61</ele>
        <time>2021-09-15T13:24:28Z</time>
      </trkpt>
      <trkpt lat="48.40336" lon="2.652">
        <ele>99.13</ele>
        <time>2021-09-15T13:24:47Z</time>
      </trkpt>
      <trkpt lat="48.40344" lon="2.65196">
        <ele>95.82</ele>
        <time>2021-09-15T13:24:56Z</time>
      </trkpt>
      <trkpt lat="48.40358" lon="2.65195">
        <ele>95.4</ele>
        <time>2021-09-15T13:25:15Z</time>
      </trkpt>
      <trkpt lat="48.40371" lon="2.65182">
        <ele>94.98</ele>
        <time>2021-09-15T13:25:35Z</time>
      </trkpt>
      <trkpt lat="48.40372" lon="2.65181">
        <ele>94.96</ele>
        <time>2021-09-15T13:25:36Z</time>
      </trkpt>
      <trkpt lat="48.40374" lon="2.6518">
        <ele>94.93</ele>
        <time>2021-09-15T13:25:37Z</time>
      </trkpt>
      <trkpt lat="48.40375" lon="2.65178">
        <ele>94.86</ele>
        <time>2021-09-15T13:25:38Z</time>
      </trkpt>
      <trkpt lat="48.40379" lon="2.65173">
        <ele>93.22</ele>
        <time>2021-09-15T13:25:42Z</time>
      </trkpt>
      <trkpt lat="48.40385" lon="2.65167">
        <ele>94.19</ele>
        <time>2021-09-15T13:25:48Z</time>
      </trkpt>
      <trkpt lat="48.40395" lon="2.65154">
        <ele>93.83</ele>
        <time>2021-09-15T13:26:00Z</time>
      </trkpt>
      <trkpt lat="48.40413" lon="2.65138">
        <ele>94.29</ele>
        <time>2021-09-15T13:26:20Z</time>
      </trkpt>
      <trkpt lat="48.40433" lon="2.65127">
        <ele>94.31</ele>
        <time>2021-09-15T13:26:40Z</time>
      </trkpt>
      <trkpt lat="48.40451" lon="2.6512">
        <ele>94.64</ele>
        <time>2021-09-15T13:26:58Z</time>
      </trkpt>
      <trkpt lat="48.40467" lon="2.65113">
        <ele>94.78</ele>
        <time>2021-09-15T13:27:17Z</time>
      </trkpt>
      <trkpt lat="48.40471" lon="2.65087">
        <ele>95.54</ele>
        <time>2021-09-15T13:27:36Z</time>
      </trkpt>
      <trkpt lat="48.40481" lon="2.6507">
        <ele>96.36</ele>
        <time>2021-09-15T13:27:51Z</time>
      </trkpt>
      <trkpt lat="48.40491" lon="2.65056">
        <ele>96.96</ele>
        <time>2021-09-15T13:28:08Z</time>
      </trkpt>
      <trkpt lat="48.405" lon="2.65032">
        <ele>97.27</ele>
        <time>2021-09-15T13:28:26Z</time>
      </trkpt>
      <trkpt lat="48.40514" lon="2.65011">
        <ele>98.27</ele>
        <time>2021-09-15T13:28:45Z</time>
      </trkpt>
      <trkpt lat="48.40526" lon="2.6501">
        <ele>99.9</ele>
        <time>2021-09-15T13:29:09Z</time>
      </trkpt>
      <trkpt lat="48.40529" lon="2.65014">
        <ele>101.4</ele>
        <time>2021-09-15T13:29:18Z</time>
      </trkpt>
      <trkpt lat="48.40531" lon="2.65014">
        <ele>101.55</ele>
        <time>2021-09-15T13:29:19Z</time>
      </trkpt>
      <trkpt lat="48.40535" lon="2.65029">
        <ele>104.42</ele>
        <time>2021-09-15T13:29:35Z</time>
      </trkpt>
      <trkpt lat="48.40544" lon="2.65047">
        <ele>107.46</ele>
        <time>2021-09-15T13:29:59Z</time>
      </trkpt>
      <trkpt lat="48.40545" lon="2.65061">
        <ele>108.09</ele>
        <time>2021-09-15T13:30:20Z</time>
      </trkpt>
      <trkpt lat="48.4055" lon="2.65088">
        <ele>109.17</ele>
        <time>2021-09-15T13:30:41Z</time>
      </trkpt>
      <trkpt lat="48.40543" lon="2.65111">
        <ele>108.17</ele>
        <time>2021-09-15T13:31:03Z</time>
      </trkpt>
      <trkpt lat="48.40543" lon="2.65122">
        <ele>107.94</ele>
        <time>2021-09-15T13:31:15Z</time>
      </trkpt>
      <trkpt lat="48.40546" lon="2.65142">
        <ele>108.68</ele>
        <time>2021-09-15T13:31:30Z</time>
      </trkpt>
      <trkpt lat="48.40547" lon="2.65151">
        <ele>108.84</ele>
        <time>2021-09-15T13:31:38Z</time>
      </trkpt>
      <trkpt lat="48.40545" lon="2.6516">
        <ele>110.91</ele>
        <time>2021-09-15T13:31:45Z</time>
      </trkpt>
      <trkpt lat="48.40554" lon="2.65184">
        <ele>113.03</ele>
        <time>2021-09-15T13:32:10Z</time>
      </trkpt>
      <trkpt lat="48.40561" lon="2.65203">
        <ele>115.98</ele>
        <time>2021-09-15T13:32:38Z</time>
      </trkpt>
      <trkpt lat="48.40556" lon="2.65224">
        <ele>118.08</ele>
        <time>2021-09-15T13:32:59Z</time>
      </trkpt>
      <trkpt lat="48.40553" lon="2.65245">
        <ele>121.09</ele>
        <time>2021-09-15T13:33:23Z</time>
      </trkpt>
      <trkpt lat="48.40557" lon="2.65263">
        <ele>122.82</ele>
        <time>2021-09-15T13:33:43Z</time>
      </trkpt>
      <trkpt lat="48.40559" lon="2.65278">
        <ele>121.05</ele>
        <time>2021-09-15T13:34:00Z</time>
      </trkpt>
      <trkpt lat="48.4056" lon="2.65295">
        <ele>118.78</ele>
        <time>2021-09-15T13:34:19Z</time>
      </trkpt>
      <trkpt lat="48.40566" lon="2.65304">
        <ele>116.03</ele>
        <time>2021-09-15T13:34:37Z</time>
      </trkpt>
      <trkpt lat="48.40574" lon="2.65314">
        <ele>113.34</ele>
        <time>2021-09-15T13:34:53Z</time>
      </trkpt>
      <trkpt lat="48.40581" lon="2.65322">
        <ele>110.98</ele>
        <time>2021-09-15T13:35:03Z</time>
      </trkpt>
      <trkpt lat="48.40586" lon="2.65348">
        <ele>107.92</ele>
        <time>2021-09-15T13:35:23Z</time>
      </trkpt>
      <trkpt lat="48.4059" lon="2.65368">
        <ele>106.09</ele>
        <time>2021-09-15T13:35:38Z</time>
      </trkpt>
      <trkpt lat="48.40592" lon="2.65389">
        <ele>105.45</ele>
        <time>2021-09-15T13:35:55Z</time>
      </trkpt>
      <trkpt lat="48.40603" lon="2.65391">
        <ele>105.06</ele>
        <time>2021-09-15T13:36:12Z</time>
      </trkpt>
      <trkpt lat="48.40614" lon="2.65404">
        <ele>107.62</ele>
        <time>2021-09-15T13:36:37Z</time>
      </trkpt>
      <trkpt lat="48.40621" lon="2.65418">
        <ele>110.63</ele>
        <time>2021-09-15T13:36:54Z</time>
      </trkpt>
      <trkpt lat="48.4062" lon="2.65435">
        <ele>113.64</ele>
        <time>2021-09-15T13:37:13Z</time>
      </trkpt>
      <trkpt lat="48.40621" lon="2.65437">
        <ele>113.84</ele>
        <time>2021-09-15T13:37:15Z</time>
      </trkpt>
      <trkpt lat="48.40619" lon="2.65442">
        <ele>113.11</ele>
        <time>2021-09-15T13:37:23Z</time>
      </trkpt>
      <trkpt lat="48.40614" lon="2.6545">
        <ele>114.06</ele>
        <time>2021-09-15T13:37:36Z</time>
      </trkpt>
      <trkpt lat="48.40607" lon="2.65448">
        <ele>114.2</ele>
        <time>2021-09-15T13:37:44Z</time>
      </trkpt>
      <trkpt lat="48.40595" lon="2.65443">
        <ele>111.43</ele>
        <time>2021-09-15T13:38:06Z</time>
      </trkpt>
      <trkpt lat="48.40581" lon="2.65436">
        <ele>108.92</ele>
        <time>2021-09-15T13:38:35Z</time>
      </trkpt>
      <trkpt lat="48.4057" lon="2.65442">
        <ele>108.91</ele>
        <time>2021-09-15T13:38:53Z</time>
      </trkpt>
      <trkpt lat="48.40556" lon="2.65443">
        <ele>109.38</ele>
        <time>2021-09-15T13:39:13Z</time>
      </trkpt>
      <trkpt lat="48.40532" lon="2.65445">
        <ele>108.97</ele>
        <time>2021-09-15T13:39:38Z</time>
      </trkpt>
      <trkpt lat="48.40514" lon="2.6545">
        <ele>108.97</ele>
        <time>2021-09-15T13:40:00Z</time>
      </trkpt>
      <trkpt lat="48.40497" lon="2.65456">
        <ele>105.22</ele>
        <time>2021-09-15T13:40:22Z</time>
      </trkpt>
      <trkpt lat="48.40496" lon="2.65457">
        <ele>105.58</ele>
        <time>2021-09-15T13:40:23Z</time>
      </trkpt>
      <trkpt lat="48.40483" lon="2.65456">
        <ele>105.11</ele>
        <time>2021-09-15T13:40:42Z</time>
      </trkpt>
      <trkpt lat="48.4047" lon="2.65466">
        <ele>101.8</ele>
        <time>2021-09-15T13:41:03Z</time>
      </trkpt>
      <trkpt lat="48.40469" lon="2.65467">
        <ele>101.5</ele>
        <time>2021-09-15T13:41:04Z</time>
      </trkpt>
      <trkpt lat="48.40459" lon="2.65471">
        <ele>102.16</ele>
        <time>2021-09-15T13:41:23Z</time>
      </trkpt>
      <trkpt lat="48.40463" lon="2.6547">
        <ele>101.33</ele>
        <time>2021-09-15T13:41:43Z</time>
      </trkpt>
      <trkpt lat="48.40466" lon="2.65457">
        <ele>101.5</ele>
        <time>2021-09-15T13:42:04Z</time>
      </trkpt>
      <trkpt lat="48.40462" lon="2.65447">
        <ele>99.93</ele>
        <time>2021-09-15T13:42:19Z</time>
      </trkpt>
      <trkpt lat="48.40453" lon="2.65446">
        <ele>96.85</ele>
        <time>2021-09-15T13:42:33Z</time>
      </trkpt>
      <trkpt lat="48.40439" lon="2.65461">
        <ele>97.14</ele>
        <time>2021-09-15T13:42:52Z</time>
      </trkpt>
      <trkpt lat="48.40428" lon="2.65483">
        <ele>95.51</ele>
        <time>2021-09-15T13:43:12Z</time>
      </trkpt>
      <trkpt lat="48.40426" lon="2.65503">
        <ele>96.29</ele>
        <time>2021-09-15T13:43:31Z</time>
      </trkpt>
      <trkpt lat="48.40416" lon="2.65525">
        <ele>95.3</ele>
        <time>2021-09-15T13:43:51Z</time>
      </trkpt>
      <trkpt lat="48.40421" lon="2.65535">
        <ele>96.31</ele>
        <time>2021-09-15T13:44:03Z</time>
      </trkpt>
      <trkpt lat="48.40421" lon="2.65536">
        <ele>96.43</ele>
        <time>2021-09-15T13:44:04Z</time>
      </trkpt>
      <trkpt lat="48.40422" lon="2.65539">
        <ele>96.74</ele>
        <time>2021-09-15T13:44:06Z</time>
      </trkpt>
      <trkpt lat="48.40428" lon="2.65558">
        <ele>96.71</ele>
        <time>2021-09-15T13:44:21Z</time>
      </trkpt>
      <trkpt lat="48.40432" lon="2.65577">
        <ele>96.52</ele>
        <time>2021-09-15T13:44:35Z</time>
      </trkpt>
      <trkpt lat="48.40436" lon="2.65596">
        <ele>96.48</ele>
        <time>2021-09-15T13:44:47Z</time>
      </trkpt>
      <trkpt lat="48.40448" lon="2.65611">
        <ele>96.6</ele>
        <time>2021-09-15T13:45:04Z</time>
      </trkpt>
      <trkpt lat="48.40459" lon="2.65642">
        <ele>96.47</ele>
        <time>2021-09-15T13:45:31Z</time>
      </trkpt>
      <trkpt lat="48.40473" lon="2.65658">
        <ele>96.51</ele>
        <time>2021-09-15T13:45:46Z</time>
      </trkpt>
      <trkpt lat="48.40475" lon="2.65659">
        <ele>96.53</ele>
        <time>2021-09-15T13:45:47Z</time>
      </trkpt>
      <trkpt lat="48.40489" lon="2.65685">
        <ele>96.49</ele>
        <time>2021-09-15T13:46:08Z</time>
      </trkpt>
      <trkpt lat="48.40493" lon="2.65704">
        <ele>98.52</ele>
        <time>2021-09-15T13:46:24Z</time>
      </trkpt>
      <trkpt lat="48.40494" lon="2.65734">
        <ele>97.12</ele>
        <time>2021-09-15T13:46:43Z</time>
      </trkpt>
      <trkpt lat="48.40492" lon="2.65754">
        <ele>96.35</ele>
        <time>2021-09-15T13:46:57Z</time>
      </trkpt>
      <trkpt lat="48.40494" lon="2.65782">
        <ele>95.75</ele>
        <time>2021-09-15T13:47:17Z</time>
      </trkpt>
      <trkpt lat="48.40488" lon="2.65806">
        <ele>97.12</ele>
        <time>2021-09-15T13:47:36Z</time>
      </trkpt>
      <trkpt lat="48.4048" lon="2.65816">
        <ele>97.6</ele>
        <time>2021-09-15T13:47:49Z</time>
      </trkpt>
      <trkpt lat="48.40473" lon="2.65816">
        <ele>96.3</ele>
        <time>2021-09-15T13:48:01Z</time>
      </trkpt>
      <trkpt lat="48.40463" lon="2.65827">
        <ele>98.18</ele>
        <time>2021-09-15T13:48:17Z</time>
      </trkpt>
      <trkpt lat="48.40454" lon="2.65844">
        <ele>98.75</ele>
        <time>2021-09-15T13:48:32Z</time>
      </trkpt>
      <trkpt lat="48.40443" lon="2.65864">
        <ele>98.72</ele>
        <time>2021-09-15T13:48:50Z</time>
      </trkpt>
      <trkpt lat="48.4044" lon="2.65882">
        <ele>98.03</ele>
        <time>2021-09-15T13:49:04Z</time>
      </trkpt>
      <trkpt lat="48.40435" lon="2.65908">
        <ele>98.03</ele>
        <time>2021-09-15T13:49:28Z</time>
      </trkpt>
      <trkpt lat="48.40431" lon="2.6592">
        <ele>98.03</ele>
        <time>2021-09-15T13:49:52Z</time>
      </trkpt>
      <trkpt lat="48.40438" lon="2.65945">
        <ele>98.91</ele>
        <time>2021-09-15T13:50:14Z</time>
      </trkpt>
      <trkpt lat="48.4045" lon="2.65977">
        <ele>100.09</ele>
        <time>2021-09-15T13:50:37Z</time>
      </trkpt>
      <trkpt lat="48.40449" lon="2.66008">
        <ele>98.46</ele>
        <time>2021-09-15T13:51:01Z</time>
      </trkpt>
      <trkpt lat="48.40434" lon="2.66029">
        <ele>97.83</ele>
        <time>2021-09-15T13:51:23Z</time>
      </trkpt>
      <trkpt lat="48.40428" lon="2.66054">
        <ele>98.28</ele>
        <time>2021-09-15T13:51:41Z</time>
      </trkpt>
      <trkpt lat="48.40425" lon="2.66056">
        <ele>95.43</ele>
        <time>2021-09-15T13:51:49Z</time>
      </trkpt>
      <trkpt lat="48.4041" lon="2.66057">
        <ele>91.9</ele>
        <time>2021-09-15T13:52:08Z</time>
      </trkpt>
      <trkpt lat="48.40397" lon="2.66059">
        <ele>91.1</ele>
        <time>2021-09-15T13:52:22Z</time>
      </trkpt>
      <trkpt lat="48.40379" lon="2.66069">
        <ele>88.54</ele>
        <time>2021-09-15T13:52:42Z</time>
      </trkpt>
      <trkpt lat="48.40362" lon="2.66087">
        <ele>88</ele>
        <time>2021-09-15T13:53:01Z</time>
      </trkpt>
      <trkpt lat="48.40359" lon="2.66094">
        <ele>88.1</ele>
        <time>2021-09-15T13:53:06Z</time>
      </trkpt>
      <trkpt lat="48.40352" lon="2.66112">
        <ele>86.73</ele>
        <time>2021-09-15T13:53:22Z</time>
      </trkpt>
      <trkpt lat="48.40341" lon="2.66139">
        <ele>88.56</ele>
        <time>2021-09-15T13:53:41Z</time>
      </trkpt>
      <trkpt lat="48.4033" lon="2.66164">
        <ele>88.21</ele>
        <time>2021-09-15T13:54:01Z</time>
      </trkpt>
      <trkpt lat="48.40316" lon="2.66187">
        <ele>89.58</ele>
        <time>2021-09-15T13:54:23Z</time>
      </trkpt>
      <trkpt lat="48.40305" lon="2.66214">
        <ele>92.2</ele>
        <time>2021-09-15T13:54:48Z</time>
      </trkpt>
      <trkpt lat="48.40282" lon="2.66228">
        <ele>94.02</ele>
        <time>2021-09-15T13:55:12Z</time>
      </trkpt>
      <trkpt lat="48.40265" lon="2.6624">
        <ele>95.77</ele>
        <time>2021-09-15T13:55:34Z</time>
      </trkpt>
      <trkpt lat="48.40246" lon="2.66261">
        <ele>97.35</ele>
        <time>2021-09-15T13:55:58Z</time>
      </trkpt>
      <trkpt lat="48.40223" lon="2.66273">
        <ele>97.58</ele>
        <time>2021-09-15T13:56:21Z</time>
      </trkpt>
      <trkpt lat="48.40208" lon="2.66295">
        <ele>97.77</ele>
        <time>2021-09-15T13:56:43Z</time>
      </trkpt>
      <trkpt lat="48.40196" lon="2.66321">
        <ele>98.38</ele>
        <time>2021-09-15T13:57:05Z</time>
      </trkpt>
      <trkpt lat="48.40184" lon="2.66338">
        <ele>99.73</ele>
        <time>2021-09-15T13:57:27Z</time>
      </trkpt>
      <trkpt lat="48.40175" lon="2.66366">
        <ele>100.17</ele>
        <time>2021-09-15T13:57:50Z</time>
      </trkpt>
      <trkpt lat="48.4017" lon="2.66386">
        <ele>100.26</ele>
        <time>2021-09-15T13:58:08Z</time>
      </trkpt>
      <trkpt lat="48.40173" lon="2.66409">
        <ele>103.31</ele>
        <time>2021-09-15T13:58:30Z</time>
      </trkpt>
      <trkpt lat="48.40173" lon="2.66417">
        <ele>105.13</ele>
        <time>2021-09-15T13:58:55Z</time>
      </trkpt>
      <trkpt lat="48.40179" lon="2.66429">
        <ele>105.48</ele>
        <time>2021-09-15T13:59:19Z</time>
      </trkpt>
      <trkpt lat="48.40185" lon="2.66464">
        <ele>104.2</ele>
        <time>2021-09-15T13:59:43Z</time>
      </trkpt>
      <trkpt lat="48.40191" lon="2.66486">
        <ele>105.11</ele>
        <time>2021-09-15T14:00:02Z</time>
      </trkpt>
      <trkpt lat="48.40197" lon="2.66503">
        <ele>106.78</ele>
        <time>2021-09-15T14:00:23Z</time>
      </trkpt>
      <trkpt lat="48.40201" lon="2.6652">
        <ele>108.21</ele>
        <time>2021-09-15T14:00:44Z</time>
      </trkpt>
      <trkpt lat="48.40202" lon="2.66528">
        <ele>109.59</ele>
        <time>2021-09-15T14:01:06Z</time>
      </trkpt>
      <trkpt lat="48.4021" lon="2.66532">
        <ele>111.09</ele>
        <time>2021-09-15T14:01:22Z</time>
      </trkpt>
      <trkpt lat="48.40214" lon="2.6653">
        <ele>112.47</ele>
        <time>2021-09-15T14:01:37Z</time>
      </trkpt>
      <trkpt lat="48.40213" lon="2.66527">
        <ele>112.54</ele>
        <time>2021-09-15T14:02:09Z</time>
      </trkpt>
      <trkpt lat="48.40209" lon="2.66521">
        <ele>112.31</ele>
        <time>2021-09-15T14:02:31Z</time>
      </trkpt>
      <trkpt lat="48.40212" lon="2.66521">
        <ele>112.79</ele>
        <time>2021-09-15T14:03:09Z</time>
      </trkpt>
      <trkpt lat="48.4021" lon="2.66522">
        <ele>112.83</ele>
        <time>2021-09-15T14:03:36Z</time>
      </trkpt>
      <trkpt lat="48.40209" lon="2.66523">
        <ele>112.83</ele>
        <time>2021-09-15T14:03:58Z</time>
      </trkpt>
      <trkpt lat="48.40206" lon="2.66525">
        <ele>112.83</ele>
        <time>2021-09-15T14:04:31Z</time>
      </trkpt>
      <trkpt lat="48.40206" lon="2.66528">
        <ele>112.83</ele>
        <time>2021-09-15T14:05:08Z</time>
      </trkpt>
      <trkpt lat="48.40207" lon="2.66526">
        <ele>112.83</ele>
        <time>2021-09-15T14:05:40Z</time>
      </trkpt>
      <trkpt lat="48.40209" lon="2.66525">
        <ele>112.83</ele>
        <time>2021-09-15T14:06:02Z</time>
      </trkpt>
      <trkpt lat="48.4021" lon="2.66522">
        <ele>112.83</ele>
        <time>2021-09-15T14:06:19Z</time>
      </trkpt>
      <trkpt lat="48.40211" lon="2.6652">
        <ele>112.83</ele>
        <time>2021-09-15T14:06:47Z</time>
      </trkpt>
      <trkpt lat="48.40205" lon="2.66504">
        <ele>111.99</ele>
        <time>2021-09-15T14:07:08Z</time>
      </trkpt>
      <trkpt lat="48.4021" lon="2.665">
        <ele>111.45</ele>
        <time>2021-09-15T14:07:19Z</time>
      </trkpt>
      <trkpt lat="48.40231" lon="2.66495">
        <ele>113.04</ele>
        <time>2021-09-15T14:07:58Z</time>
      </trkpt>
      <trkpt lat="48.40237" lon="2.66488">
        <ele>115.75</ele>
        <time>2021-09-15T14:08:18Z</time>
      </trkpt>
      <trkpt lat="48.40243" lon="2.66475">
        <ele>116.92</ele>
        <time>2021-09-15T14:08:37Z</time>
      </trkpt>
      <trkpt lat="48.40247" lon="2.66453">
        <ele>116.48</ele>
        <time>2021-09-15T14:08:51Z</time>
      </trkpt>
      <trkpt lat="48.40253" lon="2.66431">
        <ele>115.42</ele>
        <time>2021-09-15T14:09:07Z</time>
      </trkpt>
      <trkpt lat="48.4026" lon="2.66421">
        <ele>114.92</ele>
        <time>2021-09-15T14:09:16Z</time>
      </trkpt>
      <trkpt lat="48.40269" lon="2.66411">
        <ele>114.95</ele>
        <time>2021-09-15T14:09:28Z</time>
      </trkpt>
      <trkpt lat="48.40282" lon="2.66404">
        <ele>113.61</ele>
        <time>2021-09-15T14:09:46Z</time>
      </trkpt>
      <trkpt lat="48.40303" lon="2.66401">
        <ele>111.12</ele>
        <time>2021-09-15T14:10:03Z</time>
      </trkpt>
      <trkpt lat="48.4032" lon="2.66385">
        <ele>108.28</ele>
        <time>2021-09-15T14:10:24Z</time>
      </trkpt>
      <trkpt lat="48.40343" lon="2.66377">
        <ele>107.91</ele>
        <time>2021-09-15T14:10:45Z</time>
      </trkpt>
      <trkpt lat="48.40354" lon="2.66384">
        <ele>108.32</ele>
        <time>2021-09-15T14:11:05Z</time>
      </trkpt>
      <trkpt lat="48.40362" lon="2.66394">
        <ele>107.83</ele>
        <time>2021-09-15T14:11:25Z</time>
      </trkpt>
      <trkpt lat="48.40381" lon="2.66403">
        <ele>107.68</ele>
        <time>2021-09-15T14:11:47Z</time>
      </trkpt>
      <trkpt lat="48.40397" lon="2.66411">
        <ele>109.16</ele>
        <time>2021-09-15T14:12:04Z</time>
      </trkpt>
      <trkpt lat="48.40404" lon="2.66415">
        <ele>112.18</ele>
        <time>2021-09-15T14:12:11Z</time>
      </trkpt>
      <trkpt lat="48.40424" lon="2.6643">
        <ele>113.68</ele>
        <time>2021-09-15T14:12:34Z</time>
      </trkpt>
      <trkpt lat="48.40445" lon="2.66432">
        <ele>115.62</ele>
        <time>2021-09-15T14:12:55Z</time>
      </trkpt>
      <trkpt lat="48.40464" lon="2.66432">
        <ele>117.43</ele>
        <time>2021-09-15T14:13:14Z</time>
      </trkpt>
      <trkpt lat="48.40482" lon="2.6642">
        <ele>118.6</ele>
        <time>2021-09-15T14:13:32Z</time>
      </trkpt>
      <trkpt lat="48.40484" lon="2.66418">
        <ele>118.77</ele>
        <time>2021-09-15T14:13:34Z</time>
      </trkpt>
      <trkpt lat="48.40498" lon="2.66397">
        <ele>121.38</ele>
        <time>2021-09-15T14:13:53Z</time>
      </trkpt>
      <trkpt lat="48.40509" lon="2.6637">
        <ele>123.23</ele>
        <time>2021-09-15T14:14:16Z</time>
      </trkpt>
      <trkpt lat="48.4051" lon="2.6636">
        <ele>123.29</ele>
        <time>2021-09-15T14:14:20Z</time>
      </trkpt>
      <trkpt lat="48.4051" lon="2.66353">
        <ele>123.37</ele>
        <time>2021-09-15T14:14:23Z</time>
      </trkpt>
      <trkpt lat="48.4051" lon="2.66351">
        <ele>123.39</ele>
        <time>2021-09-15T14:14:24Z</time>
      </trkpt>
      <trkpt lat="48.4051" lon="2.66348">
        <ele>123.4</ele>
        <time>2021-09-15T14:14:25Z</time>
      </trkpt>
      <trkpt lat="48.4051" lon="2.66346">
        <ele>123.4</ele>
        <time>2021-09-15T14:14:26Z</time>
      </trkpt>
      <trkpt lat="48.40513" lon="2.66326">
        <ele>123.48</ele>
        <time>2021-09-15T14:14:40Z</time>
      </trkpt>
      <trkpt lat="48.4051" lon="2.66305">
        <ele>124.16</ele>
        <time>2021-09-15T14:14:51Z</time>
      </trkpt>
      <trkpt lat="48.40505" lon="2.6629">
        <ele>125.62</ele>
        <time>2021-09-15T14:15:01Z</time>
      </trkpt>
      <trkpt lat="48.40504" lon="2.66288">
        <ele>125.7</ele>
        <time>2021-09-15T14:15:02Z</time>
      </trkpt>
      <trkpt lat="48.40503" lon="2.66287">
        <ele>125.77</ele>
        <time>2021-09-15T14:15:03Z</time>
      </trkpt>
      <trkpt lat="48.40488" lon="2.66276">
        <ele>128.56</ele>
        <time>2021-09-15T14:15:22Z</time>
      </trkpt>
      <trkpt lat="48.40475" lon="2.6629">
        <ele>131.6</ele>
        <time>2021-09-15T14:15:44Z</time>
      </trkpt>
      <trkpt lat="48.40479" lon="2.66307">
        <ele>132.45</ele>
        <time>2021-09-15T14:16:05Z</time>
      </trkpt>
      <trkpt lat="48.40481" lon="2.66309">
        <ele>130.89</ele>
        <time>2021-09-15T14:16:08Z</time>
      </trkpt>
      <trkpt lat="48.40482" lon="2.66309">
        <ele>133.36</ele>
        <time>2021-09-15T14:16:14Z</time>
      </trkpt>
      <trkpt lat="48.40481" lon="2.66311">
        <ele>132.78</ele>
        <time>2021-09-15T14:16:37Z</time>
      </trkpt>
      <trkpt lat="48.40477" lon="2.6631">
        <ele>132.47</ele>
        <time>2021-09-15T14:17:04Z</time>
      </trkpt>
      <trkpt lat="48.40477" lon="2.66311">
        <ele>131.08</ele>
        <time>2021-09-15T14:17:11Z</time>
      </trkpt>
      <trkpt lat="48.40476" lon="2.66308">
        <ele>131.86</ele>
        <time>2021-09-15T14:17:29Z</time>
      </trkpt>
      <trkpt lat="48.40476" lon="2.66308">
        <ele>132.63</ele>
        <time>2021-09-15T14:17:53Z</time>
      </trkpt>
      <trkpt lat="48.40476" lon="2.66309">
        <ele>133.28</ele>
        <time>2021-09-15T14:17:55Z</time>
      </trkpt>
      <trkpt lat="48.40476" lon="2.66311">
        <ele>131.41</ele>
        <time>2021-09-15T14:18:26Z</time>
      </trkpt>
      <trkpt lat="48.40477" lon="2.66313">
        <ele>131.41</ele>
        <time>2021-09-15T14:18:50Z</time>
      </trkpt>
      <trkpt lat="48.40482" lon="2.66317">
        <ele>131.41</ele>
        <time>2021-09-15T14:19:14Z</time>
      </trkpt>
      <trkpt lat="48.40484" lon="2.66327">
        <ele>131.41</ele>
        <time>2021-09-15T14:19:35Z</time>
      </trkpt>
      <trkpt lat="48.40485" lon="2.66339">
        <ele>131.41</ele>
        <time>2021-09-15T14:19:45Z</time>
      </trkpt>
      <trkpt lat="48.40482" lon="2.66345">
        <ele>132.25</ele>
        <time>2021-09-15T14:19:50Z</time>
      </trkpt>
      <trkpt lat="48.40482" lon="2.66346">
        <ele>132.37</ele>
        <time>2021-09-15T14:19:51Z</time>
      </trkpt>
      <trkpt lat="48.40474" lon="2.6636">
        <ele>132.81</ele>
        <time>2021-09-15T14:20:06Z</time>
      </trkpt>
      <trkpt lat="48.40467" lon="2.66363">
        <ele>133.41</ele>
        <time>2021-09-15T14:20:18Z</time>
      </trkpt>
      <trkpt lat="48.4046" lon="2.66365">
        <ele>133.27</ele>
        <time>2021-09-15T14:20:26Z</time>
      </trkpt>
      <trkpt lat="48.40446" lon="2.66373">
        <ele>132.38</ele>
        <time>2021-09-15T14:20:42Z</time>
      </trkpt>
      <trkpt lat="48.40442" lon="2.66371">
        <ele>132.19</ele>
        <time>2021-09-15T14:20:54Z</time>
      </trkpt>
      <trkpt lat="48.40443" lon="2.66369">
        <ele>132.08</ele>
        <time>2021-09-15T14:20:55Z</time>
      </trkpt>
      <trkpt lat="48.40443" lon="2.66365">
        <ele>131.83</ele>
        <time>2021-09-15T14:20:57Z</time>
      </trkpt>
      <trkpt lat="48.40444" lon="2.66362">
        <ele>131.74</ele>
        <time>2021-09-15T14:20:58Z</time>
      </trkpt>
      <trkpt lat="48.40445" lon="2.6636">
        <ele>131.66</ele>
        <time>2021-09-15T14:20:59Z</time>
      </trkpt>
      <trkpt lat="48.40448" lon="2.66348">
        <ele>130.08</ele>
        <time>2021-09-15T14:21:06Z</time>
      </trkpt>
      <trkpt lat="48.40447" lon="2.66346">
        <ele>129.98</ele>
        <time>2021-09-15T14:21:07Z</time>
      </trkpt>
      <trkpt lat="48.40444" lon="2.66336">
        <ele>129.11</ele>
        <time>2021-09-15T14:21:15Z</time>
      </trkpt>
      <trkpt lat="48.40443" lon="2.66331">
        <ele>128.82</ele>
        <time>2021-09-15T14:21:17Z</time>
      </trkpt>
      <trkpt lat="48.40442" lon="2.66329">
        <ele>128.52</ele>
        <time>2021-09-15T14:21:18Z</time>
      </trkpt>
      <trkpt lat="48.4044" lon="2.66323">
        <ele>127.37</ele>
        <time>2021-09-15T14:21:21Z</time>
      </trkpt>
      <trkpt lat="48.4044" lon="2.66321">
        <ele>127.01</ele>
        <time>2021-09-15T14:21:22Z</time>
      </trkpt>
      <trkpt lat="48.4044" lon="2.66319">
        <ele>126.62</ele>
        <time>2021-09-15T14:21:23Z</time>
      </trkpt>
      <trkpt lat="48.4044" lon="2.66316">
        <ele>126.24</ele>
        <time>2021-09-15T14:21:24Z</time>
      </trkpt>
      <trkpt lat="48.4044" lon="2.66314">
        <ele>125.88</ele>
        <time>2021-09-15T14:21:25Z</time>
      </trkpt>
      <trkpt lat="48.4044" lon="2.66312">
        <ele>125.57</ele>
        <time>2021-09-15T14:21:26Z</time>
      </trkpt>
      <trkpt lat="48.4044" lon="2.6631">
        <ele>125.29</ele>
        <time>2021-09-15T14:21:27Z</time>
      </trkpt>
      <trkpt lat="48.40446" lon="2.66294">
        <ele>122.35</ele>
        <time>2021-09-15T14:21:35Z</time>
      </trkpt>
      <trkpt lat="48.40446" lon="2.6629">
        <ele>121.98</ele>
        <time>2021-09-15T14:21:36Z</time>
      </trkpt>
      <trkpt lat="48.40447" lon="2.66283">
        <ele>120.91</ele>
        <time>2021-09-15T14:21:39Z</time>
      </trkpt>
      <trkpt lat="48.40448" lon="2.66281">
        <ele>120.6</ele>
        <time>2021-09-15T14:21:40Z</time>
      </trkpt>
      <trkpt lat="48.40449" lon="2.66279">
        <ele>120.28</ele>
        <time>2021-09-15T14:21:41Z</time>
      </trkpt>
      <trkpt lat="48.4045" lon="2.66277">
        <ele>119.94</ele>
        <time>2021-09-15T14:21:42Z</time>
      </trkpt>
      <trkpt lat="48.40451" lon="2.66276">
        <ele>119.58</ele>
        <time>2021-09-15T14:21:43Z</time>
      </trkpt>
      <trkpt lat="48.40452" lon="2.66274">
        <ele>119.23</ele>
        <time>2021-09-15T14:21:44Z</time>
      </trkpt>
      <trkpt lat="48.40453" lon="2.66273">
        <ele>118.94</ele>
        <time>2021-09-15T14:21:45Z</time>
      </trkpt>
      <trkpt lat="48.40464" lon="2.66259">
        <ele>117.3</ele>
        <time>2021-09-15T14:22:01Z</time>
      </trkpt>
      <trkpt lat="48.40478" lon="2.6625">
        <ele>116.94</ele>
        <time>2021-09-15T14:22:12Z</time>
      </trkpt>
      <trkpt lat="48.40481" lon="2.66247">
        <ele>116.93</ele>
        <time>2021-09-15T14:22:13Z</time>
      </trkpt>
      <trkpt lat="48.40483" lon="2.66246">
        <ele>116.86</ele>
        <time>2021-09-15T14:22:14Z</time>
      </trkpt>
      <trkpt lat="48.40485" lon="2.66244">
        <ele>116.65</ele>
        <time>2021-09-15T14:22:15Z</time>
      </trkpt>
      <trkpt lat="48.40487" lon="2.66243">
        <ele>116.53</ele>
        <time>2021-09-15T14:22:16Z</time>
      </trkpt>
      <trkpt lat="48.40489" lon="2.66243">
        <ele>116.41</ele>
        <time>2021-09-15T14:22:17Z</time>
      </trkpt>
      <trkpt lat="48.4049" lon="2.66242">
        <ele>116.29</ele>
        <time>2021-09-15T14:22:18Z</time>
      </trkpt>
      <trkpt lat="48.40491" lon="2.66242">
        <ele>116.17</ele>
        <time>2021-09-15T14:22:19Z</time>
      </trkpt>
      <trkpt lat="48.40492" lon="2.66242">
        <ele>116.1</ele>
        <time>2021-09-15T14:22:20Z</time>
      </trkpt>
      <trkpt lat="48.4051" lon="2.66251">
        <ele>114.39</ele>
        <time>2021-09-15T14:22:30Z</time>
      </trkpt>
      <trkpt lat="48.40516" lon="2.6626">
        <ele>112.78</ele>
        <time>2021-09-15T14:22:36Z</time>
      </trkpt>
      <trkpt lat="48.40517" lon="2.66261">
        <ele>112.75</ele>
        <time>2021-09-15T14:22:37Z</time>
      </trkpt>
      <trkpt lat="48.40518" lon="2.66262">
        <ele>112.64</ele>
        <time>2021-09-15T14:22:38Z</time>
      </trkpt>
      <trkpt lat="48.40518" lon="2.66263">
        <ele>112.5</ele>
        <time>2021-09-15T14:22:39Z</time>
      </trkpt>
      <trkpt lat="48.40525" lon="2.66282">
        <ele>111.61</ele>
        <time>2021-09-15T14:22:54Z</time>
      </trkpt>
      <trkpt lat="48.40524" lon="2.66284">
        <ele>111.62</ele>
        <time>2021-09-15T14:22:55Z</time>
      </trkpt>
      <trkpt lat="48.40528" lon="2.66306">
        <ele>111.38</ele>
        <time>2021-09-15T14:23:03Z</time>
      </trkpt>
      <trkpt lat="48.40528" lon="2.66309">
        <ele>111.34</ele>
        <time>2021-09-15T14:23:04Z</time>
      </trkpt>
      <trkpt lat="48.4053" lon="2.66312">
        <ele>111.31</ele>
        <time>2021-09-15T14:23:05Z</time>
      </trkpt>
      <trkpt lat="48.40531" lon="2.66317">
        <ele>111.23</ele>
        <time>2021-09-15T14:23:06Z</time>
      </trkpt>
      <trkpt lat="48.40531" lon="2.66321">
        <ele>111.04</ele>
        <time>2021-09-15T14:23:07Z</time>
      </trkpt>
      <trkpt lat="48.40532" lon="2.66326">
        <ele>110.6</ele>
        <time>2021-09-15T14:23:08Z</time>
      </trkpt>
      <trkpt lat="48.40533" lon="2.6633">
        <ele>110.41</ele>
        <time>2021-09-15T14:23:09Z</time>
      </trkpt>
      <trkpt lat="48.40531" lon="2.6635">
        <ele>109.11</ele>
        <time>2021-09-15T14:23:19Z</time>
      </trkpt>
      <trkpt lat="48.40531" lon="2.66352">
        <ele>109.05</ele>
        <time>2021-09-15T14:23:20Z</time>
      </trkpt>
      <trkpt lat="48.40532" lon="2.6636">
        <ele>108.49</ele>
        <time>2021-09-15T14:23:23Z</time>
      </trkpt>
      <trkpt lat="48.40533" lon="2.66362">
        <ele>108.32</ele>
        <time>2021-09-15T14:23:24Z</time>
      </trkpt>
      <trkpt lat="48.40527" lon="2.66391">
        <ele>108.46</ele>
        <time>2021-09-15T14:23:40Z</time>
      </trkpt>
      <trkpt lat="48.40529" lon="2.66397">
        <ele>107.98</ele>
        <time>2021-09-15T14:23:43Z</time>
      </trkpt>
      <trkpt lat="48.4053" lon="2.66399">
        <ele>107.76</ele>
        <time>2021-09-15T14:23:44Z</time>
      </trkpt>
      <trkpt lat="48.40532" lon="2.66417">
        <ele>104.6</ele>
        <time>2021-09-15T14:23:51Z</time>
      </trkpt>
      <trkpt lat="48.40531" lon="2.6642">
        <ele>104.29</ele>
        <time>2021-09-15T14:23:52Z</time>
      </trkpt>
      <trkpt lat="48.4053" lon="2.66422">
        <ele>103.92</ele>
        <time>2021-09-15T14:23:53Z</time>
      </trkpt>
      <trkpt lat="48.40529" lon="2.66425">
        <ele>103.57</ele>
        <time>2021-09-15T14:23:54Z</time>
      </trkpt>
      <trkpt lat="48.40528" lon="2.66427">
        <ele>103.25</ele>
        <time>2021-09-15T14:23:55Z</time>
      </trkpt>
      <trkpt lat="48.40527" lon="2.66429">
        <ele>102.93</ele>
        <time>2021-09-15T14:23:56Z</time>
      </trkpt>
      <trkpt lat="48.40526" lon="2.66431">
        <ele>102.68</ele>
        <time>2021-09-15T14:23:57Z</time>
      </trkpt>
      <trkpt lat="48.40525" lon="2.66434">
        <ele>102.49</ele>
        <time>2021-09-15T14:23:58Z</time>
      </trkpt>
      <trkpt lat="48.40524" lon="2.66436">
        <ele>102.29</ele>
        <time>2021-09-15T14:23:59Z</time>
      </trkpt>
      <trkpt lat="48.40523" lon="2.66439">
        <ele>101.62</ele>
        <time>2021-09-15T14:24:00Z</time>
      </trkpt>
      <trkpt lat="48.40522" lon="2.66441">
        <ele>101.3</ele>
        <time>2021-09-15T14:24:01Z</time>
      </trkpt>
      <trkpt lat="48.4052" lon="2.66442">
        <ele>101.02</ele>
        <time>2021-09-15T14:24:02Z</time>
      </trkpt>
      <trkpt lat="48.40502" lon="2.66462">
        <ele>98.59</ele>
        <time>2021-09-15T14:24:14Z</time>
      </trkpt>
      <trkpt lat="48.40499" lon="2.66468">
        <ele>98.21</ele>
        <time>2021-09-15T14:24:16Z</time>
      </trkpt>
      <trkpt lat="48.40497" lon="2.66471">
        <ele>98.06</ele>
        <time>2021-09-15T14:24:17Z</time>
      </trkpt>
      <trkpt lat="48.40496" lon="2.66473">
        <ele>97.91</ele>
        <time>2021-09-15T14:24:18Z</time>
      </trkpt>
      <trkpt lat="48.40494" lon="2.66476">
        <ele>97.7</ele>
        <time>2021-09-15T14:24:19Z</time>
      </trkpt>
      <trkpt lat="48.40493" lon="2.66479">
        <ele>97.42</ele>
        <time>2021-09-15T14:24:20Z</time>
      </trkpt>
      <trkpt lat="48.40479" lon="2.66516">
        <ele>94.39</ele>
        <time>2021-09-15T14:24:31Z</time>
      </trkpt>
      <trkpt lat="48.40475" lon="2.66545">
        <ele>92.44</ele>
        <time>2021-09-15T14:24:42Z</time>
      </trkpt>
      <trkpt lat="48.40474" lon="2.66547">
        <ele>92.25</ele>
        <time>2021-09-15T14:24:43Z</time>
      </trkpt>
      <trkpt lat="48.40474" lon="2.66551">
        <ele>92.05</ele>
        <time>2021-09-15T14:24:44Z</time>
      </trkpt>
      <trkpt lat="48.40473" lon="2.66555">
        <ele>91.87</ele>
        <time>2021-09-15T14:24:45Z</time>
      </trkpt>
      <trkpt lat="48.40472" lon="2.66559">
        <ele>91.73</ele>
        <time>2021-09-15T14:24:46Z</time>
      </trkpt>
      <trkpt lat="48.40472" lon="2.66564">
        <ele>91.59</ele>
        <time>2021-09-15T14:24:47Z</time>
      </trkpt>
      <trkpt lat="48.4047" lon="2.6659">
        <ele>91.16</ele>
        <time>2021-09-15T14:24:52Z</time>
      </trkpt>
      <trkpt lat="48.4047" lon="2.66595">
        <ele>91.06</ele>
        <time>2021-09-15T14:24:53Z</time>
      </trkpt>
      <trkpt lat="48.40469" lon="2.66602">
        <ele>90.97</ele>
        <time>2021-09-15T14:24:54Z</time>
      </trkpt>
      <trkpt lat="48.40468" lon="2.66607">
        <ele>90.69</ele>
        <time>2021-09-15T14:24:55Z</time>
      </trkpt>
      <trkpt lat="48.40468" lon="2.66612">
        <ele>90.57</ele>
        <time>2021-09-15T14:24:56Z</time>
      </trkpt>
      <trkpt lat="48.40468" lon="2.66616">
        <ele>90.48</ele>
        <time>2021-09-15T14:24:57Z</time>
      </trkpt>
      <trkpt lat="48.40469" lon="2.66644">
        <ele>90.09</ele>
        <time>2021-09-15T14:25:09Z</time>
      </trkpt>
      <trkpt lat="48.4047" lon="2.66645">
        <ele>90.08</ele>
        <time>2021-09-15T14:25:10Z</time>
      </trkpt>
      <trkpt lat="48.4047" lon="2.6665">
        <ele>90.04</ele>
        <time>2021-09-15T14:25:12Z</time>
      </trkpt>
      <trkpt lat="48.40471" lon="2.66652">
        <ele>90.02</ele>
        <time>2021-09-15T14:25:13Z</time>
      </trkpt>
      <trkpt lat="48.40472" lon="2.66676">
        <ele>90</ele>
        <time>2021-09-15T14:25:24Z</time>
      </trkpt>
      <trkpt lat="48.40474" lon="2.66689">
        <ele>90.1</ele>
        <time>2021-09-15T14:25:30Z</time>
      </trkpt>
      <trkpt lat="48.40474" lon="2.66691">
        <ele>90.1</ele>
        <time>2021-09-15T14:25:31Z</time>
      </trkpt>
      <trkpt lat="48.40473" lon="2.66693">
        <ele>90.11</ele>
        <time>2021-09-15T14:25:32Z</time>
      </trkpt>
      <trkpt lat="48.40473" lon="2.66696">
        <ele>90.11</ele>
        <time>2021-09-15T14:25:33Z</time>
      </trkpt>
      <trkpt lat="48.40474" lon="2.66698">
        <ele>90.11</ele>
        <time>2021-09-15T14:25:34Z</time>
      </trkpt>
      <trkpt lat="48.40474" lon="2.66709">
        <ele>89.91</ele>
        <time>2021-09-15T14:25:40Z</time>
      </trkpt>
      <trkpt lat="48.40474" lon="2.66711">
        <ele>89.91</ele>
        <time>2021-09-15T14:25:41Z</time>
      </trkpt>
      <trkpt lat="48.40474" lon="2.66715">
        <ele>89.81</ele>
        <time>2021-09-15T14:25:43Z</time>
      </trkpt>
      <trkpt lat="48.40476" lon="2.66728">
        <ele>89.32</ele>
        <time>2021-09-15T14:25:51Z</time>
      </trkpt>
      <trkpt lat="48.40477" lon="2.6673">
        <ele>89.3</ele>
        <time>2021-09-15T14:25:52Z</time>
      </trkpt>
      <trkpt lat="48.40478" lon="2.66732">
        <ele>89.29</ele>
        <time>2021-09-15T14:25:53Z</time>
      </trkpt>
      <trkpt lat="48.40479" lon="2.66734">
        <ele>89.26</ele>
        <time>2021-09-15T14:25:54Z</time>
      </trkpt>
      <trkpt lat="48.40479" lon="2.66736">
        <ele>89.22</ele>
        <time>2021-09-15T14:25:55Z</time>
      </trkpt>
      <trkpt lat="48.40479" lon="2.66738">
        <ele>89.2</ele>
        <time>2021-09-15T14:25:56Z</time>
      </trkpt>
      <trkpt lat="48.40481" lon="2.66758">
        <ele>88.72</ele>
        <time>2021-09-15T14:26:09Z</time>
      </trkpt>
      <trkpt lat="48.40482" lon="2.66783">
        <ele>86.99</ele>
        <time>2021-09-15T14:26:24Z</time>
      </trkpt>
      <trkpt lat="48.40484" lon="2.66787">
        <ele>87.13</ele>
        <time>2021-09-15T14:26:27Z</time>
      </trkpt>
      <trkpt lat="48.40494" lon="2.66806">
        <ele>87.85</ele>
        <time>2021-09-15T14:26:43Z</time>
      </trkpt>
      <trkpt lat="48.40493" lon="2.66809">
        <ele>87.31</ele>
        <time>2021-09-15T14:27:07Z</time>
      </trkpt>
      <trkpt lat="48.40486" lon="2.66809">
        <ele>87.46</ele>
        <time>2021-09-15T14:27:48Z</time>
      </trkpt>
      <trkpt lat="48.40487" lon="2.66803">
        <ele>87.47</ele>
        <time>2021-09-15T14:28:25Z</time>
      </trkpt>
      <trkpt lat="48.40485" lon="2.66803">
        <ele>87.67</ele>
        <time>2021-09-15T14:28:57Z</time>
      </trkpt>
      <trkpt lat="48.40483" lon="2.66804">
        <ele>87.52</ele>
        <time>2021-09-15T14:29:47Z</time>
      </trkpt>
      <trkpt lat="48.40477" lon="2.66812">
        <ele>87.55</ele>
        <time>2021-09-15T14:30:03Z</time>
      </trkpt>
      <trkpt lat="48.40476" lon="2.66831">
        <ele>87.65</ele>
        <time>2021-09-15T14:30:19Z</time>
      </trkpt>
      <trkpt lat="48.40478" lon="2.66857">
        <ele>86.97</ele>
        <time>2021-09-15T14:30:35Z</time>
      </trkpt>
      <trkpt lat="48.40485" lon="2.66882">
        <ele>86.98</ele>
        <time>2021-09-15T14:30:52Z</time>
      </trkpt>
      <trkpt lat="48.40487" lon="2.6691">
        <ele>87.06</ele>
        <time>2021-09-15T14:31:08Z</time>
      </trkpt>
      <trkpt lat="48.4049" lon="2.66916">
        <ele>86.99</ele>
        <time>2021-09-15T14:31:13Z</time>
      </trkpt>
      <trkpt lat="48.40491" lon="2.66926">
        <ele>87</ele>
        <time>2021-09-15T14:31:23Z</time>
      </trkpt>
      <trkpt lat="48.40491" lon="2.66928">
        <ele>86.99</ele>
        <time>2021-09-15T14:31:24Z</time>
      </trkpt>
      <trkpt lat="48.40491" lon="2.6693">
        <ele>86.99</ele>
        <time>2021-09-15T14:31:25Z</time>
      </trkpt>
      <trkpt lat="48.40491" lon="2.66931">
        <ele>86.99</ele>
        <time>2021-09-15T14:31:26Z</time>
      </trkpt>
      <trkpt lat="48.40492" lon="2.66933">
        <ele>86.99</ele>
        <time>2021-09-15T14:31:27Z</time>
      </trkpt>
      <trkpt lat="48.40492" lon="2.66935">
        <ele>86.99</ele>
        <time>2021-09-15T14:31:28Z</time>
      </trkpt>
      <trkpt lat="48.40493" lon="2.66937">
        <ele>86.99</ele>
        <time>2021-09-15T14:31:29Z</time>
      </trkpt>
      <trkpt lat="48.40494" lon="2.66946">
        <ele>87.13</ele>
        <time>2021-09-15T14:31:34Z</time>
      </trkpt>
      <trkpt lat="48.40493" lon="2.66947">
        <ele>87.13</ele>
        <time>2021-09-15T14:31:35Z</time>
      </trkpt>
      <trkpt lat="48.40493" lon="2.66949">
        <ele>87.13</ele>
        <time>2021-09-15T14:31:36Z</time>
      </trkpt>
      <trkpt lat="48.40492" lon="2.66951">
        <ele>87.09</ele>
        <time>2021-09-15T14:31:38Z</time>
      </trkpt>
      <trkpt lat="48.40495" lon="2.66973">
        <ele>87.17</ele>
        <time>2021-09-15T14:31:54Z</time>
      </trkpt>
      <trkpt lat="48.40495" lon="2.66991">
        <ele>87.1</ele>
        <time>2021-09-15T14:32:03Z</time>
      </trkpt>
      <trkpt lat="48.40496" lon="2.67018">
        <ele>85.93</ele>
        <time>2021-09-15T14:32:18Z</time>
      </trkpt>
      <trkpt lat="48.40496" lon="2.67023">
        <ele>85.89</ele>
        <time>2021-09-15T14:32:20Z</time>
      </trkpt>
      <trkpt lat="48.40495" lon="2.67025">
        <ele>85.89</ele>
        <time>2021-09-15T14:32:21Z</time>
      </trkpt>
      <trkpt lat="48.40496" lon="2.67028">
        <ele>85.88</ele>
        <time>2021-09-15T14:32:22Z</time>
      </trkpt>
      <trkpt lat="48.40496" lon="2.67032">
        <ele>85.87</ele>
        <time>2021-09-15T14:32:23Z</time>
      </trkpt>
      <trkpt lat="48.40496" lon="2.67035">
        <ele>85.86</ele>
        <time>2021-09-15T14:32:24Z</time>
      </trkpt>
      <trkpt lat="48.40496" lon="2.67038">
        <ele>85.84</ele>
        <time>2021-09-15T14:32:25Z</time>
      </trkpt>
      <trkpt lat="48.40496" lon="2.6704">
        <ele>85.83</ele>
        <time>2021-09-15T14:32:26Z</time>
      </trkpt>
      <trkpt lat="48.40496" lon="2.67043">
        <ele>85.81</ele>
        <time>2021-09-15T14:32:27Z</time>
      </trkpt>
      <trkpt lat="48.40497" lon="2.67046">
        <ele>85.8</ele>
        <time>2021-09-15T14:32:28Z</time>
      </trkpt>
      <trkpt lat="48.40497" lon="2.67048">
        <ele>85.8</ele>
        <time>2021-09-15T14:32:29Z</time>
      </trkpt>
      <trkpt lat="48.40497" lon="2.6705">
        <ele>85.8</ele>
        <time>2021-09-15T14:32:30Z</time>
      </trkpt>
      <trkpt lat="48.40498" lon="2.67052">
        <ele>85.76</ele>
        <time>2021-09-15T14:32:31Z</time>
      </trkpt>
      <trkpt lat="48.40498" lon="2.67055">
        <ele>85.73</ele>
        <time>2021-09-15T14:32:32Z</time>
      </trkpt>
      <trkpt lat="48.40497" lon="2.67057">
        <ele>85.69</ele>
        <time>2021-09-15T14:32:33Z</time>
      </trkpt>
      <trkpt lat="48.40496" lon="2.67082">
        <ele>85.34</ele>
        <time>2021-09-15T14:32:48Z</time>
      </trkpt>
      <trkpt lat="48.40496" lon="2.67114">
        <ele>85.27</ele>
        <time>2021-09-15T14:33:01Z</time>
      </trkpt>
      <trkpt lat="48.40499" lon="2.67138">
        <ele>85.14</ele>
        <time>2021-09-15T14:33:15Z</time>
      </trkpt>
      <trkpt lat="48.405" lon="2.6714">
        <ele>85.12</ele>
        <time>2021-09-15T14:33:16Z</time>
      </trkpt>
      <trkpt lat="48.405" lon="2.67142">
        <ele>85.11</ele>
        <time>2021-09-15T14:33:17Z</time>
      </trkpt>
      <trkpt lat="48.405" lon="2.67169">
        <ele>85.09</ele>
        <time>2021-09-15T14:33:29Z</time>
      </trkpt>
      <trkpt lat="48.40501" lon="2.67178">
        <ele>85.08</ele>
        <time>2021-09-15T14:33:33Z</time>
      </trkpt>
      <trkpt lat="48.40501" lon="2.67181">
        <ele>85.07</ele>
        <time>2021-09-15T14:33:34Z</time>
      </trkpt>
      <trkpt lat="48.40502" lon="2.67184">
        <ele>85.06</ele>
        <time>2021-09-15T14:33:35Z</time>
      </trkpt>
      <trkpt lat="48.40502" lon="2.67187">
        <ele>85.06</ele>
        <time>2021-09-15T14:33:36Z</time>
      </trkpt>
      <trkpt lat="48.40503" lon="2.6719">
        <ele>85.06</ele>
        <time>2021-09-15T14:33:37Z</time>
      </trkpt>
      <trkpt lat="48.40503" lon="2.67192">
        <ele>85.06</ele>
        <time>2021-09-15T14:33:38Z</time>
      </trkpt>
      <trkpt lat="48.40503" lon="2.67194">
        <ele>85.02</ele>
        <time>2021-09-15T14:33:39Z</time>
      </trkpt>
      <trkpt lat="48.40504" lon="2.67215">
        <ele>85.03</ele>
        <time>2021-09-15T14:33:53Z</time>
      </trkpt>
      <trkpt lat="48.40504" lon="2.67217">
        <ele>85.02</ele>
        <time>2021-09-15T14:33:54Z</time>
      </trkpt>
      <trkpt lat="48.40506" lon="2.67244">
        <ele>84.99</ele>
        <time>2021-09-15T14:34:06Z</time>
      </trkpt>
      <trkpt lat="48.4051" lon="2.67281">
        <ele>85.03</ele>
        <time>2021-09-15T14:34:21Z</time>
      </trkpt>
      <trkpt lat="48.40512" lon="2.67314">
        <ele>84.75</ele>
        <time>2021-09-15T14:34:37Z</time>
      </trkpt>
      <trkpt lat="48.40516" lon="2.67347">
        <ele>84.35</ele>
        <time>2021-09-15T14:34:54Z</time>
      </trkpt>
      <trkpt lat="48.40518" lon="2.6738">
        <ele>84.32</ele>
        <time>2021-09-15T14:35:09Z</time>
      </trkpt>
      <trkpt lat="48.4052" lon="2.67407">
        <ele>84.16</ele>
        <time>2021-09-15T14:35:23Z</time>
      </trkpt>
      <trkpt lat="48.40524" lon="2.6744">
        <ele>84.13</ele>
        <time>2021-09-15T14:35:40Z</time>
      </trkpt>
      <trkpt lat="48.40527" lon="2.6747">
        <ele>83.9</ele>
        <time>2021-09-15T14:35:54Z</time>
      </trkpt>
      <trkpt lat="48.40527" lon="2.67477">
        <ele>83.92</ele>
        <time>2021-09-15T14:35:58Z</time>
      </trkpt>
      <trkpt lat="48.40527" lon="2.67479">
        <ele>83.93</ele>
        <time>2021-09-15T14:35:59Z</time>
      </trkpt>
      <trkpt lat="48.40528" lon="2.67482">
        <ele>83.94</ele>
        <time>2021-09-15T14:36:00Z</time>
      </trkpt>
      <trkpt lat="48.40529" lon="2.67504">
        <ele>83.78</ele>
        <time>2021-09-15T14:36:12Z</time>
      </trkpt>
      <trkpt lat="48.40532" lon="2.67535">
        <ele>83.92</ele>
        <time>2021-09-15T14:36:29Z</time>
      </trkpt>
      <trkpt lat="48.40533" lon="2.67541">
        <ele>84.06</ele>
        <time>2021-09-15T14:36:32Z</time>
      </trkpt>
      <trkpt lat="48.40534" lon="2.67543">
        <ele>83.95</ele>
        <time>2021-09-15T14:36:33Z</time>
      </trkpt>
      <trkpt lat="48.40535" lon="2.67568">
        <ele>83.88</ele>
        <time>2021-09-15T14:36:48Z</time>
      </trkpt>
      <trkpt lat="48.40537" lon="2.67596">
        <ele>84.08</ele>
        <time>2021-09-15T14:37:05Z</time>
      </trkpt>
      <trkpt lat="48.40538" lon="2.67607">
        <ele>82.02</ele>
        <time>2021-09-15T14:37:11Z</time>
      </trkpt>
      <trkpt lat="48.40539" lon="2.6762">
        <ele>84.91</ele>
        <time>2021-09-15T14:37:18Z</time>
      </trkpt>
      <trkpt lat="48.40541" lon="2.67649">
        <ele>83.91</ele>
        <time>2021-09-15T14:37:36Z</time>
      </trkpt>
      <trkpt lat="48.40541" lon="2.6767">
        <ele>80.72</ele>
        <time>2021-09-15T14:37:49Z</time>
      </trkpt>
      <trkpt lat="48.40542" lon="2.67679">
        <ele>83.87</ele>
        <time>2021-09-15T14:37:57Z</time>
      </trkpt>
      <trkpt lat="48.40542" lon="2.67693">
        <ele>85.53</ele>
        <time>2021-09-15T14:38:15Z</time>
      </trkpt>
      <trkpt lat="48.40542" lon="2.677">
        <ele>85.66</ele>
        <time>2021-09-15T14:38:25Z</time>
      </trkpt>
      <trkpt lat="48.40539" lon="2.67722">
        <ele>84.6</ele>
        <time>2021-09-15T14:38:39Z</time>
      </trkpt>
      <trkpt lat="48.40527" lon="2.67748">
        <ele>84.05</ele>
        <time>2021-09-15T14:38:57Z</time>
      </trkpt>
      <trkpt lat="48.4051" lon="2.67765">
        <ele>83.92</ele>
        <time>2021-09-15T14:39:16Z</time>
      </trkpt>
      <trkpt lat="48.40506" lon="2.67768">
        <ele>83.77</ele>
        <time>2021-09-15T14:39:20Z</time>
      </trkpt>
      <trkpt lat="48.40504" lon="2.67769">
        <ele>83.94</ele>
        <time>2021-09-15T14:39:21Z</time>
      </trkpt>
      <trkpt lat="48.40496" lon="2.67774">
        <ele>87.03</ele>
        <time>2021-09-15T14:39:26Z</time>
      </trkpt>
      <trkpt lat="48.40481" lon="2.67786">
        <ele>83.98</ele>
        <time>2021-09-15T14:39:38Z</time>
      </trkpt>
      <trkpt lat="48.4046" lon="2.67793">
        <ele>83.33</ele>
        <time>2021-09-15T14:39:56Z</time>
      </trkpt>
      <trkpt lat="48.40456" lon="2.67794">
        <ele>83.19</ele>
        <time>2021-09-15T14:40:09Z</time>
      </trkpt>
      <trkpt lat="48.40455" lon="2.67794">
        <ele>84.16</ele>
        <time>2021-09-15T14:40:20Z</time>
      </trkpt>
      <trkpt lat="48.4045" lon="2.67795">
        <ele>82.1</ele>
        <time>2021-09-15T14:40:30Z</time>
      </trkpt>
      <trkpt lat="48.40448" lon="2.67796">
        <ele>83.63</ele>
        <time>2021-09-15T14:40:34Z</time>
      </trkpt>
    </trkseg>
  </trk>
</gpx>